<?xml version='1.0' encoding='UTF-8'?><gpx version="1.1" creator="JPX - https://github.com/jenetics/jpx" xmlns="http://www.topografix.com/GPX/1/1"><trk><trkseg><trkpt lat="45.47559965184162" lon="8.693276666681873"><ele>154.0</ele><time>2026-03-28T12:41:48.01Z</time></trkpt><trkpt lat="45.47560372827251" lon="8.693138437956735"><ele>154.0</ele><time>2026-03-28T12:41:50.01Z</time></trkpt><trkpt lat="45.47559374383047" lon="8.69295575328664"><ele>154.0</ele><time>2026-03-28T12:41:52.01Z</time></trkpt><trkpt lat="45.475584272393625" lon="8.692852206237546"><ele>154.0</ele><time>2026-03-28T12:41:53.01Z</time></trkpt><trkpt lat="45.47557985282593" lon="8.692735817672858"><ele>154.0</ele><time>2026-03-28T12:41:54.01Z</time></trkpt><trkpt lat="45.475587391149666" lon="8.692610189430138"><ele>154.0</ele><time>2026-03-28T12:41:55.01Z</time></trkpt><trkpt lat="45.475597210316295" lon="8.692490260745716"><ele>154.0</ele><time>2026-03-28T12:41:56.01Z</time></trkpt><trkpt lat="45.475607287308726" lon="8.692351897881911"><ele>154.0</ele><time>2026-03-28T12:41:57.01Z</time></trkpt><trkpt lat="45.47560868403653" lon="8.69220495969566"><ele>154.0</ele><time>2026-03-28T12:41:58.01Z</time></trkpt><trkpt lat="45.475575785800004" lon="8.692068651022732"><ele>154.0</ele><time>2026-03-28T12:41:59.01Z</time></trkpt><trkpt lat="45.475513437276625" lon="8.691933479666261"><ele>153.25</ele><time>2026-03-28T12:42:00.01Z</time></trkpt><trkpt lat="45.47542777041542" lon="8.691816257203424"><ele>152.5</ele><time>2026-03-28T12:42:01.01Z</time></trkpt><trkpt lat="45.47532875550268" lon="8.6917129551411"><ele>151.75</ele><time>2026-03-28T12:42:02.01Z</time></trkpt><trkpt lat="45.475207172613075" lon="8.691602863989912"><ele>151.0</ele><time>2026-03-28T12:42:03.01Z</time></trkpt><trkpt lat="45.47509021987947" lon="8.6914891678046"><ele>151.0</ele><time>2026-03-28T12:42:04.01Z</time></trkpt><trkpt lat="45.47496936172893" lon="8.691372256991027"><ele>151.0</ele><time>2026-03-28T12:42:05.01Z</time></trkpt><trkpt lat="45.47485149618434" lon="8.691252646808074"><ele>151.0</ele><time>2026-03-28T12:42:06.01Z</time></trkpt><trkpt lat="45.47472647851146" lon="8.691139472859039"><ele>151.0</ele><time>2026-03-28T12:42:07.01Z</time></trkpt><trkpt lat="45.4745981092347" lon="8.691022066605964"><ele>150.75</ele><time>2026-03-28T12:42:08.01Z</time></trkpt><trkpt lat="45.47447360150749" lon="8.690902526080686"><ele>150.5</ele><time>2026-03-28T12:42:09.01Z</time></trkpt><trkpt lat="45.474350021187526" lon="8.690792216378542"><ele>150.25</ele><time>2026-03-28T12:42:10.01Z</time></trkpt><trkpt lat="45.47423139744952" lon="8.69068184658213"><ele>150.0</ele><time>2026-03-28T12:42:11.01Z</time></trkpt><trkpt lat="45.47410633769274" lon="8.69057084385538"><ele>150.0</ele><time>2026-03-28T12:42:12.01Z</time></trkpt><trkpt lat="45.47398631705101" lon="8.690452851838756"><ele>150.0</ele><time>2026-03-28T12:42:13.011Z</time></trkpt><trkpt lat="45.47387019458234" lon="8.690322155316165"><ele>150.0</ele><time>2026-03-28T12:42:14.011Z</time></trkpt><trkpt lat="45.473748731161905" lon="8.690194705650464"><ele>150.0</ele><time>2026-03-28T12:42:15.011Z</time></trkpt><trkpt lat="45.47362454868905" lon="8.690080745257097"><ele>150.75</ele><time>2026-03-28T12:42:16.011Z</time></trkpt><trkpt lat="45.47350025969058" lon="8.689969452258389"><ele>151.5</ele><time>2026-03-28T12:42:17.011Z</time></trkpt><trkpt lat="45.47338147965111" lon="8.689862779931024"><ele>152.25</ele><time>2026-03-28T12:42:18.011Z</time></trkpt><trkpt lat="45.473271616806585" lon="8.689754544422422"><ele>153.0</ele><time>2026-03-28T12:42:19.011Z</time></trkpt><trkpt lat="45.47316454999864" lon="8.689648583520084"><ele>153.0</ele><time>2026-03-28T12:42:20.011Z</time></trkpt><trkpt lat="45.47305440684113" lon="8.689547219871761"><ele>153.0</ele><time>2026-03-28T12:42:21.011Z</time></trkpt><trkpt lat="45.47295208889756" lon="8.68943852766699"><ele>153.0</ele><time>2026-03-28T12:42:22.011Z</time></trkpt><trkpt lat="45.472852560092115" lon="8.689330583547829"><ele>153.0</ele><time>2026-03-28T12:42:23.011Z</time></trkpt><trkpt lat="45.47275568535509" lon="8.689220380576712"><ele>152.75</ele><time>2026-03-28T12:42:24.011Z</time></trkpt><trkpt lat="45.47265509554956" lon="8.689122365844653"><ele>152.5</ele><time>2026-03-28T12:42:25.011Z</time></trkpt><trkpt lat="45.472555072179084" lon="8.6890172139846"><ele>152.25</ele><time>2026-03-28T12:42:26.011Z</time></trkpt><trkpt lat="45.472451893626236" lon="8.68891124446499"><ele>152.0</ele><time>2026-03-28T12:42:27.011Z</time></trkpt><trkpt lat="45.472346716453984" lon="8.688806965434985"><ele>152.0</ele><time>2026-03-28T12:42:28.011Z</time></trkpt><trkpt lat="45.47224188730644" lon="8.688696712825278"><ele>152.0</ele><time>2026-03-28T12:42:29.011Z</time></trkpt><trkpt lat="45.472135180733275" lon="8.688584344614123"><ele>152.0</ele><time>2026-03-28T12:42:30.011Z</time></trkpt><trkpt lat="45.47202278260657" lon="8.68847167815351"><ele>152.0</ele><time>2026-03-28T12:42:31.011Z</time></trkpt><trkpt lat="45.471903747868" lon="8.688365037893105"><ele>151.75</ele><time>2026-03-28T12:42:32.011Z</time></trkpt><trkpt lat="45.47178605735489" lon="8.688251918652593"><ele>151.5</ele><time>2026-03-28T12:42:33.011Z</time></trkpt><trkpt lat="45.47167066977511" lon="8.68813770117182"><ele>151.25</ele><time>2026-03-28T12:42:34.011Z</time></trkpt><trkpt lat="45.471557776352334" lon="8.688022077341255"><ele>151.0</ele><time>2026-03-28T12:42:35.011Z</time></trkpt><trkpt lat="45.47144298731478" lon="8.687905952410386"><ele>151.0</ele><time>2026-03-28T12:42:36.011Z</time></trkpt><trkpt lat="45.47132578016215" lon="8.687798208945146"><ele>151.0</ele><time>2026-03-28T12:42:37.011Z</time></trkpt><trkpt lat="45.471211052013345" lon="8.687686220737035"><ele>151.0</ele><time>2026-03-28T12:42:38.011Z</time></trkpt><trkpt lat="45.47109978212628" lon="8.687571912501793"><ele>151.0</ele><time>2026-03-28T12:42:39.011Z</time></trkpt><trkpt lat="45.470985736582016" lon="8.687465190685284"><ele>151.25</ele><time>2026-03-28T12:42:40.011Z</time></trkpt><trkpt lat="45.47087178592901" lon="8.687354057417208"><ele>151.5</ele><time>2026-03-28T12:42:41.011Z</time></trkpt><trkpt lat="45.470759496557015" lon="8.687241914360166"><ele>151.75</ele><time>2026-03-28T12:42:42.011Z</time></trkpt><trkpt lat="45.47064936172837" lon="8.687131041823971"><ele>152.0</ele><time>2026-03-28T12:42:43.011Z</time></trkpt><trkpt lat="45.47053899247655" lon="8.687019804174875"><ele>151.75</ele><time>2026-03-28T12:42:44.011Z</time></trkpt><trkpt lat="45.470430190516986" lon="8.686911665605972"><ele>151.5</ele><time>2026-03-28T12:42:45.011Z</time></trkpt><trkpt lat="45.470323638941814" lon="8.68680708385274"><ele>151.25</ele><time>2026-03-28T12:42:46.012Z</time></trkpt><trkpt lat="45.47022013140602" lon="8.686707371069625"><ele>151.0</ele><time>2026-03-28T12:42:47.012Z</time></trkpt><trkpt lat="45.4701191386444" lon="8.686605582466852"><ele>151.0</ele><time>2026-03-28T12:42:48.012Z</time></trkpt><trkpt lat="45.470017391979106" lon="8.686497744794112"><ele>151.0</ele><time>2026-03-28T12:42:49.012Z</time></trkpt><trkpt lat="45.469918445607725" lon="8.686389762014754"><ele>151.0</ele><time>2026-03-28T12:42:50.012Z</time></trkpt><trkpt lat="45.46982148669501" lon="8.686291916485857"><ele>151.0</ele><time>2026-03-28T12:42:51.012Z</time></trkpt><trkpt lat="45.469733159322836" lon="8.686202083011304"><ele>151.0</ele><time>2026-03-28T12:42:52.012Z</time></trkpt><trkpt lat="45.469657704958756" lon="8.686114655974176"><ele>151.0</ele><time>2026-03-28T12:42:53.012Z</time></trkpt><trkpt lat="45.46959706927404" lon="8.686025778299475"><ele>151.0</ele><time>2026-03-28T12:42:54.012Z</time></trkpt><trkpt lat="45.46955117523403" lon="8.685931017165938"><ele>151.0</ele><time>2026-03-28T12:42:55.012Z</time></trkpt><trkpt lat="45.46951342990121" lon="8.685827277958635"><ele>151.0</ele><time>2026-03-28T12:42:56.012Z</time></trkpt><trkpt lat="45.46946479647373" lon="8.685725537502659"><ele>151.0</ele><time>2026-03-28T12:42:57.012Z</time></trkpt><trkpt lat="45.46939227996342" lon="8.685644074628101"><ele>150.2</ele><time>2026-03-28T12:42:58.012Z</time></trkpt><trkpt lat="45.46930511243268" lon="8.685598711455633"><ele>149.39999999999998</ele><time>2026-03-28T12:42:59.012Z</time></trkpt><trkpt lat="45.46920528340311" lon="8.685567784875037"><ele>148.6</ele><time>2026-03-28T12:43:00.012Z</time></trkpt><trkpt lat="45.469101213089914" lon="8.685518064782354"><ele>147.79999999999998</ele><time>2026-03-28T12:43:01.012Z</time></trkpt><trkpt lat="45.46900320968605" lon="8.685442168648247"><ele>147.0</ele><time>2026-03-28T12:43:02.012Z</time></trkpt><trkpt lat="45.46890627004885" lon="8.685349803102834"><ele>147.75</ele><time>2026-03-28T12:43:03.012Z</time></trkpt><trkpt lat="45.46880517228499" lon="8.685260521440881"><ele>148.5</ele><time>2026-03-28T12:43:04.012Z</time></trkpt><trkpt lat="45.46870146946659" lon="8.685165653780015"><ele>149.25</ele><time>2026-03-28T12:43:05.012Z</time></trkpt><trkpt lat="45.468595851957346" lon="8.68506605023337"><ele>150.0</ele><time>2026-03-28T12:43:06.012Z</time></trkpt><trkpt lat="45.468488382639876" lon="8.684963325424201"><ele>150.0</ele><time>2026-03-28T12:43:07.012Z</time></trkpt><trkpt lat="45.46837805133536" lon="8.68485772557816"><ele>150.0</ele><time>2026-03-28T12:43:08.012Z</time></trkpt><trkpt lat="45.46826085334985" lon="8.68475023799824"><ele>150.0</ele><time>2026-03-28T12:43:09.012Z</time></trkpt><trkpt lat="45.46813770598283" lon="8.68464258203136"><ele>150.0</ele><time>2026-03-28T12:43:10.012Z</time></trkpt><trkpt lat="45.468011658193205" lon="8.684535370086758"><ele>149.75</ele><time>2026-03-28T12:43:11.012Z</time></trkpt><trkpt lat="45.46788981469442" lon="8.684421861017608"><ele>149.5</ele><time>2026-03-28T12:43:12.012Z</time></trkpt><trkpt lat="45.467767510485146" lon="8.684321852163666"><ele>149.25</ele><time>2026-03-28T12:43:13.012Z</time></trkpt><trkpt lat="45.467642092637576" lon="8.684219264253002"><ele>149.0</ele><time>2026-03-28T12:43:14.012Z</time></trkpt><trkpt lat="45.46753843066783" lon="8.68409779250027"><ele>149.0</ele><time>2026-03-28T12:43:15.012Z</time></trkpt><trkpt lat="45.46744777959894" lon="8.683978807699392"><ele>149.0</ele><time>2026-03-28T12:43:16.012Z</time></trkpt><trkpt lat="45.46734231809415" lon="8.683865190751197"><ele>149.0</ele><time>2026-03-28T12:43:17.012Z</time></trkpt><trkpt lat="45.46723219402118" lon="8.683753059169552"><ele>149.0</ele><time>2026-03-28T12:43:18.012Z</time></trkpt><trkpt lat="45.46712321592317" lon="8.683629869216658"><ele>148.75</ele><time>2026-03-28T12:43:19.013Z</time></trkpt><trkpt lat="45.46702211513149" lon="8.68350057732339"><ele>148.5</ele><time>2026-03-28T12:43:20.013Z</time></trkpt><trkpt lat="45.4669321181413" lon="8.683370470891187"><ele>148.25</ele><time>2026-03-28T12:43:21.013Z</time></trkpt><trkpt lat="45.46685615634422" lon="8.683238947131269"><ele>148.0</ele><time>2026-03-28T12:43:22.013Z</time></trkpt><trkpt lat="45.466798542309746" lon="8.683100900433887"><ele>148.0</ele><time>2026-03-28T12:43:23.013Z</time></trkpt><trkpt lat="45.466758014282576" lon="8.68294194546427"><ele>148.0</ele><time>2026-03-28T12:43:24.013Z</time></trkpt><trkpt lat="45.46673827038667" lon="8.682767914833025"><ele>148.0</ele><time>2026-03-28T12:43:25.013Z</time></trkpt><trkpt lat="45.46671997824885" lon="8.682584950032629"><ele>148.0</ele><time>2026-03-28T12:43:26.013Z</time></trkpt><trkpt lat="45.46668791164755" lon="8.682402964967357"><ele>148.0</ele><time>2026-03-28T12:43:27.013Z</time></trkpt><trkpt lat="45.46663606769296" lon="8.682225946318367"><ele>148.0</ele><time>2026-03-28T12:43:28.013Z</time></trkpt><trkpt lat="45.466564795882434" lon="8.682060887742274"><ele>148.0</ele><time>2026-03-28T12:43:29.013Z</time></trkpt><trkpt lat="45.46647274101989" lon="8.681910485372267"><ele>148.0</ele><time>2026-03-28T12:43:30.013Z</time></trkpt><trkpt lat="45.46636800070713" lon="8.68177126939949"><ele>148.0</ele><time>2026-03-28T12:43:31.013Z</time></trkpt><trkpt lat="45.46626194610446" lon="8.68162846314093"><ele>148.0</ele><time>2026-03-28T12:43:32.013Z</time></trkpt><trkpt lat="45.46616938500439" lon="8.681463097823249"><ele>148.0</ele><time>2026-03-28T12:43:33.013Z</time></trkpt><trkpt lat="45.46610134526456" lon="8.681270825231588"><ele>148.0</ele><time>2026-03-28T12:43:34.013Z</time></trkpt><trkpt lat="45.46606139940948" lon="8.68106017346183"><ele>147.66666666666669</ele><time>2026-03-28T12:43:35.013Z</time></trkpt><trkpt lat="45.466042568586104" lon="8.680839839966517"><ele>147.33333333333334</ele><time>2026-03-28T12:43:36.013Z</time></trkpt><trkpt lat="45.46603506894472" lon="8.680612155642875"><ele>147.0</ele><time>2026-03-28T12:43:37.013Z</time></trkpt><trkpt lat="45.46602788828937" lon="8.680383880867243"><ele>146.66666666666666</ele><time>2026-03-28T12:43:38.013Z</time></trkpt><trkpt lat="45.46602245073623" lon="8.680162578085207"><ele>146.33333333333331</ele><time>2026-03-28T12:43:39.013Z</time></trkpt><trkpt lat="45.46601658179108" lon="8.679938378702602"><ele>146.0</ele><time>2026-03-28T12:43:40.013Z</time></trkpt><trkpt lat="45.46601077943246" lon="8.67970726791196"><ele>146.0</ele><time>2026-03-28T12:43:41.013Z</time></trkpt><trkpt lat="45.466001836020574" lon="8.679472411913107"><ele>146.0</ele><time>2026-03-28T12:43:42.013Z</time></trkpt><trkpt lat="45.46599198273466" lon="8.679234857237436"><ele>146.0</ele><time>2026-03-28T12:43:43.013Z</time></trkpt><trkpt lat="45.46598249877855" lon="8.678990210653174"><ele>146.0</ele><time>2026-03-28T12:43:44.013Z</time></trkpt><trkpt lat="45.46597216714905" lon="8.67874055512157"><ele>146.0</ele><time>2026-03-28T12:43:45.013Z</time></trkpt><trkpt lat="45.46596360428454" lon="8.678484286484688"><ele>146.0</ele><time>2026-03-28T12:43:46.013Z</time></trkpt><trkpt lat="45.46595563370881" lon="8.678221375281655"><ele>146.0</ele><time>2026-03-28T12:43:47.013Z</time></trkpt><trkpt lat="45.46594738777892" lon="8.677957769410048"><ele>146.0</ele><time>2026-03-28T12:43:48.013Z</time></trkpt><trkpt lat="45.46593872226778" lon="8.677690644176657"><ele>146.0</ele><time>2026-03-28T12:43:49.013Z</time></trkpt><trkpt lat="45.46593135912368" lon="8.677420768594382"><ele>146.0</ele><time>2026-03-28T12:43:50.013Z</time></trkpt><trkpt lat="45.46592372621485" lon="8.677151661666873"><ele>146.0</ele><time>2026-03-28T12:43:51.013Z</time></trkpt><trkpt lat="45.465916658331615" lon="8.676885291448519"><ele>146.0</ele><time>2026-03-28T12:43:52.014Z</time></trkpt><trkpt lat="45.46590901104133" lon="8.676621193692322"><ele>146.33333333333331</ele><time>2026-03-28T12:43:53.014Z</time></trkpt><trkpt lat="45.46590256472017" lon="8.676357385092622"><ele>146.66666666666666</ele><time>2026-03-28T12:43:54.014Z</time></trkpt><trkpt lat="45.465894466527054" lon="8.676095166080776"><ele>147.0</ele><time>2026-03-28T12:43:55.014Z</time></trkpt><trkpt lat="45.46588872891014" lon="8.67583557350473"><ele>147.0</ele><time>2026-03-28T12:43:56.014Z</time></trkpt><trkpt lat="45.46587485892239" lon="8.675579984102573"><ele>147.0</ele><time>2026-03-28T12:43:57.014Z</time></trkpt><trkpt lat="45.4658574944766" lon="8.675331048938348"><ele>147.0</ele><time>2026-03-28T12:43:58.014Z</time></trkpt><trkpt lat="45.46583638602393" lon="8.6751003146939"><ele>147.25</ele><time>2026-03-28T12:43:59.014Z</time></trkpt><trkpt lat="45.46581146191443" lon="8.674880130331342"><ele>147.5</ele><time>2026-03-28T12:44:00.014Z</time></trkpt><trkpt lat="45.46578652229927" lon="8.674670400484462"><ele>147.75</ele><time>2026-03-28T12:44:01.014Z</time></trkpt><trkpt lat="45.46576142325939" lon="8.674474369527822"><ele>148.0</ele><time>2026-03-28T12:44:02.014Z</time></trkpt><trkpt lat="45.46573886652453" lon="8.674288082616517"><ele>148.0</ele><time>2026-03-28T12:44:03.014Z</time></trkpt><trkpt lat="45.465733485717415" lon="8.674111254138095"><ele>148.0</ele><time>2026-03-28T12:44:04.014Z</time></trkpt><trkpt lat="45.46574982531401" lon="8.673949934473601"><ele>148.0</ele><time>2026-03-28T12:44:05.014Z</time></trkpt><trkpt lat="45.46577000525241" lon="8.673804105454446"><ele>148.0</ele><time>2026-03-28T12:44:06.014Z</time></trkpt><trkpt lat="45.46576945885455" lon="8.673672849794803"><ele>148.0</ele><time>2026-03-28T12:44:07.014Z</time></trkpt><trkpt lat="45.465738880144876" lon="8.673566071797483"><ele>147.8</ele><time>2026-03-28T12:44:08.014Z</time></trkpt><trkpt lat="45.465682069456484" lon="8.673472728147742"><ele>147.60000000000002</ele><time>2026-03-28T12:44:09.014Z</time></trkpt><trkpt lat="45.46561728232105" lon="8.67337265336355"><ele>147.39999999999998</ele><time>2026-03-28T12:44:10.014Z</time></trkpt><trkpt lat="45.46556718205224" lon="8.673240468203202"><ele>147.2</ele><time>2026-03-28T12:44:11.014Z</time></trkpt><trkpt lat="45.46552792385975" lon="8.673071828632443"><ele>147.0</ele><time>2026-03-28T12:44:12.014Z</time></trkpt><trkpt lat="45.4654898872002" lon="8.672882439674925"><ele>147.0</ele><time>2026-03-28T12:44:13.014Z</time></trkpt><trkpt lat="45.46544653546512" lon="8.67268570975572"><ele>147.0</ele><time>2026-03-28T12:44:14.014Z</time></trkpt><trkpt lat="45.46539950591924" lon="8.672491255978509"><ele>147.0</ele><time>2026-03-28T12:44:15.014Z</time></trkpt><trkpt lat="45.46535118594474" lon="8.672290913004666"><ele>147.0</ele><time>2026-03-28T12:44:16.014Z</time></trkpt><trkpt lat="45.46530091553714" lon="8.672084823859379"><ele>147.33333333333334</ele><time>2026-03-28T12:44:17.014Z</time></trkpt><trkpt lat="45.46525181961402" lon="8.671872723201703"><ele>147.66666666666669</ele><time>2026-03-28T12:44:18.014Z</time></trkpt><trkpt lat="45.46520413698165" lon="8.67166123018074"><ele>148.0</ele><time>2026-03-28T12:44:19.014Z</time></trkpt><trkpt lat="45.46515598456201" lon="8.671450386073293"><ele>148.0</ele><time>2026-03-28T12:44:20.014Z</time></trkpt><trkpt lat="45.46510682245354" lon="8.671241828217951"><ele>148.0</ele><time>2026-03-28T12:44:21.014Z</time></trkpt><trkpt lat="45.465058359105406" lon="8.671032767731136"><ele>148.0</ele><time>2026-03-28T12:44:22.014Z</time></trkpt><trkpt lat="45.46501682851594" lon="8.670815610442398"><ele>147.33333333333334</ele><time>2026-03-28T12:44:23.014Z</time></trkpt><trkpt lat="45.46498472382252" lon="8.670593161206696"><ele>146.66666666666666</ele><time>2026-03-28T12:44:24.014Z</time></trkpt><trkpt lat="45.46496723657053" lon="8.670365025483969"><ele>146.0</ele><time>2026-03-28T12:44:25.015Z</time></trkpt><trkpt lat="45.46496304593987" lon="8.670132368012455"><ele>146.0</ele><time>2026-03-28T12:44:26.015Z</time></trkpt><trkpt lat="45.46496560892521" lon="8.669899403524543"><ele>146.0</ele><time>2026-03-28T12:44:27.015Z</time></trkpt><trkpt lat="45.46497694381729" lon="8.669666238096067"><ele>146.0</ele><time>2026-03-28T12:44:28.015Z</time></trkpt><trkpt lat="45.46499592065032" lon="8.66942977930791"><ele>146.33333333333331</ele><time>2026-03-28T12:44:29.015Z</time></trkpt><trkpt lat="45.465028292257315" lon="8.669196993532452"><ele>146.66666666666666</ele><time>2026-03-28T12:44:30.015Z</time></trkpt><trkpt lat="45.465073640600025" lon="8.66897927045892"><ele>147.0</ele><time>2026-03-28T12:44:31.015Z</time></trkpt><trkpt lat="45.46512038273976" lon="8.668777699023828"><ele>146.75</ele><time>2026-03-28T12:44:32.015Z</time></trkpt><trkpt lat="45.46517003179845" lon="8.668594187862142"><ele>146.5</ele><time>2026-03-28T12:44:33.015Z</time></trkpt><trkpt lat="45.465221009277" lon="8.668422432819074"><ele>146.25</ele><time>2026-03-28T12:44:34.015Z</time></trkpt><trkpt lat="45.46527973130746" lon="8.668251957310128"><ele>146.0</ele><time>2026-03-28T12:44:35.015Z</time></trkpt><trkpt lat="45.4653493479467" lon="8.668080709335957"><ele>146.0</ele><time>2026-03-28T12:44:36.015Z</time></trkpt><trkpt lat="45.46542642952446" lon="8.667915155043616"><ele>146.0</ele><time>2026-03-28T12:44:37.015Z</time></trkpt><trkpt lat="45.46550809135557" lon="8.667757022888845"><ele>146.0</ele><time>2026-03-28T12:44:38.015Z</time></trkpt><trkpt lat="45.46559442377661" lon="8.667601104652924"><ele>146.0</ele><time>2026-03-28T12:44:39.015Z</time></trkpt><trkpt lat="45.465686859465464" lon="8.667449153054399"><ele>146.0</ele><time>2026-03-28T12:44:40.015Z</time></trkpt><trkpt lat="45.465788256707974" lon="8.667303233724738"><ele>146.0</ele><time>2026-03-28T12:44:41.015Z</time></trkpt><trkpt lat="45.465892765564504" lon="8.667160977000542"><ele>146.0</ele><time>2026-03-28T12:44:42.015Z</time></trkpt><trkpt lat="45.4659998517636" lon="8.667019606834645"><ele>146.0</ele><time>2026-03-28T12:44:43.015Z</time></trkpt><trkpt lat="45.46610923427068" lon="8.666875148708046"><ele>146.33333333333331</ele><time>2026-03-28T12:44:44.015Z</time></trkpt><trkpt lat="45.4662168089019" lon="8.666729982480108"><ele>146.66666666666666</ele><time>2026-03-28T12:44:45.015Z</time></trkpt><trkpt lat="45.46632771691797" lon="8.666582795459586"><ele>147.0</ele><time>2026-03-28T12:44:46.015Z</time></trkpt><trkpt lat="45.466439772222785" lon="8.666437890702506"><ele>148.0</ele><time>2026-03-28T12:44:47.015Z</time></trkpt><trkpt lat="45.466554894049295" lon="8.666292192664518"><ele>149.0</ele><time>2026-03-28T12:44:48.015Z</time></trkpt><trkpt lat="45.46667113229354" lon="8.666140712379192"><ele>150.0</ele><time>2026-03-28T12:44:49.015Z</time></trkpt><trkpt lat="45.46679045218075" lon="8.66598910164828"><ele>149.66666666666666</ele><time>2026-03-28T12:44:50.015Z</time></trkpt><trkpt lat="45.46691102544907" lon="8.665834300577004"><ele>149.33333333333331</ele><time>2026-03-28T12:44:51.015Z</time></trkpt><trkpt lat="45.467033421343224" lon="8.665676582523977"><ele>149.0</ele><time>2026-03-28T12:44:52.015Z</time></trkpt><trkpt lat="45.467151330805684" lon="8.665528107402649"><ele>149.0</ele><time>2026-03-28T12:44:53.015Z</time></trkpt><trkpt lat="45.467263370263176" lon="8.665388150486171"><ele>149.0</ele><time>2026-03-28T12:44:54.015Z</time></trkpt><trkpt lat="45.46736933783789" lon="8.665253186496903"><ele>149.0</ele><time>2026-03-28T12:44:55.015Z</time></trkpt><trkpt lat="45.46747145722229" lon="8.665120459222162"><ele>149.0</ele><time>2026-03-28T12:44:56.015Z</time></trkpt><trkpt lat="45.46757153604053" lon="8.664993042732702"><ele>149.25</ele><time>2026-03-28T12:44:57.015Z</time></trkpt><trkpt lat="45.467664041994325" lon="8.664866593912725"><ele>149.5</ele><time>2026-03-28T12:44:58.015Z</time></trkpt><trkpt lat="45.46774257113095" lon="8.664734300945183"><ele>149.75</ele><time>2026-03-28T12:44:59.016Z</time></trkpt><trkpt lat="45.46779825359435" lon="8.664581293324344"><ele>150.0</ele><time>2026-03-28T12:45:00.016Z</time></trkpt><trkpt lat="45.46783663227907" lon="8.664416964283335"><ele>150.25</ele><time>2026-03-28T12:45:01.016Z</time></trkpt><trkpt lat="45.467833093628755" lon="8.664235076784163"><ele>150.5</ele><time>2026-03-28T12:45:02.016Z</time></trkpt><trkpt lat="45.46781113008368" lon="8.664039393001728"><ele>150.75</ele><time>2026-03-28T12:45:03.016Z</time></trkpt><trkpt lat="45.46775957809806" lon="8.66387245521712"><ele>151.0</ele><time>2026-03-28T12:45:04.016Z</time></trkpt><trkpt lat="45.46766618320099" lon="8.663746483549838"><ele>151.0</ele><time>2026-03-28T12:45:05.016Z</time></trkpt><trkpt lat="45.46754310976265" lon="8.663658697205472"><ele>151.0</ele><time>2026-03-28T12:45:06.016Z</time></trkpt><trkpt lat="45.46740444457554" lon="8.663623071967699"><ele>151.0</ele><time>2026-03-28T12:45:07.016Z</time></trkpt><trkpt lat="45.46726671730886" lon="8.663625430040844"><ele>151.0</ele><time>2026-03-28T12:45:08.016Z</time></trkpt><trkpt lat="45.46712949717455" lon="8.663639223692824"><ele>150.25</ele><time>2026-03-28T12:45:09.016Z</time></trkpt><trkpt lat="45.46700617960269" lon="8.663603613895296"><ele>149.5</ele><time>2026-03-28T12:45:10.016Z</time></trkpt><trkpt lat="45.4668961976666" lon="8.663516653215135"><ele>148.75</ele><time>2026-03-28T12:45:11.016Z</time></trkpt><trkpt lat="45.46680359341131" lon="8.663378597212828"><ele>148.0</ele><time>2026-03-28T12:45:12.016Z</time></trkpt><trkpt lat="45.46673771606417" lon="8.663211048471984"><ele>148.0</ele><time>2026-03-28T12:45:13.016Z</time></trkpt><trkpt lat="45.46670203883391" lon="8.66302341473856"><ele>148.0</ele><time>2026-03-28T12:45:14.016Z</time></trkpt><trkpt lat="45.46667287062423" lon="8.662818187434922"><ele>148.0</ele><time>2026-03-28T12:45:15.016Z</time></trkpt><trkpt lat="45.46664133038255" lon="8.662606391422425"><ele>148.0</ele><time>2026-03-28T12:45:16.016Z</time></trkpt><trkpt lat="45.466608119959204" lon="8.66240069908421"><ele>148.0</ele><time>2026-03-28T12:45:17.016Z</time></trkpt><trkpt lat="45.46656823658457" lon="8.662186406209582"><ele>148.0</ele><time>2026-03-28T12:45:18.016Z</time></trkpt><trkpt lat="45.46652811289181" lon="8.661962618334485"><ele>148.0</ele><time>2026-03-28T12:45:19.016Z</time></trkpt><trkpt lat="45.46648737871199" lon="8.66173113677504"><ele>148.33333333333334</ele><time>2026-03-28T12:45:20.016Z</time></trkpt><trkpt lat="45.46644867030049" lon="8.661491022698945"><ele>148.66666666666666</ele><time>2026-03-28T12:45:21.016Z</time></trkpt><trkpt lat="45.46640996480865" lon="8.661259500519952"><ele>149.0</ele><time>2026-03-28T12:45:22.016Z</time></trkpt><trkpt lat="45.46636899125003" lon="8.661019100583552"><ele>149.33333333333331</ele><time>2026-03-28T12:45:23.016Z</time></trkpt><trkpt lat="45.46632495749702" lon="8.66077464293559"><ele>149.66666666666666</ele><time>2026-03-28T12:45:24.016Z</time></trkpt><trkpt lat="45.4662804046063" lon="8.660522470406836"><ele>150.0</ele><time>2026-03-28T12:45:25.016Z</time></trkpt><trkpt lat="45.46623583903991" lon="8.660264947595156"><ele>149.0</ele><time>2026-03-28T12:45:26.016Z</time></trkpt><trkpt lat="45.46619319873988" lon="8.660000624695304"><ele>148.0</ele><time>2026-03-28T12:45:27.016Z</time></trkpt><trkpt lat="45.46615096923603" lon="8.659729577814268"><ele>147.0</ele><time>2026-03-28T12:45:28.016Z</time></trkpt><trkpt lat="45.466106492758726" lon="8.659457475038094"><ele>147.66666666666666</ele><time>2026-03-28T12:45:29.016Z</time></trkpt><trkpt lat="45.46606234581292" lon="8.659183947032755"><ele>148.33333333333331</ele><time>2026-03-28T12:45:30.016Z</time></trkpt><trkpt lat="45.46602010543986" lon="8.658921454589832"><ele>149.0</ele><time>2026-03-28T12:45:31.016Z</time></trkpt><trkpt lat="45.46598323020184" lon="8.65867355742522"><ele>149.0</ele><time>2026-03-28T12:45:32.017Z</time></trkpt><trkpt lat="45.46595110643825" lon="8.65843926461736"><ele>149.0</ele><time>2026-03-28T12:45:33.017Z</time></trkpt><trkpt lat="45.46592220320287" lon="8.65821651745845"><ele>149.0</ele><time>2026-03-28T12:45:34.017Z</time></trkpt><trkpt lat="45.46589739635775" lon="8.658008088164268"><ele>149.0</ele><time>2026-03-28T12:45:35.017Z</time></trkpt><trkpt lat="45.465877901859976" lon="8.65781663136923"><ele>149.0</ele><time>2026-03-28T12:45:36.017Z</time></trkpt><trkpt lat="45.465863974423016" lon="8.657637749619806"><ele>149.0</ele><time>2026-03-28T12:45:37.017Z</time></trkpt><trkpt lat="45.465862135524354" lon="8.657469980213925"><ele>149.0</ele><time>2026-03-28T12:45:38.017Z</time></trkpt><trkpt lat="45.46587316151545" lon="8.657305479626272"><ele>149.25</ele><time>2026-03-28T12:45:39.017Z</time></trkpt><trkpt lat="45.46590235761088" lon="8.657146775898706"><ele>149.5</ele><time>2026-03-28T12:45:40.017Z</time></trkpt><trkpt lat="45.46595378970499" lon="8.656999740675298"><ele>149.75</ele><time>2026-03-28T12:45:41.017Z</time></trkpt><trkpt lat="45.46602128651599" lon="8.656862658359453"><ele>150.0</ele><time>2026-03-28T12:45:42.017Z</time></trkpt><trkpt lat="45.46610208551122" lon="8.656726092006904"><ele>150.5</ele><time>2026-03-28T12:45:43.017Z</time></trkpt><trkpt lat="45.46618930316933" lon="8.656586970357523"><ele>151.0</ele><time>2026-03-28T12:45:44.017Z</time></trkpt><trkpt lat="45.46626566459179" lon="8.656433415385367"><ele>151.5</ele><time>2026-03-28T12:45:45.017Z</time></trkpt><trkpt lat="45.46631195144808" lon="8.656276463670242"><ele>152.0</ele><time>2026-03-28T12:45:46.017Z</time></trkpt><trkpt lat="45.46633148120398" lon="8.656115016007568"><ele>152.0</ele><time>2026-03-28T12:45:47.017Z</time></trkpt><trkpt lat="45.46632415370873" lon="8.655950320111575"><ele>152.0</ele><time>2026-03-28T12:45:48.017Z</time></trkpt><trkpt lat="45.46628391062974" lon="8.655792357124277"><ele>152.0</ele><time>2026-03-28T12:45:49.017Z</time></trkpt><trkpt lat="45.466220995473236" lon="8.655658180795873"><ele>152.0</ele><time>2026-03-28T12:45:50.017Z</time></trkpt><trkpt lat="45.466132889578965" lon="8.655544339997451"><ele>152.5</ele><time>2026-03-28T12:45:51.017Z</time></trkpt><trkpt lat="45.46602010314988" lon="8.65547331257763"><ele>153.0</ele><time>2026-03-28T12:45:52.017Z</time></trkpt><trkpt lat="45.4658960424131" lon="8.65544172894086"><ele>153.5</ele><time>2026-03-28T12:45:53.017Z</time></trkpt><trkpt lat="45.46576021599315" lon="8.655462696690826"><ele>154.0</ele><time>2026-03-28T12:45:54.017Z</time></trkpt><trkpt lat="45.465621531012154" lon="8.655520069641813"><ele>154.0</ele><time>2026-03-28T12:45:55.017Z</time></trkpt><trkpt lat="45.46548841948224" lon="8.655616844105136"><ele>154.0</ele><time>2026-03-28T12:45:56.017Z</time></trkpt><trkpt lat="45.4653605234321" lon="8.655738043710588"><ele>154.0</ele><time>2026-03-28T12:45:57.017Z</time></trkpt><trkpt lat="45.46523537917538" lon="8.655878682468726"><ele>153.66666666666669</ele><time>2026-03-28T12:45:58.017Z</time></trkpt><trkpt lat="45.46510781433094" lon="8.65603132534301"><ele>153.33333333333334</ele><time>2026-03-28T12:45:59.017Z</time></trkpt><trkpt lat="45.46498387753428" lon="8.65618951663689"><ele>153.0</ele><time>2026-03-28T12:46:00.017Z</time></trkpt><trkpt lat="45.464861238286375" lon="8.656346422755037"><ele>154.0</ele><time>2026-03-28T12:46:01.017Z</time></trkpt><trkpt lat="45.464743031627044" lon="8.656497714198453"><ele>155.0</ele><time>2026-03-28T12:46:02.017Z</time></trkpt><trkpt lat="45.464616761067745" lon="8.656647381189137"><ele>156.0</ele><time>2026-03-28T12:46:03.017Z</time></trkpt><trkpt lat="45.46448488866972" lon="8.65678857077166"><ele>154.33333333333334</ele><time>2026-03-28T12:46:04.017Z</time></trkpt><trkpt lat="45.464347746749354" lon="8.656932714519982"><ele>152.66666666666669</ele><time>2026-03-28T12:46:05.018Z</time></trkpt><trkpt lat="45.464207178818356" lon="8.657081773306114"><ele>151.0</ele><time>2026-03-28T12:46:06.018Z</time></trkpt><trkpt lat="45.46406063967316" lon="8.657236736467098"><ele>151.0</ele><time>2026-03-28T12:46:07.018Z</time></trkpt><trkpt lat="45.46390754529189" lon="8.65738434568547"><ele>151.0</ele><time>2026-03-28T12:46:08.018Z</time></trkpt><trkpt lat="45.46375625880129" lon="8.657526779981998"><ele>151.0</ele><time>2026-03-28T12:46:09.018Z</time></trkpt><trkpt lat="45.463594349777686" lon="8.657665191388483"><ele>150.66666666666669</ele><time>2026-03-28T12:46:10.018Z</time></trkpt><trkpt lat="45.4634278879344" lon="8.657805982119141"><ele>150.33333333333334</ele><time>2026-03-28T12:46:11.018Z</time></trkpt><trkpt lat="45.46325950603375" lon="8.657954141792395"><ele>150.0</ele><time>2026-03-28T12:46:12.018Z</time></trkpt><trkpt lat="45.463083914677256" lon="8.65810392229142"><ele>148.66666666666666</ele><time>2026-03-28T12:46:13.018Z</time></trkpt><trkpt lat="45.462902438357766" lon="8.658251609239977"><ele>147.33333333333331</ele><time>2026-03-28T12:46:14.018Z</time></trkpt><trkpt lat="45.462723053855605" lon="8.65839347882169"><ele>146.0</ele><time>2026-03-28T12:46:15.018Z</time></trkpt><trkpt lat="45.46255126685562" lon="8.65853000960774"><ele>146.0</ele><time>2026-03-28T12:46:16.018Z</time></trkpt><trkpt lat="45.46238563701715" lon="8.658661212649548"><ele>146.0</ele><time>2026-03-28T12:46:17.018Z</time></trkpt><trkpt lat="45.462225228164215" lon="8.658788599712457"><ele>146.0</ele><time>2026-03-28T12:46:18.018Z</time></trkpt><trkpt lat="45.4620705872844" lon="8.65891233247311"><ele>146.0</ele><time>2026-03-28T12:46:19.018Z</time></trkpt><trkpt lat="45.461915437179634" lon="8.659031789908278"><ele>146.0</ele><time>2026-03-28T12:46:20.018Z</time></trkpt><trkpt lat="45.46175810168818" lon="8.659151857388924"><ele>146.0</ele><time>2026-03-28T12:46:21.018Z</time></trkpt><trkpt lat="45.461600223050034" lon="8.659274994978132"><ele>146.0</ele><time>2026-03-28T12:46:22.018Z</time></trkpt><trkpt lat="45.461442511318594" lon="8.659398866046923"><ele>146.0</ele><time>2026-03-28T12:46:23.018Z</time></trkpt><trkpt lat="45.46128565745194" lon="8.659526899508968"><ele>146.0</ele><time>2026-03-28T12:46:24.018Z</time></trkpt><trkpt lat="45.46112636356693" lon="8.659651860182796"><ele>145.66666666666666</ele><time>2026-03-28T12:46:25.018Z</time></trkpt><trkpt lat="45.460964791281846" lon="8.659776980510902"><ele>145.33333333333334</ele><time>2026-03-28T12:46:26.018Z</time></trkpt><trkpt lat="45.460802963751284" lon="8.659899148575015"><ele>145.0</ele><time>2026-03-28T12:46:27.018Z</time></trkpt><trkpt lat="45.46063996417742" lon="8.660023299841189"><ele>145.0</ele><time>2026-03-28T12:46:28.018Z</time></trkpt><trkpt lat="45.46047801685443" lon="8.660146301108242"><ele>145.0</ele><time>2026-03-28T12:46:29.018Z</time></trkpt><trkpt lat="45.460317636654715" lon="8.660268005789655"><ele>145.0</ele><time>2026-03-28T12:46:30.018Z</time></trkpt><trkpt lat="45.46015985040184" lon="8.660391817222294"><ele>144.66666666666669</ele><time>2026-03-28T12:46:31.018Z</time></trkpt><trkpt lat="45.460002692332566" lon="8.660515008838066"><ele>144.33333333333334</ele><time>2026-03-28T12:46:32.018Z</time></trkpt><trkpt lat="45.45984783070998" lon="8.660634869349202"><ele>144.0</ele><time>2026-03-28T12:46:33.018Z</time></trkpt><trkpt lat="45.45969263524642" lon="8.660756115958707"><ele>145.0</ele><time>2026-03-28T12:46:34.018Z</time></trkpt><trkpt lat="45.45953900467501" lon="8.660875358575598"><ele>146.0</ele><time>2026-03-28T12:46:35.018Z</time></trkpt><trkpt lat="45.45938397511685" lon="8.660998603514962"><ele>147.0</ele><time>2026-03-28T12:46:36.018Z</time></trkpt><trkpt lat="45.45922646632352" lon="8.66112448268312"><ele>147.0</ele><time>2026-03-28T12:46:37.018Z</time></trkpt><trkpt lat="45.45906981681381" lon="8.661250259013212"><ele>147.0</ele><time>2026-03-28T12:46:38.019Z</time></trkpt><trkpt lat="45.458909260919015" lon="8.661375899036424"><ele>147.0</ele><time>2026-03-28T12:46:39.019Z</time></trkpt><trkpt lat="45.45874762974479" lon="8.661497366577285"><ele>147.0</ele><time>2026-03-28T12:46:40.019Z</time></trkpt><trkpt lat="45.45858326500115" lon="8.66162049085183"><ele>147.0</ele><time>2026-03-28T12:46:41.019Z</time></trkpt><trkpt lat="45.45841938420296" lon="8.661744490860505"><ele>147.0</ele><time>2026-03-28T12:46:42.019Z</time></trkpt><trkpt lat="45.4582513242038" lon="8.661869700932352"><ele>146.66666666666666</ele><time>2026-03-28T12:46:43.019Z</time></trkpt><trkpt lat="45.45808523977048" lon="8.661996546554334"><ele>146.33333333333331</ele><time>2026-03-28T12:46:44.019Z</time></trkpt><trkpt lat="45.4579174728256" lon="8.662121123316298"><ele>146.0</ele><time>2026-03-28T12:46:45.019Z</time></trkpt><trkpt lat="45.45775155241211" lon="8.66224715745677"><ele>146.0</ele><time>2026-03-28T12:46:46.019Z</time></trkpt><trkpt lat="45.45758662500147" lon="8.66237017967712"><ele>146.0</ele><time>2026-03-28T12:46:47.019Z</time></trkpt><trkpt lat="45.45742634100615" lon="8.662493922845222"><ele>146.0</ele><time>2026-03-28T12:46:48.019Z</time></trkpt><trkpt lat="45.457268014716384" lon="8.662618427152337"><ele>145.66666666666666</ele><time>2026-03-28T12:46:49.019Z</time></trkpt><trkpt lat="45.45711557875244" lon="8.662741414869876"><ele>145.33333333333334</ele><time>2026-03-28T12:46:50.019Z</time></trkpt><trkpt lat="45.45695897214232" lon="8.662856652671609"><ele>145.0</ele><time>2026-03-28T12:46:51.019Z</time></trkpt><trkpt lat="45.45680061795722" lon="8.662974623907012"><ele>146.33333333333334</ele><time>2026-03-28T12:46:52.019Z</time></trkpt><trkpt lat="45.45663994948328" lon="8.663101898272492"><ele>147.66666666666666</ele><time>2026-03-28T12:46:53.019Z</time></trkpt><trkpt lat="45.45647515334653" lon="8.66323772185023"><ele>149.0</ele><time>2026-03-28T12:46:54.019Z</time></trkpt><trkpt lat="45.4563070125681" lon="8.663377498523484"><ele>148.66666666666666</ele><time>2026-03-28T12:46:55.019Z</time></trkpt><trkpt lat="45.456131449926666" lon="8.66352265627621"><ele>148.33333333333334</ele><time>2026-03-28T12:46:56.019Z</time></trkpt><trkpt lat="45.45594877866705" lon="8.663665831696457"><ele>148.0</ele><time>2026-03-28T12:46:57.019Z</time></trkpt><trkpt lat="45.455761229635115" lon="8.66380511071471"><ele>147.66666666666669</ele><time>2026-03-28T12:46:58.019Z</time></trkpt><trkpt lat="45.455568331221315" lon="8.663943808636377"><ele>147.33333333333334</ele><time>2026-03-28T12:46:59.019Z</time></trkpt><trkpt lat="45.45537172905474" lon="8.664086854878985"><ele>147.0</ele><time>2026-03-28T12:47:00.019Z</time></trkpt><trkpt lat="45.455174798490646" lon="8.664233184760647"><ele>147.0</ele><time>2026-03-28T12:47:01.019Z</time></trkpt><trkpt lat="45.45497515127561" lon="8.664386338577767"><ele>147.0</ele><time>2026-03-28T12:47:02.019Z</time></trkpt><trkpt lat="45.45477577321955" lon="8.664539999715448"><ele>146.5</ele><time>2026-03-28T12:47:03.019Z</time></trkpt><trkpt lat="45.45457443414838" lon="8.66469244224594"><ele>146.0</ele><time>2026-03-28T12:47:04.019Z</time></trkpt><trkpt lat="45.45437230913458" lon="8.664834080421608"><ele>146.0</ele><time>2026-03-28T12:47:05.019Z</time></trkpt><trkpt lat="45.454170036902475" lon="8.66497221140912"><ele>146.0</ele><time>2026-03-28T12:47:06.019Z</time></trkpt><trkpt lat="45.453967899979666" lon="8.66510164090618"><ele>146.0</ele><time>2026-03-28T12:47:07.019Z</time></trkpt><trkpt lat="45.45376195668017" lon="8.665224442214608"><ele>145.66666666666666</ele><time>2026-03-28T12:47:08.019Z</time></trkpt><trkpt lat="45.453556578476814" lon="8.665347400931214"><ele>145.33333333333334</ele><time>2026-03-28T12:47:09.019Z</time></trkpt><trkpt lat="45.4533514143844" lon="8.6654655676539"><ele>145.0</ele><time>2026-03-28T12:47:10.019Z</time></trkpt><trkpt lat="45.45314411801295" lon="8.66557771380828"><ele>144.66666666666669</ele><time>2026-03-28T12:47:11.019Z</time></trkpt><trkpt lat="45.45293692766634" lon="8.665680902871147"><ele>144.33333333333334</ele><time>2026-03-28T12:47:12.02Z</time></trkpt><trkpt lat="45.4527271389968" lon="8.665778563308749"><ele>144.0</ele><time>2026-03-28T12:47:13.02Z</time></trkpt><trkpt lat="45.452517461689595" lon="8.665872492850042"><ele>144.0</ele><time>2026-03-28T12:47:14.02Z</time></trkpt><trkpt lat="45.45230615803618" lon="8.66596433752004"><ele>144.0</ele><time>2026-03-28T12:47:15.02Z</time></trkpt><trkpt lat="45.45209204679539" lon="8.666048506316383"><ele>144.0</ele><time>2026-03-28T12:47:16.02Z</time></trkpt><trkpt lat="45.45187723221585" lon="8.666132008109795"><ele>143.33333333333334</ele><time>2026-03-28T12:47:17.02Z</time></trkpt><trkpt lat="45.45165945366175" lon="8.666206683645006"><ele>142.66666666666669</ele><time>2026-03-28T12:47:18.02Z</time></trkpt><trkpt lat="45.45144594321378" lon="8.66627430861637"><ele>142.0</ele><time>2026-03-28T12:47:19.02Z</time></trkpt><trkpt lat="45.45123243167165" lon="8.666335128657693"><ele>141.66666666666669</ele><time>2026-03-28T12:47:20.02Z</time></trkpt><trkpt lat="45.45102138419309" lon="8.666390408917593"><ele>141.33333333333334</ele><time>2026-03-28T12:47:21.02Z</time></trkpt><trkpt lat="45.450810341392526" lon="8.666441604727062"><ele>141.0</ele><time>2026-03-28T12:47:22.02Z</time></trkpt><trkpt lat="45.450598510576604" lon="8.666491822108641"><ele>140.66666666666666</ele><time>2026-03-28T12:47:23.02Z</time></trkpt><trkpt lat="45.4503857403427" lon="8.666538997774293"><ele>140.33333333333331</ele><time>2026-03-28T12:47:24.02Z</time></trkpt><trkpt lat="45.4501740707541" lon="8.666586396024611"><ele>140.0</ele><time>2026-03-28T12:47:25.02Z</time></trkpt><trkpt lat="45.449964883771244" lon="8.66663397933581"><ele>140.0</ele><time>2026-03-28T12:47:26.02Z</time></trkpt><trkpt lat="45.449754595570354" lon="8.666677445723517"><ele>140.0</ele><time>2026-03-28T12:47:27.02Z</time></trkpt><trkpt lat="45.44954247742173" lon="8.666720377795112"><ele>140.0</ele><time>2026-03-28T12:47:28.02Z</time></trkpt><trkpt lat="45.449330900218776" lon="8.666766095183846"><ele>140.33333333333331</ele><time>2026-03-28T12:47:29.02Z</time></trkpt><trkpt lat="45.44911445556297" lon="8.666810454199926"><ele>140.66666666666666</ele><time>2026-03-28T12:47:30.02Z</time></trkpt><trkpt lat="45.44889888432415" lon="8.666854859660774"><ele>141.0</ele><time>2026-03-28T12:47:31.02Z</time></trkpt><trkpt lat="45.44868328577351" lon="8.66690326745744"><ele>141.0</ele><time>2026-03-28T12:47:32.02Z</time></trkpt><trkpt lat="45.44846486598231" lon="8.66695226101855"><ele>141.0</ele><time>2026-03-28T12:47:33.02Z</time></trkpt><trkpt lat="45.448246856666" lon="8.667000550154844"><ele>141.0</ele><time>2026-03-28T12:47:34.02Z</time></trkpt><trkpt lat="45.44802836953313" lon="8.66704725737162"><ele>140.66666666666666</ele><time>2026-03-28T12:47:35.02Z</time></trkpt><trkpt lat="45.44780928924053" lon="8.667093615172355"><ele>140.33333333333331</ele><time>2026-03-28T12:47:36.02Z</time></trkpt><trkpt lat="45.447588635928746" lon="8.667139643060585"><ele>140.0</ele><time>2026-03-28T12:47:37.02Z</time></trkpt><trkpt lat="45.44736795693088" lon="8.667187217537572"><ele>140.0</ele><time>2026-03-28T12:47:38.02Z</time></trkpt><trkpt lat="45.447146684785515" lon="8.667237143828471"><ele>140.0</ele><time>2026-03-28T12:47:39.02Z</time></trkpt><trkpt lat="45.44692579331369" lon="8.667282218084534"><ele>140.0</ele><time>2026-03-28T12:47:40.02Z</time></trkpt><trkpt lat="45.44670462019664" lon="8.667326477151393"><ele>140.33333333333331</ele><time>2026-03-28T12:47:41.02Z</time></trkpt><trkpt lat="45.446482855020705" lon="8.667369104954433"><ele>140.66666666666666</ele><time>2026-03-28T12:47:42.02Z</time></trkpt><trkpt lat="45.446262181297904" lon="8.667411473037873"><ele>141.0</ele><time>2026-03-28T12:47:43.02Z</time></trkpt><trkpt lat="45.446041595559976" lon="8.667457763648157"><ele>141.0</ele><time>2026-03-28T12:47:44.02Z</time></trkpt><trkpt lat="45.4458219223426" lon="8.667504916952554"><ele>141.0</ele><time>2026-03-28T12:47:45.021Z</time></trkpt><trkpt lat="45.44560325733532" lon="8.66755115008964"><ele>141.0</ele><time>2026-03-28T12:47:46.021Z</time></trkpt><trkpt lat="45.445386533521564" lon="8.66759725263161"><ele>141.0</ele><time>2026-03-28T12:47:47.021Z</time></trkpt><trkpt lat="45.44517417639662" lon="8.667639164880324"><ele>141.0</ele><time>2026-03-28T12:47:48.021Z</time></trkpt><trkpt lat="45.4449644393985" lon="8.667678477980063"><ele>141.0</ele><time>2026-03-28T12:47:49.021Z</time></trkpt><trkpt lat="45.44475382619757" lon="8.667720912987777"><ele>140.66666666666666</ele><time>2026-03-28T12:47:50.021Z</time></trkpt><trkpt lat="45.444545391477334" lon="8.66776582055392"><ele>140.33333333333331</ele><time>2026-03-28T12:47:51.021Z</time></trkpt><trkpt lat="45.444334740770515" lon="8.667811727296026"><ele>140.0</ele><time>2026-03-28T12:47:52.021Z</time></trkpt><trkpt lat="45.444123352024725" lon="8.667854964792417"><ele>140.0</ele><time>2026-03-28T12:47:53.021Z</time></trkpt><trkpt lat="45.443911959722584" lon="8.667899908510222"><ele>140.0</ele><time>2026-03-28T12:47:54.021Z</time></trkpt><trkpt lat="45.44370048702104" lon="8.667944078899191"><ele>140.0</ele><time>2026-03-28T12:47:55.021Z</time></trkpt><trkpt lat="45.4434866770068" lon="8.667986835312357"><ele>140.66666666666666</ele><time>2026-03-28T12:47:56.021Z</time></trkpt><trkpt lat="45.443272677795555" lon="8.66803026322837"><ele>141.33333333333334</ele><time>2026-03-28T12:47:57.021Z</time></trkpt><trkpt lat="45.44306085077613" lon="8.668072339707154"><ele>142.0</ele><time>2026-03-28T12:47:58.021Z</time></trkpt><trkpt lat="45.44284578089525" lon="8.668112953215902"><ele>143.0</ele><time>2026-03-28T12:47:59.021Z</time></trkpt><trkpt lat="45.44263150957974" lon="8.668154188668044"><ele>144.0</ele><time>2026-03-28T12:48:00.021Z</time></trkpt><trkpt lat="45.442415833642904" lon="8.668196916726668"><ele>145.0</ele><time>2026-03-28T12:48:01.021Z</time></trkpt><trkpt lat="45.44219966598363" lon="8.668242857202463"><ele>144.66666666666669</ele><time>2026-03-28T12:48:02.021Z</time></trkpt><trkpt lat="45.44198363727959" lon="8.668286971289563"><ele>144.33333333333334</ele><time>2026-03-28T12:48:03.021Z</time></trkpt><trkpt lat="45.441767240851576" lon="8.66833434209364"><ele>144.0</ele><time>2026-03-28T12:48:04.021Z</time></trkpt><trkpt lat="45.44154932924759" lon="8.66838667487128"><ele>144.0</ele><time>2026-03-28T12:48:05.021Z</time></trkpt><trkpt lat="45.44132995958706" lon="8.668438183588304"><ele>144.0</ele><time>2026-03-28T12:48:06.021Z</time></trkpt><trkpt lat="45.44110914105202" lon="8.668484526858185"><ele>144.0</ele><time>2026-03-28T12:48:07.021Z</time></trkpt><trkpt lat="45.440890356488055" lon="8.668527078609118"><ele>144.0</ele><time>2026-03-28T12:48:08.021Z</time></trkpt><trkpt lat="45.440672338919896" lon="8.66857007272272"><ele>144.0</ele><time>2026-03-28T12:48:09.021Z</time></trkpt><trkpt lat="45.44045296102295" lon="8.668614146333349"><ele>144.0</ele><time>2026-03-28T12:48:10.021Z</time></trkpt><trkpt lat="45.44023370317742" lon="8.668658773967875"><ele>143.66666666666666</ele><time>2026-03-28T12:48:11.021Z</time></trkpt><trkpt lat="45.440015865845076" lon="8.668699628682297"><ele>143.33333333333331</ele><time>2026-03-28T12:48:12.021Z</time></trkpt><trkpt lat="45.43979601033297" lon="8.668736760114333"><ele>143.0</ele><time>2026-03-28T12:48:13.021Z</time></trkpt><trkpt lat="45.43957629309354" lon="8.668764154006821"><ele>142.33333333333331</ele><time>2026-03-28T12:48:14.021Z</time></trkpt><trkpt lat="45.43935772377679" lon="8.668783778472925"><ele>141.66666666666666</ele><time>2026-03-28T12:48:15.021Z</time></trkpt><trkpt lat="45.43913706448231" lon="8.668799396853343"><ele>141.0</ele><time>2026-03-28T12:48:16.021Z</time></trkpt><trkpt lat="45.43891433760233" lon="8.668804531984922"><ele>140.66666666666666</ele><time>2026-03-28T12:48:17.021Z</time></trkpt><trkpt lat="45.438692064601156" lon="8.668802911329552"><ele>140.33333333333331</ele><time>2026-03-28T12:48:18.022Z</time></trkpt><trkpt lat="45.438467882692166" lon="8.668792494474767"><ele>140.0</ele><time>2026-03-28T12:48:19.022Z</time></trkpt><trkpt lat="45.43824440822571" lon="8.668769735913385"><ele>140.0</ele><time>2026-03-28T12:48:20.022Z</time></trkpt><trkpt lat="45.43802191102306" lon="8.668740415365672"><ele>140.0</ele><time>2026-03-28T12:48:21.022Z</time></trkpt><trkpt lat="45.437795672976975" lon="8.668701829511589"><ele>140.0</ele><time>2026-03-28T12:48:22.022Z</time></trkpt><trkpt lat="45.43757116968341" lon="8.668655095540942"><ele>140.0</ele><time>2026-03-28T12:48:23.022Z</time></trkpt><trkpt lat="45.43734575521663" lon="8.66860304247745"><ele>140.5</ele><time>2026-03-28T12:48:24.022Z</time></trkpt><trkpt lat="45.43712075204173" lon="8.668540396477267"><ele>141.0</ele><time>2026-03-28T12:48:25.022Z</time></trkpt><trkpt lat="45.43689656570903" lon="8.668468310337936"><ele>141.0</ele><time>2026-03-28T12:48:26.022Z</time></trkpt><trkpt lat="45.436671723684846" lon="8.668383929246426"><ele>141.0</ele><time>2026-03-28T12:48:27.022Z</time></trkpt><trkpt lat="45.43645144206515" lon="8.668296074485369"><ele>141.0</ele><time>2026-03-28T12:48:28.022Z</time></trkpt><trkpt lat="45.43623787142524" lon="8.668197532285225"><ele>141.0</ele><time>2026-03-28T12:48:29.022Z</time></trkpt><trkpt lat="45.43602957054803" lon="8.668094767137072"><ele>141.0</ele><time>2026-03-28T12:48:30.022Z</time></trkpt><trkpt lat="45.43582307267548" lon="8.667982767852735"><ele>141.0</ele><time>2026-03-28T12:48:31.022Z</time></trkpt><trkpt lat="45.435619301920575" lon="8.667862760463395"><ele>141.0</ele><time>2026-03-28T12:48:32.022Z</time></trkpt><trkpt lat="45.43541908620742" lon="8.667743528595949"><ele>141.0</ele><time>2026-03-28T12:48:33.022Z</time></trkpt><trkpt lat="45.43522038921042" lon="8.667607352212004"><ele>140.0</ele><time>2026-03-28T12:48:34.022Z</time></trkpt><trkpt lat="45.435023664061546" lon="8.667461190653393"><ele>139.0</ele><time>2026-03-28T12:48:35.022Z</time></trkpt><trkpt lat="45.43482927947507" lon="8.667306241031785"><ele>138.0</ele><time>2026-03-28T12:48:36.022Z</time></trkpt><trkpt lat="45.43463544338013" lon="8.667145840950278"><ele>138.0</ele><time>2026-03-28T12:48:37.022Z</time></trkpt><trkpt lat="45.43444420615939" lon="8.666982522931253"><ele>138.0</ele><time>2026-03-28T12:48:38.022Z</time></trkpt><trkpt lat="45.434259285987565" lon="8.6668161631973"><ele>138.0</ele><time>2026-03-28T12:48:39.022Z</time></trkpt><trkpt lat="45.43407791173492" lon="8.666642589667138"><ele>138.0</ele><time>2026-03-28T12:48:40.022Z</time></trkpt><trkpt lat="45.43390032822181" lon="8.666460518710581"><ele>138.0</ele><time>2026-03-28T12:48:41.022Z</time></trkpt><trkpt lat="45.43372636590973" lon="8.666272238067384"><ele>138.0</ele><time>2026-03-28T12:48:42.022Z</time></trkpt><trkpt lat="45.43355690319997" lon="8.666077388416188"><ele>138.66666666666666</ele><time>2026-03-28T12:48:43.022Z</time></trkpt><trkpt lat="45.433391808630084" lon="8.665875554258703"><ele>139.33333333333331</ele><time>2026-03-28T12:48:44.022Z</time></trkpt><trkpt lat="45.43322937119236" lon="8.665668687146317"><ele>140.0</ele><time>2026-03-28T12:48:45.022Z</time></trkpt><trkpt lat="45.43307044647652" lon="8.66545400805447"><ele>140.0</ele><time>2026-03-28T12:48:46.022Z</time></trkpt><trkpt lat="45.43291463234848" lon="8.66523505372437"><ele>140.0</ele><time>2026-03-28T12:48:47.022Z</time></trkpt><trkpt lat="45.4327619545904" lon="8.665012179510022"><ele>140.0</ele><time>2026-03-28T12:48:48.022Z</time></trkpt><trkpt lat="45.43260958684118" lon="8.664793684384883"><ele>140.0</ele><time>2026-03-28T12:48:49.022Z</time></trkpt><trkpt lat="45.432461912980614" lon="8.664574921879002"><ele>140.0</ele><time>2026-03-28T12:48:50.022Z</time></trkpt><trkpt lat="45.43231876837034" lon="8.664356117342432"><ele>140.0</ele><time>2026-03-28T12:48:51.023Z</time></trkpt><trkpt lat="45.43217320116922" lon="8.66413574592581"><ele>139.33333333333331</ele><time>2026-03-28T12:48:52.023Z</time></trkpt><trkpt lat="45.43202577065744" lon="8.663916540430336"><ele>138.66666666666666</ele><time>2026-03-28T12:48:53.023Z</time></trkpt><trkpt lat="45.43187707590039" lon="8.663695955268794"><ele>138.0</ele><time>2026-03-28T12:48:54.023Z</time></trkpt><trkpt lat="45.431728520171276" lon="8.663477051408973"><ele>138.0</ele><time>2026-03-28T12:48:55.023Z</time></trkpt><trkpt lat="45.431578264864704" lon="8.663261986332325"><ele>138.0</ele><time>2026-03-28T12:48:56.023Z</time></trkpt><trkpt lat="45.4314286631057" lon="8.663046590778942"><ele>138.0</ele><time>2026-03-28T12:48:57.023Z</time></trkpt><trkpt lat="45.43127913762462" lon="8.662828418004079"><ele>138.33333333333334</ele><time>2026-03-28T12:48:58.023Z</time></trkpt><trkpt lat="45.43113196899479" lon="8.662610771733805"><ele>138.66666666666669</ele><time>2026-03-28T12:48:59.023Z</time></trkpt><trkpt lat="45.43098570101623" lon="8.662392021380787"><ele>139.0</ele><time>2026-03-28T12:49:00.023Z</time></trkpt><trkpt lat="45.43084029683975" lon="8.662171361834208"><ele>139.0</ele><time>2026-03-28T12:49:01.023Z</time></trkpt><trkpt lat="45.43069577891197" lon="8.661952568521384"><ele>139.0</ele><time>2026-03-28T12:49:02.023Z</time></trkpt><trkpt lat="45.430548816340284" lon="8.661734917446461"><ele>139.0</ele><time>2026-03-28T12:49:03.023Z</time></trkpt><trkpt lat="45.43040128030411" lon="8.661517948335351"><ele>139.0</ele><time>2026-03-28T12:49:04.023Z</time></trkpt><trkpt lat="45.43025320225097" lon="8.661299167664568"><ele>139.0</ele><time>2026-03-28T12:49:05.023Z</time></trkpt><trkpt lat="45.43010363754728" lon="8.66107905136934"><ele>139.0</ele><time>2026-03-28T12:49:06.023Z</time></trkpt><trkpt lat="45.42995228027484" lon="8.660855752692916"><ele>139.0</ele><time>2026-03-28T12:49:07.023Z</time></trkpt><trkpt lat="45.42979763060203" lon="8.660632380000619"><ele>139.0</ele><time>2026-03-28T12:49:08.023Z</time></trkpt><trkpt lat="45.42964136098983" lon="8.66041208692852"><ele>139.0</ele><time>2026-03-28T12:49:09.023Z</time></trkpt><trkpt lat="45.429486865090794" lon="8.660183564539112"><ele>138.66666666666669</ele><time>2026-03-28T12:49:10.023Z</time></trkpt><trkpt lat="45.42933707884273" lon="8.659945632780925"><ele>138.33333333333334</ele><time>2026-03-28T12:49:11.023Z</time></trkpt><trkpt lat="45.42919246076727" lon="8.659701120158427"><ele>138.0</ele><time>2026-03-28T12:49:12.023Z</time></trkpt><trkpt lat="45.429048449309825" lon="8.65944929111235"><ele>138.0</ele><time>2026-03-28T12:49:13.023Z</time></trkpt><trkpt lat="45.4289078687065" lon="8.659195596439991"><ele>138.0</ele><time>2026-03-28T12:49:14.023Z</time></trkpt><trkpt lat="45.42876653578336" lon="8.658940671242027"><ele>138.0</ele><time>2026-03-28T12:49:15.023Z</time></trkpt><trkpt lat="45.42863094876121" lon="8.658690955234857"><ele>138.0</ele><time>2026-03-28T12:49:16.023Z</time></trkpt><trkpt lat="45.4284994857096" lon="8.658436869430629"><ele>138.0</ele><time>2026-03-28T12:49:17.023Z</time></trkpt><trkpt lat="45.428372811254015" lon="8.658179888332578"><ele>138.0</ele><time>2026-03-28T12:49:18.023Z</time></trkpt><trkpt lat="45.428247110619225" lon="8.657921276031328"><ele>138.0</ele><time>2026-03-28T12:49:19.023Z</time></trkpt><trkpt lat="45.4281248418944" lon="8.657660348122741"><ele>138.0</ele><time>2026-03-28T12:49:20.023Z</time></trkpt><trkpt lat="45.428007903986774" lon="8.657393106950241"><ele>138.0</ele><time>2026-03-28T12:49:21.023Z</time></trkpt><trkpt lat="45.427892594905636" lon="8.657119194939717"><ele>138.0</ele><time>2026-03-28T12:49:22.023Z</time></trkpt><trkpt lat="45.4277811567782" lon="8.656842822783736"><ele>138.0</ele><time>2026-03-28T12:49:23.023Z</time></trkpt><trkpt lat="45.42766914895304" lon="8.656564775417614"><ele>138.0</ele><time>2026-03-28T12:49:24.024Z</time></trkpt><trkpt lat="45.427560824976986" lon="8.656285446845976"><ele>138.0</ele><time>2026-03-28T12:49:25.024Z</time></trkpt><trkpt lat="45.427452680852845" lon="8.656013126292349"><ele>138.0</ele><time>2026-03-28T12:49:26.024Z</time></trkpt><trkpt lat="45.427344848747666" lon="8.65574230713981"><ele>137.66666666666666</ele><time>2026-03-28T12:49:27.024Z</time></trkpt><trkpt lat="45.42723628021055" lon="8.65547667422202"><ele>137.33333333333331</ele><time>2026-03-28T12:49:28.024Z</time></trkpt><trkpt lat="45.42712997954959" lon="8.65520740487864"><ele>137.0</ele><time>2026-03-28T12:49:29.024Z</time></trkpt><trkpt lat="45.42702581869784" lon="8.654939568238389"><ele>137.0</ele><time>2026-03-28T12:49:30.024Z</time></trkpt><trkpt lat="45.42692103047486" lon="8.654671379894266"><ele>137.0</ele><time>2026-03-28T12:49:31.024Z</time></trkpt><trkpt lat="45.426811886184694" lon="8.654403083082622"><ele>137.0</ele><time>2026-03-28T12:49:32.024Z</time></trkpt><trkpt lat="45.42670892506879" lon="8.654131222230504"><ele>137.0</ele><time>2026-03-28T12:49:33.024Z</time></trkpt><trkpt lat="45.42659969107506" lon="8.653861368622373"><ele>137.0</ele><time>2026-03-28T12:49:34.024Z</time></trkpt><trkpt lat="45.42648924439291" lon="8.653592494111235"><ele>137.0</ele><time>2026-03-28T12:49:35.024Z</time></trkpt><trkpt lat="45.42638451148033" lon="8.653325748642997"><ele>137.0</ele><time>2026-03-28T12:49:36.024Z</time></trkpt><trkpt lat="45.42627716856195" lon="8.653058769591485"><ele>137.0</ele><time>2026-03-28T12:49:37.024Z</time></trkpt><trkpt lat="45.426170971019964" lon="8.652788416034618"><ele>137.0</ele><time>2026-03-28T12:49:38.024Z</time></trkpt><trkpt lat="45.42606518830768" lon="8.652518557481795"><ele>137.0</ele><time>2026-03-28T12:49:39.024Z</time></trkpt><trkpt lat="45.42596050870821" lon="8.652249034235568"><ele>137.0</ele><time>2026-03-28T12:49:40.024Z</time></trkpt><trkpt lat="45.42585274106676" lon="8.651979013897622"><ele>137.0</ele><time>2026-03-28T12:49:41.024Z</time></trkpt><trkpt lat="45.425744752605006" lon="8.6517082452333"><ele>138.0</ele><time>2026-03-28T12:49:42.024Z</time></trkpt><trkpt lat="45.42563724960677" lon="8.651436400934394"><ele>139.0</ele><time>2026-03-28T12:49:43.024Z</time></trkpt><trkpt lat="45.42552816358808" lon="8.651162861887821"><ele>140.0</ele><time>2026-03-28T12:49:44.024Z</time></trkpt><trkpt lat="45.425423410537775" lon="8.650891970921837"><ele>140.66666666666666</ele><time>2026-03-28T12:49:45.024Z</time></trkpt><trkpt lat="45.425315558577246" lon="8.65062127112537"><ele>141.33333333333334</ele><time>2026-03-28T12:49:46.024Z</time></trkpt><trkpt lat="45.42520655602186" lon="8.650351890256049"><ele>142.0</ele><time>2026-03-28T12:49:47.024Z</time></trkpt><trkpt lat="45.42509994404182" lon="8.650078969888128"><ele>143.66666666666669</ele><time>2026-03-28T12:49:48.024Z</time></trkpt><trkpt lat="45.4249883483982" lon="8.649806797818572"><ele>145.33333333333334</ele><time>2026-03-28T12:49:49.024Z</time></trkpt><trkpt lat="45.42487739804531" lon="8.64953658075836"><ele>147.0</ele><time>2026-03-28T12:49:50.024Z</time></trkpt><trkpt lat="45.42477130321939" lon="8.64926783399393"><ele>147.0</ele><time>2026-03-28T12:49:51.024Z</time></trkpt><trkpt lat="45.42466581106984" lon="8.64899241171781"><ele>147.0</ele><time>2026-03-28T12:49:52.024Z</time></trkpt><trkpt lat="45.42455860436008" lon="8.648722915726802"><ele>147.0</ele><time>2026-03-28T12:49:53.024Z</time></trkpt><trkpt lat="45.42445193565687" lon="8.648457002193563"><ele>147.0</ele><time>2026-03-28T12:49:54.024Z</time></trkpt><trkpt lat="45.42434867410233" lon="8.648201664273946"><ele>147.0</ele><time>2026-03-28T12:49:55.024Z</time></trkpt><trkpt lat="45.42424964837692" lon="8.647947647908799"><ele>147.0</ele><time>2026-03-28T12:49:56.024Z</time></trkpt><trkpt lat="45.42414583345175" lon="8.64769369112434"><ele>147.0</ele><time>2026-03-28T12:49:57.024Z</time></trkpt><trkpt lat="45.4240414548049" lon="8.64743787755523"><ele>147.0</ele><time>2026-03-28T12:49:58.025Z</time></trkpt><trkpt lat="45.423940464613075" lon="8.647174980413531"><ele>147.0</ele><time>2026-03-28T12:49:59.025Z</time></trkpt><trkpt lat="45.42384084335795" lon="8.646908574981708"><ele>147.33333333333334</ele><time>2026-03-28T12:50:00.025Z</time></trkpt><trkpt lat="45.42373977947074" lon="8.646639427452614"><ele>147.66666666666669</ele><time>2026-03-28T12:50:01.025Z</time></trkpt><trkpt lat="45.423635172610105" lon="8.64637013117456"><ele>148.0</ele><time>2026-03-28T12:50:02.025Z</time></trkpt><trkpt lat="45.42352405036151" lon="8.646100058855813"><ele>148.66666666666669</ele><time>2026-03-28T12:50:03.025Z</time></trkpt><trkpt lat="45.423420204731315" lon="8.645826451365776"><ele>149.33333333333334</ele><time>2026-03-28T12:50:04.025Z</time></trkpt><trkpt lat="45.42332377212251" lon="8.645551621640742"><ele>150.0</ele><time>2026-03-28T12:50:05.025Z</time></trkpt><trkpt lat="45.42323263589296" lon="8.645273729824266"><ele>150.33333333333334</ele><time>2026-03-28T12:50:06.025Z</time></trkpt><trkpt lat="45.423143966831546" lon="8.64499033610861"><ele>150.66666666666669</ele><time>2026-03-28T12:50:07.025Z</time></trkpt><trkpt lat="45.423060862367954" lon="8.644703954752213"><ele>151.0</ele><time>2026-03-28T12:50:08.025Z</time></trkpt><trkpt lat="45.42298239223097" lon="8.644414898674416"><ele>151.0</ele><time>2026-03-28T12:50:09.025Z</time></trkpt><trkpt lat="45.422911335923594" lon="8.644120070389585"><ele>151.0</ele><time>2026-03-28T12:50:10.025Z</time></trkpt><trkpt lat="45.422850572494525" lon="8.64381783485754"><ele>151.0</ele><time>2026-03-28T12:50:11.025Z</time></trkpt><trkpt lat="45.42278700355627" lon="8.643520201604145"><ele>151.0</ele><time>2026-03-28T12:50:12.025Z</time></trkpt><trkpt lat="45.422729595059955" lon="8.643220208293299"><ele>151.0</ele><time>2026-03-28T12:50:13.025Z</time></trkpt><trkpt lat="45.42267991585371" lon="8.642916782892842"><ele>151.0</ele><time>2026-03-28T12:50:14.025Z</time></trkpt><trkpt lat="45.422636495448735" lon="8.642608892219252"><ele>149.66666666666669</ele><time>2026-03-28T12:50:15.025Z</time></trkpt><trkpt lat="45.42259600470018" lon="8.642301702236603"><ele>148.33333333333334</ele><time>2026-03-28T12:50:16.025Z</time></trkpt><trkpt lat="45.42256127663365" lon="8.641993472679271"><ele>147.0</ele><time>2026-03-28T12:50:17.025Z</time></trkpt><trkpt lat="45.422533609509536" lon="8.641680570712271"><ele>147.0</ele><time>2026-03-28T12:50:18.025Z</time></trkpt><trkpt lat="45.42251134662359" lon="8.6413711449546"><ele>147.0</ele><time>2026-03-28T12:50:19.025Z</time></trkpt><trkpt lat="45.42249894797987" lon="8.64105765162048"><ele>147.0</ele><time>2026-03-28T12:50:20.025Z</time></trkpt><trkpt lat="45.42249557834554" lon="8.640744032125632"><ele>148.0</ele><time>2026-03-28T12:50:21.025Z</time></trkpt><trkpt lat="45.42249534932148" lon="8.640426769256827"><ele>149.0</ele><time>2026-03-28T12:50:22.025Z</time></trkpt><trkpt lat="45.42250441849122" lon="8.64010819545715"><ele>150.0</ele><time>2026-03-28T12:50:23.025Z</time></trkpt><trkpt lat="45.42252319433361" lon="8.63979196558826"><ele>150.33333333333334</ele><time>2026-03-28T12:50:24.025Z</time></trkpt><trkpt lat="45.42254821574084" lon="8.639476430712843"><ele>150.66666666666669</ele><time>2026-03-28T12:50:25.025Z</time></trkpt><trkpt lat="45.422580965372966" lon="8.639164030222153"><ele>151.0</ele><time>2026-03-28T12:50:26.025Z</time></trkpt><trkpt lat="45.42261178934728" lon="8.638852236971658"><ele>150.5</ele><time>2026-03-28T12:50:27.025Z</time></trkpt><trkpt lat="45.42228788319571" lon="8.638511193984124"><ele>150.0</ele><time>2026-03-28T12:50:28.145Z</time></trkpt><trkpt lat="45.422797624984746" lon="8.635938936601567"><ele>145.0</ele><time>2026-03-28T12:50:36.026Z</time></trkpt><trkpt lat="45.42309018809615" lon="8.635658617634876"><ele>140.0</ele><time>2026-03-28T12:50:37.026Z</time></trkpt><trkpt lat="45.42305605803982" lon="8.635307410333976"><ele>139.66666666666666</ele><time>2026-03-28T12:50:38.026Z</time></trkpt><trkpt lat="45.42309555433818" lon="8.634998941981298"><ele>139.33333333333334</ele><time>2026-03-28T12:50:39.026Z</time></trkpt><trkpt lat="45.42313900421225" lon="8.63469760294779"><ele>139.0</ele><time>2026-03-28T12:50:40.026Z</time></trkpt><trkpt lat="45.42318354207266" lon="8.634391642811238"><ele>140.33333333333334</ele><time>2026-03-28T12:50:41.026Z</time></trkpt><trkpt lat="45.42323065917416" lon="8.634088883994757"><ele>141.66666666666666</ele><time>2026-03-28T12:50:42.026Z</time></trkpt><trkpt lat="45.42327526735594" lon="8.633791944796585"><ele>143.0</ele><time>2026-03-28T12:50:43.026Z</time></trkpt><trkpt lat="45.423317946470995" lon="8.633489743765725"><ele>144.0</ele><time>2026-03-28T12:50:44.026Z</time></trkpt><trkpt lat="45.42335913373549" lon="8.633187441845855"><ele>145.0</ele><time>2026-03-28T12:50:45.026Z</time></trkpt><trkpt lat="45.423401260322436" lon="8.6328810103241"><ele>146.0</ele><time>2026-03-28T12:50:46.026Z</time></trkpt><trkpt lat="45.42344838259827" lon="8.632577170685977"><ele>146.0</ele><time>2026-03-28T12:50:47.026Z</time></trkpt><trkpt lat="45.423493644442395" lon="8.632275790496248"><ele>146.0</ele><time>2026-03-28T12:50:48.026Z</time></trkpt><trkpt lat="45.42354106770347" lon="8.631978074198331"><ele>146.0</ele><time>2026-03-28T12:50:49.026Z</time></trkpt><trkpt lat="45.42358800388413" lon="8.631680830302944"><ele>144.66666666666666</ele><time>2026-03-28T12:50:50.026Z</time></trkpt><trkpt lat="45.423632967236536" lon="8.631388539464986"><ele>143.33333333333334</ele><time>2026-03-28T12:50:51.026Z</time></trkpt><trkpt lat="45.423676329068726" lon="8.631092323156471"><ele>142.0</ele><time>2026-03-28T12:50:52.026Z</time></trkpt><trkpt lat="45.423721718512226" lon="8.630802017431352"><ele>142.0</ele><time>2026-03-28T12:50:53.026Z</time></trkpt><trkpt lat="45.423769397906426" lon="8.630513506107404"><ele>142.0</ele><time>2026-03-28T12:50:54.026Z</time></trkpt><trkpt lat="45.423815782500576" lon="8.630221816377896"><ele>142.0</ele><time>2026-03-28T12:50:55.026Z</time></trkpt><trkpt lat="45.423859361600144" lon="8.629928599319904"><ele>142.33333333333334</ele><time>2026-03-28T12:50:56.026Z</time></trkpt><trkpt lat="45.42390700802159" lon="8.629635380027542"><ele>142.66666666666666</ele><time>2026-03-28T12:50:57.026Z</time></trkpt><trkpt lat="45.4239528155685" lon="8.62933863758449"><ele>143.0</ele><time>2026-03-28T12:50:58.026Z</time></trkpt><trkpt lat="45.42399873076975" lon="8.62903988063188"><ele>143.0</ele><time>2026-03-28T12:50:59.026Z</time></trkpt><trkpt lat="45.424043373540826" lon="8.628746991226588"><ele>143.0</ele><time>2026-03-28T12:51:00.026Z</time></trkpt><trkpt lat="45.424085665891624" lon="8.628456899860357"><ele>143.0</ele><time>2026-03-28T12:51:01.026Z</time></trkpt><trkpt lat="45.42412894389175" lon="8.628182081529706"><ele>143.66666666666666</ele><time>2026-03-28T12:51:02.026Z</time></trkpt><trkpt lat="45.424168749088764" lon="8.627911704011996"><ele>144.33333333333334</ele><time>2026-03-28T12:51:03.026Z</time></trkpt><trkpt lat="45.42421056374381" lon="8.627655048020923"><ele>145.0</ele><time>2026-03-28T12:51:04.027Z</time></trkpt><trkpt lat="45.42425245672465" lon="8.62740882150706"><ele>145.66666666666669</ele><time>2026-03-28T12:51:05.027Z</time></trkpt><trkpt lat="45.424289567053044" lon="8.6271644786474"><ele>146.33333333333334</ele><time>2026-03-28T12:51:06.027Z</time></trkpt><trkpt lat="45.424318082355775" lon="8.626924365947573"><ele>147.0</ele><time>2026-03-28T12:51:07.027Z</time></trkpt><trkpt lat="45.424341674096084" lon="8.626690339778955"><ele>147.33333333333334</ele><time>2026-03-28T12:51:08.027Z</time></trkpt><trkpt lat="45.4243671853156" lon="8.626459015081755"><ele>147.66666666666669</ele><time>2026-03-28T12:51:09.027Z</time></trkpt><trkpt lat="45.424387285012166" lon="8.62623032766471"><ele>148.0</ele><time>2026-03-28T12:51:10.027Z</time></trkpt><trkpt lat="45.42440501067921" lon="8.626015978834808"><ele>148.25</ele><time>2026-03-28T12:51:11.027Z</time></trkpt><trkpt lat="45.42442374902572" lon="8.62582699596224"><ele>148.5</ele><time>2026-03-28T12:51:12.027Z</time></trkpt><trkpt lat="45.424460192195006" lon="8.625638347648067"><ele>148.75</ele><time>2026-03-28T12:51:13.027Z</time></trkpt><trkpt lat="45.424509314508" lon="8.625489916504053"><ele>149.0</ele><time>2026-03-28T12:51:14.027Z</time></trkpt><trkpt lat="45.424591550641914" lon="8.625373450381435"><ele>148.5</ele><time>2026-03-28T12:51:15.027Z</time></trkpt><trkpt lat="45.42469928717947" lon="8.62529614367443"><ele>148.0</ele><time>2026-03-28T12:51:16.027Z</time></trkpt><trkpt lat="45.424821770701406" lon="8.625229930139938"><ele>147.5</ele><time>2026-03-28T12:51:17.027Z</time></trkpt><trkpt lat="45.424944293636685" lon="8.625154262750605"><ele>147.0</ele><time>2026-03-28T12:51:18.027Z</time></trkpt><trkpt lat="45.425067169539226" lon="8.625066489740803"><ele>147.0</ele><time>2026-03-28T12:51:19.027Z</time></trkpt><trkpt lat="45.42518435781017" lon="8.624959300479354"><ele>147.0</ele><time>2026-03-28T12:51:20.027Z</time></trkpt><trkpt lat="45.42528780799586" lon="8.624817748459115"><ele>147.0</ele><time>2026-03-28T12:51:21.027Z</time></trkpt><trkpt lat="45.42535855524814" lon="8.62464464417258"><ele>147.0</ele><time>2026-03-28T12:51:22.027Z</time></trkpt><trkpt lat="45.42539381744111" lon="8.624448710863218"><ele>147.25</ele><time>2026-03-28T12:51:23.027Z</time></trkpt><trkpt lat="45.42540044935117" lon="8.624241759382514"><ele>147.5</ele><time>2026-03-28T12:51:24.027Z</time></trkpt><trkpt lat="45.42540523029957" lon="8.624034919547654"><ele>147.75</ele><time>2026-03-28T12:51:25.027Z</time></trkpt><trkpt lat="45.42540849173615" lon="8.623848279074837"><ele>148.0</ele><time>2026-03-28T12:51:26.027Z</time></trkpt><trkpt lat="45.42542353703725" lon="8.62367745270032"><ele>148.20000000000002</ele><time>2026-03-28T12:51:27.027Z</time></trkpt><trkpt lat="45.42545544984743" lon="8.623524488718866"><ele>148.4</ele><time>2026-03-28T12:51:28.027Z</time></trkpt><trkpt lat="45.425508871488375" lon="8.623399752660573"><ele>148.60000000000002</ele><time>2026-03-28T12:51:29.027Z</time></trkpt><trkpt lat="45.425587477292304" lon="8.6232944379227"><ele>148.8</ele><time>2026-03-28T12:51:30.027Z</time></trkpt><trkpt lat="45.42568305820651" lon="8.623213562533323"><ele>149.0</ele><time>2026-03-28T12:51:31.027Z</time></trkpt><trkpt lat="45.42580110365553" lon="8.623164886229462"><ele>149.0</ele><time>2026-03-28T12:51:32.027Z</time></trkpt><trkpt lat="45.425925410721284" lon="8.62315230630561"><ele>149.0</ele><time>2026-03-28T12:51:33.027Z</time></trkpt><trkpt lat="45.42606050103819" lon="8.62315330464841"><ele>149.0</ele><time>2026-03-28T12:51:34.027Z</time></trkpt><trkpt lat="45.426202160682" lon="8.623167955988595"><ele>149.0</ele><time>2026-03-28T12:51:35.027Z</time></trkpt><trkpt lat="45.426350555642564" lon="8.623179759792865"><ele>149.5</ele><time>2026-03-28T12:51:36.027Z</time></trkpt><trkpt lat="45.426501026067164" lon="8.623191890729128"><ele>150.0</ele><time>2026-03-28T12:51:37.028Z</time></trkpt><trkpt lat="45.426643985253705" lon="8.623195224267148"><ele>150.5</ele><time>2026-03-28T12:51:38.028Z</time></trkpt><trkpt lat="45.426778860852416" lon="8.623192681240305"><ele>151.0</ele><time>2026-03-28T12:51:39.028Z</time></trkpt><trkpt lat="45.426903234710586" lon="8.62318642297835"><ele>151.0</ele><time>2026-03-28T12:51:40.028Z</time></trkpt><trkpt lat="45.42701266205162" lon="8.62319748981613"><ele>151.0</ele><time>2026-03-28T12:51:41.028Z</time></trkpt><trkpt lat="45.427109926470585" lon="8.623237809738638"><ele>151.0</ele><time>2026-03-28T12:51:42.028Z</time></trkpt><trkpt lat="45.42719255584716" lon="8.62330299666923"><ele>151.0</ele><time>2026-03-28T12:51:43.028Z</time></trkpt><trkpt lat="45.427262703280846" lon="8.623373842714823"><ele>151.0</ele><time>2026-03-28T12:51:44.028Z</time></trkpt><trkpt lat="45.427337553648336" lon="8.62341288184255"><ele>150.66666666666669</ele><time>2026-03-28T12:51:45.028Z</time></trkpt><trkpt lat="45.4274089829466" lon="8.623410667686771"><ele>150.33333333333334</ele><time>2026-03-28T12:51:46.028Z</time></trkpt><trkpt lat="45.42747316301249" lon="8.62337176207527"><ele>150.0</ele><time>2026-03-28T12:51:47.028Z</time></trkpt><trkpt lat="45.42751999754144" lon="8.623292466491558"><ele>149.66666666666666</ele><time>2026-03-28T12:51:48.028Z</time></trkpt><trkpt lat="45.427543903170445" lon="8.623186035111893"><ele>149.33333333333331</ele><time>2026-03-28T12:51:49.028Z</time></trkpt><trkpt lat="45.42753159539603" lon="8.623071534895942"><ele>149.0</ele><time>2026-03-28T12:51:50.028Z</time></trkpt><trkpt lat="45.42749594642537" lon="8.622969845321498"><ele>149.0</ele><time>2026-03-28T12:51:51.028Z</time></trkpt><trkpt lat="45.42744740545603" lon="8.622868360477453"><ele>149.0</ele><time>2026-03-28T12:51:52.028Z</time></trkpt><trkpt lat="45.427417521501056" lon="8.622733539294224"><ele>149.0</ele><time>2026-03-28T12:51:53.028Z</time></trkpt><trkpt lat="45.427409462087546" lon="8.622572968116227"><ele>149.0</ele><time>2026-03-28T12:51:54.028Z</time></trkpt><trkpt lat="45.42741228887321" lon="8.622402984978004"><ele>149.0</ele><time>2026-03-28T12:51:55.028Z</time></trkpt><trkpt lat="45.427427961669444" lon="8.62221855478742"><ele>149.25</ele><time>2026-03-28T12:51:56.028Z</time></trkpt><trkpt lat="45.427442727188705" lon="8.622029840922119"><ele>149.5</ele><time>2026-03-28T12:51:57.028Z</time></trkpt><trkpt lat="45.42744582241194" lon="8.621846762946493"><ele>149.75</ele><time>2026-03-28T12:51:58.028Z</time></trkpt><trkpt lat="45.427450780231936" lon="8.621651254913319"><ele>150.0</ele><time>2026-03-28T12:51:59.028Z</time></trkpt><trkpt lat="45.427460681305995" lon="8.62144163849913"><ele>150.5</ele><time>2026-03-28T12:52:00.028Z</time></trkpt><trkpt lat="45.42746372327856" lon="8.621235016916243"><ele>151.0</ele><time>2026-03-28T12:52:01.028Z</time></trkpt><trkpt lat="45.42747093711083" lon="8.621025466848115"><ele>151.5</ele><time>2026-03-28T12:52:02.028Z</time></trkpt><trkpt lat="45.427471988926676" lon="8.620811801811495"><ele>152.0</ele><time>2026-03-28T12:52:03.028Z</time></trkpt><trkpt lat="45.42747701656197" lon="8.62060126658448"><ele>152.0</ele><time>2026-03-28T12:52:04.028Z</time></trkpt><trkpt lat="45.427481832179865" lon="8.62039440029531"><ele>152.0</ele><time>2026-03-28T12:52:05.028Z</time></trkpt><trkpt lat="45.42748553242327" lon="8.620202993278404"><ele>152.0</ele><time>2026-03-28T12:52:06.028Z</time></trkpt><trkpt lat="45.42748702794269" lon="8.620022259077892"><ele>152.0</ele><time>2026-03-28T12:52:07.028Z</time></trkpt><trkpt lat="45.427485180374944" lon="8.619853937905129"><ele>152.0</ele><time>2026-03-28T12:52:08.028Z</time></trkpt><trkpt lat="45.42748437760791" lon="8.619706285424474"><ele>152.0</ele><time>2026-03-28T12:52:09.028Z</time></trkpt><trkpt lat="45.4274808793051" lon="8.619587482761453"><ele>152.0</ele><time>2026-03-28T12:52:10.028Z</time></trkpt><trkpt lat="45.42746844336166" lon="8.619492386754446"><ele>152.0</ele><time>2026-03-28T12:52:11.029Z</time></trkpt><trkpt lat="45.427470284508686" lon="8.619374294089539"><ele>152.0</ele><time>2026-03-28T12:52:13.029Z</time></trkpt><trkpt lat="45.42744163190635" lon="8.619289636568038"><ele>152.0</ele><time>2026-03-28T12:52:16.029Z</time></trkpt><trkpt lat="45.42736344074699" lon="8.619239809099094"><ele>152.0</ele><time>2026-03-28T12:52:18.029Z</time></trkpt><trkpt lat="45.42722863980972" lon="8.619254197819107"><ele>152.0</ele><time>2026-03-28T12:52:20.029Z</time></trkpt><trkpt lat="45.42715828890279" lon="8.619261939725764"><ele>152.0</ele><time>2026-03-28T12:52:21.029Z</time></trkpt><trkpt lat="45.427089042790804" lon="8.61926719600014"><ele>152.0</ele><time>2026-03-28T12:52:22.029Z</time></trkpt><trkpt lat="45.42702008985393" lon="8.619264040352798"><ele>152.0</ele><time>2026-03-28T12:52:23.029Z</time></trkpt><trkpt lat="45.426952062358694" lon="8.619261808308206"><ele>152.0</ele><time>2026-03-28T12:52:24.029Z</time></trkpt><trkpt lat="45.42687962448288" lon="8.61925903740483"><ele>152.0</ele><time>2026-03-28T12:52:25.029Z</time></trkpt><trkpt lat="45.42680586817626" lon="8.619254794797754"><ele>152.0</ele><time>2026-03-28T12:52:26.029Z</time></trkpt><trkpt lat="45.42672769946655" lon="8.6192503726026"><ele>152.0</ele><time>2026-03-28T12:52:27.029Z</time></trkpt><trkpt lat="45.426642938107854" lon="8.619248042105582"><ele>152.0</ele><time>2026-03-28T12:52:28.029Z</time></trkpt><trkpt lat="45.42656062962647" lon="8.61924026921541"><ele>152.0</ele><time>2026-03-28T12:52:29.029Z</time></trkpt><trkpt lat="45.4264796165291" lon="8.61923654757858"><ele>152.0</ele><time>2026-03-28T12:52:30.029Z</time></trkpt><trkpt lat="45.426391490206754" lon="8.619229436904437"><ele>152.0</ele><time>2026-03-28T12:52:31.029Z</time></trkpt><trkpt lat="45.42630042378694" lon="8.619228133543714"><ele>152.0</ele><time>2026-03-28T12:52:32.029Z</time></trkpt><trkpt lat="45.42620514914899" lon="8.619230539130765"><ele>152.0</ele><time>2026-03-28T12:52:33.029Z</time></trkpt><trkpt lat="45.42610326247359" lon="8.619239170768507"><ele>152.0</ele><time>2026-03-28T12:52:34.029Z</time></trkpt><trkpt lat="45.42599594508502" lon="8.619245143553632"><ele>152.0</ele><time>2026-03-28T12:52:35.029Z</time></trkpt><trkpt lat="45.4258851149818" lon="8.619245369555895"><ele>152.0</ele><time>2026-03-28T12:52:36.029Z</time></trkpt><trkpt lat="45.42577208428464" lon="8.619235027735753"><ele>152.0</ele><time>2026-03-28T12:52:37.029Z</time></trkpt><trkpt lat="45.4256554120658" lon="8.619228943480088"><ele>152.0</ele><time>2026-03-28T12:52:38.029Z</time></trkpt><trkpt lat="45.425540319254274" lon="8.61922466577317"><ele>152.0</ele><time>2026-03-28T12:52:39.029Z</time></trkpt><trkpt lat="45.42541648975741" lon="8.61922147020986"><ele>152.25</ele><time>2026-03-28T12:52:40.029Z</time></trkpt><trkpt lat="45.42528695768552" lon="8.619211917878996"><ele>152.5</ele><time>2026-03-28T12:52:41.029Z</time></trkpt><trkpt lat="45.42515604807315" lon="8.619205259511448"><ele>152.75</ele><time>2026-03-28T12:52:42.029Z</time></trkpt><trkpt lat="45.4250265632934" lon="8.619204985818959"><ele>153.0</ele><time>2026-03-28T12:52:43.029Z</time></trkpt><trkpt lat="45.42489368926013" lon="8.619208111705264"><ele>153.0</ele><time>2026-03-28T12:52:44.03Z</time></trkpt><trkpt lat="45.424758880794684" lon="8.619207861992015"><ele>153.0</ele><time>2026-03-28T12:52:45.03Z</time></trkpt><trkpt lat="45.42462125107425" lon="8.619202310848479"><ele>153.0</ele><time>2026-03-28T12:52:46.03Z</time></trkpt><trkpt lat="45.424481326439654" lon="8.619193723077172"><ele>153.0</ele><time>2026-03-28T12:52:47.03Z</time></trkpt><trkpt lat="45.424340398755525" lon="8.619185362559195"><ele>152.0</ele><time>2026-03-28T12:52:48.03Z</time></trkpt><trkpt lat="45.42420100006975" lon="8.619186809050717"><ele>151.0</ele><time>2026-03-28T12:52:49.03Z</time></trkpt><trkpt lat="45.42406108077567" lon="8.61918902176115"><ele>150.0</ele><time>2026-03-28T12:52:50.03Z</time></trkpt><trkpt lat="45.4239150549085" lon="8.619183832847764"><ele>149.0</ele><time>2026-03-28T12:52:51.03Z</time></trkpt><trkpt lat="45.42376827174085" lon="8.619176675007049"><ele>149.0</ele><time>2026-03-28T12:52:52.03Z</time></trkpt><trkpt lat="45.42362333973828" lon="8.619171809142154"><ele>149.0</ele><time>2026-03-28T12:52:53.03Z</time></trkpt><trkpt lat="45.423487143524135" lon="8.619169406253102"><ele>149.0</ele><time>2026-03-28T12:52:54.03Z</time></trkpt><trkpt lat="45.42335560822094" lon="8.619167085328847"><ele>149.0</ele><time>2026-03-28T12:52:55.03Z</time></trkpt><trkpt lat="45.42322837126908" lon="8.61916557868003"><ele>149.0</ele><time>2026-03-28T12:52:56.03Z</time></trkpt><trkpt lat="45.42308774439545" lon="8.619161768335973"><ele>149.0</ele><time>2026-03-28T12:52:57.03Z</time></trkpt><trkpt lat="45.42294726023971" lon="8.619158054832273"><ele>149.0</ele><time>2026-03-28T12:52:58.03Z</time></trkpt><trkpt lat="45.42280311010974" lon="8.619153086281514"><ele>149.0</ele><time>2026-03-28T12:52:59.03Z</time></trkpt><trkpt lat="45.42265389744834" lon="8.619154994095625"><ele>148.66666666666666</ele><time>2026-03-28T12:53:00.03Z</time></trkpt><trkpt lat="45.422499547584984" lon="8.619158482716376"><ele>148.33333333333334</ele><time>2026-03-28T12:53:01.03Z</time></trkpt><trkpt lat="45.422341972775236" lon="8.619162226082443"><ele>148.0</ele><time>2026-03-28T12:53:02.03Z</time></trkpt><trkpt lat="45.42218170630597" lon="8.619165211879155"><ele>147.33333333333334</ele><time>2026-03-28T12:53:03.03Z</time></trkpt><trkpt lat="45.42201812685003" lon="8.619168746495932"><ele>146.66666666666666</ele><time>2026-03-28T12:53:04.03Z</time></trkpt><trkpt lat="45.42185019493986" lon="8.619170102678796"><ele>146.0</ele><time>2026-03-28T12:53:05.03Z</time></trkpt><trkpt lat="45.42168236631859" lon="8.619169876692201"><ele>146.0</ele><time>2026-03-28T12:53:06.03Z</time></trkpt><trkpt lat="45.42151545935861" lon="8.619171354906833"><ele>146.0</ele><time>2026-03-28T12:53:07.03Z</time></trkpt><trkpt lat="45.421350179091505" lon="8.619175071700145"><ele>146.0</ele><time>2026-03-28T12:53:08.03Z</time></trkpt><trkpt lat="45.42118711146724" lon="8.619180408718242"><ele>146.33333333333331</ele><time>2026-03-28T12:53:09.03Z</time></trkpt><trkpt lat="45.42102561469243" lon="8.619186354611545"><ele>146.66666666666666</ele><time>2026-03-28T12:53:10.03Z</time></trkpt><trkpt lat="45.42086475060726" lon="8.619189653801687"><ele>147.0</ele><time>2026-03-28T12:53:11.03Z</time></trkpt><trkpt lat="45.42070720743581" lon="8.619190826046312"><ele>147.0</ele><time>2026-03-28T12:53:12.03Z</time></trkpt><trkpt lat="45.420558053818205" lon="8.619187922238522"><ele>147.0</ele><time>2026-03-28T12:53:13.03Z</time></trkpt><trkpt lat="45.420415947534856" lon="8.619190228506435"><ele>147.0</ele><time>2026-03-28T12:53:14.03Z</time></trkpt><trkpt lat="45.420280964784745" lon="8.619194454103107"><ele>147.0</ele><time>2026-03-28T12:53:15.03Z</time></trkpt><trkpt lat="45.42015435900986" lon="8.619199142197152"><ele>147.0</ele><time>2026-03-28T12:53:16.03Z</time></trkpt><trkpt lat="45.42003863521325" lon="8.61920098456036"><ele>147.0</ele><time>2026-03-28T12:53:17.031Z</time></trkpt><trkpt lat="45.419931564267145" lon="8.61920338988953"><ele>147.0</ele><time>2026-03-28T12:53:18.031Z</time></trkpt><trkpt lat="45.41983324905551" lon="8.61920187490659"><ele>147.0</ele><time>2026-03-28T12:53:19.031Z</time></trkpt><trkpt lat="45.41974084369413" lon="8.619197918054995"><ele>147.0</ele><time>2026-03-28T12:53:20.031Z</time></trkpt><trkpt lat="45.41965633734287" lon="8.619194659877568"><ele>147.0</ele><time>2026-03-28T12:53:21.031Z</time></trkpt><trkpt lat="45.419580466599385" lon="8.619190895256992"><ele>147.0</ele><time>2026-03-28T12:53:22.031Z</time></trkpt><trkpt lat="45.41951511152879" lon="8.619188088675758"><ele>147.0</ele><time>2026-03-28T12:53:23.031Z</time></trkpt><trkpt lat="45.41941771427517" lon="8.619165819987566"><ele>147.0</ele><time>2026-03-28T12:53:25.031Z</time></trkpt><trkpt lat="45.41936765699116" lon="8.619081881336003"><ele>147.0</ele><time>2026-03-28T12:53:27.031Z</time></trkpt><trkpt lat="45.41936657043442" lon="8.618913279994619"><ele>147.0</ele><time>2026-03-28T12:53:29.031Z</time></trkpt><trkpt lat="45.41936231199925" lon="8.618813444774451"><ele>147.0</ele><time>2026-03-28T12:53:30.031Z</time></trkpt><trkpt lat="45.419355440824845" lon="8.618704518074447"><ele>147.0</ele><time>2026-03-28T12:53:31.031Z</time></trkpt><trkpt lat="45.41934561499547" lon="8.618590592767307"><ele>147.0</ele><time>2026-03-28T12:53:32.031Z</time></trkpt><trkpt lat="45.41933329248423" lon="8.618467219453581"><ele>147.0</ele><time>2026-03-28T12:53:33.031Z</time></trkpt><trkpt lat="45.4193193884657" lon="8.618336146093423"><ele>147.0</ele><time>2026-03-28T12:53:34.031Z</time></trkpt><trkpt lat="45.41931084051332" lon="8.618200192143137"><ele>147.0</ele><time>2026-03-28T12:53:35.031Z</time></trkpt><trkpt lat="45.41930602790231" lon="8.618061550051262"><ele>147.0</ele><time>2026-03-28T12:53:36.031Z</time></trkpt><trkpt lat="45.419297778761944" lon="8.617923143259844"><ele>147.0</ele><time>2026-03-28T12:53:37.031Z</time></trkpt><trkpt lat="45.41928639694427" lon="8.617787008874057"><ele>147.0</ele><time>2026-03-28T12:53:38.031Z</time></trkpt><trkpt lat="45.41927201240828" lon="8.617659580161206"><ele>147.0</ele><time>2026-03-28T12:53:39.031Z</time></trkpt><trkpt lat="45.419258870760196" lon="8.617540603787068"><ele>147.0</ele><time>2026-03-28T12:53:40.031Z</time></trkpt><trkpt lat="45.419247073381406" lon="8.617428450187244"><ele>147.0</ele><time>2026-03-28T12:53:41.031Z</time></trkpt><trkpt lat="45.419235781875194" lon="8.617325938657755"><ele>147.0</ele><time>2026-03-28T12:53:42.031Z</time></trkpt><trkpt lat="45.41922835300038" lon="8.617233447537053"><ele>147.0</ele><time>2026-03-28T12:53:43.031Z</time></trkpt><trkpt lat="45.419221090949364" lon="8.617078188410332"><ele>147.0</ele><time>2026-03-28T12:53:45.031Z</time></trkpt><trkpt lat="45.41922482516764" lon="8.616978256880486"><ele>147.0</ele><time>2026-03-28T12:53:47.031Z</time></trkpt><trkpt lat="45.41918237471906" lon="8.616910234668195"><ele>147.0</ele><time>2026-03-28T12:53:50.032Z</time></trkpt><trkpt lat="45.4191613797545" lon="8.61702287178571"><ele>147.0</ele><time>2026-03-28T12:57:23.011Z</time></trkpt><trkpt lat="45.4191858381374" lon="8.617154920695556"><ele>147.0</ele><time>2026-03-28T12:57:25.011Z</time></trkpt><trkpt lat="45.419207986913136" lon="8.617310743684577"><ele>147.0</ele><time>2026-03-28T12:57:26.011Z</time></trkpt><trkpt lat="45.419221171269626" lon="8.617424782922178"><ele>147.0</ele><time>2026-03-28T12:57:27.011Z</time></trkpt><trkpt lat="45.41923288372486" lon="8.617555445019015"><ele>147.0</ele><time>2026-03-28T12:57:28.011Z</time></trkpt><trkpt lat="45.419242280492305" lon="8.617697251131366"><ele>147.0</ele><time>2026-03-28T12:57:29.011Z</time></trkpt><trkpt lat="45.41925321845074" lon="8.617854652920444"><ele>147.0</ele><time>2026-03-28T12:57:30.011Z</time></trkpt><trkpt lat="45.41925952452872" lon="8.6180224206705"><ele>147.0</ele><time>2026-03-28T12:57:31.011Z</time></trkpt><trkpt lat="45.419267487775905" lon="8.618183548927647"><ele>147.0</ele><time>2026-03-28T12:57:32.011Z</time></trkpt><trkpt lat="45.419276250005865" lon="8.618337760744883"><ele>147.0</ele><time>2026-03-28T12:57:33.011Z</time></trkpt><trkpt lat="45.419285482442945" lon="8.618491546763781"><ele>147.0</ele><time>2026-03-28T12:57:34.011Z</time></trkpt><trkpt lat="45.419299675910786" lon="8.618638865787009"><ele>147.0</ele><time>2026-03-28T12:57:35.011Z</time></trkpt><trkpt lat="45.419310236537925" lon="8.618774294205364"><ele>147.0</ele><time>2026-03-28T12:57:36.011Z</time></trkpt><trkpt lat="45.4193180416793" lon="8.618883182565801"><ele>147.0</ele><time>2026-03-28T12:57:37.011Z</time></trkpt><trkpt lat="45.41932667466036" lon="8.618972610642874"><ele>147.0</ele><time>2026-03-28T12:57:38.011Z</time></trkpt><trkpt lat="45.41933016543135" lon="8.619084771281223"><ele>147.0</ele><time>2026-03-28T12:57:40.012Z</time></trkpt><trkpt lat="45.419359151361796" lon="8.619169506076007"><ele>147.0</ele><time>2026-03-28T12:57:47.012Z</time></trkpt><trkpt lat="45.41941738785262" lon="8.619216360392725"><ele>147.0</ele><time>2026-03-28T12:57:49.012Z</time></trkpt><trkpt lat="45.41952082613563" lon="8.619207634173764"><ele>147.0</ele><time>2026-03-28T12:57:51.012Z</time></trkpt><trkpt lat="45.41959802012799" lon="8.619200576653457"><ele>147.0</ele><time>2026-03-28T12:57:52.012Z</time></trkpt><trkpt lat="45.419678158992745" lon="8.619200938594899"><ele>147.0</ele><time>2026-03-28T12:57:53.012Z</time></trkpt><trkpt lat="45.41977160995805" lon="8.619205345108835"><ele>147.0</ele><time>2026-03-28T12:57:54.012Z</time></trkpt><trkpt lat="45.41987508071737" lon="8.619214391808104"><ele>147.0</ele><time>2026-03-28T12:57:55.012Z</time></trkpt><trkpt lat="45.419984171771446" lon="8.619216473484345"><ele>147.0</ele><time>2026-03-28T12:57:56.012Z</time></trkpt><trkpt lat="45.42010556628018" lon="8.619216630415508"><ele>147.0</ele><time>2026-03-28T12:57:57.012Z</time></trkpt><trkpt lat="45.42023368177816" lon="8.619220675724169"><ele>147.0</ele><time>2026-03-28T12:57:58.012Z</time></trkpt><trkpt lat="45.420364028238424" lon="8.619224948174743"><ele>147.0</ele><time>2026-03-28T12:57:59.012Z</time></trkpt><trkpt lat="45.420502464058295" lon="8.619228191249823"><ele>147.0</ele><time>2026-03-28T12:58:00.012Z</time></trkpt><trkpt lat="45.42064798148428" lon="8.619228774669653"><ele>147.0</ele><time>2026-03-28T12:58:01.012Z</time></trkpt><trkpt lat="45.420800193696266" lon="8.61922757575951"><ele>147.0</ele><time>2026-03-28T12:58:02.012Z</time></trkpt><trkpt lat="45.42095032246511" lon="8.61923545635828"><ele>147.0</ele><time>2026-03-28T12:58:03.012Z</time></trkpt><trkpt lat="45.42110020899072" lon="8.619238826071518"><ele>147.0</ele><time>2026-03-28T12:58:04.012Z</time></trkpt><trkpt lat="45.42125728653476" lon="8.619242514565862"><ele>147.0</ele><time>2026-03-28T12:58:05.012Z</time></trkpt><trkpt lat="45.4214187443407" lon="8.61924619036151"><ele>147.0</ele><time>2026-03-28T12:58:06.012Z</time></trkpt><trkpt lat="45.42158431790744" lon="8.61925277139169"><ele>146.66666666666666</ele><time>2026-03-28T12:58:07.012Z</time></trkpt><trkpt lat="45.42175274624112" lon="8.619258985529209"><ele>146.33333333333331</ele><time>2026-03-28T12:58:08.012Z</time></trkpt><trkpt lat="45.42192072774707" lon="8.619257775768943"><ele>146.0</ele><time>2026-03-28T12:58:09.012Z</time></trkpt><trkpt lat="45.42209086331272" lon="8.619252708526412"><ele>146.66666666666666</ele><time>2026-03-28T12:58:10.012Z</time></trkpt><trkpt lat="45.42226239984588" lon="8.619248797576638"><ele>147.33333333333334</ele><time>2026-03-28T12:58:11.012Z</time></trkpt><trkpt lat="45.42243052696015" lon="8.619243185669859"><ele>148.0</ele><time>2026-03-28T12:58:12.013Z</time></trkpt><trkpt lat="45.4226017388103" lon="8.619244689408426"><ele>148.0</ele><time>2026-03-28T12:58:13.013Z</time></trkpt><trkpt lat="45.42277065756362" lon="8.619240776779035"><ele>148.0</ele><time>2026-03-28T12:58:14.013Z</time></trkpt><trkpt lat="45.422937527533826" lon="8.619241504719588"><ele>148.0</ele><time>2026-03-28T12:58:15.013Z</time></trkpt><trkpt lat="45.42310151749697" lon="8.619238905305611"><ele>148.25</ele><time>2026-03-28T12:58:16.013Z</time></trkpt><trkpt lat="45.423257784140475" lon="8.619235092958741"><ele>148.5</ele><time>2026-03-28T12:58:17.013Z</time></trkpt><trkpt lat="45.42340443410806" lon="8.619230984301565"><ele>148.75</ele><time>2026-03-28T12:58:18.013Z</time></trkpt><trkpt lat="45.42354734204391" lon="8.619233878136745"><ele>149.0</ele><time>2026-03-28T12:58:19.013Z</time></trkpt><trkpt lat="45.42368613123079" lon="8.619233963182976"><ele>149.0</ele><time>2026-03-28T12:58:20.013Z</time></trkpt><trkpt lat="45.42382717913101" lon="8.619233398948415"><ele>149.0</ele><time>2026-03-28T12:58:21.013Z</time></trkpt><trkpt lat="45.42397032824158" lon="8.619227116783518"><ele>149.0</ele><time>2026-03-28T12:58:22.013Z</time></trkpt><trkpt lat="45.424113814218046" lon="8.619226327635312"><ele>149.0</ele><time>2026-03-28T12:58:23.013Z</time></trkpt><trkpt lat="45.42425183664922" lon="8.619236270155483"><ele>149.0</ele><time>2026-03-28T12:58:24.013Z</time></trkpt><trkpt lat="45.424386449575145" lon="8.6192416629843"><ele>149.0</ele><time>2026-03-28T12:58:25.013Z</time></trkpt><trkpt lat="45.42451792374145" lon="8.619246419363298"><ele>149.0</ele><time>2026-03-28T12:58:26.013Z</time></trkpt><trkpt lat="45.42465087075608" lon="8.619252573645"><ele>149.0</ele><time>2026-03-28T12:58:27.013Z</time></trkpt><trkpt lat="45.42477805685011" lon="8.619248948012498"><ele>149.8</ele><time>2026-03-28T12:58:28.013Z</time></trkpt><trkpt lat="45.424900882249794" lon="8.61924678860684"><ele>150.60000000000002</ele><time>2026-03-28T12:58:29.013Z</time></trkpt><trkpt lat="45.42501795711783" lon="8.619246060976561"><ele>151.4</ele><time>2026-03-28T12:58:30.013Z</time></trkpt><trkpt lat="45.42512294694832" lon="8.619242623784828"><ele>152.20000000000002</ele><time>2026-03-28T12:58:31.013Z</time></trkpt><trkpt lat="45.42521139724795" lon="8.619241351594594"><ele>153.0</ele><time>2026-03-28T12:58:32.013Z</time></trkpt><trkpt lat="45.42528881931066" lon="8.619240483663276"><ele>153.0</ele><time>2026-03-28T12:58:33.013Z</time></trkpt><trkpt lat="45.425402149203194" lon="8.619250471147064"><ele>153.0</ele><time>2026-03-28T12:58:35.013Z</time></trkpt><trkpt lat="45.425469347141664" lon="8.619335819147391"><ele>153.0</ele><time>2026-03-28T12:58:37.013Z</time></trkpt><trkpt lat="45.42544538267471" lon="8.619451389305596"><ele>153.0</ele><time>2026-03-28T12:58:39.013Z</time></trkpt><trkpt lat="45.42543528789359" lon="8.619540689696665"><ele>153.0</ele><time>2026-03-28T12:58:40.013Z</time></trkpt><trkpt lat="45.42543308192702" lon="8.619659405118403"><ele>153.0</ele><time>2026-03-28T12:58:41.013Z</time></trkpt><trkpt lat="45.42542869553552" lon="8.6198090170539"><ele>153.0</ele><time>2026-03-28T12:58:42.013Z</time></trkpt><trkpt lat="45.425424498722194" lon="8.619975797467754"><ele>153.0</ele><time>2026-03-28T12:58:43.013Z</time></trkpt><trkpt lat="45.4254198644094" lon="8.620153345247225"><ele>153.0</ele><time>2026-03-28T12:58:44.013Z</time></trkpt><trkpt lat="45.4254139510314" lon="8.620319694795288"><ele>153.0</ele><time>2026-03-28T12:58:45.014Z</time></trkpt><trkpt lat="45.42540999852471" lon="8.620499327827597"><ele>152.5</ele><time>2026-03-28T12:58:46.014Z</time></trkpt><trkpt lat="45.42540402727386" lon="8.620687086015192"><ele>152.0</ele><time>2026-03-28T12:58:47.014Z</time></trkpt><trkpt lat="45.425394419839975" lon="8.620883521377053"><ele>151.5</ele><time>2026-03-28T12:58:48.014Z</time></trkpt><trkpt lat="45.42539144062795" lon="8.621087710694667"><ele>151.0</ele><time>2026-03-28T12:58:49.014Z</time></trkpt><trkpt lat="45.425390113045836" lon="8.621291602208215"><ele>150.75</ele><time>2026-03-28T12:58:50.014Z</time></trkpt><trkpt lat="45.42538458034802" lon="8.621477996483396"><ele>150.5</ele><time>2026-03-28T12:58:51.014Z</time></trkpt><trkpt lat="45.42537804446023" lon="8.621652136955602"><ele>150.25</ele><time>2026-03-28T12:58:52.014Z</time></trkpt><trkpt lat="45.42537124581748" lon="8.621818691713074"><ele>150.0</ele><time>2026-03-28T12:58:53.014Z</time></trkpt><trkpt lat="45.42536775301729" lon="8.621973934359769"><ele>149.83333333333334</ele><time>2026-03-28T12:58:54.014Z</time></trkpt><trkpt lat="45.425364870011876" lon="8.622116299306002"><ele>149.66666666666666</ele><time>2026-03-28T12:58:55.014Z</time></trkpt><trkpt lat="45.42536301781079" lon="8.622249805576018"><ele>149.5</ele><time>2026-03-28T12:58:56.014Z</time></trkpt><trkpt lat="45.425363619357434" lon="8.622367309924968"><ele>149.33333333333331</ele><time>2026-03-28T12:58:57.014Z</time></trkpt><trkpt lat="45.425382568536605" lon="8.622461313180954"><ele>149.16666666666666</ele><time>2026-03-28T12:58:58.014Z</time></trkpt><trkpt lat="45.42546898223266" lon="8.622541611741779"><ele>149.0</ele><time>2026-03-28T12:59:00.014Z</time></trkpt><trkpt lat="45.425534287416255" lon="8.62255225690877"><ele>149.8</ele><time>2026-03-28T12:59:01.014Z</time></trkpt><trkpt lat="45.425623977536866" lon="8.6225575694262"><ele>150.60000000000002</ele><time>2026-03-28T12:59:02.014Z</time></trkpt><trkpt lat="45.42572467202462" lon="8.62255306484695"><ele>151.4</ele><time>2026-03-28T12:59:03.014Z</time></trkpt><trkpt lat="45.425837056837565" lon="8.622552485369356"><ele>152.20000000000002</ele><time>2026-03-28T12:59:04.014Z</time></trkpt><trkpt lat="45.42594776550538" lon="8.622550740221694"><ele>153.0</ele><time>2026-03-28T12:59:05.014Z</time></trkpt><trkpt lat="45.42605933036183" lon="8.62254987637963"><ele>153.0</ele><time>2026-03-28T12:59:06.014Z</time></trkpt><trkpt lat="45.42617628929207" lon="8.62254770009539"><ele>153.0</ele><time>2026-03-28T12:59:07.014Z</time></trkpt><trkpt lat="45.42628761693581" lon="8.622545298818194"><ele>153.0</ele><time>2026-03-28T12:59:08.014Z</time></trkpt><trkpt lat="45.42638764413021" lon="8.622542415335872"><ele>153.0</ele><time>2026-03-28T12:59:09.014Z</time></trkpt><trkpt lat="45.426477377866796" lon="8.622545491909959"><ele>153.0</ele><time>2026-03-28T12:59:10.014Z</time></trkpt><trkpt lat="45.426557401937174" lon="8.62254300661403"><ele>153.0</ele><time>2026-03-28T12:59:11.014Z</time></trkpt><trkpt lat="45.426631937026976" lon="8.622548191384872"><ele>153.0</ele><time>2026-03-28T12:59:12.014Z</time></trkpt><trkpt lat="45.42670063553466" lon="8.622550448386129"><ele>153.0</ele><time>2026-03-28T12:59:13.014Z</time></trkpt><trkpt lat="45.42677191427425" lon="8.622549952154781"><ele>153.0</ele><time>2026-03-28T12:59:14.014Z</time></trkpt><trkpt lat="45.42684748210609" lon="8.622551560042163"><ele>153.0</ele><time>2026-03-28T12:59:15.014Z</time></trkpt><trkpt lat="45.4269358021691" lon="8.62254308728816"><ele>153.0</ele><time>2026-03-28T12:59:16.014Z</time></trkpt><trkpt lat="45.42701806868127" lon="8.62254572414674"><ele>153.0</ele><time>2026-03-28T12:59:17.014Z</time></trkpt><trkpt lat="45.42709543424367" lon="8.622539268085067"><ele>153.0</ele><time>2026-03-28T12:59:18.014Z</time></trkpt><trkpt lat="45.427165090962404" lon="8.622535889093015"><ele>153.0</ele><time>2026-03-28T12:59:19.015Z</time></trkpt><trkpt lat="45.427274042987435" lon="8.622567539122876"><ele>153.0</ele><time>2026-03-28T12:59:21.015Z</time></trkpt><trkpt lat="45.42732696662086" lon="8.62270655033117"><ele>153.0</ele><time>2026-03-28T12:59:23.015Z</time></trkpt><trkpt lat="45.42731670880585" lon="8.622807012252293"><ele>153.0</ele><time>2026-03-28T12:59:24.014Z</time></trkpt><trkpt lat="45.42727617712771" lon="8.622905369917394"><ele>152.6</ele><time>2026-03-28T12:59:25.012Z</time></trkpt><trkpt lat="45.42721172011595" lon="8.622994415005268"><ele>152.20000000000002</ele><time>2026-03-28T12:59:26.012Z</time></trkpt><trkpt lat="45.42713672483265" lon="8.623059302105418"><ele>151.8</ele><time>2026-03-28T12:59:27.012Z</time></trkpt><trkpt lat="45.42704336800382" lon="8.623101028885902"><ele>151.4</ele><time>2026-03-28T12:59:28.012Z</time></trkpt><trkpt lat="45.426942134949336" lon="8.623115491493657"><ele>151.0</ele><time>2026-03-28T12:59:29.012Z</time></trkpt><trkpt lat="45.426847302264974" lon="8.623103999071047"><ele>151.0</ele><time>2026-03-28T12:59:30.012Z</time></trkpt><trkpt lat="45.42675296950384" lon="8.623094345111289"><ele>151.0</ele><time>2026-03-28T12:59:31.012Z</time></trkpt><trkpt lat="45.426648689936954" lon="8.623079931071928"><ele>151.0</ele><time>2026-03-28T12:59:32.012Z</time></trkpt><trkpt lat="45.42653722063975" lon="8.623071024793031"><ele>151.0</ele><time>2026-03-28T12:59:33.012Z</time></trkpt><trkpt lat="45.42642196077731" lon="8.623064432373159"><ele>151.0</ele><time>2026-03-28T12:59:34.012Z</time></trkpt><trkpt lat="45.42631138204686" lon="8.623058536534337"><ele>150.5</ele><time>2026-03-28T12:59:35.012Z</time></trkpt><trkpt lat="45.42620044421065" lon="8.623060685013867"><ele>150.0</ele><time>2026-03-28T12:59:36.012Z</time></trkpt><trkpt lat="45.426088610754086" lon="8.623060456757452"><ele>149.5</ele><time>2026-03-28T12:59:37.012Z</time></trkpt><trkpt lat="45.425973026551596" lon="8.623065494234137"><ele>149.0</ele><time>2026-03-28T12:59:38.012Z</time></trkpt><trkpt lat="45.42585996276106" lon="8.62306596732217"><ele>149.0</ele><time>2026-03-28T12:59:39.012Z</time></trkpt><trkpt lat="45.425747161773764" lon="8.623069989206716"><ele>149.0</ele><time>2026-03-28T12:59:40.012Z</time></trkpt><trkpt lat="45.425643024233985" lon="8.62306760611926"><ele>149.0</ele><time>2026-03-28T12:59:41.012Z</time></trkpt><trkpt lat="45.42554994034159" lon="8.62307287634436"><ele>149.0</ele><time>2026-03-28T12:59:42.012Z</time></trkpt><trkpt lat="45.425465473017184" lon="8.623084947474206"><ele>149.0</ele><time>2026-03-28T12:59:43.012Z</time></trkpt><trkpt lat="45.425398637401166" lon="8.623126051283622"><ele>149.2</ele><time>2026-03-28T12:59:44.012Z</time></trkpt><trkpt lat="45.425353165734556" lon="8.623192504367099"><ele>149.4</ele><time>2026-03-28T12:59:45.012Z</time></trkpt><trkpt lat="45.42533520376105" lon="8.62329352163929"><ele>149.6</ele><time>2026-03-28T12:59:46.013Z</time></trkpt><trkpt lat="45.42534188126972" lon="8.623424546991519"><ele>149.8</ele><time>2026-03-28T12:59:47.013Z</time></trkpt><trkpt lat="45.42536577776393" lon="8.623583402632455"><ele>150.0</ele><time>2026-03-28T12:59:48.013Z</time></trkpt><trkpt lat="45.42537998264909" lon="8.623753902954181"><ele>149.5</ele><time>2026-03-28T12:59:49.013Z</time></trkpt><trkpt lat="45.42537449175857" lon="8.623927497237252"><ele>149.0</ele><time>2026-03-28T12:59:50.013Z</time></trkpt><trkpt lat="45.425365491953585" lon="8.62411611332394"><ele>148.5</ele><time>2026-03-28T12:59:51.013Z</time></trkpt><trkpt lat="45.42536293950165" lon="8.62430148718319"><ele>148.0</ele><time>2026-03-28T12:59:52.013Z</time></trkpt><trkpt lat="45.425352187444915" lon="8.62447677158616"><ele>147.75</ele><time>2026-03-28T12:59:53.013Z</time></trkpt><trkpt lat="45.4253123655169" lon="8.624640273392602"><ele>147.5</ele><time>2026-03-28T12:59:54.013Z</time></trkpt><trkpt lat="45.4252485584014" lon="8.624788599465917"><ele>147.25</ele><time>2026-03-28T12:59:55.013Z</time></trkpt><trkpt lat="45.42515995609787" lon="8.624904156396378"><ele>147.0</ele><time>2026-03-28T12:59:56.013Z</time></trkpt><trkpt lat="45.42505287591009" lon="8.624974892708453"><ele>147.0</ele><time>2026-03-28T12:59:57.013Z</time></trkpt><trkpt lat="45.42494074548282" lon="8.62499959067972"><ele>147.0</ele><time>2026-03-28T12:59:58.013Z</time></trkpt><trkpt lat="45.42482813143926" lon="8.624979613720951"><ele>147.0</ele><time>2026-03-28T12:59:59.013Z</time></trkpt><trkpt lat="45.42471807962748" lon="8.624912245403598"><ele>147.0</ele><time>2026-03-28T13:00:00.013Z</time></trkpt><trkpt lat="45.42462215811942" lon="8.624804992517003"><ele>147.25</ele><time>2026-03-28T13:00:01.013Z</time></trkpt><trkpt lat="45.42455598261323" lon="8.624657146325111"><ele>147.5</ele><time>2026-03-28T13:00:02.013Z</time></trkpt><trkpt lat="45.42451912537279" lon="8.624496775057109"><ele>147.75</ele><time>2026-03-28T13:00:03.013Z</time></trkpt><trkpt lat="45.42451388768102" lon="8.62431456009048"><ele>148.0</ele><time>2026-03-28T13:00:04.013Z</time></trkpt><trkpt lat="45.42452537738001" lon="8.62411036427796"><ele>148.0</ele><time>2026-03-28T13:00:05.013Z</time></trkpt><trkpt lat="45.42453042308661" lon="8.623888889767404"><ele>148.0</ele><time>2026-03-28T13:00:06.013Z</time></trkpt><trkpt lat="45.42453306300381" lon="8.623656109065044"><ele>148.0</ele><time>2026-03-28T13:00:07.013Z</time></trkpt><trkpt lat="45.424531660130384" lon="8.623423595915712"><ele>148.0</ele><time>2026-03-28T13:00:08.013Z</time></trkpt><trkpt lat="45.42452959463761" lon="8.623169817916763"><ele>148.0</ele><time>2026-03-28T13:00:09.013Z</time></trkpt><trkpt lat="45.42452310851551" lon="8.622900080854997"><ele>148.0</ele><time>2026-03-28T13:00:10.013Z</time></trkpt><trkpt lat="45.424522703319234" lon="8.622620296045389"><ele>148.0</ele><time>2026-03-28T13:00:11.013Z</time></trkpt><trkpt lat="45.42452028331679" lon="8.622341645705347"><ele>148.0</ele><time>2026-03-28T13:00:12.013Z</time></trkpt><trkpt lat="45.42451815515021" lon="8.62206234018454"><ele>148.0</ele><time>2026-03-28T13:00:13.013Z</time></trkpt><trkpt lat="45.42451492065968" lon="8.621773429993091"><ele>148.0</ele><time>2026-03-28T13:00:14.013Z</time></trkpt><trkpt lat="45.42451217570415" lon="8.621476176555339"><ele>148.0</ele><time>2026-03-28T13:00:15.013Z</time></trkpt><trkpt lat="45.424513586281606" lon="8.621172750897411"><ele>148.0</ele><time>2026-03-28T13:00:16.013Z</time></trkpt><trkpt lat="45.424510793768455" lon="8.620865806871416"><ele>148.0</ele><time>2026-03-28T13:00:17.013Z</time></trkpt><trkpt lat="45.42450506959403" lon="8.620559697557717"><ele>148.0</ele><time>2026-03-28T13:00:18.013Z</time></trkpt><trkpt lat="45.42450145472082" lon="8.62025426027068"><ele>148.0</ele><time>2026-03-28T13:00:19.013Z</time></trkpt><trkpt lat="45.42449977163131" lon="8.619949588348218"><ele>148.0</ele><time>2026-03-28T13:00:20.014Z</time></trkpt><trkpt lat="45.424497526221415" lon="8.619645174644415"><ele>148.0</ele><time>2026-03-28T13:00:21.014Z</time></trkpt><trkpt lat="45.42449346568302" lon="8.619339777666818"><ele>148.0</ele><time>2026-03-28T13:00:22.014Z</time></trkpt><trkpt lat="45.424488795310786" lon="8.619033010717798"><ele>148.33333333333334</ele><time>2026-03-28T13:00:23.014Z</time></trkpt><trkpt lat="45.424490922337746" lon="8.618727680158498"><ele>148.66666666666666</ele><time>2026-03-28T13:00:24.014Z</time></trkpt><trkpt lat="45.42448451380339" lon="8.618422965902147"><ele>149.0</ele><time>2026-03-28T13:00:25.014Z</time></trkpt><trkpt lat="45.4244760896192" lon="8.618118582891215"><ele>149.33333333333331</ele><time>2026-03-28T13:00:26.014Z</time></trkpt><trkpt lat="45.424470723247886" lon="8.617812447294604"><ele>149.66666666666666</ele><time>2026-03-28T13:00:27.014Z</time></trkpt><trkpt lat="45.42445956812536" lon="8.617506774312876"><ele>150.0</ele><time>2026-03-28T13:00:28.014Z</time></trkpt><trkpt lat="45.42445307072264" lon="8.617201804690263"><ele>148.66666666666666</ele><time>2026-03-28T13:00:29.014Z</time></trkpt><trkpt lat="45.42444544138547" lon="8.616900051613497"><ele>147.33333333333331</ele><time>2026-03-28T13:00:30.014Z</time></trkpt><trkpt lat="45.424438781623536" lon="8.616595135061857"><ele>146.0</ele><time>2026-03-28T13:00:31.014Z</time></trkpt><trkpt lat="45.4244336390028" lon="8.616286497676612"><ele>146.33333333333331</ele><time>2026-03-28T13:00:32.014Z</time></trkpt><trkpt lat="45.42442525529266" lon="8.615976568058315"><ele>146.66666666666666</ele><time>2026-03-28T13:00:33.014Z</time></trkpt><trkpt lat="45.424417728772305" lon="8.61566793165103"><ele>147.0</ele><time>2026-03-28T13:00:34.014Z</time></trkpt><trkpt lat="45.424407384712005" lon="8.61535866550382"><ele>146.66666666666666</ele><time>2026-03-28T13:00:35.014Z</time></trkpt><trkpt lat="45.42440350513191" lon="8.615050652373707"><ele>146.33333333333331</ele><time>2026-03-28T13:00:36.014Z</time></trkpt><trkpt lat="45.42440116579832" lon="8.614746380405249"><ele>146.0</ele><time>2026-03-28T13:00:37.014Z</time></trkpt><trkpt lat="45.4244007451649" lon="8.61444493032265"><ele>146.0</ele><time>2026-03-28T13:00:38.014Z</time></trkpt><trkpt lat="45.424394393424954" lon="8.614147355521547"><ele>146.0</ele><time>2026-03-28T13:00:39.014Z</time></trkpt><trkpt lat="45.42438953388545" lon="8.613852635585936"><ele>146.0</ele><time>2026-03-28T13:00:40.014Z</time></trkpt><trkpt lat="45.424383368589666" lon="8.613566559093737"><ele>146.0</ele><time>2026-03-28T13:00:41.014Z</time></trkpt><trkpt lat="45.424378964983504" lon="8.613277622499647"><ele>146.0</ele><time>2026-03-28T13:00:42.014Z</time></trkpt><trkpt lat="45.424376968465324" lon="8.612990451593184"><ele>146.0</ele><time>2026-03-28T13:00:43.014Z</time></trkpt><trkpt lat="45.424375217138184" lon="8.612703634566023"><ele>146.0</ele><time>2026-03-28T13:00:44.014Z</time></trkpt><trkpt lat="45.42437329864752" lon="8.612421420416808"><ele>146.0</ele><time>2026-03-28T13:00:45.014Z</time></trkpt><trkpt lat="45.424365182236144" lon="8.612138646973724"><ele>146.0</ele><time>2026-03-28T13:00:46.014Z</time></trkpt><trkpt lat="45.424356049569575" lon="8.611850178328357"><ele>146.0</ele><time>2026-03-28T13:00:47.014Z</time></trkpt><trkpt lat="45.42435073330586" lon="8.611559960596876"><ele>146.0</ele><time>2026-03-28T13:00:48.014Z</time></trkpt><trkpt lat="45.424344578300605" lon="8.611271667783077"><ele>146.0</ele><time>2026-03-28T13:00:49.014Z</time></trkpt><trkpt lat="45.42434006528712" lon="8.610984937834353"><ele>146.0</ele><time>2026-03-28T13:00:50.014Z</time></trkpt><trkpt lat="45.424337004706715" lon="8.61069867412542"><ele>146.0</ele><time>2026-03-28T13:00:51.014Z</time></trkpt><trkpt lat="45.4243359850939" lon="8.610409151928096"><ele>146.0</ele><time>2026-03-28T13:00:52.014Z</time></trkpt><trkpt lat="45.424330146481275" lon="8.610122166731985"><ele>146.0</ele><time>2026-03-28T13:00:53.015Z</time></trkpt><trkpt lat="45.42432670379557" lon="8.609836451479424"><ele>146.0</ele><time>2026-03-28T13:00:54.015Z</time></trkpt><trkpt lat="45.42432321932591" lon="8.609546817902341"><ele>146.0</ele><time>2026-03-28T13:00:55.015Z</time></trkpt><trkpt lat="45.42431817298003" lon="8.609258547195761"><ele>146.0</ele><time>2026-03-28T13:00:56.015Z</time></trkpt><trkpt lat="45.424312509353776" lon="8.608970250703651"><ele>146.0</ele><time>2026-03-28T13:00:57.015Z</time></trkpt><trkpt lat="45.42430724885221" lon="8.608681608419436"><ele>146.0</ele><time>2026-03-28T13:00:58.015Z</time></trkpt><trkpt lat="45.424303431463386" lon="8.60839328306207"><ele>146.33333333333331</ele><time>2026-03-28T13:00:59.015Z</time></trkpt><trkpt lat="45.42430047391149" lon="8.60810413568676"><ele>146.66666666666666</ele><time>2026-03-28T13:01:00.015Z</time></trkpt><trkpt lat="45.42430135138711" lon="8.607812336735337"><ele>147.0</ele><time>2026-03-28T13:01:01.015Z</time></trkpt><trkpt lat="45.424299782183766" lon="8.607520864916093"><ele>146.33333333333334</ele><time>2026-03-28T13:01:02.015Z</time></trkpt><trkpt lat="45.42429542325141" lon="8.607223441120103"><ele>145.66666666666669</ele><time>2026-03-28T13:01:03.015Z</time></trkpt><trkpt lat="45.42429231964272" lon="8.606929380399361"><ele>145.0</ele><time>2026-03-28T13:01:04.015Z</time></trkpt><trkpt lat="45.42428547491994" lon="8.606635386859987"><ele>144.66666666666669</ele><time>2026-03-28T13:01:05.015Z</time></trkpt><trkpt lat="45.424281409271124" lon="8.606342401745078"><ele>144.33333333333334</ele><time>2026-03-28T13:01:06.015Z</time></trkpt><trkpt lat="45.42427748603779" lon="8.606046108066579"><ele>144.0</ele><time>2026-03-28T13:01:07.015Z</time></trkpt><trkpt lat="45.424275994369985" lon="8.605748672480066"><ele>143.0</ele><time>2026-03-28T13:01:08.015Z</time></trkpt><trkpt lat="45.42427631105618" lon="8.605449116740864"><ele>142.0</ele><time>2026-03-28T13:01:09.015Z</time></trkpt><trkpt lat="45.42427681063802" lon="8.605148404150478"><ele>141.0</ele><time>2026-03-28T13:01:10.015Z</time></trkpt><trkpt lat="45.42426836964836" lon="8.604843980065183"><ele>140.66666666666666</ele><time>2026-03-28T13:01:11.015Z</time></trkpt><trkpt lat="45.42426469964014" lon="8.60453475758728"><ele>140.33333333333331</ele><time>2026-03-28T13:01:12.015Z</time></trkpt><trkpt lat="45.42426192884264" lon="8.604220816940602"><ele>140.0</ele><time>2026-03-28T13:01:13.015Z</time></trkpt><trkpt lat="45.4242598951599" lon="8.603901255735352"><ele>139.5</ele><time>2026-03-28T13:01:14.015Z</time></trkpt><trkpt lat="45.42425534306754" lon="8.603579711484365"><ele>139.0</ele><time>2026-03-28T13:01:15.015Z</time></trkpt><trkpt lat="45.42424747507678" lon="8.603260657663789"><ele>139.0</ele><time>2026-03-28T13:01:16.015Z</time></trkpt><trkpt lat="45.424236946065" lon="8.602938779871359"><ele>139.0</ele><time>2026-03-28T13:01:17.015Z</time></trkpt><trkpt lat="45.42422646273038" lon="8.602617897081844"><ele>139.0</ele><time>2026-03-28T13:01:18.015Z</time></trkpt><trkpt lat="45.424209133512605" lon="8.602296093671152"><ele>139.0</ele><time>2026-03-28T13:01:19.015Z</time></trkpt><trkpt lat="45.42419101757105" lon="8.601967062239893"><ele>140.0</ele><time>2026-03-28T13:01:20.015Z</time></trkpt><trkpt lat="45.42416786843168" lon="8.601639214316275"><ele>141.0</ele><time>2026-03-28T13:01:21.015Z</time></trkpt><trkpt lat="45.42414593599365" lon="8.601315494506705"><ele>140.5</ele><time>2026-03-28T13:01:22.015Z</time></trkpt><trkpt lat="45.424116339244456" lon="8.600986940013197"><ele>140.0</ele><time>2026-03-28T13:01:23.015Z</time></trkpt><trkpt lat="45.42408677682599" lon="8.600656973782598"><ele>140.0</ele><time>2026-03-28T13:01:24.015Z</time></trkpt><trkpt lat="45.42405687285752" lon="8.60032596033468"><ele>140.0</ele><time>2026-03-28T13:01:25.015Z</time></trkpt><trkpt lat="45.42402032610341" lon="8.599990696740706"><ele>140.0</ele><time>2026-03-28T13:01:26.016Z</time></trkpt><trkpt lat="45.42397963038985" lon="8.599655308421044"><ele>140.0</ele><time>2026-03-28T13:01:27.016Z</time></trkpt><trkpt lat="45.42393560128908" lon="8.599319701523568"><ele>138.5</ele><time>2026-03-28T13:01:28.016Z</time></trkpt><trkpt lat="45.423886782821256" lon="8.598980744573339"><ele>137.0</ele><time>2026-03-28T13:01:29.016Z</time></trkpt><trkpt lat="45.423838056787126" lon="8.598643417225254"><ele>137.0</ele><time>2026-03-28T13:01:30.016Z</time></trkpt><trkpt lat="45.42378592146046" lon="8.598308150830873"><ele>137.0</ele><time>2026-03-28T13:01:31.013Z</time></trkpt><trkpt lat="45.42372847252228" lon="8.597975144948652"><ele>138.0</ele><time>2026-03-28T13:01:32.013Z</time></trkpt><trkpt lat="45.42367439799559" lon="8.59764256944631"><ele>139.0</ele><time>2026-03-28T13:01:33.013Z</time></trkpt><trkpt lat="45.42361729033818" lon="8.597314521626334"><ele>138.5</ele><time>2026-03-28T13:01:34.013Z</time></trkpt><trkpt lat="45.423556609118286" lon="8.596994756559376"><ele>138.0</ele><time>2026-03-28T13:01:35.013Z</time></trkpt><trkpt lat="45.42348960089484" lon="8.596671392595503"><ele>138.0</ele><time>2026-03-28T13:01:36.013Z</time></trkpt><trkpt lat="45.42342768818588" lon="8.596349162675681"><ele>138.0</ele><time>2026-03-28T13:01:37.013Z</time></trkpt><trkpt lat="45.42336761311006" lon="8.5960256495353"><ele>137.5</ele><time>2026-03-28T13:01:38.013Z</time></trkpt><trkpt lat="45.42330902543874" lon="8.595705487413325"><ele>137.0</ele><time>2026-03-28T13:01:39.013Z</time></trkpt><trkpt lat="45.42325106123779" lon="8.595386354061196"><ele>136.0</ele><time>2026-03-28T13:01:40.014Z</time></trkpt><trkpt lat="45.42318848399238" lon="8.595067578800382"><ele>135.0</ele><time>2026-03-28T13:01:41.013Z</time></trkpt><trkpt lat="45.423123698879785" lon="8.594748522339675"><ele>134.5</ele><time>2026-03-28T13:01:42.014Z</time></trkpt><trkpt lat="45.423057244787" lon="8.594427896359642"><ele>134.0</ele><time>2026-03-28T13:01:43.013Z</time></trkpt><trkpt lat="45.422990683221975" lon="8.59410558377655"><ele>135.5</ele><time>2026-03-28T13:01:44.013Z</time></trkpt><trkpt lat="45.422922543347205" lon="8.593777629035827"><ele>137.0</ele><time>2026-03-28T13:01:45.013Z</time></trkpt><trkpt lat="45.42285096323668" lon="8.593442567634314"><ele>137.5</ele><time>2026-03-28T13:01:46.013Z</time></trkpt><trkpt lat="45.422792651756644" lon="8.593101537765445"><ele>138.0</ele><time>2026-03-28T13:01:47.014Z</time></trkpt><trkpt lat="45.422723920480806" lon="8.592752920713604"><ele>138.0</ele><time>2026-03-28T13:01:48.014Z</time></trkpt><trkpt lat="45.422650884742716" lon="8.592401761610365"><ele>138.0</ele><time>2026-03-28T13:01:49.014Z</time></trkpt><trkpt lat="45.42257898041054" lon="8.59204512768473"><ele>138.0</ele><time>2026-03-28T13:01:50.014Z</time></trkpt><trkpt lat="45.422504152370884" lon="8.591688878313773"><ele>138.0</ele><time>2026-03-28T13:01:51.014Z</time></trkpt><trkpt lat="45.42243275312973" lon="8.591331714995418"><ele>137.0</ele><time>2026-03-28T13:01:52.014Z</time></trkpt><trkpt lat="45.4223623669162" lon="8.590972134196566"><ele>136.0</ele><time>2026-03-28T13:01:53.014Z</time></trkpt><trkpt lat="45.42229343794184" lon="8.59061523981475"><ele>136.0</ele><time>2026-03-28T13:01:54.014Z</time></trkpt><trkpt lat="45.42222573046799" lon="8.590261404251361"><ele>136.0</ele><time>2026-03-28T13:01:55.014Z</time></trkpt><trkpt lat="45.422156654524926" lon="8.589904845937607"><ele>136.0</ele><time>2026-03-28T13:01:56.014Z</time></trkpt><trkpt lat="45.422088742170494" lon="8.589550445405859"><ele>136.0</ele><time>2026-03-28T13:01:57.014Z</time></trkpt><trkpt lat="45.42202533546421" lon="8.589198112103361"><ele>136.5</ele><time>2026-03-28T13:01:58.014Z</time></trkpt><trkpt lat="45.421964386417955" lon="8.588847532735628"><ele>137.0</ele><time>2026-03-28T13:01:59.014Z</time></trkpt><trkpt lat="45.421901311072645" lon="8.588498029973671"><ele>137.5</ele><time>2026-03-28T13:02:00.014Z</time></trkpt><trkpt lat="45.42183773528531" lon="8.588157488301254"><ele>138.0</ele><time>2026-03-28T13:02:01.014Z</time></trkpt><trkpt lat="45.42177243063421" lon="8.587818451119434"><ele>137.0</ele><time>2026-03-28T13:02:02.014Z</time></trkpt><trkpt lat="45.42170729143704" lon="8.587472287581658"><ele>136.0</ele><time>2026-03-28T13:02:03.014Z</time></trkpt><trkpt lat="45.42164356023641" lon="8.587124015653975"><ele>136.5</ele><time>2026-03-28T13:02:04.014Z</time></trkpt><trkpt lat="45.42157673472447" lon="8.586773973808475"><ele>137.0</ele><time>2026-03-28T13:02:05.014Z</time></trkpt><trkpt lat="45.421508385786886" lon="8.586429646213325"><ele>137.5</ele><time>2026-03-28T13:02:06.014Z</time></trkpt><trkpt lat="45.421437025988276" lon="8.586077373370653"><ele>138.0</ele><time>2026-03-28T13:02:07.014Z</time></trkpt><trkpt lat="45.421364971720855" lon="8.585727650605925"><ele>138.0</ele><time>2026-03-28T13:02:08.014Z</time></trkpt><trkpt lat="45.42129407421562" lon="8.585378018973513"><ele>138.0</ele><time>2026-03-28T13:02:09.014Z</time></trkpt><trkpt lat="45.421225207144204" lon="8.585026145209268"><ele>138.0</ele><time>2026-03-28T13:02:10.014Z</time></trkpt><trkpt lat="45.42115494463489" lon="8.584677014287998"><ele>138.0</ele><time>2026-03-28T13:02:11.014Z</time></trkpt><trkpt lat="45.42108561962821" lon="8.584325206134597"><ele>138.0</ele><time>2026-03-28T13:02:12.014Z</time></trkpt><trkpt lat="45.42101886174307" lon="8.58397366656591"><ele>138.0</ele><time>2026-03-28T13:02:13.014Z</time></trkpt><trkpt lat="45.42095111217184" lon="8.58362369459206"><ele>138.0</ele><time>2026-03-28T13:02:14.014Z</time></trkpt><trkpt lat="45.420881243999126" lon="8.58327834618852"><ele>138.0</ele><time>2026-03-28T13:02:15.014Z</time></trkpt><trkpt lat="45.42081209536693" lon="8.582935207780263"><ele>137.5</ele><time>2026-03-28T13:02:16.014Z</time></trkpt><trkpt lat="45.42074379645519" lon="8.582594408273303"><ele>137.0</ele><time>2026-03-28T13:02:17.014Z</time></trkpt><trkpt lat="45.420676865348305" lon="8.582253477103276"><ele>137.5</ele><time>2026-03-28T13:02:18.014Z</time></trkpt><trkpt lat="45.42061232916761" lon="8.581911382951393"><ele>138.0</ele><time>2026-03-28T13:02:19.014Z</time></trkpt><trkpt lat="45.42054669355757" lon="8.581569813807125"><ele>138.0</ele><time>2026-03-28T13:02:20.015Z</time></trkpt><trkpt lat="45.42048081084432" lon="8.58122877546332"><ele>138.0</ele><time>2026-03-28T13:02:21.015Z</time></trkpt><trkpt lat="45.420412765274044" lon="8.580889118796227"><ele>138.0</ele><time>2026-03-28T13:02:22.015Z</time></trkpt><trkpt lat="45.420344870941264" lon="8.580552618070977"><ele>138.0</ele><time>2026-03-28T13:02:23.015Z</time></trkpt><trkpt lat="45.42027592772683" lon="8.580218486524528"><ele>138.0</ele><time>2026-03-28T13:02:24.015Z</time></trkpt><trkpt lat="45.420210116915065" lon="8.579890213851188"><ele>138.0</ele><time>2026-03-28T13:02:25.015Z</time></trkpt><trkpt lat="45.42014633908628" lon="8.579561871353228"><ele>138.5</ele><time>2026-03-28T13:02:26.015Z</time></trkpt><trkpt lat="45.420084131001275" lon="8.579240382168761"><ele>139.0</ele><time>2026-03-28T13:02:27.015Z</time></trkpt><trkpt lat="45.42002456927607" lon="8.578923207623001"><ele>139.0</ele><time>2026-03-28T13:02:28.015Z</time></trkpt><trkpt lat="45.41996520218007" lon="8.578606757078008"><ele>139.0</ele><time>2026-03-28T13:02:29.015Z</time></trkpt><trkpt lat="45.419906832203345" lon="8.578293361811703"><ele>139.0</ele><time>2026-03-28T13:02:30.015Z</time></trkpt><trkpt lat="45.419850650021" lon="8.577985919295468"><ele>139.0</ele><time>2026-03-28T13:02:31.015Z</time></trkpt><trkpt lat="45.41979397279762" lon="8.57768651785543"><ele>139.0</ele><time>2026-03-28T13:02:32.015Z</time></trkpt><trkpt lat="45.419737406162284" lon="8.577391842898331"><ele>139.0</ele><time>2026-03-28T13:02:33.015Z</time></trkpt><trkpt lat="45.419683905091475" lon="8.577104379345483"><ele>139.0</ele><time>2026-03-28T13:02:34.015Z</time></trkpt><trkpt lat="45.41963169523671" lon="8.57682337133708"><ele>139.0</ele><time>2026-03-28T13:02:35.015Z</time></trkpt><trkpt lat="45.41957981667897" lon="8.576550569479748"><ele>139.33333333333334</ele><time>2026-03-28T13:02:36.015Z</time></trkpt><trkpt lat="45.41952879018349" lon="8.576283256123098"><ele>139.66666666666666</ele><time>2026-03-28T13:02:37.015Z</time></trkpt><trkpt lat="45.41947531372955" lon="8.57602413596806"><ele>140.0</ele><time>2026-03-28T13:02:38.015Z</time></trkpt><trkpt lat="45.41942525052051" lon="8.575767421095565"><ele>140.0</ele><time>2026-03-28T13:02:39.015Z</time></trkpt><trkpt lat="45.419375922016165" lon="8.575521185617115"><ele>140.0</ele><time>2026-03-28T13:02:40.015Z</time></trkpt><trkpt lat="45.419329710911846" lon="8.575280070576303"><ele>140.0</ele><time>2026-03-28T13:02:41.015Z</time></trkpt><trkpt lat="45.41928805528606" lon="8.575038112555415"><ele>139.66666666666666</ele><time>2026-03-28T13:02:42.015Z</time></trkpt><trkpt lat="45.419251457086155" lon="8.5747951830749"><ele>139.33333333333334</ele><time>2026-03-28T13:02:43.015Z</time></trkpt><trkpt lat="45.419223324199436" lon="8.574553303961242"><ele>139.0</ele><time>2026-03-28T13:02:44.015Z</time></trkpt><trkpt lat="45.41921122684978" lon="8.574305958093742"><ele>138.66666666666669</ele><time>2026-03-28T13:02:45.015Z</time></trkpt><trkpt lat="45.419211591681034" lon="8.574064738679171"><ele>138.33333333333334</ele><time>2026-03-28T13:02:46.015Z</time></trkpt><trkpt lat="45.41922216951941" lon="8.573838089894535"><ele>138.0</ele><time>2026-03-28T13:02:47.015Z</time></trkpt><trkpt lat="45.41923119398035" lon="8.573619746508488"><ele>138.0</ele><time>2026-03-28T13:02:48.015Z</time></trkpt><trkpt lat="45.41924316741955" lon="8.573410343515574"><ele>138.0</ele><time>2026-03-28T13:02:49.015Z</time></trkpt><trkpt lat="45.41925867311094" lon="8.573206648693345"><ele>138.0</ele><time>2026-03-28T13:02:50.015Z</time></trkpt><trkpt lat="45.41927762272522" lon="8.573008758946953"><ele>138.0</ele><time>2026-03-28T13:02:51.015Z</time></trkpt><trkpt lat="45.41930275249585" lon="8.572816827140487"><ele>137.75</ele><time>2026-03-28T13:02:52.015Z</time></trkpt><trkpt lat="45.41933386568014" lon="8.572629339829483"><ele>137.5</ele><time>2026-03-28T13:02:53.016Z</time></trkpt><trkpt lat="45.41936998529677" lon="8.572444062429597"><ele>137.25</ele><time>2026-03-28T13:02:54.016Z</time></trkpt><trkpt lat="45.41940528996721" lon="8.572272817811344"><ele>137.0</ele><time>2026-03-28T13:02:55.016Z</time></trkpt><trkpt lat="45.41944526685964" lon="8.572114422804066"><ele>137.0</ele><time>2026-03-28T13:02:56.016Z</time></trkpt><trkpt lat="45.419486647054505" lon="8.571972002045593"><ele>137.0</ele><time>2026-03-28T13:02:57.016Z</time></trkpt><trkpt lat="45.419535451756474" lon="8.571838650388486"><ele>137.0</ele><time>2026-03-28T13:02:58.016Z</time></trkpt><trkpt lat="45.419601275447846" lon="8.571709782074016"><ele>137.0</ele><time>2026-03-28T13:02:59.016Z</time></trkpt><trkpt lat="45.41967398071205" lon="8.571572479612971"><ele>137.0</ele><time>2026-03-28T13:03:00.016Z</time></trkpt><trkpt lat="45.419741676489835" lon="8.571408984657342"><ele>137.0</ele><time>2026-03-28T13:03:01.016Z</time></trkpt><trkpt lat="45.41977674571072" lon="8.57122265690666"><ele>137.0</ele><time>2026-03-28T13:03:02.016Z</time></trkpt><trkpt lat="45.419764969144346" lon="8.571035007969368"><ele>137.0</ele><time>2026-03-28T13:03:03.016Z</time></trkpt><trkpt lat="45.41971747229771" lon="8.570875337730378"><ele>137.0</ele><time>2026-03-28T13:03:04.016Z</time></trkpt><trkpt lat="45.41964357639152" lon="8.57073125262014"><ele>137.0</ele><time>2026-03-28T13:03:05.016Z</time></trkpt><trkpt lat="45.4195440589132" lon="8.570619006165076"><ele>137.0</ele><time>2026-03-28T13:03:06.016Z</time></trkpt><trkpt lat="45.419423736881576" lon="8.570554356318393"><ele>137.0</ele><time>2026-03-28T13:03:07.016Z</time></trkpt><trkpt lat="45.41928953079775" lon="8.570533840292553"><ele>137.0</ele><time>2026-03-28T13:03:08.016Z</time></trkpt><trkpt lat="45.41915219205154" lon="8.570557864582987"><ele>137.0</ele><time>2026-03-28T13:03:09.016Z</time></trkpt><trkpt lat="45.419015499116725" lon="8.570588635646647"><ele>137.0</ele><time>2026-03-28T13:03:10.016Z</time></trkpt><trkpt lat="45.418879124676145" lon="8.570566677398853"><ele>137.0</ele><time>2026-03-28T13:03:11.016Z</time></trkpt><trkpt lat="45.4187571480951" lon="8.570480431762663"><ele>137.0</ele><time>2026-03-28T13:03:12.016Z</time></trkpt><trkpt lat="45.41863823771208" lon="8.570341543705846"><ele>137.66666666666666</ele><time>2026-03-28T13:03:13.016Z</time></trkpt><trkpt lat="45.41852289219808" lon="8.57017556783483"><ele>138.33333333333334</ele><time>2026-03-28T13:03:14.016Z</time></trkpt><trkpt lat="45.418398206254516" lon="8.569993527841593"><ele>139.0</ele><time>2026-03-28T13:03:15.016Z</time></trkpt><trkpt lat="45.418263607722764" lon="8.56981202313115"><ele>139.0</ele><time>2026-03-28T13:03:16.016Z</time></trkpt><trkpt lat="45.41811888501572" lon="8.569624128728814"><ele>139.0</ele><time>2026-03-28T13:03:17.016Z</time></trkpt><trkpt lat="45.41796767597356" lon="8.569428428527855"><ele>139.0</ele><time>2026-03-28T13:03:18.016Z</time></trkpt><trkpt lat="45.417818776194295" lon="8.569234099613608"><ele>139.33333333333334</ele><time>2026-03-28T13:03:19.016Z</time></trkpt><trkpt lat="45.41766518781322" lon="8.569038009999465"><ele>139.66666666666666</ele><time>2026-03-28T13:03:20.016Z</time></trkpt><trkpt lat="45.41750894716973" lon="8.56883388558197"><ele>140.0</ele><time>2026-03-28T13:03:21.016Z</time></trkpt><trkpt lat="45.41735010547106" lon="8.568622105362387"><ele>140.0</ele><time>2026-03-28T13:03:22.016Z</time></trkpt><trkpt lat="45.41718766525363" lon="8.5684062483517"><ele>140.0</ele><time>2026-03-28T13:03:23.016Z</time></trkpt><trkpt lat="45.41702211113941" lon="8.568189199860369"><ele>140.0</ele><time>2026-03-28T13:03:24.016Z</time></trkpt><trkpt lat="45.41685369307975" lon="8.567972730979852"><ele>139.5</ele><time>2026-03-28T13:03:25.016Z</time></trkpt><trkpt lat="45.41668389984799" lon="8.56775045049598"><ele>139.0</ele><time>2026-03-28T13:03:26.016Z</time></trkpt><trkpt lat="45.41651250919705" lon="8.567525893312864"><ele>139.0</ele><time>2026-03-28T13:03:27.017Z</time></trkpt><trkpt lat="45.416340661103156" lon="8.567301532440482"><ele>139.0</ele><time>2026-03-28T13:03:28.017Z</time></trkpt><trkpt lat="45.41616353642705" lon="8.567075123236867"><ele>140.0</ele><time>2026-03-28T13:03:29.017Z</time></trkpt><trkpt lat="45.41598634271915" lon="8.566846027595806"><ele>141.0</ele><time>2026-03-28T13:03:30.017Z</time></trkpt><trkpt lat="45.41581183920945" lon="8.56661642438337"><ele>141.0</ele><time>2026-03-28T13:03:31.017Z</time></trkpt><trkpt lat="45.41563753860264" lon="8.566386297630869"><ele>141.0</ele><time>2026-03-28T13:03:32.017Z</time></trkpt><trkpt lat="45.415462743820015" lon="8.566154273983452"><ele>140.5</ele><time>2026-03-28T13:03:33.017Z</time></trkpt><trkpt lat="45.41528694780361" lon="8.565920058762037"><ele>140.0</ele><time>2026-03-28T13:03:34.017Z</time></trkpt><trkpt lat="45.41510994098158" lon="8.565685705923284"><ele>140.0</ele><time>2026-03-28T13:03:35.017Z</time></trkpt><trkpt lat="45.414931710045565" lon="8.565453214558625"><ele>140.0</ele><time>2026-03-28T13:03:36.017Z</time></trkpt><trkpt lat="45.414755177455476" lon="8.565218431421092"><ele>139.5</ele><time>2026-03-28T13:03:37.015Z</time></trkpt><trkpt lat="45.41457529114476" lon="8.564984683215803"><ele>139.0</ele><time>2026-03-28T13:03:38.016Z</time></trkpt><trkpt lat="45.41439546808257" lon="8.564749222881888"><ele>139.0</ele><time>2026-03-28T13:03:39.016Z</time></trkpt><trkpt lat="45.41421567167205" lon="8.56451548371365"><ele>139.0</ele><time>2026-03-28T13:03:40.015Z</time></trkpt><trkpt lat="45.41403507217956" lon="8.564279222606903"><ele>139.0</ele><time>2026-03-28T13:03:41.015Z</time></trkpt><trkpt lat="45.413854754532075" lon="8.56404166010065"><ele>139.0</ele><time>2026-03-28T13:03:42.015Z</time></trkpt><trkpt lat="45.41367564320448" lon="8.563799254836738"><ele>139.5</ele><time>2026-03-28T13:03:43.015Z</time></trkpt><trkpt lat="45.41349834976542" lon="8.563554153397817"><ele>140.0</ele><time>2026-03-28T13:03:44.015Z</time></trkpt><trkpt lat="45.41331987354727" lon="8.563314886426474"><ele>140.0</ele><time>2026-03-28T13:03:45.015Z</time></trkpt><trkpt lat="45.413138701115805" lon="8.563077319597491"><ele>140.0</ele><time>2026-03-28T13:03:46.016Z</time></trkpt><trkpt lat="45.41295265836163" lon="8.56284665942207"><ele>139.0</ele><time>2026-03-28T13:03:47.015Z</time></trkpt><trkpt lat="45.412765573277326" lon="8.562611008077214"><ele>138.0</ele><time>2026-03-28T13:03:48.015Z</time></trkpt><trkpt lat="45.41258116103424" lon="8.562374578723594"><ele>138.0</ele><time>2026-03-28T13:03:49.016Z</time></trkpt><trkpt lat="45.412401499183034" lon="8.562139466257129"><ele>138.0</ele><time>2026-03-28T13:03:50.015Z</time></trkpt><trkpt lat="45.4122220686091" lon="8.561907130349903"><ele>137.5</ele><time>2026-03-28T13:03:51.015Z</time></trkpt><trkpt lat="45.412046372792815" lon="8.56167714326582"><ele>137.0</ele><time>2026-03-28T13:03:52.015Z</time></trkpt><trkpt lat="45.4118709314049" lon="8.561453603088781"><ele>137.0</ele><time>2026-03-28T13:03:53.015Z</time></trkpt><trkpt lat="45.411696591125015" lon="8.561231801834154"><ele>137.0</ele><time>2026-03-28T13:03:54.015Z</time></trkpt><trkpt lat="45.411525075134726" lon="8.561004863329412"><ele>137.0</ele><time>2026-03-28T13:03:55.015Z</time></trkpt><trkpt lat="45.411355245850245" lon="8.560778598178086"><ele>137.0</ele><time>2026-03-28T13:03:56.015Z</time></trkpt><trkpt lat="45.41118353294158" lon="8.560552199755707"><ele>137.5</ele><time>2026-03-28T13:03:57.015Z</time></trkpt><trkpt lat="45.41101073487834" lon="8.560330089452108"><ele>138.0</ele><time>2026-03-28T13:03:58.016Z</time></trkpt><trkpt lat="45.410838929556405" lon="8.560108125286314"><ele>138.0</ele><time>2026-03-28T13:03:59.016Z</time></trkpt><trkpt lat="45.410667719644884" lon="8.559883638640033"><ele>138.0</ele><time>2026-03-28T13:04:00.016Z</time></trkpt><trkpt lat="45.41049798032451" lon="8.559655954599664"><ele>138.0</ele><time>2026-03-28T13:04:01.016Z</time></trkpt><trkpt lat="45.41032785427244" lon="8.559427721024571"><ele>138.0</ele><time>2026-03-28T13:04:02.016Z</time></trkpt><trkpt lat="45.410156796749334" lon="8.559199458797226"><ele>138.0</ele><time>2026-03-28T13:04:03.016Z</time></trkpt><trkpt lat="45.40998526541723" lon="8.558975342935028"><ele>138.0</ele><time>2026-03-28T13:04:04.016Z</time></trkpt><trkpt lat="45.40981610182256" lon="8.558753745424038"><ele>138.0</ele><time>2026-03-28T13:04:05.016Z</time></trkpt><trkpt lat="45.40964626320895" lon="8.558534688517554"><ele>138.0</ele><time>2026-03-28T13:04:06.016Z</time></trkpt><trkpt lat="45.40947789864073" lon="8.558313982616443"><ele>138.0</ele><time>2026-03-28T13:04:07.016Z</time></trkpt><trkpt lat="45.409307456364026" lon="8.558091429903415"><ele>138.0</ele><time>2026-03-28T13:04:08.016Z</time></trkpt><trkpt lat="45.409139362256816" lon="8.557870352332127"><ele>138.0</ele><time>2026-03-28T13:04:09.016Z</time></trkpt><trkpt lat="45.40896979101485" lon="8.557653734961955"><ele>138.0</ele><time>2026-03-28T13:04:10.016Z</time></trkpt><trkpt lat="45.40880585003738" lon="8.55744085142073"><ele>138.0</ele><time>2026-03-28T13:04:11.016Z</time></trkpt><trkpt lat="45.408641889296504" lon="8.557230191578201"><ele>138.0</ele><time>2026-03-28T13:04:12.016Z</time></trkpt><trkpt lat="45.40847516027137" lon="8.557021206824782"><ele>138.0</ele><time>2026-03-28T13:04:13.016Z</time></trkpt><trkpt lat="45.40830964623133" lon="8.556810626971549"><ele>138.0</ele><time>2026-03-28T13:04:14.016Z</time></trkpt><trkpt lat="45.40814608537503" lon="8.556594821627607"><ele>138.0</ele><time>2026-03-28T13:04:15.016Z</time></trkpt><trkpt lat="45.40798221405818" lon="8.556377950117888"><ele>138.0</ele><time>2026-03-28T13:04:16.016Z</time></trkpt><trkpt lat="45.40781322296471" lon="8.556160462847716"><ele>138.0</ele><time>2026-03-28T13:04:17.016Z</time></trkpt><trkpt lat="45.40764566690937" lon="8.555939040442256"><ele>138.0</ele><time>2026-03-28T13:04:18.016Z</time></trkpt><trkpt lat="45.40747802388657" lon="8.555713072523757"><ele>138.0</ele><time>2026-03-28T13:04:19.016Z</time></trkpt><trkpt lat="45.40730874521076" lon="8.555484778052893"><ele>138.0</ele><time>2026-03-28T13:04:20.016Z</time></trkpt><trkpt lat="45.407141243293275" lon="8.555259288281434"><ele>138.0</ele><time>2026-03-28T13:04:21.016Z</time></trkpt><trkpt lat="45.4069708672623" lon="8.555033320827276"><ele>138.0</ele><time>2026-03-28T13:04:22.016Z</time></trkpt><trkpt lat="45.40680163308098" lon="8.55481259513346"><ele>138.0</ele><time>2026-03-28T13:04:23.016Z</time></trkpt><trkpt lat="45.40663430927334" lon="8.554590949685721"><ele>138.0</ele><time>2026-03-28T13:04:24.016Z</time></trkpt><trkpt lat="45.40646599747172" lon="8.554366880921275"><ele>138.0</ele><time>2026-03-28T13:04:25.016Z</time></trkpt><trkpt lat="45.40629819615279" lon="8.55414258866113"><ele>138.0</ele><time>2026-03-28T13:04:26.016Z</time></trkpt><trkpt lat="45.40612925307312" lon="8.553918698420931"><ele>137.5</ele><time>2026-03-28T13:04:27.016Z</time></trkpt><trkpt lat="45.40595918284161" lon="8.553696279641384"><ele>137.0</ele><time>2026-03-28T13:04:28.016Z</time></trkpt><trkpt lat="45.405787355950984" lon="8.553470834457794"><ele>137.0</ele><time>2026-03-28T13:04:29.016Z</time></trkpt><trkpt lat="45.40561516712786" lon="8.553246823284738"><ele>137.0</ele><time>2026-03-28T13:04:30.016Z</time></trkpt><trkpt lat="45.40544196786395" lon="8.55302294993306"><ele>136.5</ele><time>2026-03-28T13:04:31.017Z</time></trkpt><trkpt lat="45.40526840341038" lon="8.552796960268736"><ele>136.0</ele><time>2026-03-28T13:04:32.017Z</time></trkpt><trkpt lat="45.40509723489102" lon="8.552569340605588"><ele>136.0</ele><time>2026-03-28T13:04:33.017Z</time></trkpt><trkpt lat="45.40493112856697" lon="8.552341297212749"><ele>136.0</ele><time>2026-03-28T13:04:34.017Z</time></trkpt><trkpt lat="45.40476877593369" lon="8.552104032402488"><ele>136.5</ele><time>2026-03-28T13:04:35.017Z</time></trkpt><trkpt lat="45.404610344478975" lon="8.551865611344715"><ele>137.0</ele><time>2026-03-28T13:04:36.017Z</time></trkpt><trkpt lat="45.404454354226836" lon="8.551627631708598"><ele>137.0</ele><time>2026-03-28T13:04:37.017Z</time></trkpt><trkpt lat="45.40430188984681" lon="8.55139224908183"><ele>137.0</ele><time>2026-03-28T13:04:38.017Z</time></trkpt><trkpt lat="45.40415009300223" lon="8.551159883267601"><ele>137.0</ele><time>2026-03-28T13:04:39.017Z</time></trkpt><trkpt lat="45.40400368774185" lon="8.550931350274562"><ele>137.0</ele><time>2026-03-28T13:04:40.017Z</time></trkpt><trkpt lat="45.40385958094699" lon="8.550713541220942"><ele>137.0</ele><time>2026-03-28T13:04:41.017Z</time></trkpt><trkpt lat="45.40372196687913" lon="8.550501698910368"><ele>137.0</ele><time>2026-03-28T13:04:42.017Z</time></trkpt><trkpt lat="45.403593959961825" lon="8.550303111166093"><ele>137.0</ele><time>2026-03-28T13:04:43.017Z</time></trkpt><trkpt lat="45.40347008790895" lon="8.550112239098658"><ele>137.0</ele><time>2026-03-28T13:04:44.017Z</time></trkpt><trkpt lat="45.403352164948785" lon="8.549927491420993"><ele>137.0</ele><time>2026-03-28T13:04:45.017Z</time></trkpt><trkpt lat="45.403245504580404" lon="8.549755653796353"><ele>137.0</ele><time>2026-03-28T13:04:46.017Z</time></trkpt><trkpt lat="45.40314807704584" lon="8.549597478546314"><ele>137.0</ele><time>2026-03-28T13:04:47.017Z</time></trkpt><trkpt lat="45.403056424985145" lon="8.549450935570452"><ele>137.0</ele><time>2026-03-28T13:04:48.017Z</time></trkpt><trkpt lat="45.402967876054454" lon="8.549310591541632"><ele>137.0</ele><time>2026-03-28T13:04:49.017Z</time></trkpt><trkpt lat="45.40287479808941" lon="8.549166861693"><ele>136.75</ele><time>2026-03-28T13:04:50.017Z</time></trkpt><trkpt lat="45.40277738025576" lon="8.549017505790673"><ele>136.5</ele><time>2026-03-28T13:04:51.017Z</time></trkpt><trkpt lat="45.4026762722273" lon="8.54886202486169"><ele>136.25</ele><time>2026-03-28T13:04:52.017Z</time></trkpt><trkpt lat="45.402572515896544" lon="8.548700311153926"><ele>136.0</ele><time>2026-03-28T13:04:53.017Z</time></trkpt><trkpt lat="45.40246602386603" lon="8.548535205168717"><ele>136.0</ele><time>2026-03-28T13:04:54.017Z</time></trkpt><trkpt lat="45.40235579889508" lon="8.548366312885788"><ele>136.0</ele><time>2026-03-28T13:04:55.017Z</time></trkpt><trkpt lat="45.40224178304126" lon="8.548195328512277"><ele>136.0</ele><time>2026-03-28T13:04:56.017Z</time></trkpt><trkpt lat="45.4021252872936" lon="8.548021936844007"><ele>135.66666666666669</ele><time>2026-03-28T13:04:57.017Z</time></trkpt><trkpt lat="45.402005646760124" lon="8.54784702979768"><ele>135.33333333333334</ele><time>2026-03-28T13:04:58.017Z</time></trkpt><trkpt lat="45.40188221365621" lon="8.547668118305637"><ele>135.0</ele><time>2026-03-28T13:04:59.017Z</time></trkpt><trkpt lat="45.40175573965981" lon="8.547481505469149"><ele>135.0</ele><time>2026-03-28T13:05:00.017Z</time></trkpt><trkpt lat="45.40162734856956" lon="8.547278706112495"><ele>135.0</ele><time>2026-03-28T13:05:01.017Z</time></trkpt><trkpt lat="45.401492228301805" lon="8.547063695477016"><ele>135.0</ele><time>2026-03-28T13:05:02.017Z</time></trkpt><trkpt lat="45.401351281217444" lon="8.546842879562453"><ele>135.33333333333334</ele><time>2026-03-28T13:05:03.017Z</time></trkpt><trkpt lat="45.40121036901175" lon="8.546614628543036"><ele>135.66666666666669</ele><time>2026-03-28T13:05:04.018Z</time></trkpt><trkpt lat="45.40107442956377" lon="8.546388751216373"><ele>136.0</ele><time>2026-03-28T13:05:05.018Z</time></trkpt><trkpt lat="45.400946827973634" lon="8.54617279993896"><ele>136.33333333333334</ele><time>2026-03-28T13:05:06.018Z</time></trkpt><trkpt lat="45.40082223134292" lon="8.545969365464828"><ele>136.66666666666666</ele><time>2026-03-28T13:05:07.018Z</time></trkpt><trkpt lat="45.40069821378924" lon="8.5457748328019"><ele>137.0</ele><time>2026-03-28T13:05:08.018Z</time></trkpt><trkpt lat="45.400577092071934" lon="8.545588045316562"><ele>137.0</ele><time>2026-03-28T13:05:09.018Z</time></trkpt><trkpt lat="45.40046039603966" lon="8.54540923155098"><ele>137.0</ele><time>2026-03-28T13:05:10.018Z</time></trkpt><trkpt lat="45.400349753912394" lon="8.5452385931295"><ele>137.0</ele><time>2026-03-28T13:05:11.018Z</time></trkpt><trkpt lat="45.4002459569911" lon="8.545076300071745"><ele>137.0</ele><time>2026-03-28T13:05:12.018Z</time></trkpt><trkpt lat="45.40014893031467" lon="8.5449215724209"><ele>137.0</ele><time>2026-03-28T13:05:13.018Z</time></trkpt><trkpt lat="45.40005443668529" lon="8.544775013266205"><ele>137.0</ele><time>2026-03-28T13:05:14.018Z</time></trkpt><trkpt lat="45.39996395173008" lon="8.54463682528912"><ele>137.0</ele><time>2026-03-28T13:05:15.018Z</time></trkpt><trkpt lat="45.39987555663792" lon="8.544507394143004"><ele>137.0</ele><time>2026-03-28T13:05:16.018Z</time></trkpt><trkpt lat="45.3997967979188" lon="8.544388781619489"><ele>137.0</ele><time>2026-03-28T13:05:17.018Z</time></trkpt><trkpt lat="45.39972517748719" lon="8.544275120512681"><ele>137.0</ele><time>2026-03-28T13:05:18.018Z</time></trkpt><trkpt lat="45.39965736765665" lon="8.544163904371462"><ele>137.0</ele><time>2026-03-28T13:05:19.018Z</time></trkpt><trkpt lat="45.399586345521506" lon="8.544047117863757"><ele>137.0</ele><time>2026-03-28T13:05:20.018Z</time></trkpt><trkpt lat="45.39951018543072" lon="8.543928707678702"><ele>137.0</ele><time>2026-03-28T13:05:21.018Z</time></trkpt><trkpt lat="45.39943160290927" lon="8.54381048629551"><ele>137.0</ele><time>2026-03-28T13:05:22.018Z</time></trkpt><trkpt lat="45.39935168034347" lon="8.54369013367369"><ele>137.0</ele><time>2026-03-28T13:05:23.018Z</time></trkpt><trkpt lat="45.399272782573284" lon="8.543570041951588"><ele>137.0</ele><time>2026-03-28T13:05:24.018Z</time></trkpt><trkpt lat="45.39919214925464" lon="8.54344905706359"><ele>137.25</ele><time>2026-03-28T13:05:25.018Z</time></trkpt><trkpt lat="45.399110091265506" lon="8.543325777306874"><ele>137.5</ele><time>2026-03-28T13:05:26.018Z</time></trkpt><trkpt lat="45.399025148780474" lon="8.543195806657238"><ele>137.75</ele><time>2026-03-28T13:05:27.018Z</time></trkpt><trkpt lat="45.39893653302281" lon="8.543060317230516"><ele>138.0</ele><time>2026-03-28T13:05:28.018Z</time></trkpt><trkpt lat="45.39884184170178" lon="8.542921533371578"><ele>137.75</ele><time>2026-03-28T13:05:29.018Z</time></trkpt><trkpt lat="45.39874397467741" lon="8.542774150884107"><ele>137.5</ele><time>2026-03-28T13:05:30.018Z</time></trkpt><trkpt lat="45.39864389305857" lon="8.542618608831985"><ele>137.25</ele><time>2026-03-28T13:05:31.018Z</time></trkpt><trkpt lat="45.398548973022535" lon="8.542458750267633"><ele>137.0</ele><time>2026-03-28T13:05:32.018Z</time></trkpt><trkpt lat="45.398455991951515" lon="8.542304661864511"><ele>137.0</ele><time>2026-03-28T13:05:33.018Z</time></trkpt><trkpt lat="45.398363415056814" lon="8.542147301746356"><ele>137.0</ele><time>2026-03-28T13:05:34.018Z</time></trkpt><trkpt lat="45.398261475619194" lon="8.541993711114301"><ele>137.0</ele><time>2026-03-28T13:05:35.018Z</time></trkpt><trkpt lat="45.398160764600334" lon="8.541833906116896"><ele>137.0</ele><time>2026-03-28T13:05:36.018Z</time></trkpt><trkpt lat="45.39806075447493" lon="8.54167682573855"><ele>137.25</ele><time>2026-03-28T13:05:37.018Z</time></trkpt><trkpt lat="45.39796551343471" lon="8.541515857430522"><ele>137.5</ele><time>2026-03-28T13:05:38.019Z</time></trkpt><trkpt lat="45.397887524481554" lon="8.541346401615437"><ele>137.75</ele><time>2026-03-28T13:05:39.019Z</time></trkpt><trkpt lat="45.397815669740815" lon="8.541172033089785"><ele>138.0</ele><time>2026-03-28T13:05:40.019Z</time></trkpt><trkpt lat="45.39774656761512" lon="8.540993570419905"><ele>138.0</ele><time>2026-03-28T13:05:41.019Z</time></trkpt><trkpt lat="45.39767799899225" lon="8.540815579224992"><ele>138.0</ele><time>2026-03-28T13:05:42.019Z</time></trkpt><trkpt lat="45.39761073849552" lon="8.540639225319849"><ele>138.0</ele><time>2026-03-28T13:05:43.017Z</time></trkpt><trkpt lat="45.39754071004086" lon="8.540466390523855"><ele>138.0</ele><time>2026-03-28T13:05:44.017Z</time></trkpt><trkpt lat="45.39747036702253" lon="8.540295741351073"><ele>137.75</ele><time>2026-03-28T13:05:45.017Z</time></trkpt><trkpt lat="45.39740151091406" lon="8.540130501766576"><ele>137.5</ele><time>2026-03-28T13:05:46.017Z</time></trkpt><trkpt lat="45.397334407489396" lon="8.539971135171452"><ele>137.25</ele><time>2026-03-28T13:05:47.017Z</time></trkpt><trkpt lat="45.39726996684481" lon="8.539817656741658"><ele>137.0</ele><time>2026-03-28T13:05:48.017Z</time></trkpt><trkpt lat="45.397203883369464" lon="8.539663947108371"><ele>138.0</ele><time>2026-03-28T13:05:49.017Z</time></trkpt><trkpt lat="45.39714028417804" lon="8.53951530909259"><ele>139.0</ele><time>2026-03-28T13:05:50.018Z</time></trkpt><trkpt lat="45.39707902092003" lon="8.53937060881331"><ele>140.0</ele><time>2026-03-28T13:05:51.018Z</time></trkpt><trkpt lat="45.397016967257464" lon="8.539226649690415"><ele>141.0</ele><time>2026-03-28T13:05:52.017Z</time></trkpt><trkpt lat="45.396956790575544" lon="8.53908388130528"><ele>141.0</ele><time>2026-03-28T13:05:53.018Z</time></trkpt><trkpt lat="45.39690081745086" lon="8.538950061951036"><ele>141.0</ele><time>2026-03-28T13:05:54.018Z</time></trkpt><trkpt lat="45.39686245411575" lon="8.538810679045087"><ele>141.0</ele><time>2026-03-28T13:05:55.017Z</time></trkpt><trkpt lat="45.39683583303986" lon="8.538659572673406"><ele>141.0</ele><time>2026-03-28T13:05:56.017Z</time></trkpt><trkpt lat="45.396826414942744" lon="8.53849172762395"><ele>141.0</ele><time>2026-03-28T13:05:57.018Z</time></trkpt><trkpt lat="45.39683039881412" lon="8.53831241470033"><ele>141.0</ele><time>2026-03-28T13:05:58.018Z</time></trkpt><trkpt lat="45.39682529439607" lon="8.538127553803031"><ele>141.0</ele><time>2026-03-28T13:05:59.018Z</time></trkpt><trkpt lat="45.39682031476576" lon="8.537941154985258"><ele>141.0</ele><time>2026-03-28T13:06:00.018Z</time></trkpt><trkpt lat="45.39682092267103" lon="8.537751753251886"><ele>141.0</ele><time>2026-03-28T13:06:01.018Z</time></trkpt><trkpt lat="45.39682198639973" lon="8.537559091835934"><ele>141.0</ele><time>2026-03-28T13:06:02.018Z</time></trkpt><trkpt lat="45.39682187460783" lon="8.537367112213028"><ele>141.0</ele><time>2026-03-28T13:06:03.018Z</time></trkpt><trkpt lat="45.39682391796309" lon="8.537171921405854"><ele>141.0</ele><time>2026-03-28T13:06:04.018Z</time></trkpt><trkpt lat="45.396824117775424" lon="8.536975409474087"><ele>141.0</ele><time>2026-03-28T13:06:05.018Z</time></trkpt><trkpt lat="45.396822218623136" lon="8.536782305138962"><ele>141.0</ele><time>2026-03-28T13:06:06.018Z</time></trkpt><trkpt lat="45.396818424688774" lon="8.536589765772039"><ele>141.0</ele><time>2026-03-28T13:06:07.018Z</time></trkpt><trkpt lat="45.39680750978256" lon="8.536402285089217"><ele>141.0</ele><time>2026-03-28T13:06:08.018Z</time></trkpt><trkpt lat="45.39679323595028" lon="8.53621255165864"><ele>141.0</ele><time>2026-03-28T13:06:09.018Z</time></trkpt><trkpt lat="45.39675335277771" lon="8.5360280969364"><ele>141.0</ele><time>2026-03-28T13:06:10.018Z</time></trkpt><trkpt lat="45.396707342546016" lon="8.53584300681129"><ele>141.0</ele><time>2026-03-28T13:06:11.018Z</time></trkpt><trkpt lat="45.396657084825826" lon="8.53565512935571"><ele>141.0</ele><time>2026-03-28T13:06:12.018Z</time></trkpt><trkpt lat="45.39660965978596" lon="8.535466103191329"><ele>141.0</ele><time>2026-03-28T13:06:13.018Z</time></trkpt><trkpt lat="45.39656467041056" lon="8.53527255613398"><ele>141.25</ele><time>2026-03-28T13:06:14.018Z</time></trkpt><trkpt lat="45.39651577150898" lon="8.5350781859063"><ele>141.5</ele><time>2026-03-28T13:06:15.018Z</time></trkpt><trkpt lat="45.396459878379936" lon="8.534881039083814"><ele>141.75</ele><time>2026-03-28T13:06:16.018Z</time></trkpt><trkpt lat="45.39640344969401" lon="8.534676334279691"><ele>142.0</ele><time>2026-03-28T13:06:17.018Z</time></trkpt><trkpt lat="45.39635627146099" lon="8.534466917820541"><ele>141.0</ele><time>2026-03-28T13:06:18.018Z</time></trkpt><trkpt lat="45.39630922482186" lon="8.53426107512745"><ele>140.0</ele><time>2026-03-28T13:06:19.018Z</time></trkpt><trkpt lat="45.39626066640331" lon="8.534049052963745"><ele>139.0</ele><time>2026-03-28T13:06:20.018Z</time></trkpt><trkpt lat="45.3962063565507" lon="8.533845790888494"><ele>139.0</ele><time>2026-03-28T13:06:21.018Z</time></trkpt><trkpt lat="45.39614552041858" lon="8.533639490356016"><ele>139.0</ele><time>2026-03-28T13:06:22.018Z</time></trkpt><trkpt lat="45.39608853837851" lon="8.533434686511681"><ele>139.0</ele><time>2026-03-28T13:06:23.018Z</time></trkpt><trkpt lat="45.39603906301909" lon="8.53322273359272"><ele>139.0</ele><time>2026-03-28T13:06:24.018Z</time></trkpt><trkpt lat="45.3959916170666" lon="8.533002429494159"><ele>139.0</ele><time>2026-03-28T13:06:25.018Z</time></trkpt><trkpt lat="45.395941010384774" lon="8.532783479908474"><ele>139.0</ele><time>2026-03-28T13:06:26.018Z</time></trkpt><trkpt lat="45.395893160990006" lon="8.532562332931743"><ele>138.66666666666669</ele><time>2026-03-28T13:06:27.018Z</time></trkpt><trkpt lat="45.39585780510098" lon="8.53233970800852"><ele>138.33333333333334</ele><time>2026-03-28T13:06:28.018Z</time></trkpt><trkpt lat="45.39582851114297" lon="8.53210706700285"><ele>138.0</ele><time>2026-03-28T13:06:29.018Z</time></trkpt><trkpt lat="45.39579955210007" lon="8.531873234277398"><ele>137.66666666666666</ele><time>2026-03-28T13:06:30.019Z</time></trkpt><trkpt lat="45.39577237323359" lon="8.531641024553576"><ele>137.33333333333331</ele><time>2026-03-28T13:06:31.019Z</time></trkpt><trkpt lat="45.39574530250863" lon="8.531408749005859"><ele>137.0</ele><time>2026-03-28T13:06:32.019Z</time></trkpt><trkpt lat="45.39571550673836" lon="8.531177379869241"><ele>136.66666666666666</ele><time>2026-03-28T13:06:33.019Z</time></trkpt><trkpt lat="45.39568207368127" lon="8.530943921501136"><ele>136.33333333333334</ele><time>2026-03-28T13:06:34.019Z</time></trkpt><trkpt lat="45.39565213437308" lon="8.530699241950634"><ele>136.0</ele><time>2026-03-28T13:06:35.019Z</time></trkpt><trkpt lat="45.3956208020608" lon="8.53044360798126"><ele>136.33333333333334</ele><time>2026-03-28T13:06:36.019Z</time></trkpt><trkpt lat="45.39558826342719" lon="8.530181597494966"><ele>136.66666666666666</ele><time>2026-03-28T13:06:37.019Z</time></trkpt><trkpt lat="45.39555534701355" lon="8.529928477931316"><ele>137.0</ele><time>2026-03-28T13:06:38.019Z</time></trkpt><trkpt lat="45.39552170515796" lon="8.52967146190859"><ele>136.66666666666666</ele><time>2026-03-28T13:06:39.019Z</time></trkpt><trkpt lat="45.39548677814913" lon="8.529407909786991"><ele>136.33333333333334</ele><time>2026-03-28T13:06:40.019Z</time></trkpt><trkpt lat="45.39545293467035" lon="8.529141958216169"><ele>136.0</ele><time>2026-03-28T13:06:41.019Z</time></trkpt><trkpt lat="45.39541782654921" lon="8.528872602334442"><ele>136.33333333333334</ele><time>2026-03-28T13:06:42.019Z</time></trkpt><trkpt lat="45.39538188280645" lon="8.528597999309465"><ele>136.66666666666666</ele><time>2026-03-28T13:06:43.019Z</time></trkpt><trkpt lat="45.3953447421075" lon="8.528320900620534"><ele>137.0</ele><time>2026-03-28T13:06:44.019Z</time></trkpt><trkpt lat="45.39530913200063" lon="8.528039173451736"><ele>136.66666666666666</ele><time>2026-03-28T13:06:45.019Z</time></trkpt><trkpt lat="45.39527272620933" lon="8.527755718402322"><ele>136.33333333333334</ele><time>2026-03-28T13:06:46.019Z</time></trkpt><trkpt lat="45.39523613994404" lon="8.527469856954374"><ele>136.0</ele><time>2026-03-28T13:06:47.019Z</time></trkpt><trkpt lat="45.39519869362899" lon="8.527183986836596"><ele>136.0</ele><time>2026-03-28T13:06:48.019Z</time></trkpt><trkpt lat="45.39515997306625" lon="8.526902063088547"><ele>136.0</ele><time>2026-03-28T13:06:49.019Z</time></trkpt><trkpt lat="45.39512394785947" lon="8.526622166820077"><ele>136.0</ele><time>2026-03-28T13:06:50.019Z</time></trkpt><trkpt lat="45.39509260384041" lon="8.526339728990207"><ele>136.0</ele><time>2026-03-28T13:06:51.019Z</time></trkpt><trkpt lat="45.39506947545735" lon="8.52605674063023"><ele>136.0</ele><time>2026-03-28T13:06:52.019Z</time></trkpt><trkpt lat="45.39506218697714" lon="8.525772968946784"><ele>136.0</ele><time>2026-03-28T13:06:53.019Z</time></trkpt><trkpt lat="45.3950674566504" lon="8.525485114400135"><ele>136.0</ele><time>2026-03-28T13:06:54.019Z</time></trkpt><trkpt lat="45.39507760048873" lon="8.525195605621713"><ele>136.0</ele><time>2026-03-28T13:06:55.019Z</time></trkpt><trkpt lat="45.39508689554414" lon="8.524910561219716"><ele>136.0</ele><time>2026-03-28T13:06:56.019Z</time></trkpt><trkpt lat="45.39509600018621" lon="8.52463092037668"><ele>136.66666666666669</ele><time>2026-03-28T13:06:57.019Z</time></trkpt><trkpt lat="45.3951029813706" lon="8.524360668421846"><ele>137.33333333333334</ele><time>2026-03-28T13:06:58.019Z</time></trkpt><trkpt lat="45.39511020069536" lon="8.524093419644855"><ele>138.0</ele><time>2026-03-28T13:06:59.019Z</time></trkpt><trkpt lat="45.39511627812223" lon="8.523825456256708"><ele>138.0</ele><time>2026-03-28T13:07:00.019Z</time></trkpt><trkpt lat="45.395122384823225" lon="8.52355686552271"><ele>138.0</ele><time>2026-03-28T13:07:01.019Z</time></trkpt><trkpt lat="45.39513031670142" lon="8.523287912911963"><ele>138.0</ele><time>2026-03-28T13:07:02.019Z</time></trkpt><trkpt lat="45.3951398734127" lon="8.523018643980814"><ele>137.66666666666666</ele><time>2026-03-28T13:07:03.02Z</time></trkpt><trkpt lat="45.39515175753636" lon="8.522748111040864"><ele>137.33333333333331</ele><time>2026-03-28T13:07:04.02Z</time></trkpt><trkpt lat="45.395164836787956" lon="8.522478448982824"><ele>137.0</ele><time>2026-03-28T13:07:05.02Z</time></trkpt><trkpt lat="45.3951792002416" lon="8.522209356124032"><ele>137.0</ele><time>2026-03-28T13:07:06.02Z</time></trkpt><trkpt lat="45.3951935187635" lon="8.521939774340096"><ele>137.0</ele><time>2026-03-28T13:07:07.02Z</time></trkpt><trkpt lat="45.3952058040016" lon="8.521670435174206"><ele>137.0</ele><time>2026-03-28T13:07:08.02Z</time></trkpt><trkpt lat="45.39521638511888" lon="8.5213958276872"><ele>137.33333333333331</ele><time>2026-03-28T13:07:09.02Z</time></trkpt><trkpt lat="45.39522963909472" lon="8.52111511648859"><ele>137.66666666666666</ele><time>2026-03-28T13:07:10.02Z</time></trkpt><trkpt lat="45.39524097965036" lon="8.52082987241833"><ele>138.0</ele><time>2026-03-28T13:07:11.02Z</time></trkpt><trkpt lat="45.39524553298215" lon="8.520540395271222"><ele>138.0</ele><time>2026-03-28T13:07:12.02Z</time></trkpt><trkpt lat="45.395242045490484" lon="8.520246091243907"><ele>138.0</ele><time>2026-03-28T13:07:13.02Z</time></trkpt><trkpt lat="45.39521760016398" lon="8.519950068835083"><ele>138.0</ele><time>2026-03-28T13:07:14.02Z</time></trkpt><trkpt lat="45.39518200977228" lon="8.519654050583098"><ele>137.66666666666666</ele><time>2026-03-28T13:07:15.02Z</time></trkpt><trkpt lat="45.39513971374969" lon="8.519358461817575"><ele>137.33333333333331</ele><time>2026-03-28T13:07:16.02Z</time></trkpt><trkpt lat="45.395100725843285" lon="8.519060170100808"><ele>137.0</ele><time>2026-03-28T13:07:17.02Z</time></trkpt><trkpt lat="45.39506652831564" lon="8.51875413937704"><ele>137.0</ele><time>2026-03-28T13:07:18.02Z</time></trkpt><trkpt lat="45.39503036307165" lon="8.518446566936277"><ele>137.0</ele><time>2026-03-28T13:07:19.02Z</time></trkpt><trkpt lat="45.39499220796282" lon="8.518139587371271"><ele>137.0</ele><time>2026-03-28T13:07:20.02Z</time></trkpt><trkpt lat="45.39495363457092" lon="8.517834527911223"><ele>136.66666666666666</ele><time>2026-03-28T13:07:21.02Z</time></trkpt><trkpt lat="45.394914450707375" lon="8.517529074105305"><ele>136.33333333333334</ele><time>2026-03-28T13:07:22.02Z</time></trkpt><trkpt lat="45.394874052747426" lon="8.517223517058534"><ele>136.0</ele><time>2026-03-28T13:07:23.02Z</time></trkpt><trkpt lat="45.394836067746034" lon="8.516917319138855"><ele>135.33333333333334</ele><time>2026-03-28T13:07:24.02Z</time></trkpt><trkpt lat="45.39479788400499" lon="8.516605907041452"><ele>134.66666666666666</ele><time>2026-03-28T13:07:25.02Z</time></trkpt><trkpt lat="45.39475931260151" lon="8.516294955866226"><ele>134.0</ele><time>2026-03-28T13:07:26.02Z</time></trkpt><trkpt lat="45.39472133472563" lon="8.515983924966207"><ele>134.0</ele><time>2026-03-28T13:07:27.02Z</time></trkpt><trkpt lat="45.39468362300895" lon="8.51567208377687"><ele>134.0</ele><time>2026-03-28T13:07:28.02Z</time></trkpt><trkpt lat="45.39464468370182" lon="8.515357275063966"><ele>134.0</ele><time>2026-03-28T13:07:29.02Z</time></trkpt><trkpt lat="45.394606306069534" lon="8.515044841230154"><ele>134.33333333333331</ele><time>2026-03-28T13:07:30.02Z</time></trkpt><trkpt lat="45.394568797527015" lon="8.514735028370687"><ele>134.66666666666666</ele><time>2026-03-28T13:07:31.02Z</time></trkpt><trkpt lat="45.39453052100951" lon="8.514435995446325"><ele>135.0</ele><time>2026-03-28T13:07:32.02Z</time></trkpt><trkpt lat="45.39449213133616" lon="8.514143662437426"><ele>135.33333333333334</ele><time>2026-03-28T13:07:33.02Z</time></trkpt><trkpt lat="45.39445391653544" lon="8.513850063002142"><ele>135.66666666666669</ele><time>2026-03-28T13:07:34.02Z</time></trkpt><trkpt lat="45.394418091322" lon="8.513556026111084"><ele>136.0</ele><time>2026-03-28T13:07:35.02Z</time></trkpt><trkpt lat="45.394382487080485" lon="8.513262616349639"><ele>136.0</ele><time>2026-03-28T13:07:36.02Z</time></trkpt><trkpt lat="45.39434777396254" lon="8.51298554179796"><ele>136.0</ele><time>2026-03-28T13:07:37.021Z</time></trkpt><trkpt lat="45.39431267313823" lon="8.512722852736673"><ele>136.0</ele><time>2026-03-28T13:07:38.021Z</time></trkpt><trkpt lat="45.394270507988864" lon="8.512476427290151"><ele>136.0</ele><time>2026-03-28T13:07:39.021Z</time></trkpt><trkpt lat="45.394205339870076" lon="8.51224526174107"><ele>136.0</ele><time>2026-03-28T13:07:40.021Z</time></trkpt><trkpt lat="45.39411373602358" lon="8.512028373035237"><ele>136.0</ele><time>2026-03-28T13:07:41.021Z</time></trkpt><trkpt lat="45.39400481806964" lon="8.511822552115555"><ele>136.0</ele><time>2026-03-28T13:07:42.021Z</time></trkpt><trkpt lat="45.39388483037698" lon="8.51162079148839"><ele>136.0</ele><time>2026-03-28T13:07:43.021Z</time></trkpt><trkpt lat="45.39376094358966" lon="8.511415770982596"><ele>136.0</ele><time>2026-03-28T13:07:44.021Z</time></trkpt><trkpt lat="45.39363517333946" lon="8.51120584611383"><ele>136.0</ele><time>2026-03-28T13:07:45.021Z</time></trkpt><trkpt lat="45.39350890172671" lon="8.510988596367662"><ele>136.0</ele><time>2026-03-28T13:07:46.021Z</time></trkpt><trkpt lat="45.39338108276383" lon="8.510768007835901"><ele>136.0</ele><time>2026-03-28T13:07:47.021Z</time></trkpt><trkpt lat="45.3932530550501" lon="8.510548105347356"><ele>136.0</ele><time>2026-03-28T13:07:48.021Z</time></trkpt><trkpt lat="45.393123973711916" lon="8.51032915190008"><ele>136.0</ele><time>2026-03-28T13:07:49.019Z</time></trkpt><trkpt lat="45.39299622186671" lon="8.510109569612094"><ele>136.0</ele><time>2026-03-28T13:07:50.019Z</time></trkpt><trkpt lat="45.3928707752507" lon="8.509889622550423"><ele>135.33333333333334</ele><time>2026-03-28T13:07:51.019Z</time></trkpt><trkpt lat="45.392744640564544" lon="8.509670534738824"><ele>134.66666666666666</ele><time>2026-03-28T13:07:52.02Z</time></trkpt><trkpt lat="45.39261718643185" lon="8.509451079868674"><ele>134.0</ele><time>2026-03-28T13:07:53.019Z</time></trkpt><trkpt lat="45.39248794951186" lon="8.509231872521951"><ele>134.0</ele><time>2026-03-28T13:07:54.019Z</time></trkpt><trkpt lat="45.392356432452196" lon="8.509012523525247"><ele>134.0</ele><time>2026-03-28T13:07:55.019Z</time></trkpt><trkpt lat="45.39222572310605" lon="8.50879335365473"><ele>134.0</ele><time>2026-03-28T13:07:56.019Z</time></trkpt><trkpt lat="45.39209566148338" lon="8.508579379372108"><ele>134.0</ele><time>2026-03-28T13:07:57.019Z</time></trkpt><trkpt lat="45.39197577778301" lon="8.50837668765241"><ele>134.0</ele><time>2026-03-28T13:07:58.019Z</time></trkpt><trkpt lat="45.39186460521078" lon="8.508182166829574"><ele>134.0</ele><time>2026-03-28T13:07:59.019Z</time></trkpt><trkpt lat="45.39175978911711" lon="8.508000284905934"><ele>134.0</ele><time>2026-03-28T13:08:00.019Z</time></trkpt><trkpt lat="45.391659469956934" lon="8.507827140949603"><ele>134.0</ele><time>2026-03-28T13:08:01.019Z</time></trkpt><trkpt lat="45.3915643213759" lon="8.507662577595928"><ele>134.0</ele><time>2026-03-28T13:08:02.019Z</time></trkpt><trkpt lat="45.391473065672436" lon="8.507505320540684"><ele>134.0</ele><time>2026-03-28T13:08:03.02Z</time></trkpt><trkpt lat="45.39138343192244" lon="8.507355213117634"><ele>134.0</ele><time>2026-03-28T13:08:04.02Z</time></trkpt><trkpt lat="45.391299520464095" lon="8.507214240517643"><ele>134.0</ele><time>2026-03-28T13:08:05.02Z</time></trkpt><trkpt lat="45.391220794231906" lon="8.507079782040186"><ele>134.0</ele><time>2026-03-28T13:08:06.02Z</time></trkpt><trkpt lat="45.39114707230476" lon="8.506952148584293"><ele>134.0</ele><time>2026-03-28T13:08:07.02Z</time></trkpt><trkpt lat="45.39107492771483" lon="8.506828785797627"><ele>134.0</ele><time>2026-03-28T13:08:08.02Z</time></trkpt><trkpt lat="45.39100071851549" lon="8.506701605364972"><ele>134.0</ele><time>2026-03-28T13:08:09.02Z</time></trkpt><trkpt lat="45.390924921521325" lon="8.50657051964471"><ele>134.0</ele><time>2026-03-28T13:08:10.02Z</time></trkpt><trkpt lat="45.39084520393956" lon="8.506434306764236"><ele>134.0</ele><time>2026-03-28T13:08:11.02Z</time></trkpt><trkpt lat="45.3907618283046" lon="8.506287817573899"><ele>134.0</ele><time>2026-03-28T13:08:12.02Z</time></trkpt><trkpt lat="45.390676126365456" lon="8.506123369819951"><ele>134.0</ele><time>2026-03-28T13:08:13.02Z</time></trkpt><trkpt lat="45.390592047418245" lon="8.50594902090029"><ele>134.0</ele><time>2026-03-28T13:08:14.02Z</time></trkpt><trkpt lat="45.39051004575124" lon="8.505768087505787"><ele>134.0</ele><time>2026-03-28T13:08:15.02Z</time></trkpt><trkpt lat="45.39043116148222" lon="8.505585380356807"><ele>134.0</ele><time>2026-03-28T13:08:16.02Z</time></trkpt><trkpt lat="45.39035344277469" lon="8.50540087382796"><ele>134.0</ele><time>2026-03-28T13:08:17.02Z</time></trkpt><trkpt lat="45.39027683837291" lon="8.505216474398123"><ele>134.25</ele><time>2026-03-28T13:08:18.02Z</time></trkpt><trkpt lat="45.39020146621615" lon="8.505035236421227"><ele>134.5</ele><time>2026-03-28T13:08:19.02Z</time></trkpt><trkpt lat="45.390126131304186" lon="8.504856826838306"><ele>134.75</ele><time>2026-03-28T13:08:20.02Z</time></trkpt><trkpt lat="45.39005762557631" lon="8.504679387508265"><ele>135.0</ele><time>2026-03-28T13:08:21.02Z</time></trkpt><trkpt lat="45.38999362052085" lon="8.504504279248666"><ele>135.0</ele><time>2026-03-28T13:08:22.02Z</time></trkpt><trkpt lat="45.389934638445965" lon="8.504333033963304"><ele>135.0</ele><time>2026-03-28T13:08:23.02Z</time></trkpt><trkpt lat="45.38987624434605" lon="8.504171720510655"><ele>135.0</ele><time>2026-03-28T13:08:24.02Z</time></trkpt><trkpt lat="45.38982192051351" lon="8.504019055140466"><ele>135.0</ele><time>2026-03-28T13:08:25.02Z</time></trkpt><trkpt lat="45.38975694464263" lon="8.503875109719553"><ele>135.0</ele><time>2026-03-28T13:08:26.02Z</time></trkpt><trkpt lat="45.38968204873541" lon="8.503742603277773"><ele>135.0</ele><time>2026-03-28T13:08:27.02Z</time></trkpt><trkpt lat="45.38959281334966" lon="8.503628163133646"><ele>135.0</ele><time>2026-03-28T13:08:28.02Z</time></trkpt><trkpt lat="45.38947768952548" lon="8.503550188956346"><ele>135.0</ele><time>2026-03-28T13:08:29.02Z</time></trkpt><trkpt lat="45.389351860805064" lon="8.5034799564252"><ele>135.5</ele><time>2026-03-28T13:08:30.02Z</time></trkpt><trkpt lat="45.38922013151718" lon="8.503414383976898"><ele>136.0</ele><time>2026-03-28T13:08:31.02Z</time></trkpt><trkpt lat="45.38908502968401" lon="8.503341191778208"><ele>136.5</ele><time>2026-03-28T13:08:32.02Z</time></trkpt><trkpt lat="45.388951649714585" lon="8.503265234623155"><ele>137.0</ele><time>2026-03-28T13:08:33.02Z</time></trkpt><trkpt lat="45.38882030767018" lon="8.503195786531837"><ele>137.0</ele><time>2026-03-28T13:08:34.02Z</time></trkpt><trkpt lat="45.388692077059986" lon="8.503131488601156"><ele>137.0</ele><time>2026-03-28T13:08:35.02Z</time></trkpt><trkpt lat="45.388564073497115" lon="8.503078806697628"><ele>137.0</ele><time>2026-03-28T13:08:36.021Z</time></trkpt><trkpt lat="45.3884339848179" lon="8.503019493275858"><ele>137.0</ele><time>2026-03-28T13:08:37.021Z</time></trkpt><trkpt lat="45.38830244259497" lon="8.502937439459814"><ele>136.75</ele><time>2026-03-28T13:08:38.021Z</time></trkpt><trkpt lat="45.388185851312734" lon="8.502832043381174"><ele>136.5</ele><time>2026-03-28T13:08:39.021Z</time></trkpt><trkpt lat="45.38807431854609" lon="8.502707398869552"><ele>136.25</ele><time>2026-03-28T13:08:40.021Z</time></trkpt><trkpt lat="45.38796514651647" lon="8.50259353732969"><ele>136.0</ele><time>2026-03-28T13:08:41.021Z</time></trkpt><trkpt lat="45.38785658811674" lon="8.502484180091653"><ele>135.75</ele><time>2026-03-28T13:08:42.021Z</time></trkpt><trkpt lat="45.387750931926874" lon="8.502365644491181"><ele>135.5</ele><time>2026-03-28T13:08:43.021Z</time></trkpt><trkpt lat="45.38764641663682" lon="8.502251333159876"><ele>135.25</ele><time>2026-03-28T13:08:44.021Z</time></trkpt><trkpt lat="45.38754682081901" lon="8.502142687836548"><ele>135.0</ele><time>2026-03-28T13:08:45.021Z</time></trkpt><trkpt lat="45.38745761210403" lon="8.50202767345448"><ele>134.25</ele><time>2026-03-28T13:08:46.021Z</time></trkpt><trkpt lat="45.38736694878471" lon="8.501920519902175"><ele>133.5</ele><time>2026-03-28T13:08:47.021Z</time></trkpt><trkpt lat="45.38727451464403" lon="8.501817868638488"><ele>132.75</ele><time>2026-03-28T13:08:48.021Z</time></trkpt><trkpt lat="45.387177281415696" lon="8.501713470007306"><ele>132.0</ele><time>2026-03-28T13:08:49.021Z</time></trkpt><trkpt lat="45.38707791476423" lon="8.501607509912796"><ele>132.0</ele><time>2026-03-28T13:08:50.021Z</time></trkpt><trkpt lat="45.38697946898352" lon="8.501500017855182"><ele>132.0</ele><time>2026-03-28T13:08:51.021Z</time></trkpt><trkpt lat="45.38688370067933" lon="8.501394932017126"><ele>132.0</ele><time>2026-03-28T13:08:52.021Z</time></trkpt><trkpt lat="45.386790315300416" lon="8.501292770559179"><ele>132.0</ele><time>2026-03-28T13:08:53.021Z</time></trkpt><trkpt lat="45.38669968944499" lon="8.50119453943917"><ele>132.2</ele><time>2026-03-28T13:08:54.021Z</time></trkpt><trkpt lat="45.386607533593796" lon="8.501102539506896"><ele>132.39999999999998</ele><time>2026-03-28T13:08:55.021Z</time></trkpt><trkpt lat="45.386516882710254" lon="8.501022952977891"><ele>132.60000000000002</ele><time>2026-03-28T13:08:56.021Z</time></trkpt><trkpt lat="45.38642388792566" lon="8.500956698532413"><ele>132.8</ele><time>2026-03-28T13:08:57.021Z</time></trkpt><trkpt lat="45.38631904666935" lon="8.50088624527944"><ele>133.0</ele><time>2026-03-28T13:08:58.021Z</time></trkpt><trkpt lat="45.386212066487914" lon="8.50081048621803"><ele>133.0</ele><time>2026-03-28T13:08:59.021Z</time></trkpt><trkpt lat="45.38609994853962" lon="8.500726383432774"><ele>133.0</ele><time>2026-03-28T13:09:00.021Z</time></trkpt><trkpt lat="45.38598381117846" lon="8.500640091021781"><ele>133.0</ele><time>2026-03-28T13:09:01.021Z</time></trkpt><trkpt lat="45.3858579266385" lon="8.50055011340989"><ele>133.0</ele><time>2026-03-28T13:09:02.021Z</time></trkpt><trkpt lat="45.3857193603873" lon="8.500450725593451"><ele>133.0</ele><time>2026-03-28T13:09:03.021Z</time></trkpt><trkpt lat="45.38556998695125" lon="8.500343472694368"><ele>133.0</ele><time>2026-03-28T13:09:04.021Z</time></trkpt><trkpt lat="45.38541345834064" lon="8.500233062892114"><ele>133.0</ele><time>2026-03-28T13:09:05.021Z</time></trkpt><trkpt lat="45.38525596628305" lon="8.50011910588104"><ele>132.66666666666669</ele><time>2026-03-28T13:09:06.021Z</time></trkpt><trkpt lat="45.385092381516124" lon="8.500002244510373"><ele>132.33333333333334</ele><time>2026-03-28T13:09:07.021Z</time></trkpt><trkpt lat="45.38492333719599" lon="8.49988155694242"><ele>132.0</ele><time>2026-03-28T13:09:08.021Z</time></trkpt><trkpt lat="45.3847504135201" lon="8.499757004125952"><ele>132.0</ele><time>2026-03-28T13:09:09.022Z</time></trkpt><trkpt lat="45.38457475127786" lon="8.49962940618378"><ele>132.0</ele><time>2026-03-28T13:09:10.022Z</time></trkpt><trkpt lat="45.38439832490172" lon="8.499502129497372"><ele>132.0</ele><time>2026-03-28T13:09:11.022Z</time></trkpt><trkpt lat="45.38421978790384" lon="8.499377481632651"><ele>132.0</ele><time>2026-03-28T13:09:12.022Z</time></trkpt><trkpt lat="45.384030774514166" lon="8.499254028201582"><ele>132.0</ele><time>2026-03-28T13:09:13.022Z</time></trkpt><trkpt lat="45.38383269434155" lon="8.49912336848365"><ele>132.0</ele><time>2026-03-28T13:09:14.022Z</time></trkpt><trkpt lat="45.38362520944218" lon="8.4989718543214"><ele>132.0</ele><time>2026-03-28T13:09:15.022Z</time></trkpt><trkpt lat="45.38342772174729" lon="8.498813245239818"><ele>132.0</ele><time>2026-03-28T13:09:16.022Z</time></trkpt><trkpt lat="45.38323204233629" lon="8.498655891645107"><ele>132.0</ele><time>2026-03-28T13:09:17.022Z</time></trkpt><trkpt lat="45.383028798237355" lon="8.498504018420302"><ele>132.0</ele><time>2026-03-28T13:09:18.022Z</time></trkpt><trkpt lat="45.38282332758474" lon="8.498352537037292"><ele>132.0</ele><time>2026-03-28T13:09:19.022Z</time></trkpt><trkpt lat="45.38262020033155" lon="8.498190315336547"><ele>132.0</ele><time>2026-03-28T13:09:20.022Z</time></trkpt><trkpt lat="45.382423818333216" lon="8.498011783434139"><ele>132.0</ele><time>2026-03-28T13:09:21.022Z</time></trkpt><trkpt lat="45.382231848436064" lon="8.497825893990349"><ele>132.0</ele><time>2026-03-28T13:09:22.022Z</time></trkpt><trkpt lat="45.38204157943518" lon="8.497641541845107"><ele>132.0</ele><time>2026-03-28T13:09:23.022Z</time></trkpt><trkpt lat="45.38185208590926" lon="8.497458805525385"><ele>132.0</ele><time>2026-03-28T13:09:24.022Z</time></trkpt><trkpt lat="45.38166329105726" lon="8.497278740273405"><ele>132.0</ele><time>2026-03-28T13:09:25.022Z</time></trkpt><trkpt lat="45.381472339255005" lon="8.497097780529206"><ele>132.0</ele><time>2026-03-28T13:09:26.022Z</time></trkpt><trkpt lat="45.38127769321018" lon="8.496916487710003"><ele>132.0</ele><time>2026-03-28T13:09:27.022Z</time></trkpt><trkpt lat="45.38108157936502" lon="8.496734039345714"><ele>132.0</ele><time>2026-03-28T13:09:28.022Z</time></trkpt><trkpt lat="45.38088492525033" lon="8.496545963999733"><ele>132.0</ele><time>2026-03-28T13:09:29.022Z</time></trkpt><trkpt lat="45.380689653515354" lon="8.496356103644581"><ele>132.0</ele><time>2026-03-28T13:09:30.022Z</time></trkpt><trkpt lat="45.38049430470865" lon="8.49616467201973"><ele>131.5</ele><time>2026-03-28T13:09:31.022Z</time></trkpt><trkpt lat="45.38029738369386" lon="8.49597267511764"><ele>131.0</ele><time>2026-03-28T13:09:32.022Z</time></trkpt><trkpt lat="45.38009809965662" lon="8.495780644813713"><ele>131.0</ele><time>2026-03-28T13:09:33.022Z</time></trkpt><trkpt lat="45.37989845957542" lon="8.495588345005059"><ele>131.0</ele><time>2026-03-28T13:09:34.022Z</time></trkpt><trkpt lat="45.37969810709274" lon="8.495395990588133"><ele>131.5</ele><time>2026-03-28T13:09:35.022Z</time></trkpt><trkpt lat="45.37949798357908" lon="8.495204845399263"><ele>132.0</ele><time>2026-03-28T13:09:36.022Z</time></trkpt><trkpt lat="45.37930071802903" lon="8.495014701885562"><ele>132.0</ele><time>2026-03-28T13:09:37.022Z</time></trkpt><trkpt lat="45.37910384322125" lon="8.494824856787368"><ele>132.0</ele><time>2026-03-28T13:09:38.022Z</time></trkpt><trkpt lat="45.3789091742959" lon="8.494636588265482"><ele>131.5</ele><time>2026-03-28T13:09:39.022Z</time></trkpt><trkpt lat="45.37871833478891" lon="8.49445048604529"><ele>131.0</ele><time>2026-03-28T13:09:40.022Z</time></trkpt><trkpt lat="45.378525489661186" lon="8.494264156425627"><ele>131.0</ele><time>2026-03-28T13:09:41.022Z</time></trkpt><trkpt lat="45.37833024906416" lon="8.494077345812133"><ele>131.0</ele><time>2026-03-28T13:09:42.022Z</time></trkpt><trkpt lat="45.37813848717472" lon="8.493888418889526"><ele>131.0</ele><time>2026-03-28T13:09:43.023Z</time></trkpt><trkpt lat="45.37794265213385" lon="8.49370153692726"><ele>131.0</ele><time>2026-03-28T13:09:44.023Z</time></trkpt><trkpt lat="45.377745554130726" lon="8.493512707569012"><ele>131.0</ele><time>2026-03-28T13:09:45.023Z</time></trkpt><trkpt lat="45.37754975049315" lon="8.493324261818278"><ele>131.0</ele><time>2026-03-28T13:09:46.023Z</time></trkpt><trkpt lat="45.377353305249166" lon="8.493134341591471"><ele>130.0</ele><time>2026-03-28T13:09:47.023Z</time></trkpt><trkpt lat="45.37715706961683" lon="8.492945291152362"><ele>129.0</ele><time>2026-03-28T13:09:48.023Z</time></trkpt><trkpt lat="45.37695907206553" lon="8.49275452816511"><ele>129.0</ele><time>2026-03-28T13:09:49.023Z</time></trkpt><trkpt lat="45.37676532547421" lon="8.492562957098993"><ele>129.0</ele><time>2026-03-28T13:09:50.023Z</time></trkpt><trkpt lat="45.3765684703999" lon="8.492373872365825"><ele>129.0</ele><time>2026-03-28T13:09:51.023Z</time></trkpt><trkpt lat="45.376375435307736" lon="8.492187384393548"><ele>129.0</ele><time>2026-03-28T13:09:52.023Z</time></trkpt><trkpt lat="45.376183357513156" lon="8.492004059290128"><ele>129.5</ele><time>2026-03-28T13:09:53.023Z</time></trkpt><trkpt lat="45.37599441554224" lon="8.491823856983485"><ele>130.0</ele><time>2026-03-28T13:09:54.023Z</time></trkpt><trkpt lat="45.37580620741644" lon="8.491643004632593"><ele>130.0</ele><time>2026-03-28T13:09:55.021Z</time></trkpt><trkpt lat="45.375618182368555" lon="8.491462244719573"><ele>130.0</ele><time>2026-03-28T13:09:56.021Z</time></trkpt><trkpt lat="45.37543137194363" lon="8.491281082124619"><ele>129.66666666666669</ele><time>2026-03-28T13:09:57.021Z</time></trkpt><trkpt lat="45.375249488772674" lon="8.491104161008469"><ele>129.33333333333334</ele><time>2026-03-28T13:09:58.021Z</time></trkpt><trkpt lat="45.375070095093335" lon="8.490930776410476"><ele>129.0</ele><time>2026-03-28T13:09:59.021Z</time></trkpt><trkpt lat="45.37488885782149" lon="8.490757058056612"><ele>129.0</ele><time>2026-03-28T13:10:00.021Z</time></trkpt><trkpt lat="45.374707562259744" lon="8.490581740518714"><ele>129.0</ele><time>2026-03-28T13:10:01.021Z</time></trkpt><trkpt lat="45.37452442842182" lon="8.490408756478098"><ele>129.0</ele><time>2026-03-28T13:10:02.021Z</time></trkpt><trkpt lat="45.37434000599283" lon="8.490235228937808"><ele>128.66666666666666</ele><time>2026-03-28T13:10:03.021Z</time></trkpt><trkpt lat="45.37415245212517" lon="8.490059965097384"><ele>128.33333333333331</ele><time>2026-03-28T13:10:04.021Z</time></trkpt><trkpt lat="45.37396519907567" lon="8.489883822929901"><ele>128.0</ele><time>2026-03-28T13:10:05.021Z</time></trkpt><trkpt lat="45.37377466970523" lon="8.489705023627094"><ele>128.5</ele><time>2026-03-28T13:10:06.021Z</time></trkpt><trkpt lat="45.373580651305566" lon="8.48952629031696"><ele>129.0</ele><time>2026-03-28T13:10:07.021Z</time></trkpt><trkpt lat="45.373385578863314" lon="8.489346776568597"><ele>129.0</ele><time>2026-03-28T13:10:08.021Z</time></trkpt><trkpt lat="45.37319228714862" lon="8.489167384158112"><ele>129.0</ele><time>2026-03-28T13:10:09.021Z</time></trkpt><trkpt lat="45.37299813505615" lon="8.488986373509356"><ele>128.5</ele><time>2026-03-28T13:10:10.021Z</time></trkpt><trkpt lat="45.37280312928423" lon="8.488805070808546"><ele>128.0</ele><time>2026-03-28T13:10:11.021Z</time></trkpt><trkpt lat="45.372604314198426" lon="8.48862600491076"><ele>127.5</ele><time>2026-03-28T13:10:12.021Z</time></trkpt><trkpt lat="45.37240799365512" lon="8.488447410058077"><ele>127.0</ele><time>2026-03-28T13:10:13.021Z</time></trkpt><trkpt lat="45.372210366195645" lon="8.48827139955599"><ele>129.0</ele><time>2026-03-28T13:10:14.021Z</time></trkpt><trkpt lat="45.37201487391581" lon="8.488097016167123"><ele>131.0</ele><time>2026-03-28T13:10:15.021Z</time></trkpt><trkpt lat="45.371820011634846" lon="8.487923932779573"><ele>131.5</ele><time>2026-03-28T13:10:16.021Z</time></trkpt><trkpt lat="45.37162139221198" lon="8.487755656121134"><ele>132.0</ele><time>2026-03-28T13:10:17.021Z</time></trkpt><trkpt lat="45.37142673422431" lon="8.487585946087219"><ele>131.5</ele><time>2026-03-28T13:10:18.021Z</time></trkpt><trkpt lat="45.3712377060883" lon="8.487414084966503"><ele>131.0</ele><time>2026-03-28T13:10:19.021Z</time></trkpt><trkpt lat="45.3710466471954" lon="8.487241443923166"><ele>131.0</ele><time>2026-03-28T13:10:20.021Z</time></trkpt><trkpt lat="45.37085531550188" lon="8.487067503337173"><ele>131.0</ele><time>2026-03-28T13:10:21.022Z</time></trkpt><trkpt lat="45.37066633580087" lon="8.486896833616568"><ele>130.33333333333331</ele><time>2026-03-28T13:10:22.022Z</time></trkpt><trkpt lat="45.37047774926557" lon="8.486727382182151"><ele>129.66666666666666</ele><time>2026-03-28T13:10:23.022Z</time></trkpt><trkpt lat="45.370292296702374" lon="8.486567384011222"><ele>129.0</ele><time>2026-03-28T13:10:24.022Z</time></trkpt><trkpt lat="45.37011705602667" lon="8.486412982568497"><ele>129.0</ele><time>2026-03-28T13:10:25.022Z</time></trkpt><trkpt lat="45.369949306500025" lon="8.48626481102868"><ele>129.0</ele><time>2026-03-28T13:10:26.022Z</time></trkpt><trkpt lat="45.36978790494213" lon="8.486122624024272"><ele>129.0</ele><time>2026-03-28T13:10:27.022Z</time></trkpt><trkpt lat="45.36963220285756" lon="8.485986597909372"><ele>129.0</ele><time>2026-03-28T13:10:28.022Z</time></trkpt><trkpt lat="45.369482238840355" lon="8.485854727711512"><ele>129.0</ele><time>2026-03-28T13:10:29.022Z</time></trkpt><trkpt lat="45.36933679150687" lon="8.485726519834841"><ele>129.0</ele><time>2026-03-28T13:10:30.022Z</time></trkpt><trkpt lat="45.36919697073991" lon="8.485602713317697"><ele>129.0</ele><time>2026-03-28T13:10:31.022Z</time></trkpt><trkpt lat="45.36906055239915" lon="8.485478752068362"><ele>129.0</ele><time>2026-03-28T13:10:32.022Z</time></trkpt><trkpt lat="45.368932160021785" lon="8.485363318927055"><ele>129.0</ele><time>2026-03-28T13:10:33.022Z</time></trkpt><trkpt lat="45.36880672600125" lon="8.485244252171418"><ele>128.0</ele><time>2026-03-28T13:10:34.022Z</time></trkpt><trkpt lat="45.36867952329349" lon="8.485116649306773"><ele>127.0</ele><time>2026-03-28T13:10:35.022Z</time></trkpt><trkpt lat="45.368558588154904" lon="8.484994735556104"><ele>126.0</ele><time>2026-03-28T13:10:36.022Z</time></trkpt><trkpt lat="45.36844790363489" lon="8.48485920680185"><ele>126.0</ele><time>2026-03-28T13:10:37.022Z</time></trkpt><trkpt lat="45.36833748814401" lon="8.48471486063298"><ele>126.0</ele><time>2026-03-28T13:10:38.022Z</time></trkpt><trkpt lat="45.368224801486456" lon="8.484574594330494"><ele>126.0</ele><time>2026-03-28T13:10:39.022Z</time></trkpt><trkpt lat="45.36811624542283" lon="8.48443736264373"><ele>126.0</ele><time>2026-03-28T13:10:40.022Z</time></trkpt><trkpt lat="45.3680098044064" lon="8.48429983032188"><ele>126.25</ele><time>2026-03-28T13:10:41.022Z</time></trkpt><trkpt lat="45.36790452902391" lon="8.48416162331641"><ele>126.5</ele><time>2026-03-28T13:10:42.022Z</time></trkpt><trkpt lat="45.367796550224796" lon="8.484019788007924"><ele>126.75</ele><time>2026-03-28T13:10:43.022Z</time></trkpt><trkpt lat="45.36768379088716" lon="8.483874334502204"><ele>127.0</ele><time>2026-03-28T13:10:44.022Z</time></trkpt><trkpt lat="45.36756925693751" lon="8.48372241897823"><ele>126.33333333333334</ele><time>2026-03-28T13:10:45.022Z</time></trkpt><trkpt lat="45.36744930960887" lon="8.483568086439734"><ele>125.66666666666666</ele><time>2026-03-28T13:10:46.022Z</time></trkpt><trkpt lat="45.36732741281599" lon="8.48341452109988"><ele>125.0</ele><time>2026-03-28T13:10:47.022Z</time></trkpt><trkpt lat="45.367206183114014" lon="8.48325329574022"><ele>125.66666666666666</ele><time>2026-03-28T13:10:48.022Z</time></trkpt><trkpt lat="45.36708043439604" lon="8.483096535589869"><ele>126.33333333333334</ele><time>2026-03-28T13:10:49.022Z</time></trkpt><trkpt lat="45.36695939394387" lon="8.482944647206313"><ele>127.0</ele><time>2026-03-28T13:10:50.022Z</time></trkpt><trkpt lat="45.36683851193268" lon="8.482795277074306"><ele>127.5</ele><time>2026-03-28T13:10:51.022Z</time></trkpt><trkpt lat="45.36672598533292" lon="8.482650806236778"><ele>128.0</ele><time>2026-03-28T13:10:52.022Z</time></trkpt><trkpt lat="45.366617199486086" lon="8.482509999938333"><ele>128.5</ele><time>2026-03-28T13:10:53.022Z</time></trkpt><trkpt lat="45.36650837270028" lon="8.482374792775637"><ele>129.0</ele><time>2026-03-28T13:10:54.023Z</time></trkpt><trkpt lat="45.36639481551747" lon="8.482241708391363"><ele>128.66666666666666</ele><time>2026-03-28T13:10:55.023Z</time></trkpt><trkpt lat="45.36628547722676" lon="8.482102839757484"><ele>128.33333333333331</ele><time>2026-03-28T13:10:56.023Z</time></trkpt><trkpt lat="45.36617799649791" lon="8.481955888494724"><ele>128.0</ele><time>2026-03-28T13:10:57.023Z</time></trkpt><trkpt lat="45.36606475361717" lon="8.481806579485212"><ele>127.33333333333333</ele><time>2026-03-28T13:10:58.023Z</time></trkpt><trkpt lat="45.36595084508888" lon="8.481648308510886"><ele>126.66666666666666</ele><time>2026-03-28T13:10:59.023Z</time></trkpt><trkpt lat="45.36583969640897" lon="8.481481832282604"><ele>126.0</ele><time>2026-03-28T13:11:00.023Z</time></trkpt><trkpt lat="45.365733786075715" lon="8.48130721346047"><ele>126.0</ele><time>2026-03-28T13:11:01.023Z</time></trkpt><trkpt lat="45.36562849081293" lon="8.48112567662946"><ele>126.0</ele><time>2026-03-28T13:11:02.023Z</time></trkpt><trkpt lat="45.36553561194032" lon="8.480934344107201"><ele>126.0</ele><time>2026-03-28T13:11:03.023Z</time></trkpt><trkpt lat="45.36544043946935" lon="8.480747704039976"><ele>126.0</ele><time>2026-03-28T13:11:04.023Z</time></trkpt><trkpt lat="45.365345903764656" lon="8.480565585871823"><ele>126.0</ele><time>2026-03-28T13:11:05.023Z</time></trkpt><trkpt lat="45.365257546186704" lon="8.48039386864009"><ele>126.0</ele><time>2026-03-28T13:11:06.023Z</time></trkpt><trkpt lat="45.36517584903079" lon="8.480227110594978"><ele>126.0</ele><time>2026-03-28T13:11:07.023Z</time></trkpt><trkpt lat="45.365096921630254" lon="8.480058121579363"><ele>126.0</ele><time>2026-03-28T13:11:08.023Z</time></trkpt><trkpt lat="45.36502004358823" lon="8.4798885698833"><ele>126.0</ele><time>2026-03-28T13:11:09.023Z</time></trkpt><trkpt lat="45.36495546696768" lon="8.479719402921342"><ele>126.0</ele><time>2026-03-28T13:11:10.023Z</time></trkpt><trkpt lat="45.364906573322386" lon="8.479546603065913"><ele>126.0</ele><time>2026-03-28T13:11:11.023Z</time></trkpt><trkpt lat="45.36488638638101" lon="8.479382046579106"><ele>126.0</ele><time>2026-03-28T13:11:12.023Z</time></trkpt><trkpt lat="45.36490934412528" lon="8.479227784442314"><ele>126.0</ele><time>2026-03-28T13:11:13.023Z</time></trkpt><trkpt lat="45.364959019904646" lon="8.479104885650012"><ele>126.0</ele><time>2026-03-28T13:11:14.023Z</time></trkpt><trkpt lat="45.365019188892454" lon="8.479035766692771"><ele>126.0</ele><time>2026-03-28T13:11:15.023Z</time></trkpt><trkpt lat="45.365090106468934" lon="8.479014277390517"><ele>126.0</ele><time>2026-03-28T13:11:16.023Z</time></trkpt><trkpt lat="45.365161973681374" lon="8.479015353664371"><ele>126.0</ele><time>2026-03-28T13:11:17.023Z</time></trkpt><trkpt lat="45.365232424415396" lon="8.478996194654066"><ele>126.0</ele><time>2026-03-28T13:11:18.023Z</time></trkpt><trkpt lat="45.36527947749368" lon="8.47892876637489"><ele>126.0</ele><time>2026-03-28T13:11:19.023Z</time></trkpt><trkpt lat="45.36529999132603" lon="8.478839071908325"><ele>126.0</ele><time>2026-03-28T13:11:20.023Z</time></trkpt><trkpt lat="45.365290165274175" lon="8.478715726144435"><ele>126.0</ele><time>2026-03-28T13:11:21.023Z</time></trkpt><trkpt lat="45.36524898180083" lon="8.478576771633259"><ele>126.0</ele><time>2026-03-28T13:11:22.023Z</time></trkpt><trkpt lat="45.3652056910511" lon="8.478419997561618"><ele>126.0</ele><time>2026-03-28T13:11:23.023Z</time></trkpt><trkpt lat="45.36519975248858" lon="8.478241446150472"><ele>126.0</ele><time>2026-03-28T13:11:24.023Z</time></trkpt><trkpt lat="45.36521926523597" lon="8.478056343764647"><ele>126.0</ele><time>2026-03-28T13:11:25.023Z</time></trkpt><trkpt lat="45.365228986783315" lon="8.477873378321974"><ele>126.25</ele><time>2026-03-28T13:11:26.023Z</time></trkpt><trkpt lat="45.365204775756226" lon="8.477692948055738"><ele>126.5</ele><time>2026-03-28T13:11:27.024Z</time></trkpt><trkpt lat="45.3651433348086" lon="8.47752584679411"><ele>126.75</ele><time>2026-03-28T13:11:28.024Z</time></trkpt><trkpt lat="45.36505623672184" lon="8.477379252939889"><ele>127.0</ele><time>2026-03-28T13:11:29.024Z</time></trkpt><trkpt lat="45.36493483349444" lon="8.477284287248924"><ele>127.0</ele><time>2026-03-28T13:11:30.024Z</time></trkpt><trkpt lat="45.36480232960815" lon="8.477237814938588"><ele>127.0</ele><time>2026-03-28T13:11:31.024Z</time></trkpt><trkpt lat="45.364661296177104" lon="8.477233176552616"><ele>127.0</ele><time>2026-03-28T13:11:32.024Z</time></trkpt><trkpt lat="45.36452049978347" lon="8.477271206624126"><ele>127.0</ele><time>2026-03-28T13:11:33.024Z</time></trkpt><trkpt lat="45.36438019540288" lon="8.477330464702622"><ele>126.66666666666667</ele><time>2026-03-28T13:11:34.024Z</time></trkpt><trkpt lat="45.364229985921654" lon="8.477405845323315"><ele>126.33333333333334</ele><time>2026-03-28T13:11:35.024Z</time></trkpt><trkpt lat="45.36408158456706" lon="8.47747999659899"><ele>126.0</ele><time>2026-03-28T13:11:36.024Z</time></trkpt><trkpt lat="45.363934323804166" lon="8.47752683267067"><ele>126.0</ele><time>2026-03-28T13:11:37.024Z</time></trkpt><trkpt lat="45.36378611488718" lon="8.477543585900136"><ele>126.0</ele><time>2026-03-28T13:11:38.024Z</time></trkpt><trkpt lat="45.363633924868694" lon="8.477530261936197"><ele>126.0</ele><time>2026-03-28T13:11:39.024Z</time></trkpt><trkpt lat="45.36348807773731" lon="8.477492095211911"><ele>126.0</ele><time>2026-03-28T13:11:40.024Z</time></trkpt><trkpt lat="45.36334481793777" lon="8.477454839713515"><ele>126.0</ele><time>2026-03-28T13:11:41.024Z</time></trkpt><trkpt lat="45.363208490201906" lon="8.477419105487575"><ele>126.0</ele><time>2026-03-28T13:11:42.024Z</time></trkpt><trkpt lat="45.36308041203618" lon="8.477370657496554"><ele>126.0</ele><time>2026-03-28T13:11:43.024Z</time></trkpt><trkpt lat="45.36296185741138" lon="8.477298930919147"><ele>126.0</ele><time>2026-03-28T13:11:44.024Z</time></trkpt><trkpt lat="45.3628492163638" lon="8.477199544863137"><ele>125.5</ele><time>2026-03-28T13:11:45.024Z</time></trkpt><trkpt lat="45.36274239436791" lon="8.477082642685431"><ele>125.0</ele><time>2026-03-28T13:11:46.024Z</time></trkpt><trkpt lat="45.362627878473795" lon="8.476974535940974"><ele>124.5</ele><time>2026-03-28T13:11:47.024Z</time></trkpt><trkpt lat="45.36250100763639" lon="8.476898980131624"><ele>124.0</ele><time>2026-03-28T13:11:48.024Z</time></trkpt><trkpt lat="45.362375611522324" lon="8.476822385857076"><ele>124.0</ele><time>2026-03-28T13:11:49.024Z</time></trkpt><trkpt lat="45.362271481367785" lon="8.476708644676586"><ele>124.0</ele><time>2026-03-28T13:11:50.024Z</time></trkpt><trkpt lat="45.362184322011636" lon="8.476570721900805"><ele>124.0</ele><time>2026-03-28T13:11:51.024Z</time></trkpt><trkpt lat="45.36209321296588" lon="8.476427852016473"><ele>124.0</ele><time>2026-03-28T13:11:52.024Z</time></trkpt><trkpt lat="45.36199550873072" lon="8.476270413940723"><ele>124.66666666666667</ele><time>2026-03-28T13:11:53.024Z</time></trkpt><trkpt lat="45.361893164657104" lon="8.476102908467247"><ele>125.33333333333334</ele><time>2026-03-28T13:11:54.024Z</time></trkpt><trkpt lat="45.36178136516516" lon="8.475926839945418"><ele>126.0</ele><time>2026-03-28T13:11:55.024Z</time></trkpt><trkpt lat="45.361662029376596" lon="8.47574078987569"><ele>126.0</ele><time>2026-03-28T13:11:56.024Z</time></trkpt><trkpt lat="45.361540603257964" lon="8.475548128605736"><ele>126.0</ele><time>2026-03-28T13:11:57.024Z</time></trkpt><trkpt lat="45.361422415051095" lon="8.475364724027415"><ele>126.0</ele><time>2026-03-28T13:11:58.024Z</time></trkpt><trkpt lat="45.36129966162706" lon="8.475174675573925"><ele>126.33333333333334</ele><time>2026-03-28T13:11:59.024Z</time></trkpt><trkpt lat="45.36117531695116" lon="8.474983131805882"><ele>126.66666666666667</ele><time>2026-03-28T13:12:00.024Z</time></trkpt><trkpt lat="45.36104953955253" lon="8.474788045738212"><ele>127.0</ele><time>2026-03-28T13:12:01.023Z</time></trkpt><trkpt lat="45.36092204523555" lon="8.47458986412929"><ele>127.0</ele><time>2026-03-28T13:12:02.023Z</time></trkpt><trkpt lat="45.360795548649506" lon="8.47439422943369"><ele>127.0</ele><time>2026-03-28T13:12:03.023Z</time></trkpt><trkpt lat="45.3606749500472" lon="8.474206049703696"><ele>127.0</ele><time>2026-03-28T13:12:04.023Z</time></trkpt><trkpt lat="45.360557879677735" lon="8.474021139464613"><ele>127.0</ele><time>2026-03-28T13:12:05.023Z</time></trkpt><trkpt lat="45.36044316948265" lon="8.473842786619612"><ele>127.0</ele><time>2026-03-28T13:12:06.023Z</time></trkpt><trkpt lat="45.36032950482835" lon="8.473666694685814"><ele>127.0</ele><time>2026-03-28T13:12:07.023Z</time></trkpt><trkpt lat="45.360216555229854" lon="8.473492777337036"><ele>127.0</ele><time>2026-03-28T13:12:08.023Z</time></trkpt><trkpt lat="45.36010316897637" lon="8.473320770840479"><ele>127.0</ele><time>2026-03-28T13:12:09.023Z</time></trkpt><trkpt lat="45.35999461942741" lon="8.47314709022195"><ele>127.0</ele><time>2026-03-28T13:12:10.023Z</time></trkpt><trkpt lat="45.359889910066286" lon="8.472973713851546"><ele>127.0</ele><time>2026-03-28T13:12:11.023Z</time></trkpt><trkpt lat="45.35978811426017" lon="8.47280512017356"><ele>127.0</ele><time>2026-03-28T13:12:12.023Z</time></trkpt><trkpt lat="45.35968915707498" lon="8.472641136091386"><ele>127.0</ele><time>2026-03-28T13:12:13.023Z</time></trkpt><trkpt lat="45.359588052753296" lon="8.47248028215502"><ele>127.0</ele><time>2026-03-28T13:12:14.023Z</time></trkpt><trkpt lat="45.359490589482846" lon="8.47231087125196"><ele>127.0</ele><time>2026-03-28T13:12:15.023Z</time></trkpt><trkpt lat="45.359406738918054" lon="8.472123685101115"><ele>127.0</ele><time>2026-03-28T13:12:16.023Z</time></trkpt><trkpt lat="45.359333323744266" lon="8.471927410354914"><ele>127.0</ele><time>2026-03-28T13:12:17.023Z</time></trkpt><trkpt lat="45.35929662663528" lon="8.471719836189237"><ele>127.0</ele><time>2026-03-28T13:12:18.023Z</time></trkpt><trkpt lat="45.35928885933176" lon="8.47151029252091"><ele>127.0</ele><time>2026-03-28T13:12:19.023Z</time></trkpt><trkpt lat="45.359292225132705" lon="8.471299989901363"><ele>127.0</ele><time>2026-03-28T13:12:20.023Z</time></trkpt><trkpt lat="45.359304230838426" lon="8.471085866334452"><ele>127.0</ele><time>2026-03-28T13:12:21.023Z</time></trkpt><trkpt lat="45.359320301760036" lon="8.47087068957251"><ele>127.0</ele><time>2026-03-28T13:12:22.023Z</time></trkpt><trkpt lat="45.359332983586114" lon="8.470653459779566"><ele>127.0</ele><time>2026-03-28T13:12:23.023Z</time></trkpt><trkpt lat="45.359346645514805" lon="8.470446892055563"><ele>127.5</ele><time>2026-03-28T13:12:24.023Z</time></trkpt><trkpt lat="45.359362156985" lon="8.47025426414438"><ele>128.0</ele><time>2026-03-28T13:12:25.023Z</time></trkpt><trkpt lat="45.35937724151093" lon="8.470076709493519"><ele>128.5</ele><time>2026-03-28T13:12:26.024Z</time></trkpt><trkpt lat="45.359393056181986" lon="8.469908023446571"><ele>129.0</ele><time>2026-03-28T13:12:27.024Z</time></trkpt><trkpt lat="45.3594049552842" lon="8.469746234218903"><ele>129.2</ele><time>2026-03-28T13:12:28.024Z</time></trkpt><trkpt lat="45.35941220619479" lon="8.469593083302794"><ele>129.4</ele><time>2026-03-28T13:12:29.024Z</time></trkpt><trkpt lat="45.359411317885886" lon="8.469457397130125"><ele>129.6</ele><time>2026-03-28T13:12:30.024Z</time></trkpt><trkpt lat="45.359407848027196" lon="8.469326275440057"><ele>129.8</ele><time>2026-03-28T13:12:31.024Z</time></trkpt><trkpt lat="45.35937436367043" lon="8.469206757720666"><ele>130.0</ele><time>2026-03-28T13:12:32.024Z</time></trkpt><trkpt lat="45.35934293620988" lon="8.469106961083288"><ele>130.0</ele><time>2026-03-28T13:12:33.024Z</time></trkpt><trkpt lat="45.359274881186295" lon="8.469020469597588"><ele>130.0</ele><time>2026-03-28T13:12:34.024Z</time></trkpt><trkpt lat="45.35918125355691" lon="8.468940376298802"><ele>130.0</ele><time>2026-03-28T13:12:35.024Z</time></trkpt><trkpt lat="45.35908696762066" lon="8.468849729038547"><ele>130.0</ele><time>2026-03-28T13:12:36.024Z</time></trkpt><trkpt lat="45.35898811404218" lon="8.468750409970733"><ele>130.0</ele><time>2026-03-28T13:12:37.024Z</time></trkpt><trkpt lat="45.358892931228326" lon="8.468642759904348"><ele>129.25</ele><time>2026-03-28T13:12:38.024Z</time></trkpt><trkpt lat="45.358798652922545" lon="8.46852596685447"><ele>128.5</ele><time>2026-03-28T13:12:39.024Z</time></trkpt><trkpt lat="45.35871045974453" lon="8.468396503160545"><ele>127.75</ele><time>2026-03-28T13:12:40.024Z</time></trkpt><trkpt lat="45.35862195701092" lon="8.468264375924004"><ele>127.0</ele><time>2026-03-28T13:12:41.024Z</time></trkpt><trkpt lat="45.35853736815802" lon="8.46812042711235"><ele>127.0</ele><time>2026-03-28T13:12:42.024Z</time></trkpt><trkpt lat="45.35845498969168" lon="8.467972014914732"><ele>127.0</ele><time>2026-03-28T13:12:43.024Z</time></trkpt><trkpt lat="45.358373963944814" lon="8.467820316945048"><ele>127.0</ele><time>2026-03-28T13:12:44.024Z</time></trkpt><trkpt lat="45.3582949955661" lon="8.467670973483278"><ele>127.0</ele><time>2026-03-28T13:12:45.024Z</time></trkpt><trkpt lat="45.35820923198139" lon="8.467526909956728"><ele>127.25</ele><time>2026-03-28T13:12:46.024Z</time></trkpt><trkpt lat="45.35812350992701" lon="8.467382069913269"><ele>127.5</ele><time>2026-03-28T13:12:47.024Z</time></trkpt><trkpt lat="45.35804519591087" lon="8.467233849203797"><ele>127.75</ele><time>2026-03-28T13:12:48.024Z</time></trkpt><trkpt lat="45.35797416183592" lon="8.467092680998093"><ele>128.0</ele><time>2026-03-28T13:12:49.024Z</time></trkpt><trkpt lat="45.357912105951506" lon="8.466945819761522"><ele>128.0</ele><time>2026-03-28T13:12:50.024Z</time></trkpt><trkpt lat="45.35785043792592" lon="8.466797518764572"><ele>128.0</ele><time>2026-03-28T13:12:51.024Z</time></trkpt><trkpt lat="45.35778221200476" lon="8.466661059910656"><ele>128.0</ele><time>2026-03-28T13:12:52.024Z</time></trkpt><trkpt lat="45.35769926124536" lon="8.466541343735742"><ele>128.0</ele><time>2026-03-28T13:12:53.024Z</time></trkpt><trkpt lat="45.35760745350608" lon="8.466436888326289"><ele>128.0</ele><time>2026-03-28T13:12:54.024Z</time></trkpt><trkpt lat="45.35749599368253" lon="8.466356093136834"><ele>128.0</ele><time>2026-03-28T13:12:55.024Z</time></trkpt><trkpt lat="45.35738195515334" lon="8.466286920226564"><ele>128.0</ele><time>2026-03-28T13:12:56.024Z</time></trkpt><trkpt lat="45.35726992772524" lon="8.466220385936847"><ele>128.0</ele><time>2026-03-28T13:12:57.024Z</time></trkpt><trkpt lat="45.357150296148674" lon="8.466145708204321"><ele>127.75</ele><time>2026-03-28T13:12:58.024Z</time></trkpt><trkpt lat="45.357036969737564" lon="8.466037807245046"><ele>127.5</ele><time>2026-03-28T13:12:59.024Z</time></trkpt><trkpt lat="45.356923412573835" lon="8.465914807808026"><ele>127.25</ele><time>2026-03-28T13:13:00.025Z</time></trkpt><trkpt lat="45.35680599788925" lon="8.465787924706914"><ele>127.0</ele><time>2026-03-28T13:13:01.025Z</time></trkpt><trkpt lat="45.35669040037575" lon="8.465657178931037"><ele>127.0</ele><time>2026-03-28T13:13:02.025Z</time></trkpt><trkpt lat="45.35657513730021" lon="8.465514817296517"><ele>127.0</ele><time>2026-03-28T13:13:03.025Z</time></trkpt><trkpt lat="45.356451066657414" lon="8.465389271228613"><ele>127.0</ele><time>2026-03-28T13:13:04.025Z</time></trkpt><trkpt lat="45.3563435629919" lon="8.465260541304882"><ele>127.0</ele><time>2026-03-28T13:13:05.025Z</time></trkpt><trkpt lat="45.35624838580877" lon="8.465122571260316"><ele>126.5</ele><time>2026-03-28T13:13:06.025Z</time></trkpt><trkpt lat="45.356158439955664" lon="8.46499731625874"><ele>126.0</ele><time>2026-03-28T13:13:07.025Z</time></trkpt><trkpt lat="45.3560614415685" lon="8.464871649597043"><ele>125.5</ele><time>2026-03-28T13:13:08.025Z</time></trkpt><trkpt lat="45.35596252937642" lon="8.464740614855183"><ele>125.0</ele><time>2026-03-28T13:13:09.025Z</time></trkpt><trkpt lat="45.35587038819021" lon="8.46461094011149"><ele>125.0</ele><time>2026-03-28T13:13:10.025Z</time></trkpt><trkpt lat="45.355774706640226" lon="8.464480953071293"><ele>125.0</ele><time>2026-03-28T13:13:11.025Z</time></trkpt><trkpt lat="45.35567420368366" lon="8.464353127798313"><ele>125.0</ele><time>2026-03-28T13:13:12.025Z</time></trkpt><trkpt lat="45.35557258419201" lon="8.464232135211352"><ele>125.0</ele><time>2026-03-28T13:13:13.025Z</time></trkpt><trkpt lat="45.355477348362164" lon="8.464115375881994"><ele>125.0</ele><time>2026-03-28T13:13:14.025Z</time></trkpt><trkpt lat="45.35539249773612" lon="8.463998644184583"><ele>125.0</ele><time>2026-03-28T13:13:15.025Z</time></trkpt><trkpt lat="45.35530371243989" lon="8.463873212672242"><ele>125.0</ele><time>2026-03-28T13:13:16.025Z</time></trkpt><trkpt lat="45.355210832726044" lon="8.463742291867492"><ele>125.0</ele><time>2026-03-28T13:13:17.025Z</time></trkpt><trkpt lat="45.355113095446285" lon="8.46360864791886"><ele>125.0</ele><time>2026-03-28T13:13:18.025Z</time></trkpt><trkpt lat="45.35500962967849" lon="8.463474661640296"><ele>125.0</ele><time>2026-03-28T13:13:19.025Z</time></trkpt><trkpt lat="45.35490158238943" lon="8.463339115986042"><ele>125.0</ele><time>2026-03-28T13:13:20.025Z</time></trkpt><trkpt lat="45.35478928507947" lon="8.46319909705164"><ele>125.0</ele><time>2026-03-28T13:13:21.025Z</time></trkpt><trkpt lat="45.354673775588076" lon="8.463048898603176"><ele>125.33333333333333</ele><time>2026-03-28T13:13:22.025Z</time></trkpt><trkpt lat="45.35455712900147" lon="8.462894921656451"><ele>125.66666666666666</ele><time>2026-03-28T13:13:23.025Z</time></trkpt><trkpt lat="45.35443495996516" lon="8.462739772822205"><ele>126.0</ele><time>2026-03-28T13:13:24.025Z</time></trkpt><trkpt lat="45.35431104176828" lon="8.46257884739909"><ele>126.0</ele><time>2026-03-28T13:13:25.025Z</time></trkpt><trkpt lat="45.354185711498445" lon="8.462412302259974"><ele>126.0</ele><time>2026-03-28T13:13:26.025Z</time></trkpt><trkpt lat="45.35405700625789" lon="8.462244244549925"><ele>126.0</ele><time>2026-03-28T13:13:27.025Z</time></trkpt><trkpt lat="45.353926668457596" lon="8.462077253861512"><ele>125.66666666666666</ele><time>2026-03-28T13:13:28.025Z</time></trkpt><trkpt lat="45.353791575868435" lon="8.461908872000132"><ele>125.33333333333333</ele><time>2026-03-28T13:13:29.025Z</time></trkpt><trkpt lat="45.35365782864988" lon="8.461737003605698"><ele>125.0</ele><time>2026-03-28T13:13:30.025Z</time></trkpt><trkpt lat="45.353526941224466" lon="8.461560463075525"><ele>125.0</ele><time>2026-03-28T13:13:31.025Z</time></trkpt><trkpt lat="45.35339812175157" lon="8.461388356927191"><ele>125.0</ele><time>2026-03-28T13:13:32.025Z</time></trkpt><trkpt lat="45.35327336057626" lon="8.461221495625601"><ele>125.0</ele><time>2026-03-28T13:13:33.026Z</time></trkpt><trkpt lat="45.353150016656514" lon="8.461062488284346"><ele>124.66666666666666</ele><time>2026-03-28T13:13:34.026Z</time></trkpt><trkpt lat="45.35302236601212" lon="8.46090194881233"><ele>124.33333333333334</ele><time>2026-03-28T13:13:35.026Z</time></trkpt><trkpt lat="45.352899137799504" lon="8.460741838683136"><ele>124.0</ele><time>2026-03-28T13:13:36.026Z</time></trkpt><trkpt lat="45.35277501091491" lon="8.460585838884974"><ele>124.5</ele><time>2026-03-28T13:13:37.026Z</time></trkpt><trkpt lat="45.35266095590675" lon="8.460435078091589"><ele>125.0</ele><time>2026-03-28T13:13:38.026Z</time></trkpt><trkpt lat="45.35255250807514" lon="8.46028989163021"><ele>125.5</ele><time>2026-03-28T13:13:39.026Z</time></trkpt><trkpt lat="45.35245581535001" lon="8.460157217148923"><ele>126.0</ele><time>2026-03-28T13:13:40.026Z</time></trkpt><trkpt lat="45.35236828074736" lon="8.460037445897669"><ele>126.0</ele><time>2026-03-28T13:13:41.026Z</time></trkpt><trkpt lat="45.352295858649114" lon="8.459927631094"><ele>126.0</ele><time>2026-03-28T13:13:42.026Z</time></trkpt><trkpt lat="45.352242362687136" lon="8.45982774190989"><ele>126.0</ele><time>2026-03-28T13:13:43.026Z</time></trkpt><trkpt lat="45.35220119717838" lon="8.459741482651204"><ele>126.0</ele><time>2026-03-28T13:13:44.026Z</time></trkpt><trkpt lat="45.35215743995443" lon="8.4596144575158"><ele>126.0</ele><time>2026-03-28T13:13:46.026Z</time></trkpt><trkpt lat="45.35214872167813" lon="8.459507073462484"><ele>126.0</ele><time>2026-03-28T13:13:48.026Z</time></trkpt><trkpt lat="45.352159739330666" lon="8.459359364740893"><ele>126.0</ele><time>2026-03-28T13:13:50.026Z</time></trkpt><trkpt lat="45.352127770209606" lon="8.459185559115488"><ele>126.0</ele><time>2026-03-28T13:13:52.026Z</time></trkpt><trkpt lat="45.35208230285266" lon="8.459117749106586"><ele>126.0</ele><time>2026-03-28T13:13:53.026Z</time></trkpt><trkpt lat="45.352007521109385" lon="8.4590993782759"><ele>126.0</ele><time>2026-03-28T13:13:54.026Z</time></trkpt><trkpt lat="45.35192465459339" lon="8.459120297389433"><ele>126.0</ele><time>2026-03-28T13:13:55.026Z</time></trkpt><trkpt lat="45.351838987601596" lon="8.459152678856364"><ele>126.0</ele><time>2026-03-28T13:13:56.026Z</time></trkpt><trkpt lat="45.35174381744746" lon="8.45914893734255"><ele>126.0</ele><time>2026-03-28T13:13:57.026Z</time></trkpt><trkpt lat="45.35164595094479" lon="8.45908716410696"><ele>126.0</ele><time>2026-03-28T13:13:58.026Z</time></trkpt><trkpt lat="45.35154088361117" lon="8.458980343799242"><ele>126.0</ele><time>2026-03-28T13:13:59.026Z</time></trkpt><trkpt lat="45.35143340423218" lon="8.458835304442967"><ele>126.0</ele><time>2026-03-28T13:14:00.026Z</time></trkpt><trkpt lat="45.35132084922159" lon="8.458680059468456"><ele>125.33333333333334</ele><time>2026-03-28T13:14:01.026Z</time></trkpt><trkpt lat="45.35121065432768" lon="8.4585369622025"><ele>124.66666666666667</ele><time>2026-03-28T13:14:02.026Z</time></trkpt><trkpt lat="45.3510867285501" lon="8.458382188335358"><ele>124.0</ele><time>2026-03-28T13:14:03.026Z</time></trkpt><trkpt lat="45.35096286722616" lon="8.458222297970162"><ele>124.0</ele><time>2026-03-28T13:14:04.026Z</time></trkpt><trkpt lat="45.35084436724046" lon="8.458066840888335"><ele>124.0</ele><time>2026-03-28T13:14:05.026Z</time></trkpt><trkpt lat="45.35071808735614" lon="8.457905281723622"><ele>124.0</ele><time>2026-03-28T13:14:06.027Z</time></trkpt><trkpt lat="45.35058789899955" lon="8.457739048770174"><ele>123.33333333333334</ele><time>2026-03-28T13:14:07.025Z</time></trkpt><trkpt lat="45.35045368381673" lon="8.457564014382788"><ele>122.66666666666666</ele><time>2026-03-28T13:14:08.024Z</time></trkpt><trkpt lat="45.3503230422981" lon="8.457395515313525"><ele>122.0</ele><time>2026-03-28T13:14:09.024Z</time></trkpt><trkpt lat="45.35019276498572" lon="8.45722694706849"><ele>122.66666666666666</ele><time>2026-03-28T13:14:10.025Z</time></trkpt><trkpt lat="45.350060005738825" lon="8.457052891244704"><ele>123.33333333333334</ele><time>2026-03-28T13:14:11.025Z</time></trkpt><trkpt lat="45.34992512044977" lon="8.456877158975388"><ele>124.0</ele><time>2026-03-28T13:14:12.025Z</time></trkpt><trkpt lat="45.349788213520235" lon="8.456702303292744"><ele>124.0</ele><time>2026-03-28T13:14:13.025Z</time></trkpt><trkpt lat="45.3496509975256" lon="8.456526250109622"><ele>124.0</ele><time>2026-03-28T13:14:14.025Z</time></trkpt><trkpt lat="45.34951229957371" lon="8.45635191624092"><ele>124.0</ele><time>2026-03-28T13:14:15.025Z</time></trkpt><trkpt lat="45.349372119682215" lon="8.456180878637694"><ele>124.0</ele><time>2026-03-28T13:14:16.025Z</time></trkpt><trkpt lat="45.3492322545366" lon="8.456005258690183"><ele>124.0</ele><time>2026-03-28T13:14:17.025Z</time></trkpt><trkpt lat="45.34909301826402" lon="8.455825691529949"><ele>124.0</ele><time>2026-03-28T13:14:18.025Z</time></trkpt><trkpt lat="45.348954983373574" lon="8.455646168557497"><ele>124.0</ele><time>2026-03-28T13:14:19.025Z</time></trkpt><trkpt lat="45.348818362684085" lon="8.455468784681004"><ele>124.0</ele><time>2026-03-28T13:14:20.025Z</time></trkpt><trkpt lat="45.348679213238896" lon="8.45529190850656"><ele>124.0</ele><time>2026-03-28T13:14:21.025Z</time></trkpt><trkpt lat="45.34853957777767" lon="8.45511325429577"><ele>124.33333333333334</ele><time>2026-03-28T13:14:22.025Z</time></trkpt><trkpt lat="45.34839886290255" lon="8.454935044686444"><ele>124.66666666666666</ele><time>2026-03-28T13:14:23.025Z</time></trkpt><trkpt lat="45.348261065146296" lon="8.454753244575738"><ele>125.0</ele><time>2026-03-28T13:14:24.025Z</time></trkpt><trkpt lat="45.34811543625529" lon="8.454578058091005"><ele>125.0</ele><time>2026-03-28T13:14:25.025Z</time></trkpt><trkpt lat="45.34797299292392" lon="8.454400433354698"><ele>125.0</ele><time>2026-03-28T13:14:26.025Z</time></trkpt><trkpt lat="45.34783491627705" lon="8.454217504114174"><ele>125.0</ele><time>2026-03-28T13:14:27.025Z</time></trkpt><trkpt lat="45.3476954838998" lon="8.454035332965178"><ele>125.0</ele><time>2026-03-28T13:14:28.025Z</time></trkpt><trkpt lat="45.347554835053614" lon="8.453851633848085"><ele>125.0</ele><time>2026-03-28T13:14:29.026Z</time></trkpt><trkpt lat="45.3474134243777" lon="8.45366960256661"><ele>125.0</ele><time>2026-03-28T13:14:30.026Z</time></trkpt><trkpt lat="45.34726838266995" lon="8.453485757453114"><ele>125.33333333333333</ele><time>2026-03-28T13:14:31.026Z</time></trkpt><trkpt lat="45.34712406601718" lon="8.453304025523124"><ele>125.66666666666666</ele><time>2026-03-28T13:14:32.026Z</time></trkpt><trkpt lat="45.34698671063592" lon="8.453124838854471"><ele>126.0</ele><time>2026-03-28T13:14:33.026Z</time></trkpt><trkpt lat="45.34685907731898" lon="8.452952725602204"><ele>125.33333333333334</ele><time>2026-03-28T13:14:34.026Z</time></trkpt><trkpt lat="45.346733062810735" lon="8.452785101764771"><ele>124.66666666666667</ele><time>2026-03-28T13:14:35.026Z</time></trkpt><trkpt lat="45.34660158148825" lon="8.452623221586462"><ele>124.0</ele><time>2026-03-28T13:14:36.026Z</time></trkpt><trkpt lat="45.34646369327635" lon="8.452478133135388"><ele>124.33333333333334</ele><time>2026-03-28T13:14:37.026Z</time></trkpt><trkpt lat="45.34631079436928" lon="8.452376751834013"><ele>124.66666666666666</ele><time>2026-03-28T13:14:38.026Z</time></trkpt><trkpt lat="45.346146548845894" lon="8.452329318978942"><ele>125.0</ele><time>2026-03-28T13:14:39.026Z</time></trkpt><trkpt lat="45.345974610968625" lon="8.452328922985142"><ele>125.0</ele><time>2026-03-28T13:14:40.026Z</time></trkpt><trkpt lat="45.345800811396444" lon="8.45233372190442"><ele>125.0</ele><time>2026-03-28T13:14:41.026Z</time></trkpt><trkpt lat="45.34562314149673" lon="8.452328340637242"><ele>125.0</ele><time>2026-03-28T13:14:42.026Z</time></trkpt><trkpt lat="45.345443199239895" lon="8.452322819746843"><ele>125.0</ele><time>2026-03-28T13:14:43.026Z</time></trkpt><trkpt lat="45.345258833508105" lon="8.452315694990313"><ele>125.0</ele><time>2026-03-28T13:14:44.026Z</time></trkpt><trkpt lat="45.345068225398585" lon="8.452305792505436"><ele>125.0</ele><time>2026-03-28T13:14:45.026Z</time></trkpt><trkpt lat="45.344875487916696" lon="8.452299999370778"><ele>124.33333333333333</ele><time>2026-03-28T13:14:46.026Z</time></trkpt><trkpt lat="45.34467932377806" lon="8.452294640992852"><ele>123.66666666666666</ele><time>2026-03-28T13:14:47.026Z</time></trkpt><trkpt lat="45.344480560374066" lon="8.452289020439466"><ele>123.0</ele><time>2026-03-28T13:14:48.026Z</time></trkpt><trkpt lat="45.34427749110915" lon="8.452283394153191"><ele>123.0</ele><time>2026-03-28T13:14:49.026Z</time></trkpt><trkpt lat="45.34407211034994" lon="8.452279500720637"><ele>123.0</ele><time>2026-03-28T13:14:50.026Z</time></trkpt><trkpt lat="45.343864550021735" lon="8.452275163418511"><ele>123.0</ele><time>2026-03-28T13:14:51.026Z</time></trkpt><trkpt lat="45.343654579916354" lon="8.452269994329361"><ele>122.66666666666666</ele><time>2026-03-28T13:14:52.026Z</time></trkpt><trkpt lat="45.34344213933966" lon="8.4522699518382"><ele>122.33333333333333</ele><time>2026-03-28T13:14:53.026Z</time></trkpt><trkpt lat="45.34323658547893" lon="8.452265805423417"><ele>122.0</ele><time>2026-03-28T13:14:54.026Z</time></trkpt><trkpt lat="45.34303703347026" lon="8.452259096077295"><ele>122.0</ele><time>2026-03-28T13:14:55.026Z</time></trkpt><trkpt lat="45.342841687725176" lon="8.45224909537318"><ele>122.0</ele><time>2026-03-28T13:14:56.026Z</time></trkpt><trkpt lat="45.34265059407411" lon="8.452239328420806"><ele>122.0</ele><time>2026-03-28T13:14:57.026Z</time></trkpt><trkpt lat="45.34246022744185" lon="8.452235772360156"><ele>122.0</ele><time>2026-03-28T13:14:58.026Z</time></trkpt><trkpt lat="45.34227419635" lon="8.452233858542023"><ele>122.0</ele><time>2026-03-28T13:14:59.026Z</time></trkpt><trkpt lat="45.342089448009006" lon="8.452231041145435"><ele>122.0</ele><time>2026-03-28T13:15:00.026Z</time></trkpt><trkpt lat="45.34190730825365" lon="8.452223804233476"><ele>123.0</ele><time>2026-03-28T13:15:01.026Z</time></trkpt><trkpt lat="45.341735749555745" lon="8.452215547834063"><ele>124.0</ele><time>2026-03-28T13:15:02.026Z</time></trkpt><trkpt lat="45.3415731328892" lon="8.4522094163772"><ele>125.0</ele><time>2026-03-28T13:15:03.027Z</time></trkpt><trkpt lat="45.34141711831006" lon="8.452202977368799"><ele>124.75</ele><time>2026-03-28T13:15:04.027Z</time></trkpt><trkpt lat="45.34127143598407" lon="8.452196110467316"><ele>124.5</ele><time>2026-03-28T13:15:05.027Z</time></trkpt><trkpt lat="45.34114218079937" lon="8.452182271930841"><ele>124.25</ele><time>2026-03-28T13:15:06.027Z</time></trkpt><trkpt lat="45.341024696372756" lon="8.452148501631275"><ele>124.0</ele><time>2026-03-28T13:15:07.027Z</time></trkpt><trkpt lat="45.34092143271837" lon="8.452100189377209"><ele>124.0</ele><time>2026-03-28T13:15:08.027Z</time></trkpt><trkpt lat="45.3408211723434" lon="8.452045560260142"><ele>124.0</ele><time>2026-03-28T13:15:09.027Z</time></trkpt><trkpt lat="45.34071545123137" lon="8.452010875349858"><ele>124.0</ele><time>2026-03-28T13:15:10.027Z</time></trkpt><trkpt lat="45.34059873488565" lon="8.452015249037439"><ele>124.0</ele><time>2026-03-28T13:15:11.027Z</time></trkpt><trkpt lat="45.340482108166725" lon="8.452032768067305"><ele>124.0</ele><time>2026-03-28T13:15:12.027Z</time></trkpt><trkpt lat="45.34035302628365" lon="8.452020871924539"><ele>124.0</ele><time>2026-03-28T13:15:13.027Z</time></trkpt><trkpt lat="45.34021729236699" lon="8.451983821473203"><ele>124.0</ele><time>2026-03-28T13:15:14.027Z</time></trkpt><trkpt lat="45.34007283511198" lon="8.451930528752525"><ele>124.0</ele><time>2026-03-28T13:15:15.027Z</time></trkpt><trkpt lat="45.33992107470546" lon="8.451879334642825"><ele>124.0</ele><time>2026-03-28T13:15:16.027Z</time></trkpt><trkpt lat="45.339760442629036" lon="8.451822479076675"><ele>124.0</ele><time>2026-03-28T13:15:17.027Z</time></trkpt><trkpt lat="45.33959841604197" lon="8.451763659111093"><ele>124.0</ele><time>2026-03-28T13:15:18.027Z</time></trkpt><trkpt lat="45.33942956811807" lon="8.451701863730051"><ele>123.66666666666667</ele><time>2026-03-28T13:15:19.027Z</time></trkpt><trkpt lat="45.339257582051324" lon="8.451636497447279"><ele>123.33333333333334</ele><time>2026-03-28T13:15:20.027Z</time></trkpt><trkpt lat="45.33908814156792" lon="8.451570151886285"><ele>123.0</ele><time>2026-03-28T13:15:21.027Z</time></trkpt><trkpt lat="45.33892388300319" lon="8.451506310226286"><ele>122.33333333333334</ele><time>2026-03-28T13:15:22.027Z</time></trkpt><trkpt lat="45.33875696702697" lon="8.451441142503729"><ele>121.66666666666667</ele><time>2026-03-28T13:15:23.027Z</time></trkpt><trkpt lat="45.338587565965035" lon="8.451378549766565"><ele>121.0</ele><time>2026-03-28T13:15:24.027Z</time></trkpt><trkpt lat="45.33841761325358" lon="8.451322493003735"><ele>121.33333333333334</ele><time>2026-03-28T13:15:25.027Z</time></trkpt><trkpt lat="45.33825121144977" lon="8.451271068316508"><ele>121.66666666666666</ele><time>2026-03-28T13:15:26.027Z</time></trkpt><trkpt lat="45.33809380456325" lon="8.45121562645306"><ele>122.0</ele><time>2026-03-28T13:15:27.027Z</time></trkpt><trkpt lat="45.33794234766083" lon="8.451153478928694"><ele>122.0</ele><time>2026-03-28T13:15:28.027Z</time></trkpt><trkpt lat="45.337800832978274" lon="8.451091231444032"><ele>122.0</ele><time>2026-03-28T13:15:29.027Z</time></trkpt><trkpt lat="45.33765875757426" lon="8.45102764978691"><ele>122.0</ele><time>2026-03-28T13:15:30.027Z</time></trkpt><trkpt lat="45.337513155591466" lon="8.45096980095692"><ele>122.0</ele><time>2026-03-28T13:15:31.027Z</time></trkpt><trkpt lat="45.33736446688143" lon="8.450911532119337"><ele>122.0</ele><time>2026-03-28T13:15:32.027Z</time></trkpt><trkpt lat="45.337213720886744" lon="8.450855205692067"><ele>122.0</ele><time>2026-03-28T13:15:33.027Z</time></trkpt><trkpt lat="45.33706131060922" lon="8.450794889449881"><ele>122.0</ele><time>2026-03-28T13:15:34.027Z</time></trkpt><trkpt lat="45.33690961934946" lon="8.450732525260639"><ele>122.0</ele><time>2026-03-28T13:15:35.027Z</time></trkpt><trkpt lat="45.33675534260525" lon="8.450670341881057"><ele>122.0</ele><time>2026-03-28T13:15:36.028Z</time></trkpt><trkpt lat="45.3366001625238" lon="8.450608436541781"><ele>122.0</ele><time>2026-03-28T13:15:37.028Z</time></trkpt><trkpt lat="45.336442952788445" lon="8.45054247224744"><ele>122.33333333333333</ele><time>2026-03-28T13:15:38.028Z</time></trkpt><trkpt lat="45.33628818731599" lon="8.450472702055244"><ele>122.66666666666666</ele><time>2026-03-28T13:15:39.028Z</time></trkpt><trkpt lat="45.336127135883366" lon="8.450408425849837"><ele>123.0</ele><time>2026-03-28T13:15:40.028Z</time></trkpt><trkpt lat="45.33595969493449" lon="8.45034291347697"><ele>123.0</ele><time>2026-03-28T13:15:41.028Z</time></trkpt><trkpt lat="45.335790193658454" lon="8.450274195492776"><ele>123.0</ele><time>2026-03-28T13:15:42.028Z</time></trkpt><trkpt lat="45.33561659330873" lon="8.450207754971709"><ele>123.0</ele><time>2026-03-28T13:15:43.028Z</time></trkpt><trkpt lat="45.33543546157651" lon="8.45014140655571"><ele>123.0</ele><time>2026-03-28T13:15:44.028Z</time></trkpt><trkpt lat="45.335249195076834" lon="8.45007126019939"><ele>123.0</ele><time>2026-03-28T13:15:45.028Z</time></trkpt><trkpt lat="45.33505878412876" lon="8.449998722237945"><ele>123.0</ele><time>2026-03-28T13:15:46.028Z</time></trkpt><trkpt lat="45.334862160520764" lon="8.449920761208054"><ele>123.66666666666666</ele><time>2026-03-28T13:15:47.028Z</time></trkpt><trkpt lat="45.33467309184216" lon="8.449844311434378"><ele>124.33333333333333</ele><time>2026-03-28T13:15:48.028Z</time></trkpt><trkpt lat="45.334481545442166" lon="8.449769527516992"><ele>125.0</ele><time>2026-03-28T13:15:49.028Z</time></trkpt><trkpt lat="45.334287077112585" lon="8.449692823983595"><ele>125.33333333333333</ele><time>2026-03-28T13:15:50.028Z</time></trkpt><trkpt lat="45.33408754432867" lon="8.449615270915132"><ele>125.66666666666666</ele><time>2026-03-28T13:15:51.028Z</time></trkpt><trkpt lat="45.333885496019974" lon="8.449538273438526"><ele>126.0</ele><time>2026-03-28T13:15:52.028Z</time></trkpt><trkpt lat="45.33368088800812" lon="8.449458297781215"><ele>125.33333333333334</ele><time>2026-03-28T13:15:53.028Z</time></trkpt><trkpt lat="45.3334759127731" lon="8.449376681888554"><ele>124.66666666666667</ele><time>2026-03-28T13:15:54.028Z</time></trkpt><trkpt lat="45.33326826585898" lon="8.44929558440952"><ele>124.0</ele><time>2026-03-28T13:15:55.028Z</time></trkpt><trkpt lat="45.33305832127388" lon="8.449217960948438"><ele>124.0</ele><time>2026-03-28T13:15:56.028Z</time></trkpt><trkpt lat="45.33284770580949" lon="8.449137752397297"><ele>124.0</ele><time>2026-03-28T13:15:57.028Z</time></trkpt><trkpt lat="45.33263898644135" lon="8.449057560507573"><ele>124.0</ele><time>2026-03-28T13:15:58.028Z</time></trkpt><trkpt lat="45.332434657712355" lon="8.448976841285164"><ele>124.0</ele><time>2026-03-28T13:15:59.028Z</time></trkpt><trkpt lat="45.33223184924163" lon="8.448895121172056"><ele>124.0</ele><time>2026-03-28T13:16:00.028Z</time></trkpt><trkpt lat="45.33203139826118" lon="8.44881568201577"><ele>124.0</ele><time>2026-03-28T13:16:01.028Z</time></trkpt><trkpt lat="45.331832037827965" lon="8.448737144957091"><ele>124.0</ele><time>2026-03-28T13:16:02.028Z</time></trkpt><trkpt lat="45.33163097506608" lon="8.44865688796865"><ele>124.0</ele><time>2026-03-28T13:16:03.028Z</time></trkpt><trkpt lat="45.33142864912259" lon="8.448575938897816"><ele>124.0</ele><time>2026-03-28T13:16:04.028Z</time></trkpt><trkpt lat="45.331226088937804" lon="8.44849463798551"><ele>123.33333333333334</ele><time>2026-03-28T13:16:05.028Z</time></trkpt><trkpt lat="45.33102190157061" lon="8.448411814977172"><ele>122.66666666666666</ele><time>2026-03-28T13:16:06.028Z</time></trkpt><trkpt lat="45.33081656690115" lon="8.448328620299913"><ele>122.0</ele><time>2026-03-28T13:16:07.028Z</time></trkpt><trkpt lat="45.33060955603574" lon="8.448244830995959"><ele>121.33333333333333</ele><time>2026-03-28T13:16:08.028Z</time></trkpt><trkpt lat="45.330400385261065" lon="8.448160708138934"><ele>120.66666666666666</ele><time>2026-03-28T13:16:09.029Z</time></trkpt><trkpt lat="45.330188393261494" lon="8.448077047388534"><ele>120.0</ele><time>2026-03-28T13:16:10.029Z</time></trkpt><trkpt lat="45.329975463155584" lon="8.447994712798124"><ele>120.66666666666666</ele><time>2026-03-28T13:16:11.029Z</time></trkpt><trkpt lat="45.32976120147219" lon="8.447911774714727"><ele>121.33333333333333</ele><time>2026-03-28T13:16:12.029Z</time></trkpt><trkpt lat="45.3295452270224" lon="8.447826230325175"><ele>122.0</ele><time>2026-03-28T13:16:13.027Z</time></trkpt><trkpt lat="45.329331428231605" lon="8.447740934467552"><ele>122.33333333333333</ele><time>2026-03-28T13:16:14.026Z</time></trkpt><trkpt lat="45.32911873700558" lon="8.447656918141337"><ele>122.66666666666666</ele><time>2026-03-28T13:16:15.026Z</time></trkpt><trkpt lat="45.32890858546464" lon="8.447579966705778"><ele>123.0</ele><time>2026-03-28T13:16:16.027Z</time></trkpt><trkpt lat="45.32869804469036" lon="8.447507588884228"><ele>123.33333333333334</ele><time>2026-03-28T13:16:17.026Z</time></trkpt><trkpt lat="45.32849500259666" lon="8.447432090354384"><ele>123.66666666666667</ele><time>2026-03-28T13:16:18.026Z</time></trkpt><trkpt lat="45.328301803521825" lon="8.447357121424005"><ele>124.0</ele><time>2026-03-28T13:16:19.027Z</time></trkpt><trkpt lat="45.32811634401571" lon="8.447284501680102"><ele>123.66666666666667</ele><time>2026-03-28T13:16:20.027Z</time></trkpt><trkpt lat="45.32793324506847" lon="8.447213409275129"><ele>123.33333333333334</ele><time>2026-03-28T13:16:21.027Z</time></trkpt><trkpt lat="45.32775275958447" lon="8.447144570573569"><ele>123.0</ele><time>2026-03-28T13:16:22.027Z</time></trkpt><trkpt lat="45.327572565994494" lon="8.44707532006635"><ele>123.0</ele><time>2026-03-28T13:16:23.027Z</time></trkpt><trkpt lat="45.3273933941397" lon="8.447004641522364"><ele>123.0</ele><time>2026-03-28T13:16:24.027Z</time></trkpt><trkpt lat="45.32721733731425" lon="8.446920916316877"><ele>123.0</ele><time>2026-03-28T13:16:25.027Z</time></trkpt><trkpt lat="45.327046316154934" lon="8.4468177918121"><ele>123.0</ele><time>2026-03-28T13:16:26.026Z</time></trkpt><trkpt lat="45.32689439371492" lon="8.446670538763916"><ele>123.0</ele><time>2026-03-28T13:16:27.027Z</time></trkpt><trkpt lat="45.326769531243535" lon="8.44648847425353"><ele>123.0</ele><time>2026-03-28T13:16:28.027Z</time></trkpt><trkpt lat="45.32667530163994" lon="8.446271471534374"><ele>123.0</ele><time>2026-03-28T13:16:29.027Z</time></trkpt><trkpt lat="45.32660738614013" lon="8.44603046967798"><ele>123.0</ele><time>2026-03-28T13:16:30.027Z</time></trkpt><trkpt lat="45.326570338647166" lon="8.445764771822086"><ele>123.0</ele><time>2026-03-28T13:16:31.027Z</time></trkpt><trkpt lat="45.32654104359748" lon="8.44548932450016"><ele>123.0</ele><time>2026-03-28T13:16:32.027Z</time></trkpt><trkpt lat="45.326511682967876" lon="8.445206873995568"><ele>123.0</ele><time>2026-03-28T13:16:33.027Z</time></trkpt><trkpt lat="45.3264813105072" lon="8.444911304847377"><ele>123.0</ele><time>2026-03-28T13:16:34.027Z</time></trkpt><trkpt lat="45.32644903268133" lon="8.44460852177429"><ele>123.0</ele><time>2026-03-28T13:16:35.027Z</time></trkpt><trkpt lat="45.32641537703675" lon="8.444301062524438"><ele>123.0</ele><time>2026-03-28T13:16:36.027Z</time></trkpt><trkpt lat="45.32638163894823" lon="8.44399301572623"><ele>123.0</ele><time>2026-03-28T13:16:37.027Z</time></trkpt><trkpt lat="45.32635048343727" lon="8.443701054508926"><ele>122.66666666666666</ele><time>2026-03-28T13:16:38.027Z</time></trkpt><trkpt lat="45.326321110274826" lon="8.443422683257625"><ele>122.33333333333333</ele><time>2026-03-28T13:16:39.027Z</time></trkpt><trkpt lat="45.326294333602576" lon="8.443155146599606"><ele>122.0</ele><time>2026-03-28T13:16:40.027Z</time></trkpt><trkpt lat="45.32626797150399" lon="8.442897237516299"><ele>121.66666666666666</ele><time>2026-03-28T13:16:41.027Z</time></trkpt><trkpt lat="45.326242978503174" lon="8.442653289956644"><ele>121.33333333333334</ele><time>2026-03-28T13:16:42.027Z</time></trkpt><trkpt lat="45.32621942599596" lon="8.442421617289677"><ele>121.0</ele><time>2026-03-28T13:16:43.027Z</time></trkpt><trkpt lat="45.32619360601628" lon="8.442203030758876"><ele>121.25</ele><time>2026-03-28T13:16:44.027Z</time></trkpt><trkpt lat="45.32616802114831" lon="8.441994821643046"><ele>121.5</ele><time>2026-03-28T13:16:45.027Z</time></trkpt><trkpt lat="45.32614430326443" lon="8.441789305884075"><ele>121.75</ele><time>2026-03-28T13:16:46.027Z</time></trkpt><trkpt lat="45.326123109133825" lon="8.441587437241918"><ele>122.0</ele><time>2026-03-28T13:16:47.027Z</time></trkpt><trkpt lat="45.32610471224668" lon="8.441397797268452"><ele>122.0</ele><time>2026-03-28T13:16:48.027Z</time></trkpt><trkpt lat="45.32608397341392" lon="8.441209942394263"><ele>122.0</ele><time>2026-03-28T13:16:49.027Z</time></trkpt><trkpt lat="45.32606212852802" lon="8.441015681663151"><ele>122.0</ele><time>2026-03-28T13:16:50.027Z</time></trkpt><trkpt lat="45.326040256821486" lon="8.440816052438059"><ele>122.0</ele><time>2026-03-28T13:16:51.027Z</time></trkpt><trkpt lat="45.32601751704703" lon="8.440609325406692"><ele>122.0</ele><time>2026-03-28T13:16:52.027Z</time></trkpt><trkpt lat="45.32599563530978" lon="8.440397146497176"><ele>122.0</ele><time>2026-03-28T13:16:53.027Z</time></trkpt><trkpt lat="45.32597488334866" lon="8.440180517881732"><ele>122.0</ele><time>2026-03-28T13:16:54.027Z</time></trkpt><trkpt lat="45.325953109590344" lon="8.439962506504752"><ele>122.0</ele><time>2026-03-28T13:16:55.027Z</time></trkpt><trkpt lat="45.32593005234504" lon="8.43974257572428"><ele>122.0</ele><time>2026-03-28T13:16:56.027Z</time></trkpt><trkpt lat="45.32590751717138" lon="8.43952962421924"><ele>122.0</ele><time>2026-03-28T13:16:57.027Z</time></trkpt><trkpt lat="45.325885328797014" lon="8.43932770594923"><ele>121.5</ele><time>2026-03-28T13:16:58.027Z</time></trkpt><trkpt lat="45.3258614763956" lon="8.43912586334252"><ele>121.0</ele><time>2026-03-28T13:16:59.027Z</time></trkpt><trkpt lat="45.325841394864646" lon="8.438921982201096"><ele>120.5</ele><time>2026-03-28T13:17:00.028Z</time></trkpt><trkpt lat="45.32581928369115" lon="8.438718400544268"><ele>120.0</ele><time>2026-03-28T13:17:01.028Z</time></trkpt><trkpt lat="45.325798064248715" lon="8.438515248269168"><ele>119.5</ele><time>2026-03-28T13:17:02.028Z</time></trkpt><trkpt lat="45.32577480800455" lon="8.438312993305628"><ele>119.0</ele><time>2026-03-28T13:17:03.028Z</time></trkpt><trkpt lat="45.32575193221745" lon="8.438117561718528"><ele>118.5</ele><time>2026-03-28T13:17:04.028Z</time></trkpt><trkpt lat="45.325730588990275" lon="8.437931519139367"><ele>118.0</ele><time>2026-03-28T13:17:05.028Z</time></trkpt><trkpt lat="45.32571081235952" lon="8.43775308320274"><ele>118.0</ele><time>2026-03-28T13:17:06.028Z</time></trkpt><trkpt lat="45.32569192482755" lon="8.437575743270894"><ele>118.0</ele><time>2026-03-28T13:17:07.028Z</time></trkpt><trkpt lat="45.325670478255226" lon="8.437402948365822"><ele>118.0</ele><time>2026-03-28T13:17:08.028Z</time></trkpt><trkpt lat="45.32565259706559" lon="8.43722648819543"><ele>118.0</ele><time>2026-03-28T13:17:09.028Z</time></trkpt><trkpt lat="45.325633469113654" lon="8.43705014027716"><ele>119.75</ele><time>2026-03-28T13:17:10.028Z</time></trkpt><trkpt lat="45.325613252421896" lon="8.436882476307684"><ele>121.5</ele><time>2026-03-28T13:17:11.028Z</time></trkpt><trkpt lat="45.325597993681804" lon="8.436719286391554"><ele>123.25</ele><time>2026-03-28T13:17:12.028Z</time></trkpt><trkpt lat="45.32558250506681" lon="8.436561921839584"><ele>125.0</ele><time>2026-03-28T13:17:13.028Z</time></trkpt><trkpt lat="45.3255665275383" lon="8.436412538053798"><ele>125.2</ele><time>2026-03-28T13:17:14.028Z</time></trkpt><trkpt lat="45.32555028188332" lon="8.43626823775808"><ele>125.4</ele><time>2026-03-28T13:17:15.028Z</time></trkpt><trkpt lat="45.3255354975061" lon="8.436122774936834"><ele>125.6</ele><time>2026-03-28T13:17:16.028Z</time></trkpt><trkpt lat="45.32552071012336" lon="8.435978289067334"><ele>125.8</ele><time>2026-03-28T13:17:17.028Z</time></trkpt><trkpt lat="45.325508567843144" lon="8.43583825781366"><ele>126.0</ele><time>2026-03-28T13:17:18.028Z</time></trkpt><trkpt lat="45.32549340542207" lon="8.435701635176368"><ele>126.0</ele><time>2026-03-28T13:17:19.028Z</time></trkpt><trkpt lat="45.325482878025916" lon="8.43557249421395"><ele>126.0</ele><time>2026-03-28T13:17:20.028Z</time></trkpt><trkpt lat="45.325469832358" lon="8.435450189713842"><ele>126.0</ele><time>2026-03-28T13:17:21.028Z</time></trkpt><trkpt lat="45.32546002092278" lon="8.435332512919818"><ele>126.0</ele><time>2026-03-28T13:17:22.028Z</time></trkpt><trkpt lat="45.325455059563375" lon="8.435224578392258"><ele>126.0</ele><time>2026-03-28T13:17:23.028Z</time></trkpt><trkpt lat="45.325452432888646" lon="8.435130301800328"><ele>126.0</ele><time>2026-03-28T13:17:24.028Z</time></trkpt><trkpt lat="45.3254501239762" lon="8.434958637683819"><ele>126.19999999999999</ele><time>2026-03-28T13:17:26.028Z</time></trkpt><trkpt lat="45.32539607726927" lon="8.434850544009644"><ele>126.39999999999999</ele><time>2026-03-28T13:17:28.028Z</time></trkpt><trkpt lat="45.325301263989374" lon="8.434853808559115"><ele>126.6</ele><time>2026-03-28T13:17:30.028Z</time></trkpt><trkpt lat="45.32523498244448" lon="8.434890805869921"><ele>126.8</ele><time>2026-03-28T13:17:31.028Z</time></trkpt><trkpt lat="45.32513743023145" lon="8.43490562060282"><ele>127.0</ele><time>2026-03-28T13:17:32.028Z</time></trkpt><trkpt lat="45.32502233497534" lon="8.434924164379499"><ele>127.0</ele><time>2026-03-28T13:17:33.029Z</time></trkpt><trkpt lat="45.32490253852997" lon="8.434946188845817"><ele>127.0</ele><time>2026-03-28T13:17:34.029Z</time></trkpt><trkpt lat="45.324774951537094" lon="8.434965370677002"><ele>127.0</ele><time>2026-03-28T13:17:35.029Z</time></trkpt><trkpt lat="45.32465423366234" lon="8.434978281063747"><ele>127.0</ele><time>2026-03-28T13:17:36.029Z</time></trkpt><trkpt lat="45.324530177302584" lon="8.434992357568246"><ele>126.25</ele><time>2026-03-28T13:17:37.029Z</time></trkpt><trkpt lat="45.324399919798275" lon="8.435003731095795"><ele>125.5</ele><time>2026-03-28T13:17:38.029Z</time></trkpt><trkpt lat="45.324266205399695" lon="8.43500811535342"><ele>124.75</ele><time>2026-03-28T13:17:39.029Z</time></trkpt><trkpt lat="45.324131789391394" lon="8.435016617693035"><ele>124.0</ele><time>2026-03-28T13:17:40.029Z</time></trkpt><trkpt lat="45.32399540059829" lon="8.435022284941445"><ele>124.0</ele><time>2026-03-28T13:17:41.029Z</time></trkpt><trkpt lat="45.323861786163434" lon="8.435030256549556"><ele>124.0</ele><time>2026-03-28T13:17:42.029Z</time></trkpt><trkpt lat="45.32372310991131" lon="8.435043011114693"><ele>124.0</ele><time>2026-03-28T13:17:43.029Z</time></trkpt><trkpt lat="45.32358693761833" lon="8.435048054528982"><ele>124.0</ele><time>2026-03-28T13:17:44.029Z</time></trkpt><trkpt lat="45.323449628494366" lon="8.435049875951368"><ele>124.0</ele><time>2026-03-28T13:17:45.029Z</time></trkpt><trkpt lat="45.32330915228535" lon="8.43505985608454"><ele>124.0</ele><time>2026-03-28T13:17:46.029Z</time></trkpt><trkpt lat="45.323176875311475" lon="8.435072117988769"><ele>124.0</ele><time>2026-03-28T13:17:47.029Z</time></trkpt><trkpt lat="45.323052191718226" lon="8.435083224742723"><ele>124.0</ele><time>2026-03-28T13:17:48.029Z</time></trkpt><trkpt lat="45.322933101947825" lon="8.43508657573691"><ele>124.5</ele><time>2026-03-28T13:17:49.029Z</time></trkpt><trkpt lat="45.32281365887507" lon="8.435100673051094"><ele>125.0</ele><time>2026-03-28T13:17:50.029Z</time></trkpt><trkpt lat="45.32269417136399" lon="8.435109386369204"><ele>125.5</ele><time>2026-03-28T13:17:51.029Z</time></trkpt><trkpt lat="45.322570770215385" lon="8.435111913990832"><ele>126.0</ele><time>2026-03-28T13:17:52.029Z</time></trkpt><trkpt lat="45.322442867236276" lon="8.435118627203765"><ele>126.0</ele><time>2026-03-28T13:17:53.029Z</time></trkpt><trkpt lat="45.32232116151503" lon="8.435122524293435"><ele>126.0</ele><time>2026-03-28T13:17:54.029Z</time></trkpt><trkpt lat="45.32219830801789" lon="8.435126313744735"><ele>126.0</ele><time>2026-03-28T13:17:55.029Z</time></trkpt><trkpt lat="45.322075862629234" lon="8.435126645167744"><ele>126.0</ele><time>2026-03-28T13:17:56.029Z</time></trkpt><trkpt lat="45.32195014929682" lon="8.435128812269248"><ele>126.25</ele><time>2026-03-28T13:17:57.029Z</time></trkpt><trkpt lat="45.32182800756479" lon="8.435127845983876"><ele>126.5</ele><time>2026-03-28T13:17:58.029Z</time></trkpt><trkpt lat="45.32170960246734" lon="8.435122478570896"><ele>126.75</ele><time>2026-03-28T13:17:59.029Z</time></trkpt><trkpt lat="45.32158848828663" lon="8.435112106986383"><ele>127.0</ele><time>2026-03-28T13:18:00.029Z</time></trkpt><trkpt lat="45.32146773180974" lon="8.435088133177002"><ele>126.25</ele><time>2026-03-28T13:18:01.029Z</time></trkpt><trkpt lat="45.321345911681476" lon="8.435057867933915"><ele>125.5</ele><time>2026-03-28T13:18:02.029Z</time></trkpt><trkpt lat="45.321219587508544" lon="8.43502462484119"><ele>124.75</ele><time>2026-03-28T13:18:03.029Z</time></trkpt><trkpt lat="45.321094285910426" lon="8.43498552039582"><ele>124.0</ele><time>2026-03-28T13:18:04.029Z</time></trkpt><trkpt lat="45.32096993355861" lon="8.434939159805188"><ele>124.0</ele><time>2026-03-28T13:18:05.029Z</time></trkpt><trkpt lat="45.320849564924934" lon="8.43488866670226"><ele>124.0</ele><time>2026-03-28T13:18:06.029Z</time></trkpt><trkpt lat="45.32072932940308" lon="8.434837480396196"><ele>124.0</ele><time>2026-03-28T13:18:07.03Z</time></trkpt><trkpt lat="45.32061336416636" lon="8.434777398646016"><ele>124.0</ele><time>2026-03-28T13:18:08.03Z</time></trkpt><trkpt lat="45.32049901942355" lon="8.43470699150864"><ele>124.0</ele><time>2026-03-28T13:18:09.03Z</time></trkpt><trkpt lat="45.32039040624799" lon="8.434624472184922"><ele>124.0</ele><time>2026-03-28T13:18:10.03Z</time></trkpt><trkpt lat="45.320280183855694" lon="8.434544713138157"><ele>124.0</ele><time>2026-03-28T13:18:11.03Z</time></trkpt><trkpt lat="45.32017482002169" lon="8.434447754524824"><ele>124.0</ele><time>2026-03-28T13:18:12.03Z</time></trkpt><trkpt lat="45.320071882363244" lon="8.434344729188316"><ele>124.0</ele><time>2026-03-28T13:18:13.03Z</time></trkpt><trkpt lat="45.3199716238352" lon="8.434232422657088"><ele>124.0</ele><time>2026-03-28T13:18:14.03Z</time></trkpt><trkpt lat="45.31987435554752" lon="8.434123073460123"><ele>124.0</ele><time>2026-03-28T13:18:15.03Z</time></trkpt><trkpt lat="45.31977514327938" lon="8.434012163321926"><ele>124.0</ele><time>2026-03-28T13:18:16.03Z</time></trkpt><trkpt lat="45.319681003789704" lon="8.433909256428668"><ele>124.75</ele><time>2026-03-28T13:18:17.03Z</time></trkpt><trkpt lat="45.31958583979354" lon="8.43380550827936"><ele>125.5</ele><time>2026-03-28T13:18:18.03Z</time></trkpt><trkpt lat="45.31949253638994" lon="8.433701353074081"><ele>126.25</ele><time>2026-03-28T13:18:19.028Z</time></trkpt><trkpt lat="45.319397542286474" lon="8.433598724761655"><ele>127.0</ele><time>2026-03-28T13:18:20.029Z</time></trkpt><trkpt lat="45.31930142956615" lon="8.433493122252614"><ele>127.0</ele><time>2026-03-28T13:18:21.029Z</time></trkpt><trkpt lat="45.319204725126944" lon="8.433385398713499"><ele>127.0</ele><time>2026-03-28T13:18:22.028Z</time></trkpt><trkpt lat="45.31910890701916" lon="8.433273512034688"><ele>127.0</ele><time>2026-03-28T13:18:23.029Z</time></trkpt><trkpt lat="45.31901842443284" lon="8.433153717132436"><ele>127.0</ele><time>2026-03-28T13:18:24.029Z</time></trkpt><trkpt lat="45.3189288951988" lon="8.433027600597692"><ele>127.0</ele><time>2026-03-28T13:18:25.029Z</time></trkpt><trkpt lat="45.31883789644898" lon="8.432898613204953"><ele>127.0</ele><time>2026-03-28T13:18:26.029Z</time></trkpt><trkpt lat="45.31874769635376" lon="8.432770041092363"><ele>127.0</ele><time>2026-03-28T13:18:27.029Z</time></trkpt><trkpt lat="45.318656984933924" lon="8.432639160145513"><ele>127.0</ele><time>2026-03-28T13:18:28.029Z</time></trkpt><trkpt lat="45.318566231882606" lon="8.432508005303575"><ele>127.0</ele><time>2026-03-28T13:18:29.029Z</time></trkpt><trkpt lat="45.318471790581135" lon="8.432379899044685"><ele>127.0</ele><time>2026-03-28T13:18:30.029Z</time></trkpt><trkpt lat="45.318379791735005" lon="8.432259656811617"><ele>127.0</ele><time>2026-03-28T13:18:31.029Z</time></trkpt><trkpt lat="45.318295202362286" lon="8.432141904203627"><ele>127.0</ele><time>2026-03-28T13:18:32.029Z</time></trkpt><trkpt lat="45.31821162677192" lon="8.432032778553774"><ele>127.0</ele><time>2026-03-28T13:18:33.029Z</time></trkpt><trkpt lat="45.31813478898598" lon="8.431922778764362"><ele>126.99999999999999</ele><time>2026-03-28T13:18:34.029Z</time></trkpt><trkpt lat="45.318054833900305" lon="8.431814776523622"><ele>126.99999999999999</ele><time>2026-03-28T13:18:35.029Z</time></trkpt><trkpt lat="45.31798008468975" lon="8.431714829380647"><ele>127.0</ele><time>2026-03-28T13:18:36.029Z</time></trkpt><trkpt lat="45.31790752640483" lon="8.431628547382488"><ele>127.0</ele><time>2026-03-28T13:18:37.029Z</time></trkpt><trkpt lat="45.317842611136044" lon="8.431545471252427"><ele>127.00000000000001</ele><time>2026-03-28T13:18:38.029Z</time></trkpt><trkpt lat="45.31778908295108" lon="8.431458845795184"><ele>127.0</ele><time>2026-03-28T13:18:39.029Z</time></trkpt><trkpt lat="45.317743129923976" lon="8.431384402621305"><ele>127.0</ele><time>2026-03-28T13:18:40.029Z</time></trkpt><trkpt lat="45.31769525391326" lon="8.431305468903194"><ele>127.0</ele><time>2026-03-28T13:18:42.029Z</time></trkpt><trkpt lat="45.317625688621725" lon="8.431212637109452"><ele>127.00000000000001</ele><time>2026-03-28T13:18:46.029Z</time></trkpt><trkpt lat="45.31754473399392" lon="8.431090059659608"><ele>127.0</ele><time>2026-03-28T13:18:48.029Z</time></trkpt><trkpt lat="45.317482457317716" lon="8.43101031790541"><ele>127.0</ele><time>2026-03-28T13:18:49.029Z</time></trkpt><trkpt lat="45.31742012776313" lon="8.430933443316594"><ele>126.99999999999999</ele><time>2026-03-28T13:18:50.029Z</time></trkpt><trkpt lat="45.317354476255254" lon="8.430851839418313"><ele>126.99999999999999</ele><time>2026-03-28T13:18:51.029Z</time></trkpt><trkpt lat="45.317279921591485" lon="8.430761991465719"><ele>127.0</ele><time>2026-03-28T13:18:52.029Z</time></trkpt><trkpt lat="45.3172053139997" lon="8.430660262957286"><ele>127.0</ele><time>2026-03-28T13:18:53.029Z</time></trkpt><trkpt lat="45.317127261185604" lon="8.430557915739909"><ele>127.0</ele><time>2026-03-28T13:18:54.029Z</time></trkpt><trkpt lat="45.31703926888462" lon="8.430458554921017"><ele>127.0</ele><time>2026-03-28T13:18:55.029Z</time></trkpt><trkpt lat="45.31695011905992" lon="8.430357152192691"><ele>127.0</ele><time>2026-03-28T13:18:56.029Z</time></trkpt><trkpt lat="45.31685473521309" lon="8.430260343563777"><ele>127.0</ele><time>2026-03-28T13:18:57.029Z</time></trkpt><trkpt lat="45.31677181708257" lon="8.43015305593107"><ele>127.0</ele><time>2026-03-28T13:18:58.029Z</time></trkpt><trkpt lat="45.31668759676428" lon="8.430046741284771"><ele>126.99999999999999</ele><time>2026-03-28T13:18:59.029Z</time></trkpt><trkpt lat="45.316605225656616" lon="8.429943021067325"><ele>126.99999999999999</ele><time>2026-03-28T13:19:00.029Z</time></trkpt><trkpt lat="45.31652287115702" lon="8.429848147617696"><ele>127.0</ele><time>2026-03-28T13:19:01.03Z</time></trkpt><trkpt lat="45.316448905442876" lon="8.429749084047176"><ele>127.0</ele><time>2026-03-28T13:19:02.03Z</time></trkpt><trkpt lat="45.31635819675707" lon="8.429670129237065"><ele>127.25</ele><time>2026-03-28T13:19:03.03Z</time></trkpt><trkpt lat="45.316275639175274" lon="8.429580519481556"><ele>127.5</ele><time>2026-03-28T13:19:04.03Z</time></trkpt><trkpt lat="45.316188162996916" lon="8.429466674861148"><ele>127.75</ele><time>2026-03-28T13:19:05.03Z</time></trkpt><trkpt lat="45.31609063651649" lon="8.429348185591666"><ele>128.0</ele><time>2026-03-28T13:19:06.03Z</time></trkpt><trkpt lat="45.31599300720395" lon="8.429224760898117"><ele>128.0</ele><time>2026-03-28T13:19:07.03Z</time></trkpt><trkpt lat="45.31589313538625" lon="8.429106515604197"><ele>128.0</ele><time>2026-03-28T13:19:08.03Z</time></trkpt><trkpt lat="45.31579846458978" lon="8.428987490514585"><ele>128.0</ele><time>2026-03-28T13:19:09.03Z</time></trkpt><trkpt lat="45.3157081341153" lon="8.428864295873009"><ele>128.0</ele><time>2026-03-28T13:19:10.03Z</time></trkpt><trkpt lat="45.315615953259986" lon="8.428744608745793"><ele>128.25</ele><time>2026-03-28T13:19:11.03Z</time></trkpt><trkpt lat="45.31552598678692" lon="8.428614270106443"><ele>128.5</ele><time>2026-03-28T13:19:12.03Z</time></trkpt><trkpt lat="45.315429861494316" lon="8.428497670645214"><ele>128.75</ele><time>2026-03-28T13:19:13.03Z</time></trkpt><trkpt lat="45.315338233212685" lon="8.42838435120171"><ele>129.0</ele><time>2026-03-28T13:19:14.03Z</time></trkpt><trkpt lat="45.315256223798194" lon="8.428266494445248"><ele>129.0</ele><time>2026-03-28T13:19:15.03Z</time></trkpt><trkpt lat="45.31517234637657" lon="8.428154360579033"><ele>129.0</ele><time>2026-03-28T13:19:16.03Z</time></trkpt><trkpt lat="45.31509048943621" lon="8.428050720139163"><ele>129.0</ele><time>2026-03-28T13:19:17.03Z</time></trkpt><trkpt lat="45.315009316685796" lon="8.427948594291498"><ele>129.0</ele><time>2026-03-28T13:19:18.03Z</time></trkpt><trkpt lat="45.31492897533283" lon="8.42785042758106"><ele>129.0</ele><time>2026-03-28T13:19:19.03Z</time></trkpt><trkpt lat="45.31485701832882" lon="8.427750995093794"><ele>129.0</ele><time>2026-03-28T13:19:20.03Z</time></trkpt><trkpt lat="45.31478315813896" lon="8.427659860486488"><ele>129.0</ele><time>2026-03-28T13:19:21.03Z</time></trkpt><trkpt lat="45.314709265541914" lon="8.42756661324237"><ele>129.0</ele><time>2026-03-28T13:19:22.03Z</time></trkpt><trkpt lat="45.31463705899608" lon="8.427476894303654"><ele>129.0</ele><time>2026-03-28T13:19:23.03Z</time></trkpt><trkpt lat="45.31456272474897" lon="8.427384850845026"><ele>129.0</ele><time>2026-03-28T13:19:24.03Z</time></trkpt><trkpt lat="45.31449738469711" lon="8.427289767656859"><ele>129.0</ele><time>2026-03-28T13:19:25.03Z</time></trkpt><trkpt lat="45.314437050905646" lon="8.427201612362861"><ele>129.0</ele><time>2026-03-28T13:19:26.03Z</time></trkpt><trkpt lat="45.314386301415794" lon="8.427107005544466"><ele>129.0</ele><time>2026-03-28T13:19:27.03Z</time></trkpt><trkpt lat="45.314345094856634" lon="8.42700103060569"><ele>129.0</ele><time>2026-03-28T13:19:28.03Z</time></trkpt><trkpt lat="45.31431070393913" lon="8.426872985606787"><ele>129.0</ele><time>2026-03-28T13:19:29.03Z</time></trkpt><trkpt lat="45.31428005038235" lon="8.426743509265625"><ele>129.0</ele><time>2026-03-28T13:19:30.03Z</time></trkpt><trkpt lat="45.314240709352056" lon="8.426628814901788"><ele>128.66666666666666</ele><time>2026-03-28T13:19:31.03Z</time></trkpt><trkpt lat="45.314189826111395" lon="8.426543839267367"><ele>128.33333333333334</ele><time>2026-03-28T13:19:32.03Z</time></trkpt><trkpt lat="45.314122383148394" lon="8.426490733385885"><ele>128.0</ele><time>2026-03-28T13:19:33.03Z</time></trkpt><trkpt lat="45.31403504233476" lon="8.426446713458777"><ele>127.66666666666667</ele><time>2026-03-28T13:19:34.031Z</time></trkpt><trkpt lat="45.31395116364449" lon="8.426414024028572"><ele>127.33333333333334</ele><time>2026-03-28T13:19:35.031Z</time></trkpt><trkpt lat="45.313868999594376" lon="8.426369587183805"><ele>127.0</ele><time>2026-03-28T13:19:36.031Z</time></trkpt><trkpt lat="45.313785080991266" lon="8.426327695338385"><ele>127.00000000000001</ele><time>2026-03-28T13:19:37.031Z</time></trkpt><trkpt lat="45.31369982941901" lon="8.426299151676629"><ele>127.0</ele><time>2026-03-28T13:19:38.031Z</time></trkpt><trkpt lat="45.31361818860719" lon="8.426272070511716"><ele>127.0</ele><time>2026-03-28T13:19:39.031Z</time></trkpt><trkpt lat="45.31353218030912" lon="8.426244859328602"><ele>127.0</ele><time>2026-03-28T13:19:40.031Z</time></trkpt><trkpt lat="45.31344910414037" lon="8.426211532940686"><ele>127.00000000000001</ele><time>2026-03-28T13:19:41.031Z</time></trkpt><trkpt lat="45.3133642035067" lon="8.426183660239351"><ele>127.0</ele><time>2026-03-28T13:19:42.031Z</time></trkpt><trkpt lat="45.31328186539952" lon="8.42615268933415"><ele>127.00000000000001</ele><time>2026-03-28T13:19:43.031Z</time></trkpt><trkpt lat="45.31320162100511" lon="8.42612179825436"><ele>127.0</ele><time>2026-03-28T13:19:44.031Z</time></trkpt><trkpt lat="45.31312636417459" lon="8.426092345537644"><ele>127.0</ele><time>2026-03-28T13:19:45.031Z</time></trkpt><trkpt lat="45.31306047547021" lon="8.426068779276246"><ele>127.0</ele><time>2026-03-28T13:19:46.031Z</time></trkpt><trkpt lat="45.31294074169844" lon="8.426015912548761"><ele>127.00000000000001</ele><time>2026-03-28T13:19:48.031Z</time></trkpt><trkpt lat="45.312873958504326" lon="8.425988950085975"><ele>127.0</ele><time>2026-03-28T13:19:49.031Z</time></trkpt><trkpt lat="45.312800558810785" lon="8.425958955605404"><ele>127.00000000000001</ele><time>2026-03-28T13:19:50.031Z</time></trkpt><trkpt lat="45.31272600248387" lon="8.425925282368079"><ele>127.0</ele><time>2026-03-28T13:19:51.031Z</time></trkpt><trkpt lat="45.31265055891939" lon="8.42589253179844"><ele>127.0</ele><time>2026-03-28T13:19:52.031Z</time></trkpt><trkpt lat="45.31257676608531" lon="8.425858405156982"><ele>127.0</ele><time>2026-03-28T13:19:53.031Z</time></trkpt><trkpt lat="45.31249306547271" lon="8.425826606703168"><ele>127.00000000000001</ele><time>2026-03-28T13:19:54.031Z</time></trkpt><trkpt lat="45.31240818044437" lon="8.425792276117827"><ele>127.0</ele><time>2026-03-28T13:19:55.031Z</time></trkpt><trkpt lat="45.31232080326161" lon="8.425757460094415"><ele>127.19999999999999</ele><time>2026-03-28T13:19:56.031Z</time></trkpt><trkpt lat="45.31223205372724" lon="8.425717240779253"><ele>127.39999999999999</ele><time>2026-03-28T13:19:57.031Z</time></trkpt><trkpt lat="45.31213428939391" lon="8.425679411806147"><ele>127.60000000000001</ele><time>2026-03-28T13:19:58.031Z</time></trkpt><trkpt lat="45.31202333412869" lon="8.425638093917554"><ele>127.80000000000001</ele><time>2026-03-28T13:19:59.031Z</time></trkpt><trkpt lat="45.31189913650446" lon="8.425595866419602"><ele>128.0</ele><time>2026-03-28T13:20:00.031Z</time></trkpt><trkpt lat="45.31178216780464" lon="8.425550292733128"><ele>128.0</ele><time>2026-03-28T13:20:01.031Z</time></trkpt><trkpt lat="45.311676556505866" lon="8.425507751376875"><ele>128.0</ele><time>2026-03-28T13:20:02.031Z</time></trkpt><trkpt lat="45.31158577712614" lon="8.425476808523785"><ele>128.0</ele><time>2026-03-28T13:20:03.031Z</time></trkpt><trkpt lat="45.31151063707055" lon="8.425441912410346"><ele>128.0</ele><time>2026-03-28T13:20:04.031Z</time></trkpt><trkpt lat="45.31139490067098" lon="8.42539443648263"><ele>128.0</ele><time>2026-03-28T13:20:06.031Z</time></trkpt><trkpt lat="45.311263990183235" lon="8.425360895893807"><ele>127.4</ele><time>2026-03-28T13:20:08.032Z</time></trkpt><trkpt lat="45.31117205998417" lon="8.425332325924582"><ele>126.80000000000001</ele><time>2026-03-28T13:20:09.032Z</time></trkpt><trkpt lat="45.3110669927088" lon="8.425299927542842"><ele>126.2</ele><time>2026-03-28T13:20:10.032Z</time></trkpt><trkpt lat="45.31095523591545" lon="8.425259920470133"><ele>125.6</ele><time>2026-03-28T13:20:11.032Z</time></trkpt><trkpt lat="45.31083571852181" lon="8.42520702066172"><ele>125.0</ele><time>2026-03-28T13:20:12.032Z</time></trkpt><trkpt lat="45.31070719569575" lon="8.425146678448968"><ele>125.0</ele><time>2026-03-28T13:20:13.032Z</time></trkpt><trkpt lat="45.31057513901964" lon="8.425094208629918"><ele>125.0</ele><time>2026-03-28T13:20:14.032Z</time></trkpt><trkpt lat="45.31042956868751" lon="8.425041272464917"><ele>125.0</ele><time>2026-03-28T13:20:15.032Z</time></trkpt><trkpt lat="45.31027478379455" lon="8.424984778781317"><ele>125.0</ele><time>2026-03-28T13:20:16.032Z</time></trkpt><trkpt lat="45.31011244830496" lon="8.424924769628932"><ele>125.0</ele><time>2026-03-28T13:20:17.032Z</time></trkpt><trkpt lat="45.3099551161869" lon="8.424867431574267"><ele>125.0</ele><time>2026-03-28T13:20:18.032Z</time></trkpt><trkpt lat="45.30979147350222" lon="8.424809372014758"><ele>125.0</ele><time>2026-03-28T13:20:19.032Z</time></trkpt><trkpt lat="45.30962419015188" lon="8.42475187486426"><ele>125.33333333333333</ele><time>2026-03-28T13:20:20.032Z</time></trkpt><trkpt lat="45.30946410929256" lon="8.424696610755902"><ele>125.66666666666666</ele><time>2026-03-28T13:20:21.032Z</time></trkpt><trkpt lat="45.30930744630757" lon="8.424644289836186"><ele>126.0</ele><time>2026-03-28T13:20:22.032Z</time></trkpt><trkpt lat="45.30915635914837" lon="8.424597114488279"><ele>126.0</ele><time>2026-03-28T13:20:23.032Z</time></trkpt><trkpt lat="45.30901440570636" lon="8.424549961194419"><ele>126.0</ele><time>2026-03-28T13:20:24.032Z</time></trkpt><trkpt lat="45.308879237725854" lon="8.4245026083298"><ele>126.0</ele><time>2026-03-28T13:20:25.031Z</time></trkpt><trkpt lat="45.308750302160185" lon="8.42445525822314"><ele>126.0</ele><time>2026-03-28T13:20:26.031Z</time></trkpt><trkpt lat="45.3086294484197" lon="8.42440835927904"><ele>126.0</ele><time>2026-03-28T13:20:27.031Z</time></trkpt><trkpt lat="45.3085116676514" lon="8.424366393125387"><ele>126.0</ele><time>2026-03-28T13:20:28.031Z</time></trkpt><trkpt lat="45.30838728082467" lon="8.424325407815932"><ele>126.0</ele><time>2026-03-28T13:20:29.03Z</time></trkpt><trkpt lat="45.30825886132845" lon="8.424284415842127"><ele>126.0</ele><time>2026-03-28T13:20:30.03Z</time></trkpt><trkpt lat="45.308121486678274" lon="8.424239076835713"><ele>126.33333333333334</ele><time>2026-03-28T13:20:31.031Z</time></trkpt><trkpt lat="45.30797674999861" lon="8.424186843161982"><ele>126.66666666666667</ele><time>2026-03-28T13:20:32.03Z</time></trkpt><trkpt lat="45.30782612931929" lon="8.4241358540646"><ele>127.0</ele><time>2026-03-28T13:20:33.03Z</time></trkpt><trkpt lat="45.307677184614874" lon="8.424090431389827"><ele>127.0</ele><time>2026-03-28T13:20:34.031Z</time></trkpt><trkpt lat="45.30753541507033" lon="8.4240442172707"><ele>127.0</ele><time>2026-03-28T13:20:35.03Z</time></trkpt><trkpt lat="45.307402837968915" lon="8.423999261445836"><ele>127.0</ele><time>2026-03-28T13:20:36.03Z</time></trkpt><trkpt lat="45.30727206398663" lon="8.423958645090242"><ele>127.0</ele><time>2026-03-28T13:20:37.03Z</time></trkpt><trkpt lat="45.30714992882514" lon="8.423921291062552"><ele>126.75</ele><time>2026-03-28T13:20:38.031Z</time></trkpt><trkpt lat="45.307033326548655" lon="8.423881039120326"><ele>126.5</ele><time>2026-03-28T13:20:39.031Z</time></trkpt><trkpt lat="45.3069191935712" lon="8.423838726168427"><ele>126.25</ele><time>2026-03-28T13:20:40.031Z</time></trkpt><trkpt lat="45.306807208950964" lon="8.423798101355818"><ele>126.0</ele><time>2026-03-28T13:20:41.031Z</time></trkpt><trkpt lat="45.30669601209701" lon="8.42375854351621"><ele>125.75</ele><time>2026-03-28T13:20:42.031Z</time></trkpt><trkpt lat="45.3065813712075" lon="8.423712642675602"><ele>125.5</ele><time>2026-03-28T13:20:43.031Z</time></trkpt><trkpt lat="45.30645424175356" lon="8.423657959476474"><ele>125.25</ele><time>2026-03-28T13:20:44.031Z</time></trkpt><trkpt lat="45.30631892462424" lon="8.423600596615913"><ele>125.0</ele><time>2026-03-28T13:20:45.031Z</time></trkpt><trkpt lat="45.306183516750494" lon="8.423552410523968"><ele>124.5</ele><time>2026-03-28T13:20:46.031Z</time></trkpt><trkpt lat="45.30605395848785" lon="8.423509389306272"><ele>124.0</ele><time>2026-03-28T13:20:47.031Z</time></trkpt><trkpt lat="45.30592765087834" lon="8.423472958853104"><ele>123.5</ele><time>2026-03-28T13:20:48.031Z</time></trkpt><trkpt lat="45.30580202284727" lon="8.423436439033026"><ele>123.0</ele><time>2026-03-28T13:20:49.031Z</time></trkpt><trkpt lat="45.30567077934008" lon="8.42340367117458"><ele>123.0</ele><time>2026-03-28T13:20:50.031Z</time></trkpt><trkpt lat="45.305536288882905" lon="8.423370003507012"><ele>123.0</ele><time>2026-03-28T13:20:51.031Z</time></trkpt><trkpt lat="45.305395085091234" lon="8.423348834965823"><ele>123.0</ele><time>2026-03-28T13:20:52.031Z</time></trkpt><trkpt lat="45.30524886935527" lon="8.423336618649072"><ele>123.0</ele><time>2026-03-28T13:20:53.031Z</time></trkpt><trkpt lat="45.30508827612539" lon="8.423333087041836"><ele>123.0</ele><time>2026-03-28T13:20:54.031Z</time></trkpt><trkpt lat="45.30492126561595" lon="8.423331920616425"><ele>123.0</ele><time>2026-03-28T13:20:55.031Z</time></trkpt><trkpt lat="45.304756345584664" lon="8.423341576339542"><ele>123.0</ele><time>2026-03-28T13:20:56.031Z</time></trkpt><trkpt lat="45.304581142248935" lon="8.423359687693521"><ele>122.33333333333334</ele><time>2026-03-28T13:20:57.031Z</time></trkpt><trkpt lat="45.30439905589786" lon="8.423386054651287"><ele>121.66666666666667</ele><time>2026-03-28T13:20:58.031Z</time></trkpt><trkpt lat="45.30421030193944" lon="8.423429107532181"><ele>121.0</ele><time>2026-03-28T13:20:59.031Z</time></trkpt><trkpt lat="45.30401642019164" lon="8.4234884077411"><ele>121.66666666666667</ele><time>2026-03-28T13:21:00.031Z</time></trkpt><trkpt lat="45.303818396974854" lon="8.423561856930046"><ele>122.33333333333334</ele><time>2026-03-28T13:21:01.031Z</time></trkpt><trkpt lat="45.30361846327154" lon="8.423646676704351"><ele>123.0</ele><time>2026-03-28T13:21:02.031Z</time></trkpt><trkpt lat="45.30341721610866" lon="8.423740907254762"><ele>123.0</ele><time>2026-03-28T13:21:03.031Z</time></trkpt><trkpt lat="45.303216611698176" lon="8.42383973041811"><ele>123.0</ele><time>2026-03-28T13:21:04.031Z</time></trkpt><trkpt lat="45.30302270532529" lon="8.423934016857249"><ele>123.0</ele><time>2026-03-28T13:21:05.031Z</time></trkpt><trkpt lat="45.302833349525514" lon="8.424026905315607"><ele>123.33333333333334</ele><time>2026-03-28T13:21:06.031Z</time></trkpt><trkpt lat="45.3026458594091" lon="8.424117799255242"><ele>123.66666666666667</ele><time>2026-03-28T13:21:07.031Z</time></trkpt><trkpt lat="45.302461673806846" lon="8.424200040886562"><ele>124.0</ele><time>2026-03-28T13:21:08.031Z</time></trkpt><trkpt lat="45.30228298949208" lon="8.424251428635726"><ele>124.33333333333334</ele><time>2026-03-28T13:21:09.031Z</time></trkpt><trkpt lat="45.302112317948826" lon="8.424269796535972"><ele>124.66666666666666</ele><time>2026-03-28T13:21:10.031Z</time></trkpt><trkpt lat="45.30194783637794" lon="8.424264934859037"><ele>125.0</ele><time>2026-03-28T13:21:11.032Z</time></trkpt><trkpt lat="45.30179138376179" lon="8.42425006712292"><ele>125.0</ele><time>2026-03-28T13:21:12.032Z</time></trkpt><trkpt lat="45.3016463767526" lon="8.424235409180747"><ele>125.0</ele><time>2026-03-28T13:21:13.032Z</time></trkpt><trkpt lat="45.301522233288296" lon="8.42420981911412"><ele>125.0</ele><time>2026-03-28T13:21:14.032Z</time></trkpt><trkpt lat="45.301415919205624" lon="8.42416570009226"><ele>125.0</ele><time>2026-03-28T13:21:15.032Z</time></trkpt><trkpt lat="45.30132573308508" lon="8.424099693512073"><ele>124.6</ele><time>2026-03-28T13:21:16.032Z</time></trkpt><trkpt lat="45.30124962845835" lon="8.424014452771889"><ele>124.2</ele><time>2026-03-28T13:21:17.032Z</time></trkpt><trkpt lat="45.30118468115303" lon="8.42391719993435"><ele>123.80000000000001</ele><time>2026-03-28T13:21:18.032Z</time></trkpt><trkpt lat="45.301111437003975" lon="8.423850797139002"><ele>123.4</ele><time>2026-03-28T13:21:19.032Z</time></trkpt><trkpt lat="45.3010246579177" lon="8.423825599812302"><ele>123.0</ele><time>2026-03-28T13:21:20.032Z</time></trkpt><trkpt lat="45.30092040051466" lon="8.423832495855322"><ele>123.0</ele><time>2026-03-28T13:21:21.032Z</time></trkpt><trkpt lat="45.300810965104965" lon="8.423860229368616"><ele>123.0</ele><time>2026-03-28T13:21:22.032Z</time></trkpt><trkpt lat="45.30068503148399" lon="8.423865703853133"><ele>123.0</ele><time>2026-03-28T13:21:23.032Z</time></trkpt><trkpt lat="45.300558157203184" lon="8.423820669963"><ele>123.0</ele><time>2026-03-28T13:21:24.032Z</time></trkpt><trkpt lat="45.30042139447024" lon="8.423743944906159"><ele>123.33333333333334</ele><time>2026-03-28T13:21:25.032Z</time></trkpt><trkpt lat="45.30027479102101" lon="8.423667782998232"><ele>123.66666666666667</ele><time>2026-03-28T13:21:26.032Z</time></trkpt><trkpt lat="45.30013201189173" lon="8.423597896547705"><ele>124.0</ele><time>2026-03-28T13:21:27.032Z</time></trkpt><trkpt lat="45.29997891062419" lon="8.423531157416912"><ele>124.0</ele><time>2026-03-28T13:21:28.032Z</time></trkpt><trkpt lat="45.29981660648888" lon="8.423460807609025"><ele>124.0</ele><time>2026-03-28T13:21:29.032Z</time></trkpt><trkpt lat="45.29964689329635" lon="8.423399780492199"><ele>124.0</ele><time>2026-03-28T13:21:30.032Z</time></trkpt><trkpt lat="45.2994739922878" lon="8.423368627754071"><ele>124.33333333333334</ele><time>2026-03-28T13:21:31.032Z</time></trkpt><trkpt lat="45.29929553873005" lon="8.423352240744576"><ele>124.66666666666666</ele><time>2026-03-28T13:21:32.032Z</time></trkpt><trkpt lat="45.29911039664786" lon="8.423356888039956"><ele>125.0</ele><time>2026-03-28T13:21:33.032Z</time></trkpt><trkpt lat="45.29892276243327" lon="8.42338153892002"><ele>125.66666666666666</ele><time>2026-03-28T13:21:34.032Z</time></trkpt><trkpt lat="45.29872904452133" lon="8.42341397296153"><ele>126.33333333333334</ele><time>2026-03-28T13:21:35.032Z</time></trkpt><trkpt lat="45.29852964169404" lon="8.423441905731913"><ele>127.0</ele><time>2026-03-28T13:21:36.032Z</time></trkpt><trkpt lat="45.298327580952545" lon="8.42346672043929"><ele>127.0</ele><time>2026-03-28T13:21:37.032Z</time></trkpt><trkpt lat="45.29812330872274" lon="8.423495441183611"><ele>127.0</ele><time>2026-03-28T13:21:38.032Z</time></trkpt><trkpt lat="45.29791719370878" lon="8.423527257705032"><ele>127.0</ele><time>2026-03-28T13:21:39.032Z</time></trkpt><trkpt lat="45.29770798590373" lon="8.423559809542306"><ele>126.33333333333334</ele><time>2026-03-28T13:21:40.032Z</time></trkpt><trkpt lat="45.297495080551585" lon="8.423591202638173"><ele>125.66666666666666</ele><time>2026-03-28T13:21:41.032Z</time></trkpt><trkpt lat="45.29728192158489" lon="8.423620725669897"><ele>125.0</ele><time>2026-03-28T13:21:42.032Z</time></trkpt><trkpt lat="45.2970680220457" lon="8.423651469843453"><ele>124.66666666666666</ele><time>2026-03-28T13:21:43.032Z</time></trkpt><trkpt lat="45.296851083283016" lon="8.423683506493514"><ele>124.33333333333334</ele><time>2026-03-28T13:21:44.032Z</time></trkpt><trkpt lat="45.29663242122604" lon="8.423712784446014"><ele>124.0</ele><time>2026-03-28T13:21:45.033Z</time></trkpt><trkpt lat="45.29641102406983" lon="8.423741815485569"><ele>124.0</ele><time>2026-03-28T13:21:46.033Z</time></trkpt><trkpt lat="45.29618652238541" lon="8.423775774693446"><ele>124.0</ele><time>2026-03-28T13:21:47.033Z</time></trkpt><trkpt lat="45.295960420025075" lon="8.42381141191836"><ele>123.5</ele><time>2026-03-28T13:21:48.033Z</time></trkpt><trkpt lat="45.295732399182434" lon="8.423848013210144"><ele>123.0</ele><time>2026-03-28T13:21:49.033Z</time></trkpt><trkpt lat="45.29550527670648" lon="8.423889681301548"><ele>123.0</ele><time>2026-03-28T13:21:50.033Z</time></trkpt><trkpt lat="45.29528080532634" lon="8.42394093516916"><ele>123.0</ele><time>2026-03-28T13:21:51.033Z</time></trkpt><trkpt lat="45.295057155102356" lon="8.424002556707507"><ele>123.0</ele><time>2026-03-28T13:21:52.033Z</time></trkpt><trkpt lat="45.29483824590804" lon="8.424073822213952"><ele>123.0</ele><time>2026-03-28T13:21:53.033Z</time></trkpt><trkpt lat="45.29462023073839" lon="8.42415437211119"><ele>123.0</ele><time>2026-03-28T13:21:54.033Z</time></trkpt><trkpt lat="45.29440374571952" lon="8.424239568795228"><ele>123.0</ele><time>2026-03-28T13:21:55.033Z</time></trkpt><trkpt lat="45.29418407198064" lon="8.424329105233586"><ele>123.0</ele><time>2026-03-28T13:21:56.033Z</time></trkpt><trkpt lat="45.293968056781566" lon="8.424410995052048"><ele>123.0</ele><time>2026-03-28T13:21:57.033Z</time></trkpt><trkpt lat="45.29375120178477" lon="8.424492867338438"><ele>123.0</ele><time>2026-03-28T13:21:58.033Z</time></trkpt><trkpt lat="45.293533594076145" lon="8.42457344729912"><ele>123.0</ele><time>2026-03-28T13:21:59.033Z</time></trkpt><trkpt lat="45.2933147041585" lon="8.424659017197838"><ele>123.0</ele><time>2026-03-28T13:22:00.033Z</time></trkpt><trkpt lat="45.29308934718887" lon="8.424732280988824"><ele>122.5</ele><time>2026-03-28T13:22:01.033Z</time></trkpt><trkpt lat="45.29286288276525" lon="8.424788537563568"><ele>122.0</ele><time>2026-03-28T13:22:02.033Z</time></trkpt><trkpt lat="45.29263613427884" lon="8.42483377680012"><ele>122.0</ele><time>2026-03-28T13:22:03.033Z</time></trkpt><trkpt lat="45.292406370904956" lon="8.42487187333943"><ele>122.0</ele><time>2026-03-28T13:22:04.033Z</time></trkpt><trkpt lat="45.2921719755462" lon="8.424899207493269"><ele>123.0</ele><time>2026-03-28T13:22:05.033Z</time></trkpt><trkpt lat="45.291934387995745" lon="8.424922681401322"><ele>124.0</ele><time>2026-03-28T13:22:06.033Z</time></trkpt><trkpt lat="45.29169767002887" lon="8.424936901753965"><ele>124.0</ele><time>2026-03-28T13:22:07.033Z</time></trkpt><trkpt lat="45.29145878395203" lon="8.42493908670047"><ele>124.0</ele><time>2026-03-28T13:22:08.033Z</time></trkpt><trkpt lat="45.291219811205316" lon="8.424936699977065"><ele>124.0</ele><time>2026-03-28T13:22:09.033Z</time></trkpt><trkpt lat="45.29098613641003" lon="8.424937927588765"><ele>124.0</ele><time>2026-03-28T13:22:10.033Z</time></trkpt><trkpt lat="45.29075365071946" lon="8.424941171703784"><ele>124.0</ele><time>2026-03-28T13:22:11.033Z</time></trkpt><trkpt lat="45.29052236459688" lon="8.424940447300433"><ele>124.0</ele><time>2026-03-28T13:22:12.033Z</time></trkpt><trkpt lat="45.29029522623026" lon="8.424940172489055"><ele>124.0</ele><time>2026-03-28T13:22:13.033Z</time></trkpt><trkpt lat="45.29007581286376" lon="8.42493987785407"><ele>124.0</ele><time>2026-03-28T13:22:14.033Z</time></trkpt><trkpt lat="45.289860646122456" lon="8.424943511740532"><ele>124.0</ele><time>2026-03-28T13:22:15.033Z</time></trkpt><trkpt lat="45.28964954625917" lon="8.424947895619713"><ele>124.33333333333334</ele><time>2026-03-28T13:22:16.033Z</time></trkpt><trkpt lat="45.289441650183036" lon="8.424951601296383"><ele>124.66666666666666</ele><time>2026-03-28T13:22:17.033Z</time></trkpt><trkpt lat="45.28922946666609" lon="8.424959088694415"><ele>125.0</ele><time>2026-03-28T13:22:18.034Z</time></trkpt><trkpt lat="45.28901768584653" lon="8.42495850649354"><ele>124.66666666666666</ele><time>2026-03-28T13:22:19.034Z</time></trkpt><trkpt lat="45.28880310916969" lon="8.424948461849919"><ele>124.33333333333334</ele><time>2026-03-28T13:22:20.034Z</time></trkpt><trkpt lat="45.28859313985982" lon="8.42492759417726"><ele>124.0</ele><time>2026-03-28T13:22:21.034Z</time></trkpt><trkpt lat="45.2883902704601" lon="8.424895489159239"><ele>124.0</ele><time>2026-03-28T13:22:22.034Z</time></trkpt><trkpt lat="45.2881910627828" lon="8.424849388997563"><ele>124.0</ele><time>2026-03-28T13:22:23.034Z</time></trkpt><trkpt lat="45.28800240397172" lon="8.424793649359062"><ele>124.0</ele><time>2026-03-28T13:22:24.034Z</time></trkpt><trkpt lat="45.28782232851297" lon="8.424735101375768"><ele>124.0</ele><time>2026-03-28T13:22:25.034Z</time></trkpt><trkpt lat="45.28764031605689" lon="8.42468123843294"><ele>124.0</ele><time>2026-03-28T13:22:26.034Z</time></trkpt><trkpt lat="45.28745916410131" lon="8.424628235293728"><ele>124.0</ele><time>2026-03-28T13:22:27.034Z</time></trkpt><trkpt lat="45.28727963522199" lon="8.42457726115971"><ele>124.66666666666667</ele><time>2026-03-28T13:22:28.034Z</time></trkpt><trkpt lat="45.28709793657624" lon="8.424527380623166"><ele>125.33333333333334</ele><time>2026-03-28T13:22:29.034Z</time></trkpt><trkpt lat="45.28691601730082" lon="8.424478626373865"><ele>126.0</ele><time>2026-03-28T13:22:30.034Z</time></trkpt><trkpt lat="45.28673150172098" lon="8.42442441234164"><ele>126.0</ele><time>2026-03-28T13:22:31.032Z</time></trkpt><trkpt lat="45.28654439637854" lon="8.424367065553243"><ele>126.0</ele><time>2026-03-28T13:22:32.032Z</time></trkpt><trkpt lat="45.2863584771683" lon="8.424309253217023"><ele>126.0</ele><time>2026-03-28T13:22:33.032Z</time></trkpt><trkpt lat="45.286171545167484" lon="8.424256415816313"><ele>126.0</ele><time>2026-03-28T13:22:34.032Z</time></trkpt><trkpt lat="45.28598844936485" lon="8.424203490315069"><ele>126.0</ele><time>2026-03-28T13:22:35.032Z</time></trkpt><trkpt lat="45.28580675036822" lon="8.424151971814403"><ele>126.0</ele><time>2026-03-28T13:22:36.032Z</time></trkpt><trkpt lat="45.28562626684229" lon="8.424103542672233"><ele>124.66666666666666</ele><time>2026-03-28T13:22:37.032Z</time></trkpt><trkpt lat="45.28544549203823" lon="8.424063868275427"><ele>123.33333333333333</ele><time>2026-03-28T13:22:38.032Z</time></trkpt><trkpt lat="45.285262483930794" lon="8.424031485335671"><ele>122.0</ele><time>2026-03-28T13:22:39.032Z</time></trkpt><trkpt lat="45.28507633526927" lon="8.424004655833599"><ele>122.0</ele><time>2026-03-28T13:22:40.032Z</time></trkpt><trkpt lat="45.284888401099096" lon="8.423983727612814"><ele>122.0</ele><time>2026-03-28T13:22:41.032Z</time></trkpt><trkpt lat="45.28469811659555" lon="8.423964253216303"><ele>122.0</ele><time>2026-03-28T13:22:42.032Z</time></trkpt><trkpt lat="45.28450612023456" lon="8.423942177158239"><ele>122.33333333333333</ele><time>2026-03-28T13:22:43.032Z</time></trkpt><trkpt lat="45.28431172720143" lon="8.423914587707193"><ele>122.66666666666666</ele><time>2026-03-28T13:22:44.033Z</time></trkpt><trkpt lat="45.284113883804814" lon="8.423885137265156"><ele>123.0</ele><time>2026-03-28T13:22:45.033Z</time></trkpt><trkpt lat="45.28391190720321" lon="8.42385110948242"><ele>123.33333333333334</ele><time>2026-03-28T13:22:46.033Z</time></trkpt><trkpt lat="45.28370635807544" lon="8.423807748214344"><ele>123.66666666666667</ele><time>2026-03-28T13:22:47.033Z</time></trkpt><trkpt lat="45.28349662928796" lon="8.42375506166165"><ele>124.0</ele><time>2026-03-28T13:22:48.033Z</time></trkpt><trkpt lat="45.283284817835444" lon="8.423693633896582"><ele>123.0</ele><time>2026-03-28T13:22:49.033Z</time></trkpt><trkpt lat="45.283072855469506" lon="8.42362568332985"><ele>122.0</ele><time>2026-03-28T13:22:50.033Z</time></trkpt><trkpt lat="45.28285935998098" lon="8.42354944171246"><ele>121.0</ele><time>2026-03-28T13:22:51.033Z</time></trkpt><trkpt lat="45.28264716911638" lon="8.423460966342159"><ele>121.0</ele><time>2026-03-28T13:22:52.033Z</time></trkpt><trkpt lat="45.28243540527045" lon="8.42336320832148"><ele>121.0</ele><time>2026-03-28T13:22:53.033Z</time></trkpt><trkpt lat="45.28222637793238" lon="8.423261007292073"><ele>121.0</ele><time>2026-03-28T13:22:54.033Z</time></trkpt><trkpt lat="45.28201808245401" lon="8.42316064399562"><ele>121.33333333333334</ele><time>2026-03-28T13:22:55.033Z</time></trkpt><trkpt lat="45.28181043881119" lon="8.423060983484826"><ele>121.66666666666666</ele><time>2026-03-28T13:22:56.033Z</time></trkpt><trkpt lat="45.28160306440967" lon="8.422964406188424"><ele>122.0</ele><time>2026-03-28T13:22:57.033Z</time></trkpt><trkpt lat="45.28139703857346" lon="8.422869192931566"><ele>122.33333333333333</ele><time>2026-03-28T13:22:58.033Z</time></trkpt><trkpt lat="45.28119188209026" lon="8.422773510503504"><ele>122.66666666666666</ele><time>2026-03-28T13:22:59.033Z</time></trkpt><trkpt lat="45.28098815470594" lon="8.42267803951834"><ele>123.0</ele><time>2026-03-28T13:23:00.033Z</time></trkpt><trkpt lat="45.28078419638894" lon="8.422581827721052"><ele>123.33333333333334</ele><time>2026-03-28T13:23:01.033Z</time></trkpt><trkpt lat="45.28057945431604" lon="8.422483624545205"><ele>123.66666666666667</ele><time>2026-03-28T13:23:02.033Z</time></trkpt><trkpt lat="45.28037629601239" lon="8.422387373038843"><ele>124.0</ele><time>2026-03-28T13:23:03.033Z</time></trkpt><trkpt lat="45.28017405183194" lon="8.422294332492655"><ele>124.0</ele><time>2026-03-28T13:23:04.033Z</time></trkpt><trkpt lat="45.279972391818156" lon="8.422201847987631"><ele>124.0</ele><time>2026-03-28T13:23:05.033Z</time></trkpt><trkpt lat="45.279769410338496" lon="8.422109542503662"><ele>124.0</ele><time>2026-03-28T13:23:06.033Z</time></trkpt><trkpt lat="45.27956600744894" lon="8.422021375965421"><ele>123.33333333333334</ele><time>2026-03-28T13:23:07.033Z</time></trkpt><trkpt lat="45.27936231447974" lon="8.42193663527716"><ele>122.66666666666666</ele><time>2026-03-28T13:23:08.033Z</time></trkpt><trkpt lat="45.27915702204764" lon="8.421850893117401"><ele>122.0</ele><time>2026-03-28T13:23:09.033Z</time></trkpt><trkpt lat="45.27895003425866" lon="8.421765337421029"><ele>122.66666666666666</ele><time>2026-03-28T13:23:10.033Z</time></trkpt><trkpt lat="45.27874225408792" lon="8.421677132589283"><ele>123.33333333333334</ele><time>2026-03-28T13:23:11.033Z</time></trkpt><trkpt lat="45.27853467293168" lon="8.421588073285719"><ele>124.0</ele><time>2026-03-28T13:23:12.033Z</time></trkpt><trkpt lat="45.2783276024412" lon="8.421498935308339"><ele>124.0</ele><time>2026-03-28T13:23:13.033Z</time></trkpt><trkpt lat="45.278122003436245" lon="8.421405527763712"><ele>124.0</ele><time>2026-03-28T13:23:14.033Z</time></trkpt><trkpt lat="45.27791581640837" lon="8.42130165693235"><ele>124.0</ele><time>2026-03-28T13:23:15.033Z</time></trkpt><trkpt lat="45.27771194309203" lon="8.421184151032373"><ele>124.0</ele><time>2026-03-28T13:23:16.033Z</time></trkpt><trkpt lat="45.27751398948917" lon="8.421048601345882"><ele>124.0</ele><time>2026-03-28T13:23:17.034Z</time></trkpt><trkpt lat="45.27732049121187" lon="8.420896093905245"><ele>124.0</ele><time>2026-03-28T13:23:18.034Z</time></trkpt><trkpt lat="45.27713220346681" lon="8.420731006205756"><ele>124.0</ele><time>2026-03-28T13:23:19.034Z</time></trkpt><trkpt lat="45.27694783110271" lon="8.420551221309344"><ele>124.0</ele><time>2026-03-28T13:23:20.034Z</time></trkpt><trkpt lat="45.27676832241173" lon="8.42035590474641"><ele>123.66666666666667</ele><time>2026-03-28T13:23:21.034Z</time></trkpt><trkpt lat="45.276595765579785" lon="8.420148924819754"><ele>123.33333333333334</ele><time>2026-03-28T13:23:22.034Z</time></trkpt><trkpt lat="45.2764286192642" lon="8.419945042167807"><ele>123.0</ele><time>2026-03-28T13:23:23.034Z</time></trkpt><trkpt lat="45.27627100905923" lon="8.419741385592404"><ele>123.0</ele><time>2026-03-28T13:23:24.034Z</time></trkpt><trkpt lat="45.27611977641683" lon="8.41954106281991"><ele>123.0</ele><time>2026-03-28T13:23:25.034Z</time></trkpt><trkpt lat="45.27596623779971" lon="8.41934525206486"><ele>123.0</ele><time>2026-03-28T13:23:26.034Z</time></trkpt><trkpt lat="45.27582113571078" lon="8.419157111658503"><ele>123.0</ele><time>2026-03-28T13:23:27.034Z</time></trkpt><trkpt lat="45.27568260150191" lon="8.418970120298066"><ele>123.0</ele><time>2026-03-28T13:23:28.034Z</time></trkpt><trkpt lat="45.275544454795764" lon="8.418786801973736"><ele>123.0</ele><time>2026-03-28T13:23:29.034Z</time></trkpt><trkpt lat="45.275408032232534" lon="8.418608524041549"><ele>123.33333333333334</ele><time>2026-03-28T13:23:30.034Z</time></trkpt><trkpt lat="45.275266668406424" lon="8.418425977775463"><ele>123.66666666666667</ele><time>2026-03-28T13:23:31.034Z</time></trkpt><trkpt lat="45.27512144867249" lon="8.418233758737646"><ele>124.0</ele><time>2026-03-28T13:23:32.034Z</time></trkpt><trkpt lat="45.274972122705506" lon="8.418039278366583"><ele>124.33333333333334</ele><time>2026-03-28T13:23:33.034Z</time></trkpt><trkpt lat="45.274816544898904" lon="8.41784453561296"><ele>124.66666666666666</ele><time>2026-03-28T13:23:34.034Z</time></trkpt><trkpt lat="45.27466008520246" lon="8.417645868368528"><ele>125.0</ele><time>2026-03-28T13:23:35.034Z</time></trkpt><trkpt lat="45.27450602951508" lon="8.417446566789783"><ele>125.0</ele><time>2026-03-28T13:23:36.034Z</time></trkpt><trkpt lat="45.27435374454233" lon="8.417249199062793"><ele>125.0</ele><time>2026-03-28T13:23:37.034Z</time></trkpt><trkpt lat="45.27420377175436" lon="8.417055093510639"><ele>125.0</ele><time>2026-03-28T13:23:38.034Z</time></trkpt><trkpt lat="45.27405640860671" lon="8.416864133303317"><ele>125.33333333333333</ele><time>2026-03-28T13:23:39.034Z</time></trkpt><trkpt lat="45.273911230468315" lon="8.416676926103637"><ele>125.66666666666666</ele><time>2026-03-28T13:23:40.034Z</time></trkpt><trkpt lat="45.27376937935526" lon="8.416495514179099"><ele>126.0</ele><time>2026-03-28T13:23:41.034Z</time></trkpt><trkpt lat="45.27363244938611" lon="8.41632345746165"><ele>126.0</ele><time>2026-03-28T13:23:42.034Z</time></trkpt><trkpt lat="45.27349415619408" lon="8.416167197392669"><ele>126.0</ele><time>2026-03-28T13:23:43.034Z</time></trkpt><trkpt lat="45.27334953397421" lon="8.416030862660433"><ele>126.0</ele><time>2026-03-28T13:23:44.034Z</time></trkpt><trkpt lat="45.27319424316909" lon="8.415938260058025"><ele>127.0</ele><time>2026-03-28T13:23:45.034Z</time></trkpt><trkpt lat="45.273030281196675" lon="8.415879092833235"><ele>128.0</ele><time>2026-03-28T13:23:46.034Z</time></trkpt><trkpt lat="45.27286490232991" lon="8.415853732787864"><ele>129.0</ele><time>2026-03-28T13:23:47.034Z</time></trkpt><trkpt lat="45.2727006851748" lon="8.415839456190467"><ele>129.0</ele><time>2026-03-28T13:23:48.034Z</time></trkpt><trkpt lat="45.27253706742414" lon="8.41582642346737"><ele>129.0</ele><time>2026-03-28T13:23:49.034Z</time></trkpt><trkpt lat="45.272373458963244" lon="8.415802683247763"><ele>129.0</ele><time>2026-03-28T13:23:50.034Z</time></trkpt><trkpt lat="45.272200830068456" lon="8.415775295516594"><ele>127.66666666666666</ele><time>2026-03-28T13:23:51.035Z</time></trkpt><trkpt lat="45.27202696049487" lon="8.415744216057497"><ele>126.33333333333333</ele><time>2026-03-28T13:23:52.035Z</time></trkpt><trkpt lat="45.27184438528357" lon="8.415729077831484"><ele>125.0</ele><time>2026-03-28T13:23:53.035Z</time></trkpt><trkpt lat="45.27164812074172" lon="8.415708957570951"><ele>125.0</ele><time>2026-03-28T13:23:54.035Z</time></trkpt><trkpt lat="45.271446760275346" lon="8.415685341148059"><ele>125.0</ele><time>2026-03-28T13:23:55.035Z</time></trkpt><trkpt lat="45.27123865086375" lon="8.415659457842212"><ele>125.0</ele><time>2026-03-28T13:23:56.035Z</time></trkpt><trkpt lat="45.271026610777284" lon="8.415631718719636"><ele>124.33333333333333</ele><time>2026-03-28T13:23:57.035Z</time></trkpt><trkpt lat="45.27081035001917" lon="8.415609647747369"><ele>123.66666666666666</ele><time>2026-03-28T13:23:58.035Z</time></trkpt><trkpt lat="45.2705908347392" lon="8.41558581457988"><ele>123.0</ele><time>2026-03-28T13:23:59.035Z</time></trkpt><trkpt lat="45.270366537254624" lon="8.415557438086346"><ele>123.0</ele><time>2026-03-28T13:24:00.035Z</time></trkpt><trkpt lat="45.270141932274164" lon="8.415527074549832"><ele>123.0</ele><time>2026-03-28T13:24:01.035Z</time></trkpt><trkpt lat="45.26991459326361" lon="8.415502696328337"><ele>123.5</ele><time>2026-03-28T13:24:02.035Z</time></trkpt><trkpt lat="45.269687284147125" lon="8.415471278701386"><ele>124.0</ele><time>2026-03-28T13:24:03.035Z</time></trkpt><trkpt lat="45.26946161228001" lon="8.415415638534778"><ele>124.0</ele><time>2026-03-28T13:24:04.035Z</time></trkpt><trkpt lat="45.26924001404718" lon="8.415332315858544"><ele>124.0</ele><time>2026-03-28T13:24:05.035Z</time></trkpt><trkpt lat="45.26902130305249" lon="8.415229298429782"><ele>123.5</ele><time>2026-03-28T13:24:06.035Z</time></trkpt><trkpt lat="45.268807408200985" lon="8.415107125917702"><ele>123.0</ele><time>2026-03-28T13:24:07.035Z</time></trkpt><trkpt lat="45.268599658645215" lon="8.414973782654211"><ele>123.0</ele><time>2026-03-28T13:24:08.035Z</time></trkpt><trkpt lat="45.268393532101136" lon="8.414833915259136"><ele>123.0</ele><time>2026-03-28T13:24:09.035Z</time></trkpt><trkpt lat="45.26818960695681" lon="8.414698504530792"><ele>123.0</ele><time>2026-03-28T13:24:10.035Z</time></trkpt><trkpt lat="45.26798685109715" lon="8.414567088071873"><ele>123.0</ele><time>2026-03-28T13:24:11.035Z</time></trkpt><trkpt lat="45.26778325658423" lon="8.414440412135495"><ele>123.0</ele><time>2026-03-28T13:24:12.035Z</time></trkpt><trkpt lat="45.267580657875186" lon="8.414318157977501"><ele>123.0</ele><time>2026-03-28T13:24:13.035Z</time></trkpt><trkpt lat="45.267378791441594" lon="8.41420193338149"><ele>123.0</ele><time>2026-03-28T13:24:14.035Z</time></trkpt><trkpt lat="45.26717420692297" lon="8.414095155823683"><ele>123.0</ele><time>2026-03-28T13:24:15.035Z</time></trkpt><trkpt lat="45.26696953711026" lon="8.414000440127886"><ele>122.66666666666666</ele><time>2026-03-28T13:24:16.035Z</time></trkpt><trkpt lat="45.26676858924601" lon="8.413913075586617"><ele>122.33333333333333</ele><time>2026-03-28T13:24:17.035Z</time></trkpt><trkpt lat="45.26657257599952" lon="8.413828753460876"><ele>122.0</ele><time>2026-03-28T13:24:18.035Z</time></trkpt><trkpt lat="45.26639002956864" lon="8.413747304480271"><ele>122.66666666666666</ele><time>2026-03-28T13:24:19.035Z</time></trkpt><trkpt lat="45.266218534553765" lon="8.413674381631196"><ele>123.33333333333334</ele><time>2026-03-28T13:24:20.035Z</time></trkpt><trkpt lat="45.266057681447414" lon="8.413610857859405"><ele>124.0</ele><time>2026-03-28T13:24:21.035Z</time></trkpt><trkpt lat="45.26590275808048" lon="8.413556735890046"><ele>124.0</ele><time>2026-03-28T13:24:22.035Z</time></trkpt><trkpt lat="45.26575342748488" lon="8.413509262549217"><ele>124.0</ele><time>2026-03-28T13:24:23.035Z</time></trkpt><trkpt lat="45.26561730857072" lon="8.413465077424066"><ele>124.0</ele><time>2026-03-28T13:24:24.036Z</time></trkpt><trkpt lat="45.265494530311926" lon="8.41342841668211"><ele>124.0</ele><time>2026-03-28T13:24:25.036Z</time></trkpt><trkpt lat="45.265377966208455" lon="8.413392490423565"><ele>124.25</ele><time>2026-03-28T13:24:26.036Z</time></trkpt><trkpt lat="45.26526236788742" lon="8.413354394152785"><ele>124.5</ele><time>2026-03-28T13:24:27.036Z</time></trkpt><trkpt lat="45.265136875668624" lon="8.413319240209663"><ele>124.75</ele><time>2026-03-28T13:24:28.036Z</time></trkpt><trkpt lat="45.265004572797174" lon="8.413282065813966"><ele>125.0</ele><time>2026-03-28T13:24:29.036Z</time></trkpt><trkpt lat="45.26486850536508" lon="8.413245311964763"><ele>125.0</ele><time>2026-03-28T13:24:30.036Z</time></trkpt><trkpt lat="45.26472714598955" lon="8.413212023854685"><ele>125.0</ele><time>2026-03-28T13:24:31.036Z</time></trkpt><trkpt lat="45.26458231058362" lon="8.413183788135226"><ele>125.0</ele><time>2026-03-28T13:24:32.036Z</time></trkpt><trkpt lat="45.264445662321315" lon="8.413159428823965"><ele>125.0</ele><time>2026-03-28T13:24:33.036Z</time></trkpt><trkpt lat="45.26431515745679" lon="8.413136213347485"><ele>125.0</ele><time>2026-03-28T13:24:34.036Z</time></trkpt><trkpt lat="45.26418686839151" lon="8.413119868337049"><ele>125.0</ele><time>2026-03-28T13:24:35.036Z</time></trkpt><trkpt lat="45.26406346642804" lon="8.41311224680992"><ele>125.0</ele><time>2026-03-28T13:24:36.036Z</time></trkpt><trkpt lat="45.263953175338806" lon="8.413111114451121"><ele>125.0</ele><time>2026-03-28T13:24:37.034Z</time></trkpt><trkpt lat="45.26384733544245" lon="8.413119352401555"><ele>124.8</ele><time>2026-03-28T13:24:38.034Z</time></trkpt><trkpt lat="45.26373682474901" lon="8.41312216225818"><ele>124.6</ele><time>2026-03-28T13:24:39.034Z</time></trkpt><trkpt lat="45.263623346515594" lon="8.413098059561351"><ele>124.4</ele><time>2026-03-28T13:24:40.034Z</time></trkpt><trkpt lat="45.26352571926313" lon="8.413049559166867"><ele>124.2</ele><time>2026-03-28T13:24:41.034Z</time></trkpt><trkpt lat="45.26344597747503" lon="8.412955261150348"><ele>124.0</ele><time>2026-03-28T13:24:42.034Z</time></trkpt><trkpt lat="45.26338441850773" lon="8.412831574965082"><ele>123.75</ele><time>2026-03-28T13:24:43.034Z</time></trkpt><trkpt lat="45.263327227001426" lon="8.412685981016377"><ele>123.5</ele><time>2026-03-28T13:24:44.034Z</time></trkpt><trkpt lat="45.26326786439063" lon="8.41252952210065"><ele>123.25</ele><time>2026-03-28T13:24:45.034Z</time></trkpt><trkpt lat="45.26320045931711" lon="8.412367402758216"><ele>123.0</ele><time>2026-03-28T13:24:46.035Z</time></trkpt><trkpt lat="45.26313142292285" lon="8.412200540057482"><ele>123.0</ele><time>2026-03-28T13:24:47.034Z</time></trkpt><trkpt lat="45.26306016678749" lon="8.41202460052159"><ele>123.0</ele><time>2026-03-28T13:24:48.034Z</time></trkpt><trkpt lat="45.26298761859829" lon="8.411848850375529"><ele>123.0</ele><time>2026-03-28T13:24:49.034Z</time></trkpt><trkpt lat="45.26291738045831" lon="8.411673719472192"><ele>123.0</ele><time>2026-03-28T13:24:50.035Z</time></trkpt><trkpt lat="45.262846065155564" lon="8.411499131931562"><ele>123.0</ele><time>2026-03-28T13:24:51.035Z</time></trkpt><trkpt lat="45.26277850052167" lon="8.411336913448721"><ele>123.0</ele><time>2026-03-28T13:24:52.035Z</time></trkpt><trkpt lat="45.262717631497566" lon="8.411182056512528"><ele>123.0</ele><time>2026-03-28T13:24:53.035Z</time></trkpt><trkpt lat="45.26266245287512" lon="8.411035233292834"><ele>123.0</ele><time>2026-03-28T13:24:54.035Z</time></trkpt><trkpt lat="45.26260820719434" lon="8.410894686048854"><ele>123.25</ele><time>2026-03-28T13:24:55.035Z</time></trkpt><trkpt lat="45.26254805564993" lon="8.410751912350127"><ele>123.5</ele><time>2026-03-28T13:24:56.035Z</time></trkpt><trkpt lat="45.26249127121356" lon="8.41061080596292"><ele>123.75</ele><time>2026-03-28T13:24:57.035Z</time></trkpt><trkpt lat="45.262431826525216" lon="8.410474782378909"><ele>124.0</ele><time>2026-03-28T13:24:58.035Z</time></trkpt><trkpt lat="45.262368081729434" lon="8.410343314330765"><ele>124.0</ele><time>2026-03-28T13:24:59.035Z</time></trkpt><trkpt lat="45.26230740739005" lon="8.410216040017778"><ele>124.0</ele><time>2026-03-28T13:25:00.035Z</time></trkpt><trkpt lat="45.262237073982774" lon="8.410093177912996"><ele>124.0</ele><time>2026-03-28T13:25:01.035Z</time></trkpt><trkpt lat="45.26216054091863" lon="8.409975774755015"><ele>124.0</ele><time>2026-03-28T13:25:02.035Z</time></trkpt><trkpt lat="45.262078426397096" lon="8.40986666693841"><ele>124.0</ele><time>2026-03-28T13:25:03.035Z</time></trkpt><trkpt lat="45.26200064534256" lon="8.409763840688042"><ele>124.16666666666667</ele><time>2026-03-28T13:25:04.035Z</time></trkpt><trkpt lat="45.26192790973572" lon="8.409668154758688"><ele>124.33333333333334</ele><time>2026-03-28T13:25:05.035Z</time></trkpt><trkpt lat="45.261861128702066" lon="8.409579208319718"><ele>124.5</ele><time>2026-03-28T13:25:06.035Z</time></trkpt><trkpt lat="45.2617950301685" lon="8.409504261539897"><ele>124.66666666666666</ele><time>2026-03-28T13:25:07.035Z</time></trkpt><trkpt lat="45.26174220001421" lon="8.409425216355643"><ele>124.83333333333333</ele><time>2026-03-28T13:25:08.035Z</time></trkpt><trkpt lat="45.26170644842187" lon="8.409342111723573"><ele>125.0</ele><time>2026-03-28T13:25:09.035Z</time></trkpt><trkpt lat="45.26170390011506" lon="8.409195867579612"><ele>125.0</ele><time>2026-03-28T13:25:11.035Z</time></trkpt><trkpt lat="45.26176582083187" lon="8.409093018133111"><ele>125.0</ele><time>2026-03-28T13:25:12.035Z</time></trkpt><trkpt lat="45.261825544285195" lon="8.40897405938366"><ele>125.0</ele><time>2026-03-28T13:25:13.035Z</time></trkpt><trkpt lat="45.26188125947065" lon="8.40884492196729"><ele>125.0</ele><time>2026-03-28T13:25:14.035Z</time></trkpt><trkpt lat="45.261931701739776" lon="8.408721766162465"><ele>125.0</ele><time>2026-03-28T13:25:15.035Z</time></trkpt><trkpt lat="45.26198624392471" lon="8.40857991591197"><ele>125.0</ele><time>2026-03-28T13:25:16.035Z</time></trkpt><trkpt lat="45.262045916678076" lon="8.40843900776576"><ele>125.0</ele><time>2026-03-28T13:25:17.035Z</time></trkpt><trkpt lat="45.26210047990651" lon="8.408313860322911"><ele>125.0</ele><time>2026-03-28T13:25:18.035Z</time></trkpt><trkpt lat="45.26215147347636" lon="8.40819562263004"><ele>125.0</ele><time>2026-03-28T13:25:19.035Z</time></trkpt><trkpt lat="45.26219263445737" lon="8.408088797163058"><ele>125.0</ele><time>2026-03-28T13:25:20.035Z</time></trkpt><trkpt lat="45.26222539607549" lon="8.408000836381193"><ele>125.0</ele><time>2026-03-28T13:25:21.036Z</time></trkpt><trkpt lat="45.262240258657776" lon="8.407848956378965"><ele>125.0</ele><time>2026-03-28T13:25:23.036Z</time></trkpt><trkpt lat="45.26216508129974" lon="8.407724240334108"><ele>125.0</ele><time>2026-03-28T13:25:25.036Z</time></trkpt><trkpt lat="45.26207916370373" lon="8.407679392500494"><ele>125.0</ele><time>2026-03-28T13:25:26.036Z</time></trkpt><trkpt lat="45.261985146665744" lon="8.40762351144558"><ele>125.0</ele><time>2026-03-28T13:25:27.036Z</time></trkpt><trkpt lat="45.261899322349755" lon="8.407569666980997"><ele>125.0</ele><time>2026-03-28T13:25:28.036Z</time></trkpt><trkpt lat="45.2618086660076" lon="8.40751530784297"><ele>125.0</ele><time>2026-03-28T13:25:29.036Z</time></trkpt><trkpt lat="45.261717162778154" lon="8.407466256538921"><ele>125.0</ele><time>2026-03-28T13:25:30.036Z</time></trkpt><trkpt lat="45.26162256676786" lon="8.407409798817739"><ele>125.0</ele><time>2026-03-28T13:25:31.036Z</time></trkpt><trkpt lat="45.261521613855365" lon="8.4073668172893"><ele>125.0</ele><time>2026-03-28T13:25:32.036Z</time></trkpt><trkpt lat="45.26141522905247" lon="8.407332663689745"><ele>125.16666666666666</ele><time>2026-03-28T13:25:33.036Z</time></trkpt><trkpt lat="45.26131209850044" lon="8.407280859956453"><ele>125.33333333333333</ele><time>2026-03-28T13:25:34.036Z</time></trkpt><trkpt lat="45.2612193563012" lon="8.407231548690651"><ele>125.5</ele><time>2026-03-28T13:25:35.036Z</time></trkpt><trkpt lat="45.26113852429717" lon="8.407182275459201"><ele>125.66666666666666</ele><time>2026-03-28T13:25:36.036Z</time></trkpt><trkpt lat="45.261065499480786" lon="8.407144093883279"><ele>125.83333333333333</ele><time>2026-03-28T13:25:37.036Z</time></trkpt><trkpt lat="45.26100507623137" lon="8.407108413135434"><ele>126.0</ele><time>2026-03-28T13:25:38.036Z</time></trkpt><trkpt lat="45.26093482853718" lon="8.40704203501724"><ele>126.33333333333333</ele><time>2026-03-28T13:25:40.036Z</time></trkpt><trkpt lat="45.26092682986252" lon="8.406925393216014"><ele>126.66666666666666</ele><time>2026-03-28T13:25:42.036Z</time></trkpt><trkpt lat="45.260948540431755" lon="8.406827977783008"><ele>127.0</ele><time>2026-03-28T13:25:43.036Z</time></trkpt><trkpt lat="45.260979761111415" lon="8.406715609156361"><ele>127.33333333333333</ele><time>2026-03-28T13:25:44.036Z</time></trkpt><trkpt lat="45.26101229090839" lon="8.406595855634645"><ele>127.66666666666666</ele><time>2026-03-28T13:25:45.036Z</time></trkpt><trkpt lat="45.261045002915786" lon="8.406466575656676"><ele>128.0</ele><time>2026-03-28T13:25:46.036Z</time></trkpt><trkpt lat="45.26107310498508" lon="8.406337263884042"><ele>128.0</ele><time>2026-03-28T13:25:47.036Z</time></trkpt><trkpt lat="45.26110073303291" lon="8.406196273122003"><ele>128.0</ele><time>2026-03-28T13:25:48.036Z</time></trkpt><trkpt lat="45.261125627857574" lon="8.406061802709791"><ele>128.0</ele><time>2026-03-28T13:25:49.036Z</time></trkpt><trkpt lat="45.26115285339567" lon="8.405922913397395"><ele>128.0</ele><time>2026-03-28T13:25:50.036Z</time></trkpt><trkpt lat="45.26118109842183" lon="8.405795699603795"><ele>128.0</ele><time>2026-03-28T13:25:51.036Z</time></trkpt><trkpt lat="45.26120996844147" lon="8.405675836290412"><ele>128.0</ele><time>2026-03-28T13:25:52.036Z</time></trkpt><trkpt lat="45.261246702150494" lon="8.405561006996754"><ele>128.0</ele><time>2026-03-28T13:25:53.036Z</time></trkpt><trkpt lat="45.26127868135359" lon="8.405446023313734"><ele>128.0</ele><time>2026-03-28T13:25:54.037Z</time></trkpt><trkpt lat="45.26131608904044" lon="8.405339747062342"><ele>128.0</ele><time>2026-03-28T13:25:55.037Z</time></trkpt><trkpt lat="45.261362367895835" lon="8.405225535563329"><ele>128.0</ele><time>2026-03-28T13:25:56.037Z</time></trkpt><trkpt lat="45.26141246507923" lon="8.40509974798291"><ele>128.0</ele><time>2026-03-28T13:25:57.037Z</time></trkpt><trkpt lat="45.26146094768571" lon="8.404965552980876"><ele>128.0</ele><time>2026-03-28T13:25:58.037Z</time></trkpt><trkpt lat="45.26150835302272" lon="8.404823702489615"><ele>128.0</ele><time>2026-03-28T13:25:59.037Z</time></trkpt><trkpt lat="45.26154654974875" lon="8.404680847682926"><ele>128.0</ele><time>2026-03-28T13:26:00.037Z</time></trkpt><trkpt lat="45.261571076300484" lon="8.404541712806664"><ele>128.0</ele><time>2026-03-28T13:26:01.037Z</time></trkpt><trkpt lat="45.2615868930758" lon="8.404407401732557"><ele>127.99999999999999</ele><time>2026-03-28T13:26:02.037Z</time></trkpt><trkpt lat="45.261603723022155" lon="8.404288046315875"><ele>128.0</ele><time>2026-03-28T13:26:03.037Z</time></trkpt><trkpt lat="45.26161176010229" lon="8.404193167073204"><ele>128.0</ele><time>2026-03-28T13:26:04.037Z</time></trkpt><trkpt lat="45.26158404241826" lon="8.404062388599103"><ele>128.0</ele><time>2026-03-28T13:26:06.037Z</time></trkpt><trkpt lat="45.26149927505893" lon="8.404011974129418"><ele>127.99999999999999</ele><time>2026-03-28T13:26:08.037Z</time></trkpt><trkpt lat="45.26141998963235" lon="8.403983735065848"><ele>128.0</ele><time>2026-03-28T13:26:09.037Z</time></trkpt><trkpt lat="45.26133411072975" lon="8.403946238849894"><ele>127.80000000000001</ele><time>2026-03-28T13:26:10.037Z</time></trkpt><trkpt lat="45.2612452834868" lon="8.403905676095553"><ele>127.60000000000001</ele><time>2026-03-28T13:26:11.037Z</time></trkpt><trkpt lat="45.261154980400065" lon="8.403857241345813"><ele>127.39999999999999</ele><time>2026-03-28T13:26:12.037Z</time></trkpt><trkpt lat="45.2610523251381" lon="8.40380590622423"><ele>127.19999999999999</ele><time>2026-03-28T13:26:13.037Z</time></trkpt><trkpt lat="45.26096560793674" lon="8.403750998997955"><ele>127.0</ele><time>2026-03-28T13:26:14.037Z</time></trkpt><trkpt lat="45.26088217953701" lon="8.40371018066121"><ele>126.8</ele><time>2026-03-28T13:26:15.037Z</time></trkpt><trkpt lat="45.260805752171336" lon="8.403672608486753"><ele>126.6</ele><time>2026-03-28T13:26:16.037Z</time></trkpt><trkpt lat="45.26073720641616" lon="8.403636470793323"><ele>126.39999999999999</ele><time>2026-03-28T13:26:17.037Z</time></trkpt><trkpt lat="45.26063642547775" lon="8.403575728667013"><ele>126.19999999999999</ele><time>2026-03-28T13:26:19.037Z</time></trkpt><trkpt lat="45.26051724201271" lon="8.403520751609577"><ele>126.0</ele><time>2026-03-28T13:26:21.037Z</time></trkpt><trkpt lat="45.26044209039438" lon="8.403451826141344"><ele>125.6</ele><time>2026-03-28T13:26:22.037Z</time></trkpt><trkpt lat="45.260355560504586" lon="8.403370159218973"><ele>125.19999999999999</ele><time>2026-03-28T13:26:23.037Z</time></trkpt><trkpt lat="45.26026845919148" lon="8.4032786067702"><ele>124.80000000000001</ele><time>2026-03-28T13:26:24.037Z</time></trkpt><trkpt lat="45.26018177689206" lon="8.403187535412103"><ele>124.4</ele><time>2026-03-28T13:26:25.037Z</time></trkpt><trkpt lat="45.26009748015973" lon="8.403084838647999"><ele>124.0</ele><time>2026-03-28T13:26:26.037Z</time></trkpt><trkpt lat="45.26001569038135" lon="8.402965906530916"><ele>124.0</ele><time>2026-03-28T13:26:27.038Z</time></trkpt><trkpt lat="45.259940281763136" lon="8.402821388315136"><ele>124.0</ele><time>2026-03-28T13:26:28.038Z</time></trkpt><trkpt lat="45.25988027606614" lon="8.402665681419176"><ele>124.0</ele><time>2026-03-28T13:26:29.038Z</time></trkpt><trkpt lat="45.259826268875536" lon="8.402523354466128"><ele>124.0</ele><time>2026-03-28T13:26:30.038Z</time></trkpt><trkpt lat="45.25978640820396" lon="8.402378367492794"><ele>124.0</ele><time>2026-03-28T13:26:31.038Z</time></trkpt><trkpt lat="45.25976955092447" lon="8.402218014105333"><ele>124.0</ele><time>2026-03-28T13:26:32.038Z</time></trkpt><trkpt lat="45.25977470870455" lon="8.402044356139532"><ele>124.0</ele><time>2026-03-28T13:26:33.038Z</time></trkpt><trkpt lat="45.25978502829038" lon="8.40186824299048"><ele>124.0</ele><time>2026-03-28T13:26:34.038Z</time></trkpt><trkpt lat="45.259777052946866" lon="8.401707580271667"><ele>124.25</ele><time>2026-03-28T13:26:35.038Z</time></trkpt><trkpt lat="45.25975428859198" lon="8.401558570296189"><ele>124.5</ele><time>2026-03-28T13:26:36.038Z</time></trkpt><trkpt lat="45.25967301036858" lon="8.401426957051761"><ele>124.75</ele><time>2026-03-28T13:26:37.038Z</time></trkpt><trkpt lat="45.259569083530614" lon="8.401309392869758"><ele>125.0</ele><time>2026-03-28T13:26:38.038Z</time></trkpt><trkpt lat="45.25944772508855" lon="8.40121927729836"><ele>125.0</ele><time>2026-03-28T13:26:39.038Z</time></trkpt><trkpt lat="45.259312798294" lon="8.401161908592393"><ele>125.0</ele><time>2026-03-28T13:26:40.038Z</time></trkpt><trkpt lat="45.259176870882" lon="8.40112083378416"><ele>125.0</ele><time>2026-03-28T13:26:41.038Z</time></trkpt><trkpt lat="45.259045344492236" lon="8.401084121147058"><ele>125.0</ele><time>2026-03-28T13:26:42.038Z</time></trkpt><trkpt lat="45.25890796186793" lon="8.401051871377796"><ele>125.5</ele><time>2026-03-28T13:26:43.036Z</time></trkpt><trkpt lat="45.258764314889746" lon="8.401032547759598"><ele>126.0</ele><time>2026-03-28T13:26:44.036Z</time></trkpt><trkpt lat="45.25863060420605" lon="8.401013041926722"><ele>126.5</ele><time>2026-03-28T13:26:45.036Z</time></trkpt><trkpt lat="45.258503309022835" lon="8.400992983825368"><ele>127.0</ele><time>2026-03-28T13:26:46.036Z</time></trkpt><trkpt lat="45.25838187174425" lon="8.400963215376105"><ele>127.0</ele><time>2026-03-28T13:26:47.036Z</time></trkpt><trkpt lat="45.25827279820046" lon="8.400918608102113"><ele>127.0</ele><time>2026-03-28T13:26:48.036Z</time></trkpt><trkpt lat="45.25817103663919" lon="8.400861393643316"><ele>127.0</ele><time>2026-03-28T13:26:49.036Z</time></trkpt><trkpt lat="45.25806825725819" lon="8.400785559710654"><ele>127.0</ele><time>2026-03-28T13:26:50.036Z</time></trkpt><trkpt lat="45.257960344016624" lon="8.400698296110695"><ele>127.0</ele><time>2026-03-28T13:26:51.036Z</time></trkpt><trkpt lat="45.2578561793178" lon="8.400592781251628"><ele>127.0</ele><time>2026-03-28T13:26:52.036Z</time></trkpt><trkpt lat="45.25775881353532" lon="8.400463472315403"><ele>127.0</ele><time>2026-03-28T13:26:53.036Z</time></trkpt><trkpt lat="45.25765787056711" lon="8.40031332006062"><ele>127.0</ele><time>2026-03-28T13:26:54.036Z</time></trkpt><trkpt lat="45.25757137373126" lon="8.400140003628124"><ele>126.66666666666667</ele><time>2026-03-28T13:26:55.036Z</time></trkpt><trkpt lat="45.25749471507919" lon="8.399949217118769"><ele>126.33333333333334</ele><time>2026-03-28T13:26:56.036Z</time></trkpt><trkpt lat="45.257417197209065" lon="8.39975552846406"><ele>126.0</ele><time>2026-03-28T13:26:57.036Z</time></trkpt><trkpt lat="45.25732195953979" lon="8.399561530650889"><ele>126.0</ele><time>2026-03-28T13:26:58.036Z</time></trkpt><trkpt lat="45.25721356927995" lon="8.399371546504597"><ele>126.0</ele><time>2026-03-28T13:26:59.036Z</time></trkpt><trkpt lat="45.25709741562694" lon="8.399188459083542"><ele>126.0</ele><time>2026-03-28T13:27:00.036Z</time></trkpt><trkpt lat="45.25697826222999" lon="8.39901810104012"><ele>126.0</ele><time>2026-03-28T13:27:01.036Z</time></trkpt><trkpt lat="45.2568486265205" lon="8.398852489372436"><ele>126.0</ele><time>2026-03-28T13:27:02.037Z</time></trkpt><trkpt lat="45.25671107247583" lon="8.398692468896678"><ele>126.0</ele><time>2026-03-28T13:27:03.037Z</time></trkpt><trkpt lat="45.25656176927225" lon="8.398543093100429"><ele>125.33333333333334</ele><time>2026-03-28T13:27:04.037Z</time></trkpt><trkpt lat="45.25640516132568" lon="8.398397048314544"><ele>124.66666666666667</ele><time>2026-03-28T13:27:05.037Z</time></trkpt><trkpt lat="45.25624525748268" lon="8.398253089622985"><ele>124.0</ele><time>2026-03-28T13:27:06.037Z</time></trkpt><trkpt lat="45.25608063560906" lon="8.398128937673093"><ele>124.0</ele><time>2026-03-28T13:27:07.037Z</time></trkpt><trkpt lat="45.25590707627727" lon="8.3980418973536"><ele>124.0</ele><time>2026-03-28T13:27:08.037Z</time></trkpt><trkpt lat="45.25572388634737" lon="8.397989793182969"><ele>124.0</ele><time>2026-03-28T13:27:09.037Z</time></trkpt><trkpt lat="45.25553204576217" lon="8.397964723818454"><ele>124.0</ele><time>2026-03-28T13:27:10.037Z</time></trkpt><trkpt lat="45.25533568592341" lon="8.397948522352147"><ele>124.0</ele><time>2026-03-28T13:27:11.037Z</time></trkpt><trkpt lat="45.25513586162397" lon="8.397929462938023"><ele>124.0</ele><time>2026-03-28T13:27:12.037Z</time></trkpt><trkpt lat="45.25493863373727" lon="8.397901144353169"><ele>124.33333333333334</ele><time>2026-03-28T13:27:13.037Z</time></trkpt><trkpt lat="45.254747471111976" lon="8.397859419998449"><ele>124.66666666666666</ele><time>2026-03-28T13:27:14.037Z</time></trkpt><trkpt lat="45.25456215061723" lon="8.397792766719814"><ele>125.0</ele><time>2026-03-28T13:27:15.037Z</time></trkpt><trkpt lat="45.25439007316867" lon="8.39769300218962"><ele>125.0</ele><time>2026-03-28T13:27:16.037Z</time></trkpt><trkpt lat="45.254238456006185" lon="8.39756726976934"><ele>125.0</ele><time>2026-03-28T13:27:17.037Z</time></trkpt><trkpt lat="45.25411028700847" lon="8.397410698480668"><ele>125.0</ele><time>2026-03-28T13:27:18.037Z</time></trkpt><trkpt lat="45.25400835595722" lon="8.397213806311724"><ele>125.0</ele><time>2026-03-28T13:27:19.037Z</time></trkpt><trkpt lat="45.25393227526816" lon="8.396989104460092"><ele>125.0</ele><time>2026-03-28T13:27:20.037Z</time></trkpt><trkpt lat="45.253861721080696" lon="8.39675815211595"><ele>125.0</ele><time>2026-03-28T13:27:21.037Z</time></trkpt><trkpt lat="45.25379205707482" lon="8.396522935544434"><ele>125.33333333333333</ele><time>2026-03-28T13:27:22.037Z</time></trkpt><trkpt lat="45.25372132309215" lon="8.396279961272917"><ele>125.66666666666666</ele><time>2026-03-28T13:27:23.037Z</time></trkpt><trkpt lat="45.25365634766537" lon="8.396029721740058"><ele>126.0</ele><time>2026-03-28T13:27:24.037Z</time></trkpt><trkpt lat="45.253605146211896" lon="8.395771937217607"><ele>126.0</ele><time>2026-03-28T13:27:25.037Z</time></trkpt><trkpt lat="45.25357352716163" lon="8.395503999473227"><ele>126.0</ele><time>2026-03-28T13:27:26.037Z</time></trkpt><trkpt lat="45.25356119306236" lon="8.395234776940251"><ele>126.0</ele><time>2026-03-28T13:27:27.037Z</time></trkpt><trkpt lat="45.25356435642409" lon="8.394984726451352"><ele>126.0</ele><time>2026-03-28T13:27:28.037Z</time></trkpt><trkpt lat="45.25356938426624" lon="8.394746807884252"><ele>126.0</ele><time>2026-03-28T13:27:29.037Z</time></trkpt><trkpt lat="45.253565141806995" lon="8.394520470867297"><ele>126.0</ele><time>2026-03-28T13:27:30.037Z</time></trkpt><trkpt lat="45.253547311575346" lon="8.394306052054631"><ele>125.75</ele><time>2026-03-28T13:27:31.037Z</time></trkpt><trkpt lat="45.2535051254673" lon="8.394111019450957"><ele>125.5</ele><time>2026-03-28T13:27:32.037Z</time></trkpt><trkpt lat="45.25343549382657" lon="8.393946852631919"><ele>125.25</ele><time>2026-03-28T13:27:33.037Z</time></trkpt><trkpt lat="45.25334128751625" lon="8.393802930554147"><ele>125.0</ele><time>2026-03-28T13:27:34.037Z</time></trkpt><trkpt lat="45.25321723404801" lon="8.393679466786898"><ele>125.33333333333333</ele><time>2026-03-28T13:27:35.037Z</time></trkpt><trkpt lat="45.25306658758896" lon="8.393574220955871"><ele>125.66666666666666</ele><time>2026-03-28T13:27:36.038Z</time></trkpt><trkpt lat="45.2528991237385" lon="8.393486667754962"><ele>126.0</ele><time>2026-03-28T13:27:37.038Z</time></trkpt><trkpt lat="45.25271932562764" lon="8.393417256078278"><ele>126.0</ele><time>2026-03-28T13:27:38.038Z</time></trkpt><trkpt lat="45.25252932251233" lon="8.393368369420356"><ele>126.0</ele><time>2026-03-28T13:27:39.038Z</time></trkpt><trkpt lat="45.252328743458506" lon="8.39334494014267"><ele>126.0</ele><time>2026-03-28T13:27:40.038Z</time></trkpt><trkpt lat="45.25213124278866" lon="8.393347984765736"><ele>126.0</ele><time>2026-03-28T13:27:41.038Z</time></trkpt><trkpt lat="45.25192534526338" lon="8.393361331546236"><ele>126.0</ele><time>2026-03-28T13:27:42.038Z</time></trkpt><trkpt lat="45.251716262657375" lon="8.393365250191954"><ele>126.0</ele><time>2026-03-28T13:27:43.038Z</time></trkpt><trkpt lat="45.251504432804346" lon="8.393362264880063"><ele>125.66666666666666</ele><time>2026-03-28T13:27:44.038Z</time></trkpt><trkpt lat="45.2512906463398" lon="8.393359367264923"><ele>125.33333333333333</ele><time>2026-03-28T13:27:45.038Z</time></trkpt><trkpt lat="45.25107737431114" lon="8.393357774276778"><ele>125.0</ele><time>2026-03-28T13:27:46.038Z</time></trkpt><trkpt lat="45.250870093291084" lon="8.393339856713437"><ele>125.0</ele><time>2026-03-28T13:27:47.038Z</time></trkpt><trkpt lat="45.25067350297026" lon="8.393292598409728"><ele>125.0</ele><time>2026-03-28T13:27:48.038Z</time></trkpt><trkpt lat="45.25049159099472" lon="8.393217996500391"><ele>125.0</ele><time>2026-03-28T13:27:49.038Z</time></trkpt><trkpt lat="45.250315161207666" lon="8.39310916018033"><ele>125.0</ele><time>2026-03-28T13:27:50.038Z</time></trkpt><trkpt lat="45.25014174624222" lon="8.392978639655006"><ele>125.0</ele><time>2026-03-28T13:27:51.038Z</time></trkpt><trkpt lat="45.24996697081502" lon="8.392839486938287"><ele>125.0</ele><time>2026-03-28T13:27:52.038Z</time></trkpt><trkpt lat="45.249790023617614" lon="8.392692735198327"><ele>125.33333333333333</ele><time>2026-03-28T13:27:53.038Z</time></trkpt><trkpt lat="45.249611211220625" lon="8.392542934656126"><ele>125.66666666666666</ele><time>2026-03-28T13:27:54.038Z</time></trkpt><trkpt lat="45.24943094367372" lon="8.392392427062669"><ele>126.0</ele><time>2026-03-28T13:27:55.038Z</time></trkpt><trkpt lat="45.249250615316996" lon="8.392230613457935"><ele>125.66666666666666</ele><time>2026-03-28T13:27:56.038Z</time></trkpt><trkpt lat="45.24907340459908" lon="8.39206160638986"><ele>125.33333333333333</ele><time>2026-03-28T13:27:57.038Z</time></trkpt><trkpt lat="45.24890552635743" lon="8.391907667135941"><ele>125.0</ele><time>2026-03-28T13:27:58.038Z</time></trkpt><trkpt lat="45.248746710724795" lon="8.39175720085061"><ele>125.0</ele><time>2026-03-28T13:27:59.038Z</time></trkpt><trkpt lat="45.2486012766617" lon="8.391578168713094"><ele>125.0</ele><time>2026-03-28T13:28:00.038Z</time></trkpt><trkpt lat="45.24847198627885" lon="8.39136992730483"><ele>125.0</ele><time>2026-03-28T13:28:01.038Z</time></trkpt><trkpt lat="45.248350742586005" lon="8.39114370186158"><ele>125.0</ele><time>2026-03-28T13:28:02.038Z</time></trkpt><trkpt lat="45.248228647377935" lon="8.390908539907437"><ele>125.0</ele><time>2026-03-28T13:28:03.038Z</time></trkpt><trkpt lat="45.24810420368284" lon="8.390666590329399"><ele>125.0</ele><time>2026-03-28T13:28:04.038Z</time></trkpt><trkpt lat="45.24797573490539" lon="8.390419894902882"><ele>125.0</ele><time>2026-03-28T13:28:05.038Z</time></trkpt><trkpt lat="45.24784584451073" lon="8.390169208659884"><ele>125.0</ele><time>2026-03-28T13:28:06.038Z</time></trkpt><trkpt lat="45.24771632066916" lon="8.389914915983026"><ele>125.0</ele><time>2026-03-28T13:28:07.038Z</time></trkpt><trkpt lat="45.247582586194724" lon="8.38965840515755"><ele>125.0</ele><time>2026-03-28T13:28:08.038Z</time></trkpt><trkpt lat="45.24743943064452" lon="8.389408122260992"><ele>125.0</ele><time>2026-03-28T13:28:09.039Z</time></trkpt><trkpt lat="45.247283776560934" lon="8.389168701285831"><ele>125.0</ele><time>2026-03-28T13:28:10.039Z</time></trkpt><trkpt lat="45.24711715070127" lon="8.388938845110141"><ele>125.0</ele><time>2026-03-28T13:28:11.039Z</time></trkpt><trkpt lat="45.246943579387334" lon="8.388718712028698"><ele>124.5</ele><time>2026-03-28T13:28:12.039Z</time></trkpt><trkpt lat="45.24677018125573" lon="8.388495042242022"><ele>124.0</ele><time>2026-03-28T13:28:13.039Z</time></trkpt><trkpt lat="45.24659901057555" lon="8.38826904006249"><ele>124.5</ele><time>2026-03-28T13:28:14.039Z</time></trkpt><trkpt lat="45.246431905182156" lon="8.388048663835344"><ele>125.0</ele><time>2026-03-28T13:28:15.039Z</time></trkpt><trkpt lat="45.24626780655659" lon="8.387828836811462"><ele>125.0</ele><time>2026-03-28T13:28:16.039Z</time></trkpt><trkpt lat="45.246110648674275" lon="8.387602014411339"><ele>125.0</ele><time>2026-03-28T13:28:17.039Z</time></trkpt><trkpt lat="45.24596145118495" lon="8.387360474668323"><ele>125.0</ele><time>2026-03-28T13:28:18.039Z</time></trkpt><trkpt lat="45.24582324230343" lon="8.387106038133963"><ele>125.0</ele><time>2026-03-28T13:28:19.039Z</time></trkpt><trkpt lat="45.24569010838172" lon="8.386842727209245"><ele>125.0</ele><time>2026-03-28T13:28:20.039Z</time></trkpt><trkpt lat="45.24556014129252" lon="8.386577022017297"><ele>125.0</ele><time>2026-03-28T13:28:21.039Z</time></trkpt><trkpt lat="45.24543337769254" lon="8.386316000453055"><ele>125.0</ele><time>2026-03-28T13:28:22.039Z</time></trkpt><trkpt lat="45.245310791249025" lon="8.386056764008314"><ele>125.0</ele><time>2026-03-28T13:28:23.039Z</time></trkpt><trkpt lat="45.24518819166966" lon="8.385799654135345"><ele>125.0</ele><time>2026-03-28T13:28:24.039Z</time></trkpt><trkpt lat="45.24506898275326" lon="8.385549935705765"><ele>125.0</ele><time>2026-03-28T13:28:25.039Z</time></trkpt><trkpt lat="45.24495076925503" lon="8.385304681798612"><ele>125.0</ele><time>2026-03-28T13:28:26.039Z</time></trkpt><trkpt lat="45.24483640867503" lon="8.385060077434327"><ele>125.0</ele><time>2026-03-28T13:28:27.039Z</time></trkpt><trkpt lat="45.24472099278049" lon="8.384810913044838"><ele>125.0</ele><time>2026-03-28T13:28:28.039Z</time></trkpt><trkpt lat="45.24460442522696" lon="8.38456188846329"><ele>125.0</ele><time>2026-03-28T13:28:29.039Z</time></trkpt><trkpt lat="45.24448418184393" lon="8.384313495908227"><ele>125.0</ele><time>2026-03-28T13:28:30.039Z</time></trkpt><trkpt lat="45.24436058663197" lon="8.384064436369856"><ele>125.66666666666666</ele><time>2026-03-28T13:28:31.039Z</time></trkpt><trkpt lat="45.24423731773015" lon="8.383814558417402"><ele>126.33333333333334</ele><time>2026-03-28T13:28:32.039Z</time></trkpt><trkpt lat="45.24411241572508" lon="8.383563542814176"><ele>127.0</ele><time>2026-03-28T13:28:33.039Z</time></trkpt><trkpt lat="45.24398701463246" lon="8.383315652178815"><ele>126.66666666666667</ele><time>2026-03-28T13:28:34.039Z</time></trkpt><trkpt lat="45.243864009752635" lon="8.383065759534185"><ele>126.33333333333334</ele><time>2026-03-28T13:28:35.039Z</time></trkpt><trkpt lat="45.243746285696595" lon="8.382816839632127"><ele>126.0</ele><time>2026-03-28T13:28:36.039Z</time></trkpt><trkpt lat="45.24363199500307" lon="8.382568836892691"><ele>126.0</ele><time>2026-03-28T13:28:37.039Z</time></trkpt><trkpt lat="45.243513874867375" lon="8.382332260369347"><ele>126.0</ele><time>2026-03-28T13:28:38.039Z</time></trkpt><trkpt lat="45.24338211213934" lon="8.382111265002973"><ele>126.0</ele><time>2026-03-28T13:28:39.039Z</time></trkpt><trkpt lat="45.24323896618204" lon="8.381908618666266"><ele>125.66666666666666</ele><time>2026-03-28T13:28:40.039Z</time></trkpt><trkpt lat="45.2430884739053" lon="8.381718203765589"><ele>125.33333333333333</ele><time>2026-03-28T13:28:41.039Z</time></trkpt><trkpt lat="45.24292777774505" lon="8.38153522019757"><ele>125.0</ele><time>2026-03-28T13:28:42.04Z</time></trkpt><trkpt lat="45.242757608413854" lon="8.381367372753484"><ele>125.0</ele><time>2026-03-28T13:28:43.04Z</time></trkpt><trkpt lat="45.24257749676006" lon="8.381216624487914"><ele>125.0</ele><time>2026-03-28T13:28:44.04Z</time></trkpt><trkpt lat="45.24238976184715" lon="8.381077036644275"><ele>125.0</ele><time>2026-03-28T13:28:45.04Z</time></trkpt><trkpt lat="45.24219657096863" lon="8.380942341653709"><ele>125.0</ele><time>2026-03-28T13:28:46.04Z</time></trkpt><trkpt lat="45.242001158629314" lon="8.380807997338762"><ele>125.0</ele><time>2026-03-28T13:28:47.04Z</time></trkpt><trkpt lat="45.24180350813223" lon="8.380673565403308"><ele>125.0</ele><time>2026-03-28T13:28:48.04Z</time></trkpt><trkpt lat="45.24160601062497" lon="8.38053927821069"><ele>125.66666666666666</ele><time>2026-03-28T13:28:49.038Z</time></trkpt><trkpt lat="45.24141075615141" lon="8.380391272215272"><ele>126.33333333333334</ele><time>2026-03-28T13:28:50.037Z</time></trkpt><trkpt lat="45.2412203706528" lon="8.380224513314563"><ele>127.0</ele><time>2026-03-28T13:28:51.037Z</time></trkpt><trkpt lat="45.24103227672877" lon="8.380051820797997"><ele>127.0</ele><time>2026-03-28T13:28:52.037Z</time></trkpt><trkpt lat="45.240847193987626" lon="8.379874088455288"><ele>127.0</ele><time>2026-03-28T13:28:53.038Z</time></trkpt><trkpt lat="45.240664744375344" lon="8.379691881772816"><ele>127.0</ele><time>2026-03-28T13:28:54.038Z</time></trkpt><trkpt lat="45.24048070860991" lon="8.379510746640756"><ele>126.66666666666667</ele><time>2026-03-28T13:28:55.038Z</time></trkpt><trkpt lat="45.240295026368" lon="8.379335596219741"><ele>126.33333333333334</ele><time>2026-03-28T13:28:56.038Z</time></trkpt><trkpt lat="45.2401024727748" lon="8.379180822147461"><ele>126.0</ele><time>2026-03-28T13:28:57.038Z</time></trkpt><trkpt lat="45.2399031193703" lon="8.379051358186944"><ele>126.0</ele><time>2026-03-28T13:28:58.037Z</time></trkpt><trkpt lat="45.23969967141613" lon="8.378937355157435"><ele>126.0</ele><time>2026-03-28T13:28:59.038Z</time></trkpt><trkpt lat="45.23949285088985" lon="8.378831341858582"><ele>126.0</ele><time>2026-03-28T13:29:00.038Z</time></trkpt><trkpt lat="45.23928684617172" lon="8.378731088871316"><ele>126.0</ele><time>2026-03-28T13:29:01.038Z</time></trkpt><trkpt lat="45.239079542997096" lon="8.378633201539197"><ele>126.0</ele><time>2026-03-28T13:29:02.038Z</time></trkpt><trkpt lat="45.23887366200522" lon="8.378538023293142"><ele>126.0</ele><time>2026-03-28T13:29:03.038Z</time></trkpt><trkpt lat="45.23866889038811" lon="8.378445299478093"><ele>126.0</ele><time>2026-03-28T13:29:04.038Z</time></trkpt><trkpt lat="45.23846654347007" lon="8.378348971307274"><ele>126.0</ele><time>2026-03-28T13:29:05.038Z</time></trkpt><trkpt lat="45.23826566241068" lon="8.378252490036653"><ele>126.0</ele><time>2026-03-28T13:29:06.038Z</time></trkpt><trkpt lat="45.238065373072935" lon="8.378159877815866"><ele>126.0</ele><time>2026-03-28T13:29:07.038Z</time></trkpt><trkpt lat="45.23787112712766" lon="8.37806792732417"><ele>126.0</ele><time>2026-03-28T13:29:08.038Z</time></trkpt><trkpt lat="45.23768642202427" lon="8.377980159246238"><ele>126.0</ele><time>2026-03-28T13:29:09.038Z</time></trkpt><trkpt lat="45.237511240387576" lon="8.377899683495865"><ele>126.33333333333334</ele><time>2026-03-28T13:29:10.038Z</time></trkpt><trkpt lat="45.23734498419982" lon="8.377823542584917"><ele>126.66666666666667</ele><time>2026-03-28T13:29:11.038Z</time></trkpt><trkpt lat="45.23718724409428" lon="8.377751291889396"><ele>127.0</ele><time>2026-03-28T13:29:12.038Z</time></trkpt><trkpt lat="45.237030119934296" lon="8.377679680312946"><ele>127.0</ele><time>2026-03-28T13:29:13.038Z</time></trkpt><trkpt lat="45.23687486802047" lon="8.37760963018147"><ele>127.0</ele><time>2026-03-28T13:29:14.038Z</time></trkpt><trkpt lat="45.23673168858346" lon="8.377540853364813"><ele>127.0</ele><time>2026-03-28T13:29:15.038Z</time></trkpt><trkpt lat="45.23661000828758" lon="8.377478009693672"><ele>127.0</ele><time>2026-03-28T13:29:16.038Z</time></trkpt><trkpt lat="45.23650689096361" lon="8.377419576989125"><ele>127.0</ele><time>2026-03-28T13:29:17.038Z</time></trkpt><trkpt lat="45.23641738580721" lon="8.377364817245585"><ele>126.99999999999999</ele><time>2026-03-28T13:29:18.038Z</time></trkpt><trkpt lat="45.23633306875998" lon="8.377304013157396"><ele>126.99999999999999</ele><time>2026-03-28T13:29:19.038Z</time></trkpt><trkpt lat="45.23625497224792" lon="8.377236398610625"><ele>127.0</ele><time>2026-03-28T13:29:20.038Z</time></trkpt><trkpt lat="45.2361647568049" lon="8.37715657335145"><ele>127.0</ele><time>2026-03-28T13:29:21.038Z</time></trkpt><trkpt lat="45.236062416488835" lon="8.377066338121454"><ele>127.0</ele><time>2026-03-28T13:29:22.038Z</time></trkpt><trkpt lat="45.23594821776096" lon="8.376967913005663"><ele>127.0</ele><time>2026-03-28T13:29:23.038Z</time></trkpt><trkpt lat="45.235823211941465" lon="8.376852439297817"><ele>127.0</ele><time>2026-03-28T13:29:24.038Z</time></trkpt><trkpt lat="45.2356925247088" lon="8.37671314391272"><ele>127.0</ele><time>2026-03-28T13:29:25.039Z</time></trkpt><trkpt lat="45.23555557634101" lon="8.37654483693231"><ele>127.0</ele><time>2026-03-28T13:29:26.039Z</time></trkpt><trkpt lat="45.235418027873926" lon="8.376347107976667"><ele>127.0</ele><time>2026-03-28T13:29:27.039Z</time></trkpt><trkpt lat="45.23527856669007" lon="8.376160248357609"><ele>127.0</ele><time>2026-03-28T13:29:28.039Z</time></trkpt><trkpt lat="45.235132826302795" lon="8.375965115119323"><ele>127.0</ele><time>2026-03-28T13:29:29.039Z</time></trkpt><trkpt lat="45.234982424023286" lon="8.375769159924582"><ele>127.0</ele><time>2026-03-28T13:29:30.039Z</time></trkpt><trkpt lat="45.23483139073542" lon="8.37557719094402"><ele>127.0</ele><time>2026-03-28T13:29:31.039Z</time></trkpt><trkpt lat="45.234678467666065" lon="8.375381971681236"><ele>126.66666666666667</ele><time>2026-03-28T13:29:32.039Z</time></trkpt><trkpt lat="45.234523852173425" lon="8.375183026717393"><ele>126.33333333333334</ele><time>2026-03-28T13:29:33.039Z</time></trkpt><trkpt lat="45.234366518214635" lon="8.374981156214869"><ele>126.0</ele><time>2026-03-28T13:29:34.039Z</time></trkpt><trkpt lat="45.23420545065258" lon="8.37477823774091"><ele>126.0</ele><time>2026-03-28T13:29:35.039Z</time></trkpt><trkpt lat="45.23404263464867" lon="8.374573563404454"><ele>126.0</ele><time>2026-03-28T13:29:36.039Z</time></trkpt><trkpt lat="45.233879419181534" lon="8.374362994174879"><ele>126.0</ele><time>2026-03-28T13:29:37.039Z</time></trkpt><trkpt lat="45.23371452884483" lon="8.374151632002118"><ele>126.0</ele><time>2026-03-28T13:29:38.039Z</time></trkpt><trkpt lat="45.233551689551604" lon="8.37394477692064"><ele>126.0</ele><time>2026-03-28T13:29:39.039Z</time></trkpt><trkpt lat="45.233393183392856" lon="8.373742732069543"><ele>126.0</ele><time>2026-03-28T13:29:40.039Z</time></trkpt><trkpt lat="45.23323483216581" lon="8.373546414966897"><ele>126.0</ele><time>2026-03-28T13:29:41.039Z</time></trkpt><trkpt lat="45.23307924824116" lon="8.373350481088185"><ele>126.0</ele><time>2026-03-28T13:29:42.039Z</time></trkpt><trkpt lat="45.23292540093772" lon="8.37315830087673"><ele>126.0</ele><time>2026-03-28T13:29:43.039Z</time></trkpt><trkpt lat="45.232769777103925" lon="8.372963724845704"><ele>126.33333333333334</ele><time>2026-03-28T13:29:44.039Z</time></trkpt><trkpt lat="45.23261379674311" lon="8.37277315414992"><ele>126.66666666666667</ele><time>2026-03-28T13:29:45.039Z</time></trkpt><trkpt lat="45.232459756211085" lon="8.37258182943365"><ele>127.0</ele><time>2026-03-28T13:29:46.039Z</time></trkpt><trkpt lat="45.23230834273187" lon="8.372390251570712"><ele>127.33333333333334</ele><time>2026-03-28T13:29:47.039Z</time></trkpt><trkpt lat="45.23216447264899" lon="8.372199582962521"><ele>127.66666666666666</ele><time>2026-03-28T13:29:48.039Z</time></trkpt><trkpt lat="45.232024533093316" lon="8.37199895962929"><ele>128.0</ele><time>2026-03-28T13:29:49.039Z</time></trkpt><trkpt lat="45.23189734446169" lon="8.37178473627568"><ele>128.0</ele><time>2026-03-28T13:29:50.039Z</time></trkpt><trkpt lat="45.23178987489753" lon="8.371547701055047"><ele>128.0</ele><time>2026-03-28T13:29:51.039Z</time></trkpt><trkpt lat="45.231706106024106" lon="8.37129316274105"><ele>128.0</ele><time>2026-03-28T13:29:52.039Z</time></trkpt><trkpt lat="45.231644912154664" lon="8.371045131676606"><ele>127.33333333333333</ele><time>2026-03-28T13:29:53.039Z</time></trkpt><trkpt lat="45.23160234168544" lon="8.370804169912864"><ele>126.66666666666666</ele><time>2026-03-28T13:29:54.039Z</time></trkpt><trkpt lat="45.2315619231857" lon="8.370576655829781"><ele>126.0</ele><time>2026-03-28T13:29:55.039Z</time></trkpt><trkpt lat="45.23150382853424" lon="8.370361854436682"><ele>126.0</ele><time>2026-03-28T13:29:56.039Z</time></trkpt><trkpt lat="45.231433261925545" lon="8.370162418581918"><ele>126.0</ele><time>2026-03-28T13:29:57.039Z</time></trkpt><trkpt lat="45.231332177620196" lon="8.369976674251246"><ele>126.0</ele><time>2026-03-28T13:29:58.04Z</time></trkpt><trkpt lat="45.23120830115284" lon="8.369808190806511"><ele>126.0</ele><time>2026-03-28T13:29:59.04Z</time></trkpt><trkpt lat="45.231070671729064" lon="8.369652656192716"><ele>126.0</ele><time>2026-03-28T13:30:00.04Z</time></trkpt><trkpt lat="45.23092247059317" lon="8.369506845913241"><ele>126.0</ele><time>2026-03-28T13:30:01.04Z</time></trkpt><trkpt lat="45.2307677250205" lon="8.369364193247005"><ele>126.66666666666666</ele><time>2026-03-28T13:30:02.04Z</time></trkpt><trkpt lat="45.23062588287284" lon="8.369217295774076"><ele>127.33333333333333</ele><time>2026-03-28T13:30:03.04Z</time></trkpt><trkpt lat="45.230499430372866" lon="8.369065797718353"><ele>128.0</ele><time>2026-03-28T13:30:04.04Z</time></trkpt><trkpt lat="45.23039229011255" lon="8.368904653983513"><ele>128.66666666666666</ele><time>2026-03-28T13:30:05.04Z</time></trkpt><trkpt lat="45.230306895158066" lon="8.368720586210948"><ele>129.33333333333334</ele><time>2026-03-28T13:30:06.04Z</time></trkpt><trkpt lat="45.23023399343077" lon="8.368515669698033"><ele>130.0</ele><time>2026-03-28T13:30:07.04Z</time></trkpt><trkpt lat="45.23016306508094" lon="8.368300506122338"><ele>130.0</ele><time>2026-03-28T13:30:08.04Z</time></trkpt><trkpt lat="45.23008230309473" lon="8.368083932784604"><ele>130.0</ele><time>2026-03-28T13:30:09.04Z</time></trkpt><trkpt lat="45.22998058016137" lon="8.367880253799273"><ele>130.0</ele><time>2026-03-28T13:30:10.04Z</time></trkpt><trkpt lat="45.22985928951031" lon="8.367692385857316"><ele>130.33333333333334</ele><time>2026-03-28T13:30:11.04Z</time></trkpt><trkpt lat="45.22973903795352" lon="8.36752254047902"><ele>130.66666666666666</ele><time>2026-03-28T13:30:12.04Z</time></trkpt><trkpt lat="45.22960266693852" lon="8.36737423154421"><ele>131.0</ele><time>2026-03-28T13:30:13.04Z</time></trkpt><trkpt lat="45.22944569243947" lon="8.367256865014653"><ele>131.0</ele><time>2026-03-28T13:30:14.04Z</time></trkpt><trkpt lat="45.229273590917174" lon="8.36717813793797"><ele>131.0</ele><time>2026-03-28T13:30:15.04Z</time></trkpt><trkpt lat="45.22909719185486" lon="8.367116985961571"><ele>131.0</ele><time>2026-03-28T13:30:16.04Z</time></trkpt><trkpt lat="45.228913815427184" lon="8.36705477431076"><ele>131.0</ele><time>2026-03-28T13:30:17.04Z</time></trkpt><trkpt lat="45.22872126804444" lon="8.36698408982669"><ele>131.0</ele><time>2026-03-28T13:30:18.04Z</time></trkpt><trkpt lat="45.22852545678906" lon="8.366906803477422"><ele>131.0</ele><time>2026-03-28T13:30:19.04Z</time></trkpt><trkpt lat="45.228324716725055" lon="8.366831064369105"><ele>130.66666666666666</ele><time>2026-03-28T13:30:20.04Z</time></trkpt><trkpt lat="45.228120697233216" lon="8.366757474077383"><ele>130.33333333333334</ele><time>2026-03-28T13:30:21.04Z</time></trkpt><trkpt lat="45.22791216134144" lon="8.366680267852027"><ele>130.0</ele><time>2026-03-28T13:30:22.04Z</time></trkpt><trkpt lat="45.22770212453849" lon="8.366596939998384"><ele>130.0</ele><time>2026-03-28T13:30:23.04Z</time></trkpt><trkpt lat="45.22748752827119" lon="8.366512860745146"><ele>130.0</ele><time>2026-03-28T13:30:24.04Z</time></trkpt><trkpt lat="45.22726831748128" lon="8.366431152353552"><ele>130.0</ele><time>2026-03-28T13:30:25.04Z</time></trkpt><trkpt lat="45.22704567066669" lon="8.366347670043481"><ele>130.0</ele><time>2026-03-28T13:30:26.04Z</time></trkpt><trkpt lat="45.22681940864735" lon="8.366261530410958"><ele>130.0</ele><time>2026-03-28T13:30:27.04Z</time></trkpt><trkpt lat="45.22659237618773" lon="8.366173827607275"><ele>129.5</ele><time>2026-03-28T13:30:28.04Z</time></trkpt><trkpt lat="45.226364271744195" lon="8.36608919855069"><ele>129.0</ele><time>2026-03-28T13:30:29.04Z</time></trkpt><trkpt lat="45.226137364264275" lon="8.366007889688728"><ele>129.0</ele><time>2026-03-28T13:30:30.04Z</time></trkpt><trkpt lat="45.2259183486624" lon="8.365926933528673"><ele>129.0</ele><time>2026-03-28T13:30:31.04Z</time></trkpt><trkpt lat="45.225702395756734" lon="8.365849299896725"><ele>129.0</ele><time>2026-03-28T13:30:32.041Z</time></trkpt><trkpt lat="45.225491288256855" lon="8.365773321588723"><ele>129.66666666666666</ele><time>2026-03-28T13:30:33.041Z</time></trkpt><trkpt lat="45.22528944003854" lon="8.365696025796277"><ele>130.33333333333331</ele><time>2026-03-28T13:30:34.041Z</time></trkpt><trkpt lat="45.22509445481044" lon="8.36562198427273"><ele>131.0</ele><time>2026-03-28T13:30:35.041Z</time></trkpt><trkpt lat="45.22490214125229" lon="8.365551158329113"><ele>131.33333333333331</ele><time>2026-03-28T13:30:36.041Z</time></trkpt><trkpt lat="45.2247073046827" lon="8.365482690254476"><ele>131.66666666666666</ele><time>2026-03-28T13:30:37.041Z</time></trkpt><trkpt lat="45.22451277810496" lon="8.365414388330167"><ele>132.0</ele><time>2026-03-28T13:30:38.041Z</time></trkpt><trkpt lat="45.22431795354335" lon="8.365345062839944"><ele>132.0</ele><time>2026-03-28T13:30:39.041Z</time></trkpt><trkpt lat="45.22412246222482" lon="8.3652728720614"><ele>132.0</ele><time>2026-03-28T13:30:40.041Z</time></trkpt><trkpt lat="45.22392726719097" lon="8.365197739764742"><ele>132.0</ele><time>2026-03-28T13:30:41.041Z</time></trkpt><trkpt lat="45.223735227975126" lon="8.36512320458629"><ele>132.0</ele><time>2026-03-28T13:30:42.041Z</time></trkpt><trkpt lat="45.22354610957949" lon="8.365055473376641"><ele>132.0</ele><time>2026-03-28T13:30:43.041Z</time></trkpt><trkpt lat="45.22336508261128" lon="8.364990691378955"><ele>132.0</ele><time>2026-03-28T13:30:44.041Z</time></trkpt><trkpt lat="45.22319112562429" lon="8.364928646694452"><ele>133.0</ele><time>2026-03-28T13:30:45.041Z</time></trkpt><trkpt lat="45.22302536056164" lon="8.36486795845815"><ele>134.0</ele><time>2026-03-28T13:30:46.041Z</time></trkpt><trkpt lat="45.222868223401505" lon="8.364814258485728"><ele>135.0</ele><time>2026-03-28T13:30:47.041Z</time></trkpt><trkpt lat="45.22271646235097" lon="8.364764649057012"><ele>135.0</ele><time>2026-03-28T13:30:48.041Z</time></trkpt><trkpt lat="45.222570502691404" lon="8.364721770579608"><ele>135.0</ele><time>2026-03-28T13:30:49.041Z</time></trkpt><trkpt lat="45.22243126074339" lon="8.364682312151059"><ele>135.0</ele><time>2026-03-28T13:30:50.041Z</time></trkpt><trkpt lat="45.22229575838117" lon="8.364651455306854"><ele>135.0</ele><time>2026-03-28T13:30:51.041Z</time></trkpt><trkpt lat="45.22216394550951" lon="8.364634927215041"><ele>134.75</ele><time>2026-03-28T13:30:52.041Z</time></trkpt><trkpt lat="45.222039064261466" lon="8.364639997907613"><ele>134.5</ele><time>2026-03-28T13:30:53.041Z</time></trkpt><trkpt lat="45.22193001583344" lon="8.364670943020842"><ele>134.25</ele><time>2026-03-28T13:30:54.041Z</time></trkpt><trkpt lat="45.22181418741215" lon="8.364743432726508"><ele>134.0</ele><time>2026-03-28T13:30:55.039Z</time></trkpt><trkpt lat="45.22170183999488" lon="8.364832914454492"><ele>134.0</ele><time>2026-03-28T13:30:56.04Z</time></trkpt><trkpt lat="45.22158289014148" lon="8.364939471996863"><ele>134.0</ele><time>2026-03-28T13:30:57.04Z</time></trkpt><trkpt lat="45.221451337746174" lon="8.36504720914229"><ele>134.0</ele><time>2026-03-28T13:30:58.039Z</time></trkpt><trkpt lat="45.22130134623716" lon="8.365156209453419"><ele>133.0</ele><time>2026-03-28T13:30:59.04Z</time></trkpt><trkpt lat="45.221140775466914" lon="8.365255391877346"><ele>132.0</ele><time>2026-03-28T13:31:00.04Z</time></trkpt><trkpt lat="45.22097832982668" lon="8.365306310984211"><ele>131.0</ele><time>2026-03-28T13:31:01.04Z</time></trkpt><trkpt lat="45.220808964793825" lon="8.36532465142385"><ele>130.33333333333331</ele><time>2026-03-28T13:31:02.04Z</time></trkpt><trkpt lat="45.22063906629142" lon="8.365300861948517"><ele>129.66666666666666</ele><time>2026-03-28T13:31:03.04Z</time></trkpt><trkpt lat="45.22047206123415" lon="8.365252188448892"><ele>129.0</ele><time>2026-03-28T13:31:04.04Z</time></trkpt><trkpt lat="45.22030162667655" lon="8.365192123954985"><ele>129.0</ele><time>2026-03-28T13:31:05.04Z</time></trkpt><trkpt lat="45.22013105558354" lon="8.3651297419755"><ele>129.0</ele><time>2026-03-28T13:31:06.04Z</time></trkpt><trkpt lat="45.21995374678144" lon="8.365066403414456"><ele>129.0</ele><time>2026-03-28T13:31:07.039Z</time></trkpt><trkpt lat="45.219773515259384" lon="8.365001878376246"><ele>128.33333333333334</ele><time>2026-03-28T13:31:08.04Z</time></trkpt><trkpt lat="45.21958594197288" lon="8.364936129838549"><ele>127.66666666666667</ele><time>2026-03-28T13:31:09.04Z</time></trkpt><trkpt lat="45.2193898406818" lon="8.364868285176831"><ele>127.0</ele><time>2026-03-28T13:31:10.04Z</time></trkpt><trkpt lat="45.219187447324" lon="8.36479989289456"><ele>126.66666666666667</ele><time>2026-03-28T13:31:11.04Z</time></trkpt><trkpt lat="45.21898102903661" lon="8.36472407699612"><ele>126.33333333333334</ele><time>2026-03-28T13:31:12.04Z</time></trkpt><trkpt lat="45.218771304954444" lon="8.364646521853055"><ele>126.0</ele><time>2026-03-28T13:31:13.04Z</time></trkpt><trkpt lat="45.21855790447266" lon="8.364568415707181"><ele>125.5</ele><time>2026-03-28T13:31:14.04Z</time></trkpt><trkpt lat="45.218340442032364" lon="8.364491685845644"><ele>125.0</ele><time>2026-03-28T13:31:15.04Z</time></trkpt><trkpt lat="45.218120975777424" lon="8.36441704434645"><ele>125.0</ele><time>2026-03-28T13:31:16.04Z</time></trkpt><trkpt lat="45.21789900676518" lon="8.364343419011933"><ele>125.0</ele><time>2026-03-28T13:31:17.04Z</time></trkpt><trkpt lat="45.217676129446616" lon="8.364266813639686"><ele>125.0</ele><time>2026-03-28T13:31:18.04Z</time></trkpt><trkpt lat="45.21745159409984" lon="8.364182743626925"><ele>125.0</ele><time>2026-03-28T13:31:19.04Z</time></trkpt><trkpt lat="45.217223942557325" lon="8.364105174114368"><ele>125.5</ele><time>2026-03-28T13:31:20.04Z</time></trkpt><trkpt lat="45.216993457808144" lon="8.364027847568334"><ele>126.0</ele><time>2026-03-28T13:31:21.04Z</time></trkpt><trkpt lat="45.21676079602765" lon="8.363950560511514"><ele>126.0</ele><time>2026-03-28T13:31:22.04Z</time></trkpt><trkpt lat="45.2165275747717" lon="8.363871867394563"><ele>126.0</ele><time>2026-03-28T13:31:23.04Z</time></trkpt><trkpt lat="45.216296984964934" lon="8.363790430766857"><ele>126.0</ele><time>2026-03-28T13:31:24.04Z</time></trkpt><trkpt lat="45.21606791501932" lon="8.363708338773192"><ele>126.0</ele><time>2026-03-28T13:31:25.04Z</time></trkpt><trkpt lat="45.21583920590649" lon="8.363625728001022"><ele>126.0</ele><time>2026-03-28T13:31:26.04Z</time></trkpt><trkpt lat="45.21561070856297" lon="8.363543865067063"><ele>126.0</ele><time>2026-03-28T13:31:27.04Z</time></trkpt><trkpt lat="45.21538194768498" lon="8.363463804621349"><ele>126.0</ele><time>2026-03-28T13:31:28.04Z</time></trkpt><trkpt lat="45.215152231171736" lon="8.363387543167388"><ele>126.0</ele><time>2026-03-28T13:31:29.04Z</time></trkpt><trkpt lat="45.21492295526326" lon="8.363306133309637"><ele>126.5</ele><time>2026-03-28T13:31:30.04Z</time></trkpt><trkpt lat="45.21469308473794" lon="8.363224580360521"><ele>127.0</ele><time>2026-03-28T13:31:31.04Z</time></trkpt><trkpt lat="45.214463096500744" lon="8.363143643664229"><ele>127.0</ele><time>2026-03-28T13:31:32.04Z</time></trkpt><trkpt lat="45.214231222205456" lon="8.363065327558132"><ele>127.0</ele><time>2026-03-28T13:31:33.04Z</time></trkpt><trkpt lat="45.21399997676538" lon="8.362985909671982"><ele>127.0</ele><time>2026-03-28T13:31:34.041Z</time></trkpt><trkpt lat="45.21376752531198" lon="8.362903346555369"><ele>127.0</ele><time>2026-03-28T13:31:35.041Z</time></trkpt><trkpt lat="45.21353410790082" lon="8.362820764344686"><ele>127.0</ele><time>2026-03-28T13:31:36.041Z</time></trkpt><trkpt lat="45.21330009351985" lon="8.362738184088204"><ele>127.0</ele><time>2026-03-28T13:31:37.041Z</time></trkpt><trkpt lat="45.213065766419945" lon="8.362657754714647"><ele>127.0</ele><time>2026-03-28T13:31:38.041Z</time></trkpt><trkpt lat="45.21283102128607" lon="8.362575943818118"><ele>127.0</ele><time>2026-03-28T13:31:39.041Z</time></trkpt><trkpt lat="45.212596984901595" lon="8.362493688073675"><ele>127.0</ele><time>2026-03-28T13:31:40.041Z</time></trkpt><trkpt lat="45.212363058842165" lon="8.362414693525126"><ele>127.0</ele><time>2026-03-28T13:31:41.041Z</time></trkpt><trkpt lat="45.21213049070085" lon="8.362335934172055"><ele>127.5</ele><time>2026-03-28T13:31:42.041Z</time></trkpt><trkpt lat="45.211900226391954" lon="8.362254527487272"><ele>128.0</ele><time>2026-03-28T13:31:43.041Z</time></trkpt><trkpt lat="45.21167076716395" lon="8.36217309732583"><ele>131.0</ele><time>2026-03-28T13:31:44.041Z</time></trkpt><trkpt lat="45.21144350139161" lon="8.362093808191995"><ele>134.0</ele><time>2026-03-28T13:31:45.041Z</time></trkpt><trkpt lat="45.21121851691941" lon="8.362016802817614"><ele>134.0</ele><time>2026-03-28T13:31:46.041Z</time></trkpt><trkpt lat="45.21099633550119" lon="8.361938450766434"><ele>134.0</ele><time>2026-03-28T13:31:47.041Z</time></trkpt><trkpt lat="45.210774795861596" lon="8.361859079779897"><ele>134.0</ele><time>2026-03-28T13:31:48.041Z</time></trkpt><trkpt lat="45.210554972286225" lon="8.361780703164104"><ele>134.0</ele><time>2026-03-28T13:31:49.041Z</time></trkpt><trkpt lat="45.210335899917496" lon="8.36170248358441"><ele>134.0</ele><time>2026-03-28T13:31:50.041Z</time></trkpt><trkpt lat="45.210116648814385" lon="8.361623006705404"><ele>134.0</ele><time>2026-03-28T13:31:51.041Z</time></trkpt><trkpt lat="45.209898027665055" lon="8.361543848618693"><ele>133.5</ele><time>2026-03-28T13:31:52.041Z</time></trkpt><trkpt lat="45.20967692764748" lon="8.361469735636108"><ele>133.0</ele><time>2026-03-28T13:31:53.041Z</time></trkpt><trkpt lat="45.20945396911227" lon="8.361394092028995"><ele>133.5</ele><time>2026-03-28T13:31:54.041Z</time></trkpt><trkpt lat="45.209230026766" lon="8.361316290470684"><ele>134.0</ele><time>2026-03-28T13:31:55.041Z</time></trkpt><trkpt lat="45.209006516544356" lon="8.361237299030677"><ele>134.5</ele><time>2026-03-28T13:31:56.041Z</time></trkpt><trkpt lat="45.20877972001326" lon="8.361160454894872"><ele>135.0</ele><time>2026-03-28T13:31:57.041Z</time></trkpt><trkpt lat="45.208551345314966" lon="8.361082523876366"><ele>135.0</ele><time>2026-03-28T13:31:58.041Z</time></trkpt><trkpt lat="45.20832145258849" lon="8.361003456801836"><ele>135.0</ele><time>2026-03-28T13:31:59.041Z</time></trkpt><trkpt lat="45.20809128613167" lon="8.360923351765676"><ele>135.0</ele><time>2026-03-28T13:32:00.041Z</time></trkpt><trkpt lat="45.2078590481789" lon="8.360844684498002"><ele>135.0</ele><time>2026-03-28T13:32:01.041Z</time></trkpt><trkpt lat="45.2076263142753" lon="8.360767494971459"><ele>135.0</ele><time>2026-03-28T13:32:02.041Z</time></trkpt><trkpt lat="45.207390821111765" lon="8.36068798055961"><ele>135.0</ele><time>2026-03-28T13:32:03.041Z</time></trkpt><trkpt lat="45.20715630823267" lon="8.360605623830484"><ele>135.0</ele><time>2026-03-28T13:32:04.041Z</time></trkpt><trkpt lat="45.20692412147718" lon="8.36052220104578"><ele>135.0</ele><time>2026-03-28T13:32:05.041Z</time></trkpt><trkpt lat="45.206696589188404" lon="8.360441252887624"><ele>135.5</ele><time>2026-03-28T13:32:06.041Z</time></trkpt><trkpt lat="45.206473430415954" lon="8.360360732659057"><ele>136.0</ele><time>2026-03-28T13:32:07.042Z</time></trkpt><trkpt lat="45.20624899708454" lon="8.360284925712278"><ele>136.0</ele><time>2026-03-28T13:32:08.042Z</time></trkpt><trkpt lat="45.20602929351837" lon="8.360206014905508"><ele>136.0</ele><time>2026-03-28T13:32:09.042Z</time></trkpt><trkpt lat="45.2058081431476" lon="8.360128589414444"><ele>136.0</ele><time>2026-03-28T13:32:10.042Z</time></trkpt><trkpt lat="45.205587081610545" lon="8.360052632183677"><ele>136.0</ele><time>2026-03-28T13:32:11.042Z</time></trkpt><trkpt lat="45.20536424535618" lon="8.359982591620334"><ele>136.0</ele><time>2026-03-28T13:32:12.042Z</time></trkpt><trkpt lat="45.205144508990145" lon="8.359904984945693"><ele>136.0</ele><time>2026-03-28T13:32:13.042Z</time></trkpt><trkpt lat="45.204931935286716" lon="8.359829870215371"><ele>136.0</ele><time>2026-03-28T13:32:14.042Z</time></trkpt><trkpt lat="45.20473143022507" lon="8.359758740622137"><ele>135.66666666666669</ele><time>2026-03-28T13:32:15.042Z</time></trkpt><trkpt lat="45.20454086057773" lon="8.359691624277977"><ele>135.33333333333334</ele><time>2026-03-28T13:32:16.042Z</time></trkpt><trkpt lat="45.20437806667143" lon="8.359635378535222"><ele>135.0</ele><time>2026-03-28T13:32:17.042Z</time></trkpt><trkpt lat="45.20423791869265" lon="8.35959096489491"><ele>135.0</ele><time>2026-03-28T13:32:18.042Z</time></trkpt><trkpt lat="45.20412169537771" lon="8.359556493729892"><ele>135.0</ele><time>2026-03-28T13:32:19.042Z</time></trkpt><trkpt lat="45.204017904658194" lon="8.35952404143077"><ele>135.0</ele><time>2026-03-28T13:32:20.042Z</time></trkpt><trkpt lat="45.203931410519644" lon="8.359478709028346"><ele>135.0</ele><time>2026-03-28T13:32:21.042Z</time></trkpt><trkpt lat="45.20386236050321" lon="8.359414968522717"><ele>135.0</ele><time>2026-03-28T13:32:22.042Z</time></trkpt><trkpt lat="45.20382063224057" lon="8.359324712211368"><ele>134.83333333333334</ele><time>2026-03-28T13:32:23.042Z</time></trkpt><trkpt lat="45.203808037240925" lon="8.359228599505107"><ele>134.66666666666666</ele><time>2026-03-28T13:32:24.042Z</time></trkpt><trkpt lat="45.203817262635525" lon="8.359123649181255"><ele>134.5</ele><time>2026-03-28T13:32:25.042Z</time></trkpt><trkpt lat="45.20384311055012" lon="8.359001582378097"><ele>134.33333333333331</ele><time>2026-03-28T13:32:26.042Z</time></trkpt><trkpt lat="45.20386880977591" lon="8.35886616858139"><ele>134.16666666666666</ele><time>2026-03-28T13:32:27.042Z</time></trkpt><trkpt lat="45.20389707227429" lon="8.358710284538143"><ele>134.0</ele><time>2026-03-28T13:32:28.042Z</time></trkpt><trkpt lat="45.20392742134371" lon="8.358537259703962"><ele>133.66666666666666</ele><time>2026-03-28T13:32:29.042Z</time></trkpt><trkpt lat="45.20396078167319" lon="8.358343130172308"><ele>133.33333333333334</ele><time>2026-03-28T13:32:30.042Z</time></trkpt><trkpt lat="45.20399730856431" lon="8.358127600742296"><ele>133.0</ele><time>2026-03-28T13:32:31.042Z</time></trkpt><trkpt lat="45.204036349515356" lon="8.357894158231975"><ele>133.66666666666669</ele><time>2026-03-28T13:32:32.042Z</time></trkpt><trkpt lat="45.204086188541076" lon="8.357646946083507"><ele>134.33333333333334</ele><time>2026-03-28T13:32:33.042Z</time></trkpt><trkpt lat="45.20413934301004" lon="8.357394213389323"><ele>135.0</ele><time>2026-03-28T13:32:34.042Z</time></trkpt><trkpt lat="45.204188611101934" lon="8.357132949680704"><ele>135.0</ele><time>2026-03-28T13:32:35.042Z</time></trkpt><trkpt lat="45.20423893972813" lon="8.356857245368088"><ele>135.0</ele><time>2026-03-28T13:32:36.042Z</time></trkpt><trkpt lat="45.20429076677264" lon="8.356581111791362"><ele>135.0</ele><time>2026-03-28T13:32:37.042Z</time></trkpt><trkpt lat="45.20433999198906" lon="8.356301994437517"><ele>135.0</ele><time>2026-03-28T13:32:38.042Z</time></trkpt><trkpt lat="45.20439262674625" lon="8.356008089864918"><ele>135.0</ele><time>2026-03-28T13:32:39.042Z</time></trkpt><trkpt lat="45.20445036765708" lon="8.355713754598138"><ele>135.0</ele><time>2026-03-28T13:32:40.043Z</time></trkpt><trkpt lat="45.204507160610866" lon="8.355411469665167"><ele>134.66666666666666</ele><time>2026-03-28T13:32:41.043Z</time></trkpt><trkpt lat="45.20456668945093" lon="8.355105357017203"><ele>134.33333333333331</ele><time>2026-03-28T13:32:42.043Z</time></trkpt><trkpt lat="45.20462369157855" lon="8.354799288823601"><ele>134.0</ele><time>2026-03-28T13:32:43.043Z</time></trkpt><trkpt lat="45.20468172702235" lon="8.354493347622222"><ele>134.0</ele><time>2026-03-28T13:32:44.043Z</time></trkpt><trkpt lat="45.20473734981369" lon="8.354187685279047"><ele>134.0</ele><time>2026-03-28T13:32:45.043Z</time></trkpt><trkpt lat="45.20479324067669" lon="8.353880735012789"><ele>134.0</ele><time>2026-03-28T13:32:46.043Z</time></trkpt><trkpt lat="45.204851322914706" lon="8.353577856966705"><ele>134.0</ele><time>2026-03-28T13:32:47.043Z</time></trkpt><trkpt lat="45.20490694696057" lon="8.353287908659603"><ele>134.0</ele><time>2026-03-28T13:32:48.043Z</time></trkpt><trkpt lat="45.204960614385655" lon="8.353002344895877"><ele>134.0</ele><time>2026-03-28T13:32:49.043Z</time></trkpt><trkpt lat="45.20501507642385" lon="8.352719323155272"><ele>134.0</ele><time>2026-03-28T13:32:50.043Z</time></trkpt><trkpt lat="45.20507058445591" lon="8.352435364030585"><ele>134.0</ele><time>2026-03-28T13:32:51.043Z</time></trkpt><trkpt lat="45.205125410610115" lon="8.352148544319432"><ele>134.0</ele><time>2026-03-28T13:32:52.043Z</time></trkpt><trkpt lat="45.20518002807993" lon="8.351860928092002"><ele>134.33333333333331</ele><time>2026-03-28T13:32:53.043Z</time></trkpt><trkpt lat="45.205233139213874" lon="8.351572891174344"><ele>134.66666666666666</ele><time>2026-03-28T13:32:54.043Z</time></trkpt><trkpt lat="45.20528547808188" lon="8.351283266322723"><ele>135.0</ele><time>2026-03-28T13:32:55.043Z</time></trkpt><trkpt lat="45.20533977555158" lon="8.35098630243133"><ele>134.33333333333334</ele><time>2026-03-28T13:32:56.043Z</time></trkpt><trkpt lat="45.20539521167755" lon="8.350684198559202"><ele>133.66666666666669</ele><time>2026-03-28T13:32:57.043Z</time></trkpt><trkpt lat="45.20545351692282" lon="8.350377007024084"><ele>133.0</ele><time>2026-03-28T13:32:58.043Z</time></trkpt><trkpt lat="45.20551322042752" lon="8.350069924277301"><ele>132.66666666666669</ele><time>2026-03-28T13:32:59.043Z</time></trkpt><trkpt lat="45.205572083323496" lon="8.349762618151672"><ele>132.33333333333334</ele><time>2026-03-28T13:33:00.043Z</time></trkpt><trkpt lat="45.20563234017468" lon="8.349460827555571"><ele>132.0</ele><time>2026-03-28T13:33:01.042Z</time></trkpt><trkpt lat="45.20569037143143" lon="8.349163691955349"><ele>133.66666666666666</ele><time>2026-03-28T13:33:02.042Z</time></trkpt><trkpt lat="45.205743899399046" lon="8.34887318958784"><ele>135.33333333333331</ele><time>2026-03-28T13:33:03.042Z</time></trkpt><trkpt lat="45.205796976558084" lon="8.3485887863304"><ele>137.0</ele><time>2026-03-28T13:33:04.042Z</time></trkpt><trkpt lat="45.20585013715861" lon="8.348313446660065"><ele>137.0</ele><time>2026-03-28T13:33:05.041Z</time></trkpt><trkpt lat="45.20590032713017" lon="8.34804932628297"><ele>137.0</ele><time>2026-03-28T13:33:06.041Z</time></trkpt><trkpt lat="45.20594651783505" lon="8.347802843733069"><ele>137.0</ele><time>2026-03-28T13:33:07.042Z</time></trkpt><trkpt lat="45.20598703335578" lon="8.347579206000903"><ele>136.75</ele><time>2026-03-28T13:33:08.041Z</time></trkpt><trkpt lat="45.20602292432545" lon="8.347372426183627"><ele>136.5</ele><time>2026-03-28T13:33:09.041Z</time></trkpt><trkpt lat="45.20604795875796" lon="8.347169192665662"><ele>136.25</ele><time>2026-03-28T13:33:10.042Z</time></trkpt><trkpt lat="45.20605008637699" lon="8.34698164850305"><ele>136.0</ele><time>2026-03-28T13:33:11.041Z</time></trkpt><trkpt lat="45.2060329367265" lon="8.346798553441612"><ele>136.0</ele><time>2026-03-28T13:33:12.041Z</time></trkpt><trkpt lat="45.205997636841076" lon="8.346613756062942"><ele>136.0</ele><time>2026-03-28T13:33:13.041Z</time></trkpt><trkpt lat="45.205945410653186" lon="8.346433572362816"><ele>136.0</ele><time>2026-03-28T13:33:14.041Z</time></trkpt><trkpt lat="45.205872489814126" lon="8.346263806708908"><ele>136.0</ele><time>2026-03-28T13:33:15.041Z</time></trkpt><trkpt lat="45.20578286531771" lon="8.346106226923157"><ele>136.33333333333334</ele><time>2026-03-28T13:33:16.041Z</time></trkpt><trkpt lat="45.20568843468379" lon="8.345949290719473"><ele>136.66666666666666</ele><time>2026-03-28T13:33:17.041Z</time></trkpt><trkpt lat="45.20558862969732" lon="8.345774514735298"><ele>137.0</ele><time>2026-03-28T13:33:18.041Z</time></trkpt><trkpt lat="45.20550076838447" lon="8.34557372429155"><ele>136.33333333333331</ele><time>2026-03-28T13:33:19.041Z</time></trkpt><trkpt lat="45.205426107922385" lon="8.345352921549006"><ele>135.66666666666666</ele><time>2026-03-28T13:33:20.041Z</time></trkpt><trkpt lat="45.20537022861995" lon="8.34511857781802"><ele>135.0</ele><time>2026-03-28T13:33:21.041Z</time></trkpt><trkpt lat="45.20533411310601" lon="8.34487424604418"><ele>135.33333333333334</ele><time>2026-03-28T13:33:22.042Z</time></trkpt><trkpt lat="45.20531072449933" lon="8.344617224938974"><ele>135.66666666666669</ele><time>2026-03-28T13:33:23.042Z</time></trkpt><trkpt lat="45.20529602104753" lon="8.344338870759799"><ele>136.0</ele><time>2026-03-28T13:33:24.042Z</time></trkpt><trkpt lat="45.20528624912312" lon="8.344045914664148"><ele>136.66666666666669</ele><time>2026-03-28T13:33:25.042Z</time></trkpt><trkpt lat="45.20527396618853" lon="8.343739962899926"><ele>137.33333333333334</ele><time>2026-03-28T13:33:26.042Z</time></trkpt><trkpt lat="45.20525773134066" lon="8.343442063396216"><ele>138.0</ele><time>2026-03-28T13:33:27.042Z</time></trkpt><trkpt lat="45.20523642900115" lon="8.343139233206283"><ele>138.0</ele><time>2026-03-28T13:33:28.042Z</time></trkpt><trkpt lat="45.20520957282162" lon="8.342837969253097"><ele>138.0</ele><time>2026-03-28T13:33:29.042Z</time></trkpt><trkpt lat="45.20517757750221" lon="8.342551920580412"><ele>138.0</ele><time>2026-03-28T13:33:30.042Z</time></trkpt><trkpt lat="45.20514049310318" lon="8.34227335304568"><ele>138.0</ele><time>2026-03-28T13:33:31.042Z</time></trkpt><trkpt lat="45.205098628692255" lon="8.341999707339113"><ele>138.0</ele><time>2026-03-28T13:33:32.042Z</time></trkpt><trkpt lat="45.20505439143581" lon="8.341732520786422"><ele>138.0</ele><time>2026-03-28T13:33:33.042Z</time></trkpt><trkpt lat="45.205014330967586" lon="8.34146658509563"><ele>137.66666666666666</ele><time>2026-03-28T13:33:34.042Z</time></trkpt><trkpt lat="45.20498073070833" lon="8.341197042583337"><ele>137.33333333333331</ele><time>2026-03-28T13:33:35.042Z</time></trkpt><trkpt lat="45.20494837823757" lon="8.340924541230105"><ele>137.0</ele><time>2026-03-28T13:33:36.042Z</time></trkpt><trkpt lat="45.20491729586768" lon="8.340648438935624"><ele>137.33333333333331</ele><time>2026-03-28T13:33:37.042Z</time></trkpt><trkpt lat="45.20488752098247" lon="8.340369466250657"><ele>137.66666666666666</ele><time>2026-03-28T13:33:38.042Z</time></trkpt><trkpt lat="45.20486327452866" lon="8.340087946937528"><ele>138.0</ele><time>2026-03-28T13:33:39.042Z</time></trkpt><trkpt lat="45.20484576617212" lon="8.339810864825616"><ele>137.33333333333334</ele><time>2026-03-28T13:33:40.042Z</time></trkpt><trkpt lat="45.2048286517505" lon="8.339533040536299"><ele>136.66666666666669</ele><time>2026-03-28T13:33:41.042Z</time></trkpt><trkpt lat="45.20481360308841" lon="8.339254987532229"><ele>136.0</ele><time>2026-03-28T13:33:42.042Z</time></trkpt><trkpt lat="45.20479817004091" lon="8.338974926831067"><ele>135.66666666666669</ele><time>2026-03-28T13:33:43.042Z</time></trkpt><trkpt lat="45.204788241812" lon="8.338700846351038"><ele>135.33333333333334</ele><time>2026-03-28T13:33:44.042Z</time></trkpt><trkpt lat="45.204781581977855" lon="8.338440488174465"><ele>135.0</ele><time>2026-03-28T13:33:45.042Z</time></trkpt><trkpt lat="45.20477438407773" lon="8.338180958263083"><ele>134.33333333333334</ele><time>2026-03-28T13:33:46.042Z</time></trkpt><trkpt lat="45.20476784385793" lon="8.337919429268082"><ele>133.66666666666669</ele><time>2026-03-28T13:33:47.042Z</time></trkpt><trkpt lat="45.20476136124675" lon="8.337657722622978"><ele>133.0</ele><time>2026-03-28T13:33:48.042Z</time></trkpt><trkpt lat="45.204751581074376" lon="8.3373974297319"><ele>132.66666666666669</ele><time>2026-03-28T13:33:49.042Z</time></trkpt><trkpt lat="45.204738291335104" lon="8.337139328070295"><ele>132.33333333333334</ele><time>2026-03-28T13:33:50.042Z</time></trkpt><trkpt lat="45.204724915310344" lon="8.336886812493812"><ele>132.0</ele><time>2026-03-28T13:33:51.042Z</time></trkpt><trkpt lat="45.20471223058958" lon="8.33664471232852"><ele>132.0</ele><time>2026-03-28T13:33:52.042Z</time></trkpt><trkpt lat="45.20470517023471" lon="8.336405954138831"><ele>132.0</ele><time>2026-03-28T13:33:53.042Z</time></trkpt><trkpt lat="45.2047079924608" lon="8.336163596836178"><ele>132.0</ele><time>2026-03-28T13:33:54.042Z</time></trkpt><trkpt lat="45.204719070956315" lon="8.3359155658558"><ele>131.66666666666666</ele><time>2026-03-28T13:33:55.043Z</time></trkpt><trkpt lat="45.20474227928482" lon="8.335660517333332"><ele>131.33333333333331</ele><time>2026-03-28T13:33:56.043Z</time></trkpt><trkpt lat="45.20476896133484" lon="8.335400703698658"><ele>131.0</ele><time>2026-03-28T13:33:57.043Z</time></trkpt><trkpt lat="45.204805436232895" lon="8.335141203360605"><ele>132.66666666666666</ele><time>2026-03-28T13:33:58.043Z</time></trkpt><trkpt lat="45.204843942873154" lon="8.334886042078658"><ele>134.33333333333334</ele><time>2026-03-28T13:33:59.043Z</time></trkpt><trkpt lat="45.204877862509036" lon="8.334635317210315"><ele>136.0</ele><time>2026-03-28T13:34:00.043Z</time></trkpt><trkpt lat="45.20489111419939" lon="8.334392191867828"><ele>136.33333333333334</ele><time>2026-03-28T13:34:01.043Z</time></trkpt><trkpt lat="45.20488373908714" lon="8.334156234849733"><ele>136.66666666666666</ele><time>2026-03-28T13:34:02.043Z</time></trkpt><trkpt lat="45.204859524916515" lon="8.333928487409912"><ele>137.0</ele><time>2026-03-28T13:34:03.043Z</time></trkpt><trkpt lat="45.20483401395073" lon="8.333713679022233"><ele>134.66666666666666</ele><time>2026-03-28T13:34:04.043Z</time></trkpt><trkpt lat="45.20481183834476" lon="8.333504661733091"><ele>132.33333333333334</ele><time>2026-03-28T13:34:05.043Z</time></trkpt><trkpt lat="45.20478532795967" lon="8.333293844229539"><ele>130.0</ele><time>2026-03-28T13:34:06.043Z</time></trkpt><trkpt lat="45.204752693623064" lon="8.333086013529233"><ele>130.5</ele><time>2026-03-28T13:34:07.043Z</time></trkpt><trkpt lat="45.20471635166124" lon="8.332886597922942"><ele>131.0</ele><time>2026-03-28T13:34:08.043Z</time></trkpt><trkpt lat="45.204686382144104" lon="8.332701507993212"><ele>131.5</ele><time>2026-03-28T13:34:09.043Z</time></trkpt><trkpt lat="45.20467291213081" lon="8.332517518194583"><ele>132.0</ele><time>2026-03-28T13:34:10.043Z</time></trkpt><trkpt lat="45.204674431999045" lon="8.332342008940763"><ele>132.25</ele><time>2026-03-28T13:34:11.043Z</time></trkpt><trkpt lat="45.20468029534606" lon="8.332177357593634"><ele>132.5</ele><time>2026-03-28T13:34:12.043Z</time></trkpt><trkpt lat="45.204693979482954" lon="8.332018025427962"><ele>132.75</ele><time>2026-03-28T13:34:13.043Z</time></trkpt><trkpt lat="45.204711197156726" lon="8.331852645972267"><ele>133.0</ele><time>2026-03-28T13:34:14.043Z</time></trkpt><trkpt lat="45.20473177249663" lon="8.331677247604437"><ele>133.0</ele><time>2026-03-28T13:34:15.043Z</time></trkpt><trkpt lat="45.204751027690435" lon="8.33150089753699"><ele>133.0</ele><time>2026-03-28T13:34:16.043Z</time></trkpt><trkpt lat="45.20477509619641" lon="8.331322083195461"><ele>133.0</ele><time>2026-03-28T13:34:17.043Z</time></trkpt><trkpt lat="45.20479980687204" lon="8.331139026333279"><ele>133.0</ele><time>2026-03-28T13:34:18.043Z</time></trkpt><trkpt lat="45.204823299088815" lon="8.330964811083062"><ele>134.0</ele><time>2026-03-28T13:34:19.043Z</time></trkpt><trkpt lat="45.204853891838994" lon="8.33079375706088"><ele>135.0</ele><time>2026-03-28T13:34:20.043Z</time></trkpt><trkpt lat="45.204888789985056" lon="8.330628765181766"><ele>136.0</ele><time>2026-03-28T13:34:21.043Z</time></trkpt><trkpt lat="45.204927604725064" lon="8.33046550812259"><ele>137.0</ele><time>2026-03-28T13:34:22.043Z</time></trkpt><trkpt lat="45.20496905620702" lon="8.330315886193826"><ele>137.0</ele><time>2026-03-28T13:34:23.043Z</time></trkpt><trkpt lat="45.20501982325959" lon="8.330177876288753"><ele>137.0</ele><time>2026-03-28T13:34:24.043Z</time></trkpt><trkpt lat="45.205067246674155" lon="8.330036296113557"><ele>137.0</ele><time>2026-03-28T13:34:25.043Z</time></trkpt><trkpt lat="45.205101109988284" lon="8.329887644497434"><ele>137.0</ele><time>2026-03-28T13:34:26.043Z</time></trkpt><trkpt lat="45.205118339168166" lon="8.329731841054391"><ele>137.0</ele><time>2026-03-28T13:34:27.043Z</time></trkpt><trkpt lat="45.205127437769754" lon="8.329576901687235"><ele>136.5</ele><time>2026-03-28T13:34:28.044Z</time></trkpt><trkpt lat="45.20513840545482" lon="8.329420473803829"><ele>136.0</ele><time>2026-03-28T13:34:29.044Z</time></trkpt><trkpt lat="45.20514593367099" lon="8.329260167030794"><ele>135.5</ele><time>2026-03-28T13:34:30.044Z</time></trkpt><trkpt lat="45.2051502936356" lon="8.329096012581306"><ele>135.0</ele><time>2026-03-28T13:34:31.044Z</time></trkpt><trkpt lat="45.205149752182194" lon="8.328926376346725"><ele>135.5</ele><time>2026-03-28T13:34:32.044Z</time></trkpt><trkpt lat="45.20514052924847" lon="8.328750686208409"><ele>136.0</ele><time>2026-03-28T13:34:33.044Z</time></trkpt><trkpt lat="45.205130474000356" lon="8.328576334896294"><ele>136.5</ele><time>2026-03-28T13:34:34.044Z</time></trkpt><trkpt lat="45.20511684060916" lon="8.328406971876365"><ele>137.0</ele><time>2026-03-28T13:34:35.044Z</time></trkpt><trkpt lat="45.20506309098836" lon="8.32823586122211"><ele>137.0</ele><time>2026-03-28T13:34:36.044Z</time></trkpt><trkpt lat="45.20501373831008" lon="8.32805855414617"><ele>137.0</ele><time>2026-03-28T13:34:37.044Z</time></trkpt><trkpt lat="45.204973154592096" lon="8.327882712780477"><ele>137.0</ele><time>2026-03-28T13:34:38.044Z</time></trkpt><trkpt lat="45.20493170796636" lon="8.32770134739599"><ele>137.0</ele><time>2026-03-28T13:34:39.044Z</time></trkpt><trkpt lat="45.204883113854756" lon="8.327515028929938"><ele>137.0</ele><time>2026-03-28T13:34:40.044Z</time></trkpt><trkpt lat="45.20484054448898" lon="8.327330822267966"><ele>137.0</ele><time>2026-03-28T13:34:41.044Z</time></trkpt><trkpt lat="45.20480480503516" lon="8.32714430526063"><ele>137.0</ele><time>2026-03-28T13:34:42.044Z</time></trkpt><trkpt lat="45.20477622059969" lon="8.326946756284942"><ele>137.0</ele><time>2026-03-28T13:34:43.044Z</time></trkpt><trkpt lat="45.204745860782204" lon="8.3267488184062"><ele>136.25</ele><time>2026-03-28T13:34:44.044Z</time></trkpt><trkpt lat="45.20471506321217" lon="8.326540512184046"><ele>135.5</ele><time>2026-03-28T13:34:45.044Z</time></trkpt><trkpt lat="45.20468098249817" lon="8.326334503356247"><ele>134.75</ele><time>2026-03-28T13:34:46.044Z</time></trkpt><trkpt lat="45.20463835270915" lon="8.326143575135873"><ele>134.0</ele><time>2026-03-28T13:34:47.044Z</time></trkpt><trkpt lat="45.20459392625604" lon="8.325958651094378"><ele>134.0</ele><time>2026-03-28T13:34:48.044Z</time></trkpt><trkpt lat="45.204559623231425" lon="8.325769218865263"><ele>134.0</ele><time>2026-03-28T13:34:49.044Z</time></trkpt><trkpt lat="45.20454292908284" lon="8.325572122398908"><ele>134.0</ele><time>2026-03-28T13:34:50.044Z</time></trkpt><trkpt lat="45.20453077962737" lon="8.325364758116928"><ele>134.0</ele><time>2026-03-28T13:34:51.044Z</time></trkpt><trkpt lat="45.20451811232868" lon="8.325156665100186"><ele>134.0</ele><time>2026-03-28T13:34:52.044Z</time></trkpt><trkpt lat="45.20450486054137" lon="8.32495131056687"><ele>134.0</ele><time>2026-03-28T13:34:53.044Z</time></trkpt><trkpt lat="45.204494960694" lon="8.324746244120263"><ele>134.0</ele><time>2026-03-28T13:34:54.044Z</time></trkpt><trkpt lat="45.20449419236828" lon="8.324541764783211"><ele>134.0</ele><time>2026-03-28T13:34:55.044Z</time></trkpt><trkpt lat="45.204495831473835" lon="8.324329727675863"><ele>134.0</ele><time>2026-03-28T13:34:56.044Z</time></trkpt><trkpt lat="45.204514149187325" lon="8.324119135870578"><ele>134.0</ele><time>2026-03-28T13:34:57.044Z</time></trkpt><trkpt lat="45.20453440241675" lon="8.323907973054126"><ele>134.0</ele><time>2026-03-28T13:34:58.044Z</time></trkpt><trkpt lat="45.20453861203807" lon="8.32369973495358"><ele>134.0</ele><time>2026-03-28T13:34:59.044Z</time></trkpt><trkpt lat="45.204538690970395" lon="8.32349132249391"><ele>134.0</ele><time>2026-03-28T13:35:00.044Z</time></trkpt><trkpt lat="45.204519302875774" lon="8.323283309121381"><ele>134.0</ele><time>2026-03-28T13:35:01.044Z</time></trkpt><trkpt lat="45.204477964594815" lon="8.323065141722653"><ele>134.0</ele><time>2026-03-28T13:35:02.045Z</time></trkpt><trkpt lat="45.204423470134124" lon="8.322856314512824"><ele>134.33333333333331</ele><time>2026-03-28T13:35:03.045Z</time></trkpt><trkpt lat="45.204375316708294" lon="8.322646043393108"><ele>134.66666666666666</ele><time>2026-03-28T13:35:04.045Z</time></trkpt><trkpt lat="45.204334551917654" lon="8.322427876286206"><ele>135.0</ele><time>2026-03-28T13:35:05.045Z</time></trkpt><trkpt lat="45.204295462682325" lon="8.32220087764828"><ele>135.0</ele><time>2026-03-28T13:35:06.045Z</time></trkpt><trkpt lat="45.20425833777139" lon="8.321963558301846"><ele>135.0</ele><time>2026-03-28T13:35:07.043Z</time></trkpt><trkpt lat="45.20423075841831" lon="8.321723520071872"><ele>135.0</ele><time>2026-03-28T13:35:08.043Z</time></trkpt><trkpt lat="45.20420093196155" lon="8.321489294555425"><ele>134.33333333333334</ele><time>2026-03-28T13:35:09.043Z</time></trkpt><trkpt lat="45.204190422791584" lon="8.321265524978335"><ele>133.66666666666669</ele><time>2026-03-28T13:35:10.043Z</time></trkpt><trkpt lat="45.20420247055971" lon="8.32105254752876"><ele>133.0</ele><time>2026-03-28T13:35:11.043Z</time></trkpt><trkpt lat="45.204236221611815" lon="8.320845986939931"><ele>133.0</ele><time>2026-03-28T13:35:12.043Z</time></trkpt><trkpt lat="45.204291379235336" lon="8.320639261518473"><ele>133.0</ele><time>2026-03-28T13:35:13.043Z</time></trkpt><trkpt lat="45.20435424409204" lon="8.320429467058206"><ele>133.0</ele><time>2026-03-28T13:35:14.044Z</time></trkpt><trkpt lat="45.20441642267546" lon="8.320208563906172"><ele>133.33333333333334</ele><time>2026-03-28T13:35:15.044Z</time></trkpt><trkpt lat="45.20447762982298" lon="8.31997991855787"><ele>133.66666666666666</ele><time>2026-03-28T13:35:16.043Z</time></trkpt><trkpt lat="45.20453327758931" lon="8.319759619720195"><ele>134.0</ele><time>2026-03-28T13:35:17.044Z</time></trkpt><trkpt lat="45.204580746487615" lon="8.31952699400843"><ele>133.0</ele><time>2026-03-28T13:35:18.044Z</time></trkpt><trkpt lat="45.2046110536831" lon="8.319279240620093"><ele>132.0</ele><time>2026-03-28T13:35:19.043Z</time></trkpt><trkpt lat="45.2046227051318" lon="8.319022177493801"><ele>131.0</ele><time>2026-03-28T13:35:20.044Z</time></trkpt><trkpt lat="45.204639700548896" lon="8.318767665495749"><ele>131.0</ele><time>2026-03-28T13:35:21.044Z</time></trkpt><trkpt lat="45.204676982727044" lon="8.318514825007712"><ele>131.0</ele><time>2026-03-28T13:35:22.044Z</time></trkpt><trkpt lat="45.20474572348985" lon="8.318274972125156"><ele>131.0</ele><time>2026-03-28T13:35:23.044Z</time></trkpt><trkpt lat="45.204823169409025" lon="8.318046176656113"><ele>133.0</ele><time>2026-03-28T13:35:24.044Z</time></trkpt><trkpt lat="45.20487223983386" lon="8.317806212477208"><ele>135.0</ele><time>2026-03-28T13:35:25.044Z</time></trkpt><trkpt lat="45.20489358449451" lon="8.317546819200535"><ele>137.0</ele><time>2026-03-28T13:35:26.044Z</time></trkpt><trkpt lat="45.20490409855053" lon="8.317276531519328"><ele>137.0</ele><time>2026-03-28T13:35:27.044Z</time></trkpt><trkpt lat="45.204920098743735" lon="8.317000729825844"><ele>137.0</ele><time>2026-03-28T13:35:28.044Z</time></trkpt><trkpt lat="45.20493862246119" lon="8.316718888823127"><ele>137.0</ele><time>2026-03-28T13:35:29.044Z</time></trkpt><trkpt lat="45.20496312795356" lon="8.316432720572704"><ele>136.33333333333331</ele><time>2026-03-28T13:35:30.044Z</time></trkpt><trkpt lat="45.20499527818426" lon="8.316144752562927"><ele>135.66666666666666</ele><time>2026-03-28T13:35:31.044Z</time></trkpt><trkpt lat="45.205043530957425" lon="8.315860315764285"><ele>135.0</ele><time>2026-03-28T13:35:32.044Z</time></trkpt><trkpt lat="45.20510322251116" lon="8.31558885339477"><ele>134.33333333333334</ele><time>2026-03-28T13:35:33.044Z</time></trkpt><trkpt lat="45.205172945990256" lon="8.315324627276482"><ele>133.66666666666669</ele><time>2026-03-28T13:35:34.044Z</time></trkpt><trkpt lat="45.205254211936435" lon="8.315063376781557"><ele>133.0</ele><time>2026-03-28T13:35:35.044Z</time></trkpt><trkpt lat="45.20534468151351" lon="8.314807692721757"><ele>133.33333333333334</ele><time>2026-03-28T13:35:36.044Z</time></trkpt><trkpt lat="45.20544071678205" lon="8.314551515641902"><ele>133.66666666666666</ele><time>2026-03-28T13:35:37.044Z</time></trkpt><trkpt lat="45.20553376363031" lon="8.314301694854976"><ele>134.0</ele><time>2026-03-28T13:35:38.044Z</time></trkpt><trkpt lat="45.205611725938965" lon="8.314061728535636"><ele>135.66666666666666</ele><time>2026-03-28T13:35:39.044Z</time></trkpt><trkpt lat="45.205663249479095" lon="8.313815960485217"><ele>137.33333333333334</ele><time>2026-03-28T13:35:40.044Z</time></trkpt><trkpt lat="45.20568143874652" lon="8.313552597622031"><ele>139.0</ele><time>2026-03-28T13:35:41.044Z</time></trkpt><trkpt lat="45.20567678246196" lon="8.313274611028902"><ele>139.33333333333334</ele><time>2026-03-28T13:35:42.044Z</time></trkpt><trkpt lat="45.20567127966749" lon="8.31298567847944"><ele>139.66666666666666</ele><time>2026-03-28T13:35:43.044Z</time></trkpt><trkpt lat="45.20566893678308" lon="8.312688634155197"><ele>140.0</ele><time>2026-03-28T13:35:44.044Z</time></trkpt><trkpt lat="45.20566493742047" lon="8.312382829950279"><ele>137.66666666666666</ele><time>2026-03-28T13:35:45.044Z</time></trkpt><trkpt lat="45.20565302182158" lon="8.312076920483163"><ele>135.33333333333334</ele><time>2026-03-28T13:35:46.044Z</time></trkpt><trkpt lat="45.205634424882234" lon="8.311763576293837"><ele>133.0</ele><time>2026-03-28T13:35:47.044Z</time></trkpt><trkpt lat="45.20560753920545" lon="8.311442980300301"><ele>132.5</ele><time>2026-03-28T13:35:48.044Z</time></trkpt><trkpt lat="45.20556145096546" lon="8.311120357833133"><ele>132.0</ele><time>2026-03-28T13:35:49.044Z</time></trkpt><trkpt lat="45.20550539403734" lon="8.310797827984887"><ele>131.0</ele><time>2026-03-28T13:35:50.044Z</time></trkpt><trkpt lat="45.20544693337183" lon="8.310474787237924"><ele>130.0</ele><time>2026-03-28T13:35:51.044Z</time></trkpt><trkpt lat="45.20538718337035" lon="8.31015078864635"><ele>130.0</ele><time>2026-03-28T13:35:52.045Z</time></trkpt><trkpt lat="45.20533734896656" lon="8.309827490624338"><ele>130.0</ele><time>2026-03-28T13:35:53.045Z</time></trkpt><trkpt lat="45.2052975321911" lon="8.309517709334889"><ele>129.66666666666669</ele><time>2026-03-28T13:35:54.045Z</time></trkpt><trkpt lat="45.205256521748645" lon="8.309214296559768"><ele>129.33333333333334</ele><time>2026-03-28T13:35:55.045Z</time></trkpt><trkpt lat="45.20520105969938" lon="8.308916735608891"><ele>129.0</ele><time>2026-03-28T13:35:56.045Z</time></trkpt><trkpt lat="45.20511802009461" lon="8.308629900218254"><ele>129.0</ele><time>2026-03-28T13:35:57.045Z</time></trkpt><trkpt lat="45.20500945917104" lon="8.308360003303228"><ele>129.0</ele><time>2026-03-28T13:35:58.045Z</time></trkpt><trkpt lat="45.204888464996685" lon="8.30810072104928"><ele>129.0</ele><time>2026-03-28T13:35:59.045Z</time></trkpt><trkpt lat="45.204772244321916" lon="8.307840467953605"><ele>129.0</ele><time>2026-03-28T13:36:00.045Z</time></trkpt><trkpt lat="45.20465724335629" lon="8.307582871367197"><ele>129.0</ele><time>2026-03-28T13:36:01.045Z</time></trkpt><trkpt lat="45.204531078454636" lon="8.30734753271884"><ele>129.0</ele><time>2026-03-28T13:36:02.045Z</time></trkpt><trkpt lat="45.20439315780539" lon="8.307135851724315"><ele>129.33333333333334</ele><time>2026-03-28T13:36:03.045Z</time></trkpt><trkpt lat="45.20424665293499" lon="8.30696257946969"><ele>129.66666666666669</ele><time>2026-03-28T13:36:04.045Z</time></trkpt><trkpt lat="45.2040829807358" lon="8.30683387025404"><ele>130.0</ele><time>2026-03-28T13:36:05.045Z</time></trkpt><trkpt lat="45.20390689507988" lon="8.306735949754039"><ele>130.0</ele><time>2026-03-28T13:36:06.045Z</time></trkpt><trkpt lat="45.203728781697144" lon="8.306636960050227"><ele>130.0</ele><time>2026-03-28T13:36:07.045Z</time></trkpt><trkpt lat="45.20355278315649" lon="8.306518496364605"><ele>130.0</ele><time>2026-03-28T13:36:08.045Z</time></trkpt><trkpt lat="45.20340741567645" lon="8.306384848403411"><ele>129.66666666666669</ele><time>2026-03-28T13:36:09.045Z</time></trkpt><trkpt lat="45.203298021626956" lon="8.306212650286067"><ele>129.33333333333334</ele><time>2026-03-28T13:36:10.045Z</time></trkpt><trkpt lat="45.20322368394905" lon="8.305997199407905"><ele>129.0</ele><time>2026-03-28T13:36:11.045Z</time></trkpt><trkpt lat="45.203177588563655" lon="8.305742687550348"><ele>129.33333333333334</ele><time>2026-03-28T13:36:12.045Z</time></trkpt><trkpt lat="45.2031498043357" lon="8.305481985814957"><ele>129.66666666666669</ele><time>2026-03-28T13:36:13.045Z</time></trkpt><trkpt lat="45.20313513781998" lon="8.305227267036438"><ele>130.0</ele><time>2026-03-28T13:36:14.045Z</time></trkpt><trkpt lat="45.203113345687015" lon="8.304992000334797"><ele>130.0</ele><time>2026-03-28T13:36:15.045Z</time></trkpt><trkpt lat="45.20306514139868" lon="8.304759434258804"><ele>130.0</ele><time>2026-03-28T13:36:16.045Z</time></trkpt><trkpt lat="45.20298566895405" lon="8.30454205753788"><ele>130.0</ele><time>2026-03-28T13:36:17.045Z</time></trkpt><trkpt lat="45.202878675052105" lon="8.304357184900171"><ele>129.66666666666669</ele><time>2026-03-28T13:36:18.045Z</time></trkpt><trkpt lat="45.20274237011482" lon="8.30419750690623"><ele>129.33333333333334</ele><time>2026-03-28T13:36:19.045Z</time></trkpt><trkpt lat="45.20258737338312" lon="8.304069208867388"><ele>129.0</ele><time>2026-03-28T13:36:20.045Z</time></trkpt><trkpt lat="45.2024171148526" lon="8.303977757508333"><ele>129.33333333333334</ele><time>2026-03-28T13:36:21.045Z</time></trkpt><trkpt lat="45.202244814787306" lon="8.303908099374775"><ele>129.66666666666669</ele><time>2026-03-28T13:36:22.045Z</time></trkpt><trkpt lat="45.2020813417127" lon="8.303845080874583"><ele>130.0</ele><time>2026-03-28T13:36:23.045Z</time></trkpt><trkpt lat="45.201927811423154" lon="8.303781509745994"><ele>130.0</ele><time>2026-03-28T13:36:24.045Z</time></trkpt><trkpt lat="45.20178332626358" lon="8.30372015492707"><ele>130.0</ele><time>2026-03-28T13:36:25.045Z</time></trkpt><trkpt lat="45.201652413853985" lon="8.303667940155737"><ele>130.0</ele><time>2026-03-28T13:36:26.046Z</time></trkpt><trkpt lat="45.20153407914318" lon="8.303612554521612"><ele>130.0</ele><time>2026-03-28T13:36:27.046Z</time></trkpt><trkpt lat="45.20143007780595" lon="8.303549086184454"><ele>130.0</ele><time>2026-03-28T13:36:28.046Z</time></trkpt><trkpt lat="45.201337991672915" lon="8.303482206569807"><ele>130.0</ele><time>2026-03-28T13:36:29.046Z</time></trkpt><trkpt lat="45.20126409049205" lon="8.303398522597131"><ele>130.0</ele><time>2026-03-28T13:36:30.046Z</time></trkpt><trkpt lat="45.20120657039275" lon="8.303297090307352"><ele>130.0</ele><time>2026-03-28T13:36:31.046Z</time></trkpt><trkpt lat="45.20116373972185" lon="8.303185055138721"><ele>130.0</ele><time>2026-03-28T13:36:32.046Z</time></trkpt><trkpt lat="45.20113828548648" lon="8.30304854503936"><ele>130.0</ele><time>2026-03-28T13:36:33.046Z</time></trkpt><trkpt lat="45.20113282265928" lon="8.302899906612538"><ele>130.0</ele><time>2026-03-28T13:36:34.046Z</time></trkpt><trkpt lat="45.201149524107976" lon="8.302739446257675"><ele>130.0</ele><time>2026-03-28T13:36:35.046Z</time></trkpt><trkpt lat="45.20118065366778" lon="8.302574749966148"><ele>130.0</ele><time>2026-03-28T13:36:36.046Z</time></trkpt><trkpt lat="45.20121400300277" lon="8.302407059492888"><ele>129.75</ele><time>2026-03-28T13:36:37.046Z</time></trkpt><trkpt lat="45.20124687457633" lon="8.302229894842883"><ele>129.5</ele><time>2026-03-28T13:36:38.046Z</time></trkpt><trkpt lat="45.2012830155331" lon="8.302048067601254"><ele>129.25</ele><time>2026-03-28T13:36:39.046Z</time></trkpt><trkpt lat="45.20131595686245" lon="8.301858513827398"><ele>129.0</ele><time>2026-03-28T13:36:40.046Z</time></trkpt><trkpt lat="45.20135388464229" lon="8.301667297719682"><ele>129.0</ele><time>2026-03-28T13:36:41.046Z</time></trkpt><trkpt lat="45.20139395587918" lon="8.3014774247441"><ele>129.0</ele><time>2026-03-28T13:36:42.046Z</time></trkpt><trkpt lat="45.20142821043512" lon="8.301285169744633"><ele>129.0</ele><time>2026-03-28T13:36:43.046Z</time></trkpt><trkpt lat="45.20145950513689" lon="8.301088420795704"><ele>129.0</ele><time>2026-03-28T13:36:44.046Z</time></trkpt><trkpt lat="45.20148406571946" lon="8.300889724832091"><ele>129.0</ele><time>2026-03-28T13:36:45.046Z</time></trkpt><trkpt lat="45.20150344420136" lon="8.30069005722662"><ele>129.0</ele><time>2026-03-28T13:36:46.046Z</time></trkpt><trkpt lat="45.201526438507365" lon="8.300490609417803"><ele>129.0</ele><time>2026-03-28T13:36:47.046Z</time></trkpt><trkpt lat="45.20154851725668" lon="8.300295115422818"><ele>129.0</ele><time>2026-03-28T13:36:48.046Z</time></trkpt><trkpt lat="45.20157459248044" lon="8.300107770526118"><ele>129.5</ele><time>2026-03-28T13:36:49.046Z</time></trkpt><trkpt lat="45.20159637758413" lon="8.299927908904184"><ele>130.0</ele><time>2026-03-28T13:36:50.046Z</time></trkpt><trkpt lat="45.201613500928005" lon="8.299758852904045"><ele>130.5</ele><time>2026-03-28T13:36:51.046Z</time></trkpt><trkpt lat="45.20162986112838" lon="8.299599337118865"><ele>131.0</ele><time>2026-03-28T13:36:52.046Z</time></trkpt><trkpt lat="45.20164903443034" lon="8.299454764727999"><ele>131.33333333333331</ele><time>2026-03-28T13:36:53.046Z</time></trkpt><trkpt lat="45.20166755450984" lon="8.299317630289758"><ele>131.66666666666666</ele><time>2026-03-28T13:36:54.046Z</time></trkpt><trkpt lat="45.20168642247013" lon="8.299197521271854"><ele>132.0</ele><time>2026-03-28T13:36:55.046Z</time></trkpt><trkpt lat="45.20170524480846" lon="8.29909058543875"><ele>132.33333333333334</ele><time>2026-03-28T13:36:56.046Z</time></trkpt><trkpt lat="45.20172280530662" lon="8.298996604112705"><ele>132.66666666666669</ele><time>2026-03-28T13:36:57.046Z</time></trkpt><trkpt lat="45.20175205830035" lon="8.298888143549654"><ele>133.0</ele><time>2026-03-28T13:36:59.047Z</time></trkpt><trkpt lat="45.20173325018737" lon="8.298774670503722"><ele>133.0</ele><time>2026-03-28T13:37:04.047Z</time></trkpt><trkpt lat="45.20165181873075" lon="8.298702323582507"><ele>133.0</ele><time>2026-03-28T13:37:06.047Z</time></trkpt><trkpt lat="45.20158587437098" lon="8.298678078641766"><ele>133.0</ele><time>2026-03-28T13:37:07.047Z</time></trkpt><trkpt lat="45.20150820820232" lon="8.29864991245325"><ele>133.0</ele><time>2026-03-28T13:37:08.047Z</time></trkpt><trkpt lat="45.20141840965966" lon="8.298625267006432"><ele>133.0</ele><time>2026-03-28T13:37:09.047Z</time></trkpt><trkpt lat="45.201320375193106" lon="8.29858616615915"><ele>133.0</ele><time>2026-03-28T13:37:10.047Z</time></trkpt><trkpt lat="45.20121490439474" lon="8.298550703290996"><ele>133.0</ele><time>2026-03-28T13:37:11.047Z</time></trkpt><trkpt lat="45.20110424741522" lon="8.298514843004977"><ele>133.0</ele><time>2026-03-28T13:37:12.047Z</time></trkpt><trkpt lat="45.20097929346816" lon="8.298482747520096"><ele>133.0</ele><time>2026-03-28T13:37:13.045Z</time></trkpt><trkpt lat="45.2008556936109" lon="8.298444802279791"><ele>133.0</ele><time>2026-03-28T13:37:14.045Z</time></trkpt><trkpt lat="45.20073478574624" lon="8.298401502234977"><ele>132.75</ele><time>2026-03-28T13:37:15.045Z</time></trkpt><trkpt lat="45.200610606842716" lon="8.29835934230475"><ele>132.5</ele><time>2026-03-28T13:37:16.046Z</time></trkpt><trkpt lat="45.2004908692025" lon="8.298316961248641"><ele>132.25</ele><time>2026-03-28T13:37:17.046Z</time></trkpt><trkpt lat="45.20037110542508" lon="8.298273676934297"><ele>132.0</ele><time>2026-03-28T13:37:18.046Z</time></trkpt><trkpt lat="45.200250969312805" lon="8.298231585017188"><ele>132.0</ele><time>2026-03-28T13:37:19.046Z</time></trkpt><trkpt lat="45.200130134862626" lon="8.298187894731576"><ele>132.0</ele><time>2026-03-28T13:37:20.045Z</time></trkpt><trkpt lat="45.20000554570472" lon="8.29814365917864"><ele>132.0</ele><time>2026-03-28T13:37:21.045Z</time></trkpt><trkpt lat="45.1998745880733" lon="8.298104627552085"><ele>132.0</ele><time>2026-03-28T13:37:22.045Z</time></trkpt><trkpt lat="45.199744170720756" lon="8.298068917638949"><ele>132.25</ele><time>2026-03-28T13:37:23.046Z</time></trkpt><trkpt lat="45.19961307945296" lon="8.298040983444075"><ele>132.5</ele><time>2026-03-28T13:37:24.046Z</time></trkpt><trkpt lat="45.19948701222299" lon="8.29800485284632"><ele>132.75</ele><time>2026-03-28T13:37:25.046Z</time></trkpt><trkpt lat="45.19936943626543" lon="8.297963915258112"><ele>133.0</ele><time>2026-03-28T13:37:26.046Z</time></trkpt><trkpt lat="45.19925268677382" lon="8.29792356882159"><ele>133.0</ele><time>2026-03-28T13:37:27.046Z</time></trkpt><trkpt lat="45.19913339487706" lon="8.297888927335151"><ele>133.0</ele><time>2026-03-28T13:37:28.046Z</time></trkpt><trkpt lat="45.19901336281818" lon="8.297850227550434"><ele>133.0</ele><time>2026-03-28T13:37:29.046Z</time></trkpt><trkpt lat="45.19889649344463" lon="8.297805172507651"><ele>133.0</ele><time>2026-03-28T13:37:30.046Z</time></trkpt><trkpt lat="45.19878734727933" lon="8.297756262830429"><ele>132.75</ele><time>2026-03-28T13:37:31.046Z</time></trkpt><trkpt lat="45.19867489893174" lon="8.29772093096288"><ele>132.5</ele><time>2026-03-28T13:37:32.046Z</time></trkpt><trkpt lat="45.19856142732418" lon="8.297685978153122"><ele>132.25</ele><time>2026-03-28T13:37:33.046Z</time></trkpt><trkpt lat="45.198449447448084" lon="8.2976405169046"><ele>132.0</ele><time>2026-03-28T13:37:34.046Z</time></trkpt><trkpt lat="45.19833172507496" lon="8.297603764116891"><ele>132.0</ele><time>2026-03-28T13:37:35.046Z</time></trkpt><trkpt lat="45.19821346075833" lon="8.297566800133337"><ele>132.0</ele><time>2026-03-28T13:37:36.046Z</time></trkpt><trkpt lat="45.19809062371815" lon="8.297534047185515"><ele>132.0</ele><time>2026-03-28T13:37:37.046Z</time></trkpt><trkpt lat="45.19797122160585" lon="8.297498620911778"><ele>132.0</ele><time>2026-03-28T13:37:38.046Z</time></trkpt><trkpt lat="45.19785907167341" lon="8.297468613913189"><ele>132.4</ele><time>2026-03-28T13:37:39.046Z</time></trkpt><trkpt lat="45.197750482835836" lon="8.29745385954068"><ele>132.79999999999998</ele><time>2026-03-28T13:37:40.046Z</time></trkpt><trkpt lat="45.19765160372889" lon="8.297430124951969"><ele>133.2</ele><time>2026-03-28T13:37:41.046Z</time></trkpt><trkpt lat="45.197561429711264" lon="8.297410546282943"><ele>133.6</ele><time>2026-03-28T13:37:42.046Z</time></trkpt><trkpt lat="45.19747466865911" lon="8.297390644839748"><ele>134.0</ele><time>2026-03-28T13:37:43.046Z</time></trkpt><trkpt lat="45.19739524518728" lon="8.297377628774392"><ele>134.16666666666666</ele><time>2026-03-28T13:37:44.046Z</time></trkpt><trkpt lat="45.19731635791189" lon="8.297358967219592"><ele>134.33333333333331</ele><time>2026-03-28T13:37:45.046Z</time></trkpt><trkpt lat="45.197239298681346" lon="8.297334975126295"><ele>134.5</ele><time>2026-03-28T13:37:46.046Z</time></trkpt><trkpt lat="45.19716642375008" lon="8.29731330326655"><ele>134.66666666666666</ele><time>2026-03-28T13:37:47.046Z</time></trkpt><trkpt lat="45.19709182658124" lon="8.297291254768865"><ele>134.83333333333334</ele><time>2026-03-28T13:37:48.046Z</time></trkpt><trkpt lat="45.19701459513204" lon="8.2972726414479"><ele>135.0</ele><time>2026-03-28T13:37:49.046Z</time></trkpt><trkpt lat="45.19693362141426" lon="8.29725104284551"><ele>135.0</ele><time>2026-03-28T13:37:50.046Z</time></trkpt><trkpt lat="45.196853905645824" lon="8.297232175094901"><ele>135.0</ele><time>2026-03-28T13:37:51.046Z</time></trkpt><trkpt lat="45.1967766046776" lon="8.2972053220789"><ele>135.0</ele><time>2026-03-28T13:37:52.046Z</time></trkpt><trkpt lat="45.19669487182544" lon="8.297201458129967"><ele>135.0</ele><time>2026-03-28T13:37:53.046Z</time></trkpt><trkpt lat="45.19660913594096" lon="8.297194440195987"><ele>135.0</ele><time>2026-03-28T13:37:54.046Z</time></trkpt><trkpt lat="45.196525144635416" lon="8.297186021989067"><ele>135.0</ele><time>2026-03-28T13:37:55.047Z</time></trkpt><trkpt lat="45.19644199828011" lon="8.297176806668771"><ele>135.0</ele><time>2026-03-28T13:37:56.047Z</time></trkpt><trkpt lat="45.19636404069147" lon="8.297183154627074"><ele>135.0</ele><time>2026-03-28T13:37:57.047Z</time></trkpt><trkpt lat="45.19628894455206" lon="8.297174542701715"><ele>135.0</ele><time>2026-03-28T13:37:58.047Z</time></trkpt><trkpt lat="45.1962131476848" lon="8.297152663853641"><ele>135.0</ele><time>2026-03-28T13:37:59.047Z</time></trkpt><trkpt lat="45.19612066818444" lon="8.29715734004429"><ele>135.0</ele><time>2026-03-28T13:38:00.047Z</time></trkpt><trkpt lat="45.19603543303691" lon="8.297142924551176"><ele>135.0</ele><time>2026-03-28T13:38:01.047Z</time></trkpt><trkpt lat="45.19594476765961" lon="8.297118969023757"><ele>135.0</ele><time>2026-03-28T13:38:02.047Z</time></trkpt><trkpt lat="45.19585349206729" lon="8.297095060801404"><ele>135.0</ele><time>2026-03-28T13:38:03.047Z</time></trkpt><trkpt lat="45.19576341032946" lon="8.29707412089872"><ele>135.0</ele><time>2026-03-28T13:38:04.047Z</time></trkpt><trkpt lat="45.195677022410756" lon="8.297045627706554"><ele>135.0</ele><time>2026-03-28T13:38:05.047Z</time></trkpt><trkpt lat="45.195590940542175" lon="8.297021113645869"><ele>135.0</ele><time>2026-03-28T13:38:06.047Z</time></trkpt><trkpt lat="45.195508668394076" lon="8.296997312197627"><ele>135.0</ele><time>2026-03-28T13:38:07.047Z</time></trkpt><trkpt lat="45.19542678104383" lon="8.296962879469465"><ele>135.33333333333334</ele><time>2026-03-28T13:38:08.047Z</time></trkpt><trkpt lat="45.19534084289024" lon="8.29693935735925"><ele>135.66666666666666</ele><time>2026-03-28T13:38:09.047Z</time></trkpt><trkpt lat="45.195265075990065" lon="8.296918136576329"><ele>136.0</ele><time>2026-03-28T13:38:10.047Z</time></trkpt><trkpt lat="45.19518354663001" lon="8.296910122806125"><ele>136.33333333333331</ele><time>2026-03-28T13:38:11.047Z</time></trkpt><trkpt lat="45.1951036745888" lon="8.29691427302827"><ele>136.66666666666666</ele><time>2026-03-28T13:38:12.047Z</time></trkpt><trkpt lat="45.19502906771463" lon="8.296916051007713"><ele>137.0</ele><time>2026-03-28T13:38:13.047Z</time></trkpt><trkpt lat="45.194950471462505" lon="8.296900401411659"><ele>137.0</ele><time>2026-03-28T13:38:14.047Z</time></trkpt><trkpt lat="45.19487097429576" lon="8.296890630747818"><ele>137.0</ele><time>2026-03-28T13:38:15.047Z</time></trkpt><trkpt lat="45.194802504047104" lon="8.296869345914192"><ele>137.0</ele><time>2026-03-28T13:38:16.047Z</time></trkpt><trkpt lat="45.194692188865744" lon="8.29681750945474"><ele>137.0</ele><time>2026-03-28T13:38:18.047Z</time></trkpt><trkpt lat="45.19461908955087" lon="8.296799020418407"><ele>137.0</ele><time>2026-03-28T13:38:20.047Z</time></trkpt><trkpt lat="45.19455753905861" lon="8.296823383282044"><ele>137.0</ele><time>2026-03-28T13:38:25.047Z</time></trkpt><trkpt lat="45.1944838559837" lon="8.296818827496207"><ele>137.4</ele><time>2026-03-28T13:38:52.048Z</time></trkpt><trkpt lat="45.19440514047699" lon="8.296820485428544"><ele>137.79999999999998</ele><time>2026-03-28T13:38:54.048Z</time></trkpt><trkpt lat="45.19431986684848" lon="8.296802926444727"><ele>138.2</ele><time>2026-03-28T13:38:56.048Z</time></trkpt><trkpt lat="45.194232772100314" lon="8.296797550579573"><ele>138.6</ele><time>2026-03-28T13:38:58.048Z</time></trkpt><trkpt lat="45.194107182919154" lon="8.296751656775182"><ele>139.0</ele><time>2026-03-28T13:39:00.048Z</time></trkpt><trkpt lat="45.194025278599746" lon="8.296729977079785"><ele>138.57142857142856</ele><time>2026-03-28T13:39:01.048Z</time></trkpt><trkpt lat="45.19394956524187" lon="8.296709801060484"><ele>138.14285714285714</ele><time>2026-03-28T13:39:02.049Z</time></trkpt><trkpt lat="45.19387807299115" lon="8.296693544428319"><ele>137.71428571428572</ele><time>2026-03-28T13:39:03.049Z</time></trkpt><trkpt lat="45.19380270272033" lon="8.296679696423354"><ele>137.28571428571428</ele><time>2026-03-28T13:39:04.049Z</time></trkpt><trkpt lat="45.193724751059555" lon="8.296660657043738"><ele>136.85714285714286</ele><time>2026-03-28T13:39:05.049Z</time></trkpt><trkpt lat="45.193656482130926" lon="8.296643477074491"><ele>136.42857142857142</ele><time>2026-03-28T13:39:06.049Z</time></trkpt><trkpt lat="45.193592300714236" lon="8.296636230866211"><ele>136.0</ele><time>2026-03-28T13:39:07.049Z</time></trkpt><trkpt lat="45.193523466725814" lon="8.296641671226787"><ele>136.0</ele><time>2026-03-28T13:39:08.049Z</time></trkpt><trkpt lat="45.19341521195568" lon="8.296580303050044"><ele>136.0</ele><time>2026-03-28T13:39:10.049Z</time></trkpt><trkpt lat="45.1933222999897" lon="8.29653486150643"><ele>136.0</ele><time>2026-03-28T13:39:12.049Z</time></trkpt><trkpt lat="45.193217489779016" lon="8.296504069393054"><ele>136.0</ele><time>2026-03-28T13:39:14.049Z</time></trkpt><trkpt lat="45.19314381466358" lon="8.296493389183532"><ele>136.0</ele><time>2026-03-28T13:39:16.049Z</time></trkpt><trkpt lat="45.19307948211059" lon="8.296481630864227"><ele>135.7142857142857</ele><time>2026-03-28T13:39:19.048Z</time></trkpt><trkpt lat="45.19306618937838" lon="8.29639229326039"><ele>135.42857142857142</ele><time>2026-03-28T13:39:25.048Z</time></trkpt><trkpt lat="45.193045274357225" lon="8.29630612470454"><ele>135.14285714285714</ele><time>2026-03-28T13:39:28.047Z</time></trkpt><trkpt lat="45.193056233618265" lon="8.296201438687014"><ele>134.85714285714283</ele><time>2026-03-28T13:39:29.048Z</time></trkpt><trkpt lat="45.193085880691044" lon="8.29609218490193"><ele>134.57142857142856</ele><time>2026-03-28T13:39:30.048Z</time></trkpt><trkpt lat="45.19311380710708" lon="8.2959761973918"><ele>134.28571428571428</ele><time>2026-03-28T13:39:31.048Z</time></trkpt><trkpt lat="45.19313854499199" lon="8.295872997157645"><ele>134.0</ele><time>2026-03-28T13:39:32.048Z</time></trkpt><trkpt lat="45.193160179892324" lon="8.295753365004767"><ele>134.4</ele><time>2026-03-28T13:39:33.048Z</time></trkpt><trkpt lat="45.19317742689883" lon="8.295621910795248"><ele>134.8</ele><time>2026-03-28T13:39:34.048Z</time></trkpt><trkpt lat="45.19320073755991" lon="8.29549162817819"><ele>135.2</ele><time>2026-03-28T13:39:35.048Z</time></trkpt><trkpt lat="45.19323079879549" lon="8.295359944181289"><ele>135.6</ele><time>2026-03-28T13:39:36.048Z</time></trkpt><trkpt lat="45.19324758097736" lon="8.29522414999162"><ele>136.0</ele><time>2026-03-28T13:39:37.048Z</time></trkpt><trkpt lat="45.19326111344782" lon="8.29510130850239"><ele>136.0</ele><time>2026-03-28T13:39:38.048Z</time></trkpt><trkpt lat="45.193277225452455" lon="8.294992244159785"><ele>136.0</ele><time>2026-03-28T13:39:39.048Z</time></trkpt><trkpt lat="45.19328216234248" lon="8.294897147801342"><ele>136.0</ele><time>2026-03-28T13:39:40.048Z</time></trkpt><trkpt lat="45.193292357885184" lon="8.294791480251039"><ele>136.0</ele><time>2026-03-28T13:39:42.048Z</time></trkpt><trkpt lat="45.19329682875478" lon="8.294688615903736"><ele>136.0</ele><time>2026-03-28T13:39:52.048Z</time></trkpt><trkpt lat="45.19330508478431" lon="8.29458438201847"><ele>136.0</ele><time>2026-03-28T13:39:54.048Z</time></trkpt><trkpt lat="45.19332717362564" lon="8.294456449447502"><ele>135.66666666666669</ele><time>2026-03-28T13:39:56.048Z</time></trkpt><trkpt lat="45.19334186627176" lon="8.29436812694326"><ele>135.33333333333334</ele><time>2026-03-28T13:39:57.048Z</time></trkpt><trkpt lat="45.19336590987021" lon="8.294201186881763"><ele>135.0</ele><time>2026-03-28T13:39:59.048Z</time></trkpt><trkpt lat="45.1933751564101" lon="8.294108843216442"><ele>134.66666666666666</ele><time>2026-03-28T13:40:00.048Z</time></trkpt><trkpt lat="45.193388563597054" lon="8.294003043405906"><ele>134.33333333333331</ele><time>2026-03-28T13:40:01.048Z</time></trkpt><trkpt lat="45.193405210679984" lon="8.29387936905697"><ele>134.0</ele><time>2026-03-28T13:40:02.048Z</time></trkpt><trkpt lat="45.19342761516935" lon="8.293741340262878"><ele>133.6</ele><time>2026-03-28T13:40:03.048Z</time></trkpt><trkpt lat="45.19343843808045" lon="8.29359752892396"><ele>133.2</ele><time>2026-03-28T13:40:04.049Z</time></trkpt><trkpt lat="45.193452803164845" lon="8.293461045740386"><ele>132.79999999999998</ele><time>2026-03-28T13:40:05.049Z</time></trkpt><trkpt lat="45.193467537669996" lon="8.293337273752275"><ele>132.4</ele><time>2026-03-28T13:40:06.049Z</time></trkpt><trkpt lat="45.19348187390555" lon="8.29322704315706"><ele>132.0</ele><time>2026-03-28T13:40:07.049Z</time></trkpt><trkpt lat="45.19348487108372" lon="8.29309761695812"><ele>132.0</ele><time>2026-03-28T13:40:09.049Z</time></trkpt><trkpt lat="45.193380914644685" lon="8.293089124786023"><ele>132.0</ele><time>2026-03-28T13:40:11.049Z</time></trkpt><trkpt lat="45.19328912018582" lon="8.293094644434364"><ele>132.0</ele><time>2026-03-28T13:40:12.049Z</time></trkpt><trkpt lat="45.193181623105545" lon="8.293055697513347"><ele>132.0</ele><time>2026-03-28T13:40:13.049Z</time></trkpt><trkpt lat="45.193085729968764" lon="8.293022963141203"><ele>132.0</ele><time>2026-03-28T13:40:14.049Z</time></trkpt><trkpt lat="45.1929717232012" lon="8.292977076626752"><ele>132.0</ele><time>2026-03-28T13:40:15.049Z</time></trkpt><trkpt lat="45.192857453615865" lon="8.292936833554453"><ele>132.0</ele><time>2026-03-28T13:40:16.049Z</time></trkpt><trkpt lat="45.192747517861285" lon="8.292891583899554"><ele>132.0</ele><time>2026-03-28T13:40:17.049Z</time></trkpt><trkpt lat="45.19263801077577" lon="8.292839777151709"><ele>132.0</ele><time>2026-03-28T13:40:18.049Z</time></trkpt><trkpt lat="45.19254013901079" lon="8.292801540465234"><ele>132.0</ele><time>2026-03-28T13:40:19.049Z</time></trkpt><trkpt lat="45.19244894984844" lon="8.292764955582188"><ele>132.0</ele><time>2026-03-28T13:40:20.049Z</time></trkpt><trkpt lat="45.19236261832025" lon="8.292736022151322"><ele>132.0</ele><time>2026-03-28T13:40:21.049Z</time></trkpt><trkpt lat="45.19226562326118" lon="8.292696755054752"><ele>132.0</ele><time>2026-03-28T13:40:22.049Z</time></trkpt><trkpt lat="45.1921614948158" lon="8.292652574091022"><ele>132.0</ele><time>2026-03-28T13:40:23.049Z</time></trkpt><trkpt lat="45.19205385502295" lon="8.292610406948036"><ele>132.0</ele><time>2026-03-28T13:40:24.049Z</time></trkpt><trkpt lat="45.191957267497486" lon="8.292569518790364"><ele>132.2</ele><time>2026-03-28T13:40:25.049Z</time></trkpt><trkpt lat="45.191870564012" lon="8.292532304021275"><ele>132.39999999999998</ele><time>2026-03-28T13:40:26.049Z</time></trkpt><trkpt lat="45.19179279697576" lon="8.292502889202266"><ele>132.60000000000002</ele><time>2026-03-28T13:40:27.049Z</time></trkpt><trkpt lat="45.1917067742921" lon="8.292484356006515"><ele>132.8</ele><time>2026-03-28T13:40:28.049Z</time></trkpt><trkpt lat="45.19161717029316" lon="8.292449013985044"><ele>133.0</ele><time>2026-03-28T13:40:29.049Z</time></trkpt><trkpt lat="45.191524737073024" lon="8.292399700944372"><ele>132.8</ele><time>2026-03-28T13:40:30.049Z</time></trkpt><trkpt lat="45.191435053830276" lon="8.292363069044043"><ele>132.60000000000002</ele><time>2026-03-28T13:40:31.049Z</time></trkpt><trkpt lat="45.19135189983713" lon="8.292333201133884"><ele>132.39999999999998</ele><time>2026-03-28T13:40:32.049Z</time></trkpt><trkpt lat="45.19127945562277" lon="8.292312212420596"><ele>132.2</ele><time>2026-03-28T13:40:33.049Z</time></trkpt><trkpt lat="45.191171649076026" lon="8.2923072075154"><ele>132.0</ele><time>2026-03-28T13:40:35.049Z</time></trkpt><trkpt lat="45.19112240773413" lon="8.292440195464769"><ele>132.0</ele><time>2026-03-28T13:40:37.05Z</time></trkpt><trkpt lat="45.19111345438001" lon="8.292541265140233"><ele>132.0</ele><time>2026-03-28T13:40:38.05Z</time></trkpt><trkpt lat="45.19110765835669" lon="8.292650727893305"><ele>132.0</ele><time>2026-03-28T13:40:39.05Z</time></trkpt><trkpt lat="45.19110064424915" lon="8.292779114813317"><ele>132.0</ele><time>2026-03-28T13:40:40.05Z</time></trkpt><trkpt lat="45.191072054972054" lon="8.292918243785879"><ele>132.0</ele><time>2026-03-28T13:40:41.05Z</time></trkpt><trkpt lat="45.19104151702667" lon="8.293073841633092"><ele>132.0</ele><time>2026-03-28T13:40:42.05Z</time></trkpt><trkpt lat="45.191015734612854" lon="8.29323741606754"><ele>132.0</ele><time>2026-03-28T13:40:43.05Z</time></trkpt><trkpt lat="45.19099328647656" lon="8.293389211639473"><ele>132.0</ele><time>2026-03-28T13:40:44.05Z</time></trkpt><trkpt lat="45.190961341472" lon="8.293554246691096"><ele>132.0</ele><time>2026-03-28T13:40:45.05Z</time></trkpt><trkpt lat="45.19092458125508" lon="8.293721687801026"><ele>132.0</ele><time>2026-03-28T13:40:46.05Z</time></trkpt><trkpt lat="45.19089310777525" lon="8.293883458797026"><ele>132.0</ele><time>2026-03-28T13:40:47.05Z</time></trkpt><trkpt lat="45.19087108421287" lon="8.294039486902664"><ele>132.0</ele><time>2026-03-28T13:40:48.05Z</time></trkpt><trkpt lat="45.19085966836271" lon="8.294180973685704"><ele>132.0</ele><time>2026-03-28T13:40:49.05Z</time></trkpt><trkpt lat="45.19085320188277" lon="8.29429930566734"><ele>132.0</ele><time>2026-03-28T13:40:50.05Z</time></trkpt><trkpt lat="45.19084665526194" lon="8.294397466417543"><ele>132.0</ele><time>2026-03-28T13:40:51.05Z</time></trkpt><trkpt lat="45.19080923322869" lon="8.294529636373811"><ele>132.0</ele><time>2026-03-28T13:40:53.05Z</time></trkpt><trkpt lat="45.19072530152223" lon="8.294541491215938"><ele>132.0</ele><time>2026-03-28T13:40:55.05Z</time></trkpt><trkpt lat="45.19060866635731" lon="8.294492628111326"><ele>132.0</ele><time>2026-03-28T13:40:57.05Z</time></trkpt><trkpt lat="45.19052875278602" lon="8.294488157813854"><ele>132.0</ele><time>2026-03-28T13:40:59.05Z</time></trkpt><trkpt lat="45.190493457837974" lon="8.29457465024031"><ele>132.0</ele><time>2026-03-28T13:41:02.05Z</time></trkpt><trkpt lat="45.19055132732479" lon="8.294614651858746"><ele>132.0</ele><time>2026-03-28T13:41:05.05Z</time></trkpt><trkpt lat="45.19063206924602" lon="8.29461820166896"><ele>132.0</ele><time>2026-03-28T13:41:07.05Z</time></trkpt><trkpt lat="45.19069450319351" lon="8.294635607990836"><ele>132.0</ele><time>2026-03-28T13:41:09.05Z</time></trkpt><trkpt lat="45.190751792931955" lon="8.294722169241583"><ele>132.0</ele><time>2026-03-28T13:41:13.051Z</time></trkpt><trkpt lat="45.19075308096154" lon="8.294813535584659"><ele>132.0</ele><time>2026-03-28T13:41:14.051Z</time></trkpt><trkpt lat="45.19072515388655" lon="8.294935106584795"><ele>132.0</ele><time>2026-03-28T13:41:15.051Z</time></trkpt><trkpt lat="45.19069668258299" lon="8.295077153107792"><ele>132.0</ele><time>2026-03-28T13:41:16.051Z</time></trkpt><trkpt lat="45.19067080475242" lon="8.29522800225161"><ele>132.0</ele><time>2026-03-28T13:41:17.051Z</time></trkpt><trkpt lat="45.19064357387717" lon="8.295390547996824"><ele>132.0</ele><time>2026-03-28T13:41:18.051Z</time></trkpt><trkpt lat="45.19061717694399" lon="8.295548633529458"><ele>132.0</ele><time>2026-03-28T13:41:19.051Z</time></trkpt><trkpt lat="45.19059757119658" lon="8.295690402396582"><ele>132.0</ele><time>2026-03-28T13:41:20.051Z</time></trkpt><trkpt lat="45.190580716172086" lon="8.295823289985103"><ele>132.0</ele><time>2026-03-28T13:41:21.051Z</time></trkpt><trkpt lat="45.19056433515254" lon="8.295933059219191"><ele>132.0</ele><time>2026-03-28T13:41:22.051Z</time></trkpt><trkpt lat="45.190532034989914" lon="8.2960536758517"><ele>132.0</ele><time>2026-03-28T13:41:24.051Z</time></trkpt><trkpt lat="45.19047402654041" lon="8.296103749270918"><ele>132.0</ele><time>2026-03-28T13:41:26.049Z</time></trkpt><trkpt lat="45.19039533989605" lon="8.29609370385714"><ele>132.0</ele><time>2026-03-28T13:41:27.049Z</time></trkpt><trkpt lat="45.19030683862502" lon="8.296082291657838"><ele>132.0</ele><time>2026-03-28T13:41:28.049Z</time></trkpt><trkpt lat="45.19020972153282" lon="8.296083268648818"><ele>132.0</ele><time>2026-03-28T13:41:29.049Z</time></trkpt><trkpt lat="45.1901140512901" lon="8.296077766916783"><ele>132.0</ele><time>2026-03-28T13:41:30.049Z</time></trkpt><trkpt lat="45.19001224200736" lon="8.296072439299568"><ele>132.0</ele><time>2026-03-28T13:41:31.049Z</time></trkpt><trkpt lat="45.18991418540689" lon="8.296065321768657"><ele>132.0</ele><time>2026-03-28T13:41:32.049Z</time></trkpt><trkpt lat="45.18981498604842" lon="8.296065309567785"><ele>132.0</ele><time>2026-03-28T13:41:33.049Z</time></trkpt><trkpt lat="45.18971335325292" lon="8.296063193075772"><ele>131.79999999999998</ele><time>2026-03-28T13:41:34.05Z</time></trkpt><trkpt lat="45.18960997559063" lon="8.296054497103404"><ele>131.6</ele><time>2026-03-28T13:41:35.049Z</time></trkpt><trkpt lat="45.18950437327506" lon="8.296042595827041"><ele>131.39999999999998</ele><time>2026-03-28T13:41:36.049Z</time></trkpt><trkpt lat="45.18939455666605" lon="8.296036857804364"><ele>131.2</ele><time>2026-03-28T13:41:37.049Z</time></trkpt><trkpt lat="45.1892751557089" lon="8.296042574320245"><ele>131.0</ele><time>2026-03-28T13:41:38.049Z</time></trkpt><trkpt lat="45.18915165654667" lon="8.29604301605469"><ele>131.0</ele><time>2026-03-28T13:41:39.049Z</time></trkpt><trkpt lat="45.1890330248904" lon="8.296048341206088"><ele>131.0</ele><time>2026-03-28T13:41:40.049Z</time></trkpt><trkpt lat="45.18890702614629" lon="8.296048589963101"><ele>131.0</ele><time>2026-03-28T13:41:41.049Z</time></trkpt><trkpt lat="45.18878186023371" lon="8.296045255206955"><ele>131.0</ele><time>2026-03-28T13:41:42.049Z</time></trkpt><trkpt lat="45.18866380966541" lon="8.296038296877363"><ele>131.0</ele><time>2026-03-28T13:41:43.049Z</time></trkpt><trkpt lat="45.188542015039175" lon="8.296033500401945"><ele>131.0</ele><time>2026-03-28T13:41:44.049Z</time></trkpt><trkpt lat="45.18842690192054" lon="8.296031385356837"><ele>131.0</ele><time>2026-03-28T13:41:45.049Z</time></trkpt><trkpt lat="45.188315971032495" lon="8.296025054396594"><ele>131.0</ele><time>2026-03-28T13:41:46.049Z</time></trkpt><trkpt lat="45.18820382079901" lon="8.29602482210869"><ele>131.2</ele><time>2026-03-28T13:41:47.049Z</time></trkpt><trkpt lat="45.18809122050451" lon="8.296025477920244"><ele>131.39999999999998</ele><time>2026-03-28T13:41:48.049Z</time></trkpt><trkpt lat="45.187981669209236" lon="8.296014775624474"><ele>131.6</ele><time>2026-03-28T13:41:49.049Z</time></trkpt><trkpt lat="45.187883389910134" lon="8.296006532249981"><ele>131.79999999999998</ele><time>2026-03-28T13:41:50.049Z</time></trkpt><trkpt lat="45.18779556912738" lon="8.295992845095357"><ele>132.0</ele><time>2026-03-28T13:41:51.049Z</time></trkpt><trkpt lat="45.187716129135985" lon="8.295984385665523"><ele>132.0</ele><time>2026-03-28T13:41:52.049Z</time></trkpt><trkpt lat="45.18760670203934" lon="8.295971295395125"><ele>132.0</ele><time>2026-03-28T13:41:54.049Z</time></trkpt><trkpt lat="45.18752725233582" lon="8.295942686239062"><ele>132.0</ele><time>2026-03-28T13:41:56.05Z</time></trkpt><trkpt lat="45.18742288519387" lon="8.295902429356374"><ele>132.0</ele><time>2026-03-28T13:41:58.05Z</time></trkpt><trkpt lat="45.18735380686232" lon="8.295916821126907"><ele>132.0</ele><time>2026-03-28T13:41:59.05Z</time></trkpt><trkpt lat="45.187277362655934" lon="8.295930851747107"><ele>132.0</ele><time>2026-03-28T13:42:00.05Z</time></trkpt><trkpt lat="45.187196797174" lon="8.295950834317505"><ele>131.79999999999998</ele><time>2026-03-28T13:42:01.05Z</time></trkpt><trkpt lat="45.187107955554126" lon="8.295952653320018"><ele>131.6</ele><time>2026-03-28T13:42:02.05Z</time></trkpt><trkpt lat="45.18700310647719" lon="8.295947751759593"><ele>131.39999999999998</ele><time>2026-03-28T13:42:03.05Z</time></trkpt><trkpt lat="45.18690223409622" lon="8.295941911644807"><ele>131.2</ele><time>2026-03-28T13:42:04.05Z</time></trkpt><trkpt lat="45.186798402985346" lon="8.295930963117558"><ele>131.0</ele><time>2026-03-28T13:42:05.05Z</time></trkpt><trkpt lat="45.18668800053665" lon="8.295926205532284"><ele>131.0</ele><time>2026-03-28T13:42:06.05Z</time></trkpt><trkpt lat="45.18657500874111" lon="8.29592287159495"><ele>131.0</ele><time>2026-03-28T13:42:07.05Z</time></trkpt><trkpt lat="45.18646197488165" lon="8.295918276776563"><ele>131.0</ele><time>2026-03-28T13:42:08.05Z</time></trkpt><trkpt lat="45.186348842278186" lon="8.295909268366305"><ele>131.0</ele><time>2026-03-28T13:42:09.05Z</time></trkpt><trkpt lat="45.18623450679105" lon="8.2959008116838"><ele>130.75</ele><time>2026-03-28T13:42:10.05Z</time></trkpt><trkpt lat="45.18611422701467" lon="8.295893158518417"><ele>130.5</ele><time>2026-03-28T13:42:11.05Z</time></trkpt><trkpt lat="45.18599258113536" lon="8.295884545013923"><ele>130.25</ele><time>2026-03-28T13:42:12.05Z</time></trkpt><trkpt lat="45.18587295278938" lon="8.295878103812752"><ele>130.0</ele><time>2026-03-28T13:42:13.05Z</time></trkpt><trkpt lat="45.185757009895035" lon="8.295871260420792"><ele>130.25</ele><time>2026-03-28T13:42:14.05Z</time></trkpt><trkpt lat="45.185642153874134" lon="8.295861778707232"><ele>130.5</ele><time>2026-03-28T13:42:15.05Z</time></trkpt><trkpt lat="45.18552781607035" lon="8.295853240331253"><ele>130.75</ele><time>2026-03-28T13:42:16.05Z</time></trkpt><trkpt lat="45.185411553211345" lon="8.295844940779432"><ele>131.0</ele><time>2026-03-28T13:42:17.05Z</time></trkpt><trkpt lat="45.18529066261498" lon="8.295834300754324"><ele>131.0</ele><time>2026-03-28T13:42:18.05Z</time></trkpt><trkpt lat="45.18516226938097" lon="8.295825548875467"><ele>131.0</ele><time>2026-03-28T13:42:19.05Z</time></trkpt><trkpt lat="45.18502874576322" lon="8.29581995722201"><ele>131.0</ele><time>2026-03-28T13:42:20.05Z</time></trkpt><trkpt lat="45.184895578980885" lon="8.29581176428837"><ele>131.0</ele><time>2026-03-28T13:42:21.05Z</time></trkpt><trkpt lat="45.18476231279541" lon="8.29580270364877"><ele>131.0</ele><time>2026-03-28T13:42:22.05Z</time></trkpt><trkpt lat="45.18462250718824" lon="8.295795216460814"><ele>131.0</ele><time>2026-03-28T13:42:23.05Z</time></trkpt><trkpt lat="45.18447188312262" lon="8.295792342252547"><ele>131.0</ele><time>2026-03-28T13:42:24.05Z</time></trkpt><trkpt lat="45.184309298994535" lon="8.295793051096345"><ele>131.0</ele><time>2026-03-28T13:42:25.05Z</time></trkpt><trkpt lat="45.18413323522525" lon="8.295787698054477"><ele>131.0</ele><time>2026-03-28T13:42:26.05Z</time></trkpt><trkpt lat="45.183945609009555" lon="8.295774546951614"><ele>131.0</ele><time>2026-03-28T13:42:27.05Z</time></trkpt><trkpt lat="45.183758780019126" lon="8.295754743298534"><ele>129.66666666666666</ele><time>2026-03-28T13:42:28.05Z</time></trkpt><trkpt lat="45.18356205778266" lon="8.295735680848132"><ele>128.33333333333334</ele><time>2026-03-28T13:42:29.05Z</time></trkpt><trkpt lat="45.18336387333103" lon="8.295718329602453"><ele>127.0</ele><time>2026-03-28T13:42:30.051Z</time></trkpt><trkpt lat="45.18316302429555" lon="8.29570639279268"><ele>126.66666666666667</ele><time>2026-03-28T13:42:31.051Z</time></trkpt><trkpt lat="45.18295806641962" lon="8.29569543252244"><ele>126.33333333333334</ele><time>2026-03-28T13:42:32.051Z</time></trkpt><trkpt lat="45.18275480531079" lon="8.295683381253838"><ele>126.0</ele><time>2026-03-28T13:42:33.051Z</time></trkpt><trkpt lat="45.182549166434995" lon="8.295676861489808"><ele>126.33333333333334</ele><time>2026-03-28T13:42:34.051Z</time></trkpt><trkpt lat="45.18233831004859" lon="8.295666647479546"><ele>126.66666666666667</ele><time>2026-03-28T13:42:35.051Z</time></trkpt><trkpt lat="45.18212619965428" lon="8.29565594075221"><ele>127.0</ele><time>2026-03-28T13:42:36.051Z</time></trkpt><trkpt lat="45.18191204378946" lon="8.295645931224676"><ele>127.0</ele><time>2026-03-28T13:42:37.051Z</time></trkpt><trkpt lat="45.18169508488171" lon="8.295631489915039"><ele>127.0</ele><time>2026-03-28T13:42:38.051Z</time></trkpt><trkpt lat="45.18147608519597" lon="8.295618977434037"><ele>127.0</ele><time>2026-03-28T13:42:39.051Z</time></trkpt><trkpt lat="45.18125722864737" lon="8.295607353547615"><ele>127.0</ele><time>2026-03-28T13:42:40.051Z</time></trkpt><trkpt lat="45.18104664787625" lon="8.295598473199707"><ele>127.0</ele><time>2026-03-28T13:42:41.051Z</time></trkpt><trkpt lat="45.180840947228184" lon="8.295587532081537"><ele>127.0</ele><time>2026-03-28T13:42:42.051Z</time></trkpt><trkpt lat="45.1806395882892" lon="8.295577627394506"><ele>127.0</ele><time>2026-03-28T13:42:43.051Z</time></trkpt><trkpt lat="45.18044226136573" lon="8.295567795588218"><ele>127.0</ele><time>2026-03-28T13:42:44.051Z</time></trkpt><trkpt lat="45.18025198156481" lon="8.29555560049231"><ele>127.0</ele><time>2026-03-28T13:42:45.051Z</time></trkpt><trkpt lat="45.18006038982295" lon="8.295541209562673"><ele>127.0</ele><time>2026-03-28T13:42:46.051Z</time></trkpt><trkpt lat="45.17986605644289" lon="8.295519459537521"><ele>127.0</ele><time>2026-03-28T13:42:47.051Z</time></trkpt><trkpt lat="45.17967065433242" lon="8.29547911718319"><ele>127.0</ele><time>2026-03-28T13:42:48.051Z</time></trkpt><trkpt lat="45.17947618428877" lon="8.295416787970522"><ele>127.0</ele><time>2026-03-28T13:42:49.051Z</time></trkpt><trkpt lat="45.17928569355819" lon="8.295335144356935"><ele>127.0</ele><time>2026-03-28T13:42:50.051Z</time></trkpt><trkpt lat="45.17909483598586" lon="8.295241792686635"><ele>127.0</ele><time>2026-03-28T13:42:51.051Z</time></trkpt><trkpt lat="45.17890280446992" lon="8.29514466592449"><ele>127.0</ele><time>2026-03-28T13:42:52.051Z</time></trkpt><trkpt lat="45.17870886157036" lon="8.295047669740722"><ele>127.0</ele><time>2026-03-28T13:42:53.051Z</time></trkpt><trkpt lat="45.178513612503586" lon="8.294954333204686"><ele>127.0</ele><time>2026-03-28T13:42:54.051Z</time></trkpt><trkpt lat="45.178317373681026" lon="8.294863199109113"><ele>127.33333333333334</ele><time>2026-03-28T13:42:55.051Z</time></trkpt><trkpt lat="45.178116220282995" lon="8.294769709189271"><ele>127.66666666666666</ele><time>2026-03-28T13:42:56.051Z</time></trkpt><trkpt lat="45.177915952614654" lon="8.29467115360107"><ele>128.0</ele><time>2026-03-28T13:42:57.051Z</time></trkpt><trkpt lat="45.177714966057124" lon="8.294569778343197"><ele>128.0</ele><time>2026-03-28T13:42:58.051Z</time></trkpt><trkpt lat="45.1775137074604" lon="8.294468317115491"><ele>128.0</ele><time>2026-03-28T13:42:59.051Z</time></trkpt><trkpt lat="45.17731355580757" lon="8.294369310794488"><ele>128.0</ele><time>2026-03-28T13:43:00.051Z</time></trkpt><trkpt lat="45.17711191239704" lon="8.294269663084878"><ele>128.33333333333331</ele><time>2026-03-28T13:43:01.051Z</time></trkpt><trkpt lat="45.17691229659222" lon="8.29417097753916"><ele>128.66666666666666</ele><time>2026-03-28T13:43:02.051Z</time></trkpt><trkpt lat="45.176713213964575" lon="8.29407350785059"><ele>129.0</ele><time>2026-03-28T13:43:03.052Z</time></trkpt><trkpt lat="45.17652496756352" lon="8.293977974189945"><ele>128.66666666666666</ele><time>2026-03-28T13:43:04.052Z</time></trkpt><trkpt lat="45.176346233521556" lon="8.293881000098054"><ele>128.33333333333331</ele><time>2026-03-28T13:43:05.052Z</time></trkpt><trkpt lat="45.17617860050082" lon="8.293775602612312"><ele>128.0</ele><time>2026-03-28T13:43:06.052Z</time></trkpt><trkpt lat="45.176035965088175" lon="8.29364673059379"><ele>128.0</ele><time>2026-03-28T13:43:07.052Z</time></trkpt><trkpt lat="45.17590845731791" lon="8.29348831463386"><ele>128.0</ele><time>2026-03-28T13:43:08.052Z</time></trkpt><trkpt lat="45.17579080466863" lon="8.293302312316952"><ele>128.0</ele><time>2026-03-28T13:43:09.052Z</time></trkpt><trkpt lat="45.17568666888362" lon="8.293100480636411"><ele>126.66666666666666</ele><time>2026-03-28T13:43:10.052Z</time></trkpt><trkpt lat="45.175579202046144" lon="8.292895087990614"><ele>125.33333333333334</ele><time>2026-03-28T13:43:11.052Z</time></trkpt><trkpt lat="45.175467591842484" lon="8.292690770560299"><ele>124.0</ele><time>2026-03-28T13:43:12.052Z</time></trkpt><trkpt lat="45.17535484515183" lon="8.29247882511548"><ele>124.0</ele><time>2026-03-28T13:43:13.052Z</time></trkpt><trkpt lat="45.17523664485978" lon="8.292263369975425"><ele>124.0</ele><time>2026-03-28T13:43:14.052Z</time></trkpt><trkpt lat="45.17511405622451" lon="8.29204784301813"><ele>124.0</ele><time>2026-03-28T13:43:15.052Z</time></trkpt><trkpt lat="45.17499367183667" lon="8.291831974734489"><ele>124.0</ele><time>2026-03-28T13:43:16.052Z</time></trkpt><trkpt lat="45.17487046461227" lon="8.291614645766611"><ele>124.0</ele><time>2026-03-28T13:43:17.052Z</time></trkpt><trkpt lat="45.17475079561914" lon="8.291400136899588"><ele>124.0</ele><time>2026-03-28T13:43:18.052Z</time></trkpt><trkpt lat="45.17463430353278" lon="8.291196731516445"><ele>126.33333333333334</ele><time>2026-03-28T13:43:19.052Z</time></trkpt><trkpt lat="45.17451952019364" lon="8.290996949092984"><ele>128.66666666666666</ele><time>2026-03-28T13:43:20.052Z</time></trkpt><trkpt lat="45.17440789529985" lon="8.290797758800993"><ele>131.0</ele><time>2026-03-28T13:43:21.052Z</time></trkpt><trkpt lat="45.17429988186458" lon="8.290607320676935"><ele>131.66666666666666</ele><time>2026-03-28T13:43:22.052Z</time></trkpt><trkpt lat="45.17419817879493" lon="8.290428611475923"><ele>132.33333333333334</ele><time>2026-03-28T13:43:23.052Z</time></trkpt><trkpt lat="45.174101367134256" lon="8.29026231576257"><ele>133.0</ele><time>2026-03-28T13:43:24.052Z</time></trkpt><trkpt lat="45.17400874400511" lon="8.290110674831809"><ele>133.0</ele><time>2026-03-28T13:43:25.052Z</time></trkpt><trkpt lat="45.173924817900144" lon="8.289986655977536"><ele>133.0</ele><time>2026-03-28T13:43:26.052Z</time></trkpt><trkpt lat="45.173850983904565" lon="8.289891181377156"><ele>133.0</ele><time>2026-03-28T13:43:27.052Z</time></trkpt><trkpt lat="45.17379303706613" lon="8.289814908995465"><ele>133.0</ele><time>2026-03-28T13:43:28.052Z</time></trkpt><trkpt lat="45.173750668040874" lon="8.289735421012743"><ele>133.0</ele><time>2026-03-28T13:43:29.052Z</time></trkpt><trkpt lat="45.173733968378855" lon="8.289648205383886"><ele>133.0</ele><time>2026-03-28T13:43:30.052Z</time></trkpt><trkpt lat="45.17375194057911" lon="8.28954536739969"><ele>133.0</ele><time>2026-03-28T13:43:31.051Z</time></trkpt><trkpt lat="45.173788561332614" lon="8.28943991612887"><ele>133.0</ele><time>2026-03-28T13:43:32.051Z</time></trkpt><trkpt lat="45.173832311564084" lon="8.289307858616894"><ele>133.0</ele><time>2026-03-28T13:43:33.051Z</time></trkpt><trkpt lat="45.17387100769666" lon="8.289160185474898"><ele>133.0</ele><time>2026-03-28T13:43:34.05Z</time></trkpt><trkpt lat="45.17391283553023" lon="8.289003801374726"><ele>133.0</ele><time>2026-03-28T13:43:35.051Z</time></trkpt><trkpt lat="45.17394914799275" lon="8.288862009234931"><ele>132.20000000000002</ele><time>2026-03-28T13:43:36.051Z</time></trkpt><trkpt lat="45.17396800940531" lon="8.288719407585637"><ele>131.4</ele><time>2026-03-28T13:43:37.051Z</time></trkpt><trkpt lat="45.17395577192167" lon="8.288587998809525"><ele>130.60000000000002</ele><time>2026-03-28T13:43:38.051Z</time></trkpt><trkpt lat="45.17391435619638" lon="8.288474735282655"><ele>129.8</ele><time>2026-03-28T13:43:39.051Z</time></trkpt><trkpt lat="45.173846197243456" lon="8.28837470835139"><ele>129.0</ele><time>2026-03-28T13:43:40.051Z</time></trkpt><trkpt lat="45.17375788810693" lon="8.288274854746396"><ele>129.0</ele><time>2026-03-28T13:43:41.051Z</time></trkpt><trkpt lat="45.173647403084125" lon="8.288180401729187"><ele>129.0</ele><time>2026-03-28T13:43:42.051Z</time></trkpt><trkpt lat="45.17352527584936" lon="8.288083573313402"><ele>129.0</ele><time>2026-03-28T13:43:43.051Z</time></trkpt><trkpt lat="45.1733916504326" lon="8.287972092475197"><ele>129.0</ele><time>2026-03-28T13:43:44.052Z</time></trkpt><trkpt lat="45.17325596830621" lon="8.287856662946423"><ele>130.0</ele><time>2026-03-28T13:43:45.052Z</time></trkpt><trkpt lat="45.17312617240673" lon="8.28773435387734"><ele>131.0</ele><time>2026-03-28T13:43:46.052Z</time></trkpt><trkpt lat="45.17299666707693" lon="8.287604338442868"><ele>132.0</ele><time>2026-03-28T13:43:47.052Z</time></trkpt><trkpt lat="45.17287574611335" lon="8.287474169294432"><ele>132.0</ele><time>2026-03-28T13:43:48.052Z</time></trkpt><trkpt lat="45.172773658797695" lon="8.28732830871324"><ele>132.0</ele><time>2026-03-28T13:43:49.052Z</time></trkpt><trkpt lat="45.1726965805407" lon="8.287156864694902"><ele>132.0</ele><time>2026-03-28T13:43:50.052Z</time></trkpt><trkpt lat="45.17264178550168" lon="8.286972448810733"><ele>132.0</ele><time>2026-03-28T13:43:51.052Z</time></trkpt><trkpt lat="45.17261471148395" lon="8.286774456962616"><ele>132.33333333333334</ele><time>2026-03-28T13:43:52.052Z</time></trkpt><trkpt lat="45.17261387629105" lon="8.286567545624477"><ele>132.66666666666669</ele><time>2026-03-28T13:43:53.052Z</time></trkpt><trkpt lat="45.17264137092103" lon="8.286356026911195"><ele>133.0</ele><time>2026-03-28T13:43:54.052Z</time></trkpt><trkpt lat="45.17269452380367" lon="8.286146218845754"><ele>133.66666666666669</ele><time>2026-03-28T13:43:55.052Z</time></trkpt><trkpt lat="45.17277165543808" lon="8.285944001818446"><ele>134.33333333333334</ele><time>2026-03-28T13:43:56.052Z</time></trkpt><trkpt lat="45.17285840012698" lon="8.285741205880148"><ele>135.0</ele><time>2026-03-28T13:43:57.052Z</time></trkpt><trkpt lat="45.172952941326876" lon="8.285526632503453"><ele>136.33333333333334</ele><time>2026-03-28T13:43:58.052Z</time></trkpt><trkpt lat="45.17304575980342" lon="8.285302309122137"><ele>137.66666666666669</ele><time>2026-03-28T13:43:59.052Z</time></trkpt><trkpt lat="45.17314299435828" lon="8.28506940454608"><ele>139.0</ele><time>2026-03-28T13:44:00.052Z</time></trkpt><trkpt lat="45.17323669213255" lon="8.284837193850787"><ele>136.33333333333334</ele><time>2026-03-28T13:44:01.052Z</time></trkpt><trkpt lat="45.17333119275052" lon="8.284599256368587"><ele>133.66666666666666</ele><time>2026-03-28T13:44:02.052Z</time></trkpt><trkpt lat="45.17343034799136" lon="8.284354958303368"><ele>131.0</ele><time>2026-03-28T13:44:03.052Z</time></trkpt><trkpt lat="45.17353039235479" lon="8.284103742505248"><ele>133.33333333333331</ele><time>2026-03-28T13:44:04.052Z</time></trkpt><trkpt lat="45.17362834841497" lon="8.28385026984623"><ele>135.66666666666666</ele><time>2026-03-28T13:44:05.052Z</time></trkpt><trkpt lat="45.173726433645825" lon="8.283597126881109"><ele>138.0</ele><time>2026-03-28T13:44:06.052Z</time></trkpt><trkpt lat="45.17382464861232" lon="8.283346438164992"><ele>136.0</ele><time>2026-03-28T13:44:07.052Z</time></trkpt><trkpt lat="45.173923823972906" lon="8.283090584063313"><ele>134.0</ele><time>2026-03-28T13:44:08.052Z</time></trkpt><trkpt lat="45.17401594784517" lon="8.282840071641335"><ele>132.0</ele><time>2026-03-28T13:44:09.052Z</time></trkpt><trkpt lat="45.174099933960704" lon="8.282590867452637"><ele>132.0</ele><time>2026-03-28T13:44:10.052Z</time></trkpt><trkpt lat="45.17418036932738" lon="8.282334049377814"><ele>132.0</ele><time>2026-03-28T13:44:11.052Z</time></trkpt><trkpt lat="45.17426167127271" lon="8.282075225606166"><ele>132.0</ele><time>2026-03-28T13:44:12.052Z</time></trkpt><trkpt lat="45.17434493805309" lon="8.281816841614564"><ele>133.33333333333334</ele><time>2026-03-28T13:44:13.052Z</time></trkpt><trkpt lat="45.174427839038096" lon="8.281559924789951"><ele>134.66666666666669</ele><time>2026-03-28T13:44:14.052Z</time></trkpt><trkpt lat="45.17450974294794" lon="8.28130126876228"><ele>136.0</ele><time>2026-03-28T13:44:15.053Z</time></trkpt><trkpt lat="45.17458947834556" lon="8.281040893583299"><ele>138.0</ele><time>2026-03-28T13:44:16.053Z</time></trkpt><trkpt lat="45.174662933677276" lon="8.280779122438448"><ele>140.0</ele><time>2026-03-28T13:44:17.053Z</time></trkpt><trkpt lat="45.174727426359404" lon="8.28051297446671"><ele>142.0</ele><time>2026-03-28T13:44:18.053Z</time></trkpt><trkpt lat="45.174772939112025" lon="8.280236875502068"><ele>142.33333333333334</ele><time>2026-03-28T13:44:19.053Z</time></trkpt><trkpt lat="45.17480623218921" lon="8.279955208583836"><ele>142.66666666666666</ele><time>2026-03-28T13:44:20.053Z</time></trkpt><trkpt lat="45.174839224786545" lon="8.279679696899759"><ele>143.0</ele><time>2026-03-28T13:44:21.053Z</time></trkpt><trkpt lat="45.174874730819205" lon="8.279397876300822"><ele>140.33333333333331</ele><time>2026-03-28T13:44:22.053Z</time></trkpt><trkpt lat="45.17491537242374" lon="8.279120084035934"><ele>137.66666666666666</ele><time>2026-03-28T13:44:23.053Z</time></trkpt><trkpt lat="45.17495898144744" lon="8.278843643391802"><ele>135.0</ele><time>2026-03-28T13:44:24.053Z</time></trkpt><trkpt lat="45.175017091234245" lon="8.278567517451954"><ele>135.0</ele><time>2026-03-28T13:44:25.053Z</time></trkpt><trkpt lat="45.17508478362794" lon="8.278293988035038"><ele>135.0</ele><time>2026-03-28T13:44:26.053Z</time></trkpt><trkpt lat="45.175159976305196" lon="8.278025593343038"><ele>135.0</ele><time>2026-03-28T13:44:27.053Z</time></trkpt><trkpt lat="45.17524221002874" lon="8.277762807501087"><ele>137.0</ele><time>2026-03-28T13:44:28.053Z</time></trkpt><trkpt lat="45.17533198415753" lon="8.277499646952135"><ele>139.0</ele><time>2026-03-28T13:44:29.053Z</time></trkpt><trkpt lat="45.17542267847191" lon="8.277258546658974"><ele>141.0</ele><time>2026-03-28T13:44:30.053Z</time></trkpt><trkpt lat="45.17551325336118" lon="8.277036047000127"><ele>144.33333333333334</ele><time>2026-03-28T13:44:31.053Z</time></trkpt><trkpt lat="45.17560445943108" lon="8.276828900820895"><ele>147.66666666666669</ele><time>2026-03-28T13:44:32.053Z</time></trkpt><trkpt lat="45.17568650723605" lon="8.276631752807994"><ele>151.0</ele><time>2026-03-28T13:44:33.053Z</time></trkpt><trkpt lat="45.17575858363238" lon="8.276457518644433"><ele>148.8</ele><time>2026-03-28T13:44:34.053Z</time></trkpt><trkpt lat="45.1758209836869" lon="8.276306043087052"><ele>146.6</ele><time>2026-03-28T13:44:35.053Z</time></trkpt><trkpt lat="45.175876680276" lon="8.276173315235438"><ele>144.4</ele><time>2026-03-28T13:44:36.053Z</time></trkpt><trkpt lat="45.17592991976496" lon="8.276051272064201"><ele>142.2</ele><time>2026-03-28T13:44:37.053Z</time></trkpt><trkpt lat="45.17597894361526" lon="8.275930790354055"><ele>140.0</ele><time>2026-03-28T13:44:38.053Z</time></trkpt><trkpt lat="45.17603133414199" lon="8.275809297972845"><ele>140.0</ele><time>2026-03-28T13:44:39.053Z</time></trkpt><trkpt lat="45.176083542095256" lon="8.275678668240692"><ele>140.0</ele><time>2026-03-28T13:44:40.053Z</time></trkpt><trkpt lat="45.17614255159775" lon="8.27553762738757"><ele>140.0</ele><time>2026-03-28T13:44:41.053Z</time></trkpt><trkpt lat="45.17621069548463" lon="8.275371410410457"><ele>140.0</ele><time>2026-03-28T13:44:42.053Z</time></trkpt><trkpt lat="45.17628088316256" lon="8.275195722230658"><ele>140.66666666666666</ele><time>2026-03-28T13:44:43.053Z</time></trkpt><trkpt lat="45.17635711868754" lon="8.275010093653508"><ele>141.33333333333334</ele><time>2026-03-28T13:44:44.053Z</time></trkpt><trkpt lat="45.17643604293228" lon="8.274820821050062"><ele>142.0</ele><time>2026-03-28T13:44:45.053Z</time></trkpt><trkpt lat="45.17651388226627" lon="8.274617691124854"><ele>139.0</ele><time>2026-03-28T13:44:46.053Z</time></trkpt><trkpt lat="45.17659396280324" lon="8.274404255592593"><ele>136.0</ele><time>2026-03-28T13:44:47.053Z</time></trkpt><trkpt lat="45.17668328385975" lon="8.274183784232438"><ele>133.0</ele><time>2026-03-28T13:44:48.053Z</time></trkpt><trkpt lat="45.17677314201113" lon="8.273967769154412"><ele>134.33333333333334</ele><time>2026-03-28T13:44:49.054Z</time></trkpt><trkpt lat="45.17685973951273" lon="8.273755661564898"><ele>135.66666666666666</ele><time>2026-03-28T13:44:50.054Z</time></trkpt><trkpt lat="45.17695095557526" lon="8.27353296611792"><ele>137.0</ele><time>2026-03-28T13:44:51.054Z</time></trkpt><trkpt lat="45.177044614145125" lon="8.273313196464564"><ele>139.66666666666666</ele><time>2026-03-28T13:44:52.054Z</time></trkpt><trkpt lat="45.17713796191651" lon="8.273091149817922"><ele>142.33333333333334</ele><time>2026-03-28T13:44:53.054Z</time></trkpt><trkpt lat="45.17723015890502" lon="8.272860907464969"><ele>145.0</ele><time>2026-03-28T13:44:54.054Z</time></trkpt><trkpt lat="45.177329291010004" lon="8.272653064149264"><ele>144.33333333333334</ele><time>2026-03-28T13:44:55.054Z</time></trkpt><trkpt lat="45.17742769422126" lon="8.272453915829038"><ele>143.66666666666666</ele><time>2026-03-28T13:44:56.054Z</time></trkpt><trkpt lat="45.17752666145746" lon="8.272263993862165"><ele>143.0</ele><time>2026-03-28T13:44:57.054Z</time></trkpt><trkpt lat="45.17761388626404" lon="8.272085462881838"><ele>143.0</ele><time>2026-03-28T13:44:58.054Z</time></trkpt><trkpt lat="45.177707420819296" lon="8.271908450139412"><ele>143.0</ele><time>2026-03-28T13:44:59.054Z</time></trkpt><trkpt lat="45.1778083502984" lon="8.271724919940588"><ele>143.0</ele><time>2026-03-28T13:45:00.054Z</time></trkpt><trkpt lat="45.177898747448666" lon="8.27153937974445"><ele>146.33333333333331</ele><time>2026-03-28T13:45:01.054Z</time></trkpt><trkpt lat="45.17799089988252" lon="8.271350519928285"><ele>149.66666666666666</ele><time>2026-03-28T13:45:02.054Z</time></trkpt><trkpt lat="45.17807181946421" lon="8.271145006956584"><ele>153.0</ele><time>2026-03-28T13:45:03.054Z</time></trkpt><trkpt lat="45.1781471733876" lon="8.270929448912748"><ele>149.33333333333334</ele><time>2026-03-28T13:45:04.054Z</time></trkpt><trkpt lat="45.17821324161067" lon="8.270720339235172"><ele>145.66666666666669</ele><time>2026-03-28T13:45:05.054Z</time></trkpt><trkpt lat="45.17825584612989" lon="8.270505907480503"><ele>142.0</ele><time>2026-03-28T13:45:06.054Z</time></trkpt><trkpt lat="45.17827493120181" lon="8.270285498117312"><ele>142.0</ele><time>2026-03-28T13:45:07.054Z</time></trkpt><trkpt lat="45.17828534263187" lon="8.27006587193573"><ele>142.0</ele><time>2026-03-28T13:45:08.054Z</time></trkpt><trkpt lat="45.17828146445505" lon="8.269849947749227"><ele>142.0</ele><time>2026-03-28T13:45:09.054Z</time></trkpt><trkpt lat="45.17827603450473" lon="8.269630190260921"><ele>142.75</ele><time>2026-03-28T13:45:10.054Z</time></trkpt><trkpt lat="45.178269075911984" lon="8.269414538472176"><ele>143.5</ele><time>2026-03-28T13:45:11.054Z</time></trkpt><trkpt lat="45.17827853627073" lon="8.269200461506221"><ele>144.25</ele><time>2026-03-28T13:45:12.054Z</time></trkpt><trkpt lat="45.17830185290325" lon="8.268996898652457"><ele>145.0</ele><time>2026-03-28T13:45:13.054Z</time></trkpt><trkpt lat="45.17833271392413" lon="8.2688137199007"><ele>145.5</ele><time>2026-03-28T13:45:14.054Z</time></trkpt><trkpt lat="45.17835704365927" lon="8.268648057589239"><ele>146.0</ele><time>2026-03-28T13:45:15.054Z</time></trkpt><trkpt lat="45.17838090613822" lon="8.268495242446534"><ele>146.5</ele><time>2026-03-28T13:45:16.054Z</time></trkpt><trkpt lat="45.17839392224012" lon="8.268338577339982"><ele>147.0</ele><time>2026-03-28T13:45:17.054Z</time></trkpt><trkpt lat="45.178383697118655" lon="8.26818291081005"><ele>147.6</ele><time>2026-03-28T13:45:18.054Z</time></trkpt><trkpt lat="45.178351542353774" lon="8.268033021475357"><ele>148.2</ele><time>2026-03-28T13:45:19.054Z</time></trkpt><trkpt lat="45.17829285777029" lon="8.267918851795606"><ele>148.8</ele><time>2026-03-28T13:45:20.054Z</time></trkpt><trkpt lat="45.178221455379024" lon="8.267828960960005"><ele>149.4</ele><time>2026-03-28T13:45:21.054Z</time></trkpt><trkpt lat="45.17813398441129" lon="8.26775658607473"><ele>150.0</ele><time>2026-03-28T13:45:22.055Z</time></trkpt><trkpt lat="45.17803306034576" lon="8.267728516944466"><ele>155.0</ele><time>2026-03-28T13:45:23.055Z</time></trkpt><trkpt lat="45.17792719939699" lon="8.26774766575712"><ele>160.0</ele><time>2026-03-28T13:45:24.055Z</time></trkpt><trkpt lat="45.177824107507206" lon="8.267811040721577"><ele>165.0</ele><time>2026-03-28T13:45:25.055Z</time></trkpt><trkpt lat="45.17772861751623" lon="8.26792712063122"><ele>170.0</ele><time>2026-03-28T13:45:26.055Z</time></trkpt><trkpt lat="45.177657550912905" lon="8.26808041416958"><ele>169.5</ele><time>2026-03-28T13:45:27.055Z</time></trkpt><trkpt lat="45.17759897416405" lon="8.268264091852288"><ele>169.0</ele><time>2026-03-28T13:45:28.055Z</time></trkpt><trkpt lat="45.17753893099709" lon="8.268457068909656"><ele>168.5</ele><time>2026-03-28T13:45:29.055Z</time></trkpt><trkpt lat="45.17746362564709" lon="8.26864462870178"><ele>168.0</ele><time>2026-03-28T13:45:30.055Z</time></trkpt><trkpt lat="45.177383632127096" lon="8.268826684366028"><ele>171.33333333333334</ele><time>2026-03-28T13:45:31.055Z</time></trkpt><trkpt lat="45.17730354079359" lon="8.269014045989879"><ele>174.66666666666669</ele><time>2026-03-28T13:45:32.055Z</time></trkpt><trkpt lat="45.177236819089075" lon="8.269214851642952"><ele>178.0</ele><time>2026-03-28T13:45:33.055Z</time></trkpt><trkpt lat="45.17720804111252" lon="8.269424195405568"><ele>178.0</ele><time>2026-03-28T13:45:34.055Z</time></trkpt><trkpt lat="45.17719493707794" lon="8.2696317173575"><ele>178.0</ele><time>2026-03-28T13:45:35.055Z</time></trkpt><trkpt lat="45.177178856282076" lon="8.269824071753954"><ele>178.0</ele><time>2026-03-28T13:45:36.055Z</time></trkpt><trkpt lat="45.177171201888505" lon="8.269994011426796"><ele>178.0</ele><time>2026-03-28T13:45:37.053Z</time></trkpt><trkpt lat="45.17714773228412" lon="8.270138152292686"><ele>177.4</ele><time>2026-03-28T13:45:38.053Z</time></trkpt><trkpt lat="45.17710481545384" lon="8.270259613930936"><ele>176.8</ele><time>2026-03-28T13:45:39.053Z</time></trkpt><trkpt lat="45.17703671650137" lon="8.270364355753005"><ele>176.2</ele><time>2026-03-28T13:45:40.053Z</time></trkpt><trkpt lat="45.17694700016771" lon="8.270423727041438"><ele>175.6</ele><time>2026-03-28T13:45:41.053Z</time></trkpt><trkpt lat="45.17684602954632" lon="8.27043414122278"><ele>175.0</ele><time>2026-03-28T13:45:42.053Z</time></trkpt><trkpt lat="45.17674266565899" lon="8.270411305115868"><ele>175.0</ele><time>2026-03-28T13:45:43.053Z</time></trkpt><trkpt lat="45.17665394830273" lon="8.270355240561464"><ele>175.0</ele><time>2026-03-28T13:45:44.053Z</time></trkpt><trkpt lat="45.17657582599845" lon="8.270270989852184"><ele>175.0</ele><time>2026-03-28T13:45:45.053Z</time></trkpt><trkpt lat="45.17651460831504" lon="8.2701538996534"><ele>175.0</ele><time>2026-03-28T13:45:46.053Z</time></trkpt><trkpt lat="45.176469027825824" lon="8.270017518032823"><ele>175.0</ele><time>2026-03-28T13:45:47.053Z</time></trkpt><trkpt lat="45.17643095478424" lon="8.269868882547014"><ele>176.25</ele><time>2026-03-28T13:45:48.053Z</time></trkpt><trkpt lat="45.176391851060565" lon="8.26970692458543"><ele>177.5</ele><time>2026-03-28T13:45:49.053Z</time></trkpt><trkpt lat="45.176351274392076" lon="8.269545719918444"><ele>178.75</ele><time>2026-03-28T13:45:50.053Z</time></trkpt><trkpt lat="45.17630890393675" lon="8.269377662175227"><ele>180.0</ele><time>2026-03-28T13:45:51.053Z</time></trkpt><trkpt lat="45.176262325184645" lon="8.269204574620083"><ele>180.0</ele><time>2026-03-28T13:45:52.053Z</time></trkpt><trkpt lat="45.17621317127517" lon="8.269029774408606"><ele>180.0</ele><time>2026-03-28T13:45:53.053Z</time></trkpt><trkpt lat="45.17616653598833" lon="8.26885072288395"><ele>180.0</ele><time>2026-03-28T13:45:54.053Z</time></trkpt><trkpt lat="45.17612558051225" lon="8.26866785452676"><ele>180.0</ele><time>2026-03-28T13:45:55.053Z</time></trkpt><trkpt lat="45.17609806232549" lon="8.268481660776494"><ele>181.25</ele><time>2026-03-28T13:45:56.053Z</time></trkpt><trkpt lat="45.176089085974645" lon="8.268284492114802"><ele>182.5</ele><time>2026-03-28T13:45:57.053Z</time></trkpt><trkpt lat="45.17609153282929" lon="8.26808463659633"><ele>183.75</ele><time>2026-03-28T13:45:58.053Z</time></trkpt><trkpt lat="45.1761097807764" lon="8.26788776176626"><ele>185.0</ele><time>2026-03-28T13:45:59.053Z</time></trkpt><trkpt lat="45.17612791555161" lon="8.267702420944923"><ele>187.75</ele><time>2026-03-28T13:46:00.053Z</time></trkpt><trkpt lat="45.17613865348622" lon="8.267522728197763"><ele>190.5</ele><time>2026-03-28T13:46:01.053Z</time></trkpt><trkpt lat="45.17614087406525" lon="8.267354088714608"><ele>193.25</ele><time>2026-03-28T13:46:02.053Z</time></trkpt><trkpt lat="45.176122575924296" lon="8.267190004978168"><ele>196.0</ele><time>2026-03-28T13:46:03.053Z</time></trkpt><trkpt lat="45.176085025734565" lon="8.267029445264296"><ele>197.4</ele><time>2026-03-28T13:46:04.053Z</time></trkpt><trkpt lat="45.176033673577464" lon="8.266882004603769"><ele>198.8</ele><time>2026-03-28T13:46:05.053Z</time></trkpt><trkpt lat="45.17597553522836" lon="8.26674846145393"><ele>200.20000000000002</ele><time>2026-03-28T13:46:06.053Z</time></trkpt><trkpt lat="45.175918454914296" lon="8.266618869397488"><ele>201.60000000000002</ele><time>2026-03-28T13:46:07.053Z</time></trkpt><trkpt lat="45.175866796658624" lon="8.266486561540802"><ele>203.0</ele><time>2026-03-28T13:46:08.053Z</time></trkpt><trkpt lat="45.1758226438279" lon="8.266348363130321"><ele>204.2</ele><time>2026-03-28T13:46:09.053Z</time></trkpt><trkpt lat="45.175777582704875" lon="8.266208695599138"><ele>205.4</ele><time>2026-03-28T13:46:10.053Z</time></trkpt><trkpt lat="45.17572702407774" lon="8.26607132498139"><ele>206.6</ele><time>2026-03-28T13:46:11.053Z</time></trkpt><trkpt lat="45.17567607381324" lon="8.265937493001012"><ele>207.79999999999998</ele><time>2026-03-28T13:46:12.053Z</time></trkpt><trkpt lat="45.17562122688581" lon="8.265811185334366"><ele>209.0</ele><time>2026-03-28T13:46:13.053Z</time></trkpt><trkpt lat="45.175565691935105" lon="8.265720061006316"><ele>211.6</ele><time>2026-03-28T13:46:14.053Z</time></trkpt><trkpt lat="45.17551521474142" lon="8.265650254828579"><ele>214.2</ele><time>2026-03-28T13:46:15.053Z</time></trkpt><trkpt lat="45.175428780985996" lon="8.265533646059657"><ele>216.79999999999998</ele><time>2026-03-28T13:46:17.053Z</time></trkpt><trkpt lat="45.17539297879501" lon="8.265367456218975"><ele>219.39999999999998</ele><time>2026-03-28T13:46:19.053Z</time></trkpt><trkpt lat="45.1754120653977" lon="8.265259277562995"><ele>222.0</ele><time>2026-03-28T13:46:20.053Z</time></trkpt><trkpt lat="45.175430047544936" lon="8.26514044839684"><ele>221.83333333333334</ele><time>2026-03-28T13:46:21.053Z</time></trkpt><trkpt lat="45.17542771271134" lon="8.265014683940379"><ele>221.66666666666669</ele><time>2026-03-28T13:46:22.053Z</time></trkpt><trkpt lat="45.17538838416875" lon="8.264897606428526"><ele>221.5</ele><time>2026-03-28T13:46:23.054Z</time></trkpt><trkpt lat="45.17532694625742" lon="8.264814205342718"><ele>221.33333333333334</ele><time>2026-03-28T13:46:24.054Z</time></trkpt><trkpt lat="45.175246358157025" lon="8.264779024031306"><ele>221.16666666666669</ele><time>2026-03-28T13:46:25.054Z</time></trkpt><trkpt lat="45.1751628951193" lon="8.264785667220972"><ele>221.0</ele><time>2026-03-28T13:46:26.054Z</time></trkpt><trkpt lat="45.17507903415026" lon="8.264828722570835"><ele>222.0</ele><time>2026-03-28T13:46:27.054Z</time></trkpt><trkpt lat="45.17499600179855" lon="8.264911500384686"><ele>223.0</ele><time>2026-03-28T13:46:28.054Z</time></trkpt><trkpt lat="45.17491290093783" lon="8.265029550704275"><ele>224.0</ele><time>2026-03-28T13:46:29.054Z</time></trkpt><trkpt lat="45.174815860013744" lon="8.265173811978189"><ele>225.0</ele><time>2026-03-28T13:46:30.054Z</time></trkpt><trkpt lat="45.17471152532325" lon="8.265321099146378"><ele>228.33333333333331</ele><time>2026-03-28T13:46:31.054Z</time></trkpt><trkpt lat="45.174601512239505" lon="8.265485446349162"><ele>231.66666666666666</ele><time>2026-03-28T13:46:32.054Z</time></trkpt><trkpt lat="45.174499482141236" lon="8.265643376051841"><ele>235.0</ele><time>2026-03-28T13:46:33.054Z</time></trkpt><trkpt lat="45.17438829107255" lon="8.265812349549844"><ele>235.0</ele><time>2026-03-28T13:46:34.054Z</time></trkpt><trkpt lat="45.17427125278907" lon="8.265980323448165"><ele>235.0</ele><time>2026-03-28T13:46:35.054Z</time></trkpt><trkpt lat="45.17415785626107" lon="8.266126209697198"><ele>235.0</ele><time>2026-03-28T13:46:36.054Z</time></trkpt><trkpt lat="45.17406088343077" lon="8.26624508218782"><ele>235.0</ele><time>2026-03-28T13:46:37.054Z</time></trkpt><trkpt lat="45.173982473041754" lon="8.266333829830112"><ele>237.66666666666666</ele><time>2026-03-28T13:46:38.054Z</time></trkpt><trkpt lat="45.17391066523063" lon="8.266391283698463"><ele>240.33333333333331</ele><time>2026-03-28T13:46:39.054Z</time></trkpt><trkpt lat="45.17384067679956" lon="8.26641681440351"><ele>243.0</ele><time>2026-03-28T13:46:40.054Z</time></trkpt><trkpt lat="45.17377781429283" lon="8.266402526703155"><ele>245.66666666666669</ele><time>2026-03-28T13:46:41.054Z</time></trkpt><trkpt lat="45.17371050480395" lon="8.266247827553483"><ele>248.33333333333334</ele><time>2026-03-28T13:46:43.054Z</time></trkpt><trkpt lat="45.173725447316386" lon="8.266136672588797"><ele>251.0</ele><time>2026-03-28T13:46:44.054Z</time></trkpt><trkpt lat="45.173767335898354" lon="8.266002257508866"><ele>251.0</ele><time>2026-03-28T13:46:45.054Z</time></trkpt><trkpt lat="45.173816063434515" lon="8.265854492700505"><ele>251.0</ele><time>2026-03-28T13:46:46.054Z</time></trkpt><trkpt lat="45.17385936677615" lon="8.265696387168973"><ele>251.0</ele><time>2026-03-28T13:46:47.054Z</time></trkpt><trkpt lat="45.173900608513556" lon="8.265537366848422"><ele>251.0</ele><time>2026-03-28T13:46:48.054Z</time></trkpt><trkpt lat="45.17392381975472" lon="8.265386847360924"><ele>251.0</ele><time>2026-03-28T13:46:49.054Z</time></trkpt><trkpt lat="45.1739180352571" lon="8.265256571481482"><ele>251.00000000000003</ele><time>2026-03-28T13:46:50.054Z</time></trkpt><trkpt lat="45.173881298240886" lon="8.265158170636631"><ele>251.00000000000003</ele><time>2026-03-28T13:46:51.054Z</time></trkpt><trkpt lat="45.173817661896926" lon="8.265082006081474"><ele>251.0</ele><time>2026-03-28T13:46:52.054Z</time></trkpt><trkpt lat="45.17372781781364" lon="8.265036525856159"><ele>251.0</ele><time>2026-03-28T13:46:53.054Z</time></trkpt><trkpt lat="45.17361884782875" lon="8.265024263429284"><ele>251.0</ele><time>2026-03-28T13:46:54.054Z</time></trkpt><trkpt lat="45.17349635035733" lon="8.265020632438835"><ele>251.0</ele><time>2026-03-28T13:46:55.054Z</time></trkpt><trkpt lat="45.17336250279497" lon="8.265014174840575"><ele>251.0</ele><time>2026-03-28T13:46:56.055Z</time></trkpt><trkpt lat="45.17321766301296" lon="8.26500750535576"><ele>251.0</ele><time>2026-03-28T13:46:57.055Z</time></trkpt><trkpt lat="45.17307033267658" lon="8.265002674917797"><ele>253.5</ele><time>2026-03-28T13:46:58.055Z</time></trkpt><trkpt lat="45.17293008622091" lon="8.265005844399603"><ele>256.0</ele><time>2026-03-28T13:46:59.055Z</time></trkpt><trkpt lat="45.17278433630376" lon="8.265011422739565"><ele>258.5</ele><time>2026-03-28T13:47:00.055Z</time></trkpt><trkpt lat="45.17265172410835" lon="8.265014352956701"><ele>261.0</ele><time>2026-03-28T13:47:01.055Z</time></trkpt><trkpt lat="45.17253580379328" lon="8.26501274094313"><ele>261.0</ele><time>2026-03-28T13:47:02.055Z</time></trkpt><trkpt lat="45.17244003286407" lon="8.264997317115087"><ele>261.0</ele><time>2026-03-28T13:47:03.055Z</time></trkpt><trkpt lat="45.17236184909445" lon="8.264964678401407"><ele>261.0</ele><time>2026-03-28T13:47:04.055Z</time></trkpt><trkpt lat="45.172293295581355" lon="8.264939411567662"><ele>261.0</ele><time>2026-03-28T13:47:05.055Z</time></trkpt><trkpt lat="45.17222638470609" lon="8.264918412486374"><ele>261.0</ele><time>2026-03-28T13:47:06.055Z</time></trkpt><trkpt lat="45.172162121527734" lon="8.26490979695135"><ele>261.0</ele><time>2026-03-28T13:47:07.055Z</time></trkpt><trkpt lat="45.17202796919681" lon="8.264926164515488"><ele>261.2857142857143</ele><time>2026-03-28T13:47:09.055Z</time></trkpt><trkpt lat="45.17196156157124" lon="8.26495833584806"><ele>261.57142857142856</ele><time>2026-03-28T13:47:10.055Z</time></trkpt><trkpt lat="45.1718942720059" lon="8.264982300762343"><ele>261.85714285714283</ele><time>2026-03-28T13:47:11.055Z</time></trkpt><trkpt lat="45.17182397158463" lon="8.265002776244254"><ele>262.1428571428571</ele><time>2026-03-28T13:47:12.055Z</time></trkpt><trkpt lat="45.17175341551795" lon="8.265043823463474"><ele>262.4285714285714</ele><time>2026-03-28T13:47:13.055Z</time></trkpt><trkpt lat="45.17169281060142" lon="8.265082359017452"><ele>262.7142857142857</ele><time>2026-03-28T13:47:14.055Z</time></trkpt><trkpt lat="45.17161592264426" lon="8.265113051278213"><ele>263.0</ele><time>2026-03-28T13:47:15.055Z</time></trkpt><trkpt lat="45.17152886954724" lon="8.265095026299598"><ele>263.2</ele><time>2026-03-28T13:47:16.055Z</time></trkpt><trkpt lat="45.17143942452698" lon="8.265086384441501"><ele>263.4</ele><time>2026-03-28T13:47:17.055Z</time></trkpt><trkpt lat="45.17133787342353" lon="8.265068021276491"><ele>263.59999999999997</ele><time>2026-03-28T13:47:18.055Z</time></trkpt><trkpt lat="45.171237355627476" lon="8.265064941035607"><ele>263.8</ele><time>2026-03-28T13:47:19.055Z</time></trkpt><trkpt lat="45.171133032872675" lon="8.26508064018614"><ele>264.0</ele><time>2026-03-28T13:47:20.055Z</time></trkpt><trkpt lat="45.171034889849224" lon="8.265086156552012"><ele>264.0</ele><time>2026-03-28T13:47:21.055Z</time></trkpt><trkpt lat="45.1709560331984" lon="8.265079696072823"><ele>264.0</ele><time>2026-03-28T13:47:22.055Z</time></trkpt><trkpt lat="45.17088333239211" lon="8.265061947373587"><ele>264.0</ele><time>2026-03-28T13:47:23.055Z</time></trkpt><trkpt lat="45.17080610349558" lon="8.265038766110047"><ele>264.0</ele><time>2026-03-28T13:47:24.055Z</time></trkpt><trkpt lat="45.17072331130109" lon="8.265016504710832"><ele>264.0</ele><time>2026-03-28T13:47:25.055Z</time></trkpt><trkpt lat="45.170647313634845" lon="8.264974422985327"><ele>264.0</ele><time>2026-03-28T13:47:26.055Z</time></trkpt><trkpt lat="45.17058307541624" lon="8.264928111905439"><ele>264.6666666666667</ele><time>2026-03-28T13:47:27.055Z</time></trkpt><trkpt lat="45.17051995698547" lon="8.264886583671084"><ele>265.3333333333333</ele><time>2026-03-28T13:47:28.055Z</time></trkpt><trkpt lat="45.17045843226356" lon="8.264830867540926"><ele>266.0</ele><time>2026-03-28T13:47:29.056Z</time></trkpt><trkpt lat="45.170407681121915" lon="8.264768545376272"><ele>266.66666666666663</ele><time>2026-03-28T13:47:30.056Z</time></trkpt><trkpt lat="45.17032083085594" lon="8.264658528692904"><ele>267.3333333333333</ele><time>2026-03-28T13:47:32.056Z</time></trkpt><trkpt lat="45.1702154570344" lon="8.264577165573419"><ele>268.0</ele><time>2026-03-28T13:47:34.056Z</time></trkpt><trkpt lat="45.17010379505417" lon="8.26453902699654"><ele>268.3333333333333</ele><time>2026-03-28T13:47:36.056Z</time></trkpt><trkpt lat="45.17003390144378" lon="8.264498635072407"><ele>268.66666666666663</ele><time>2026-03-28T13:47:37.056Z</time></trkpt><trkpt lat="45.169971835911475" lon="8.264446277319475"><ele>269.0</ele><time>2026-03-28T13:47:38.056Z</time></trkpt><trkpt lat="45.16989650527703" lon="8.264337115257742"><ele>269.3333333333333</ele><time>2026-03-28T13:47:39.056Z</time></trkpt><trkpt lat="45.169835968878964" lon="8.26422922639968"><ele>269.6666666666667</ele><time>2026-03-28T13:47:40.056Z</time></trkpt><trkpt lat="45.169767732240196" lon="8.264135982743694"><ele>270.0</ele><time>2026-03-28T13:47:41.056Z</time></trkpt><trkpt lat="45.169695786978444" lon="8.264054420544788"><ele>270.0</ele><time>2026-03-28T13:47:42.056Z</time></trkpt><trkpt lat="45.16962011596348" lon="8.26398648221648"><ele>270.0</ele><time>2026-03-28T13:47:43.055Z</time></trkpt><trkpt lat="45.169535207074134" lon="8.263934253215169"><ele>270.0</ele><time>2026-03-28T13:47:44.055Z</time></trkpt><trkpt lat="45.16944579273126" lon="8.263889020538333"><ele>270.0</ele><time>2026-03-28T13:47:45.055Z</time></trkpt><trkpt lat="45.16935317675963" lon="8.263849223249927"><ele>270.0</ele><time>2026-03-28T13:47:46.055Z</time></trkpt><trkpt lat="45.169245492980274" lon="8.263817104298072"><ele>270.0</ele><time>2026-03-28T13:47:47.055Z</time></trkpt><trkpt lat="45.169143525199985" lon="8.263755535903243"><ele>270.0</ele><time>2026-03-28T13:47:48.055Z</time></trkpt><trkpt lat="45.169038988741626" lon="8.263684610740425"><ele>270.0</ele><time>2026-03-28T13:47:49.055Z</time></trkpt><trkpt lat="45.16894065440796" lon="8.263602979766869"><ele>270.0</ele><time>2026-03-28T13:47:50.055Z</time></trkpt><trkpt lat="45.168833801389745" lon="8.263518644189007"><ele>271.25</ele><time>2026-03-28T13:47:51.055Z</time></trkpt><trkpt lat="45.16872373009384" lon="8.263432957565215"><ele>272.5</ele><time>2026-03-28T13:47:52.055Z</time></trkpt><trkpt lat="45.16861175234136" lon="8.263350698776799"><ele>273.75</ele><time>2026-03-28T13:47:53.055Z</time></trkpt><trkpt lat="45.16850062694674" lon="8.26327586487212"><ele>275.0</ele><time>2026-03-28T13:47:54.055Z</time></trkpt><trkpt lat="45.1683946622346" lon="8.263206604405019"><ele>275.0</ele><time>2026-03-28T13:47:55.055Z</time></trkpt><trkpt lat="45.16829066587065" lon="8.263140336235734"><ele>275.0</ele><time>2026-03-28T13:47:56.055Z</time></trkpt><trkpt lat="45.16818682904708" lon="8.263073587784582"><ele>275.0</ele><time>2026-03-28T13:47:57.055Z</time></trkpt><trkpt lat="45.168085751900705" lon="8.26299745124549"><ele>275.0</ele><time>2026-03-28T13:47:58.055Z</time></trkpt><trkpt lat="45.16798475052936" lon="8.262929541920224"><ele>276.2</ele><time>2026-03-28T13:47:59.055Z</time></trkpt><trkpt lat="45.167891415032514" lon="8.26287835195416"><ele>277.4</ele><time>2026-03-28T13:48:00.055Z</time></trkpt><trkpt lat="45.16780550248342" lon="8.262833203414864"><ele>278.6</ele><time>2026-03-28T13:48:01.055Z</time></trkpt><trkpt lat="45.16771596533442" lon="8.26277311725969"><ele>279.8</ele><time>2026-03-28T13:48:02.055Z</time></trkpt><trkpt lat="45.16761725972561" lon="8.262702089639541"><ele>281.0</ele><time>2026-03-28T13:48:03.055Z</time></trkpt><trkpt lat="45.167510367532564" lon="8.262628610414017"><ele>281.0</ele><time>2026-03-28T13:48:04.055Z</time></trkpt><trkpt lat="45.167400052662245" lon="8.262552928165153"><ele>281.0</ele><time>2026-03-28T13:48:05.055Z</time></trkpt><trkpt lat="45.16729151365553" lon="8.262467739777113"><ele>281.0</ele><time>2026-03-28T13:48:06.055Z</time></trkpt><trkpt lat="45.16718415056054" lon="8.262387300049673"><ele>281.0</ele><time>2026-03-28T13:48:07.055Z</time></trkpt><trkpt lat="45.16708200633215" lon="8.262323218421258"><ele>278.40000000000003</ele><time>2026-03-28T13:48:08.055Z</time></trkpt><trkpt lat="45.16698816759989" lon="8.262273138872848"><ele>275.8</ele><time>2026-03-28T13:48:09.055Z</time></trkpt><trkpt lat="45.16689262592144" lon="8.262250585733558"><ele>273.20000000000005</ele><time>2026-03-28T13:48:10.055Z</time></trkpt><trkpt lat="45.166788396933256" lon="8.262244764478092"><ele>270.6</ele><time>2026-03-28T13:48:11.055Z</time></trkpt><trkpt lat="45.166689256546775" lon="8.26226066489405"><ele>268.0</ele><time>2026-03-28T13:48:12.055Z</time></trkpt><trkpt lat="45.166585726244776" lon="8.262280896673944"><ele>270.6</ele><time>2026-03-28T13:48:13.055Z</time></trkpt><trkpt lat="45.166481123815245" lon="8.262311002405548"><ele>273.20000000000005</ele><time>2026-03-28T13:48:14.055Z</time></trkpt><trkpt lat="45.1663701826064" lon="8.262354917614728"><ele>275.8</ele><time>2026-03-28T13:48:15.055Z</time></trkpt><trkpt lat="45.16626552971431" lon="8.262411100002184"><ele>278.40000000000003</ele><time>2026-03-28T13:48:16.055Z</time></trkpt><trkpt lat="45.166172311603816" lon="8.262499247645527"><ele>281.0</ele><time>2026-03-28T13:48:17.055Z</time></trkpt><trkpt lat="45.16609824832461" lon="8.262592216234717"><ele>281.0</ele><time>2026-03-28T13:48:18.055Z</time></trkpt><trkpt lat="45.1660571107063" lon="8.262674685055265"><ele>281.0</ele><time>2026-03-28T13:48:19.055Z</time></trkpt><trkpt lat="45.16602469878508" lon="8.262834719252787"><ele>281.0</ele><time>2026-03-28T13:48:21.055Z</time></trkpt><trkpt lat="45.16601620898367" lon="8.262926888953444"><ele>281.0</ele><time>2026-03-28T13:48:22.055Z</time></trkpt><trkpt lat="45.16599353321344" lon="8.263069331119386"><ele>281.0</ele><time>2026-03-28T13:48:24.055Z</time></trkpt><trkpt lat="45.16591852800901" lon="8.263151482112649"><ele>282.75</ele><time>2026-03-28T13:48:26.055Z</time></trkpt><trkpt lat="45.165829276723834" lon="8.26315197256581"><ele>284.5</ele><time>2026-03-28T13:48:27.055Z</time></trkpt><trkpt lat="45.16571757321807" lon="8.26312183639119"><ele>286.25</ele><time>2026-03-28T13:48:28.055Z</time></trkpt><trkpt lat="45.165588347740204" lon="8.263083240991108"><ele>288.0</ele><time>2026-03-28T13:48:29.055Z</time></trkpt><trkpt lat="45.1654639143086" lon="8.263037275261135"><ele>288.0</ele><time>2026-03-28T13:48:30.056Z</time></trkpt><trkpt lat="45.165325673231315" lon="8.26298997187411"><ele>288.0</ele><time>2026-03-28T13:48:31.056Z</time></trkpt><trkpt lat="45.16519215594687" lon="8.2629591203444"><ele>288.0</ele><time>2026-03-28T13:48:32.056Z</time></trkpt><trkpt lat="45.16507962715611" lon="8.262937425940311"><ele>288.0</ele><time>2026-03-28T13:48:33.056Z</time></trkpt><trkpt lat="45.16497096942395" lon="8.262907517896945"><ele>295.0</ele><time>2026-03-28T13:48:34.056Z</time></trkpt><trkpt lat="45.1648556514686" lon="8.262874794891818"><ele>302.0</ele><time>2026-03-28T13:48:35.056Z</time></trkpt><trkpt lat="45.164740029653395" lon="8.262850725750017"><ele>309.0</ele><time>2026-03-28T13:48:36.056Z</time></trkpt><trkpt lat="45.16464717267432" lon="8.262801495416117"><ele>316.0</ele><time>2026-03-28T13:48:37.056Z</time></trkpt><trkpt lat="45.164591581002206" lon="8.26271052317558"><ele>323.0</ele><time>2026-03-28T13:48:38.056Z</time></trkpt><trkpt lat="45.16455008956569" lon="8.262586547757673"><ele>323.0</ele><time>2026-03-28T13:48:39.056Z</time></trkpt><trkpt lat="45.16452194501573" lon="8.262438620658111"><ele>323.0</ele><time>2026-03-28T13:48:40.056Z</time></trkpt><trkpt lat="45.16448224239414" lon="8.262276139644708"><ele>323.0</ele><time>2026-03-28T13:48:41.056Z</time></trkpt><trkpt lat="45.16442341290279" lon="8.262125132864641"><ele>323.0</ele><time>2026-03-28T13:48:42.056Z</time></trkpt><trkpt lat="45.16433620784128" lon="8.262004238405062"><ele>326.25</ele><time>2026-03-28T13:48:43.056Z</time></trkpt><trkpt lat="45.16422686264332" lon="8.261925270937143"><ele>329.5</ele><time>2026-03-28T13:48:44.056Z</time></trkpt><trkpt lat="45.164126768017226" lon="8.261866849790797"><ele>332.75</ele><time>2026-03-28T13:48:45.056Z</time></trkpt><trkpt lat="45.164030718066" lon="8.261781050697662"><ele>336.0</ele><time>2026-03-28T13:48:46.056Z</time></trkpt><trkpt lat="45.163960987032674" lon="8.261650286957245"><ele>336.0</ele><time>2026-03-28T13:48:47.056Z</time></trkpt><trkpt lat="45.16389778440676" lon="8.261474157292207"><ele>336.0</ele><time>2026-03-28T13:48:48.056Z</time></trkpt><trkpt lat="45.16384600691507" lon="8.261283065361182"><ele>336.0</ele><time>2026-03-28T13:48:49.056Z</time></trkpt><trkpt lat="45.163801400798015" lon="8.261079735445998"><ele>336.0</ele><time>2026-03-28T13:48:50.056Z</time></trkpt><trkpt lat="45.163763609863125" lon="8.260877973646078"><ele>334.0</ele><time>2026-03-28T13:48:51.056Z</time></trkpt><trkpt lat="45.163725990200334" lon="8.260660604184714"><ele>332.0</ele><time>2026-03-28T13:48:52.056Z</time></trkpt><trkpt lat="45.16369287401568" lon="8.260436221433515"><ele>330.0</ele><time>2026-03-28T13:48:53.056Z</time></trkpt><trkpt lat="45.163665803891554" lon="8.260229362299077"><ele>329.5</ele><time>2026-03-28T13:48:54.056Z</time></trkpt><trkpt lat="45.16364237088728" lon="8.260039268096648"><ele>329.0</ele><time>2026-03-28T13:48:55.056Z</time></trkpt><trkpt lat="45.16361020009834" lon="8.259867435849861"><ele>328.5</ele><time>2026-03-28T13:48:56.056Z</time></trkpt><trkpt lat="45.16356600511845" lon="8.259723770617477"><ele>328.0</ele><time>2026-03-28T13:48:57.056Z</time></trkpt><trkpt lat="45.16350989612874" lon="8.259604637423376"><ele>327.2</ele><time>2026-03-28T13:48:58.056Z</time></trkpt><trkpt lat="45.163427280597475" lon="8.259514786062905"><ele>326.4</ele><time>2026-03-28T13:48:59.056Z</time></trkpt><trkpt lat="45.16332218251061" lon="8.259438616421695"><ele>325.59999999999997</ele><time>2026-03-28T13:49:00.056Z</time></trkpt><trkpt lat="45.16320757948836" lon="8.259383692144118"><ele>324.79999999999995</ele><time>2026-03-28T13:49:01.056Z</time></trkpt><trkpt lat="45.163109470954716" lon="8.2593437242654"><ele>324.0</ele><time>2026-03-28T13:49:02.056Z</time></trkpt><trkpt lat="45.16302276475929" lon="8.259307338771805"><ele>322.8</ele><time>2026-03-28T13:49:03.057Z</time></trkpt><trkpt lat="45.16294543881061" lon="8.259275483508324"><ele>321.59999999999997</ele><time>2026-03-28T13:49:04.057Z</time></trkpt><trkpt lat="45.162852956398154" lon="8.259227024448396"><ele>320.4</ele><time>2026-03-28T13:49:06.057Z</time></trkpt><trkpt lat="45.16274955160881" lon="8.25914307143845"><ele>319.2</ele><time>2026-03-28T13:49:08.057Z</time></trkpt><trkpt lat="45.16268030817047" lon="8.259048394191076"><ele>318.0</ele><time>2026-03-28T13:49:09.057Z</time></trkpt><trkpt lat="45.16259689079484" lon="8.258956024129443"><ele>317.0</ele><time>2026-03-28T13:49:10.057Z</time></trkpt><trkpt lat="45.1625001424026" lon="8.258883079811964"><ele>316.0</ele><time>2026-03-28T13:49:11.057Z</time></trkpt><trkpt lat="45.1623877002734" lon="8.258823031508346"><ele>315.0</ele><time>2026-03-28T13:49:12.057Z</time></trkpt><trkpt lat="45.162289196469494" lon="8.258756593370578"><ele>314.0</ele><time>2026-03-28T13:49:13.057Z</time></trkpt><trkpt lat="45.16218324478782" lon="8.258661769289246"><ele>314.0</ele><time>2026-03-28T13:49:14.057Z</time></trkpt><trkpt lat="45.16209449209664" lon="8.258525221341422"><ele>314.0</ele><time>2026-03-28T13:49:15.057Z</time></trkpt><trkpt lat="45.16202072067875" lon="8.258363581000928"><ele>314.0</ele><time>2026-03-28T13:49:16.057Z</time></trkpt><trkpt lat="45.16195234822035" lon="8.258202291384116"><ele>314.0</ele><time>2026-03-28T13:49:17.057Z</time></trkpt><trkpt lat="45.161887633884945" lon="8.258068094777027"><ele>315.6</ele><time>2026-03-28T13:49:18.057Z</time></trkpt><trkpt lat="45.16183316267647" lon="8.25794706695662"><ele>317.2</ele><time>2026-03-28T13:49:19.057Z</time></trkpt><trkpt lat="45.16180679017477" lon="8.257826601330422"><ele>318.8</ele><time>2026-03-28T13:49:20.057Z</time></trkpt><trkpt lat="45.16181970840919" lon="8.257687489166216"><ele>320.40000000000003</ele><time>2026-03-28T13:49:21.057Z</time></trkpt><trkpt lat="45.161860770950916" lon="8.257569124902522"><ele>322.0</ele><time>2026-03-28T13:49:22.057Z</time></trkpt><trkpt lat="45.16193216009456" lon="8.257455437017926"><ele>322.0</ele><time>2026-03-28T13:49:23.057Z</time></trkpt><trkpt lat="45.162016945261875" lon="8.25733364036598"><ele>322.0</ele><time>2026-03-28T13:49:24.057Z</time></trkpt><trkpt lat="45.1620860106965" lon="8.25718742477301"><ele>322.0</ele><time>2026-03-28T13:49:25.057Z</time></trkpt><trkpt lat="45.162143712905305" lon="8.257028347823177"><ele>322.0</ele><time>2026-03-28T13:49:26.057Z</time></trkpt><trkpt lat="45.16217824062001" lon="8.256884731166295"><ele>323.5</ele><time>2026-03-28T13:49:27.057Z</time></trkpt><trkpt lat="45.16217769558536" lon="8.256742414291978"><ele>325.0</ele><time>2026-03-28T13:49:28.057Z</time></trkpt><trkpt lat="45.16214869684956" lon="8.25660475622502"><ele>326.5</ele><time>2026-03-28T13:49:29.057Z</time></trkpt><trkpt lat="45.162081914023595" lon="8.256466570853274"><ele>328.0</ele><time>2026-03-28T13:49:30.057Z</time></trkpt><trkpt lat="45.161983467156304" lon="8.256322842712837"><ele>329.0</ele><time>2026-03-28T13:49:31.057Z</time></trkpt><trkpt lat="45.16187152791527" lon="8.256184908434092"><ele>330.0</ele><time>2026-03-28T13:49:32.057Z</time></trkpt><trkpt lat="45.16175650234748" lon="8.256040433122708"><ele>331.0</ele><time>2026-03-28T13:49:33.057Z</time></trkpt><trkpt lat="45.1616440623287" lon="8.255879544436224"><ele>331.0</ele><time>2026-03-28T13:49:34.057Z</time></trkpt><trkpt lat="45.16153699358782" lon="8.255702210084337"><ele>331.0</ele><time>2026-03-28T13:49:35.057Z</time></trkpt><trkpt lat="45.16142213085903" lon="8.255509917123447"><ele>331.0</ele><time>2026-03-28T13:49:36.058Z</time></trkpt><trkpt lat="45.161313367179375" lon="8.255304648567439"><ele>329.3333333333333</ele><time>2026-03-28T13:49:37.058Z</time></trkpt><trkpt lat="45.16120872459863" lon="8.25511477691398"><ele>327.6666666666667</ele><time>2026-03-28T13:49:38.058Z</time></trkpt><trkpt lat="45.16110497317817" lon="8.254942710647832"><ele>326.0</ele><time>2026-03-28T13:49:39.058Z</time></trkpt><trkpt lat="45.161016827886336" lon="8.254791889813372"><ele>327.0</ele><time>2026-03-28T13:49:40.058Z</time></trkpt><trkpt lat="45.16095364993383" lon="8.254639391633113"><ele>328.0</ele><time>2026-03-28T13:49:41.058Z</time></trkpt><trkpt lat="45.16092944397008" lon="8.254481456347541"><ele>329.0</ele><time>2026-03-28T13:49:42.058Z</time></trkpt><trkpt lat="45.160938899095925" lon="8.254310619731918"><ele>330.0</ele><time>2026-03-28T13:49:43.058Z</time></trkpt><trkpt lat="45.1609544786661" lon="8.254128281993891"><ele>329.5</ele><time>2026-03-28T13:49:44.058Z</time></trkpt><trkpt lat="45.1609475119876" lon="8.25393589879025"><ele>329.0</ele><time>2026-03-28T13:49:45.058Z</time></trkpt><trkpt lat="45.16092516687279" lon="8.25375064920006"><ele>328.5</ele><time>2026-03-28T13:49:46.058Z</time></trkpt><trkpt lat="45.16091418127243" lon="8.253562621539805"><ele>328.0</ele><time>2026-03-28T13:49:47.058Z</time></trkpt><trkpt lat="45.16093941416919" lon="8.253393215122506"><ele>328.0</ele><time>2026-03-28T13:49:48.058Z</time></trkpt><trkpt lat="45.160998415003945" lon="8.2532465222686"><ele>328.0</ele><time>2026-03-28T13:49:49.056Z</time></trkpt><trkpt lat="45.16107955706655" lon="8.253122614648163"><ele>328.0</ele><time>2026-03-28T13:49:50.057Z</time></trkpt><trkpt lat="45.161164783080324" lon="8.25298658807533"><ele>328.0</ele><time>2026-03-28T13:49:51.057Z</time></trkpt><trkpt lat="45.16122746503609" lon="8.252811976159062"><ele>324.0</ele><time>2026-03-28T13:49:52.057Z</time></trkpt><trkpt lat="45.16126709990167" lon="8.252612433146897"><ele>320.0</ele><time>2026-03-28T13:49:53.056Z</time></trkpt><trkpt lat="45.161291684346246" lon="8.252390164564963"><ele>316.0</ele><time>2026-03-28T13:49:54.056Z</time></trkpt><trkpt lat="45.1612955617031" lon="8.252152068433436"><ele>312.3333333333333</ele><time>2026-03-28T13:49:55.057Z</time></trkpt><trkpt lat="45.161281145680206" lon="8.25190697916839"><ele>308.6666666666667</ele><time>2026-03-28T13:49:56.056Z</time></trkpt><trkpt lat="45.16125832168569" lon="8.25165396114673"><ele>305.0</ele><time>2026-03-28T13:49:57.056Z</time></trkpt><trkpt lat="45.161237477746496" lon="8.251394056513467"><ele>304.33333333333337</ele><time>2026-03-28T13:49:58.057Z</time></trkpt><trkpt lat="45.161224183216646" lon="8.251133730438221"><ele>303.6666666666667</ele><time>2026-03-28T13:49:59.057Z</time></trkpt><trkpt lat="45.161213963963355" lon="8.250870105796334"><ele>303.0</ele><time>2026-03-28T13:50:00.057Z</time></trkpt><trkpt lat="45.161197012677015" lon="8.25060663150173"><ele>303.0</ele><time>2026-03-28T13:50:01.057Z</time></trkpt><trkpt lat="45.16116073650825" lon="8.250353859574428"><ele>303.0</ele><time>2026-03-28T13:50:02.057Z</time></trkpt><trkpt lat="45.16110498017953" lon="8.25010791799416"><ele>303.0</ele><time>2026-03-28T13:50:03.057Z</time></trkpt><trkpt lat="45.16103289687119" lon="8.249870500804805"><ele>303.3333333333333</ele><time>2026-03-28T13:50:04.057Z</time></trkpt><trkpt lat="45.16095764019012" lon="8.249638841870478"><ele>303.66666666666663</ele><time>2026-03-28T13:50:05.057Z</time></trkpt><trkpt lat="45.16088172795376" lon="8.249411324936089"><ele>304.0</ele><time>2026-03-28T13:50:06.057Z</time></trkpt><trkpt lat="45.160809705403906" lon="8.249194585166146"><ele>304.0</ele><time>2026-03-28T13:50:07.057Z</time></trkpt><trkpt lat="45.160732027262306" lon="8.248989147673532"><ele>304.0</ele><time>2026-03-28T13:50:08.057Z</time></trkpt><trkpt lat="45.16065146218947" lon="8.248797609640981"><ele>304.0</ele><time>2026-03-28T13:50:09.057Z</time></trkpt><trkpt lat="45.16057632156424" lon="8.248622283004673"><ele>303.2</ele><time>2026-03-28T13:50:10.057Z</time></trkpt><trkpt lat="45.16051225853465" lon="8.24847116756255"><ele>302.4</ele><time>2026-03-28T13:50:11.057Z</time></trkpt><trkpt lat="45.16046447218949" lon="8.248326787074397"><ele>301.6</ele><time>2026-03-28T13:50:12.057Z</time></trkpt><trkpt lat="45.160439372091325" lon="8.248193713979704"><ele>300.8</ele><time>2026-03-28T13:50:13.057Z</time></trkpt><trkpt lat="45.1604414557883" lon="8.248062235967952"><ele>300.0</ele><time>2026-03-28T13:50:14.057Z</time></trkpt><trkpt lat="45.16047476317306" lon="8.247934780272116"><ele>298.5</ele><time>2026-03-28T13:50:15.057Z</time></trkpt><trkpt lat="45.16053151563761" lon="8.247804574799577"><ele>297.0</ele><time>2026-03-28T13:50:16.057Z</time></trkpt><trkpt lat="45.16059680442316" lon="8.247666738349558"><ele>295.5</ele><time>2026-03-28T13:50:17.057Z</time></trkpt><trkpt lat="45.16065182275884" lon="8.247511501500043"><ele>294.0</ele><time>2026-03-28T13:50:18.057Z</time></trkpt><trkpt lat="45.16068728100767" lon="8.247336359964628"><ele>294.75</ele><time>2026-03-28T13:50:19.057Z</time></trkpt><trkpt lat="45.16068407091477" lon="8.247146933456923"><ele>295.5</ele><time>2026-03-28T13:50:20.057Z</time></trkpt><trkpt lat="45.160657581355935" lon="8.246957421178074"><ele>296.25</ele><time>2026-03-28T13:50:21.057Z</time></trkpt><trkpt lat="45.16062042815664" lon="8.2467710003786"><ele>297.0</ele><time>2026-03-28T13:50:22.057Z</time></trkpt><trkpt lat="45.16058305022202" lon="8.246600103488202"><ele>299.75</ele><time>2026-03-28T13:50:23.057Z</time></trkpt><trkpt lat="45.160527697000575" lon="8.246449983017394"><ele>302.5</ele><time>2026-03-28T13:50:24.057Z</time></trkpt><trkpt lat="45.16045269819661" lon="8.246328171573966"><ele>305.25</ele><time>2026-03-28T13:50:25.057Z</time></trkpt><trkpt lat="45.160361809308704" lon="8.246229968631043"><ele>308.0</ele><time>2026-03-28T13:50:26.057Z</time></trkpt><trkpt lat="45.16025338467926" lon="8.246150970567285"><ele>308.0</ele><time>2026-03-28T13:50:27.058Z</time></trkpt><trkpt lat="45.16014032388263" lon="8.246072061891626"><ele>308.0</ele><time>2026-03-28T13:50:28.058Z</time></trkpt><trkpt lat="45.1600311068691" lon="8.245987292265605"><ele>308.0</ele><time>2026-03-28T13:50:29.058Z</time></trkpt><trkpt lat="45.159928756171645" lon="8.245912880429403"><ele>308.0</ele><time>2026-03-28T13:50:30.058Z</time></trkpt><trkpt lat="45.159828303424284" lon="8.245853406823851"><ele>307.5</ele><time>2026-03-28T13:50:31.058Z</time></trkpt><trkpt lat="45.159713994041255" lon="8.245820135499157"><ele>307.0</ele><time>2026-03-28T13:50:32.058Z</time></trkpt><trkpt lat="45.15959566170367" lon="8.245809718808268"><ele>306.5</ele><time>2026-03-28T13:50:33.058Z</time></trkpt><trkpt lat="45.159483682728165" lon="8.245824800289242"><ele>306.0</ele><time>2026-03-28T13:50:34.058Z</time></trkpt><trkpt lat="45.15938018906584" lon="8.245864594638679"><ele>306.0</ele><time>2026-03-28T13:50:35.058Z</time></trkpt><trkpt lat="45.159291189293256" lon="8.245921723371387"><ele>306.0</ele><time>2026-03-28T13:50:36.058Z</time></trkpt><trkpt lat="45.15922546632785" lon="8.24597498102147"><ele>306.0</ele><time>2026-03-28T13:50:37.058Z</time></trkpt><trkpt lat="45.15913778175587" lon="8.246035294187974"><ele>306.0</ele><time>2026-03-28T13:50:39.058Z</time></trkpt><trkpt lat="45.15907940974542" lon="8.245983903876443"><ele>306.0</ele><time>2026-03-28T13:50:41.058Z</time></trkpt><trkpt lat="45.159030316394194" lon="8.245911915539278"><ele>306.0</ele><time>2026-03-28T13:50:42.058Z</time></trkpt><trkpt lat="45.15898295752285" lon="8.2458173584023"><ele>303.8</ele><time>2026-03-28T13:50:43.058Z</time></trkpt><trkpt lat="45.15895589396763" lon="8.245704925585969"><ele>301.6</ele><time>2026-03-28T13:50:44.058Z</time></trkpt><trkpt lat="45.15895382835396" lon="8.245552705876118"><ele>299.4</ele><time>2026-03-28T13:50:45.058Z</time></trkpt><trkpt lat="45.15896880996996" lon="8.24539357016773"><ele>297.2</ele><time>2026-03-28T13:50:46.058Z</time></trkpt><trkpt lat="45.158982309397494" lon="8.245231683054444"><ele>295.0</ele><time>2026-03-28T13:50:47.058Z</time></trkpt><trkpt lat="45.15899392518725" lon="8.245056217904716"><ele>295.0</ele><time>2026-03-28T13:50:48.058Z</time></trkpt><trkpt lat="45.15899976585473" lon="8.244870852715675"><ele>295.0</ele><time>2026-03-28T13:50:49.058Z</time></trkpt><trkpt lat="45.158997533676704" lon="8.244705175250203"><ele>295.0</ele><time>2026-03-28T13:50:50.058Z</time></trkpt><trkpt lat="45.1589784890468" lon="8.244543747465476"><ele>295.0</ele><time>2026-03-28T13:50:51.058Z</time></trkpt><trkpt lat="45.15892894353424" lon="8.244401428786015"><ele>298.5</ele><time>2026-03-28T13:50:52.058Z</time></trkpt><trkpt lat="45.15885149942871" lon="8.244280990813225"><ele>302.0</ele><time>2026-03-28T13:50:53.058Z</time></trkpt><trkpt lat="45.15874565085555" lon="8.244166631614753"><ele>305.5</ele><time>2026-03-28T13:50:54.058Z</time></trkpt><trkpt lat="45.158629650199444" lon="8.244053458366524"><ele>309.0</ele><time>2026-03-28T13:50:55.058Z</time></trkpt><trkpt lat="45.15851257904687" lon="8.243932009189772"><ele>309.25</ele><time>2026-03-28T13:50:56.058Z</time></trkpt><trkpt lat="45.158394827155156" lon="8.243807894656172"><ele>309.5</ele><time>2026-03-28T13:50:57.058Z</time></trkpt><trkpt lat="45.15827979733786" lon="8.243679752970287"><ele>309.75</ele><time>2026-03-28T13:50:58.058Z</time></trkpt><trkpt lat="45.15815705708646" lon="8.243560588222646"><ele>310.0</ele><time>2026-03-28T13:50:59.058Z</time></trkpt><trkpt lat="45.15804107673751" lon="8.243433180839654"><ele>310.0</ele><time>2026-03-28T13:51:00.058Z</time></trkpt><trkpt lat="45.157934852784514" lon="8.243290817713715"><ele>310.0</ele><time>2026-03-28T13:51:01.059Z</time></trkpt><trkpt lat="45.15784272864705" lon="8.243140351018493"><ele>310.0</ele><time>2026-03-28T13:51:02.059Z</time></trkpt><trkpt lat="45.157742402639855" lon="8.242975029011328"><ele>310.0</ele><time>2026-03-28T13:51:03.059Z</time></trkpt><trkpt lat="45.1576465224526" lon="8.242801389960578"><ele>313.0</ele><time>2026-03-28T13:51:04.059Z</time></trkpt><trkpt lat="45.15755337332806" lon="8.242623494001517"><ele>316.0</ele><time>2026-03-28T13:51:05.059Z</time></trkpt><trkpt lat="45.157465806245646" lon="8.242445580515536"><ele>319.0</ele><time>2026-03-28T13:51:06.059Z</time></trkpt><trkpt lat="45.15737288185835" lon="8.2422766641307"><ele>320.5</ele><time>2026-03-28T13:51:07.059Z</time></trkpt><trkpt lat="45.15727516390703" lon="8.242133094563185"><ele>322.0</ele><time>2026-03-28T13:51:08.059Z</time></trkpt><trkpt lat="45.1571636201296" lon="8.242009058150096"><ele>323.5</ele><time>2026-03-28T13:51:09.059Z</time></trkpt><trkpt lat="45.15704103300797" lon="8.241898369176216"><ele>325.0</ele><time>2026-03-28T13:51:10.059Z</time></trkpt><trkpt lat="45.15690728251713" lon="8.241801679484904"><ele>325.0</ele><time>2026-03-28T13:51:11.059Z</time></trkpt><trkpt lat="45.15676703047178" lon="8.241712384184348"><ele>325.0</ele><time>2026-03-28T13:51:12.059Z</time></trkpt><trkpt lat="45.15662445831227" lon="8.241628442227972"><ele>325.0</ele><time>2026-03-28T13:51:13.059Z</time></trkpt><trkpt lat="45.15648118072705" lon="8.241544162387763"><ele>323.66666666666663</ele><time>2026-03-28T13:51:14.059Z</time></trkpt><trkpt lat="45.156328279766235" lon="8.24147640790768"><ele>322.3333333333333</ele><time>2026-03-28T13:51:15.059Z</time></trkpt><trkpt lat="45.156171436495136" lon="8.241435078255599"><ele>321.0</ele><time>2026-03-28T13:51:16.059Z</time></trkpt><trkpt lat="45.15601198486908" lon="8.241422921104334"><ele>322.75</ele><time>2026-03-28T13:51:17.059Z</time></trkpt><trkpt lat="45.15585563783953" lon="8.241433667850654"><ele>324.5</ele><time>2026-03-28T13:51:18.059Z</time></trkpt><trkpt lat="45.15571439986603" lon="8.241444812031752"><ele>326.25</ele><time>2026-03-28T13:51:19.059Z</time></trkpt><trkpt lat="45.15558840174054" lon="8.24144385994906"><ele>328.0</ele><time>2026-03-28T13:51:20.059Z</time></trkpt><trkpt lat="45.1554702155591" lon="8.241412592913642"><ele>328.0</ele><time>2026-03-28T13:51:21.059Z</time></trkpt><trkpt lat="45.1553566373872" lon="8.241337065183371"><ele>328.0</ele><time>2026-03-28T13:51:22.059Z</time></trkpt><trkpt lat="45.15525433276473" lon="8.241224860730435"><ele>328.0</ele><time>2026-03-28T13:51:23.059Z</time></trkpt><trkpt lat="45.15516185480784" lon="8.241088293798434"><ele>328.0</ele><time>2026-03-28T13:51:24.059Z</time></trkpt><trkpt lat="45.15507287760988" lon="8.24096817665441"><ele>328.0</ele><time>2026-03-28T13:51:25.059Z</time></trkpt><trkpt lat="45.15498205278333" lon="8.240883986459144"><ele>328.0</ele><time>2026-03-28T13:51:26.059Z</time></trkpt><trkpt lat="45.154885370951924" lon="8.24084371995731"><ele>328.0</ele><time>2026-03-28T13:51:27.059Z</time></trkpt><trkpt lat="45.1547907893095" lon="8.24085505218735"><ele>328.0</ele><time>2026-03-28T13:51:28.059Z</time></trkpt><trkpt lat="45.15469224816604" lon="8.240906969158766"><ele>328.0</ele><time>2026-03-28T13:51:29.059Z</time></trkpt><trkpt lat="45.15458242133381" lon="8.240978698011018"><ele>330.75</ele><time>2026-03-28T13:51:30.059Z</time></trkpt><trkpt lat="45.154455819410856" lon="8.24101011793761"><ele>333.5</ele><time>2026-03-28T13:51:31.059Z</time></trkpt><trkpt lat="45.154316365444075" lon="8.241009637701861"><ele>336.25</ele><time>2026-03-28T13:51:32.059Z</time></trkpt><trkpt lat="45.154196117795166" lon="8.240949098217127"><ele>339.0</ele><time>2026-03-28T13:51:33.059Z</time></trkpt><trkpt lat="45.1540876661631" lon="8.240851244895552"><ele>342.75</ele><time>2026-03-28T13:51:34.06Z</time></trkpt><trkpt lat="45.153967756013564" lon="8.24078731447207"><ele>346.5</ele><time>2026-03-28T13:51:35.06Z</time></trkpt><trkpt lat="45.15383785721407" lon="8.240777362190874"><ele>350.25</ele><time>2026-03-28T13:51:36.06Z</time></trkpt><trkpt lat="45.153707967525264" lon="8.240784650371147"><ele>354.0</ele><time>2026-03-28T13:51:37.06Z</time></trkpt><trkpt lat="45.153578964515326" lon="8.240749638321246"><ele>354.0</ele><time>2026-03-28T13:51:38.06Z</time></trkpt><trkpt lat="45.15346319324941" lon="8.2406437937278"><ele>354.0</ele><time>2026-03-28T13:51:39.06Z</time></trkpt><trkpt lat="45.15335937348143" lon="8.240510705136439"><ele>354.0</ele><time>2026-03-28T13:51:40.06Z</time></trkpt><trkpt lat="45.15324901579121" lon="8.240373007684374"><ele>354.0</ele><time>2026-03-28T13:51:41.06Z</time></trkpt><trkpt lat="45.15312112957536" lon="8.240266772811548"><ele>350.25</ele><time>2026-03-28T13:51:42.06Z</time></trkpt><trkpt lat="45.152994315961564" lon="8.240161992899468"><ele>346.5</ele><time>2026-03-28T13:51:43.06Z</time></trkpt><trkpt lat="45.15288326625139" lon="8.240037230632133"><ele>342.75</ele><time>2026-03-28T13:51:44.06Z</time></trkpt><trkpt lat="45.15279589751419" lon="8.23988470822719"><ele>339.0</ele><time>2026-03-28T13:51:45.06Z</time></trkpt><trkpt lat="45.15274373051606" lon="8.239713050210723"><ele>338.75</ele><time>2026-03-28T13:51:46.06Z</time></trkpt><trkpt lat="45.15270803337207" lon="8.239540899043893"><ele>338.5</ele><time>2026-03-28T13:51:47.06Z</time></trkpt><trkpt lat="45.15270739341715" lon="8.239351569590951"><ele>338.25</ele><time>2026-03-28T13:51:48.06Z</time></trkpt><trkpt lat="45.152736677685084" lon="8.239142055648095"><ele>338.0</ele><time>2026-03-28T13:51:49.06Z</time></trkpt><trkpt lat="45.15276944718535" lon="8.23891676338241"><ele>339.6666666666667</ele><time>2026-03-28T13:51:50.06Z</time></trkpt><trkpt lat="45.15279734428512" lon="8.238685160601563"><ele>341.3333333333333</ele><time>2026-03-28T13:51:51.06Z</time></trkpt><trkpt lat="45.1528391919438" lon="8.238450075297955"><ele>343.0</ele><time>2026-03-28T13:51:52.06Z</time></trkpt><trkpt lat="45.15290482324404" lon="8.238228635852426"><ele>348.3333333333333</ele><time>2026-03-28T13:51:53.06Z</time></trkpt><trkpt lat="45.152990350192304" lon="8.238032626670616"><ele>353.6666666666667</ele><time>2026-03-28T13:51:54.06Z</time></trkpt><trkpt lat="45.15306875896652" lon="8.237857760734265"><ele>359.0</ele><time>2026-03-28T13:51:55.059Z</time></trkpt><trkpt lat="45.15312270209122" lon="8.237671693495987"><ele>359.0</ele><time>2026-03-28T13:51:56.059Z</time></trkpt><trkpt lat="45.153157097531604" lon="8.237461719658306"><ele>359.0</ele><time>2026-03-28T13:51:57.059Z</time></trkpt><trkpt lat="45.153174665215424" lon="8.237245758200572"><ele>359.0</ele><time>2026-03-28T13:51:58.059Z</time></trkpt><trkpt lat="45.153166126249026" lon="8.237034127657331"><ele>357.5</ele><time>2026-03-28T13:51:59.059Z</time></trkpt><trkpt lat="45.15313501381072" lon="8.236845372769611"><ele>356.0</ele><time>2026-03-28T13:52:00.059Z</time></trkpt><trkpt lat="45.153105137107644" lon="8.236673299881446"><ele>354.5</ele><time>2026-03-28T13:52:01.059Z</time></trkpt><trkpt lat="45.15310067534607" lon="8.236511462391057"><ele>353.0</ele><time>2026-03-28T13:52:02.058Z</time></trkpt><trkpt lat="45.15314054119764" lon="8.236351817677194"><ele>351.0</ele><time>2026-03-28T13:52:03.058Z</time></trkpt><trkpt lat="45.15320902355206" lon="8.236181479716562"><ele>349.0</ele><time>2026-03-28T13:52:04.059Z</time></trkpt><trkpt lat="45.153304701789025" lon="8.235999587061896"><ele>347.0</ele><time>2026-03-28T13:52:05.058Z</time></trkpt><trkpt lat="45.1534013957492" lon="8.235800943674636"><ele>343.6666666666667</ele><time>2026-03-28T13:52:06.058Z</time></trkpt><trkpt lat="45.15350377430543" lon="8.235594182621353"><ele>340.3333333333333</ele><time>2026-03-28T13:52:07.059Z</time></trkpt><trkpt lat="45.15360462655927" lon="8.235385562597209"><ele>337.0</ele><time>2026-03-28T13:52:08.059Z</time></trkpt><trkpt lat="45.1537056712579" lon="8.235182129211342"><ele>337.0</ele><time>2026-03-28T13:52:09.059Z</time></trkpt><trkpt lat="45.153809736034866" lon="8.234997548973896"><ele>337.0</ele><time>2026-03-28T13:52:10.059Z</time></trkpt><trkpt lat="45.153914753236606" lon="8.23483981323616"><ele>337.0</ele><time>2026-03-28T13:52:11.059Z</time></trkpt><trkpt lat="45.15400542060192" lon="8.2346982885164"><ele>336.40000000000003</ele><time>2026-03-28T13:52:12.059Z</time></trkpt><trkpt lat="45.15407658293519" lon="8.234557584109295"><ele>335.8</ele><time>2026-03-28T13:52:13.059Z</time></trkpt><trkpt lat="45.15411101339637" lon="8.234418148748391"><ele>335.2</ele><time>2026-03-28T13:52:14.059Z</time></trkpt><trkpt lat="45.15411675775247" lon="8.234274930835968"><ele>334.6</ele><time>2026-03-28T13:52:15.059Z</time></trkpt><trkpt lat="45.15408471659114" lon="8.234132495419647"><ele>334.0</ele><time>2026-03-28T13:52:16.059Z</time></trkpt><trkpt lat="45.15401282059478" lon="8.23399398205799"><ele>336.0</ele><time>2026-03-28T13:52:17.059Z</time></trkpt><trkpt lat="45.1539260847353" lon="8.23385345366524"><ele>338.0</ele><time>2026-03-28T13:52:18.059Z</time></trkpt><trkpt lat="45.153834225890314" lon="8.233703278338355"><ele>340.0</ele><time>2026-03-28T13:52:19.059Z</time></trkpt><trkpt lat="45.15373862528015" lon="8.233553000569664"><ele>342.0</ele><time>2026-03-28T13:52:20.059Z</time></trkpt><trkpt lat="45.153649700868506" lon="8.233405094514458"><ele>342.0</ele><time>2026-03-28T13:52:21.059Z</time></trkpt><trkpt lat="45.15357013669533" lon="8.233255936749364"><ele>342.0</ele><time>2026-03-28T13:52:22.059Z</time></trkpt><trkpt lat="45.15348893890782" lon="8.233114916391465"><ele>342.0</ele><time>2026-03-28T13:52:23.06Z</time></trkpt><trkpt lat="45.153412434795186" lon="8.232981594523451"><ele>342.0</ele><time>2026-03-28T13:52:24.06Z</time></trkpt><trkpt lat="45.15335508618519" lon="8.232874198517017"><ele>341.8333333333333</ele><time>2026-03-28T13:52:25.06Z</time></trkpt><trkpt lat="45.153317434072136" lon="8.232777800211371"><ele>341.6666666666667</ele><time>2026-03-28T13:52:26.06Z</time></trkpt><trkpt lat="45.15328687090166" lon="8.232695571138345"><ele>341.5</ele><time>2026-03-28T13:52:27.06Z</time></trkpt><trkpt lat="45.15330146710601" lon="8.232586859729393"><ele>341.33333333333337</ele><time>2026-03-28T13:52:29.06Z</time></trkpt><trkpt lat="45.15342824161388" lon="8.232556439502565"><ele>341.1666666666667</ele><time>2026-03-28T13:52:31.06Z</time></trkpt><trkpt lat="45.15352337441136" lon="8.232564963393862"><ele>341.0</ele><time>2026-03-28T13:52:32.06Z</time></trkpt><trkpt lat="45.15362173944772" lon="8.23255676486617"><ele>341.0</ele><time>2026-03-28T13:52:33.06Z</time></trkpt><trkpt lat="45.153728434380575" lon="8.232540444230692"><ele>341.0</ele><time>2026-03-28T13:52:34.06Z</time></trkpt><trkpt lat="45.15383926872198" lon="8.232532438616664"><ele>341.0</ele><time>2026-03-28T13:52:35.06Z</time></trkpt><trkpt lat="45.15395887909025" lon="8.232530088929929"><ele>341.0</ele><time>2026-03-28T13:52:36.06Z</time></trkpt><trkpt lat="45.154083627959004" lon="8.232526914915004"><ele>342.25</ele><time>2026-03-28T13:52:37.06Z</time></trkpt><trkpt lat="45.15421983807724" lon="8.232520200556399"><ele>343.5</ele><time>2026-03-28T13:52:38.06Z</time></trkpt><trkpt lat="45.15436312614023" lon="8.232505049408186"><ele>344.75</ele><time>2026-03-28T13:52:39.06Z</time></trkpt><trkpt lat="45.15451201537682" lon="8.232504068036151"><ele>346.0</ele><time>2026-03-28T13:52:40.06Z</time></trkpt><trkpt lat="45.154655473094" lon="8.232444892253117"><ele>346.0</ele><time>2026-03-28T13:52:41.06Z</time></trkpt><trkpt lat="45.15480700063794" lon="8.232398639329196"><ele>346.0</ele><time>2026-03-28T13:52:42.06Z</time></trkpt><trkpt lat="45.1549536340638" lon="8.232353771112122"><ele>346.0</ele><time>2026-03-28T13:52:43.06Z</time></trkpt><trkpt lat="45.1550916976056" lon="8.232309756788789"><ele>346.0</ele><time>2026-03-28T13:52:44.06Z</time></trkpt><trkpt lat="45.155227638002195" lon="8.232272755777212"><ele>343.75</ele><time>2026-03-28T13:52:45.06Z</time></trkpt><trkpt lat="45.15535770132629" lon="8.232213236843386"><ele>341.5</ele><time>2026-03-28T13:52:46.06Z</time></trkpt><trkpt lat="45.15549172319045" lon="8.23213309342948"><ele>339.25</ele><time>2026-03-28T13:52:47.06Z</time></trkpt><trkpt lat="45.15561181663285" lon="8.23202196597373"><ele>337.0</ele><time>2026-03-28T13:52:48.06Z</time></trkpt><trkpt lat="45.15571563047956" lon="8.23188705163823"><ele>337.0</ele><time>2026-03-28T13:52:49.06Z</time></trkpt><trkpt lat="45.155806486732494" lon="8.23173173922829"><ele>337.0</ele><time>2026-03-28T13:52:50.06Z</time></trkpt><trkpt lat="45.15589673328173" lon="8.231552016382242"><ele>337.0</ele><time>2026-03-28T13:52:51.06Z</time></trkpt><trkpt lat="45.1559851306133" lon="8.2313668270391"><ele>333.0</ele><time>2026-03-28T13:52:52.06Z</time></trkpt><trkpt lat="45.15606289081088" lon="8.23117583629718"><ele>329.0</ele><time>2026-03-28T13:52:53.06Z</time></trkpt><trkpt lat="45.156130385761486" lon="8.230987669630181"><ele>325.0</ele><time>2026-03-28T13:52:54.06Z</time></trkpt><trkpt lat="45.15618471892598" lon="8.230798650285966"><ele>321.0</ele><time>2026-03-28T13:52:55.06Z</time></trkpt><trkpt lat="45.156217690049814" lon="8.230615430867385"><ele>319.75</ele><time>2026-03-28T13:52:56.06Z</time></trkpt><trkpt lat="45.15622348216053" lon="8.23043910387277"><ele>318.5</ele><time>2026-03-28T13:52:57.061Z</time></trkpt><trkpt lat="45.15622108135446" lon="8.230264765914592"><ele>317.25</ele><time>2026-03-28T13:52:58.061Z</time></trkpt><trkpt lat="45.156223093678584" lon="8.230077971440137"><ele>316.0</ele><time>2026-03-28T13:52:59.061Z</time></trkpt><trkpt lat="45.156228245519415" lon="8.229915783011677"><ele>315.66666666666663</ele><time>2026-03-28T13:53:00.061Z</time></trkpt><trkpt lat="45.1562545829709" lon="8.229792064199618"><ele>315.3333333333333</ele><time>2026-03-28T13:53:01.061Z</time></trkpt><trkpt lat="45.15630386472686" lon="8.22970299643169"><ele>315.0</ele><time>2026-03-28T13:53:02.061Z</time></trkpt><trkpt lat="45.15636999357933" lon="8.229649796047083"><ele>314.6666666666667</ele><time>2026-03-28T13:53:03.061Z</time></trkpt><trkpt lat="45.156453167495776" lon="8.229609824222955"><ele>314.33333333333337</ele><time>2026-03-28T13:53:04.061Z</time></trkpt><trkpt lat="45.15655626148375" lon="8.229590663246038"><ele>314.0</ele><time>2026-03-28T13:53:05.061Z</time></trkpt><trkpt lat="45.156669980318824" lon="8.229591481367391"><ele>316.2</ele><time>2026-03-28T13:53:06.061Z</time></trkpt><trkpt lat="45.156777252817974" lon="8.229568092783918"><ele>318.4</ele><time>2026-03-28T13:53:07.061Z</time></trkpt><trkpt lat="45.156883160666524" lon="8.229525702824729"><ele>320.6</ele><time>2026-03-28T13:53:08.061Z</time></trkpt><trkpt lat="45.15697822222256" lon="8.229496474395907"><ele>322.8</ele><time>2026-03-28T13:53:09.061Z</time></trkpt><trkpt lat="45.15706681852146" lon="8.229428513359862"><ele>325.0</ele><time>2026-03-28T13:53:10.061Z</time></trkpt><trkpt lat="45.15715446530317" lon="8.229377313529351"><ele>325.0</ele><time>2026-03-28T13:53:11.061Z</time></trkpt><trkpt lat="45.15724255472703" lon="8.229327518074713"><ele>325.0</ele><time>2026-03-28T13:53:12.061Z</time></trkpt><trkpt lat="45.1573198564104" lon="8.229273155357662"><ele>325.0</ele><time>2026-03-28T13:53:13.061Z</time></trkpt><trkpt lat="45.15739565569998" lon="8.229218395343988"><ele>325.0</ele><time>2026-03-28T13:53:14.061Z</time></trkpt><trkpt lat="45.1574697757439" lon="8.22916385904518"><ele>325.0</ele><time>2026-03-28T13:53:15.061Z</time></trkpt><trkpt lat="45.157535553769456" lon="8.22910582245088"><ele>325.0</ele><time>2026-03-28T13:53:16.061Z</time></trkpt><trkpt lat="45.1576016059719" lon="8.229041453648875"><ele>323.8</ele><time>2026-03-28T13:53:17.061Z</time></trkpt><trkpt lat="45.15767304368504" lon="8.22897583149442"><ele>322.6</ele><time>2026-03-28T13:53:18.061Z</time></trkpt><trkpt lat="45.15774192367946" lon="8.228901129310582"><ele>321.4</ele><time>2026-03-28T13:53:19.061Z</time></trkpt><trkpt lat="45.15781056332623" lon="8.228819671262025"><ele>320.2</ele><time>2026-03-28T13:53:20.061Z</time></trkpt><trkpt lat="45.15788298251844" lon="8.228735737663149"><ele>319.0</ele><time>2026-03-28T13:53:21.061Z</time></trkpt><trkpt lat="45.15795727200248" lon="8.228648095317991"><ele>319.0</ele><time>2026-03-28T13:53:22.061Z</time></trkpt><trkpt lat="45.15804530986092" lon="8.228574410599933"><ele>319.0</ele><time>2026-03-28T13:53:23.061Z</time></trkpt><trkpt lat="45.158139361643016" lon="8.228512286695326"><ele>319.0</ele><time>2026-03-28T13:53:24.061Z</time></trkpt><trkpt lat="45.15823053454765" lon="8.228451485999525"><ele>319.0</ele><time>2026-03-28T13:53:25.061Z</time></trkpt><trkpt lat="45.158315913608604" lon="8.22838960978661"><ele>319.0</ele><time>2026-03-28T13:53:26.061Z</time></trkpt><trkpt lat="45.158400324107824" lon="8.228325473812584"><ele>321.0</ele><time>2026-03-28T13:53:27.061Z</time></trkpt><trkpt lat="45.15848183440344" lon="8.228262562131818"><ele>323.0</ele><time>2026-03-28T13:53:28.061Z</time></trkpt><trkpt lat="45.15856650701545" lon="8.228198901714372"><ele>325.0</ele><time>2026-03-28T13:53:29.061Z</time></trkpt><trkpt lat="45.158648494414166" lon="8.22813090077582"><ele>327.0</ele><time>2026-03-28T13:53:30.062Z</time></trkpt><trkpt lat="45.158716099396116" lon="8.228048033034954"><ele>329.0</ele><time>2026-03-28T13:53:31.062Z</time></trkpt><trkpt lat="45.15877118682858" lon="8.227932951895285"><ele>329.0</ele><time>2026-03-28T13:53:32.062Z</time></trkpt><trkpt lat="45.158825749462906" lon="8.227818116405453"><ele>329.0</ele><time>2026-03-28T13:53:33.062Z</time></trkpt><trkpt lat="45.15887328625541" lon="8.227699392819074"><ele>329.0</ele><time>2026-03-28T13:53:34.062Z</time></trkpt><trkpt lat="45.15891011934697" lon="8.227581378756772"><ele>329.0</ele><time>2026-03-28T13:53:35.062Z</time></trkpt><trkpt lat="45.15894849807904" lon="8.227469055160434"><ele>329.0</ele><time>2026-03-28T13:53:36.062Z</time></trkpt><trkpt lat="45.15898160089833" lon="8.227352224169476"><ele>329.1666666666667</ele><time>2026-03-28T13:53:37.062Z</time></trkpt><trkpt lat="45.15902378204279" lon="8.227240425105489"><ele>329.33333333333337</ele><time>2026-03-28T13:53:38.062Z</time></trkpt><trkpt lat="45.15907057203565" lon="8.227142456852757"><ele>329.5</ele><time>2026-03-28T13:53:39.062Z</time></trkpt><trkpt lat="45.159114194664156" lon="8.227054492269312"><ele>329.6666666666667</ele><time>2026-03-28T13:53:40.062Z</time></trkpt><trkpt lat="45.15915695165944" lon="8.226971821285156"><ele>329.8333333333333</ele><time>2026-03-28T13:53:41.062Z</time></trkpt><trkpt lat="45.159203367842075" lon="8.226890203616955"><ele>330.0</ele><time>2026-03-28T13:53:42.062Z</time></trkpt><trkpt lat="45.159253864148766" lon="8.22681034990222"><ele>330.0</ele><time>2026-03-28T13:53:43.062Z</time></trkpt><trkpt lat="45.15930686972781" lon="8.226733188891158"><ele>330.0</ele><time>2026-03-28T13:53:44.062Z</time></trkpt><trkpt lat="45.1593546483548" lon="8.22665221644943"><ele>330.0</ele><time>2026-03-28T13:53:45.062Z</time></trkpt><trkpt lat="45.15940143654496" lon="8.226572991763415"><ele>330.0</ele><time>2026-03-28T13:53:46.062Z</time></trkpt><trkpt lat="45.15944074561553" lon="8.226484244428253"><ele>330.0</ele><time>2026-03-28T13:53:47.062Z</time></trkpt><trkpt lat="45.159485849943074" lon="8.226388637005464"><ele>330.0</ele><time>2026-03-28T13:53:48.062Z</time></trkpt><trkpt lat="45.159536809909405" lon="8.226289472564556"><ele>327.6</ele><time>2026-03-28T13:53:49.062Z</time></trkpt><trkpt lat="45.15958949189817" lon="8.226184753342514"><ele>325.2</ele><time>2026-03-28T13:53:50.062Z</time></trkpt><trkpt lat="45.159646030187645" lon="8.22607212240299"><ele>322.8</ele><time>2026-03-28T13:53:51.062Z</time></trkpt><trkpt lat="45.15969990949641" lon="8.225958029274937"><ele>320.4</ele><time>2026-03-28T13:53:52.062Z</time></trkpt><trkpt lat="45.15974667937453" lon="8.225833736389824"><ele>318.0</ele><time>2026-03-28T13:53:53.062Z</time></trkpt><trkpt lat="45.15979101546844" lon="8.225704383865297"><ele>319.8</ele><time>2026-03-28T13:53:54.062Z</time></trkpt><trkpt lat="45.15982293736212" lon="8.225562219455778"><ele>321.6</ele><time>2026-03-28T13:53:55.062Z</time></trkpt><trkpt lat="45.15986414040622" lon="8.225424779105214"><ele>323.40000000000003</ele><time>2026-03-28T13:53:56.062Z</time></trkpt><trkpt lat="45.159906541087345" lon="8.22528797591843"><ele>325.20000000000005</ele><time>2026-03-28T13:53:57.062Z</time></trkpt><trkpt lat="45.15994805300628" lon="8.225150439077318"><ele>327.0</ele><time>2026-03-28T13:53:58.062Z</time></trkpt><trkpt lat="45.159970845805354" lon="8.225007618592453"><ele>327.0</ele><time>2026-03-28T13:53:59.062Z</time></trkpt><trkpt lat="45.159982787841514" lon="8.224861700281219"><ele>327.0</ele><time>2026-03-28T13:54:00.062Z</time></trkpt><trkpt lat="45.15997882425048" lon="8.224714001299025"><ele>327.0</ele><time>2026-03-28T13:54:01.061Z</time></trkpt><trkpt lat="45.15996598337461" lon="8.224578161311273"><ele>327.0</ele><time>2026-03-28T13:54:02.061Z</time></trkpt><trkpt lat="45.15995199241548" lon="8.224441873689766"><ele>327.0</ele><time>2026-03-28T13:54:03.061Z</time></trkpt><trkpt lat="45.15993468279799" lon="8.224299949565212"><ele>326.6666666666667</ele><time>2026-03-28T13:54:04.061Z</time></trkpt><trkpt lat="45.159928329607595" lon="8.224163234894501"><ele>326.3333333333333</ele><time>2026-03-28T13:54:05.061Z</time></trkpt><trkpt lat="45.159940963934076" lon="8.22403442713695"><ele>326.0</ele><time>2026-03-28T13:54:06.061Z</time></trkpt><trkpt lat="45.15995455784677" lon="8.223919909395372"><ele>325.66666666666663</ele><time>2026-03-28T13:54:07.061Z</time></trkpt><trkpt lat="45.159973616663734" lon="8.223807860214947"><ele>325.3333333333333</ele><time>2026-03-28T13:54:08.06Z</time></trkpt><trkpt lat="45.15998497893618" lon="8.22369245827561"><ele>325.0</ele><time>2026-03-28T13:54:09.06Z</time></trkpt><trkpt lat="45.15998451310521" lon="8.22356093903578"><ele>325.0</ele><time>2026-03-28T13:54:10.061Z</time></trkpt><trkpt lat="45.15995100046289" lon="8.22343362701269"><ele>325.0</ele><time>2026-03-28T13:54:11.061Z</time></trkpt><trkpt lat="45.15989484918271" lon="8.223310345678701"><ele>325.0</ele><time>2026-03-28T13:54:12.061Z</time></trkpt><trkpt lat="45.15982800844481" lon="8.223175023818012"><ele>325.0</ele><time>2026-03-28T13:54:13.06Z</time></trkpt><trkpt lat="45.15975628362359" lon="8.223029083544954"><ele>325.0</ele><time>2026-03-28T13:54:14.061Z</time></trkpt><trkpt lat="45.159689218988746" lon="8.22288102548453"><ele>322.25</ele><time>2026-03-28T13:54:15.061Z</time></trkpt><trkpt lat="45.15962450694034" lon="8.222722247838874"><ele>319.5</ele><time>2026-03-28T13:54:16.061Z</time></trkpt><trkpt lat="45.159548475424614" lon="8.222558093350578"><ele>316.75</ele><time>2026-03-28T13:54:17.061Z</time></trkpt><trkpt lat="45.15947385677503" lon="8.222395924642408"><ele>314.0</ele><time>2026-03-28T13:54:18.061Z</time></trkpt><trkpt lat="45.15940308381551" lon="8.222239777379606"><ele>313.25</ele><time>2026-03-28T13:54:19.061Z</time></trkpt><trkpt lat="45.15933223255132" lon="8.222097196612753"><ele>312.5</ele><time>2026-03-28T13:54:20.061Z</time></trkpt><trkpt lat="45.1592683623195" lon="8.221955541788505"><ele>311.75</ele><time>2026-03-28T13:54:21.061Z</time></trkpt><trkpt lat="45.15923268530422" lon="8.221791386917953"><ele>311.0</ele><time>2026-03-28T13:54:22.061Z</time></trkpt><trkpt lat="45.15923192594471" lon="8.221634249894636"><ele>311.0</ele><time>2026-03-28T13:54:23.061Z</time></trkpt><trkpt lat="45.15923907497409" lon="8.221502120913192"><ele>311.0</ele><time>2026-03-28T13:54:24.061Z</time></trkpt><trkpt lat="45.15922382036786" lon="8.221361066072339"><ele>311.0</ele><time>2026-03-28T13:54:25.061Z</time></trkpt><trkpt lat="45.15919018059729" lon="8.2212210553657"><ele>311.0</ele><time>2026-03-28T13:54:26.061Z</time></trkpt><trkpt lat="45.159163375469255" lon="8.22108581158741"><ele>311.0</ele><time>2026-03-28T13:54:27.061Z</time></trkpt><trkpt lat="45.15914874520864" lon="8.220968565850683"><ele>311.0</ele><time>2026-03-28T13:54:28.061Z</time></trkpt><trkpt lat="45.15915067363677" lon="8.220851465960267"><ele>311.0</ele><time>2026-03-28T13:54:29.061Z</time></trkpt><trkpt lat="45.15917013058418" lon="8.220737104082183"><ele>311.0</ele><time>2026-03-28T13:54:30.061Z</time></trkpt><trkpt lat="45.15920840073268" lon="8.220641897392078"><ele>311.0</ele><time>2026-03-28T13:54:31.061Z</time></trkpt><trkpt lat="45.159250415843815" lon="8.220552917455125"><ele>311.0</ele><time>2026-03-28T13:54:32.061Z</time></trkpt><trkpt lat="45.159299696866306" lon="8.220454651613748"><ele>311.0</ele><time>2026-03-28T13:54:33.061Z</time></trkpt><trkpt lat="45.15935720612313" lon="8.220358759438614"><ele>311.0</ele><time>2026-03-28T13:54:34.061Z</time></trkpt><trkpt lat="45.15943800397414" lon="8.220263910558407"><ele>311.0</ele><time>2026-03-28T13:54:35.061Z</time></trkpt><trkpt lat="45.15951353442793" lon="8.220165957382454"><ele>311.0</ele><time>2026-03-28T13:54:36.061Z</time></trkpt><trkpt lat="45.15958355015637" lon="8.220069514430877"><ele>311.0</ele><time>2026-03-28T13:54:37.061Z</time></trkpt><trkpt lat="45.1596415943626" lon="8.219980395040034"><ele>311.0</ele><time>2026-03-28T13:54:38.061Z</time></trkpt><trkpt lat="45.1596805241889" lon="8.219890388810704"><ele>311.6</ele><time>2026-03-28T13:54:39.061Z</time></trkpt><trkpt lat="45.159711928263256" lon="8.219785815768166"><ele>312.20000000000005</ele><time>2026-03-28T13:54:40.061Z</time></trkpt><trkpt lat="45.15973816888151" lon="8.2196663565192"><ele>312.79999999999995</ele><time>2026-03-28T13:54:41.061Z</time></trkpt><trkpt lat="45.15974565904708" lon="8.219534106972104"><ele>313.4</ele><time>2026-03-28T13:54:42.061Z</time></trkpt><trkpt lat="45.15974245048919" lon="8.219392640770497"><ele>314.0</ele><time>2026-03-28T13:54:43.061Z</time></trkpt><trkpt lat="45.159741857217185" lon="8.21923927374501"><ele>314.0</ele><time>2026-03-28T13:54:44.061Z</time></trkpt><trkpt lat="45.15974453867119" lon="8.219097800108301"><ele>314.0</ele><time>2026-03-28T13:54:45.061Z</time></trkpt><trkpt lat="45.15974533478904" lon="8.218954058134951"><ele>314.0</ele><time>2026-03-28T13:54:46.061Z</time></trkpt><trkpt lat="45.1597379196079" lon="8.218807701385458"><ele>314.0</ele><time>2026-03-28T13:54:47.062Z</time></trkpt><trkpt lat="45.159722239030046" lon="8.218666093835889"><ele>314.0</ele><time>2026-03-28T13:54:48.062Z</time></trkpt><trkpt lat="45.159695597915665" lon="8.218528157339327"><ele>314.8</ele><time>2026-03-28T13:54:49.062Z</time></trkpt><trkpt lat="45.159656623696115" lon="8.218399050831623"><ele>315.59999999999997</ele><time>2026-03-28T13:54:50.062Z</time></trkpt><trkpt lat="45.15961025535514" lon="8.2182793478855"><ele>316.4</ele><time>2026-03-28T13:54:51.062Z</time></trkpt><trkpt lat="45.15955921974794" lon="8.218161758707938"><ele>317.2</ele><time>2026-03-28T13:54:52.062Z</time></trkpt><trkpt lat="45.15951938185684" lon="8.218039831813087"><ele>318.0</ele><time>2026-03-28T13:54:53.062Z</time></trkpt><trkpt lat="45.15947405620847" lon="8.217934655082589"><ele>318.0</ele><time>2026-03-28T13:54:54.062Z</time></trkpt><trkpt lat="45.159415585225574" lon="8.217850129399766"><ele>318.0</ele><time>2026-03-28T13:54:55.062Z</time></trkpt><trkpt lat="45.159333693163" lon="8.217795937676529"><ele>318.0</ele><time>2026-03-28T13:54:56.062Z</time></trkpt><trkpt lat="45.159235222219884" lon="8.217769682342961"><ele>318.0</ele><time>2026-03-28T13:54:57.062Z</time></trkpt><trkpt lat="45.15911605562189" lon="8.217753980129094"><ele>318.0</ele><time>2026-03-28T13:54:58.062Z</time></trkpt><trkpt lat="45.15899712332047" lon="8.217722643863054"><ele>319.0</ele><time>2026-03-28T13:54:59.062Z</time></trkpt><trkpt lat="45.15888818291272" lon="8.217669525090159"><ele>320.0</ele><time>2026-03-28T13:55:00.062Z</time></trkpt><trkpt lat="45.158778207226526" lon="8.217613453297542"><ele>321.0</ele><time>2026-03-28T13:55:01.062Z</time></trkpt><trkpt lat="45.15867316125302" lon="8.217574068094784"><ele>322.0</ele><time>2026-03-28T13:55:02.062Z</time></trkpt><trkpt lat="45.15856935112414" lon="8.217543449464547"><ele>323.0</ele><time>2026-03-28T13:55:03.062Z</time></trkpt><trkpt lat="45.158468661249664" lon="8.217492939176454"><ele>323.0</ele><time>2026-03-28T13:55:04.062Z</time></trkpt><trkpt lat="45.15837343436211" lon="8.217427919910754"><ele>323.0</ele><time>2026-03-28T13:55:05.062Z</time></trkpt><trkpt lat="45.158284272195985" lon="8.21735669092276"><ele>323.0</ele><time>2026-03-28T13:55:06.062Z</time></trkpt><trkpt lat="45.15819735762243" lon="8.217283883807978"><ele>323.0</ele><time>2026-03-28T13:55:07.062Z</time></trkpt><trkpt lat="45.15810929451654" lon="8.217207011653104"><ele>323.0</ele><time>2026-03-28T13:55:08.062Z</time></trkpt><trkpt lat="45.158015962945164" lon="8.21715143905344"><ele>320.59999999999997</ele><time>2026-03-28T13:55:09.062Z</time></trkpt><trkpt lat="45.15790829267555" lon="8.217132130561488"><ele>318.2</ele><time>2026-03-28T13:55:10.062Z</time></trkpt><trkpt lat="45.15779779735393" lon="8.217117023769072"><ele>315.8</ele><time>2026-03-28T13:55:11.062Z</time></trkpt><trkpt lat="45.1576959856629" lon="8.217099818697715"><ele>313.4</ele><time>2026-03-28T13:55:12.062Z</time></trkpt><trkpt lat="45.157597649560955" lon="8.217083578107735"><ele>311.0</ele><time>2026-03-28T13:55:13.062Z</time></trkpt><trkpt lat="45.15750253802566" lon="8.217073626210007"><ele>311.0</ele><time>2026-03-28T13:55:14.062Z</time></trkpt><trkpt lat="45.15740933560344" lon="8.217050596563844"><ele>311.0</ele><time>2026-03-28T13:55:15.062Z</time></trkpt><trkpt lat="45.157310060327596" lon="8.217016652407807"><ele>311.0</ele><time>2026-03-28T13:55:16.062Z</time></trkpt><trkpt lat="45.15721641138533" lon="8.216943401815012"><ele>311.0</ele><time>2026-03-28T13:55:17.062Z</time></trkpt><trkpt lat="45.15712686731705" lon="8.216838714317898"><ele>311.0</ele><time>2026-03-28T13:55:18.062Z</time></trkpt><trkpt lat="45.157047478443666" lon="8.21671206910299"><ele>311.6</ele><time>2026-03-28T13:55:19.062Z</time></trkpt><trkpt lat="45.15697718784234" lon="8.21658780902356"><ele>312.20000000000005</ele><time>2026-03-28T13:55:20.063Z</time></trkpt><trkpt lat="45.1569053566447" lon="8.21647511969418"><ele>312.79999999999995</ele><time>2026-03-28T13:55:21.063Z</time></trkpt><trkpt lat="45.156821748079146" lon="8.21638191361775"><ele>313.4</ele><time>2026-03-28T13:55:22.063Z</time></trkpt><trkpt lat="45.15673283491151" lon="8.21630019576388"><ele>314.0</ele><time>2026-03-28T13:55:23.063Z</time></trkpt><trkpt lat="45.15663919419691" lon="8.216209730820161"><ele>312.5</ele><time>2026-03-28T13:55:24.063Z</time></trkpt><trkpt lat="45.156556547443316" lon="8.216095908940861"><ele>311.0</ele><time>2026-03-28T13:55:25.063Z</time></trkpt><trkpt lat="45.156511884846076" lon="8.215949921538183"><ele>309.5</ele><time>2026-03-28T13:55:26.063Z</time></trkpt><trkpt lat="45.156487175469785" lon="8.215784376151259"><ele>308.0</ele><time>2026-03-28T13:55:27.063Z</time></trkpt><trkpt lat="45.156482130341644" lon="8.215614618427319"><ele>306.75</ele><time>2026-03-28T13:55:28.063Z</time></trkpt><trkpt lat="45.156488663130126" lon="8.215442776650782"><ele>305.5</ele><time>2026-03-28T13:55:29.063Z</time></trkpt><trkpt lat="45.15650885838476" lon="8.215262402755778"><ele>304.25</ele><time>2026-03-28T13:55:30.063Z</time></trkpt><trkpt lat="45.156532762457786" lon="8.215073129744942"><ele>303.0</ele><time>2026-03-28T13:55:31.063Z</time></trkpt><trkpt lat="45.15655912362485" lon="8.21487770180538"><ele>300.5</ele><time>2026-03-28T13:55:32.063Z</time></trkpt><trkpt lat="45.156594116057676" lon="8.214682189190926"><ele>298.0</ele><time>2026-03-28T13:55:33.063Z</time></trkpt><trkpt lat="45.156635017774" lon="8.214490411312209"><ele>295.5</ele><time>2026-03-28T13:55:34.063Z</time></trkpt><trkpt lat="45.156671391380186" lon="8.214286434128818"><ele>293.0</ele><time>2026-03-28T13:55:35.063Z</time></trkpt><trkpt lat="45.15669126661797" lon="8.214083038725493"><ele>292.0</ele><time>2026-03-28T13:55:36.063Z</time></trkpt><trkpt lat="45.15667770312423" lon="8.213873908426528"><ele>291.0</ele><time>2026-03-28T13:55:37.063Z</time></trkpt><trkpt lat="45.15663652805741" lon="8.213666688630763"><ele>290.0</ele><time>2026-03-28T13:55:38.063Z</time></trkpt><trkpt lat="45.15657589834766" lon="8.213470185638249"><ele>294.0</ele><time>2026-03-28T13:55:39.063Z</time></trkpt><trkpt lat="45.15650517977145" lon="8.213275028695083"><ele>298.0</ele><time>2026-03-28T13:55:40.063Z</time></trkpt><trkpt lat="45.156420222435216" lon="8.213079673988911"><ele>302.0</ele><time>2026-03-28T13:55:41.063Z</time></trkpt><trkpt lat="45.15632256934608" lon="8.21288452117911"><ele>302.33333333333337</ele><time>2026-03-28T13:55:42.063Z</time></trkpt><trkpt lat="45.156221641346214" lon="8.2126934620384"><ele>302.6666666666667</ele><time>2026-03-28T13:55:43.063Z</time></trkpt><trkpt lat="45.156147175473315" lon="8.212489054849568"><ele>303.0</ele><time>2026-03-28T13:55:44.063Z</time></trkpt><trkpt lat="45.15608912103578" lon="8.212282651694522"><ele>300.75</ele><time>2026-03-28T13:55:45.063Z</time></trkpt><trkpt lat="45.15604304299289" lon="8.212095176859643"><ele>298.5</ele><time>2026-03-28T13:55:46.063Z</time></trkpt><trkpt lat="45.15598287547778" lon="8.211924100790803"><ele>296.25</ele><time>2026-03-28T13:55:47.063Z</time></trkpt><trkpt lat="45.15592311612467" lon="8.211774413047777"><ele>294.0</ele><time>2026-03-28T13:55:48.063Z</time></trkpt><trkpt lat="45.15589005011135" lon="8.211620648497357"><ele>289.75</ele><time>2026-03-28T13:55:49.063Z</time></trkpt><trkpt lat="45.15588318228721" lon="8.211471913292373"><ele>285.5</ele><time>2026-03-28T13:55:50.063Z</time></trkpt><trkpt lat="45.15589795012637" lon="8.21131766315775"><ele>281.25</ele><time>2026-03-28T13:55:51.063Z</time></trkpt><trkpt lat="45.155988978181476" lon="8.211139590105999"><ele>277.0</ele><time>2026-03-28T13:55:52.063Z</time></trkpt><trkpt lat="45.15604887812106" lon="8.210968701044715"><ele>277.0</ele><time>2026-03-28T13:55:53.064Z</time></trkpt><trkpt lat="45.15610547494721" lon="8.210803393328389"><ele>277.0</ele><time>2026-03-28T13:55:54.064Z</time></trkpt><trkpt lat="45.15616673326352" lon="8.21062822074115"><ele>277.0</ele><time>2026-03-28T13:55:55.064Z</time></trkpt><trkpt lat="45.156236676262196" lon="8.21044905207201"><ele>277.0</ele><time>2026-03-28T13:55:56.064Z</time></trkpt><trkpt lat="45.15631151810951" lon="8.210266052914477"><ele>277.25</ele><time>2026-03-28T13:55:57.064Z</time></trkpt><trkpt lat="45.15638916306788" lon="8.21008885023498"><ele>277.5</ele><time>2026-03-28T13:55:58.064Z</time></trkpt><trkpt lat="45.15645871896309" lon="8.209911398530709"><ele>277.75</ele><time>2026-03-28T13:55:59.064Z</time></trkpt><trkpt lat="45.15652568790462" lon="8.209732017320656"><ele>278.0</ele><time>2026-03-28T13:56:00.064Z</time></trkpt><trkpt lat="45.15658405195172" lon="8.209538549473214"><ele>278.0</ele><time>2026-03-28T13:56:01.064Z</time></trkpt><trkpt lat="45.15662689520504" lon="8.209334505223456"><ele>278.0</ele><time>2026-03-28T13:56:02.064Z</time></trkpt><trkpt lat="45.156658118068165" lon="8.20913057908148"><ele>278.0</ele><time>2026-03-28T13:56:03.064Z</time></trkpt><trkpt lat="45.156696826138905" lon="8.208929235840051"><ele>278.0</ele><time>2026-03-28T13:56:04.064Z</time></trkpt><trkpt lat="45.15674744666974" lon="8.208730838103925"><ele>276.25</ele><time>2026-03-28T13:56:05.064Z</time></trkpt><trkpt lat="45.15680816676888" lon="8.208543295879723"><ele>274.5</ele><time>2026-03-28T13:56:06.064Z</time></trkpt><trkpt lat="45.15685905256193" lon="8.208353831115737"><ele>272.75</ele><time>2026-03-28T13:56:07.063Z</time></trkpt><trkpt lat="45.156892246734124" lon="8.208155634711932"><ele>271.0</ele><time>2026-03-28T13:56:08.062Z</time></trkpt><trkpt lat="45.15691145708398" lon="8.207950132584738"><ele>270.0</ele><time>2026-03-28T13:56:09.062Z</time></trkpt><trkpt lat="45.15691395578713" lon="8.20774388521834"><ele>269.0</ele><time>2026-03-28T13:56:10.063Z</time></trkpt><trkpt lat="45.15692181095788" lon="8.207548733100875"><ele>268.0</ele><time>2026-03-28T13:56:11.063Z</time></trkpt><trkpt lat="45.1569287844978" lon="8.20736183065034"><ele>267.0</ele><time>2026-03-28T13:56:12.063Z</time></trkpt><trkpt lat="45.156930230813735" lon="8.207188676948663"><ele>267.0</ele><time>2026-03-28T13:56:13.063Z</time></trkpt><trkpt lat="45.15692548758619" lon="8.207021694033587"><ele>267.0</ele><time>2026-03-28T13:56:14.062Z</time></trkpt><trkpt lat="45.15691879450804" lon="8.206878499554175"><ele>267.0</ele><time>2026-03-28T13:56:15.062Z</time></trkpt><trkpt lat="45.156901702611954" lon="8.206748991577241"><ele>267.0</ele><time>2026-03-28T13:56:16.063Z</time></trkpt><trkpt lat="45.15686653381782" lon="8.206637987747879"><ele>267.0</ele><time>2026-03-28T13:56:17.063Z</time></trkpt><trkpt lat="45.15681257552457" lon="8.206557114305044"><ele>267.0</ele><time>2026-03-28T13:56:18.063Z</time></trkpt><trkpt lat="45.15675979104501" lon="8.206487672160343"><ele>267.0</ele><time>2026-03-28T13:56:19.063Z</time></trkpt><trkpt lat="45.15669634506996" lon="8.206437189591167"><ele>267.0</ele><time>2026-03-28T13:56:20.063Z</time></trkpt><trkpt lat="45.15662964511019" lon="8.206380148961074"><ele>267.0</ele><time>2026-03-28T13:56:21.063Z</time></trkpt><trkpt lat="45.15655905313474" lon="8.206317512335328"><ele>267.0</ele><time>2026-03-28T13:56:22.063Z</time></trkpt><trkpt lat="45.15648275353719" lon="8.206246538467175"><ele>267.0</ele><time>2026-03-28T13:56:23.063Z</time></trkpt><trkpt lat="45.1564198902436" lon="8.206174288764927"><ele>267.0</ele><time>2026-03-28T13:56:24.063Z</time></trkpt><trkpt lat="45.156335386132206" lon="8.206098771094325"><ele>267.0</ele><time>2026-03-28T13:56:25.063Z</time></trkpt><trkpt lat="45.15624798760416" lon="8.206022204185265"><ele>267.0</ele><time>2026-03-28T13:56:26.063Z</time></trkpt><trkpt lat="45.15616001463749" lon="8.20592581296265"><ele>267.0</ele><time>2026-03-28T13:56:27.063Z</time></trkpt><trkpt lat="45.15607667010672" lon="8.205815498822808"><ele>267.0</ele><time>2026-03-28T13:56:28.063Z</time></trkpt><trkpt lat="45.155995091854365" lon="8.205690068758042"><ele>266.25</ele><time>2026-03-28T13:56:29.063Z</time></trkpt><trkpt lat="45.15589936292897" lon="8.20557077243944"><ele>265.5</ele><time>2026-03-28T13:56:30.063Z</time></trkpt><trkpt lat="45.155788793980186" lon="8.205480294232755"><ele>264.75</ele><time>2026-03-28T13:56:31.063Z</time></trkpt><trkpt lat="45.155679480835055" lon="8.205412049518925"><ele>264.0</ele><time>2026-03-28T13:56:32.063Z</time></trkpt><trkpt lat="45.15557503256186" lon="8.205346342720894"><ele>264.0</ele><time>2026-03-28T13:56:33.063Z</time></trkpt><trkpt lat="45.155482391808334" lon="8.205299881208061"><ele>264.0</ele><time>2026-03-28T13:56:34.063Z</time></trkpt><trkpt lat="45.15540681652776" lon="8.205242028771151"><ele>264.0</ele><time>2026-03-28T13:56:35.063Z</time></trkpt><trkpt lat="45.155347013126566" lon="8.205176836007391"><ele>264.0</ele><time>2026-03-28T13:56:36.063Z</time></trkpt><trkpt lat="45.155309378796574" lon="8.205089740973538"><ele>264.0</ele><time>2026-03-28T13:56:37.063Z</time></trkpt><trkpt lat="45.15530754327819" lon="8.204986666038842"><ele>264.0</ele><time>2026-03-28T13:56:38.063Z</time></trkpt><trkpt lat="45.155334690622915" lon="8.20488478068494"><ele>263.8</ele><time>2026-03-28T13:56:39.063Z</time></trkpt><trkpt lat="45.15539407965031" lon="8.204798655632347"><ele>263.59999999999997</ele><time>2026-03-28T13:56:40.063Z</time></trkpt><trkpt lat="45.15547682595893" lon="8.204730164618677"><ele>263.4</ele><time>2026-03-28T13:56:41.063Z</time></trkpt><trkpt lat="45.1555921632971" lon="8.204666870086372"><ele>263.2</ele><time>2026-03-28T13:56:42.063Z</time></trkpt><trkpt lat="45.15571196535183" lon="8.204603911933269"><ele>263.0</ele><time>2026-03-28T13:56:43.063Z</time></trkpt><trkpt lat="45.15583449962367" lon="8.204529709425142"><ele>263.0</ele><time>2026-03-28T13:56:44.063Z</time></trkpt><trkpt lat="45.15594899030415" lon="8.204440248446359"><ele>263.0</ele><time>2026-03-28T13:56:45.063Z</time></trkpt><trkpt lat="45.156064414769965" lon="8.204324272978399"><ele>263.0</ele><time>2026-03-28T13:56:46.063Z</time></trkpt><trkpt lat="45.15617104652904" lon="8.204175765740244"><ele>263.0</ele><time>2026-03-28T13:56:47.064Z</time></trkpt><trkpt lat="45.1562666056238" lon="8.20401193174947"><ele>259.33333333333337</ele><time>2026-03-28T13:56:48.064Z</time></trkpt><trkpt lat="45.15635950697313" lon="8.20383004371137"><ele>255.66666666666669</ele><time>2026-03-28T13:56:49.064Z</time></trkpt><trkpt lat="45.15644724633846" lon="8.203654908402818"><ele>252.0</ele><time>2026-03-28T13:56:50.064Z</time></trkpt><trkpt lat="45.156538906828395" lon="8.203491101686414"><ele>255.25</ele><time>2026-03-28T13:56:51.064Z</time></trkpt><trkpt lat="45.156637200904434" lon="8.203329828049014"><ele>258.5</ele><time>2026-03-28T13:56:52.064Z</time></trkpt><trkpt lat="45.156737188837994" lon="8.203186539890533"><ele>261.75</ele><time>2026-03-28T13:56:53.064Z</time></trkpt><trkpt lat="45.15684274456058" lon="8.203053959078185"><ele>265.0</ele><time>2026-03-28T13:56:54.064Z</time></trkpt><trkpt lat="45.156956970795584" lon="8.202935823205324"><ele>265.0</ele><time>2026-03-28T13:56:55.064Z</time></trkpt><trkpt lat="45.157067300724364" lon="8.202835305490465"><ele>265.0</ele><time>2026-03-28T13:56:56.064Z</time></trkpt><trkpt lat="45.15718483185426" lon="8.202742933527578"><ele>265.0</ele><time>2026-03-28T13:56:57.064Z</time></trkpt><trkpt lat="45.15729494133937" lon="8.202649726655633"><ele>265.0</ele><time>2026-03-28T13:56:58.064Z</time></trkpt><trkpt lat="45.15738983034914" lon="8.20255693393826"><ele>267.0</ele><time>2026-03-28T13:56:59.064Z</time></trkpt><trkpt lat="45.15746228515388" lon="8.202444344791118"><ele>269.0</ele><time>2026-03-28T13:57:00.064Z</time></trkpt><trkpt lat="45.157532879755834" lon="8.202300443924496"><ele>271.0</ele><time>2026-03-28T13:57:01.064Z</time></trkpt><trkpt lat="45.15760666281881" lon="8.20216798955642"><ele>273.0</ele><time>2026-03-28T13:57:02.064Z</time></trkpt><trkpt lat="45.157682219787105" lon="8.202046278869643"><ele>273.0</ele><time>2026-03-28T13:57:03.064Z</time></trkpt><trkpt lat="45.15775845147753" lon="8.201924157824845"><ele>273.0</ele><time>2026-03-28T13:57:04.064Z</time></trkpt><trkpt lat="45.15782538053346" lon="8.201800434752366"><ele>273.0</ele><time>2026-03-28T13:57:05.064Z</time></trkpt><trkpt lat="45.15789837066576" lon="8.201681593645473"><ele>273.0</ele><time>2026-03-28T13:57:06.064Z</time></trkpt><trkpt lat="45.157969233195985" lon="8.201560255628792"><ele>273.0</ele><time>2026-03-28T13:57:07.064Z</time></trkpt><trkpt lat="45.15804365401395" lon="8.201434201048798"><ele>273.6</ele><time>2026-03-28T13:57:08.064Z</time></trkpt><trkpt lat="45.15811316482643" lon="8.201320776896447"><ele>274.20000000000005</ele><time>2026-03-28T13:57:09.064Z</time></trkpt><trkpt lat="45.1581773585705" lon="8.20120667679173"><ele>274.8</ele><time>2026-03-28T13:57:10.064Z</time></trkpt><trkpt lat="45.158232634261196" lon="8.20110080216747"><ele>275.40000000000003</ele><time>2026-03-28T13:57:11.064Z</time></trkpt><trkpt lat="45.1582828189977" lon="8.200992072012772"><ele>276.0</ele><time>2026-03-28T13:57:12.064Z</time></trkpt><trkpt lat="45.15832681788656" lon="8.200888078285121"><ele>276.0</ele><time>2026-03-28T13:57:13.064Z</time></trkpt><trkpt lat="45.15836365866053" lon="8.200794099180106"><ele>276.0</ele><time>2026-03-28T13:57:14.064Z</time></trkpt><trkpt lat="45.15839399661574" lon="8.200713661861258"><ele>276.0</ele><time>2026-03-28T13:57:15.064Z</time></trkpt><trkpt lat="45.15842838626452" lon="8.200607207500362"><ele>276.0</ele><time>2026-03-28T13:57:24.065Z</time></trkpt><trkpt lat="45.158470599139164" lon="8.20046965723861"><ele>276.0</ele><time>2026-03-28T13:57:26.065Z</time></trkpt><trkpt lat="45.15849728585139" lon="8.20037152935619"><ele>276.0</ele><time>2026-03-28T13:57:27.065Z</time></trkpt><trkpt lat="45.15852901938877" lon="8.200264627492254"><ele>274.8</ele><time>2026-03-28T13:57:28.065Z</time></trkpt><trkpt lat="45.15855773024818" lon="8.20014624570776"><ele>273.6</ele><time>2026-03-28T13:57:29.065Z</time></trkpt><trkpt lat="45.15859056552089" lon="8.200016074193567"><ele>272.4</ele><time>2026-03-28T13:57:30.065Z</time></trkpt><trkpt lat="45.15862150400429" lon="8.199873915655553"><ele>271.2</ele><time>2026-03-28T13:57:31.065Z</time></trkpt><trkpt lat="45.1586507594681" lon="8.199728795927363"><ele>270.0</ele><time>2026-03-28T13:57:32.065Z</time></trkpt><trkpt lat="45.15867840292928" lon="8.199569034211276"><ele>269.75</ele><time>2026-03-28T13:57:33.065Z</time></trkpt><trkpt lat="45.158701741891974" lon="8.199394517218803"><ele>269.5</ele><time>2026-03-28T13:57:34.065Z</time></trkpt><trkpt lat="45.158714008805156" lon="8.199215095996934"><ele>269.25</ele><time>2026-03-28T13:57:35.065Z</time></trkpt><trkpt lat="45.158709125831244" lon="8.199040409932998"><ele>269.0</ele><time>2026-03-28T13:57:36.065Z</time></trkpt><trkpt lat="45.15868750079471" lon="8.198863489693755"><ele>269.0</ele><time>2026-03-28T13:57:37.065Z</time></trkpt><trkpt lat="45.15865127473788" lon="8.19868938911719"><ele>269.0</ele><time>2026-03-28T13:57:38.065Z</time></trkpt><trkpt lat="45.15860686786025" lon="8.198523781196245"><ele>269.0</ele><time>2026-03-28T13:57:39.065Z</time></trkpt><trkpt lat="45.15856117359031" lon="8.198367344243316"><ele>269.0</ele><time>2026-03-28T13:57:40.065Z</time></trkpt><trkpt lat="45.15851404823222" lon="8.198212622407501"><ele>270.0</ele><time>2026-03-28T13:57:41.065Z</time></trkpt><trkpt lat="45.15847232011979" lon="8.198049911611971"><ele>271.0</ele><time>2026-03-28T13:57:42.065Z</time></trkpt><trkpt lat="45.15843974855143" lon="8.197885846619885"><ele>272.0</ele><time>2026-03-28T13:57:43.065Z</time></trkpt><trkpt lat="45.15840916373825" lon="8.197723169583385"><ele>273.0</ele><time>2026-03-28T13:57:44.065Z</time></trkpt><trkpt lat="45.15837684248327" lon="8.197560391985103"><ele>273.0</ele><time>2026-03-28T13:57:45.065Z</time></trkpt><trkpt lat="45.15834179376137" lon="8.197394563745489"><ele>273.0</ele><time>2026-03-28T13:57:46.065Z</time></trkpt><trkpt lat="45.15831049316525" lon="8.197235741343473"><ele>273.0</ele><time>2026-03-28T13:57:47.065Z</time></trkpt><trkpt lat="45.15828205225436" lon="8.197088402706305"><ele>273.0</ele><time>2026-03-28T13:57:48.065Z</time></trkpt><trkpt lat="45.158247920281305" lon="8.196954107405276"><ele>273.0</ele><time>2026-03-28T13:57:49.065Z</time></trkpt><trkpt lat="45.15821646831515" lon="8.196830305491837"><ele>272.4</ele><time>2026-03-28T13:57:50.065Z</time></trkpt><trkpt lat="45.15818598511757" lon="8.196713804832616"><ele>271.8</ele><time>2026-03-28T13:57:51.065Z</time></trkpt><trkpt lat="45.15814581941257" lon="8.196583090971933"><ele>271.2</ele><time>2026-03-28T13:57:52.065Z</time></trkpt><trkpt lat="45.15808234783244" lon="8.19645172038295"><ele>270.6</ele><time>2026-03-28T13:57:53.066Z</time></trkpt><trkpt lat="45.15800158917358" lon="8.196324078309477"><ele>270.0</ele><time>2026-03-28T13:57:54.066Z</time></trkpt><trkpt lat="45.15790952003288" lon="8.196196830510342"><ele>270.0</ele><time>2026-03-28T13:57:55.066Z</time></trkpt><trkpt lat="45.157803911643455" lon="8.196082921840269"><ele>270.0</ele><time>2026-03-28T13:57:56.066Z</time></trkpt><trkpt lat="45.1576836386912" lon="8.195987438764243"><ele>270.0</ele><time>2026-03-28T13:57:57.066Z</time></trkpt><trkpt lat="45.15755684003367" lon="8.195898401063612"><ele>270.0</ele><time>2026-03-28T13:57:58.066Z</time></trkpt><trkpt lat="45.157432827211764" lon="8.195826264164385"><ele>268.0</ele><time>2026-03-28T13:57:59.066Z</time></trkpt><trkpt lat="45.15731790706558" lon="8.1957635936706"><ele>266.0</ele><time>2026-03-28T13:58:00.066Z</time></trkpt><trkpt lat="45.15720834399646" lon="8.19570976495942"><ele>264.0</ele><time>2026-03-28T13:58:01.066Z</time></trkpt><trkpt lat="45.157096885881934" lon="8.195678359684699"><ele>262.0</ele><time>2026-03-28T13:58:02.066Z</time></trkpt><trkpt lat="45.15698164540797" lon="8.195695208097009"><ele>262.0</ele><time>2026-03-28T13:58:03.066Z</time></trkpt><trkpt lat="45.15687350460206" lon="8.195757246513717"><ele>262.0</ele><time>2026-03-28T13:58:04.066Z</time></trkpt><trkpt lat="45.156781823272304" lon="8.195847089758777"><ele>262.0</ele><time>2026-03-28T13:58:05.066Z</time></trkpt><trkpt lat="45.15669669037063" lon="8.195935535145688"><ele>262.0</ele><time>2026-03-28T13:58:06.066Z</time></trkpt><trkpt lat="45.156612364783406" lon="8.196017781391568"><ele>262.0</ele><time>2026-03-28T13:58:07.066Z</time></trkpt><trkpt lat="45.15652078913527" lon="8.196076175428571"><ele>260.5</ele><time>2026-03-28T13:58:08.066Z</time></trkpt><trkpt lat="45.156427125144795" lon="8.19609531752273"><ele>259.0</ele><time>2026-03-28T13:58:09.066Z</time></trkpt><trkpt lat="45.15635116812805" lon="8.196065371514639"><ele>257.5</ele><time>2026-03-28T13:58:10.066Z</time></trkpt><trkpt lat="45.156288499823745" lon="8.195995137048898"><ele>256.0</ele><time>2026-03-28T13:58:11.066Z</time></trkpt><trkpt lat="45.156224956880045" lon="8.195912945567143"><ele>254.49999999999997</ele><time>2026-03-28T13:58:12.066Z</time></trkpt><trkpt lat="45.15616361475326" lon="8.195810887351827"><ele>253.0</ele><time>2026-03-28T13:58:13.064Z</time></trkpt><trkpt lat="45.15609931146136" lon="8.195696788410748"><ele>252.25</ele><time>2026-03-28T13:58:14.064Z</time></trkpt><trkpt lat="45.1560497567193" lon="8.195558615366718"><ele>251.5</ele><time>2026-03-28T13:58:15.064Z</time></trkpt><trkpt lat="45.15602504369117" lon="8.195388982412346"><ele>250.75</ele><time>2026-03-28T13:58:16.065Z</time></trkpt><trkpt lat="45.155991917073514" lon="8.195213334272873"><ele>250.0</ele><time>2026-03-28T13:58:17.065Z</time></trkpt><trkpt lat="45.15595891215231" lon="8.195041997673695"><ele>250.0</ele><time>2026-03-28T13:58:18.065Z</time></trkpt><trkpt lat="45.15592552734252" lon="8.194876422166894"><ele>250.0</ele><time>2026-03-28T13:58:19.065Z</time></trkpt><trkpt lat="45.155898815063644" lon="8.194714462993078"><ele>250.0</ele><time>2026-03-28T13:58:20.064Z</time></trkpt><trkpt lat="45.15587309472596" lon="8.194557617538512"><ele>250.0</ele><time>2026-03-28T13:58:21.064Z</time></trkpt><trkpt lat="45.15585035495124" lon="8.194405062053137"><ele>248.8</ele><time>2026-03-28T13:58:22.065Z</time></trkpt><trkpt lat="45.15584012049422" lon="8.194248961979227"><ele>247.6</ele><time>2026-03-28T13:58:23.065Z</time></trkpt><trkpt lat="45.15584821987076" lon="8.194090814225483"><ele>246.39999999999998</ele><time>2026-03-28T13:58:24.065Z</time></trkpt><trkpt lat="45.15586449168051" lon="8.193936505672966"><ele>245.2</ele><time>2026-03-28T13:58:25.065Z</time></trkpt><trkpt lat="45.15589288718966" lon="8.193790641733907"><ele>244.0</ele><time>2026-03-28T13:58:26.065Z</time></trkpt><trkpt lat="45.15592918563607" lon="8.1936424178397"><ele>243.0</ele><time>2026-03-28T13:58:27.065Z</time></trkpt><trkpt lat="45.15597432393954" lon="8.193488573814431"><ele>242.0</ele><time>2026-03-28T13:58:28.065Z</time></trkpt><trkpt lat="45.156028474618594" lon="8.193330418160734"><ele>241.0</ele><time>2026-03-28T13:58:29.065Z</time></trkpt><trkpt lat="45.156088605167376" lon="8.193171855897484"><ele>240.0</ele><time>2026-03-28T13:58:30.065Z</time></trkpt><trkpt lat="45.156151359276286" lon="8.193013531825803"><ele>238.25</ele><time>2026-03-28T13:58:31.065Z</time></trkpt><trkpt lat="45.15621317379" lon="8.19285339548254"><ele>236.5</ele><time>2026-03-28T13:58:32.065Z</time></trkpt><trkpt lat="45.1562777634214" lon="8.1926902394304"><ele>234.75</ele><time>2026-03-28T13:58:33.065Z</time></trkpt><trkpt lat="45.15634101037825" lon="8.1925282613848"><ele>233.0</ele><time>2026-03-28T13:58:34.065Z</time></trkpt><trkpt lat="45.15640651170206" lon="8.192358685154058"><ele>231.75</ele><time>2026-03-28T13:58:35.065Z</time></trkpt><trkpt lat="45.15647378429756" lon="8.192183339268531"><ele>230.5</ele><time>2026-03-28T13:58:36.065Z</time></trkpt><trkpt lat="45.156543303364224" lon="8.192007765577628"><ele>229.25</ele><time>2026-03-28T13:58:37.065Z</time></trkpt><trkpt lat="45.15661564910104" lon="8.191828027678262"><ele>228.0</ele><time>2026-03-28T13:58:38.065Z</time></trkpt><trkpt lat="45.15668195450684" lon="8.191652903031452"><ele>230.0</ele><time>2026-03-28T13:58:39.065Z</time></trkpt><trkpt lat="45.15674416292782" lon="8.191487061930143"><ele>232.0</ele><time>2026-03-28T13:58:40.065Z</time></trkpt><trkpt lat="45.15680595340635" lon="8.191331602500744"><ele>234.0</ele><time>2026-03-28T13:58:41.065Z</time></trkpt><trkpt lat="45.15685912153291" lon="8.191183839432346"><ele>236.0</ele><time>2026-03-28T13:58:42.065Z</time></trkpt><trkpt lat="45.15690627239771" lon="8.191044689484778"><ele>236.0</ele><time>2026-03-28T13:58:43.065Z</time></trkpt><trkpt lat="45.15693981157076" lon="8.190909470055233"><ele>236.00000000000003</ele><time>2026-03-28T13:58:44.065Z</time></trkpt><trkpt lat="45.15694194346462" lon="8.190778333870577"><ele>236.00000000000003</ele><time>2026-03-28T13:58:45.065Z</time></trkpt><trkpt lat="45.156904208679975" lon="8.190662841652726"><ele>236.0</ele><time>2026-03-28T13:58:46.065Z</time></trkpt><trkpt lat="45.15683354179285" lon="8.19056554815203"><ele>236.0</ele><time>2026-03-28T13:58:47.065Z</time></trkpt><trkpt lat="45.156736550778604" lon="8.190483411750721"><ele>233.5</ele><time>2026-03-28T13:58:48.065Z</time></trkpt><trkpt lat="45.156626745730506" lon="8.190403784420415"><ele>231.0</ele><time>2026-03-28T13:58:49.066Z</time></trkpt><trkpt lat="45.15651799957137" lon="8.190325760480388"><ele>228.5</ele><time>2026-03-28T13:58:50.066Z</time></trkpt><trkpt lat="45.15641282971062" lon="8.190244609789806"><ele>226.0</ele><time>2026-03-28T13:58:51.066Z</time></trkpt><trkpt lat="45.15630701648324" lon="8.190168754446848"><ele>226.0</ele><time>2026-03-28T13:58:52.066Z</time></trkpt><trkpt lat="45.15620885830516" lon="8.190095947346528"><ele>226.00000000000003</ele><time>2026-03-28T13:58:53.066Z</time></trkpt><trkpt lat="45.156116815127824" lon="8.190034339670147"><ele>226.00000000000003</ele><time>2026-03-28T13:58:54.066Z</time></trkpt><trkpt lat="45.156043127127944" lon="8.189979380927976"><ele>226.0</ele><time>2026-03-28T13:58:55.066Z</time></trkpt><trkpt lat="45.15598059154832" lon="8.189931390028493"><ele>226.0</ele><time>2026-03-28T13:58:56.066Z</time></trkpt><trkpt lat="45.15590453918493" lon="8.18985162244641"><ele>223.99999999999997</ele><time>2026-03-28T13:58:58.066Z</time></trkpt><trkpt lat="45.15587020724923" lon="8.189760865017186"><ele>222.0</ele><time>2026-03-28T13:59:01.066Z</time></trkpt><trkpt lat="45.15593546514287" lon="8.189664768225306"><ele>220.0</ele><time>2026-03-28T13:59:04.066Z</time></trkpt><trkpt lat="45.156003583311715" lon="8.189661206698233"><ele>218.0</ele><time>2026-03-28T13:59:05.066Z</time></trkpt><trkpt lat="45.15608420395611" lon="8.18966310706798"><ele>215.99999999999997</ele><time>2026-03-28T13:59:06.066Z</time></trkpt><trkpt lat="45.15618146731533" lon="8.189654624431554"><ele>214.0</ele><time>2026-03-28T13:59:07.066Z</time></trkpt><trkpt lat="45.15628756743262" lon="8.189648182039068"><ele>214.0</ele><time>2026-03-28T13:59:08.066Z</time></trkpt><trkpt lat="45.15640717362568" lon="8.18963251825924"><ele>214.0</ele><time>2026-03-28T13:59:09.066Z</time></trkpt><trkpt lat="45.156527450941915" lon="8.189612751140185"><ele>214.0</ele><time>2026-03-28T13:59:10.066Z</time></trkpt><trkpt lat="45.15665855299671" lon="8.189600557497245"><ele>214.0</ele><time>2026-03-28T13:59:11.066Z</time></trkpt><trkpt lat="45.15679459117565" lon="8.189591855193271"><ele>214.0</ele><time>2026-03-28T13:59:12.066Z</time></trkpt><trkpt lat="45.15693116238257" lon="8.18958067262112"><ele>214.0</ele><time>2026-03-28T13:59:13.066Z</time></trkpt><trkpt lat="45.157068508717586" lon="8.189551061294381"><ele>214.0</ele><time>2026-03-28T13:59:14.066Z</time></trkpt><trkpt lat="45.15720022221602" lon="8.189481464416838"><ele>214.0</ele><time>2026-03-28T13:59:15.066Z</time></trkpt><trkpt lat="45.15731725525058" lon="8.189369683097505"><ele>213.0</ele><time>2026-03-28T13:59:16.066Z</time></trkpt><trkpt lat="45.15740803195586" lon="8.189211059601227"><ele>212.0</ele><time>2026-03-28T13:59:17.066Z</time></trkpt><trkpt lat="45.15746985984856" lon="8.189017354804204"><ele>211.0</ele><time>2026-03-28T13:59:18.066Z</time></trkpt><trkpt lat="45.15750680465107" lon="8.188792921668153"><ele>210.0</ele><time>2026-03-28T13:59:19.066Z</time></trkpt><trkpt lat="45.15753030422059" lon="8.188545400737896"><ele>209.0</ele><time>2026-03-28T13:59:20.066Z</time></trkpt><trkpt lat="45.157559012534676" lon="8.18830210226288"><ele>208.0</ele><time>2026-03-28T13:59:21.066Z</time></trkpt><trkpt lat="45.157594719643974" lon="8.18806792253785"><ele>206.33333333333331</ele><time>2026-03-28T13:59:22.067Z</time></trkpt><trkpt lat="45.15762371006803" lon="8.187839294409656"><ele>204.66666666666669</ele><time>2026-03-28T13:59:23.067Z</time></trkpt><trkpt lat="45.15765066276692" lon="8.187619682003781"><ele>203.0</ele><time>2026-03-28T13:59:24.067Z</time></trkpt><trkpt lat="45.1576780240644" lon="8.187424921339716"><ele>201.5</ele><time>2026-03-28T13:59:25.067Z</time></trkpt><trkpt lat="45.15768465834358" lon="8.187253050308422"><ele>200.0</ele><time>2026-03-28T13:59:26.067Z</time></trkpt><trkpt lat="45.157661792727005" lon="8.18708211609599"><ele>198.5</ele><time>2026-03-28T13:59:27.067Z</time></trkpt><trkpt lat="45.15759809729808" lon="8.186927364569573"><ele>197.0</ele><time>2026-03-28T13:59:28.067Z</time></trkpt><trkpt lat="45.15751228775485" lon="8.186792573031676"><ele>197.0</ele><time>2026-03-28T13:59:29.067Z</time></trkpt><trkpt lat="45.157401161524604" lon="8.186687637176824"><ele>197.0</ele><time>2026-03-28T13:59:30.067Z</time></trkpt><trkpt lat="45.15726148011963" lon="8.186630785467598"><ele>197.0</ele><time>2026-03-28T13:59:31.067Z</time></trkpt><trkpt lat="45.157114639628865" lon="8.186584539530745"><ele>197.0</ele><time>2026-03-28T13:59:32.067Z</time></trkpt><trkpt lat="45.1569725946815" lon="8.186517155821017"><ele>193.33333333333334</ele><time>2026-03-28T13:59:33.067Z</time></trkpt><trkpt lat="45.15684210819575" lon="8.18641153109652"><ele>189.66666666666669</ele><time>2026-03-28T13:59:34.067Z</time></trkpt><trkpt lat="45.156735258052784" lon="8.186244021057616"><ele>186.0</ele><time>2026-03-28T13:59:35.067Z</time></trkpt><trkpt lat="45.156647923840836" lon="8.18603192684619"><ele>186.0</ele><time>2026-03-28T13:59:36.067Z</time></trkpt><trkpt lat="45.15658065298198" lon="8.185792496713718"><ele>186.0</ele><time>2026-03-28T13:59:37.067Z</time></trkpt><trkpt lat="45.156524489198816" lon="8.185546450138665"><ele>186.0</ele><time>2026-03-28T13:59:38.067Z</time></trkpt><trkpt lat="45.15645728141407" lon="8.185301478234992"><ele>183.0</ele><time>2026-03-28T13:59:39.067Z</time></trkpt><trkpt lat="45.15638877222505" lon="8.185053715674663"><ele>180.0</ele><time>2026-03-28T13:59:40.067Z</time></trkpt><trkpt lat="45.15632708598007" lon="8.184814787574345"><ele>177.0</ele><time>2026-03-28T13:59:41.067Z</time></trkpt><trkpt lat="45.15627188327027" lon="8.184582856797173"><ele>176.5</ele><time>2026-03-28T13:59:42.067Z</time></trkpt><trkpt lat="45.15622574328149" lon="8.184370179468777"><ele>176.0</ele><time>2026-03-28T13:59:43.067Z</time></trkpt><trkpt lat="45.156191242022075" lon="8.184165145047197"><ele>175.5</ele><time>2026-03-28T13:59:44.067Z</time></trkpt><trkpt lat="45.15619032733335" lon="8.183964029810605"><ele>175.0</ele><time>2026-03-28T13:59:45.067Z</time></trkpt><trkpt lat="45.15622603538666" lon="8.183773518738402"><ele>173.75</ele><time>2026-03-28T13:59:46.067Z</time></trkpt><trkpt lat="45.15629119763641" lon="8.183593856276259"><ele>172.5</ele><time>2026-03-28T13:59:47.067Z</time></trkpt><trkpt lat="45.156387798343225" lon="8.183430167366227"><ele>171.25</ele><time>2026-03-28T13:59:48.067Z</time></trkpt><trkpt lat="45.156508628610936" lon="8.183299943141515"><ele>170.0</ele><time>2026-03-28T13:59:49.067Z</time></trkpt><trkpt lat="45.15662814034962" lon="8.183176486428865"><ele>170.0</ele><time>2026-03-28T13:59:50.067Z</time></trkpt><trkpt lat="45.15672919904515" lon="8.183015182973898"><ele>170.0</ele><time>2026-03-28T13:59:51.067Z</time></trkpt><trkpt lat="45.15679352323994" lon="8.182822153417186"><ele>170.0</ele><time>2026-03-28T13:59:52.067Z</time></trkpt><trkpt lat="45.156846096786815" lon="8.182628556285865"><ele>170.0</ele><time>2026-03-28T13:59:53.067Z</time></trkpt><trkpt lat="45.15691507440877" lon="8.182446075107997"><ele>166.66666666666666</ele><time>2026-03-28T13:59:54.067Z</time></trkpt><trkpt lat="45.15702054073949" lon="8.182298339140058"><ele>163.33333333333334</ele><time>2026-03-28T13:59:55.068Z</time></trkpt><trkpt lat="45.15715705797918" lon="8.182186408715461"><ele>160.0</ele><time>2026-03-28T13:59:56.068Z</time></trkpt><trkpt lat="45.15730544855863" lon="8.18209702631966"><ele>161.66666666666669</ele><time>2026-03-28T13:59:57.068Z</time></trkpt><trkpt lat="45.15744651740118" lon="8.18201207224947"><ele>163.33333333333334</ele><time>2026-03-28T13:59:58.068Z</time></trkpt><trkpt lat="45.157572586829886" lon="8.181887912411193"><ele>165.0</ele><time>2026-03-28T13:59:59.068Z</time></trkpt><trkpt lat="45.15768325441933" lon="8.181717434922671"><ele>162.66666666666666</ele><time>2026-03-28T14:00:00.068Z</time></trkpt><trkpt lat="45.15777064604244" lon="8.181506720719485"><ele>160.33333333333331</ele><time>2026-03-28T14:00:01.068Z</time></trkpt><trkpt lat="45.15785439821534" lon="8.181282823969136"><ele>158.0</ele><time>2026-03-28T14:00:02.068Z</time></trkpt><trkpt lat="45.1579396162424" lon="8.181057480086569"><ele>158.0</ele><time>2026-03-28T14:00:03.068Z</time></trkpt><trkpt lat="45.158023490401966" lon="8.180835346467397"><ele>158.0</ele><time>2026-03-28T14:00:04.068Z</time></trkpt><trkpt lat="45.15811406291917" lon="8.18062515916646"><ele>158.0</ele><time>2026-03-28T14:00:05.068Z</time></trkpt><trkpt lat="45.15821778901229" lon="8.180430970805258"><ele>155.33333333333331</ele><time>2026-03-28T14:00:06.068Z</time></trkpt><trkpt lat="45.15833575613336" lon="8.180263985613722"><ele>152.66666666666666</ele><time>2026-03-28T14:00:07.068Z</time></trkpt><trkpt lat="45.15846901504297" lon="8.180121392926608"><ele>150.0</ele><time>2026-03-28T14:00:08.068Z</time></trkpt><trkpt lat="45.158596321172816" lon="8.179990588901742"><ele>150.0</ele><time>2026-03-28T14:00:09.068Z</time></trkpt><trkpt lat="45.15871319629063" lon="8.179867890804553"><ele>150.0</ele><time>2026-03-28T14:00:10.068Z</time></trkpt><trkpt lat="45.15882466394396" lon="8.179750684728097"><ele>150.0</ele><time>2026-03-28T14:00:11.068Z</time></trkpt><trkpt lat="45.15892767824394" lon="8.179646754926708"><ele>150.0</ele><time>2026-03-28T14:00:12.068Z</time></trkpt><trkpt lat="45.15902485894078" lon="8.179545308297113"><ele>149.2</ele><time>2026-03-28T14:00:13.068Z</time></trkpt><trkpt lat="45.15911537091274" lon="8.179441232198492"><ele>148.4</ele><time>2026-03-28T14:00:14.068Z</time></trkpt><trkpt lat="45.15918851933609" lon="8.17932508285112"><ele>147.6</ele><time>2026-03-28T14:00:15.068Z</time></trkpt><trkpt lat="45.159235911606906" lon="8.179187547952985"><ele>146.8</ele><time>2026-03-28T14:00:16.068Z</time></trkpt><trkpt lat="45.15926664793965" lon="8.17903011990841"><ele>146.0</ele><time>2026-03-28T14:00:17.068Z</time></trkpt><trkpt lat="45.159280355471694" lon="8.178854957616394"><ele>146.0</ele><time>2026-03-28T14:00:18.068Z</time></trkpt><trkpt lat="45.15928744090934" lon="8.178669583485306"><ele>146.0</ele><time>2026-03-28T14:00:19.066Z</time></trkpt><trkpt lat="45.15929553357276" lon="8.178478631880324"><ele>146.0</ele><time>2026-03-28T14:00:20.067Z</time></trkpt><trkpt lat="45.15930403679384" lon="8.178302572920463"><ele>146.0</ele><time>2026-03-28T14:00:21.067Z</time></trkpt><trkpt lat="45.15931695239133" lon="8.178139027927887"><ele>145.6</ele><time>2026-03-28T14:00:22.067Z</time></trkpt><trkpt lat="45.15933089375977" lon="8.177982789613141"><ele>145.2</ele><time>2026-03-28T14:00:23.066Z</time></trkpt><trkpt lat="45.15934059894432" lon="8.177832182644972"><ele>144.8</ele><time>2026-03-28T14:00:24.066Z</time></trkpt><trkpt lat="45.15934358691383" lon="8.177687758156194"><ele>144.4</ele><time>2026-03-28T14:00:25.066Z</time></trkpt><trkpt lat="45.159339375160314" lon="8.177543617446345"><ele>144.0</ele><time>2026-03-28T14:00:26.067Z</time></trkpt><trkpt lat="45.159337012030235" lon="8.17740455519708"><ele>144.2</ele><time>2026-03-28T14:00:27.067Z</time></trkpt><trkpt lat="45.15933607501321" lon="8.177266765760805"><ele>144.4</ele><time>2026-03-28T14:00:28.067Z</time></trkpt><trkpt lat="45.15933751067313" lon="8.177133740972142"><ele>144.6</ele><time>2026-03-28T14:00:29.067Z</time></trkpt><trkpt lat="45.15934016854789" lon="8.177010531636359"><ele>144.8</ele><time>2026-03-28T14:00:30.067Z</time></trkpt><trkpt lat="45.15934524918318" lon="8.176887405499942"><ele>145.0</ele><time>2026-03-28T14:00:31.067Z</time></trkpt><trkpt lat="45.15934777632695" lon="8.176754466297846"><ele>145.0</ele><time>2026-03-28T14:00:32.067Z</time></trkpt><trkpt lat="45.15935407409315" lon="8.17661385998404"><ele>145.0</ele><time>2026-03-28T14:00:33.067Z</time></trkpt><trkpt lat="45.159361013378565" lon="8.176467700987244"><ele>145.0</ele><time>2026-03-28T14:00:34.067Z</time></trkpt><trkpt lat="45.15936760768972" lon="8.176315238254288"><ele>145.0</ele><time>2026-03-28T14:00:35.067Z</time></trkpt><trkpt lat="45.15937379289805" lon="8.17615537299887"><ele>145.0</ele><time>2026-03-28T14:00:36.067Z</time></trkpt><trkpt lat="45.159379431261264" lon="8.175988406082334"><ele>145.0</ele><time>2026-03-28T14:00:37.067Z</time></trkpt><trkpt lat="45.15938565923798" lon="8.175818677562425"><ele>145.0</ele><time>2026-03-28T14:00:38.067Z</time></trkpt><trkpt lat="45.159394300375986" lon="8.175643206064805"><ele>145.0</ele><time>2026-03-28T14:00:39.067Z</time></trkpt><trkpt lat="45.159404403858225" lon="8.175465375176262"><ele>145.0</ele><time>2026-03-28T14:00:40.067Z</time></trkpt><trkpt lat="45.15941407179382" lon="8.17528400577903"><ele>145.0</ele><time>2026-03-28T14:00:41.067Z</time></trkpt><trkpt lat="45.159421457002786" lon="8.175106772296674"><ele>145.0</ele><time>2026-03-28T14:00:42.067Z</time></trkpt><trkpt lat="45.15943043362524" lon="8.174928804662613"><ele>145.0</ele><time>2026-03-28T14:00:43.067Z</time></trkpt><trkpt lat="45.159442534395794" lon="8.174750607753813"><ele>145.0</ele><time>2026-03-28T14:00:44.067Z</time></trkpt><trkpt lat="45.159453316665186" lon="8.174570846174802"><ele>144.75</ele><time>2026-03-28T14:00:45.067Z</time></trkpt><trkpt lat="45.15945799276253" lon="8.174382512788222"><ele>144.5</ele><time>2026-03-28T14:00:46.067Z</time></trkpt><trkpt lat="45.159462120035414" lon="8.17418988272119"><ele>144.25</ele><time>2026-03-28T14:00:47.067Z</time></trkpt><trkpt lat="45.159468476571725" lon="8.173991962160791"><ele>144.0</ele><time>2026-03-28T14:00:48.067Z</time></trkpt><trkpt lat="45.15947991913158" lon="8.173791022687425"><ele>143.5</ele><time>2026-03-28T14:00:49.067Z</time></trkpt><trkpt lat="45.15948857579888" lon="8.173582035439402"><ele>143.0</ele><time>2026-03-28T14:00:50.067Z</time></trkpt><trkpt lat="45.159494729576124" lon="8.173368388806688"><ele>142.5</ele><time>2026-03-28T14:00:51.067Z</time></trkpt><trkpt lat="45.15950262544554" lon="8.173156545711308"><ele>142.0</ele><time>2026-03-28T14:00:52.067Z</time></trkpt><trkpt lat="45.159510775760985" lon="8.172938455720146"><ele>142.0</ele><time>2026-03-28T14:00:53.067Z</time></trkpt><trkpt lat="45.15952114240533" lon="8.17270864725338"><ele>142.0</ele><time>2026-03-28T14:00:54.068Z</time></trkpt><trkpt lat="45.15953091958517" lon="8.172471472117783"><ele>142.0</ele><time>2026-03-28T14:00:55.068Z</time></trkpt><trkpt lat="45.15953999268114" lon="8.172232165785234"><ele>142.0</ele><time>2026-03-28T14:00:56.068Z</time></trkpt><trkpt lat="45.15954915197694" lon="8.171994876212601"><ele>142.0</ele><time>2026-03-28T14:00:57.068Z</time></trkpt><trkpt lat="45.159558279252984" lon="8.171750325659183"><ele>142.0</ele><time>2026-03-28T14:00:58.068Z</time></trkpt><trkpt lat="45.15957172131914" lon="8.171509084058222"><ele>142.0</ele><time>2026-03-28T14:00:59.068Z</time></trkpt><trkpt lat="45.15958433846058" lon="8.171278902342548"><ele>142.0</ele><time>2026-03-28T14:01:00.068Z</time></trkpt><trkpt lat="45.15959900488543" lon="8.1710563492974"><ele>142.0</ele><time>2026-03-28T14:01:01.068Z</time></trkpt><trkpt lat="45.15962486478818" lon="8.170835171368402"><ele>141.66666666666669</ele><time>2026-03-28T14:01:02.068Z</time></trkpt><trkpt lat="45.15967376748652" lon="8.170616254734917"><ele>141.33333333333334</ele><time>2026-03-28T14:01:03.068Z</time></trkpt><trkpt lat="45.15975143075407" lon="8.170409061441909"><ele>141.0</ele><time>2026-03-28T14:01:04.068Z</time></trkpt><trkpt lat="45.159848928848255" lon="8.170207309107546"><ele>141.0</ele><time>2026-03-28T14:01:05.068Z</time></trkpt><trkpt lat="45.15996658960077" lon="8.170011911537081"><ele>141.0</ele><time>2026-03-28T14:01:06.068Z</time></trkpt><trkpt lat="45.16008576579314" lon="8.169818634177284"><ele>141.0</ele><time>2026-03-28T14:01:07.068Z</time></trkpt><trkpt lat="45.16020639291808" lon="8.16961126462521"><ele>141.0</ele><time>2026-03-28T14:01:08.068Z</time></trkpt><trkpt lat="45.16032834828794" lon="8.169394116741026"><ele>141.0</ele><time>2026-03-28T14:01:09.068Z</time></trkpt><trkpt lat="45.16045109221992" lon="8.169174924754747"><ele>141.0</ele><time>2026-03-28T14:01:10.068Z</time></trkpt><trkpt lat="45.160579696644206" lon="8.168946949736027"><ele>140.66666666666666</ele><time>2026-03-28T14:01:11.068Z</time></trkpt><trkpt lat="45.16071301843687" lon="8.16871965846153"><ele>140.33333333333331</ele><time>2026-03-28T14:01:12.068Z</time></trkpt><trkpt lat="45.16084817996954" lon="8.168486252672947"><ele>140.0</ele><time>2026-03-28T14:01:13.068Z</time></trkpt><trkpt lat="45.16098554819343" lon="8.168251472268079"><ele>140.66666666666666</ele><time>2026-03-28T14:01:14.068Z</time></trkpt><trkpt lat="45.161123980306925" lon="8.168018648785614"><ele>141.33333333333334</ele><time>2026-03-28T14:01:15.068Z</time></trkpt><trkpt lat="45.16126142201118" lon="8.167786849440914"><ele>142.0</ele><time>2026-03-28T14:01:16.068Z</time></trkpt><trkpt lat="45.1613930792968" lon="8.167563014888927"><ele>142.0</ele><time>2026-03-28T14:01:17.068Z</time></trkpt><trkpt lat="45.1615216550761" lon="8.167338354764881"><ele>142.0</ele><time>2026-03-28T14:01:18.068Z</time></trkpt><trkpt lat="45.16164901527073" lon="8.167117077829392"><ele>142.0</ele><time>2026-03-28T14:01:19.068Z</time></trkpt><trkpt lat="45.1617624326521" lon="8.16690005443709"><ele>142.66666666666669</ele><time>2026-03-28T14:01:20.068Z</time></trkpt><trkpt lat="45.16185487857056" lon="8.166678535109646"><ele>143.33333333333334</ele><time>2026-03-28T14:01:21.068Z</time></trkpt><trkpt lat="45.16192176897408" lon="8.166449454454314"><ele>144.0</ele><time>2026-03-28T14:01:22.068Z</time></trkpt><trkpt lat="45.16196095041123" lon="8.166211385177384"><ele>144.33333333333334</ele><time>2026-03-28T14:01:23.068Z</time></trkpt><trkpt lat="45.16196909792717" lon="8.165957496909375"><ele>144.66666666666669</ele><time>2026-03-28T14:01:24.068Z</time></trkpt><trkpt lat="45.16195634682222" lon="8.165692555306947"><ele>145.0</ele><time>2026-03-28T14:01:25.068Z</time></trkpt><trkpt lat="45.161944984036104" lon="8.165418314872086"><ele>145.66666666666669</ele><time>2026-03-28T14:01:26.068Z</time></trkpt><trkpt lat="45.16193169846943" lon="8.165137551564538"><ele>146.33333333333334</ele><time>2026-03-28T14:01:27.069Z</time></trkpt><trkpt lat="45.16191780545145" lon="8.164849757676727"><ele>147.0</ele><time>2026-03-28T14:01:28.069Z</time></trkpt><trkpt lat="45.16190256345293" lon="8.16455659251611"><ele>147.0</ele><time>2026-03-28T14:01:29.069Z</time></trkpt><trkpt lat="45.16188689753206" lon="8.16426059016939"><ele>147.0</ele><time>2026-03-28T14:01:30.069Z</time></trkpt><trkpt lat="45.161872668386785" lon="8.16395752762308"><ele>147.0</ele><time>2026-03-28T14:01:31.069Z</time></trkpt><trkpt lat="45.161859100208105" lon="8.163650473249406"><ele>145.66666666666666</ele><time>2026-03-28T14:01:32.069Z</time></trkpt><trkpt lat="45.16184493884764" lon="8.16333807335557"><ele>144.33333333333331</ele><time>2026-03-28T14:01:33.069Z</time></trkpt><trkpt lat="45.1618332293654" lon="8.163024065530228"><ele>143.0</ele><time>2026-03-28T14:01:34.069Z</time></trkpt><trkpt lat="45.161822463966864" lon="8.162710793347435"><ele>142.66666666666666</ele><time>2026-03-28T14:01:35.069Z</time></trkpt><trkpt lat="45.16180875551265" lon="8.162398548582084"><ele>142.33333333333334</ele><time>2026-03-28T14:01:36.069Z</time></trkpt><trkpt lat="45.16179277137849" lon="8.162092827620668"><ele>142.0</ele><time>2026-03-28T14:01:37.069Z</time></trkpt><trkpt lat="45.16177843496589" lon="8.161796291087994"><ele>142.33333333333334</ele><time>2026-03-28T14:01:38.069Z</time></trkpt><trkpt lat="45.1617675494568" lon="8.161502899328298"><ele>142.66666666666666</ele><time>2026-03-28T14:01:39.069Z</time></trkpt><trkpt lat="45.16175618761559" lon="8.161211961617212"><ele>143.0</ele><time>2026-03-28T14:01:40.069Z</time></trkpt><trkpt lat="45.16174312496726" lon="8.160932352629246"><ele>143.0</ele><time>2026-03-28T14:01:41.069Z</time></trkpt><trkpt lat="45.1617304487843" lon="8.160661383075242"><ele>143.0</ele><time>2026-03-28T14:01:42.069Z</time></trkpt><trkpt lat="45.16171929492975" lon="8.160390496263503"><ele>143.0</ele><time>2026-03-28T14:01:43.069Z</time></trkpt><trkpt lat="45.16170691037209" lon="8.160119864110179"><ele>143.0</ele><time>2026-03-28T14:01:44.069Z</time></trkpt><trkpt lat="45.16169364209687" lon="8.159851130138156"><ele>143.0</ele><time>2026-03-28T14:01:45.069Z</time></trkpt><trkpt lat="45.16168006009794" lon="8.159585628896867"><ele>143.0</ele><time>2026-03-28T14:01:46.069Z</time></trkpt><trkpt lat="45.16166830368477" lon="8.159318544310754"><ele>143.0</ele><time>2026-03-28T14:01:47.069Z</time></trkpt><trkpt lat="45.1616578693543" lon="8.15905576248498"><ele>143.0</ele><time>2026-03-28T14:01:48.069Z</time></trkpt><trkpt lat="45.16164293917133" lon="8.158794993147307"><ele>143.0</ele><time>2026-03-28T14:01:49.069Z</time></trkpt><trkpt lat="45.16162652524914" lon="8.158540635317033"><ele>143.33333333333331</ele><time>2026-03-28T14:01:50.069Z</time></trkpt><trkpt lat="45.16161216475007" lon="8.158288908613269"><ele>143.66666666666666</ele><time>2026-03-28T14:01:51.069Z</time></trkpt><trkpt lat="45.16159826647668" lon="8.158039282374556"><ele>144.0</ele><time>2026-03-28T14:01:52.069Z</time></trkpt><trkpt lat="45.161583796383326" lon="8.15779072703949"><ele>144.33333333333334</ele><time>2026-03-28T14:01:53.069Z</time></trkpt><trkpt lat="45.16156889901443" lon="8.157542469078669"><ele>144.66666666666669</ele><time>2026-03-28T14:01:54.069Z</time></trkpt><trkpt lat="45.16155301918864" lon="8.157291451202616"><ele>145.0</ele><time>2026-03-28T14:01:55.069Z</time></trkpt><trkpt lat="45.16153709041689" lon="8.157039556873315"><ele>144.66666666666669</ele><time>2026-03-28T14:01:56.069Z</time></trkpt><trkpt lat="45.16152466188553" lon="8.156786860763374"><ele>144.33333333333334</ele><time>2026-03-28T14:01:57.069Z</time></trkpt><trkpt lat="45.16151354922256" lon="8.15653038797742"><ele>144.0</ele><time>2026-03-28T14:01:58.069Z</time></trkpt><trkpt lat="45.16150154297767" lon="8.156270277015524"><ele>145.0</ele><time>2026-03-28T14:01:59.069Z</time></trkpt><trkpt lat="45.16149110697169" lon="8.156004475675218"><ele>146.0</ele><time>2026-03-28T14:02:00.07Z</time></trkpt><trkpt lat="45.16148052753263" lon="8.155736153944751"><ele>147.0</ele><time>2026-03-28T14:02:01.07Z</time></trkpt><trkpt lat="45.16147310857831" lon="8.15546683414668"><ele>147.33333333333334</ele><time>2026-03-28T14:02:02.07Z</time></trkpt><trkpt lat="45.16147679964082" lon="8.155194273545428"><ele>147.66666666666669</ele><time>2026-03-28T14:02:03.07Z</time></trkpt><trkpt lat="45.16148874034305" lon="8.154920769690667"><ele>148.0</ele><time>2026-03-28T14:02:04.07Z</time></trkpt><trkpt lat="45.161503381041385" lon="8.154645851897065"><ele>148.33333333333334</ele><time>2026-03-28T14:02:05.07Z</time></trkpt><trkpt lat="45.16151418612074" lon="8.154369997578486"><ele>148.66666666666666</ele><time>2026-03-28T14:02:06.07Z</time></trkpt><trkpt lat="45.161524438712796" lon="8.154092168624972"><ele>149.0</ele><time>2026-03-28T14:02:07.07Z</time></trkpt><trkpt lat="45.16153621335992" lon="8.153813270829223"><ele>147.66666666666666</ele><time>2026-03-28T14:02:08.07Z</time></trkpt><trkpt lat="45.1615473589101" lon="8.153533816634289"><ele>146.33333333333334</ele><time>2026-03-28T14:02:09.07Z</time></trkpt><trkpt lat="45.16155765698863" lon="8.15325517846711"><ele>145.0</ele><time>2026-03-28T14:02:10.07Z</time></trkpt><trkpt lat="45.16157173370216" lon="8.152974161497717"><ele>145.0</ele><time>2026-03-28T14:02:11.07Z</time></trkpt><trkpt lat="45.16158264056628" lon="8.152695821413435"><ele>145.0</ele><time>2026-03-28T14:02:12.07Z</time></trkpt><trkpt lat="45.16159351332962" lon="8.152414830926821"><ele>145.0</ele><time>2026-03-28T14:02:13.07Z</time></trkpt><trkpt lat="45.16160608820172" lon="8.152131493308435"><ele>145.66666666666669</ele><time>2026-03-28T14:02:14.07Z</time></trkpt><trkpt lat="45.161617715277615" lon="8.151848228811389"><ele>146.33333333333334</ele><time>2026-03-28T14:02:15.07Z</time></trkpt><trkpt lat="45.16163096941679" lon="8.151570638905913"><ele>147.0</ele><time>2026-03-28T14:02:16.07Z</time></trkpt><trkpt lat="45.16164399075612" lon="8.151296221887286"><ele>148.66666666666666</ele><time>2026-03-28T14:02:17.07Z</time></trkpt><trkpt lat="45.161657021043986" lon="8.15102939586023"><ele>150.33333333333331</ele><time>2026-03-28T14:02:18.07Z</time></trkpt><trkpt lat="45.161671157842505" lon="8.15077340100503"><ele>152.0</ele><time>2026-03-28T14:02:19.07Z</time></trkpt><trkpt lat="45.161694341549754" lon="8.150516220469662"><ele>154.33333333333331</ele><time>2026-03-28T14:02:20.07Z</time></trkpt><trkpt lat="45.161733503584564" lon="8.150265102757519"><ele>156.66666666666666</ele><time>2026-03-28T14:02:21.07Z</time></trkpt><trkpt lat="45.161780756675604" lon="8.150014155066893"><ele>159.0</ele><time>2026-03-28T14:02:22.07Z</time></trkpt><trkpt lat="45.161841291681355" lon="8.149758088797112"><ele>160.33333333333334</ele><time>2026-03-28T14:02:23.07Z</time></trkpt><trkpt lat="45.16190239025495" lon="8.149498756164538"><ele>161.66666666666669</ele><time>2026-03-28T14:02:24.07Z</time></trkpt><trkpt lat="45.16195491741568" lon="8.149235974621647"><ele>163.0</ele><time>2026-03-28T14:02:25.069Z</time></trkpt><trkpt lat="45.16201146033702" lon="8.148972562375402"><ele>164.66666666666669</ele><time>2026-03-28T14:02:26.069Z</time></trkpt><trkpt lat="45.16207405722143" lon="8.148708847807914"><ele>166.33333333333334</ele><time>2026-03-28T14:02:27.069Z</time></trkpt><trkpt lat="45.162134248467744" lon="8.14846125809899"><ele>168.0</ele><time>2026-03-28T14:02:28.068Z</time></trkpt><trkpt lat="45.1621819060468" lon="8.148228263297431"><ele>167.66666666666666</ele><time>2026-03-28T14:02:29.069Z</time></trkpt><trkpt lat="45.162224150344" lon="8.147997708836133"><ele>167.33333333333331</ele><time>2026-03-28T14:02:30.069Z</time></trkpt><trkpt lat="45.16224648552077" lon="8.147758611433908"><ele>167.0</ele><time>2026-03-28T14:02:31.069Z</time></trkpt><trkpt lat="45.16226449883434" lon="8.147500999226892"><ele>166.0</ele><time>2026-03-28T14:02:32.069Z</time></trkpt><trkpt lat="45.162273064129835" lon="8.147230791291594"><ele>165.0</ele><time>2026-03-28T14:02:33.069Z</time></trkpt><trkpt lat="45.16225106934914" lon="8.146953881539961"><ele>164.0</ele><time>2026-03-28T14:02:34.068Z</time></trkpt><trkpt lat="45.162213726664" lon="8.146669448813913"><ele>160.66666666666666</ele><time>2026-03-28T14:02:35.068Z</time></trkpt><trkpt lat="45.162168920434034" lon="8.146378540751178"><ele>157.33333333333334</ele><time>2026-03-28T14:02:36.068Z</time></trkpt><trkpt lat="45.16211761226699" lon="8.146077712782064"><ele>154.0</ele><time>2026-03-28T14:02:37.069Z</time></trkpt><trkpt lat="45.16207273880953" lon="8.145765775035569"><ele>150.5</ele><time>2026-03-28T14:02:38.069Z</time></trkpt><trkpt lat="45.16203047880734" lon="8.145448911457438"><ele>147.0</ele><time>2026-03-28T14:02:39.069Z</time></trkpt><trkpt lat="45.161982484000426" lon="8.145131671118941"><ele>146.0</ele><time>2026-03-28T14:02:40.069Z</time></trkpt><trkpt lat="45.161934302092114" lon="8.14481286943958"><ele>145.0</ele><time>2026-03-28T14:02:41.069Z</time></trkpt><trkpt lat="45.1618895747128" lon="8.14449162762499"><ele>145.0</ele><time>2026-03-28T14:02:42.069Z</time></trkpt><trkpt lat="45.16184061654161" lon="8.144174007441997"><ele>145.0</ele><time>2026-03-28T14:02:43.069Z</time></trkpt><trkpt lat="45.16178790527816" lon="8.143858289378608"><ele>145.5</ele><time>2026-03-28T14:02:44.069Z</time></trkpt><trkpt lat="45.16173886296572" lon="8.143541992700522"><ele>146.0</ele><time>2026-03-28T14:02:45.069Z</time></trkpt><trkpt lat="45.161695741521015" lon="8.14322454754388"><ele>145.66666666666666</ele><time>2026-03-28T14:02:46.069Z</time></trkpt><trkpt lat="45.16165930375989" lon="8.142907294401027"><ele>145.33333333333334</ele><time>2026-03-28T14:02:47.069Z</time></trkpt><trkpt lat="45.161634361936926" lon="8.142593614781019"><ele>145.0</ele><time>2026-03-28T14:02:48.069Z</time></trkpt><trkpt lat="45.161616203082396" lon="8.142285115528761"><ele>145.0</ele><time>2026-03-28T14:02:49.069Z</time></trkpt><trkpt lat="45.161599778306375" lon="8.14197344303086"><ele>145.0</ele><time>2026-03-28T14:02:50.069Z</time></trkpt><trkpt lat="45.161580324478415" lon="8.141659144568633"><ele>145.0</ele><time>2026-03-28T14:02:51.069Z</time></trkpt><trkpt lat="45.161561030308725" lon="8.141351180272085"><ele>145.33333333333334</ele><time>2026-03-28T14:02:52.069Z</time></trkpt><trkpt lat="45.16154250668684" lon="8.141042198925936"><ele>145.66666666666666</ele><time>2026-03-28T14:02:53.069Z</time></trkpt><trkpt lat="45.16152575520654" lon="8.140736190697295"><ele>146.0</ele><time>2026-03-28T14:02:54.069Z</time></trkpt><trkpt lat="45.16150894006372" lon="8.140428194309276"><ele>146.0</ele><time>2026-03-28T14:02:55.069Z</time></trkpt><trkpt lat="45.16149318706695" lon="8.14011639189997"><ele>146.0</ele><time>2026-03-28T14:02:56.069Z</time></trkpt><trkpt lat="45.16147567731553" lon="8.139802120280752"><ele>146.0</ele><time>2026-03-28T14:02:57.069Z</time></trkpt><trkpt lat="45.16145807433374" lon="8.13948583792496"><ele>146.0</ele><time>2026-03-28T14:02:58.069Z</time></trkpt><trkpt lat="45.16144119969211" lon="8.139166350748438"><ele>146.0</ele><time>2026-03-28T14:02:59.069Z</time></trkpt><trkpt lat="45.16142528131922" lon="8.138844517948169"><ele>146.0</ele><time>2026-03-28T14:03:00.069Z</time></trkpt><trkpt lat="45.161409129465206" lon="8.138520916879742"><ele>146.0</ele><time>2026-03-28T14:03:01.069Z</time></trkpt><trkpt lat="45.161394190385124" lon="8.138197026835218"><ele>146.0</ele><time>2026-03-28T14:03:02.069Z</time></trkpt><trkpt lat="45.1613767865702" lon="8.137871124602459"><ele>146.0</ele><time>2026-03-28T14:03:03.069Z</time></trkpt><trkpt lat="45.1613587852451" lon="8.137544167437104"><ele>146.0</ele><time>2026-03-28T14:03:04.069Z</time></trkpt><trkpt lat="45.161339674091266" lon="8.137220846099801"><ele>146.0</ele><time>2026-03-28T14:03:05.069Z</time></trkpt><trkpt lat="45.161321408550876" lon="8.136897877439024"><ele>146.0</ele><time>2026-03-28T14:03:06.069Z</time></trkpt><trkpt lat="45.16130285812286" lon="8.136578787663037"><ele>146.0</ele><time>2026-03-28T14:03:07.069Z</time></trkpt><trkpt lat="45.16128365695909" lon="8.136258923964215"><ele>146.0</ele><time>2026-03-28T14:03:08.069Z</time></trkpt><trkpt lat="45.161264834970765" lon="8.135940899802508"><ele>146.0</ele><time>2026-03-28T14:03:09.069Z</time></trkpt><trkpt lat="45.1612501780427" lon="8.135639638092947"><ele>146.0</ele><time>2026-03-28T14:03:10.069Z</time></trkpt><trkpt lat="45.1612377191885" lon="8.135349020469732"><ele>146.0</ele><time>2026-03-28T14:03:11.07Z</time></trkpt><trkpt lat="45.16122308123634" lon="8.135076697274386"><ele>146.0</ele><time>2026-03-28T14:03:12.07Z</time></trkpt><trkpt lat="45.16121241625713" lon="8.134815050961855"><ele>146.0</ele><time>2026-03-28T14:03:13.07Z</time></trkpt><trkpt lat="45.16120201578786" lon="8.134567622984214"><ele>146.33333333333331</ele><time>2026-03-28T14:03:14.07Z</time></trkpt><trkpt lat="45.1611901178137" lon="8.134324935747802"><ele>146.66666666666666</ele><time>2026-03-28T14:03:15.07Z</time></trkpt><trkpt lat="45.16117899071302" lon="8.13409395652475"><ele>147.0</ele><time>2026-03-28T14:03:16.07Z</time></trkpt><trkpt lat="45.16116872995959" lon="8.133877819899977"><ele>147.0</ele><time>2026-03-28T14:03:17.07Z</time></trkpt><trkpt lat="45.16116328876385" lon="8.133679394949016"><ele>147.0</ele><time>2026-03-28T14:03:18.07Z</time></trkpt><trkpt lat="45.16116635610621" lon="8.133497040056861"><ele>147.0</ele><time>2026-03-28T14:03:19.07Z</time></trkpt><trkpt lat="45.16117058970931" lon="8.133339076562146"><ele>147.0</ele><time>2026-03-28T14:03:20.07Z</time></trkpt><trkpt lat="45.16117294153705" lon="8.133197780822965"><ele>147.14285714285714</ele><time>2026-03-28T14:03:21.07Z</time></trkpt><trkpt lat="45.16116315704904" lon="8.13307744947485"><ele>147.28571428571428</ele><time>2026-03-28T14:03:22.07Z</time></trkpt><trkpt lat="45.16113727184321" lon="8.132980617479738"><ele>147.42857142857144</ele><time>2026-03-28T14:03:23.07Z</time></trkpt><trkpt lat="45.16109709598243" lon="8.13290867368381"><ele>147.57142857142856</ele><time>2026-03-28T14:03:24.07Z</time></trkpt><trkpt lat="45.161044539028865" lon="8.132857386093123"><ele>147.71428571428572</ele><time>2026-03-28T14:03:25.07Z</time></trkpt><trkpt lat="45.16098295467932" lon="8.132824579864375"><ele>147.85714285714286</ele><time>2026-03-28T14:03:26.07Z</time></trkpt><trkpt lat="45.160912439243994" lon="8.132793582792733"><ele>148.0</ele><time>2026-03-28T14:03:27.07Z</time></trkpt><trkpt lat="45.160833759004284" lon="8.132756979878726"><ele>148.0</ele><time>2026-03-28T14:03:28.07Z</time></trkpt><trkpt lat="45.16074460691255" lon="8.132713973620957"><ele>148.0</ele><time>2026-03-28T14:03:29.07Z</time></trkpt><trkpt lat="45.16064149389778" lon="8.13265980765411"><ele>148.0</ele><time>2026-03-28T14:03:30.07Z</time></trkpt><trkpt lat="45.16052854642403" lon="8.13259704586932"><ele>148.0</ele><time>2026-03-28T14:03:31.07Z</time></trkpt><trkpt lat="45.160405698481405" lon="8.132528401780048"><ele>148.0</ele><time>2026-03-28T14:03:32.07Z</time></trkpt><trkpt lat="45.160287215887074" lon="8.132462130809989"><ele>148.0</ele><time>2026-03-28T14:03:33.07Z</time></trkpt><trkpt lat="45.160160731669826" lon="8.132396192113545"><ele>148.0</ele><time>2026-03-28T14:03:34.07Z</time></trkpt><trkpt lat="45.160030736137514" lon="8.132326482512797"><ele>148.0</ele><time>2026-03-28T14:03:35.07Z</time></trkpt><trkpt lat="45.15989668654051" lon="8.132257382047095"><ele>149.5</ele><time>2026-03-28T14:03:36.07Z</time></trkpt><trkpt lat="45.15976074585393" lon="8.13218795086779"><ele>151.0</ele><time>2026-03-28T14:03:37.07Z</time></trkpt><trkpt lat="45.159629664499256" lon="8.1321230469977"><ele>152.5</ele><time>2026-03-28T14:03:38.07Z</time></trkpt><trkpt lat="45.159501993053894" lon="8.13205860484066"><ele>154.0</ele><time>2026-03-28T14:03:39.07Z</time></trkpt><trkpt lat="45.159380140324885" lon="8.13198722190773"><ele>154.0</ele><time>2026-03-28T14:03:40.07Z</time></trkpt><trkpt lat="45.15926150689189" lon="8.131908874610488"><ele>154.0</ele><time>2026-03-28T14:03:41.07Z</time></trkpt><trkpt lat="45.1591483901925" lon="8.131822760200897"><ele>154.0</ele><time>2026-03-28T14:03:42.07Z</time></trkpt><trkpt lat="45.15904694044214" lon="8.131726066520985"><ele>154.0</ele><time>2026-03-28T14:03:43.07Z</time></trkpt><trkpt lat="45.15895280729678" lon="8.131630165833526"><ele>154.75</ele><time>2026-03-28T14:03:44.071Z</time></trkpt><trkpt lat="45.158852940711604" lon="8.13154784506693"><ele>155.5</ele><time>2026-03-28T14:03:45.071Z</time></trkpt><trkpt lat="45.15874823355531" lon="8.131478450333962"><ele>156.25</ele><time>2026-03-28T14:03:46.071Z</time></trkpt><trkpt lat="45.158634307483446" lon="8.131429785479732"><ele>157.0</ele><time>2026-03-28T14:03:47.071Z</time></trkpt><trkpt lat="45.158517252623" lon="8.131399731192511"><ele>157.0</ele><time>2026-03-28T14:03:48.071Z</time></trkpt><trkpt lat="45.15839774279584" lon="8.131384601913387"><ele>157.0</ele><time>2026-03-28T14:03:49.071Z</time></trkpt><trkpt lat="45.15827604539873" lon="8.131360847312624"><ele>157.0</ele><time>2026-03-28T14:03:50.071Z</time></trkpt><trkpt lat="45.15815808484042" lon="8.131327840693684"><ele>157.0</ele><time>2026-03-28T14:03:51.071Z</time></trkpt><trkpt lat="45.15804782793331" lon="8.131276134239956"><ele>157.4</ele><time>2026-03-28T14:03:52.071Z</time></trkpt><trkpt lat="45.1579431955329" lon="8.131229244528651"><ele>157.79999999999998</ele><time>2026-03-28T14:03:53.071Z</time></trkpt><trkpt lat="45.15784014795797" lon="8.131199753465117"><ele>158.2</ele><time>2026-03-28T14:03:54.071Z</time></trkpt><trkpt lat="45.15773728205136" lon="8.131180896486217"><ele>158.6</ele><time>2026-03-28T14:03:55.071Z</time></trkpt><trkpt lat="45.15762719198579" lon="8.131173291316221"><ele>159.0</ele><time>2026-03-28T14:03:56.071Z</time></trkpt><trkpt lat="45.15750986378366" lon="8.131152373642351"><ele>159.0</ele><time>2026-03-28T14:03:57.071Z</time></trkpt><trkpt lat="45.1573842981925" lon="8.131122147779491"><ele>159.0</ele><time>2026-03-28T14:03:58.071Z</time></trkpt><trkpt lat="45.157251703808484" lon="8.131088131868458"><ele>159.0</ele><time>2026-03-28T14:03:59.071Z</time></trkpt><trkpt lat="45.15711756308908" lon="8.131056579068824"><ele>159.0</ele><time>2026-03-28T14:04:00.071Z</time></trkpt><trkpt lat="45.156989713502796" lon="8.131036853168329"><ele>159.0</ele><time>2026-03-28T14:04:01.071Z</time></trkpt><trkpt lat="45.156873068238696" lon="8.131018014554652"><ele>159.0</ele><time>2026-03-28T14:04:02.071Z</time></trkpt><trkpt lat="45.15676815597777" lon="8.130996323210415"><ele>159.0</ele><time>2026-03-28T14:04:03.071Z</time></trkpt><trkpt lat="45.15666984869378" lon="8.130971708955267"><ele>159.0</ele><time>2026-03-28T14:04:04.071Z</time></trkpt><trkpt lat="45.15657402709732" lon="8.130942508628042"><ele>159.0</ele><time>2026-03-28T14:04:05.071Z</time></trkpt><trkpt lat="45.15646763326392" lon="8.130911852095936"><ele>159.0</ele><time>2026-03-28T14:04:06.071Z</time></trkpt><trkpt lat="45.156349170412525" lon="8.130866405214308"><ele>159.0</ele><time>2026-03-28T14:04:07.071Z</time></trkpt><trkpt lat="45.1562201109246" lon="8.130816373192111"><ele>159.0</ele><time>2026-03-28T14:04:08.071Z</time></trkpt><trkpt lat="45.156083125219" lon="8.130760894933637"><ele>159.0</ele><time>2026-03-28T14:04:09.071Z</time></trkpt><trkpt lat="45.15594777273085" lon="8.130704343957039"><ele>160.33333333333334</ele><time>2026-03-28T14:04:10.071Z</time></trkpt><trkpt lat="45.15580782558751" lon="8.130643808263992"><ele>161.66666666666669</ele><time>2026-03-28T14:04:11.071Z</time></trkpt><trkpt lat="45.15566168773742" lon="8.130578147812104"><ele>163.0</ele><time>2026-03-28T14:04:12.071Z</time></trkpt><trkpt lat="45.15551293991825" lon="8.130502109235032"><ele>163.0</ele><time>2026-03-28T14:04:13.071Z</time></trkpt><trkpt lat="45.155369513980645" lon="8.130410832498766"><ele>163.0</ele><time>2026-03-28T14:04:14.071Z</time></trkpt><trkpt lat="45.15522940347736" lon="8.130306551574176"><ele>163.0</ele><time>2026-03-28T14:04:15.071Z</time></trkpt><trkpt lat="45.15509042027129" lon="8.130208350936702"><ele>163.0</ele><time>2026-03-28T14:04:16.071Z</time></trkpt><trkpt lat="45.154958349221545" lon="8.13012146785974"><ele>163.0</ele><time>2026-03-28T14:04:17.071Z</time></trkpt><trkpt lat="45.154833789865364" lon="8.130053371114636"><ele>163.0</ele><time>2026-03-28T14:04:18.072Z</time></trkpt><trkpt lat="45.15471565913903" lon="8.129995380843257"><ele>163.0</ele><time>2026-03-28T14:04:19.072Z</time></trkpt><trkpt lat="45.154599189337056" lon="8.129946241320507"><ele>163.25</ele><time>2026-03-28T14:04:20.072Z</time></trkpt><trkpt lat="45.15448754411029" lon="8.129871909970996"><ele>163.5</ele><time>2026-03-28T14:04:21.072Z</time></trkpt><trkpt lat="45.154381180872754" lon="8.12977748254274"><ele>163.75</ele><time>2026-03-28T14:04:22.072Z</time></trkpt><trkpt lat="45.15427922456717" lon="8.129669190193546"><ele>164.0</ele><time>2026-03-28T14:04:23.072Z</time></trkpt><trkpt lat="45.15417776053162" lon="8.129557427364258"><ele>164.0</ele><time>2026-03-28T14:04:24.072Z</time></trkpt><trkpt lat="45.154077851196654" lon="8.129442872904708"><ele>164.0</ele><time>2026-03-28T14:04:25.072Z</time></trkpt><trkpt lat="45.15398220954419" lon="8.129342784698961"><ele>164.0</ele><time>2026-03-28T14:04:26.072Z</time></trkpt><trkpt lat="45.15389450315223" lon="8.129247961021491"><ele>164.0</ele><time>2026-03-28T14:04:27.072Z</time></trkpt><trkpt lat="45.153811824680965" lon="8.129157778687627"><ele>163.16666666666666</ele><time>2026-03-28T14:04:28.072Z</time></trkpt><trkpt lat="45.15373641401736" lon="8.129076023951336"><ele>162.33333333333331</ele><time>2026-03-28T14:04:29.072Z</time></trkpt><trkpt lat="45.15367200977793" lon="8.129002491080685"><ele>161.5</ele><time>2026-03-28T14:04:30.072Z</time></trkpt><trkpt lat="45.15361478728964" lon="8.128937114822397"><ele>160.66666666666666</ele><time>2026-03-28T14:04:31.07Z</time></trkpt><trkpt lat="45.1535579435755" lon="8.128861303301486"><ele>159.83333333333334</ele><time>2026-03-28T14:04:32.07Z</time></trkpt><trkpt lat="45.153514746296096" lon="8.128751054191673"><ele>159.0</ele><time>2026-03-28T14:04:33.07Z</time></trkpt><trkpt lat="45.15348792435581" lon="8.128616637695744"><ele>161.5</ele><time>2026-03-28T14:04:34.07Z</time></trkpt><trkpt lat="45.15348002741016" lon="8.12846033443139"><ele>164.0</ele><time>2026-03-28T14:04:35.07Z</time></trkpt><trkpt lat="45.153480605052096" lon="8.12829308361386"><ele>166.5</ele><time>2026-03-28T14:04:36.071Z</time></trkpt><trkpt lat="45.15348016300077" lon="8.12811942236955"><ele>169.0</ele><time>2026-03-28T14:04:37.07Z</time></trkpt><trkpt lat="45.15347789244902" lon="8.12793319915351"><ele>170.5</ele><time>2026-03-28T14:04:38.071Z</time></trkpt><trkpt lat="45.153475182029766" lon="8.127737797150195"><ele>172.0</ele><time>2026-03-28T14:04:39.071Z</time></trkpt><trkpt lat="45.15347165445605" lon="8.127533730924181"><ele>173.5</ele><time>2026-03-28T14:04:40.07Z</time></trkpt><trkpt lat="45.153472468135725" lon="8.1273202146105"><ele>175.0</ele><time>2026-03-28T14:04:41.071Z</time></trkpt><trkpt lat="45.153465542329954" lon="8.127098144278037"><ele>177.25</ele><time>2026-03-28T14:04:42.071Z</time></trkpt><trkpt lat="45.15346195440121" lon="8.126896869238637"><ele>179.5</ele><time>2026-03-28T14:04:43.071Z</time></trkpt><trkpt lat="45.15346137181547" lon="8.12671979457245"><ele>181.75</ele><time>2026-03-28T14:04:44.071Z</time></trkpt><trkpt lat="45.15346952890023" lon="8.126560499233973"><ele>184.0</ele><time>2026-03-28T14:04:45.071Z</time></trkpt><trkpt lat="45.1534787174393" lon="8.126424180561242"><ele>184.66666666666669</ele><time>2026-03-28T14:04:46.071Z</time></trkpt><trkpt lat="45.15348227340436" lon="8.126307520366995"><ele>185.33333333333334</ele><time>2026-03-28T14:04:47.071Z</time></trkpt><trkpt lat="45.153476833101045" lon="8.126209090841112"><ele>186.0</ele><time>2026-03-28T14:04:48.071Z</time></trkpt><trkpt lat="45.1534310465147" lon="8.126100028805997"><ele>186.66666666666666</ele><time>2026-03-28T14:04:50.071Z</time></trkpt><trkpt lat="45.15335756483166" lon="8.126115386788284"><ele>187.33333333333331</ele><time>2026-03-28T14:04:52.071Z</time></trkpt><trkpt lat="45.153311583518516" lon="8.12623196909032"><ele>188.0</ele><time>2026-03-28T14:04:54.071Z</time></trkpt><trkpt lat="45.153296532163296" lon="8.126365497847997"><ele>188.0</ele><time>2026-03-28T14:04:55.071Z</time></trkpt><trkpt lat="45.153272032424084" lon="8.126499781130857"><ele>188.0</ele><time>2026-03-28T14:04:56.071Z</time></trkpt><trkpt lat="45.1532387146011" lon="8.1266359475098"><ele>188.0</ele><time>2026-03-28T14:04:57.071Z</time></trkpt><trkpt lat="45.15319070876658" lon="8.126794693620097"><ele>188.0</ele><time>2026-03-28T14:04:58.071Z</time></trkpt><trkpt lat="45.153133928282315" lon="8.126955544622003"><ele>188.0</ele><time>2026-03-28T14:04:59.072Z</time></trkpt><trkpt lat="45.15307594528936" lon="8.12709123237805"><ele>189.60000000000002</ele><time>2026-03-28T14:05:00.072Z</time></trkpt><trkpt lat="45.153007219509874" lon="8.127194386632498"><ele>191.20000000000002</ele><time>2026-03-28T14:05:01.072Z</time></trkpt><trkpt lat="45.15292031714455" lon="8.127269125348038"><ele>192.8</ele><time>2026-03-28T14:05:02.072Z</time></trkpt><trkpt lat="45.15281957185481" lon="8.127325586531757"><ele>194.4</ele><time>2026-03-28T14:05:03.072Z</time></trkpt><trkpt lat="45.15270143938706" lon="8.127348251464474"><ele>196.0</ele><time>2026-03-28T14:05:04.072Z</time></trkpt><trkpt lat="45.15259040199363" lon="8.12734221536912"><ele>196.0</ele><time>2026-03-28T14:05:05.072Z</time></trkpt><trkpt lat="45.152482036196105" lon="8.127321963434033"><ele>196.0</ele><time>2026-03-28T14:05:06.072Z</time></trkpt><trkpt lat="45.15237302742733" lon="8.127307352240816"><ele>196.0</ele><time>2026-03-28T14:05:07.072Z</time></trkpt><trkpt lat="45.15226837498696" lon="8.127291189484163"><ele>196.0</ele><time>2026-03-28T14:05:08.072Z</time></trkpt><trkpt lat="45.15216230669755" lon="8.127279158216457"><ele>196.0</ele><time>2026-03-28T14:05:09.072Z</time></trkpt><trkpt lat="45.1520540995865" lon="8.127262482491004"><ele>195.8</ele><time>2026-03-28T14:05:10.072Z</time></trkpt><trkpt lat="45.15194149702892" lon="8.127256710085202"><ele>195.60000000000002</ele><time>2026-03-28T14:05:11.072Z</time></trkpt><trkpt lat="45.15183231617913" lon="8.127255458091776"><ele>195.4</ele><time>2026-03-28T14:05:12.072Z</time></trkpt><trkpt lat="45.15172995381993" lon="8.127256137353157"><ele>195.2</ele><time>2026-03-28T14:05:13.072Z</time></trkpt><trkpt lat="45.151623476208165" lon="8.127252850972596"><ele>195.0</ele><time>2026-03-28T14:05:14.072Z</time></trkpt><trkpt lat="45.15151859151266" lon="8.127247461740513"><ele>196.33333333333334</ele><time>2026-03-28T14:05:15.072Z</time></trkpt><trkpt lat="45.15142573473722" lon="8.127253697131183"><ele>197.66666666666669</ele><time>2026-03-28T14:05:16.072Z</time></trkpt><trkpt lat="45.15134214951129" lon="8.12725826700609"><ele>199.0</ele><time>2026-03-28T14:05:17.072Z</time></trkpt><trkpt lat="45.15126386840583" lon="8.127261984771566"><ele>200.33333333333334</ele><time>2026-03-28T14:05:18.072Z</time></trkpt><trkpt lat="45.15118755189716" lon="8.127260284597275"><ele>201.66666666666669</ele><time>2026-03-28T14:05:19.072Z</time></trkpt><trkpt lat="45.151115297657526" lon="8.127263720368672"><ele>203.0</ele><time>2026-03-28T14:05:20.072Z</time></trkpt><trkpt lat="45.151054339356584" lon="8.127291504797947"><ele>200.4</ele><time>2026-03-28T14:05:21.072Z</time></trkpt><trkpt lat="45.15099595471371" lon="8.12742237469077"><ele>197.8</ele><time>2026-03-28T14:05:23.072Z</time></trkpt><trkpt lat="45.150954130378665" lon="8.127531238577683"><ele>195.2</ele><time>2026-03-28T14:05:25.072Z</time></trkpt><trkpt lat="45.15082977224997" lon="8.127576674702343"><ele>192.6</ele><time>2026-03-28T14:05:27.072Z</time></trkpt><trkpt lat="45.15075175511542" lon="8.127572238480683"><ele>190.0</ele><time>2026-03-28T14:05:28.072Z</time></trkpt><trkpt lat="45.15067633491567" lon="8.127583182192208"><ele>190.0</ele><time>2026-03-28T14:05:29.072Z</time></trkpt><trkpt lat="45.1506092443136" lon="8.127593056366187"><ele>190.0</ele><time>2026-03-28T14:05:30.072Z</time></trkpt><trkpt lat="45.150490594770964" lon="8.127628364517863"><ele>190.0</ele><time>2026-03-28T14:05:32.073Z</time></trkpt><trkpt lat="45.15037834183821" lon="8.12756792573133"><ele>190.0</ele><time>2026-03-28T14:05:34.073Z</time></trkpt><trkpt lat="45.15031697853998" lon="8.127543483034707"><ele>190.0</ele><time>2026-03-28T14:05:35.073Z</time></trkpt><trkpt lat="45.15024648974234" lon="8.127538047339556"><ele>190.0</ele><time>2026-03-28T14:05:36.073Z</time></trkpt><trkpt lat="45.15016306778832" lon="8.127577587598179"><ele>190.0</ele><time>2026-03-28T14:05:37.073Z</time></trkpt><trkpt lat="45.15009926034857" lon="8.127604730638161"><ele>190.0</ele><time>2026-03-28T14:05:38.073Z</time></trkpt><trkpt lat="45.15000763266536" lon="8.127755838242473"><ele>190.0</ele><time>2026-03-28T14:05:40.073Z</time></trkpt><trkpt lat="45.149956140151616" lon="8.12783016931286"><ele>190.0</ele><time>2026-03-28T14:05:41.073Z</time></trkpt><trkpt lat="45.149889196684036" lon="8.1278951079186"><ele>190.0</ele><time>2026-03-28T14:05:42.073Z</time></trkpt><trkpt lat="45.14981641973878" lon="8.127967641393115"><ele>190.8</ele><time>2026-03-28T14:05:43.073Z</time></trkpt><trkpt lat="45.1497309039207" lon="8.12804760934224"><ele>191.6</ele><time>2026-03-28T14:05:44.073Z</time></trkpt><trkpt lat="45.14965403856335" lon="8.128125121226317"><ele>192.39999999999998</ele><time>2026-03-28T14:05:45.073Z</time></trkpt><trkpt lat="45.14958362065527" lon="8.12820293954594"><ele>193.2</ele><time>2026-03-28T14:05:46.073Z</time></trkpt><trkpt lat="45.1495108141925" lon="8.128270794562212"><ele>194.0</ele><time>2026-03-28T14:05:47.073Z</time></trkpt><trkpt lat="45.14942865441833" lon="8.128322001223227"><ele>191.83333333333334</ele><time>2026-03-28T14:05:48.073Z</time></trkpt><trkpt lat="45.149344265751914" lon="8.128354270018637"><ele>189.66666666666669</ele><time>2026-03-28T14:05:49.073Z</time></trkpt><trkpt lat="45.14926498618845" lon="8.12837359762175"><ele>187.5</ele><time>2026-03-28T14:05:50.073Z</time></trkpt><trkpt lat="45.149189918025606" lon="8.128379516489474"><ele>185.33333333333334</ele><time>2026-03-28T14:05:51.073Z</time></trkpt><trkpt lat="45.14910677574229" lon="8.128370088477338"><ele>183.16666666666669</ele><time>2026-03-28T14:05:52.073Z</time></trkpt><trkpt lat="45.14901646375682" lon="8.128325675769522"><ele>181.0</ele><time>2026-03-28T14:05:53.073Z</time></trkpt><trkpt lat="45.14892005257806" lon="8.128258731023475"><ele>185.25</ele><time>2026-03-28T14:05:54.073Z</time></trkpt><trkpt lat="45.148814359047506" lon="8.128199312630503"><ele>189.5</ele><time>2026-03-28T14:05:55.073Z</time></trkpt><trkpt lat="45.14869546818803" lon="8.128157533379332"><ele>193.75</ele><time>2026-03-28T14:05:56.073Z</time></trkpt><trkpt lat="45.148567934517395" lon="8.12815273786114"><ele>198.0</ele><time>2026-03-28T14:05:57.073Z</time></trkpt><trkpt lat="45.14842767076179" lon="8.128168151408657"><ele>198.0</ele><time>2026-03-28T14:05:58.073Z</time></trkpt><trkpt lat="45.14827856527496" lon="8.12816412829614"><ele>198.0</ele><time>2026-03-28T14:05:59.073Z</time></trkpt><trkpt lat="45.148127998211976" lon="8.128132771076201"><ele>198.0</ele><time>2026-03-28T14:06:00.073Z</time></trkpt><trkpt lat="45.14796546233495" lon="8.128105945078955"><ele>195.33333333333334</ele><time>2026-03-28T14:06:01.073Z</time></trkpt><trkpt lat="45.14780015710877" lon="8.128095270046217"><ele>192.66666666666669</ele><time>2026-03-28T14:06:02.073Z</time></trkpt><trkpt lat="45.14763997109941" lon="8.128092602497757"><ele>190.0</ele><time>2026-03-28T14:06:03.073Z</time></trkpt><trkpt lat="45.14747761043986" lon="8.128100411341249"><ele>187.66666666666669</ele><time>2026-03-28T14:06:04.073Z</time></trkpt><trkpt lat="45.1473155028287" lon="8.128084425587597"><ele>185.33333333333334</ele><time>2026-03-28T14:06:05.073Z</time></trkpt><trkpt lat="45.1471537578894" lon="8.128061896954629"><ele>183.0</ele><time>2026-03-28T14:06:06.074Z</time></trkpt><trkpt lat="45.146997637746495" lon="8.128025391436381"><ele>183.0</ele><time>2026-03-28T14:06:07.074Z</time></trkpt><trkpt lat="45.14684335192464" lon="8.128009564957976"><ele>183.0</ele><time>2026-03-28T14:06:08.074Z</time></trkpt><trkpt lat="45.146686658001634" lon="8.128006973257389"><ele>183.0</ele><time>2026-03-28T14:06:09.074Z</time></trkpt><trkpt lat="45.14652653010497" lon="8.128045285506554"><ele>181.0</ele><time>2026-03-28T14:06:10.074Z</time></trkpt><trkpt lat="45.146367875946616" lon="8.128100229662422"><ele>179.0</ele><time>2026-03-28T14:06:11.074Z</time></trkpt><trkpt lat="45.14621418795448" lon="8.128163029686657"><ele>177.0</ele><time>2026-03-28T14:06:12.074Z</time></trkpt><trkpt lat="45.14606763016485" lon="8.128209529028512"><ele>177.0</ele><time>2026-03-28T14:06:13.074Z</time></trkpt><trkpt lat="45.14592211026006" lon="8.128234362385557"><ele>177.0</ele><time>2026-03-28T14:06:14.074Z</time></trkpt><trkpt lat="45.145783466853864" lon="8.128214194475563"><ele>177.0</ele><time>2026-03-28T14:06:15.074Z</time></trkpt><trkpt lat="45.145650490885856" lon="8.128145716751495"><ele>177.0</ele><time>2026-03-28T14:06:16.074Z</time></trkpt><trkpt lat="45.145527963814885" lon="8.128045344192781"><ele>176.25</ele><time>2026-03-28T14:06:17.074Z</time></trkpt><trkpt lat="45.14540229880074" lon="8.127949370644789"><ele>175.5</ele><time>2026-03-28T14:06:18.074Z</time></trkpt><trkpt lat="45.145271717337245" lon="8.127856200850514"><ele>174.75</ele><time>2026-03-28T14:06:19.074Z</time></trkpt><trkpt lat="45.1451387648097" lon="8.1277625105712"><ele>174.0</ele><time>2026-03-28T14:06:20.074Z</time></trkpt><trkpt lat="45.14500270300496" lon="8.12766930356344"><ele>173.33333333333334</ele><time>2026-03-28T14:06:21.074Z</time></trkpt><trkpt lat="45.14486604403207" lon="8.127566458487806"><ele>172.66666666666669</ele><time>2026-03-28T14:06:22.074Z</time></trkpt><trkpt lat="45.144728789212216" lon="8.127452195376582"><ele>172.0</ele><time>2026-03-28T14:06:23.074Z</time></trkpt><trkpt lat="45.14458822858252" lon="8.127331813650292"><ele>174.0</ele><time>2026-03-28T14:06:24.074Z</time></trkpt><trkpt lat="45.14444378582083" lon="8.12721069497736"><ele>176.0</ele><time>2026-03-28T14:06:25.074Z</time></trkpt><trkpt lat="45.14429453557302" lon="8.127086411725326"><ele>178.0</ele><time>2026-03-28T14:06:26.074Z</time></trkpt><trkpt lat="45.144145733461606" lon="8.126964595031135"><ele>177.33333333333334</ele><time>2026-03-28T14:06:27.074Z</time></trkpt><trkpt lat="45.144000569078656" lon="8.126851768551097"><ele>176.66666666666666</ele><time>2026-03-28T14:06:28.074Z</time></trkpt><trkpt lat="45.143860100248354" lon="8.126746152225182"><ele>176.0</ele><time>2026-03-28T14:06:29.074Z</time></trkpt><trkpt lat="45.143724163507" lon="8.126632721808297"><ele>178.66666666666666</ele><time>2026-03-28T14:06:30.074Z</time></trkpt><trkpt lat="45.1435911119812" lon="8.126513347248133"><ele>181.33333333333334</ele><time>2026-03-28T14:06:31.074Z</time></trkpt><trkpt lat="45.143456477156874" lon="8.126386900665759"><ele>184.0</ele><time>2026-03-28T14:06:32.074Z</time></trkpt><trkpt lat="45.14331693807558" lon="8.12626033575156"><ele>181.66666666666669</ele><time>2026-03-28T14:06:33.074Z</time></trkpt><trkpt lat="45.1431754375252" lon="8.126135601476076"><ele>179.33333333333334</ele><time>2026-03-28T14:06:34.074Z</time></trkpt><trkpt lat="45.143047032785795" lon="8.126017950984187"><ele>177.0</ele><time>2026-03-28T14:06:35.074Z</time></trkpt><trkpt lat="45.14292492232377" lon="8.125907052605962"><ele>177.0</ele><time>2026-03-28T14:06:36.074Z</time></trkpt><trkpt lat="45.14281307684181" lon="8.125797762684087"><ele>177.0</ele><time>2026-03-28T14:06:37.073Z</time></trkpt><trkpt lat="45.142689549897156" lon="8.125698413589012"><ele>177.0</ele><time>2026-03-28T14:06:38.072Z</time></trkpt><trkpt lat="45.14255649132131" lon="8.125612168096318"><ele>177.0</ele><time>2026-03-28T14:06:39.072Z</time></trkpt><trkpt lat="45.14241123030645" lon="8.12554657347428"><ele>178.0</ele><time>2026-03-28T14:06:40.073Z</time></trkpt><trkpt lat="45.14225373852234" lon="8.125499648685956"><ele>179.0</ele><time>2026-03-28T14:06:41.072Z</time></trkpt><trkpt lat="45.14209364039707" lon="8.125461982633183"><ele>180.0</ele><time>2026-03-28T14:06:42.072Z</time></trkpt><trkpt lat="45.14193057178204" lon="8.12542229442897"><ele>180.0</ele><time>2026-03-28T14:06:43.072Z</time></trkpt><trkpt lat="45.141762418852636" lon="8.125398083805146"><ele>180.0</ele><time>2026-03-28T14:06:44.073Z</time></trkpt><trkpt lat="45.14158872191743" lon="8.12538745680462"><ele>180.0</ele><time>2026-03-28T14:06:45.073Z</time></trkpt><trkpt lat="45.141416404892205" lon="8.125386346750112"><ele>180.0</ele><time>2026-03-28T14:06:46.073Z</time></trkpt><trkpt lat="45.14124686026844" lon="8.125371445391322"><ele>180.0</ele><time>2026-03-28T14:06:47.073Z</time></trkpt><trkpt lat="45.14108551907964" lon="8.125337820787452"><ele>180.0</ele><time>2026-03-28T14:06:48.073Z</time></trkpt><trkpt lat="45.14093333617165" lon="8.125299747216022"><ele>180.0</ele><time>2026-03-28T14:06:49.072Z</time></trkpt><trkpt lat="45.14078197983145" lon="8.125267301179257"><ele>180.0</ele><time>2026-03-28T14:06:50.072Z</time></trkpt><trkpt lat="45.14063294481147" lon="8.125236360564182"><ele>180.0</ele><time>2026-03-28T14:06:51.072Z</time></trkpt><trkpt lat="45.14048734669017" lon="8.125203146463551"><ele>180.33333333333334</ele><time>2026-03-28T14:06:52.072Z</time></trkpt><trkpt lat="45.140342453021276" lon="8.125168490630463"><ele>180.66666666666669</ele><time>2026-03-28T14:06:53.072Z</time></trkpt><trkpt lat="45.14019641450525" lon="8.125119099511396"><ele>181.0</ele><time>2026-03-28T14:06:54.072Z</time></trkpt><trkpt lat="45.140047567244224" lon="8.125055880232708"><ele>181.0</ele><time>2026-03-28T14:06:55.072Z</time></trkpt><trkpt lat="45.13989525268178" lon="8.124985322813425"><ele>181.0</ele><time>2026-03-28T14:06:56.072Z</time></trkpt><trkpt lat="45.139741695583574" lon="8.124901318089378"><ele>181.0</ele><time>2026-03-28T14:06:57.072Z</time></trkpt><trkpt lat="45.139593889144074" lon="8.124796011610822"><ele>183.33333333333334</ele><time>2026-03-28T14:06:58.072Z</time></trkpt><trkpt lat="45.13944781043722" lon="8.124673917094311"><ele>185.66666666666666</ele><time>2026-03-28T14:06:59.073Z</time></trkpt><trkpt lat="45.139303680114836" lon="8.124539235556902"><ele>188.0</ele><time>2026-03-28T14:07:00.073Z</time></trkpt><trkpt lat="45.13915807852806" lon="8.124401928441713"><ele>188.0</ele><time>2026-03-28T14:07:01.073Z</time></trkpt><trkpt lat="45.13901041273801" lon="8.124271459922106"><ele>188.0</ele><time>2026-03-28T14:07:02.073Z</time></trkpt><trkpt lat="45.138859870023964" lon="8.12414672646634"><ele>188.0</ele><time>2026-03-28T14:07:03.073Z</time></trkpt><trkpt lat="45.13871934340038" lon="8.124031828840769"><ele>190.33333333333331</ele><time>2026-03-28T14:07:04.073Z</time></trkpt><trkpt lat="45.13858584720042" lon="8.123918024370745"><ele>192.66666666666666</ele><time>2026-03-28T14:07:05.073Z</time></trkpt><trkpt lat="45.13845388214424" lon="8.123800971080529"><ele>195.0</ele><time>2026-03-28T14:07:06.073Z</time></trkpt><trkpt lat="45.138340863476245" lon="8.123661760768279"><ele>195.0</ele><time>2026-03-28T14:07:07.073Z</time></trkpt><trkpt lat="45.13824285798383" lon="8.123522580001408"><ele>195.0</ele><time>2026-03-28T14:07:08.073Z</time></trkpt><trkpt lat="45.138158516071165" lon="8.123393859991282"><ele>195.0</ele><time>2026-03-28T14:07:09.073Z</time></trkpt><trkpt lat="45.138084777720984" lon="8.123281895207644"><ele>195.0</ele><time>2026-03-28T14:07:10.073Z</time></trkpt><trkpt lat="45.138023988369746" lon="8.123201308800374"><ele>195.33333333333334</ele><time>2026-03-28T14:07:11.073Z</time></trkpt><trkpt lat="45.13796622087863" lon="8.12314445789431"><ele>195.66666666666669</ele><time>2026-03-28T14:07:12.073Z</time></trkpt><trkpt lat="45.13790107989485" lon="8.123129482000692"><ele>196.0</ele><time>2026-03-28T14:07:13.073Z</time></trkpt><trkpt lat="45.13782540166997" lon="8.123153203380072"><ele>196.33333333333334</ele><time>2026-03-28T14:07:14.073Z</time></trkpt><trkpt lat="45.137745583132336" lon="8.123210922505027"><ele>196.66666666666669</ele><time>2026-03-28T14:07:15.073Z</time></trkpt><trkpt lat="45.137647757695966" lon="8.12326833134413"><ele>197.0</ele><time>2026-03-28T14:07:16.073Z</time></trkpt><trkpt lat="45.13753404680191" lon="8.12331903151276"><ele>196.0</ele><time>2026-03-28T14:07:17.073Z</time></trkpt><trkpt lat="45.13741066344952" lon="8.123352671079054"><ele>195.0</ele><time>2026-03-28T14:07:18.073Z</time></trkpt><trkpt lat="45.13729457800433" lon="8.123351340372599"><ele>194.0</ele><time>2026-03-28T14:07:19.073Z</time></trkpt><trkpt lat="45.137187904531" lon="8.12331606418293"><ele>193.0</ele><time>2026-03-28T14:07:20.073Z</time></trkpt><trkpt lat="45.137091913056445" lon="8.123246690114625"><ele>192.75</ele><time>2026-03-28T14:07:21.073Z</time></trkpt><trkpt lat="45.13700591371559" lon="8.123142900037548"><ele>192.5</ele><time>2026-03-28T14:07:22.073Z</time></trkpt><trkpt lat="45.136914406963186" lon="8.123019386204586"><ele>192.25</ele><time>2026-03-28T14:07:23.073Z</time></trkpt><trkpt lat="45.136827391651806" lon="8.122900871767554"><ele>192.0</ele><time>2026-03-28T14:07:24.073Z</time></trkpt><trkpt lat="45.136738679054616" lon="8.122790071201853"><ele>192.0</ele><time>2026-03-28T14:07:25.073Z</time></trkpt><trkpt lat="45.13663034926208" lon="8.122712114758771"><ele>192.0</ele><time>2026-03-28T14:07:26.073Z</time></trkpt><trkpt lat="45.136508252843925" lon="8.122698869283884"><ele>192.0</ele><time>2026-03-28T14:07:27.073Z</time></trkpt><trkpt lat="45.1363932505726" lon="8.122745473236641"><ele>192.0</ele><time>2026-03-28T14:07:28.073Z</time></trkpt><trkpt lat="45.136285513877446" lon="8.122831737979737"><ele>190.0</ele><time>2026-03-28T14:07:29.073Z</time></trkpt><trkpt lat="45.13618400852565" lon="8.122933744981964"><ele>188.0</ele><time>2026-03-28T14:07:30.073Z</time></trkpt><trkpt lat="45.1360902928322" lon="8.123045678912892"><ele>186.0</ele><time>2026-03-28T14:07:31.073Z</time></trkpt><trkpt lat="45.135998650972994" lon="8.123158350614363"><ele>184.0</ele><time>2026-03-28T14:07:32.074Z</time></trkpt><trkpt lat="45.135919427363184" lon="8.123279779521543"><ele>183.0</ele><time>2026-03-28T14:07:33.074Z</time></trkpt><trkpt lat="45.13587485039595" lon="8.123428398144952"><ele>182.0</ele><time>2026-03-28T14:07:34.074Z</time></trkpt><trkpt lat="45.135876403519354" lon="8.123585301726564"><ele>181.0</ele><time>2026-03-28T14:07:35.074Z</time></trkpt><trkpt lat="45.13591344498402" lon="8.123751267958218"><ele>180.0</ele><time>2026-03-28T14:07:36.074Z</time></trkpt><trkpt lat="45.13596696329379" lon="8.123922825795754"><ele>179.75</ele><time>2026-03-28T14:07:37.074Z</time></trkpt><trkpt lat="45.13603220038672" lon="8.124085766458327"><ele>179.5</ele><time>2026-03-28T14:07:38.074Z</time></trkpt><trkpt lat="45.13609519615964" lon="8.124233173809854"><ele>179.25</ele><time>2026-03-28T14:07:39.074Z</time></trkpt><trkpt lat="45.136144755512625" lon="8.12438001867773"><ele>179.0</ele><time>2026-03-28T14:07:40.074Z</time></trkpt><trkpt lat="45.13616471188371" lon="8.1245309630001"><ele>179.0</ele><time>2026-03-28T14:07:41.074Z</time></trkpt><trkpt lat="45.13614289708486" lon="8.124676843619124"><ele>179.0</ele><time>2026-03-28T14:07:42.074Z</time></trkpt><trkpt lat="45.13608771041589" lon="8.124829648004749"><ele>179.0</ele><time>2026-03-28T14:07:43.074Z</time></trkpt><trkpt lat="45.13602234831462" lon="8.124994698590099"><ele>179.0</ele><time>2026-03-28T14:07:44.074Z</time></trkpt><trkpt lat="45.135952020826274" lon="8.125159986875037"><ele>179.0</ele><time>2026-03-28T14:07:45.074Z</time></trkpt><trkpt lat="45.13586726737668" lon="8.125321151811672"><ele>179.0</ele><time>2026-03-28T14:07:46.074Z</time></trkpt><trkpt lat="45.13575932640909" lon="8.125454161034984"><ele>179.0</ele><time>2026-03-28T14:07:47.074Z</time></trkpt><trkpt lat="45.13562775535088" lon="8.12554635478141"><ele>179.0</ele><time>2026-03-28T14:07:48.074Z</time></trkpt><trkpt lat="45.135482608310184" lon="8.125610525944209"><ele>180.25</ele><time>2026-03-28T14:07:49.074Z</time></trkpt><trkpt lat="45.13534357945761" lon="8.125680055481103"><ele>181.5</ele><time>2026-03-28T14:07:50.074Z</time></trkpt><trkpt lat="45.13522220402992" lon="8.12575533056141"><ele>182.75</ele><time>2026-03-28T14:07:51.074Z</time></trkpt><trkpt lat="45.13510404599006" lon="8.125823559678741"><ele>184.0</ele><time>2026-03-28T14:07:52.074Z</time></trkpt><trkpt lat="45.13498465323055" lon="8.125854801662523"><ele>188.75</ele><time>2026-03-28T14:07:53.074Z</time></trkpt><trkpt lat="45.13486832162264" lon="8.125911790585382"><ele>193.5</ele><time>2026-03-28T14:07:54.074Z</time></trkpt><trkpt lat="45.13476624468472" lon="8.126039693466536"><ele>198.25</ele><time>2026-03-28T14:07:55.074Z</time></trkpt><trkpt lat="45.13467383063974" lon="8.126203176125731"><ele>203.0</ele><time>2026-03-28T14:07:56.074Z</time></trkpt><trkpt lat="45.134583330492745" lon="8.126356274293334"><ele>203.0</ele><time>2026-03-28T14:07:57.074Z</time></trkpt><trkpt lat="45.134483525998746" lon="8.126486929709444"><ele>203.0</ele><time>2026-03-28T14:07:58.074Z</time></trkpt><trkpt lat="45.13436694706664" lon="8.12659944504444"><ele>203.0</ele><time>2026-03-28T14:07:59.074Z</time></trkpt><trkpt lat="45.13423922454839" lon="8.126705337440397"><ele>203.0</ele><time>2026-03-28T14:08:00.074Z</time></trkpt><trkpt lat="45.13409928794367" lon="8.126788200972497"><ele>200.0</ele><time>2026-03-28T14:08:01.074Z</time></trkpt><trkpt lat="45.133951255861426" lon="8.126866061669192"><ele>197.0</ele><time>2026-03-28T14:08:02.074Z</time></trkpt><trkpt lat="45.133806327440034" lon="8.12694113426387"><ele>194.0</ele><time>2026-03-28T14:08:03.074Z</time></trkpt><trkpt lat="45.13366328059349" lon="8.127013694435893"><ele>194.0</ele><time>2026-03-28T14:08:04.074Z</time></trkpt><trkpt lat="45.13352812248882" lon="8.127095704393147"><ele>194.0</ele><time>2026-03-28T14:08:05.075Z</time></trkpt><trkpt lat="45.133419407370944" lon="8.12718643608777"><ele>194.0</ele><time>2026-03-28T14:08:06.075Z</time></trkpt><trkpt lat="45.13331409287504" lon="8.127278759792496"><ele>194.0</ele><time>2026-03-28T14:08:07.075Z</time></trkpt><trkpt lat="45.133213748397566" lon="8.127330419819627"><ele>195.75</ele><time>2026-03-28T14:08:08.075Z</time></trkpt><trkpt lat="45.13310987036993" lon="8.127337150707907"><ele>197.5</ele><time>2026-03-28T14:08:09.075Z</time></trkpt><trkpt lat="45.13300312253061" lon="8.127281777547557"><ele>199.25</ele><time>2026-03-28T14:08:10.075Z</time></trkpt><trkpt lat="45.13289914737091" lon="8.127202550518641"><ele>201.0</ele><time>2026-03-28T14:08:11.075Z</time></trkpt><trkpt lat="45.13278304217344" lon="8.127123783414564"><ele>201.0</ele><time>2026-03-28T14:08:12.075Z</time></trkpt><trkpt lat="45.132656357162816" lon="8.127056514749365"><ele>201.0</ele><time>2026-03-28T14:08:13.075Z</time></trkpt><trkpt lat="45.13251587676036" lon="8.127013262683006"><ele>201.0</ele><time>2026-03-28T14:08:14.075Z</time></trkpt><trkpt lat="45.13236591377127" lon="8.127012063463965"><ele>201.0</ele><time>2026-03-28T14:08:15.075Z</time></trkpt><trkpt lat="45.13221257590287" lon="8.127051412414895"><ele>202.0</ele><time>2026-03-28T14:08:16.075Z</time></trkpt><trkpt lat="45.13206270757578" lon="8.127115536404842"><ele>203.0</ele><time>2026-03-28T14:08:17.075Z</time></trkpt><trkpt lat="45.13191976232988" lon="8.127158989533603"><ele>204.0</ele><time>2026-03-28T14:08:18.075Z</time></trkpt><trkpt lat="45.13178072523995" lon="8.127158755626441"><ele>205.0</ele><time>2026-03-28T14:08:19.075Z</time></trkpt><trkpt lat="45.13166708924265" lon="8.127106692248965"><ele>205.0</ele><time>2026-03-28T14:08:20.075Z</time></trkpt><trkpt lat="45.131571993498156" lon="8.127018527181036"><ele>205.0</ele><time>2026-03-28T14:08:21.075Z</time></trkpt><trkpt lat="45.13148420376569" lon="8.126899928493081"><ele>205.0</ele><time>2026-03-28T14:08:22.075Z</time></trkpt><trkpt lat="45.131378158921166" lon="8.126773439429957"><ele>205.0</ele><time>2026-03-28T14:08:23.075Z</time></trkpt><trkpt lat="45.13124873686254" lon="8.126663671347877"><ele>204.33333333333331</ele><time>2026-03-28T14:08:24.075Z</time></trkpt><trkpt lat="45.13110516983887" lon="8.12657501982803"><ele>203.66666666666669</ele><time>2026-03-28T14:08:25.075Z</time></trkpt><trkpt lat="45.13095937315539" lon="8.126500907424706"><ele>203.0</ele><time>2026-03-28T14:08:26.075Z</time></trkpt><trkpt lat="45.130807667066975" lon="8.126419590851322"><ele>203.66666666666669</ele><time>2026-03-28T14:08:27.075Z</time></trkpt><trkpt lat="45.1306543306649" lon="8.126332184476297"><ele>204.33333333333331</ele><time>2026-03-28T14:08:28.075Z</time></trkpt><trkpt lat="45.1305102073978" lon="8.126214134410116"><ele>205.0</ele><time>2026-03-28T14:08:29.075Z</time></trkpt><trkpt lat="45.13037407939195" lon="8.126082253542027"><ele>205.0</ele><time>2026-03-28T14:08:30.075Z</time></trkpt><trkpt lat="45.13023505821084" lon="8.125945646983421"><ele>205.0</ele><time>2026-03-28T14:08:31.075Z</time></trkpt><trkpt lat="45.13009532223013" lon="8.125798020629409"><ele>205.0</ele><time>2026-03-28T14:08:32.075Z</time></trkpt><trkpt lat="45.129956088245414" lon="8.12565678818501"><ele>204.33333333333331</ele><time>2026-03-28T14:08:33.075Z</time></trkpt><trkpt lat="45.1298091468539" lon="8.125538844650546"><ele>203.66666666666669</ele><time>2026-03-28T14:08:34.075Z</time></trkpt><trkpt lat="45.129656441657275" lon="8.125457590479394"><ele>203.0</ele><time>2026-03-28T14:08:35.075Z</time></trkpt><trkpt lat="45.12950406943986" lon="8.125411354899919"><ele>203.0</ele><time>2026-03-28T14:08:36.075Z</time></trkpt><trkpt lat="45.12936616985274" lon="8.125369604591489"><ele>203.0</ele><time>2026-03-28T14:08:37.075Z</time></trkpt><trkpt lat="45.12923582750572" lon="8.125313923689557"><ele>203.0</ele><time>2026-03-28T14:08:38.075Z</time></trkpt><trkpt lat="45.129122586229855" lon="8.125210800995644"><ele>203.0</ele><time>2026-03-28T14:08:39.076Z</time></trkpt><trkpt lat="45.12901428932067" lon="8.125071931640878"><ele>204.0</ele><time>2026-03-28T14:08:40.076Z</time></trkpt><trkpt lat="45.12890111000888" lon="8.124924978118605"><ele>205.0</ele><time>2026-03-28T14:08:41.076Z</time></trkpt><trkpt lat="45.12876717988174" lon="8.124796784604952"><ele>206.0</ele><time>2026-03-28T14:08:42.076Z</time></trkpt><trkpt lat="45.12861513240372" lon="8.124691083180265"><ele>206.33333333333334</ele><time>2026-03-28T14:08:43.074Z</time></trkpt><trkpt lat="45.128450755108354" lon="8.124622964422219"><ele>206.66666666666669</ele><time>2026-03-28T14:08:44.075Z</time></trkpt><trkpt lat="45.12828448681885" lon="8.124566212586071"><ele>207.0</ele><time>2026-03-28T14:08:45.075Z</time></trkpt><trkpt lat="45.12812017451038" lon="8.124496722564482"><ele>207.33333333333331</ele><time>2026-03-28T14:08:46.075Z</time></trkpt><trkpt lat="45.127961445088744" lon="8.124408674558772"><ele>207.66666666666666</ele><time>2026-03-28T14:08:47.075Z</time></trkpt><trkpt lat="45.12780500363806" lon="8.124322974130116"><ele>208.0</ele><time>2026-03-28T14:08:48.075Z</time></trkpt><trkpt lat="45.127662656047" lon="8.124228583501235"><ele>208.0</ele><time>2026-03-28T14:08:49.074Z</time></trkpt><trkpt lat="45.127527690725024" lon="8.124102928223236"><ele>208.0</ele><time>2026-03-28T14:08:50.075Z</time></trkpt><trkpt lat="45.1274034981425" lon="8.12395669943936"><ele>208.0</ele><time>2026-03-28T14:08:51.075Z</time></trkpt><trkpt lat="45.12728633066719" lon="8.123794777841502"><ele>209.33333333333331</ele><time>2026-03-28T14:08:52.075Z</time></trkpt><trkpt lat="45.127178463871374" lon="8.123620997458731"><ele>210.66666666666669</ele><time>2026-03-28T14:08:53.075Z</time></trkpt><trkpt lat="45.12708168842159" lon="8.123433422332385"><ele>212.0</ele><time>2026-03-28T14:08:54.075Z</time></trkpt><trkpt lat="45.126987920541694" lon="8.123253889440575"><ele>213.33333333333334</ele><time>2026-03-28T14:08:55.074Z</time></trkpt><trkpt lat="45.12687337817307" lon="8.123093945446119"><ele>214.66666666666669</ele><time>2026-03-28T14:08:56.075Z</time></trkpt><trkpt lat="45.12673833994911" lon="8.122955114762332"><ele>216.0</ele><time>2026-03-28T14:08:57.075Z</time></trkpt><trkpt lat="45.126587959492035" lon="8.122831637387533"><ele>214.33333333333331</ele><time>2026-03-28T14:08:58.075Z</time></trkpt><trkpt lat="45.12643094246699" lon="8.122715700874457"><ele>212.66666666666666</ele><time>2026-03-28T14:08:59.075Z</time></trkpt><trkpt lat="45.126273922189675" lon="8.122603774543428"><ele>211.0</ele><time>2026-03-28T14:09:00.075Z</time></trkpt><trkpt lat="45.12611204973322" lon="8.122506437011838"><ele>211.0</ele><time>2026-03-28T14:09:01.075Z</time></trkpt><trkpt lat="45.12595112560056" lon="8.12245343494502"><ele>211.0</ele><time>2026-03-28T14:09:02.075Z</time></trkpt><trkpt lat="45.12580019789785" lon="8.122420768728233"><ele>211.0</ele><time>2026-03-28T14:09:03.075Z</time></trkpt><trkpt lat="45.12566484347446" lon="8.122365480455649"><ele>212.0</ele><time>2026-03-28T14:09:04.075Z</time></trkpt><trkpt lat="45.1255554637582" lon="8.122269574886241"><ele>213.0</ele><time>2026-03-28T14:09:05.075Z</time></trkpt><trkpt lat="45.12547029829898" lon="8.122129156527565"><ele>214.0</ele><time>2026-03-28T14:09:06.075Z</time></trkpt><trkpt lat="45.12538789616128" lon="8.12196892779237"><ele>215.0</ele><time>2026-03-28T14:09:07.075Z</time></trkpt><trkpt lat="45.12530244839444" lon="8.121800057081291"><ele>215.0</ele><time>2026-03-28T14:09:08.075Z</time></trkpt><trkpt lat="45.12521657146817" lon="8.121621233405591"><ele>215.0</ele><time>2026-03-28T14:09:09.075Z</time></trkpt><trkpt lat="45.12512424940035" lon="8.121444656296696"><ele>215.0</ele><time>2026-03-28T14:09:10.075Z</time></trkpt><trkpt lat="45.12502011906305" lon="8.121271127554513"><ele>216.0</ele><time>2026-03-28T14:09:11.075Z</time></trkpt><trkpt lat="45.124910809437566" lon="8.121102315272102"><ele>217.0</ele><time>2026-03-28T14:09:12.075Z</time></trkpt><trkpt lat="45.124804862634676" lon="8.120943807352445"><ele>218.0</ele><time>2026-03-28T14:09:13.075Z</time></trkpt><trkpt lat="45.12469769611234" lon="8.120809935628365"><ele>218.0</ele><time>2026-03-28T14:09:14.075Z</time></trkpt><trkpt lat="45.12457952544436" lon="8.120717188382256"><ele>218.0</ele><time>2026-03-28T14:09:15.075Z</time></trkpt><trkpt lat="45.124450853038006" lon="8.12065498213874"><ele>218.0</ele><time>2026-03-28T14:09:16.075Z</time></trkpt><trkpt lat="45.12432738253865" lon="8.12059600161739"><ele>218.0</ele><time>2026-03-28T14:09:17.075Z</time></trkpt><trkpt lat="45.12421414138743" lon="8.120543675268394"><ele>218.0</ele><time>2026-03-28T14:09:18.075Z</time></trkpt><trkpt lat="45.1241033225041" lon="8.120528050105555"><ele>218.0</ele><time>2026-03-28T14:09:19.076Z</time></trkpt><trkpt lat="45.12399273346417" lon="8.120550498582686"><ele>218.0</ele><time>2026-03-28T14:09:20.076Z</time></trkpt><trkpt lat="45.12388556913267" lon="8.12060397441734"><ele>218.0</ele><time>2026-03-28T14:09:21.076Z</time></trkpt><trkpt lat="45.12377855353289" lon="8.1206683410913"><ele>221.0</ele><time>2026-03-28T14:09:22.076Z</time></trkpt><trkpt lat="45.123669408662195" lon="8.12072708642968"><ele>224.0</ele><time>2026-03-28T14:09:23.076Z</time></trkpt><trkpt lat="45.12356978508409" lon="8.120794515802341"><ele>227.0</ele><time>2026-03-28T14:09:24.076Z</time></trkpt><trkpt lat="45.123483020379915" lon="8.120882181452409"><ele>230.0</ele><time>2026-03-28T14:09:25.076Z</time></trkpt><trkpt lat="45.1234085838415" lon="8.120977980270464"><ele>233.0</ele><time>2026-03-28T14:09:26.076Z</time></trkpt><trkpt lat="45.12333365010699" lon="8.121081310277743"><ele>233.2</ele><time>2026-03-28T14:09:27.076Z</time></trkpt><trkpt lat="45.123253282297206" lon="8.121187191535425"><ele>233.4</ele><time>2026-03-28T14:09:28.076Z</time></trkpt><trkpt lat="45.12316891760727" lon="8.121295741822784"><ele>233.59999999999997</ele><time>2026-03-28T14:09:29.076Z</time></trkpt><trkpt lat="45.123086556582585" lon="8.121404052316462"><ele>233.79999999999998</ele><time>2026-03-28T14:09:30.076Z</time></trkpt><trkpt lat="45.12302340701514" lon="8.121506686722542"><ele>234.0</ele><time>2026-03-28T14:09:31.076Z</time></trkpt><trkpt lat="45.12298277996744" lon="8.12160299926872"><ele>234.0</ele><time>2026-03-28T14:09:32.076Z</time></trkpt><trkpt lat="45.122966959344204" lon="8.121745379472577"><ele>233.99999999999997</ele><time>2026-03-28T14:09:34.076Z</time></trkpt><trkpt lat="45.1230296228108" lon="8.12179484182171"><ele>233.99999999999997</ele><time>2026-03-28T14:09:36.076Z</time></trkpt><trkpt lat="45.123139464409185" lon="8.121719487874904"><ele>234.0</ele><time>2026-03-28T14:09:38.076Z</time></trkpt><trkpt lat="45.123194527617144" lon="8.121632485663854"><ele>234.0</ele><time>2026-03-28T14:09:39.076Z</time></trkpt><trkpt lat="45.12326299345067" lon="8.121525710880361"><ele>234.0</ele><time>2026-03-28T14:09:40.076Z</time></trkpt><trkpt lat="45.12333583935581" lon="8.121436746259999"><ele>234.0</ele><time>2026-03-28T14:09:41.076Z</time></trkpt><trkpt lat="45.12341032765106" lon="8.121374094233259"><ele>234.0</ele><time>2026-03-28T14:09:42.076Z</time></trkpt><trkpt lat="45.123476644395765" lon="8.121355097878899"><ele>234.0</ele><time>2026-03-28T14:09:43.076Z</time></trkpt><trkpt lat="45.123539938821295" lon="8.121365893134525"><ele>234.0</ele><time>2026-03-28T14:09:44.076Z</time></trkpt><trkpt lat="45.1236407279394" lon="8.121487822256997"><ele>234.0</ele><time>2026-03-28T14:09:46.076Z</time></trkpt><trkpt lat="45.1236791093928" lon="8.121596700449425"><ele>235.33333333333334</ele><time>2026-03-28T14:09:47.076Z</time></trkpt><trkpt lat="45.123717021368876" lon="8.121705237354954"><ele>236.66666666666669</ele><time>2026-03-28T14:09:48.076Z</time></trkpt><trkpt lat="45.12375690536189" lon="8.121825484920945"><ele>238.0</ele><time>2026-03-28T14:09:49.076Z</time></trkpt><trkpt lat="45.12379945859068" lon="8.121933698761463"><ele>239.33333333333334</ele><time>2026-03-28T14:09:50.076Z</time></trkpt><trkpt lat="45.12384347806509" lon="8.122028745833136"><ele>240.66666666666669</ele><time>2026-03-28T14:09:51.076Z</time></trkpt><trkpt lat="45.1238934213506" lon="8.122102847135967"><ele>242.0</ele><time>2026-03-28T14:09:52.077Z</time></trkpt><trkpt lat="45.12393836164616" lon="8.122166086189731"><ele>242.00000000000003</ele><time>2026-03-28T14:09:53.077Z</time></trkpt><trkpt lat="45.12396843227894" lon="8.12224905219411"><ele>242.0</ele><time>2026-03-28T14:09:54.077Z</time></trkpt><trkpt lat="45.123978898442665" lon="8.12235695224997"><ele>242.0</ele><time>2026-03-28T14:09:55.077Z</time></trkpt><trkpt lat="45.12397668710534" lon="8.122475976467374"><ele>242.0</ele><time>2026-03-28T14:09:56.077Z</time></trkpt><trkpt lat="45.123968115717766" lon="8.122605754308232"><ele>242.00000000000003</ele><time>2026-03-28T14:09:57.077Z</time></trkpt><trkpt lat="45.12395447816796" lon="8.122740601949904"><ele>242.0</ele><time>2026-03-28T14:09:58.077Z</time></trkpt><trkpt lat="45.123949584720776" lon="8.12287506623267"><ele>243.83333333333334</ele><time>2026-03-28T14:09:59.077Z</time></trkpt><trkpt lat="45.12394142760935" lon="8.122993351632216"><ele>245.66666666666669</ele><time>2026-03-28T14:10:00.077Z</time></trkpt><trkpt lat="45.123927711326466" lon="8.123088322331942"><ele>247.5</ele><time>2026-03-28T14:10:01.077Z</time></trkpt><trkpt lat="45.123864565680286" lon="8.12315643075098"><ele>249.33333333333331</ele><time>2026-03-28T14:10:03.077Z</time></trkpt><trkpt lat="45.12381506803622" lon="8.123083000436718"><ele>251.16666666666666</ele><time>2026-03-28T14:10:05.077Z</time></trkpt><trkpt lat="45.12378907986201" lon="8.122894671318996"><ele>253.0</ele><time>2026-03-28T14:10:07.077Z</time></trkpt><trkpt lat="45.12379951547145" lon="8.122773709213657"><ele>252.99999999999997</ele><time>2026-03-28T14:10:08.077Z</time></trkpt><trkpt lat="45.12380041990494" lon="8.122658892538073"><ele>253.0</ele><time>2026-03-28T14:10:09.077Z</time></trkpt><trkpt lat="45.12377368446447" lon="8.122553044916781"><ele>253.0</ele><time>2026-03-28T14:10:10.077Z</time></trkpt><trkpt lat="45.12373518739707" lon="8.122464603749844"><ele>253.0</ele><time>2026-03-28T14:10:11.077Z</time></trkpt><trkpt lat="45.12366196611745" lon="8.12240686257847"><ele>252.99999999999997</ele><time>2026-03-28T14:10:12.077Z</time></trkpt><trkpt lat="45.12358874546362" lon="8.122362247992537"><ele>253.0</ele><time>2026-03-28T14:10:13.077Z</time></trkpt><trkpt lat="45.12350032507356" lon="8.122349492348528"><ele>252.99999999999997</ele><time>2026-03-28T14:10:14.077Z</time></trkpt><trkpt lat="45.12343375791913" lon="8.122368625264658"><ele>253.0</ele><time>2026-03-28T14:10:15.077Z</time></trkpt><trkpt lat="45.12336533603943" lon="8.12244238368367"><ele>253.0</ele><time>2026-03-28T14:10:16.077Z</time></trkpt><trkpt lat="45.12329034449966" lon="8.122543906251233"><ele>253.0</ele><time>2026-03-28T14:10:17.077Z</time></trkpt><trkpt lat="45.12321404351142" lon="8.122632587657549"><ele>252.99999999999997</ele><time>2026-03-28T14:10:18.077Z</time></trkpt><trkpt lat="45.12314954683668" lon="8.122720629951608"><ele>253.0</ele><time>2026-03-28T14:10:19.077Z</time></trkpt><trkpt lat="45.12308272321645" lon="8.122822162843498"><ele>254.60000000000002</ele><time>2026-03-28T14:10:20.077Z</time></trkpt><trkpt lat="45.12301708750984" lon="8.122933997129966"><ele>256.20000000000005</ele><time>2026-03-28T14:10:21.077Z</time></trkpt><trkpt lat="45.12294689604754" lon="8.12303266282796"><ele>257.8</ele><time>2026-03-28T14:10:22.077Z</time></trkpt><trkpt lat="45.12287910049904" lon="8.123134394884088"><ele>259.40000000000003</ele><time>2026-03-28T14:10:23.077Z</time></trkpt><trkpt lat="45.122813607533594" lon="8.1232298028394"><ele>261.0</ele><time>2026-03-28T14:10:24.077Z</time></trkpt><trkpt lat="45.122749777978036" lon="8.123317401210858"><ele>263.8</ele><time>2026-03-28T14:10:25.077Z</time></trkpt><trkpt lat="45.1226803049534" lon="8.123401476446803"><ele>266.6</ele><time>2026-03-28T14:10:26.078Z</time></trkpt><trkpt lat="45.12259574297135" lon="8.123484412700531"><ele>269.4</ele><time>2026-03-28T14:10:27.078Z</time></trkpt><trkpt lat="45.122513600420426" lon="8.123557677373306"><ele>272.2</ele><time>2026-03-28T14:10:28.078Z</time></trkpt><trkpt lat="45.12243552457068" lon="8.123628016795895"><ele>275.0</ele><time>2026-03-28T14:10:29.078Z</time></trkpt><trkpt lat="45.122359017465456" lon="8.123693439869893"><ele>277.83333333333337</ele><time>2026-03-28T14:10:30.078Z</time></trkpt><trkpt lat="45.12228628187092" lon="8.123754613562928"><ele>280.6666666666667</ele><time>2026-03-28T14:10:31.078Z</time></trkpt><trkpt lat="45.12220943107312" lon="8.123808868743113"><ele>283.5</ele><time>2026-03-28T14:10:32.078Z</time></trkpt><trkpt lat="45.122134814401925" lon="8.123858544391796"><ele>286.3333333333333</ele><time>2026-03-28T14:10:33.078Z</time></trkpt><trkpt lat="45.12206359885973" lon="8.12389132129408"><ele>289.16666666666663</ele><time>2026-03-28T14:10:34.078Z</time></trkpt><trkpt lat="45.12199212237051" lon="8.123902919365806"><ele>292.0</ele><time>2026-03-28T14:10:35.078Z</time></trkpt><trkpt lat="45.12188881676345" lon="8.123831487260654"><ele>292.0</ele><time>2026-03-28T14:10:37.078Z</time></trkpt><trkpt lat="45.121856279386236" lon="8.123747175677547"><ele>292.0</ele><time>2026-03-28T14:10:38.078Z</time></trkpt><trkpt lat="45.12182706168847" lon="8.123654220079692"><ele>292.0</ele><time>2026-03-28T14:10:39.078Z</time></trkpt><trkpt lat="45.12176839349002" lon="8.123490680185645"><ele>292.0</ele><time>2026-03-28T14:10:41.078Z</time></trkpt><trkpt lat="45.12172396908316" lon="8.123395958035468"><ele>292.0</ele><time>2026-03-28T14:10:42.078Z</time></trkpt><trkpt lat="45.12167000681301" lon="8.123293537403523"><ele>292.0</ele><time>2026-03-28T14:10:43.078Z</time></trkpt><trkpt lat="45.121607596688285" lon="8.123190330197747"><ele>296.4</ele><time>2026-03-28T14:10:44.078Z</time></trkpt><trkpt lat="45.12154649427275" lon="8.123090655837196"><ele>300.79999999999995</ele><time>2026-03-28T14:10:45.078Z</time></trkpt><trkpt lat="45.121486037835524" lon="8.1229870041881"><ele>305.2</ele><time>2026-03-28T14:10:46.078Z</time></trkpt><trkpt lat="45.12142829595231" lon="8.122869829741395"><ele>309.59999999999997</ele><time>2026-03-28T14:10:47.078Z</time></trkpt><trkpt lat="45.121377099449816" lon="8.122740423982458"><ele>314.0</ele><time>2026-03-28T14:10:48.078Z</time></trkpt><trkpt lat="45.121343035779" lon="8.122599739031184"><ele>314.0</ele><time>2026-03-28T14:10:49.076Z</time></trkpt><trkpt lat="45.12132940125031" lon="8.122446491364387"><ele>314.0</ele><time>2026-03-28T14:10:50.076Z</time></trkpt><trkpt lat="45.1213163099423" lon="8.122298074737442"><ele>314.0</ele><time>2026-03-28T14:10:51.076Z</time></trkpt><trkpt lat="45.121305802891364" lon="8.122152118979145"><ele>314.0</ele><time>2026-03-28T14:10:52.076Z</time></trkpt><trkpt lat="45.121293189333365" lon="8.122016320489356"><ele>314.0</ele><time>2026-03-28T14:10:53.076Z</time></trkpt><trkpt lat="45.12128271587244" lon="8.121882760675572"><ele>313.0</ele><time>2026-03-28T14:10:54.076Z</time></trkpt><trkpt lat="45.121270088163456" lon="8.121749523278156"><ele>312.0</ele><time>2026-03-28T14:10:55.077Z</time></trkpt><trkpt lat="45.12125975054231" lon="8.121617067978578"><ele>311.0</ele><time>2026-03-28T14:10:56.076Z</time></trkpt><trkpt lat="45.12124371921657" lon="8.121489131806436"><ele>310.0</ele><time>2026-03-28T14:10:57.076Z</time></trkpt><trkpt lat="45.121225750576755" lon="8.121367434572031"><ele>309.0</ele><time>2026-03-28T14:10:58.076Z</time></trkpt><trkpt lat="45.12119340766983" lon="8.121260786926602"><ele>307.8333333333333</ele><time>2026-03-28T14:10:59.077Z</time></trkpt><trkpt lat="45.121157059988434" lon="8.121165800624286"><ele>306.6666666666667</ele><time>2026-03-28T14:11:00.077Z</time></trkpt><trkpt lat="45.1211123570595" lon="8.12107581614193"><ele>305.5</ele><time>2026-03-28T14:11:01.076Z</time></trkpt><trkpt lat="45.121065439428115" lon="8.120988341057549"><ele>304.33333333333337</ele><time>2026-03-28T14:11:02.076Z</time></trkpt><trkpt lat="45.12102409693994" lon="8.120890257541898"><ele>303.1666666666667</ele><time>2026-03-28T14:11:03.076Z</time></trkpt><trkpt lat="45.12100356022119" lon="8.120772489052293"><ele>302.0</ele><time>2026-03-28T14:11:04.076Z</time></trkpt><trkpt lat="45.120999235872226" lon="8.120648811751234"><ele>302.0</ele><time>2026-03-28T14:11:05.076Z</time></trkpt><trkpt lat="45.12101648540247" lon="8.120514186301488"><ele>302.0</ele><time>2026-03-28T14:11:06.076Z</time></trkpt><trkpt lat="45.12103059178551" lon="8.120387148979667"><ele>302.0</ele><time>2026-03-28T14:11:07.076Z</time></trkpt><trkpt lat="45.121035146045784" lon="8.120273577682033"><ele>302.0</ele><time>2026-03-28T14:11:08.077Z</time></trkpt><trkpt lat="45.12103123016988" lon="8.120163233480168"><ele>302.0</ele><time>2026-03-28T14:11:09.077Z</time></trkpt><trkpt lat="45.12102084542967" lon="8.120050811681677"><ele>302.0</ele><time>2026-03-28T14:11:10.077Z</time></trkpt><trkpt lat="45.12100056984536" lon="8.119936299188643"><ele>302.1666666666667</ele><time>2026-03-28T14:11:11.077Z</time></trkpt><trkpt lat="45.12098208285781" lon="8.119812241974495"><ele>302.33333333333337</ele><time>2026-03-28T14:11:12.077Z</time></trkpt><trkpt lat="45.120969394929425" lon="8.119683408765512"><ele>302.5</ele><time>2026-03-28T14:11:13.077Z</time></trkpt><trkpt lat="45.12095644599121" lon="8.119558486216757"><ele>302.6666666666667</ele><time>2026-03-28T14:11:14.077Z</time></trkpt><trkpt lat="45.120948839538336" lon="8.119444783825346"><ele>302.8333333333333</ele><time>2026-03-28T14:11:15.077Z</time></trkpt><trkpt lat="45.12094167881013" lon="8.11933590977754"><ele>303.0</ele><time>2026-03-28T14:11:16.077Z</time></trkpt><trkpt lat="45.12093011515314" lon="8.119232463415273"><ele>303.0</ele><time>2026-03-28T14:11:17.077Z</time></trkpt><trkpt lat="45.120920004617766" lon="8.119139194675785"><ele>303.0</ele><time>2026-03-28T14:11:18.077Z</time></trkpt><trkpt lat="45.120909316820445" lon="8.11900864148428"><ele>303.0</ele><time>2026-03-28T14:11:20.077Z</time></trkpt><trkpt lat="45.120895343326126" lon="8.118879879318689"><ele>303.0</ele><time>2026-03-28T14:11:22.077Z</time></trkpt><trkpt lat="45.120884162605556" lon="8.118782494122197"><ele>303.0</ele><time>2026-03-28T14:11:23.077Z</time></trkpt><trkpt lat="45.120876022547435" lon="8.118665367725615"><ele>303.0</ele><time>2026-03-28T14:11:24.077Z</time></trkpt><trkpt lat="45.120869191485944" lon="8.11852797824654"><ele>304.25</ele><time>2026-03-28T14:11:25.077Z</time></trkpt><trkpt lat="45.12086084162757" lon="8.118383875245298"><ele>305.5</ele><time>2026-03-28T14:11:26.077Z</time></trkpt><trkpt lat="45.1208520709052" lon="8.118219799081862"><ele>306.75</ele><time>2026-03-28T14:11:27.077Z</time></trkpt><trkpt lat="45.12083810825687" lon="8.118045434609774"><ele>308.0</ele><time>2026-03-28T14:11:28.077Z</time></trkpt><trkpt lat="45.12081974175525" lon="8.117873021075319"><ele>309.75</ele><time>2026-03-28T14:11:29.077Z</time></trkpt><trkpt lat="45.1207883222201" lon="8.117693296660562"><ele>311.5</ele><time>2026-03-28T14:11:30.077Z</time></trkpt><trkpt lat="45.120752371485686" lon="8.117506297077759"><ele>313.25</ele><time>2026-03-28T14:11:31.077Z</time></trkpt><trkpt lat="45.12070969740057" lon="8.11732001615716"><ele>315.0</ele><time>2026-03-28T14:11:32.077Z</time></trkpt><trkpt lat="45.120658945982896" lon="8.11713781052746"><ele>315.25</ele><time>2026-03-28T14:11:33.077Z</time></trkpt><trkpt lat="45.12060528564512" lon="8.116958825802477"><ele>315.5</ele><time>2026-03-28T14:11:34.077Z</time></trkpt><trkpt lat="45.12053513995718" lon="8.116800865289214"><ele>315.75</ele><time>2026-03-28T14:11:35.077Z</time></trkpt><trkpt lat="45.120457674099626" lon="8.116660979544434"><ele>316.0</ele><time>2026-03-28T14:11:36.077Z</time></trkpt><trkpt lat="45.12036761779808" lon="8.116545308811693"><ele>318.20000000000005</ele><time>2026-03-28T14:11:37.077Z</time></trkpt><trkpt lat="45.12026630346531" lon="8.116456330677037"><ele>320.40000000000003</ele><time>2026-03-28T14:11:38.077Z</time></trkpt><trkpt lat="45.12016625957939" lon="8.116387642733988"><ele>322.6</ele><time>2026-03-28T14:11:39.077Z</time></trkpt><trkpt lat="45.12008930220068" lon="8.116320554493129"><ele>324.8</ele><time>2026-03-28T14:11:40.077Z</time></trkpt><trkpt lat="45.12003666037274" lon="8.116247791704504"><ele>327.0</ele><time>2026-03-28T14:11:41.077Z</time></trkpt><trkpt lat="45.12000199516103" lon="8.116094335351937"><ele>327.0</ele><time>2026-03-28T14:11:43.078Z</time></trkpt><trkpt lat="45.12001310015634" lon="8.11600558500238"><ele>327.0</ele><time>2026-03-28T14:11:44.078Z</time></trkpt><trkpt lat="45.12004327624482" lon="8.115892035010175"><ele>327.0</ele><time>2026-03-28T14:11:45.078Z</time></trkpt><trkpt lat="45.12006584039746" lon="8.115764938921094"><ele>327.0</ele><time>2026-03-28T14:11:46.078Z</time></trkpt><trkpt lat="45.1200609015148" lon="8.115617958625503"><ele>327.0</ele><time>2026-03-28T14:11:47.078Z</time></trkpt><trkpt lat="45.12003209763827" lon="8.115460981335227"><ele>328.0</ele><time>2026-03-28T14:11:48.078Z</time></trkpt><trkpt lat="45.11998681081568" lon="8.115298528873607"><ele>329.0</ele><time>2026-03-28T14:11:49.078Z</time></trkpt><trkpt lat="45.1199476047139" lon="8.115138954900303"><ele>330.0</ele><time>2026-03-28T14:11:50.078Z</time></trkpt><trkpt lat="45.119912540927494" lon="8.11496536103541"><ele>331.0</ele><time>2026-03-28T14:11:51.078Z</time></trkpt><trkpt lat="45.11988822916165" lon="8.114775982307117"><ele>319.66666666666663</ele><time>2026-03-28T14:11:52.078Z</time></trkpt><trkpt lat="45.11987078268442" lon="8.114568688492438"><ele>308.3333333333333</ele><time>2026-03-28T14:11:53.078Z</time></trkpt><trkpt lat="45.11984468303058" lon="8.114348378714906"><ele>297.0</ele><time>2026-03-28T14:11:54.078Z</time></trkpt><trkpt lat="45.11982064168188" lon="8.114120739651964"><ele>300.3333333333333</ele><time>2026-03-28T14:11:55.078Z</time></trkpt><trkpt lat="45.11979115088146" lon="8.11389651782176"><ele>303.66666666666663</ele><time>2026-03-28T14:11:56.078Z</time></trkpt><trkpt lat="45.119755458980556" lon="8.113684327606448"><ele>307.0</ele><time>2026-03-28T14:11:57.078Z</time></trkpt><trkpt lat="45.11972572360274" lon="8.113484607984846"><ele>307.0</ele><time>2026-03-28T14:11:58.078Z</time></trkpt><trkpt lat="45.11968812833073" lon="8.113301433021103"><ele>307.0</ele><time>2026-03-28T14:11:59.078Z</time></trkpt><trkpt lat="45.11965252248922" lon="8.113124680652586"><ele>307.0</ele><time>2026-03-28T14:12:00.078Z</time></trkpt><trkpt lat="45.11963952772256" lon="8.112948042824302"><ele>307.0</ele><time>2026-03-28T14:12:01.078Z</time></trkpt><trkpt lat="45.11962668344429" lon="8.11277809028711"><ele>308.5</ele><time>2026-03-28T14:12:02.078Z</time></trkpt><trkpt lat="45.119598515800675" lon="8.112610276200437"><ele>310.0</ele><time>2026-03-28T14:12:03.078Z</time></trkpt><trkpt lat="45.119560234337" lon="8.112436051747206"><ele>311.5</ele><time>2026-03-28T14:12:04.078Z</time></trkpt><trkpt lat="45.11951314344618" lon="8.112257475141773"><ele>313.0</ele><time>2026-03-28T14:12:05.078Z</time></trkpt><trkpt lat="45.11945340575874" lon="8.112084170145298"><ele>313.75</ele><time>2026-03-28T14:12:06.078Z</time></trkpt><trkpt lat="45.11938767573997" lon="8.111921217763497"><ele>314.5</ele><time>2026-03-28T14:12:07.078Z</time></trkpt><trkpt lat="45.11931535645341" lon="8.111768191279868"><ele>315.25</ele><time>2026-03-28T14:12:08.078Z</time></trkpt><trkpt lat="45.11922891039088" lon="8.11163938920885"><ele>316.0</ele><time>2026-03-28T14:12:09.078Z</time></trkpt><trkpt lat="45.11913075942328" lon="8.111532511228864"><ele>316.0</ele><time>2026-03-28T14:12:10.078Z</time></trkpt><trkpt lat="45.11901056025962" lon="8.11144037967235"><ele>316.0</ele><time>2026-03-28T14:12:11.078Z</time></trkpt><trkpt lat="45.11888061327597" lon="8.111351546478833"><ele>316.0</ele><time>2026-03-28T14:12:12.078Z</time></trkpt><trkpt lat="45.118774361370235" lon="8.111222344211493"><ele>316.0</ele><time>2026-03-28T14:12:13.078Z</time></trkpt><trkpt lat="45.118690421699796" lon="8.11106315849193"><ele>316.0</ele><time>2026-03-28T14:12:14.078Z</time></trkpt><trkpt lat="45.11861542923643" lon="8.110910164524654"><ele>316.0</ele><time>2026-03-28T14:12:15.079Z</time></trkpt><trkpt lat="45.11852957287867" lon="8.11080145186081"><ele>316.0</ele><time>2026-03-28T14:12:16.079Z</time></trkpt><trkpt lat="45.11843531316078" lon="8.110739874195335"><ele>316.0</ele><time>2026-03-28T14:12:17.079Z</time></trkpt><trkpt lat="45.118308485841105" lon="8.110716992574691"><ele>319.5</ele><time>2026-03-28T14:12:18.079Z</time></trkpt><trkpt lat="45.118177588397415" lon="8.110716079129727"><ele>323.0</ele><time>2026-03-28T14:12:19.079Z</time></trkpt><trkpt lat="45.11803941030518" lon="8.110713094708304"><ele>326.5</ele><time>2026-03-28T14:12:20.079Z</time></trkpt><trkpt lat="45.11789669506372" lon="8.110708856985053"><ele>330.0</ele><time>2026-03-28T14:12:21.079Z</time></trkpt><trkpt lat="45.117767581725545" lon="8.110710791012469"><ele>330.0</ele><time>2026-03-28T14:12:22.079Z</time></trkpt><trkpt lat="45.11765709148697" lon="8.110715836931538"><ele>330.0</ele><time>2026-03-28T14:12:23.079Z</time></trkpt><trkpt lat="45.11755601704879" lon="8.110704591908233"><ele>330.0</ele><time>2026-03-28T14:12:24.079Z</time></trkpt><trkpt lat="45.11746738503038" lon="8.110654746408928"><ele>330.0</ele><time>2026-03-28T14:12:25.079Z</time></trkpt><trkpt lat="45.117402973813746" lon="8.110559348713016"><ele>330.0</ele><time>2026-03-28T14:12:26.079Z</time></trkpt><trkpt lat="45.117355076218" lon="8.110434970480114"><ele>329.8</ele><time>2026-03-28T14:12:27.079Z</time></trkpt><trkpt lat="45.11730154367137" lon="8.110308065599968"><ele>329.6</ele><time>2026-03-28T14:12:28.079Z</time></trkpt><trkpt lat="45.11723111649489" lon="8.11020412465388"><ele>329.4</ele><time>2026-03-28T14:12:29.079Z</time></trkpt><trkpt lat="45.117155322949" lon="8.110136092459234"><ele>329.2</ele><time>2026-03-28T14:12:30.079Z</time></trkpt><trkpt lat="45.117062970160454" lon="8.110116569497736"><ele>329.0</ele><time>2026-03-28T14:12:31.079Z</time></trkpt><trkpt lat="45.11695998864842" lon="8.1101224723632"><ele>329.0</ele><time>2026-03-28T14:12:32.079Z</time></trkpt><trkpt lat="45.11684960292854" lon="8.110145971647265"><ele>329.0</ele><time>2026-03-28T14:12:33.079Z</time></trkpt><trkpt lat="45.11673621752913" lon="8.11019454132039"><ele>329.0</ele><time>2026-03-28T14:12:34.079Z</time></trkpt><trkpt lat="45.11662481256715" lon="8.110280788366964"><ele>329.0</ele><time>2026-03-28T14:12:35.079Z</time></trkpt><trkpt lat="45.116510545263694" lon="8.110384326547267"><ele>328.6666666666667</ele><time>2026-03-28T14:12:36.079Z</time></trkpt><trkpt lat="45.116390040557285" lon="8.110503269356938"><ele>328.3333333333333</ele><time>2026-03-28T14:12:37.079Z</time></trkpt><trkpt lat="45.11626620398574" lon="8.110632295957773"><ele>328.0</ele><time>2026-03-28T14:12:38.079Z</time></trkpt><trkpt lat="45.11614083533489" lon="8.110768201974828"><ele>330.75</ele><time>2026-03-28T14:12:39.079Z</time></trkpt><trkpt lat="45.11602343138697" lon="8.11089949386071"><ele>333.5</ele><time>2026-03-28T14:12:40.079Z</time></trkpt><trkpt lat="45.11591931979962" lon="8.111019716022604"><ele>336.25</ele><time>2026-03-28T14:12:41.079Z</time></trkpt><trkpt lat="45.11581108551238" lon="8.111122701275233"><ele>339.0</ele><time>2026-03-28T14:12:42.079Z</time></trkpt><trkpt lat="45.115692001198795" lon="8.111204695974733"><ele>340.75</ele><time>2026-03-28T14:12:43.079Z</time></trkpt><trkpt lat="45.115560024311044" lon="8.11125750828404"><ele>342.5</ele><time>2026-03-28T14:12:44.079Z</time></trkpt><trkpt lat="45.1154215145302" lon="8.111298808518288"><ele>344.25</ele><time>2026-03-28T14:12:45.079Z</time></trkpt><trkpt lat="45.115294136720486" lon="8.111342839882429"><ele>346.0</ele><time>2026-03-28T14:12:46.079Z</time></trkpt><trkpt lat="45.115170195229595" lon="8.11137325570978"><ele>346.0</ele><time>2026-03-28T14:12:47.079Z</time></trkpt><trkpt lat="45.115053261625846" lon="8.111373051118894"><ele>346.0</ele><time>2026-03-28T14:12:48.08Z</time></trkpt><trkpt lat="45.11494592585337" lon="8.111335734437736"><ele>346.0</ele><time>2026-03-28T14:12:49.08Z</time></trkpt><trkpt lat="45.114864261686805" lon="8.111257551341737"><ele>346.0</ele><time>2026-03-28T14:12:50.08Z</time></trkpt><trkpt lat="45.11479720288563" lon="8.11114786576611"><ele>346.0</ele><time>2026-03-28T14:12:51.08Z</time></trkpt><trkpt lat="45.11474291368659" lon="8.111018184056295"><ele>345.0</ele><time>2026-03-28T14:12:52.08Z</time></trkpt><trkpt lat="45.114699280831154" lon="8.110866364473347"><ele>344.0</ele><time>2026-03-28T14:12:53.08Z</time></trkpt><trkpt lat="45.114662464588854" lon="8.110717461298833"><ele>343.0</ele><time>2026-03-28T14:12:54.08Z</time></trkpt><trkpt lat="45.11464658208158" lon="8.110572740097716"><ele>342.0</ele><time>2026-03-28T14:12:55.078Z</time></trkpt><trkpt lat="45.114655445189335" lon="8.110437822749956"><ele>341.0</ele><time>2026-03-28T14:12:56.079Z</time></trkpt><trkpt lat="45.11468516835584" lon="8.110293823812599"><ele>341.0</ele><time>2026-03-28T14:12:57.079Z</time></trkpt><trkpt lat="45.11473154212676" lon="8.110141607232537"><ele>341.0</ele><time>2026-03-28T14:12:58.078Z</time></trkpt><trkpt lat="45.11478328041419" lon="8.109974363813258"><ele>341.0</ele><time>2026-03-28T14:12:59.079Z</time></trkpt><trkpt lat="45.11483514935164" lon="8.109789304863211"><ele>341.0</ele><time>2026-03-28T14:13:00.079Z</time></trkpt><trkpt lat="45.1148691911978" lon="8.109585291864732"><ele>340.33333333333337</ele><time>2026-03-28T14:13:01.078Z</time></trkpt><trkpt lat="45.11487066144301" lon="8.109367242010254"><ele>339.6666666666667</ele><time>2026-03-28T14:13:02.079Z</time></trkpt><trkpt lat="45.1148480417525" lon="8.109150906637076"><ele>339.0</ele><time>2026-03-28T14:13:03.079Z</time></trkpt><trkpt lat="45.11481310254464" lon="8.108943990856247"><ele>341.5</ele><time>2026-03-28T14:13:04.079Z</time></trkpt><trkpt lat="45.114765992152655" lon="8.108752461170415"><ele>344.0</ele><time>2026-03-28T14:13:05.079Z</time></trkpt><trkpt lat="45.114707679230456" lon="8.10858215512623"><ele>346.5</ele><time>2026-03-28T14:13:06.079Z</time></trkpt><trkpt lat="45.11462853261031" lon="8.108446183366672"><ele>349.0</ele><time>2026-03-28T14:13:07.078Z</time></trkpt><trkpt lat="45.11453225824135" lon="8.1083386223093"><ele>351.5</ele><time>2026-03-28T14:13:08.079Z</time></trkpt><trkpt lat="45.11441803448556" lon="8.108242948894855"><ele>354.0</ele><time>2026-03-28T14:13:09.079Z</time></trkpt><trkpt lat="45.114303967790065" lon="8.108141459053172"><ele>356.5</ele><time>2026-03-28T14:13:10.079Z</time></trkpt><trkpt lat="45.11418563967316" lon="8.108031774670353"><ele>359.0</ele><time>2026-03-28T14:13:11.079Z</time></trkpt><trkpt lat="45.114075826212314" lon="8.107938002372698"><ele>356.5</ele><time>2026-03-28T14:13:12.079Z</time></trkpt><trkpt lat="45.11397370134227" lon="8.107847260966308"><ele>354.0</ele><time>2026-03-28T14:13:13.079Z</time></trkpt><trkpt lat="45.11387892285513" lon="8.10774394999442"><ele>351.5</ele><time>2026-03-28T14:13:14.079Z</time></trkpt><trkpt lat="45.11379279384939" lon="8.107628598131376"><ele>349.0</ele><time>2026-03-28T14:13:15.079Z</time></trkpt><trkpt lat="45.11371544471992" lon="8.107495929613956"><ele>349.25</ele><time>2026-03-28T14:13:16.079Z</time></trkpt><trkpt lat="45.11364884628208" lon="8.107355349323152"><ele>349.5</ele><time>2026-03-28T14:13:17.079Z</time></trkpt><trkpt lat="45.113587652043634" lon="8.10720027526263"><ele>349.75</ele><time>2026-03-28T14:13:18.079Z</time></trkpt><trkpt lat="45.113539342906684" lon="8.107026754583687"><ele>350.0</ele><time>2026-03-28T14:13:19.079Z</time></trkpt><trkpt lat="45.113506800767894" lon="8.106839913975616"><ele>350.0</ele><time>2026-03-28T14:13:20.079Z</time></trkpt><trkpt lat="45.11349134001116" lon="8.106649534727065"><ele>350.0</ele><time>2026-03-28T14:13:21.079Z</time></trkpt><trkpt lat="45.113488040617746" lon="8.10645664942262"><ele>350.0</ele><time>2026-03-28T14:13:22.079Z</time></trkpt><trkpt lat="45.113499637432035" lon="8.106266770425318"><ele>350.0</ele><time>2026-03-28T14:13:23.079Z</time></trkpt><trkpt lat="45.11352400720325" lon="8.106082281900967"><ele>350.0</ele><time>2026-03-28T14:13:24.079Z</time></trkpt><trkpt lat="45.11355953972297" lon="8.105896994256124"><ele>350.0</ele><time>2026-03-28T14:13:25.079Z</time></trkpt><trkpt lat="45.1135923596507" lon="8.105711752354582"><ele>350.0</ele><time>2026-03-28T14:13:26.079Z</time></trkpt><trkpt lat="45.11360780008586" lon="8.105534791750216"><ele>350.0</ele><time>2026-03-28T14:13:27.079Z</time></trkpt><trkpt lat="45.113614899106835" lon="8.105366964769923"><ele>350.0</ele><time>2026-03-28T14:13:28.079Z</time></trkpt><trkpt lat="45.113612157003416" lon="8.10520722814466"><ele>350.0</ele><time>2026-03-28T14:13:29.079Z</time></trkpt><trkpt lat="45.11360164907961" lon="8.105054100714154"><ele>350.0</ele><time>2026-03-28T14:13:30.079Z</time></trkpt><trkpt lat="45.113576827926536" lon="8.104919058889035"><ele>350.0</ele><time>2026-03-28T14:13:31.079Z</time></trkpt><trkpt lat="45.113526075781664" lon="8.104794065954582"><ele>350.0</ele><time>2026-03-28T14:13:32.079Z</time></trkpt><trkpt lat="45.11345552072475" lon="8.104686644163904"><ele>349.6</ele><time>2026-03-28T14:13:33.079Z</time></trkpt><trkpt lat="45.11337876517436" lon="8.104583203396672"><ele>349.2</ele><time>2026-03-28T14:13:34.079Z</time></trkpt><trkpt lat="45.1133002602759" lon="8.104486983179847"><ele>348.79999999999995</ele><time>2026-03-28T14:13:35.079Z</time></trkpt><trkpt lat="45.1132268265754" lon="8.104386371693142"><ele>348.4</ele><time>2026-03-28T14:13:36.079Z</time></trkpt><trkpt lat="45.11314474239082" lon="8.104282444645952"><ele>348.0</ele><time>2026-03-28T14:13:37.079Z</time></trkpt><trkpt lat="45.113070529075195" lon="8.10418090796838"><ele>348.0</ele><time>2026-03-28T14:13:38.079Z</time></trkpt><trkpt lat="45.11300199434451" lon="8.104085685972935"><ele>348.0</ele><time>2026-03-28T14:13:39.079Z</time></trkpt><trkpt lat="45.11294017431301" lon="8.103992090159402"><ele>348.0</ele><time>2026-03-28T14:13:40.079Z</time></trkpt><trkpt lat="45.112882848220806" lon="8.103891735738197"><ele>348.0</ele><time>2026-03-28T14:13:41.079Z</time></trkpt><trkpt lat="45.11282691454185" lon="8.103769974060626"><ele>348.0</ele><time>2026-03-28T14:13:42.08Z</time></trkpt><trkpt lat="45.1127596395833" lon="8.10364411229497"><ele>348.2</ele><time>2026-03-28T14:13:43.08Z</time></trkpt><trkpt lat="45.11269426843848" lon="8.103526687605498"><ele>348.4</ele><time>2026-03-28T14:13:44.08Z</time></trkpt><trkpt lat="45.11264739378853" lon="8.103410697818845"><ele>348.59999999999997</ele><time>2026-03-28T14:13:45.08Z</time></trkpt><trkpt lat="45.112617683456456" lon="8.103290887218064"><ele>348.79999999999995</ele><time>2026-03-28T14:13:46.08Z</time></trkpt><trkpt lat="45.1126160607899" lon="8.103161459985293"><ele>349.0</ele><time>2026-03-28T14:13:47.08Z</time></trkpt><trkpt lat="45.11263347256161" lon="8.1030284574026"><ele>347.0</ele><time>2026-03-28T14:13:48.08Z</time></trkpt><trkpt lat="45.11267532618725" lon="8.102884548569117"><ele>345.0</ele><time>2026-03-28T14:13:49.08Z</time></trkpt><trkpt lat="45.11274025418965" lon="8.10274515948771"><ele>343.0</ele><time>2026-03-28T14:13:50.08Z</time></trkpt><trkpt lat="45.112819022685734" lon="8.102618591693613"><ele>341.0</ele><time>2026-03-28T14:13:51.08Z</time></trkpt><trkpt lat="45.1129104824029" lon="8.102512505290203"><ele>339.5</ele><time>2026-03-28T14:13:52.08Z</time></trkpt><trkpt lat="45.11299024788692" lon="8.102405480492582"><ele>338.0</ele><time>2026-03-28T14:13:53.08Z</time></trkpt><trkpt lat="45.11304727050604" lon="8.102282782942687"><ele>336.5</ele><time>2026-03-28T14:13:54.08Z</time></trkpt><trkpt lat="45.11308538043732" lon="8.102123890936904"><ele>335.0</ele><time>2026-03-28T14:13:55.08Z</time></trkpt><trkpt lat="45.11309949269158" lon="8.10194404725736"><ele>335.0</ele><time>2026-03-28T14:13:56.08Z</time></trkpt><trkpt lat="45.113082975916065" lon="8.10175478476672"><ele>335.0</ele><time>2026-03-28T14:13:57.08Z</time></trkpt><trkpt lat="45.11304567529127" lon="8.101564228375667"><ele>335.0</ele><time>2026-03-28T14:13:58.08Z</time></trkpt><trkpt lat="45.11299084383499" lon="8.10137426141188"><ele>335.0</ele><time>2026-03-28T14:13:59.08Z</time></trkpt><trkpt lat="45.11292160550811" lon="8.1011883051889"><ele>336.75</ele><time>2026-03-28T14:14:00.08Z</time></trkpt><trkpt lat="45.112835026809314" lon="8.101031693657353"><ele>338.5</ele><time>2026-03-28T14:14:01.08Z</time></trkpt><trkpt lat="45.11272666096085" lon="8.100911752653031"><ele>340.25</ele><time>2026-03-28T14:14:02.08Z</time></trkpt><trkpt lat="45.112584482065756" lon="8.100826503581493"><ele>342.0</ele><time>2026-03-28T14:14:03.08Z</time></trkpt><trkpt lat="45.112432258025564" lon="8.1007531921899"><ele>338.6666666666667</ele><time>2026-03-28T14:14:04.08Z</time></trkpt><trkpt lat="45.1122778194628" lon="8.100680212834376"><ele>335.33333333333337</ele><time>2026-03-28T14:14:05.08Z</time></trkpt><trkpt lat="45.11213213008133" lon="8.100610765939296"><ele>332.0</ele><time>2026-03-28T14:14:06.08Z</time></trkpt><trkpt lat="45.11200119798415" lon="8.10052797522482"><ele>332.0</ele><time>2026-03-28T14:14:07.08Z</time></trkpt><trkpt lat="45.111899259104554" lon="8.100417616885087"><ele>332.0</ele><time>2026-03-28T14:14:08.08Z</time></trkpt><trkpt lat="45.11183278194082" lon="8.100277591513564"><ele>332.0</ele><time>2026-03-28T14:14:09.08Z</time></trkpt><trkpt lat="45.1117967950742" lon="8.100131719171614"><ele>332.0</ele><time>2026-03-28T14:14:10.08Z</time></trkpt><trkpt lat="45.111786053363716" lon="8.099985987385352"><ele>332.75</ele><time>2026-03-28T14:14:11.08Z</time></trkpt><trkpt lat="45.111774560095235" lon="8.099826476423562"><ele>333.5</ele><time>2026-03-28T14:14:12.08Z</time></trkpt><trkpt lat="45.11176227897284" lon="8.099643160748212"><ele>334.25</ele><time>2026-03-28T14:14:13.08Z</time></trkpt><trkpt lat="45.111746134840295" lon="8.099444134576581"><ele>335.0</ele><time>2026-03-28T14:14:14.08Z</time></trkpt><trkpt lat="45.11172778822291" lon="8.099229565297145"><ele>334.33333333333337</ele><time>2026-03-28T14:14:15.081Z</time></trkpt><trkpt lat="45.111710784301316" lon="8.099014647266015"><ele>333.6666666666667</ele><time>2026-03-28T14:14:16.081Z</time></trkpt><trkpt lat="45.11169403663662" lon="8.098781939874069"><ele>333.0</ele><time>2026-03-28T14:14:17.081Z</time></trkpt><trkpt lat="45.11167304560306" lon="8.098543439409497"><ele>333.0</ele><time>2026-03-28T14:14:18.081Z</time></trkpt><trkpt lat="45.11164845657899" lon="8.098297080156316"><ele>333.0</ele><time>2026-03-28T14:14:19.081Z</time></trkpt><trkpt lat="45.11162275241651" lon="8.098052502175072"><ele>333.0</ele><time>2026-03-28T14:14:20.081Z</time></trkpt><trkpt lat="45.11160288351422" lon="8.097820992169993"><ele>334.0</ele><time>2026-03-28T14:14:21.081Z</time></trkpt><trkpt lat="45.11158511853343" lon="8.097602427688456"><ele>335.0</ele><time>2026-03-28T14:14:22.081Z</time></trkpt><trkpt lat="45.11156462855462" lon="8.09739684212847"><ele>336.0</ele><time>2026-03-28T14:14:23.081Z</time></trkpt><trkpt lat="45.11153007007893" lon="8.097210257198507"><ele>337.0</ele><time>2026-03-28T14:14:24.081Z</time></trkpt><trkpt lat="45.11147117336946" lon="8.0970450470753"><ele>338.25</ele><time>2026-03-28T14:14:25.081Z</time></trkpt><trkpt lat="45.11137934859885" lon="8.096902866585806"><ele>339.5</ele><time>2026-03-28T14:14:26.081Z</time></trkpt><trkpt lat="45.111274804583786" lon="8.09676472951417"><ele>340.75</ele><time>2026-03-28T14:14:27.081Z</time></trkpt><trkpt lat="45.111178325266245" lon="8.096627665152896"><ele>342.0</ele><time>2026-03-28T14:14:28.081Z</time></trkpt><trkpt lat="45.11108994259692" lon="8.096504386563529"><ele>342.20000000000005</ele><time>2026-03-28T14:14:29.081Z</time></trkpt><trkpt lat="45.11100438416799" lon="8.096409601420625"><ele>342.4</ele><time>2026-03-28T14:14:30.081Z</time></trkpt><trkpt lat="45.11090917388454" lon="8.096353462279348"><ele>342.6</ele><time>2026-03-28T14:14:31.081Z</time></trkpt><trkpt lat="45.110816180184685" lon="8.096339362899238"><ele>342.79999999999995</ele><time>2026-03-28T14:14:32.081Z</time></trkpt><trkpt lat="45.1107358743804" lon="8.096352432171045"><ele>343.0</ele><time>2026-03-28T14:14:33.081Z</time></trkpt><trkpt lat="45.11066681659939" lon="8.09634925117572"><ele>341.3333333333333</ele><time>2026-03-28T14:14:34.081Z</time></trkpt><trkpt lat="45.110607473086496" lon="8.096309254005694"><ele>339.66666666666663</ele><time>2026-03-28T14:14:35.081Z</time></trkpt><trkpt lat="45.11056814479867" lon="8.096236423348026"><ele>338.0</ele><time>2026-03-28T14:14:36.081Z</time></trkpt><trkpt lat="45.11054800963463" lon="8.096137003242905"><ele>336.3333333333333</ele><time>2026-03-28T14:14:37.081Z</time></trkpt><trkpt lat="45.110544819188355" lon="8.096012697531155"><ele>334.6666666666667</ele><time>2026-03-28T14:14:38.081Z</time></trkpt><trkpt lat="45.11056295576392" lon="8.095880284340573"><ele>333.0</ele><time>2026-03-28T14:14:39.081Z</time></trkpt><trkpt lat="45.11059834518997" lon="8.095761048101252"><ele>331.1666666666667</ele><time>2026-03-28T14:14:40.081Z</time></trkpt><trkpt lat="45.11061914457344" lon="8.095651195748239"><ele>329.3333333333333</ele><time>2026-03-28T14:14:41.081Z</time></trkpt><trkpt lat="45.11061826162988" lon="8.095549849920207"><ele>327.5</ele><time>2026-03-28T14:14:42.081Z</time></trkpt><trkpt lat="45.1105827096356" lon="8.095472220840533"><ele>325.66666666666663</ele><time>2026-03-28T14:14:43.081Z</time></trkpt><trkpt lat="45.11051616202168" lon="8.09544454671109"><ele>323.8333333333333</ele><time>2026-03-28T14:14:44.081Z</time></trkpt><trkpt lat="45.110433298648935" lon="8.09546858036301"><ele>322.0</ele><time>2026-03-28T14:14:45.081Z</time></trkpt><trkpt lat="45.11033559030939" lon="8.09552355204395"><ele>322.0</ele><time>2026-03-28T14:14:46.081Z</time></trkpt><trkpt lat="45.11022517966378" lon="8.095569881527819"><ele>322.0</ele><time>2026-03-28T14:14:47.081Z</time></trkpt><trkpt lat="45.110105249195094" lon="8.09559273287195"><ele>322.0</ele><time>2026-03-28T14:14:48.082Z</time></trkpt><trkpt lat="45.10997468949383" lon="8.095581292774343"><ele>322.0</ele><time>2026-03-28T14:14:49.082Z</time></trkpt><trkpt lat="45.10983950651545" lon="8.09555969291554"><ele>321.5</ele><time>2026-03-28T14:14:50.082Z</time></trkpt><trkpt lat="45.10970994597869" lon="8.095557860038024"><ele>321.0</ele><time>2026-03-28T14:14:51.082Z</time></trkpt><trkpt lat="45.10958366562128" lon="8.09557219364161"><ele>320.5</ele><time>2026-03-28T14:14:52.082Z</time></trkpt><trkpt lat="45.109458276883736" lon="8.095561443961762"><ele>320.0</ele><time>2026-03-28T14:14:53.082Z</time></trkpt><trkpt lat="45.109337397988504" lon="8.095509342500792"><ele>320.0</ele><time>2026-03-28T14:14:54.082Z</time></trkpt><trkpt lat="45.10922620351785" lon="8.095437355778873"><ele>320.0</ele><time>2026-03-28T14:14:55.082Z</time></trkpt><trkpt lat="45.10911428812472" lon="8.095369440039946"><ele>320.0</ele><time>2026-03-28T14:14:56.082Z</time></trkpt><trkpt lat="45.108990855387425" lon="8.095324745175015"><ele>320.0</ele><time>2026-03-28T14:14:57.082Z</time></trkpt><trkpt lat="45.10885877854531" lon="8.095308241612685"><ele>317.33333333333337</ele><time>2026-03-28T14:14:58.082Z</time></trkpt><trkpt lat="45.10870832013693" lon="8.095340564613105"><ele>314.6666666666667</ele><time>2026-03-28T14:14:59.082Z</time></trkpt><trkpt lat="45.108552128149164" lon="8.095352034669231"><ele>312.0</ele><time>2026-03-28T14:15:00.082Z</time></trkpt><trkpt lat="45.10838785621585" lon="8.095326801646406"><ele>311.6666666666667</ele><time>2026-03-28T14:15:01.081Z</time></trkpt><trkpt lat="45.10822619025549" lon="8.095267816218637"><ele>311.33333333333337</ele><time>2026-03-28T14:15:02.08Z</time></trkpt><trkpt lat="45.108070270357445" lon="8.095207061939703"><ele>311.0</ele><time>2026-03-28T14:15:03.08Z</time></trkpt><trkpt lat="45.107919952722604" lon="8.095152720562467"><ele>311.0</ele><time>2026-03-28T14:15:04.08Z</time></trkpt><trkpt lat="45.10777324284548" lon="8.095097082265836"><ele>311.0</ele><time>2026-03-28T14:15:05.08Z</time></trkpt><trkpt lat="45.107632737177276" lon="8.095037721830776"><ele>311.0</ele><time>2026-03-28T14:15:06.08Z</time></trkpt><trkpt lat="45.10749753067824" lon="8.094971515244653"><ele>311.0</ele><time>2026-03-28T14:15:07.08Z</time></trkpt><trkpt lat="45.10737222378813" lon="8.094883502929719"><ele>311.25</ele><time>2026-03-28T14:15:08.08Z</time></trkpt><trkpt lat="45.10726236915394" lon="8.094768970123711"><ele>311.5</ele><time>2026-03-28T14:15:09.08Z</time></trkpt><trkpt lat="45.10716950373537" lon="8.09462625403134"><ele>311.75</ele><time>2026-03-28T14:15:10.081Z</time></trkpt><trkpt lat="45.107101954127145" lon="8.094447980296906"><ele>312.0</ele><time>2026-03-28T14:15:11.08Z</time></trkpt><trkpt lat="45.10705667751102" lon="8.094243351294772"><ele>310.3333333333333</ele><time>2026-03-28T14:15:12.08Z</time></trkpt><trkpt lat="45.10702547515591" lon="8.094027546993418"><ele>308.66666666666663</ele><time>2026-03-28T14:15:13.08Z</time></trkpt><trkpt lat="45.10699944360274" lon="8.093806472511586"><ele>307.0</ele><time>2026-03-28T14:15:14.08Z</time></trkpt><trkpt lat="45.10698182910359" lon="8.093587967720389"><ele>307.0</ele><time>2026-03-28T14:15:15.08Z</time></trkpt><trkpt lat="45.10699140204291" lon="8.09337533519943"><ele>307.0</ele><time>2026-03-28T14:15:16.08Z</time></trkpt><trkpt lat="45.107027773449715" lon="8.093171053290403"><ele>307.0</ele><time>2026-03-28T14:15:17.08Z</time></trkpt><trkpt lat="45.107077945090104" lon="8.092974946828889"><ele>307.0</ele><time>2026-03-28T14:15:18.08Z</time></trkpt><trkpt lat="45.10712028481547" lon="8.092775656007573"><ele>306.0</ele><time>2026-03-28T14:15:19.08Z</time></trkpt><trkpt lat="45.107136760174086" lon="8.092577672576304"><ele>305.0</ele><time>2026-03-28T14:15:20.08Z</time></trkpt><trkpt lat="45.1071343598036" lon="8.092388969136906"><ele>304.0</ele><time>2026-03-28T14:15:21.08Z</time></trkpt><trkpt lat="45.107092741170945" lon="8.092209501248304"><ele>303.0</ele><time>2026-03-28T14:15:22.08Z</time></trkpt><trkpt lat="45.10702601141013" lon="8.092022094850556"><ele>301.0</ele><time>2026-03-28T14:15:23.08Z</time></trkpt><trkpt lat="45.10695571070339" lon="8.091838518972207"><ele>299.0</ele><time>2026-03-28T14:15:24.08Z</time></trkpt><trkpt lat="45.10688078614275" lon="8.09164090290468"><ele>297.0</ele><time>2026-03-28T14:15:25.08Z</time></trkpt><trkpt lat="45.1068001013157" lon="8.091439657541956"><ele>297.0</ele><time>2026-03-28T14:15:26.08Z</time></trkpt><trkpt lat="45.10671849693433" lon="8.091250291021902"><ele>297.0</ele><time>2026-03-28T14:15:27.08Z</time></trkpt><trkpt lat="45.106634538740124" lon="8.09106077303099"><ele>297.0</ele><time>2026-03-28T14:15:28.08Z</time></trkpt><trkpt lat="45.10656000699351" lon="8.090851608026236"><ele>296.0</ele><time>2026-03-28T14:15:29.08Z</time></trkpt><trkpt lat="45.106513660760264" lon="8.09061842924656"><ele>295.0</ele><time>2026-03-28T14:15:30.081Z</time></trkpt><trkpt lat="45.10649664279215" lon="8.090389579176966"><ele>294.0</ele><time>2026-03-28T14:15:31.081Z</time></trkpt><trkpt lat="45.106491338599575" lon="8.090162649932077"><ele>294.0</ele><time>2026-03-28T14:15:32.081Z</time></trkpt><trkpt lat="45.10646390964116" lon="8.08995170562675"><ele>294.0</ele><time>2026-03-28T14:15:33.081Z</time></trkpt><trkpt lat="45.10641325507726" lon="8.089760433907859"><ele>294.0</ele><time>2026-03-28T14:15:34.081Z</time></trkpt><trkpt lat="45.10633618932518" lon="8.089586550805913"><ele>294.0</ele><time>2026-03-28T14:15:35.081Z</time></trkpt><trkpt lat="45.106244307651416" lon="8.089422325582014"><ele>292.3333333333333</ele><time>2026-03-28T14:15:36.081Z</time></trkpt><trkpt lat="45.106148980399034" lon="8.089256136427407"><ele>290.66666666666663</ele><time>2026-03-28T14:15:37.081Z</time></trkpt><trkpt lat="45.10605942437317" lon="8.089086068301418"><ele>289.0</ele><time>2026-03-28T14:15:38.081Z</time></trkpt><trkpt lat="45.105965825801555" lon="8.08891376083933"><ele>287.3333333333333</ele><time>2026-03-28T14:15:39.081Z</time></trkpt><trkpt lat="45.10586111466103" lon="8.08874216883487"><ele>285.6666666666667</ele><time>2026-03-28T14:15:40.081Z</time></trkpt><trkpt lat="45.10574033213319" lon="8.08858503839613"><ele>284.0</ele><time>2026-03-28T14:15:41.081Z</time></trkpt><trkpt lat="45.105610502691746" lon="8.088439972341362"><ele>284.0</ele><time>2026-03-28T14:15:42.081Z</time></trkpt><trkpt lat="45.10548715993479" lon="8.088307118107522"><ele>284.0</ele><time>2026-03-28T14:15:43.081Z</time></trkpt><trkpt lat="45.10536908240907" lon="8.088172421735699"><ele>284.0</ele><time>2026-03-28T14:15:44.081Z</time></trkpt><trkpt lat="45.10524725263454" lon="8.088048671117685"><ele>281.33333333333337</ele><time>2026-03-28T14:15:45.081Z</time></trkpt><trkpt lat="45.10511119348953" lon="8.087959352213137"><ele>278.6666666666667</ele><time>2026-03-28T14:15:46.081Z</time></trkpt><trkpt lat="45.1049521703077" lon="8.087903881562717"><ele>276.0</ele><time>2026-03-28T14:15:47.081Z</time></trkpt><trkpt lat="45.104780964772665" lon="8.087874320932423"><ele>276.0</ele><time>2026-03-28T14:15:48.081Z</time></trkpt><trkpt lat="45.10459983634821" lon="8.087861264665491"><ele>276.0</ele><time>2026-03-28T14:15:49.081Z</time></trkpt><trkpt lat="45.104412496818554" lon="8.087848214779328"><ele>276.0</ele><time>2026-03-28T14:15:50.081Z</time></trkpt><trkpt lat="45.104223607619204" lon="8.08783132964499"><ele>274.0</ele><time>2026-03-28T14:15:51.081Z</time></trkpt><trkpt lat="45.104026038274185" lon="8.087811184833338"><ele>272.0</ele><time>2026-03-28T14:15:52.081Z</time></trkpt><trkpt lat="45.10382533991268" lon="8.08779598536578"><ele>270.0</ele><time>2026-03-28T14:15:53.081Z</time></trkpt><trkpt lat="45.103624542511895" lon="8.087779216207926"><ele>270.0</ele><time>2026-03-28T14:15:54.081Z</time></trkpt><trkpt lat="45.10342400899849" lon="8.087769746482754"><ele>270.0</ele><time>2026-03-28T14:15:55.081Z</time></trkpt><trkpt lat="45.10323073189002" lon="8.08777092621808"><ele>270.0</ele><time>2026-03-28T14:15:56.081Z</time></trkpt><trkpt lat="45.103033508630546" lon="8.087779885227622"><ele>270.3333333333333</ele><time>2026-03-28T14:15:57.081Z</time></trkpt><trkpt lat="45.1028434269399" lon="8.087793498862823"><ele>270.66666666666663</ele><time>2026-03-28T14:15:58.081Z</time></trkpt><trkpt lat="45.102658641846375" lon="8.087806931824366"><ele>271.0</ele><time>2026-03-28T14:15:59.081Z</time></trkpt><trkpt lat="45.10248209261894" lon="8.087826233724394"><ele>269.3333333333333</ele><time>2026-03-28T14:16:00.081Z</time></trkpt><trkpt lat="45.102308911796385" lon="8.087862035012408"><ele>267.6666666666667</ele><time>2026-03-28T14:16:01.081Z</time></trkpt><trkpt lat="45.102142007248304" lon="8.087930524734226"><ele>266.0</ele><time>2026-03-28T14:16:02.081Z</time></trkpt><trkpt lat="45.101978186112554" lon="8.088008477939063"><ele>266.0</ele><time>2026-03-28T14:16:03.081Z</time></trkpt><trkpt lat="45.10181420460639" lon="8.088089520856306"><ele>266.0</ele><time>2026-03-28T14:16:04.082Z</time></trkpt><trkpt lat="45.101648296923855" lon="8.088119697657802"><ele>266.0</ele><time>2026-03-28T14:16:05.082Z</time></trkpt><trkpt lat="45.101488456512335" lon="8.088079978440781"><ele>268.0</ele><time>2026-03-28T14:16:06.082Z</time></trkpt><trkpt lat="45.10134242323257" lon="8.088009962660056"><ele>270.0</ele><time>2026-03-28T14:16:07.082Z</time></trkpt><trkpt lat="45.101191717018146" lon="8.087947818937801"><ele>272.0</ele><time>2026-03-28T14:16:08.082Z</time></trkpt><trkpt lat="45.10103664811945" lon="8.087929301414459"><ele>272.0</ele><time>2026-03-28T14:16:09.082Z</time></trkpt><trkpt lat="45.100869268603375" lon="8.087947520868182"><ele>272.0</ele><time>2026-03-28T14:16:10.082Z</time></trkpt><trkpt lat="45.100699163398566" lon="8.08800247777217"><ele>272.0</ele><time>2026-03-28T14:16:11.082Z</time></trkpt><trkpt lat="45.10052650124326" lon="8.088061818661304"><ele>271.0</ele><time>2026-03-28T14:16:12.082Z</time></trkpt><trkpt lat="45.1003539574825" lon="8.088101527604088"><ele>270.0</ele><time>2026-03-28T14:16:13.082Z</time></trkpt><trkpt lat="45.100175147219005" lon="8.088104426160049"><ele>269.0</ele><time>2026-03-28T14:16:14.082Z</time></trkpt><trkpt lat="45.09999493753515" lon="8.088066612149115"><ele>268.0</ele><time>2026-03-28T14:16:15.082Z</time></trkpt><trkpt lat="45.09981904332948" lon="8.087997824122032"><ele>267.0</ele><time>2026-03-28T14:16:16.082Z</time></trkpt><trkpt lat="45.099645503375356" lon="8.08790923282567"><ele>266.0</ele><time>2026-03-28T14:16:17.082Z</time></trkpt><trkpt lat="45.09947232097666" lon="8.087820255375567"><ele>266.0</ele><time>2026-03-28T14:16:18.082Z</time></trkpt><trkpt lat="45.09930867785898" lon="8.087735698917335"><ele>266.0</ele><time>2026-03-28T14:16:19.082Z</time></trkpt><trkpt lat="45.09914985550719" lon="8.087654827904048"><ele>266.0</ele><time>2026-03-28T14:16:20.082Z</time></trkpt><trkpt lat="45.09899697002627" lon="8.087584392627205"><ele>266.0</ele><time>2026-03-28T14:16:21.082Z</time></trkpt><trkpt lat="45.098847495756864" lon="8.087517785047694"><ele>266.0</ele><time>2026-03-28T14:16:22.082Z</time></trkpt><trkpt lat="45.09870809005459" lon="8.087453542360466"><ele>266.0</ele><time>2026-03-28T14:16:23.082Z</time></trkpt><trkpt lat="45.09858268859923" lon="8.087411996136423"><ele>266.0</ele><time>2026-03-28T14:16:24.082Z</time></trkpt><trkpt lat="45.0984759955734" lon="8.087405649587993"><ele>265.1666666666667</ele><time>2026-03-28T14:16:25.082Z</time></trkpt><trkpt lat="45.09839146874414" lon="8.087415064932532"><ele>264.33333333333337</ele><time>2026-03-28T14:16:26.082Z</time></trkpt><trkpt lat="45.098317462468195" lon="8.087416388627625"><ele>263.5</ele><time>2026-03-28T14:16:27.082Z</time></trkpt><trkpt lat="45.09824954660573" lon="8.08739211266453"><ele>262.6666666666667</ele><time>2026-03-28T14:16:28.082Z</time></trkpt><trkpt lat="45.09818461138296" lon="8.087342044587823"><ele>261.8333333333333</ele><time>2026-03-28T14:16:29.082Z</time></trkpt><trkpt lat="45.09810695404467" lon="8.087266896343188"><ele>261.0</ele><time>2026-03-28T14:16:30.082Z</time></trkpt><trkpt lat="45.098015836170994" lon="8.087184434163333"><ele>261.0</ele><time>2026-03-28T14:16:31.082Z</time></trkpt><trkpt lat="45.0979123679679" lon="8.087096486153287"><ele>261.0</ele><time>2026-03-28T14:16:32.082Z</time></trkpt><trkpt lat="45.097800962799376" lon="8.08700307514979"><ele>261.0</ele><time>2026-03-28T14:16:33.082Z</time></trkpt><trkpt lat="45.09768637595117" lon="8.086897863285643"><ele>261.0</ele><time>2026-03-28T14:16:34.082Z</time></trkpt><trkpt lat="45.09756478866434" lon="8.086782240974022"><ele>261.0</ele><time>2026-03-28T14:16:35.082Z</time></trkpt><trkpt lat="45.0974369554784" lon="8.086665850602715"><ele>261.0</ele><time>2026-03-28T14:16:36.082Z</time></trkpt><trkpt lat="45.097307486152545" lon="8.08655161246131"><ele>261.0</ele><time>2026-03-28T14:16:37.083Z</time></trkpt><trkpt lat="45.09718300889562" lon="8.08643971360439"><ele>259.5</ele><time>2026-03-28T14:16:38.083Z</time></trkpt><trkpt lat="45.09706467438693" lon="8.086335694529716"><ele>258.0</ele><time>2026-03-28T14:16:39.083Z</time></trkpt><trkpt lat="45.09695292507155" lon="8.086234970885842"><ele>256.5</ele><time>2026-03-28T14:16:40.083Z</time></trkpt><trkpt lat="45.09684540075726" lon="8.086137872818025"><ele>255.0</ele><time>2026-03-28T14:16:41.083Z</time></trkpt><trkpt lat="45.09674069672663" lon="8.08604399265955"><ele>255.0</ele><time>2026-03-28T14:16:42.083Z</time></trkpt><trkpt lat="45.09664022127351" lon="8.08595296929241"><ele>255.0</ele><time>2026-03-28T14:16:43.083Z</time></trkpt><trkpt lat="45.096543702569136" lon="8.085867377584032"><ele>255.0</ele><time>2026-03-28T14:16:44.083Z</time></trkpt><trkpt lat="45.0964559475723" lon="8.085787651629452"><ele>255.0</ele><time>2026-03-28T14:16:45.083Z</time></trkpt><trkpt lat="45.096385013784506" lon="8.085716790409139"><ele>255.0</ele><time>2026-03-28T14:16:46.083Z</time></trkpt><trkpt lat="45.09632765520417" lon="8.085653763097843"><ele>255.0</ele><time>2026-03-28T14:16:47.083Z</time></trkpt><trkpt lat="45.096232203360536" lon="8.085560501892328"><ele>255.0</ele><time>2026-03-28T14:16:49.083Z</time></trkpt><trkpt lat="45.09611281610901" lon="8.085552889310454"><ele>255.0</ele><time>2026-03-28T14:16:51.083Z</time></trkpt><trkpt lat="45.096041509387646" lon="8.085596553866841"><ele>255.0</ele><time>2026-03-28T14:16:52.083Z</time></trkpt><trkpt lat="45.09595754382609" lon="8.085669570787864"><ele>255.0</ele><time>2026-03-28T14:16:53.083Z</time></trkpt><trkpt lat="45.09586446181793" lon="8.085774737876687"><ele>255.0</ele><time>2026-03-28T14:16:54.083Z</time></trkpt><trkpt lat="45.09576462306284" lon="8.085890630817447"><ele>255.0</ele><time>2026-03-28T14:16:55.083Z</time></trkpt><trkpt lat="45.09565213261707" lon="8.086008967546332"><ele>255.0</ele><time>2026-03-28T14:16:56.083Z</time></trkpt><trkpt lat="45.095534559267854" lon="8.086127955075616"><ele>255.0</ele><time>2026-03-28T14:16:57.083Z</time></trkpt><trkpt lat="45.09540525340505" lon="8.086258740398021"><ele>255.33333333333331</ele><time>2026-03-28T14:16:58.083Z</time></trkpt><trkpt lat="45.09527382818235" lon="8.08639679495954"><ele>255.66666666666666</ele><time>2026-03-28T14:16:59.083Z</time></trkpt><trkpt lat="45.09514260724963" lon="8.086539327119501"><ele>256.0</ele><time>2026-03-28T14:17:00.083Z</time></trkpt><trkpt lat="45.09500014665708" lon="8.086686710227204"><ele>254.33333333333331</ele><time>2026-03-28T14:17:01.083Z</time></trkpt><trkpt lat="45.094859416637306" lon="8.08682814312326"><ele>252.66666666666669</ele><time>2026-03-28T14:17:02.083Z</time></trkpt><trkpt lat="45.094717083450234" lon="8.086970089242719"><ele>251.0</ele><time>2026-03-28T14:17:03.083Z</time></trkpt><trkpt lat="45.094572040226595" lon="8.08711929541013"><ele>251.0</ele><time>2026-03-28T14:17:04.083Z</time></trkpt><trkpt lat="45.09443087582368" lon="8.08726897815848"><ele>251.0</ele><time>2026-03-28T14:17:05.083Z</time></trkpt><trkpt lat="45.09429339034371" lon="8.087412097523417"><ele>251.0</ele><time>2026-03-28T14:17:06.083Z</time></trkpt><trkpt lat="45.09416215109291" lon="8.087548940708844"><ele>251.0</ele><time>2026-03-28T14:17:07.082Z</time></trkpt><trkpt lat="45.09403176716606" lon="8.087676375470938"><ele>251.0</ele><time>2026-03-28T14:17:08.082Z</time></trkpt><trkpt lat="45.09390716416022" lon="8.087800810385257"><ele>251.0</ele><time>2026-03-28T14:17:09.082Z</time></trkpt><trkpt lat="45.09378211437196" lon="8.087923563472133"><ele>251.0</ele><time>2026-03-28T14:17:10.083Z</time></trkpt><trkpt lat="45.093660140905165" lon="8.088055344675249"><ele>251.0</ele><time>2026-03-28T14:17:11.082Z</time></trkpt><trkpt lat="45.09353805301404" lon="8.088194181788829"><ele>251.0</ele><time>2026-03-28T14:17:12.082Z</time></trkpt><trkpt lat="45.09342241429081" lon="8.08834916899636"><ele>251.66666666666669</ele><time>2026-03-28T14:17:13.082Z</time></trkpt><trkpt lat="45.09332132245087" lon="8.088517574580452"><ele>252.33333333333331</ele><time>2026-03-28T14:17:14.083Z</time></trkpt><trkpt lat="45.0932343811081" lon="8.088697242918688"><ele>253.0</ele><time>2026-03-28T14:17:15.083Z</time></trkpt><trkpt lat="45.093160177020074" lon="8.088876376263068"><ele>253.0</ele><time>2026-03-28T14:17:16.082Z</time></trkpt><trkpt lat="45.09309134546372" lon="8.089063557109228"><ele>253.0</ele><time>2026-03-28T14:17:17.082Z</time></trkpt><trkpt lat="45.09302067076871" lon="8.089247687352279"><ele>253.0</ele><time>2026-03-28T14:17:18.082Z</time></trkpt><trkpt lat="45.09295168131046" lon="8.089424118852726"><ele>253.0</ele><time>2026-03-28T14:17:19.082Z</time></trkpt><trkpt lat="45.09288298474753" lon="8.089597754781549"><ele>254.0</ele><time>2026-03-28T14:17:20.082Z</time></trkpt><trkpt lat="45.09281428727281" lon="8.089777796145611"><ele>255.0</ele><time>2026-03-28T14:17:21.082Z</time></trkpt><trkpt lat="45.09274821343492" lon="8.089965510360953"><ele>256.0</ele><time>2026-03-28T14:17:22.082Z</time></trkpt><trkpt lat="45.09268484512347" lon="8.09015957231847"><ele>257.0</ele><time>2026-03-28T14:17:23.082Z</time></trkpt><trkpt lat="45.09261436280251" lon="8.090348507764363"><ele>257.33333333333337</ele><time>2026-03-28T14:17:24.082Z</time></trkpt><trkpt lat="45.092543214889865" lon="8.090536869317228"><ele>257.6666666666667</ele><time>2026-03-28T14:17:25.082Z</time></trkpt><trkpt lat="45.092472141198854" lon="8.090729055521216"><ele>258.0</ele><time>2026-03-28T14:17:26.082Z</time></trkpt><trkpt lat="45.092401518131524" lon="8.090926319614088"><ele>257.0</ele><time>2026-03-28T14:17:27.082Z</time></trkpt><trkpt lat="45.09232985775567" lon="8.091122454329792"><ele>256.0</ele><time>2026-03-28T14:17:28.082Z</time></trkpt><trkpt lat="45.09225770470638" lon="8.091316738304918"><ele>255.0</ele><time>2026-03-28T14:17:29.082Z</time></trkpt><trkpt lat="45.09218419901826" lon="8.091512874460856"><ele>255.66666666666669</ele><time>2026-03-28T14:17:30.082Z</time></trkpt><trkpt lat="45.092112259838494" lon="8.091706762784815"><ele>256.33333333333337</ele><time>2026-03-28T14:17:31.082Z</time></trkpt><trkpt lat="45.092044810321404" lon="8.091902693303902"><ele>257.0</ele><time>2026-03-28T14:17:32.082Z</time></trkpt><trkpt lat="45.091978905674814" lon="8.092095172822743"><ele>257.0</ele><time>2026-03-28T14:17:33.082Z</time></trkpt><trkpt lat="45.09190794526844" lon="8.092283043044128"><ele>257.0</ele><time>2026-03-28T14:17:34.082Z</time></trkpt><trkpt lat="45.09183383752071" lon="8.09247160822285"><ele>257.0</ele><time>2026-03-28T14:17:35.082Z</time></trkpt><trkpt lat="45.09176053400842" lon="8.092666429464618"><ele>257.0</ele><time>2026-03-28T14:17:36.082Z</time></trkpt><trkpt lat="45.09168766362301" lon="8.092864401906965"><ele>257.0</ele><time>2026-03-28T14:17:37.083Z</time></trkpt><trkpt lat="45.09161190735776" lon="8.093060724695183"><ele>257.0</ele><time>2026-03-28T14:17:38.083Z</time></trkpt><trkpt lat="45.091535550627455" lon="8.093256783230123"><ele>255.33333333333334</ele><time>2026-03-28T14:17:39.083Z</time></trkpt><trkpt lat="45.0914600977476" lon="8.09345269848525"><ele>253.66666666666669</ele><time>2026-03-28T14:17:40.083Z</time></trkpt><trkpt lat="45.09138295579377" lon="8.093650170824075"><ele>252.0</ele><time>2026-03-28T14:17:41.083Z</time></trkpt><trkpt lat="45.09130503247617" lon="8.093849498817907"><ele>252.0</ele><time>2026-03-28T14:17:42.083Z</time></trkpt><trkpt lat="45.09122786597587" lon="8.094055464704812"><ele>252.0</ele><time>2026-03-28T14:17:43.083Z</time></trkpt><trkpt lat="45.09115008913872" lon="8.094267983675826"><ele>252.0</ele><time>2026-03-28T14:17:44.083Z</time></trkpt><trkpt lat="45.0910711921475" lon="8.094482924825744"><ele>252.33333333333331</ele><time>2026-03-28T14:17:45.083Z</time></trkpt><trkpt lat="45.090990086763426" lon="8.09469916763133"><ele>252.66666666666666</ele><time>2026-03-28T14:17:46.083Z</time></trkpt><trkpt lat="45.0909069173339" lon="8.09491558793523"><ele>253.0</ele><time>2026-03-28T14:17:47.083Z</time></trkpt><trkpt lat="45.09082511707385" lon="8.09513695668393"><ele>253.0</ele><time>2026-03-28T14:17:48.083Z</time></trkpt><trkpt lat="45.09074256763786" lon="8.095358987706899"><ele>253.0</ele><time>2026-03-28T14:17:49.083Z</time></trkpt><trkpt lat="45.09066062570095" lon="8.095578870268607"><ele>253.0</ele><time>2026-03-28T14:17:50.083Z</time></trkpt><trkpt lat="45.09058004442083" lon="8.09578992256226"><ele>253.0</ele><time>2026-03-28T14:17:51.083Z</time></trkpt><trkpt lat="45.09050113700782" lon="8.095991928329903"><ele>253.0</ele><time>2026-03-28T14:17:52.083Z</time></trkpt><trkpt lat="45.090426124077354" lon="8.096186505585194"><ele>253.0</ele><time>2026-03-28T14:17:53.083Z</time></trkpt><trkpt lat="45.09035591409383" lon="8.096373266554757"><ele>253.0</ele><time>2026-03-28T14:17:54.083Z</time></trkpt><trkpt lat="45.09028888510402" lon="8.096554585618485"><ele>253.0</ele><time>2026-03-28T14:17:55.083Z</time></trkpt><trkpt lat="45.09022339005994" lon="8.096727097996041"><ele>253.0</ele><time>2026-03-28T14:17:56.083Z</time></trkpt><trkpt lat="45.09015492894939" lon="8.096893475325569"><ele>253.0</ele><time>2026-03-28T14:17:57.083Z</time></trkpt><trkpt lat="45.090089127761" lon="8.097049950790487"><ele>252.8</ele><time>2026-03-28T14:17:58.083Z</time></trkpt><trkpt lat="45.09002309393231" lon="8.097187489160016"><ele>252.60000000000002</ele><time>2026-03-28T14:17:59.083Z</time></trkpt><trkpt lat="45.08995228018212" lon="8.097305692880086"><ele>252.39999999999998</ele><time>2026-03-28T14:18:00.083Z</time></trkpt><trkpt lat="45.08986923392406" lon="8.097390706084965"><ele>252.2</ele><time>2026-03-28T14:18:01.083Z</time></trkpt><trkpt lat="45.0897829703692" lon="8.097439604900282"><ele>252.0</ele><time>2026-03-28T14:18:02.083Z</time></trkpt><trkpt lat="45.08968578742027" lon="8.097441945049964"><ele>252.0</ele><time>2026-03-28T14:18:03.083Z</time></trkpt><trkpt lat="45.08958123328902" lon="8.097394923426512"><ele>252.0</ele><time>2026-03-28T14:18:04.083Z</time></trkpt><trkpt lat="45.08947069839677" lon="8.097310938829835"><ele>252.0</ele><time>2026-03-28T14:18:05.083Z</time></trkpt><trkpt lat="45.0893462564547" lon="8.097209666249444"><ele>252.0</ele><time>2026-03-28T14:18:06.083Z</time></trkpt><trkpt lat="45.08921179793086" lon="8.09711129382484"><ele>250.33333333333331</ele><time>2026-03-28T14:18:07.083Z</time></trkpt><trkpt lat="45.08907330439498" lon="8.09698765207498"><ele>248.66666666666666</ele><time>2026-03-28T14:18:08.083Z</time></trkpt><trkpt lat="45.088922601313044" lon="8.096860669020957"><ele>247.0</ele><time>2026-03-28T14:18:09.083Z</time></trkpt><trkpt lat="45.08877144816659" lon="8.096727154350193"><ele>247.0</ele><time>2026-03-28T14:18:10.083Z</time></trkpt><trkpt lat="45.08862022820985" lon="8.096595826453857"><ele>247.0</ele><time>2026-03-28T14:18:11.084Z</time></trkpt><trkpt lat="45.08846272673944" lon="8.096460748149628"><ele>247.0</ele><time>2026-03-28T14:18:12.084Z</time></trkpt><trkpt lat="45.08829675790944" lon="8.096322459582984"><ele>246.66666666666666</ele><time>2026-03-28T14:18:13.084Z</time></trkpt><trkpt lat="45.088127389213355" lon="8.096178804432885"><ele>246.33333333333331</ele><time>2026-03-28T14:18:14.084Z</time></trkpt><trkpt lat="45.087955121949555" lon="8.096029848976661"><ele>246.0</ele><time>2026-03-28T14:18:15.084Z</time></trkpt><trkpt lat="45.087785570522534" lon="8.095882393213573"><ele>246.33333333333331</ele><time>2026-03-28T14:18:16.084Z</time></trkpt><trkpt lat="45.08762372434243" lon="8.095739548078647"><ele>246.66666666666666</ele><time>2026-03-28T14:18:17.084Z</time></trkpt><trkpt lat="45.087467324994286" lon="8.095611762837622"><ele>247.0</ele><time>2026-03-28T14:18:18.084Z</time></trkpt><trkpt lat="45.087314771662946" lon="8.095485390965257"><ele>246.33333333333331</ele><time>2026-03-28T14:18:19.084Z</time></trkpt><trkpt lat="45.087168195806065" lon="8.095342939221444"><ele>245.66666666666669</ele><time>2026-03-28T14:18:20.084Z</time></trkpt><trkpt lat="45.087044085155455" lon="8.095162925760286"><ele>245.0</ele><time>2026-03-28T14:18:21.084Z</time></trkpt><trkpt lat="45.0869382789336" lon="8.094959873945513"><ele>246.33333333333334</ele><time>2026-03-28T14:18:22.084Z</time></trkpt><trkpt lat="45.08685006643155" lon="8.094739942124752"><ele>247.66666666666669</ele><time>2026-03-28T14:18:23.084Z</time></trkpt><trkpt lat="45.08678259570977" lon="8.094501863232479"><ele>249.0</ele><time>2026-03-28T14:18:24.084Z</time></trkpt><trkpt lat="45.08671973169963" lon="8.0942566121801"><ele>250.0</ele><time>2026-03-28T14:18:25.084Z</time></trkpt><trkpt lat="45.08665435722493" lon="8.094012459956282"><ele>251.0</ele><time>2026-03-28T14:18:26.084Z</time></trkpt><trkpt lat="45.08658769638946" lon="8.09376597215733"><ele>252.0</ele><time>2026-03-28T14:18:27.084Z</time></trkpt><trkpt lat="45.08652089808584" lon="8.093517140091599"><ele>253.33333333333331</ele><time>2026-03-28T14:18:28.084Z</time></trkpt><trkpt lat="45.08645150940443" lon="8.093268402754983"><ele>254.66666666666666</ele><time>2026-03-28T14:18:29.084Z</time></trkpt><trkpt lat="45.086381417235195" lon="8.093023493557219"><ele>256.0</ele><time>2026-03-28T14:18:30.084Z</time></trkpt><trkpt lat="45.086310802320305" lon="8.092776784795598"><ele>257.0</ele><time>2026-03-28T14:18:31.084Z</time></trkpt><trkpt lat="45.086242143762284" lon="8.092527801013812"><ele>258.0</ele><time>2026-03-28T14:18:32.084Z</time></trkpt><trkpt lat="45.08617254937924" lon="8.0922771458483"><ele>259.0</ele><time>2026-03-28T14:18:33.084Z</time></trkpt><trkpt lat="45.08610180822237" lon="8.092025120816151"><ele>259.0</ele><time>2026-03-28T14:18:34.084Z</time></trkpt><trkpt lat="45.08602770191492" lon="8.091770504964545"><ele>259.0</ele><time>2026-03-28T14:18:35.084Z</time></trkpt><trkpt lat="45.08595490884064" lon="8.091509760289942"><ele>259.0</ele><time>2026-03-28T14:18:36.084Z</time></trkpt><trkpt lat="45.085881527813235" lon="8.091249239520826"><ele>258.3333333333333</ele><time>2026-03-28T14:18:37.084Z</time></trkpt><trkpt lat="45.08580979992774" lon="8.090985336532285"><ele>257.6666666666667</ele><time>2026-03-28T14:18:38.084Z</time></trkpt><trkpt lat="45.085737208573875" lon="8.090720524271827"><ele>257.0</ele><time>2026-03-28T14:18:39.084Z</time></trkpt><trkpt lat="45.08566430222972" lon="8.090455035539613"><ele>263.0</ele><time>2026-03-28T14:18:40.084Z</time></trkpt><trkpt lat="45.085594311747414" lon="8.09019186777959"><ele>269.0</ele><time>2026-03-28T14:18:41.084Z</time></trkpt><trkpt lat="45.085522474552235" lon="8.089935128428149"><ele>275.0</ele><time>2026-03-28T14:18:42.084Z</time></trkpt><trkpt lat="45.08544376162313" lon="8.089696811493775"><ele>275.0</ele><time>2026-03-28T14:18:43.084Z</time></trkpt><trkpt lat="45.08534893164917" lon="8.089480761072965"><ele>275.0</ele><time>2026-03-28T14:18:44.085Z</time></trkpt><trkpt lat="45.08523095797267" lon="8.08928416930563"><ele>275.0</ele><time>2026-03-28T14:18:45.085Z</time></trkpt><trkpt lat="45.08509715850034" lon="8.08910330957808"><ele>273.33333333333337</ele><time>2026-03-28T14:18:46.085Z</time></trkpt><trkpt lat="45.08495572627726" lon="8.088928839581488"><ele>271.6666666666667</ele><time>2026-03-28T14:18:47.085Z</time></trkpt><trkpt lat="45.084816606357855" lon="8.088751549727904"><ele>270.0</ele><time>2026-03-28T14:18:48.085Z</time></trkpt><trkpt lat="45.084679648824455" lon="8.088571180660358"><ele>274.0</ele><time>2026-03-28T14:18:49.085Z</time></trkpt><trkpt lat="45.08454818032956" lon="8.088389202076387"><ele>278.0</ele><time>2026-03-28T14:18:50.085Z</time></trkpt><trkpt lat="45.08441946208795" lon="8.088216936218581"><ele>282.0</ele><time>2026-03-28T14:18:51.085Z</time></trkpt><trkpt lat="45.084300438532246" lon="8.088055697480545"><ele>282.75</ele><time>2026-03-28T14:18:52.085Z</time></trkpt><trkpt lat="45.08418942303518" lon="8.087910231151744"><ele>283.5</ele><time>2026-03-28T14:18:53.085Z</time></trkpt><trkpt lat="45.084083520014715" lon="8.087770244551685"><ele>284.25</ele><time>2026-03-28T14:18:54.085Z</time></trkpt><trkpt lat="45.08397920923462" lon="8.08763078378221"><ele>285.0</ele><time>2026-03-28T14:18:55.085Z</time></trkpt><trkpt lat="45.08387435884659" lon="8.087498910132057"><ele>287.0</ele><time>2026-03-28T14:18:56.085Z</time></trkpt><trkpt lat="45.083774021006164" lon="8.087370053423465"><ele>289.0</ele><time>2026-03-28T14:18:57.085Z</time></trkpt><trkpt lat="45.0836781883721" lon="8.087240650002943"><ele>291.0</ele><time>2026-03-28T14:18:58.085Z</time></trkpt><trkpt lat="45.08358232605502" lon="8.087117573197279"><ele>293.0</ele><time>2026-03-28T14:18:59.085Z</time></trkpt><trkpt lat="45.08349439846387" lon="8.087008313789873"><ele>293.0</ele><time>2026-03-28T14:19:00.085Z</time></trkpt><trkpt lat="45.08341665722434" lon="8.086909059237493"><ele>293.0</ele><time>2026-03-28T14:19:01.085Z</time></trkpt><trkpt lat="45.08335069199416" lon="8.08681916740317"><ele>293.0</ele><time>2026-03-28T14:19:02.085Z</time></trkpt><trkpt lat="45.0832841116659" lon="8.086731190027125"><ele>293.0</ele><time>2026-03-28T14:19:03.085Z</time></trkpt><trkpt lat="45.08321222764078" lon="8.086642750753388"><ele>293.0</ele><time>2026-03-28T14:19:04.085Z</time></trkpt><trkpt lat="45.083135927974084" lon="8.086565649597395"><ele>293.33333333333337</ele><time>2026-03-28T14:19:05.085Z</time></trkpt><trkpt lat="45.083057068765505" lon="8.086506530208169"><ele>293.6666666666667</ele><time>2026-03-28T14:19:06.085Z</time></trkpt><trkpt lat="45.082985645288595" lon="8.086459621857077"><ele>294.0</ele><time>2026-03-28T14:19:07.085Z</time></trkpt><trkpt lat="45.0829284230178" lon="8.086418182982065"><ele>294.3333333333333</ele><time>2026-03-28T14:19:08.085Z</time></trkpt><trkpt lat="45.082859604475345" lon="8.086331985567726"><ele>294.66666666666663</ele><time>2026-03-28T14:19:10.085Z</time></trkpt><trkpt lat="45.08287560695488" lon="8.086217611582612"><ele>295.0</ele><time>2026-03-28T14:19:12.085Z</time></trkpt><trkpt lat="45.08295890840154" lon="8.086042909848146"><ele>295.0</ele><time>2026-03-28T14:19:14.085Z</time></trkpt><trkpt lat="45.08301173380287" lon="8.085914381858798"><ele>295.0</ele><time>2026-03-28T14:19:15.085Z</time></trkpt><trkpt lat="45.08305576239469" lon="8.085785380221116"><ele>295.0</ele><time>2026-03-28T14:19:16.084Z</time></trkpt><trkpt lat="45.08310534649963" lon="8.085641057255982"><ele>295.0</ele><time>2026-03-28T14:19:17.084Z</time></trkpt><trkpt lat="45.08316449020476" lon="8.085481571816599"><ele>295.0</ele><time>2026-03-28T14:19:18.084Z</time></trkpt><trkpt lat="45.08322061186631" lon="8.085324470201652"><ele>296.0</ele><time>2026-03-28T14:19:19.084Z</time></trkpt><trkpt lat="45.08329743068294" lon="8.085174767118867"><ele>297.0</ele><time>2026-03-28T14:19:20.084Z</time></trkpt><trkpt lat="45.08338680971144" lon="8.085013768356095"><ele>298.0</ele><time>2026-03-28T14:19:21.084Z</time></trkpt><trkpt lat="45.08349818261674" lon="8.084856756871552"><ele>299.0</ele><time>2026-03-28T14:19:22.085Z</time></trkpt><trkpt lat="45.0836152244485" lon="8.084711622187129"><ele>299.6666666666667</ele><time>2026-03-28T14:19:23.084Z</time></trkpt><trkpt lat="45.08373839156973" lon="8.084572101533771"><ele>300.3333333333333</ele><time>2026-03-28T14:19:24.084Z</time></trkpt><trkpt lat="45.08387800476155" lon="8.084435414313132"><ele>301.0</ele><time>2026-03-28T14:19:25.084Z</time></trkpt><trkpt lat="45.08403339531925" lon="8.08432368751034"><ele>303.0</ele><time>2026-03-28T14:19:26.084Z</time></trkpt><trkpt lat="45.0842029789886" lon="8.084243569076854"><ele>305.0</ele><time>2026-03-28T14:19:27.084Z</time></trkpt><trkpt lat="45.084380343763925" lon="8.084182807464366"><ele>307.0</ele><time>2026-03-28T14:19:28.084Z</time></trkpt><trkpt lat="45.08456072467461" lon="8.0841228984185"><ele>308.66666666666663</ele><time>2026-03-28T14:19:29.084Z</time></trkpt><trkpt lat="45.08473841776143" lon="8.084060308939117"><ele>310.3333333333333</ele><time>2026-03-28T14:19:30.084Z</time></trkpt><trkpt lat="45.084907429492816" lon="8.084000536640751"><ele>312.0</ele><time>2026-03-28T14:19:31.084Z</time></trkpt><trkpt lat="45.08506234296513" lon="8.0839531354434"><ele>312.0</ele><time>2026-03-28T14:19:32.084Z</time></trkpt><trkpt lat="45.08520523244515" lon="8.083892451898375"><ele>312.0</ele><time>2026-03-28T14:19:33.084Z</time></trkpt><trkpt lat="45.085340343975176" lon="8.083799080571048"><ele>312.0</ele><time>2026-03-28T14:19:34.084Z</time></trkpt><trkpt lat="45.08547433236988" lon="8.0836704315237"><ele>312.0</ele><time>2026-03-28T14:19:35.084Z</time></trkpt><trkpt lat="45.08561015270188" lon="8.083530359085918"><ele>312.0</ele><time>2026-03-28T14:19:36.084Z</time></trkpt><trkpt lat="45.08575378596883" lon="8.083396783462074"><ele>312.0</ele><time>2026-03-28T14:19:37.084Z</time></trkpt><trkpt lat="45.08590451007888" lon="8.083263677678366"><ele>315.6666666666667</ele><time>2026-03-28T14:19:38.084Z</time></trkpt><trkpt lat="45.08605919627269" lon="8.083151546376811"><ele>319.33333333333337</ele><time>2026-03-28T14:19:39.084Z</time></trkpt><trkpt lat="45.08621671353615" lon="8.083065900863815"><ele>323.0</ele><time>2026-03-28T14:19:40.084Z</time></trkpt><trkpt lat="45.08637210519479" lon="8.0829992912792"><ele>323.0</ele><time>2026-03-28T14:19:41.084Z</time></trkpt><trkpt lat="45.08652422261418" lon="8.082926634717248"><ele>323.0</ele><time>2026-03-28T14:19:42.084Z</time></trkpt><trkpt lat="45.086666375220325" lon="8.082836396325764"><ele>323.0</ele><time>2026-03-28T14:19:43.085Z</time></trkpt><trkpt lat="45.08679568908011" lon="8.082717438382701"><ele>323.0</ele><time>2026-03-28T14:19:44.085Z</time></trkpt><trkpt lat="45.08691052642564" lon="8.082567038433236"><ele>323.0</ele><time>2026-03-28T14:19:45.085Z</time></trkpt><trkpt lat="45.08700842708898" lon="8.082387643841711"><ele>323.0</ele><time>2026-03-28T14:19:46.085Z</time></trkpt><trkpt lat="45.087097401503684" lon="8.082196256529386"><ele>323.0</ele><time>2026-03-28T14:19:47.085Z</time></trkpt><trkpt lat="45.087184011407665" lon="8.081995733885421"><ele>323.0</ele><time>2026-03-28T14:19:48.085Z</time></trkpt><trkpt lat="45.08727252633191" lon="8.08179164477182"><ele>323.0</ele><time>2026-03-28T14:19:49.085Z</time></trkpt><trkpt lat="45.087365448738176" lon="8.081599163508672"><ele>324.0</ele><time>2026-03-28T14:19:50.085Z</time></trkpt><trkpt lat="45.08746929844052" lon="8.081427869844156"><ele>325.0</ele><time>2026-03-28T14:19:51.085Z</time></trkpt><trkpt lat="45.08757543991609" lon="8.081283179410084"><ele>326.0</ele><time>2026-03-28T14:19:52.085Z</time></trkpt><trkpt lat="45.08768686151742" lon="8.081170596142272"><ele>327.0</ele><time>2026-03-28T14:19:53.085Z</time></trkpt><trkpt lat="45.08779862153048" lon="8.081076453928326"><ele>327.0</ele><time>2026-03-28T14:19:54.085Z</time></trkpt><trkpt lat="45.0879008931457" lon="8.080983789427577"><ele>327.0</ele><time>2026-03-28T14:19:55.085Z</time></trkpt><trkpt lat="45.08799753417611" lon="8.0808789344678"><ele>327.0</ele><time>2026-03-28T14:19:56.085Z</time></trkpt><trkpt lat="45.08807088826926" lon="8.080740928709105"><ele>327.0</ele><time>2026-03-28T14:19:57.085Z</time></trkpt><trkpt lat="45.08812061439248" lon="8.08058361116104"><ele>326.0</ele><time>2026-03-28T14:19:58.085Z</time></trkpt><trkpt lat="45.08814855970935" lon="8.08042016046287"><ele>325.0</ele><time>2026-03-28T14:19:59.085Z</time></trkpt><trkpt lat="45.088158766720305" lon="8.080252143847671"><ele>324.0</ele><time>2026-03-28T14:20:00.085Z</time></trkpt><trkpt lat="45.088165402343805" lon="8.080095937671514"><ele>323.0</ele><time>2026-03-28T14:20:01.085Z</time></trkpt><trkpt lat="45.08817824357857" lon="8.079945190993586"><ele>320.5</ele><time>2026-03-28T14:20:02.085Z</time></trkpt><trkpt lat="45.088190366259326" lon="8.079791941890399"><ele>318.0</ele><time>2026-03-28T14:20:03.085Z</time></trkpt><trkpt lat="45.08820333246419" lon="8.079636587193729"><ele>315.5</ele><time>2026-03-28T14:20:04.085Z</time></trkpt><trkpt lat="45.08821425542149" lon="8.079474891213952"><ele>313.0</ele><time>2026-03-28T14:20:05.085Z</time></trkpt><trkpt lat="45.08822733592565" lon="8.079306627399307"><ele>313.0</ele><time>2026-03-28T14:20:06.085Z</time></trkpt><trkpt lat="45.08824165999425" lon="8.079133343916846"><ele>313.0</ele><time>2026-03-28T14:20:07.085Z</time></trkpt><trkpt lat="45.08827163412391" lon="8.078960351703383"><ele>313.0</ele><time>2026-03-28T14:20:08.085Z</time></trkpt><trkpt lat="45.088304838362056" lon="8.078797074698407"><ele>313.0</ele><time>2026-03-28T14:20:09.085Z</time></trkpt><trkpt lat="45.088350113888545" lon="8.078640208599083"><ele>313.75</ele><time>2026-03-28T14:20:10.085Z</time></trkpt><trkpt lat="45.088390179060546" lon="8.078484799318204"><ele>314.5</ele><time>2026-03-28T14:20:11.085Z</time></trkpt><trkpt lat="45.08843155370894" lon="8.078331520566731"><ele>315.25</ele><time>2026-03-28T14:20:12.085Z</time></trkpt><trkpt lat="45.08848018196866" lon="8.07818237692609"><ele>316.0</ele><time>2026-03-28T14:20:13.085Z</time></trkpt><trkpt lat="45.08854275799855" lon="8.07804899985362"><ele>314.5</ele><time>2026-03-28T14:20:14.085Z</time></trkpt><trkpt lat="45.08861898802411" lon="8.077924494824511"><ele>313.0</ele><time>2026-03-28T14:20:15.085Z</time></trkpt><trkpt lat="45.08870695185774" lon="8.077817356639459"><ele>311.5</ele><time>2026-03-28T14:20:16.085Z</time></trkpt><trkpt lat="45.08879562067258" lon="8.077708801103457"><ele>310.0</ele><time>2026-03-28T14:20:17.086Z</time></trkpt><trkpt lat="45.08887991303585" lon="8.077590108496144"><ele>310.0</ele><time>2026-03-28T14:20:18.086Z</time></trkpt><trkpt lat="45.08896475075471" lon="8.077476393375795"><ele>310.0</ele><time>2026-03-28T14:20:19.086Z</time></trkpt><trkpt lat="45.089055231422144" lon="8.077375851578312"><ele>310.0</ele><time>2026-03-28T14:20:20.086Z</time></trkpt><trkpt lat="45.08916403971533" lon="8.077307758822151"><ele>310.0</ele><time>2026-03-28T14:20:21.086Z</time></trkpt><trkpt lat="45.08927740053861" lon="8.077250601676772"><ele>309.0</ele><time>2026-03-28T14:20:22.086Z</time></trkpt><trkpt lat="45.08937371689115" lon="8.07719649233035"><ele>308.0</ele><time>2026-03-28T14:20:23.086Z</time></trkpt><trkpt lat="45.08945403627733" lon="8.077134917542086"><ele>307.0</ele><time>2026-03-28T14:20:24.086Z</time></trkpt><trkpt lat="45.089523125936545" lon="8.077055928936735"><ele>306.0</ele><time>2026-03-28T14:20:25.086Z</time></trkpt><trkpt lat="45.08957712420231" lon="8.076949100542775"><ele>305.0</ele><time>2026-03-28T14:20:26.086Z</time></trkpt><trkpt lat="45.08961249360977" lon="8.07679594312781"><ele>305.0</ele><time>2026-03-28T14:20:27.086Z</time></trkpt><trkpt lat="45.0896221782407" lon="8.07661618887206"><ele>305.0</ele><time>2026-03-28T14:20:28.086Z</time></trkpt><trkpt lat="45.08961510840509" lon="8.076415434400712"><ele>305.0</ele><time>2026-03-28T14:20:29.086Z</time></trkpt><trkpt lat="45.08960301326846" lon="8.076203527929781"><ele>305.0</ele><time>2026-03-28T14:20:30.086Z</time></trkpt><trkpt lat="45.08959142662118" lon="8.07599475604556"><ele>302.0</ele><time>2026-03-28T14:20:31.086Z</time></trkpt><trkpt lat="45.089572909328474" lon="8.075787179063594"><ele>299.0</ele><time>2026-03-28T14:20:32.086Z</time></trkpt><trkpt lat="45.08953847054803" lon="8.075578871722767"><ele>296.0</ele><time>2026-03-28T14:20:33.086Z</time></trkpt><trkpt lat="45.08948254333409" lon="8.0753734479058"><ele>293.33333333333337</ele><time>2026-03-28T14:20:34.086Z</time></trkpt><trkpt lat="45.08941168103692" lon="8.075180721276878"><ele>290.6666666666667</ele><time>2026-03-28T14:20:35.086Z</time></trkpt><trkpt lat="45.08933549740141" lon="8.07499526250026"><ele>288.0</ele><time>2026-03-28T14:20:36.086Z</time></trkpt><trkpt lat="45.08925801766286" lon="8.074809827222895"><ele>287.25</ele><time>2026-03-28T14:20:37.086Z</time></trkpt><trkpt lat="45.089172733190225" lon="8.074633139343167"><ele>286.5</ele><time>2026-03-28T14:20:38.086Z</time></trkpt><trkpt lat="45.08908437722315" lon="8.07446846181044"><ele>285.75</ele><time>2026-03-28T14:20:39.086Z</time></trkpt><trkpt lat="45.08898989166403" lon="8.074322420053083"><ele>285.0</ele><time>2026-03-28T14:20:40.086Z</time></trkpt><trkpt lat="45.088878860970915" lon="8.074210894572694"><ele>282.5</ele><time>2026-03-28T14:20:41.086Z</time></trkpt><trkpt lat="45.08876042795466" lon="8.074134112720673"><ele>280.0</ele><time>2026-03-28T14:20:42.086Z</time></trkpt><trkpt lat="45.08864117911424" lon="8.074079176574283"><ele>277.5</ele><time>2026-03-28T14:20:43.086Z</time></trkpt><trkpt lat="45.088524134112866" lon="8.074032963519006"><ele>275.0</ele><time>2026-03-28T14:20:44.086Z</time></trkpt><trkpt lat="45.088415016974345" lon="8.073982903739388"><ele>275.0</ele><time>2026-03-28T14:20:45.086Z</time></trkpt><trkpt lat="45.08832294355232" lon="8.073922575247428"><ele>275.0</ele><time>2026-03-28T14:20:46.086Z</time></trkpt><trkpt lat="45.08824730543436" lon="8.07384387271391"><ele>275.0</ele><time>2026-03-28T14:20:47.086Z</time></trkpt><trkpt lat="45.08819830281189" lon="8.073744923675335"><ele>275.0</ele><time>2026-03-28T14:20:48.086Z</time></trkpt><trkpt lat="45.08818415138338" lon="8.073625393154272"><ele>275.0</ele><time>2026-03-28T14:20:49.086Z</time></trkpt><trkpt lat="45.088199035440084" lon="8.073492067120638"><ele>274.75</ele><time>2026-03-28T14:20:50.087Z</time></trkpt><trkpt lat="45.08822548449226" lon="8.073340988302416"><ele>274.5</ele><time>2026-03-28T14:20:51.087Z</time></trkpt><trkpt lat="45.088255855690015" lon="8.073170339869868"><ele>274.25</ele><time>2026-03-28T14:20:52.087Z</time></trkpt><trkpt lat="45.08828196966001" lon="8.072993372694079"><ele>274.0</ele><time>2026-03-28T14:20:53.087Z</time></trkpt><trkpt lat="45.08828867971079" lon="8.072806099289261"><ele>274.0</ele><time>2026-03-28T14:20:54.087Z</time></trkpt><trkpt lat="45.088269696549276" lon="8.072617991248388"><ele>274.0</ele><time>2026-03-28T14:20:55.087Z</time></trkpt><trkpt lat="45.08823080176497" lon="8.072438562473483"><ele>274.0</ele><time>2026-03-28T14:20:56.087Z</time></trkpt><trkpt lat="45.08818206615349" lon="8.072267832198538"><ele>274.0</ele><time>2026-03-28T14:20:57.087Z</time></trkpt><trkpt lat="45.0881181049748" lon="8.072112600180313"><ele>269.25</ele><time>2026-03-28T14:20:58.087Z</time></trkpt><trkpt lat="45.08802880023553" lon="8.07198588391165"><ele>264.5</ele><time>2026-03-28T14:20:59.087Z</time></trkpt><trkpt lat="45.08792236134732" lon="8.071911770874573"><ele>259.75</ele><time>2026-03-28T14:21:00.087Z</time></trkpt><trkpt lat="45.08780861548315" lon="8.071868473272609"><ele>255.0</ele><time>2026-03-28T14:21:01.087Z</time></trkpt><trkpt lat="45.08770088496399" lon="8.071810957657014"><ele>255.0</ele><time>2026-03-28T14:21:02.087Z</time></trkpt><trkpt lat="45.08761355116449" lon="8.07170975083648"><ele>255.0</ele><time>2026-03-28T14:21:03.087Z</time></trkpt><trkpt lat="45.08755823680942" lon="8.071571643968463"><ele>255.0</ele><time>2026-03-28T14:21:04.087Z</time></trkpt><trkpt lat="45.087523037619384" lon="8.071397444409953"><ele>255.0</ele><time>2026-03-28T14:21:05.087Z</time></trkpt><trkpt lat="45.08748712280965" lon="8.071209240359488"><ele>255.0</ele><time>2026-03-28T14:21:06.087Z</time></trkpt><trkpt lat="45.08743955597813" lon="8.071033683680897"><ele>255.0</ele><time>2026-03-28T14:21:07.087Z</time></trkpt><trkpt lat="45.08736546704614" lon="8.070873116843273"><ele>255.0</ele><time>2026-03-28T14:21:08.087Z</time></trkpt><trkpt lat="45.087268447357474" lon="8.070725671990244"><ele>255.0</ele><time>2026-03-28T14:21:09.087Z</time></trkpt><trkpt lat="45.08715408916839" lon="8.07059114155145"><ele>252.75</ele><time>2026-03-28T14:21:10.087Z</time></trkpt><trkpt lat="45.087041989820825" lon="8.07046097086415"><ele>250.5</ele><time>2026-03-28T14:21:11.087Z</time></trkpt><trkpt lat="45.08692918839269" lon="8.070333508726593"><ele>248.25</ele><time>2026-03-28T14:21:12.087Z</time></trkpt><trkpt lat="45.08681278361962" lon="8.070215351501862"><ele>246.0</ele><time>2026-03-28T14:21:13.087Z</time></trkpt><trkpt lat="45.086687941645955" lon="8.07012095292427"><ele>243.5</ele><time>2026-03-28T14:21:14.087Z</time></trkpt><trkpt lat="45.08655839063381" lon="8.070040904805118"><ele>241.0</ele><time>2026-03-28T14:21:15.087Z</time></trkpt><trkpt lat="45.08642408227869" lon="8.069981716077212"><ele>238.5</ele><time>2026-03-28T14:21:16.087Z</time></trkpt><trkpt lat="45.08629345376692" lon="8.069920021021334"><ele>236.0</ele><time>2026-03-28T14:21:17.087Z</time></trkpt><trkpt lat="45.086164855244014" lon="8.069849892601255"><ele>235.25</ele><time>2026-03-28T14:21:18.087Z</time></trkpt><trkpt lat="45.08604476581915" lon="8.069757968595148"><ele>234.5</ele><time>2026-03-28T14:21:19.087Z</time></trkpt><trkpt lat="45.085936207651294" lon="8.06964683870134"><ele>233.75</ele><time>2026-03-28T14:21:20.086Z</time></trkpt><trkpt lat="45.08584425337069" lon="8.06952470287957"><ele>233.0</ele><time>2026-03-28T14:21:21.086Z</time></trkpt><trkpt lat="45.085776482197716" lon="8.069392512945885"><ele>232.2</ele><time>2026-03-28T14:21:22.086Z</time></trkpt><trkpt lat="45.08572975208161" lon="8.069252574466049"><ele>231.4</ele><time>2026-03-28T14:21:23.087Z</time></trkpt><trkpt lat="45.0856976656074" lon="8.069113898235901"><ele>230.59999999999997</ele><time>2026-03-28T14:21:24.087Z</time></trkpt><trkpt lat="45.085658444815515" lon="8.06898169843585"><ele>229.79999999999998</ele><time>2026-03-28T14:21:25.086Z</time></trkpt><trkpt lat="45.08561051615891" lon="8.06885984956072"><ele>229.0</ele><time>2026-03-28T14:21:26.086Z</time></trkpt><trkpt lat="45.08555599870064" lon="8.06875269040768"><ele>229.0</ele><time>2026-03-28T14:21:27.086Z</time></trkpt><trkpt lat="45.08549832690834" lon="8.068653325019362"><ele>228.99999999999997</ele><time>2026-03-28T14:21:28.087Z</time></trkpt><trkpt lat="45.085429869209705" lon="8.068558091459249"><ele>228.99999999999997</ele><time>2026-03-28T14:21:29.087Z</time></trkpt><trkpt lat="45.085357196282125" lon="8.06846314027605"><ele>229.0</ele><time>2026-03-28T14:21:30.087Z</time></trkpt><trkpt lat="45.08528068124433" lon="8.068364400202436"><ele>229.0</ele><time>2026-03-28T14:21:31.087Z</time></trkpt><trkpt lat="45.08519789645695" lon="8.068273134393957"><ele>229.6</ele><time>2026-03-28T14:21:32.086Z</time></trkpt><trkpt lat="45.08510886404091" lon="8.068194857177682"><ele>230.2</ele><time>2026-03-28T14:21:33.086Z</time></trkpt><trkpt lat="45.085016591993615" lon="8.068122232367468"><ele>230.79999999999998</ele><time>2026-03-28T14:21:34.086Z</time></trkpt><trkpt lat="45.084915714039376" lon="8.068046853555137"><ele>231.39999999999998</ele><time>2026-03-28T14:21:35.086Z</time></trkpt><trkpt lat="45.084807530456736" lon="8.067967121008946"><ele>232.0</ele><time>2026-03-28T14:21:36.086Z</time></trkpt><trkpt lat="45.08469866564693" lon="8.067890735848941"><ele>234.25</ele><time>2026-03-28T14:21:37.086Z</time></trkpt><trkpt lat="45.08459062138" lon="8.067819016313585"><ele>236.5</ele><time>2026-03-28T14:21:38.086Z</time></trkpt><trkpt lat="45.08448272337366" lon="8.067759053015289"><ele>238.75</ele><time>2026-03-28T14:21:39.086Z</time></trkpt><trkpt lat="45.08437154818085" lon="8.067728405105187"><ele>241.0</ele><time>2026-03-28T14:21:40.086Z</time></trkpt><trkpt lat="45.08426248597291" lon="8.06773409920425"><ele>241.0</ele><time>2026-03-28T14:21:41.086Z</time></trkpt><trkpt lat="45.08415319237687" lon="8.06776606775026"><ele>241.0</ele><time>2026-03-28T14:21:42.087Z</time></trkpt><trkpt lat="45.084044319360004" lon="8.067819129330354"><ele>241.0</ele><time>2026-03-28T14:21:43.087Z</time></trkpt><trkpt lat="45.08393437300723" lon="8.067895090969674"><ele>241.0</ele><time>2026-03-28T14:21:44.087Z</time></trkpt><trkpt lat="45.08382857076395" lon="8.067986050166343"><ele>242.0</ele><time>2026-03-28T14:21:45.087Z</time></trkpt><trkpt lat="45.08372734413844" lon="8.068081736323693"><ele>243.0</ele><time>2026-03-28T14:21:46.087Z</time></trkpt><trkpt lat="45.08363177008198" lon="8.068186453832963"><ele>244.0</ele><time>2026-03-28T14:21:47.087Z</time></trkpt><trkpt lat="45.08355275089148" lon="8.068294884323384"><ele>245.0</ele><time>2026-03-28T14:21:48.087Z</time></trkpt><trkpt lat="45.08347860505187" lon="8.068402667822562"><ele>245.0</ele><time>2026-03-28T14:21:49.087Z</time></trkpt><trkpt lat="45.083395306182204" lon="8.068502093224046"><ele>245.0</ele><time>2026-03-28T14:21:50.087Z</time></trkpt><trkpt lat="45.08329592708593" lon="8.068575535074705"><ele>245.0</ele><time>2026-03-28T14:21:51.087Z</time></trkpt><trkpt lat="45.08317746515719" lon="8.06861894729297"><ele>245.0</ele><time>2026-03-28T14:21:52.087Z</time></trkpt><trkpt lat="45.0830487222396" lon="8.068644322492739"><ele>247.25</ele><time>2026-03-28T14:21:53.087Z</time></trkpt><trkpt lat="45.08291406764607" lon="8.068666295570143"><ele>249.5</ele><time>2026-03-28T14:21:54.087Z</time></trkpt><trkpt lat="45.08278415680632" lon="8.068685618311234"><ele>251.75</ele><time>2026-03-28T14:21:55.087Z</time></trkpt><trkpt lat="45.08266178301621" lon="8.068683949090563"><ele>254.0</ele><time>2026-03-28T14:21:56.087Z</time></trkpt><trkpt lat="45.08255651037724" lon="8.06863962443391"><ele>254.0</ele><time>2026-03-28T14:21:57.087Z</time></trkpt><trkpt lat="45.08246400244605" lon="8.068553475589368"><ele>254.0</ele><time>2026-03-28T14:21:58.087Z</time></trkpt><trkpt lat="45.08238107642484" lon="8.068429007628332"><ele>254.0</ele><time>2026-03-28T14:21:59.087Z</time></trkpt><trkpt lat="45.08229941242481" lon="8.06829521600781"><ele>254.0</ele><time>2026-03-28T14:22:00.087Z</time></trkpt><trkpt lat="45.08221285365642" lon="8.068186747317323"><ele>257.5</ele><time>2026-03-28T14:22:01.087Z</time></trkpt><trkpt lat="45.082112605381006" lon="8.068120822231585"><ele>261.0</ele><time>2026-03-28T14:22:02.087Z</time></trkpt><trkpt lat="45.08200252091245" lon="8.068103615878318"><ele>264.5</ele><time>2026-03-28T14:22:03.087Z</time></trkpt><trkpt lat="45.081888160504334" lon="8.068141979771886"><ele>268.0</ele><time>2026-03-28T14:22:04.087Z</time></trkpt><trkpt lat="45.081789042834636" lon="8.06823331676359"><ele>267.5</ele><time>2026-03-28T14:22:05.087Z</time></trkpt><trkpt lat="45.081698734987825" lon="8.068327146885146"><ele>267.0</ele><time>2026-03-28T14:22:06.087Z</time></trkpt><trkpt lat="45.08160040507218" lon="8.068401415189115"><ele>266.5</ele><time>2026-03-28T14:22:07.087Z</time></trkpt><trkpt lat="45.08148478983388" lon="8.068414743901869"><ele>266.0</ele><time>2026-03-28T14:22:08.087Z</time></trkpt><trkpt lat="45.081361207483496" lon="8.068396472194308"><ele>266.0</ele><time>2026-03-28T14:22:09.087Z</time></trkpt><trkpt lat="45.08123581200668" lon="8.068350863822477"><ele>266.0</ele><time>2026-03-28T14:22:10.087Z</time></trkpt><trkpt lat="45.081109168492034" lon="8.068280797808786"><ele>266.0</ele><time>2026-03-28T14:22:11.087Z</time></trkpt><trkpt lat="45.08098236965584" lon="8.068189689051055"><ele>266.0</ele><time>2026-03-28T14:22:12.087Z</time></trkpt><trkpt lat="45.080867695308264" lon="8.068087553778788"><ele>270.25</ele><time>2026-03-28T14:22:13.087Z</time></trkpt><trkpt lat="45.08075772034159" lon="8.067989823410528"><ele>274.5</ele><time>2026-03-28T14:22:14.087Z</time></trkpt><trkpt lat="45.080634935584435" lon="8.067944969349785"><ele>278.75</ele><time>2026-03-28T14:22:15.088Z</time></trkpt><trkpt lat="45.08050153644349" lon="8.06796041771437"><ele>283.0</ele><time>2026-03-28T14:22:16.088Z</time></trkpt><trkpt lat="45.080364564498076" lon="8.068015367319347"><ele>283.0</ele><time>2026-03-28T14:22:17.088Z</time></trkpt><trkpt lat="45.080226572492364" lon="8.068080558543274"><ele>283.0</ele><time>2026-03-28T14:22:18.088Z</time></trkpt><trkpt lat="45.08008703921914" lon="8.068132855020488"><ele>283.0</ele><time>2026-03-28T14:22:19.088Z</time></trkpt><trkpt lat="45.07995243369905" lon="8.068183151218387"><ele>283.0</ele><time>2026-03-28T14:22:20.088Z</time></trkpt><trkpt lat="45.07983474282407" lon="8.068242221626933"><ele>283.2</ele><time>2026-03-28T14:22:21.088Z</time></trkpt><trkpt lat="45.0797330973168" lon="8.068309797237626"><ele>283.4</ele><time>2026-03-28T14:22:22.088Z</time></trkpt><trkpt lat="45.07963934761839" lon="8.068358117896766"><ele>283.59999999999997</ele><time>2026-03-28T14:22:23.088Z</time></trkpt><trkpt lat="45.079562690147156" lon="8.068361622557454"><ele>283.8</ele><time>2026-03-28T14:22:24.088Z</time></trkpt><trkpt lat="45.07948477018502" lon="8.068270019997664"><ele>284.0</ele><time>2026-03-28T14:22:26.088Z</time></trkpt><trkpt lat="45.07951397575001" lon="8.068130102339527"><ele>284.0</ele><time>2026-03-28T14:22:28.088Z</time></trkpt><trkpt lat="45.07956189035235" lon="8.068057356570343"><ele>284.0</ele><time>2026-03-28T14:22:29.088Z</time></trkpt><trkpt lat="45.07962576278192" lon="8.067979359965257"><ele>284.0</ele><time>2026-03-28T14:22:30.088Z</time></trkpt><trkpt lat="45.07970578644621" lon="8.06786850349617"><ele>284.0</ele><time>2026-03-28T14:22:31.088Z</time></trkpt><trkpt lat="45.079796057604014" lon="8.067729149438922"><ele>284.0</ele><time>2026-03-28T14:22:32.088Z</time></trkpt><trkpt lat="45.07988094469028" lon="8.067593376238348"><ele>286.6666666666667</ele><time>2026-03-28T14:22:33.088Z</time></trkpt><trkpt lat="45.079975200513076" lon="8.067435403262706"><ele>289.3333333333333</ele><time>2026-03-28T14:22:34.088Z</time></trkpt><trkpt lat="45.0800757130387" lon="8.067256844763742"><ele>292.0</ele><time>2026-03-28T14:22:35.088Z</time></trkpt><trkpt lat="45.08018363980766" lon="8.067073281793753"><ele>292.0</ele><time>2026-03-28T14:22:36.088Z</time></trkpt><trkpt lat="45.080288416354534" lon="8.066897465252358"><ele>292.0</ele><time>2026-03-28T14:22:37.088Z</time></trkpt><trkpt lat="45.080400145889364" lon="8.06670498749867"><ele>292.0</ele><time>2026-03-28T14:22:38.088Z</time></trkpt><trkpt lat="45.08051803200901" lon="8.066503341394743"><ele>294.0</ele><time>2026-03-28T14:22:39.088Z</time></trkpt><trkpt lat="45.08064075761015" lon="8.066296286215609"><ele>296.0</ele><time>2026-03-28T14:22:40.088Z</time></trkpt><trkpt lat="45.08076506041173" lon="8.06609701086393"><ele>298.0</ele><time>2026-03-28T14:22:41.088Z</time></trkpt><trkpt lat="45.08088268461087" lon="8.065916646579428"><ele>301.0</ele><time>2026-03-28T14:22:42.088Z</time></trkpt><trkpt lat="45.08099073827644" lon="8.065738901686617"><ele>304.0</ele><time>2026-03-28T14:22:43.088Z</time></trkpt><trkpt lat="45.081087780184205" lon="8.065558688294896"><ele>307.0</ele><time>2026-03-28T14:22:44.088Z</time></trkpt><trkpt lat="45.081170851158085" lon="8.065375798736026"><ele>307.0</ele><time>2026-03-28T14:22:45.088Z</time></trkpt><trkpt lat="45.08123238917315" lon="8.065171039425817"><ele>307.0</ele><time>2026-03-28T14:22:46.088Z</time></trkpt><trkpt lat="45.08128326222574" lon="8.06495740752732"><ele>307.0</ele><time>2026-03-28T14:22:47.088Z</time></trkpt><trkpt lat="45.0813297741678" lon="8.064732701690673"><ele>306.3333333333333</ele><time>2026-03-28T14:22:48.089Z</time></trkpt><trkpt lat="45.081370519167024" lon="8.064503603590039"><ele>305.6666666666667</ele><time>2026-03-28T14:22:49.089Z</time></trkpt><trkpt lat="45.08140970265957" lon="8.064296914348366"><ele>305.0</ele><time>2026-03-28T14:22:50.089Z</time></trkpt><trkpt lat="45.081451754681204" lon="8.06411363046134"><ele>305.0</ele><time>2026-03-28T14:22:51.089Z</time></trkpt><trkpt lat="45.08149125878691" lon="8.06393775418202"><ele>305.0</ele><time>2026-03-28T14:22:52.089Z</time></trkpt><trkpt lat="45.081532098181505" lon="8.063760304271348"><ele>305.0</ele><time>2026-03-28T14:22:53.089Z</time></trkpt><trkpt lat="45.08157450054488" lon="8.063577804514656"><ele>305.0</ele><time>2026-03-28T14:22:54.089Z</time></trkpt><trkpt lat="45.08162062811524" lon="8.06339538630581"><ele>306.0</ele><time>2026-03-28T14:22:55.089Z</time></trkpt><trkpt lat="45.08166880135461" lon="8.06320796682706"><ele>307.0</ele><time>2026-03-28T14:22:56.089Z</time></trkpt><trkpt lat="45.08171591512917" lon="8.063017227175163"><ele>308.0</ele><time>2026-03-28T14:22:57.089Z</time></trkpt><trkpt lat="45.08176229082486" lon="8.062828256706986"><ele>309.0</ele><time>2026-03-28T14:22:58.089Z</time></trkpt><trkpt lat="45.08181247546685" lon="8.062640197530804"><ele>309.0</ele><time>2026-03-28T14:22:59.089Z</time></trkpt><trkpt lat="45.081860766106026" lon="8.062451347486759"><ele>309.0</ele><time>2026-03-28T14:23:00.089Z</time></trkpt><trkpt lat="45.08190467464612" lon="8.06225865749305"><ele>309.0</ele><time>2026-03-28T14:23:01.089Z</time></trkpt><trkpt lat="45.08194471290731" lon="8.06206337032843"><ele>309.0</ele><time>2026-03-28T14:23:02.089Z</time></trkpt><trkpt lat="45.081987089821176" lon="8.061867038125724"><ele>308.75</ele><time>2026-03-28T14:23:03.089Z</time></trkpt><trkpt lat="45.08203331132362" lon="8.061671575650957"><ele>308.5</ele><time>2026-03-28T14:23:04.089Z</time></trkpt><trkpt lat="45.082077957842486" lon="8.061472496704162"><ele>308.25</ele><time>2026-03-28T14:23:05.089Z</time></trkpt><trkpt lat="45.08212709736794" lon="8.061279470388193"><ele>308.0</ele><time>2026-03-28T14:23:06.089Z</time></trkpt><trkpt lat="45.08218404394223" lon="8.061089623899775"><ele>308.0</ele><time>2026-03-28T14:23:07.089Z</time></trkpt><trkpt lat="45.082248552499784" lon="8.06090169663084"><ele>308.0</ele><time>2026-03-28T14:23:08.089Z</time></trkpt><trkpt lat="45.08232046214687" lon="8.060719538930744"><ele>308.0</ele><time>2026-03-28T14:23:09.089Z</time></trkpt><trkpt lat="45.08239348138968" lon="8.060538476960314"><ele>308.0</ele><time>2026-03-28T14:23:10.089Z</time></trkpt><trkpt lat="45.08246649008257" lon="8.060360040848638"><ele>310.0</ele><time>2026-03-28T14:23:11.089Z</time></trkpt><trkpt lat="45.082535245239555" lon="8.060178445655994"><ele>312.0</ele><time>2026-03-28T14:23:12.089Z</time></trkpt><trkpt lat="45.08260425643007" lon="8.059999601961218"><ele>314.0</ele><time>2026-03-28T14:23:13.089Z</time></trkpt><trkpt lat="45.082675510677134" lon="8.059819742589957"><ele>316.0</ele><time>2026-03-28T14:23:14.089Z</time></trkpt><trkpt lat="45.08273961825137" lon="8.059623328578695"><ele>316.0</ele><time>2026-03-28T14:23:15.089Z</time></trkpt><trkpt lat="45.08278693655122" lon="8.059406867924102"><ele>316.0</ele><time>2026-03-28T14:23:16.089Z</time></trkpt><trkpt lat="45.08281587085162" lon="8.059169177439669"><ele>316.0</ele><time>2026-03-28T14:23:17.089Z</time></trkpt><trkpt lat="45.08284294153925" lon="8.058926222361249"><ele>317.66666666666663</ele><time>2026-03-28T14:23:18.089Z</time></trkpt><trkpt lat="45.08286884175631" lon="8.058676544467204"><ele>319.3333333333333</ele><time>2026-03-28T14:23:19.089Z</time></trkpt><trkpt lat="45.082910039169604" lon="8.058425602154566"><ele>321.0</ele><time>2026-03-28T14:23:20.089Z</time></trkpt><trkpt lat="45.08295940397139" lon="8.058174672322883"><ele>321.3333333333333</ele><time>2026-03-28T14:23:21.089Z</time></trkpt><trkpt lat="45.08301383089194" lon="8.057921067598372"><ele>321.66666666666663</ele><time>2026-03-28T14:23:22.09Z</time></trkpt><trkpt lat="45.08307160098649" lon="8.057667546217894"><ele>322.0</ele><time>2026-03-28T14:23:23.09Z</time></trkpt><trkpt lat="45.083128132641235" lon="8.057421337049563"><ele>322.0</ele><time>2026-03-28T14:23:24.09Z</time></trkpt><trkpt lat="45.083193168812215" lon="8.057187520605197"><ele>322.0</ele><time>2026-03-28T14:23:25.088Z</time></trkpt><trkpt lat="45.08328045472977" lon="8.056963194837243"><ele>322.0</ele><time>2026-03-28T14:23:26.088Z</time></trkpt><trkpt lat="45.08338216565936" lon="8.056746630848169"><ele>327.0</ele><time>2026-03-28T14:23:27.088Z</time></trkpt><trkpt lat="45.08349049066826" lon="8.056527031755586"><ele>332.0</ele><time>2026-03-28T14:23:28.088Z</time></trkpt><trkpt lat="45.083591095512254" lon="8.056298009831659"><ele>337.0</ele><time>2026-03-28T14:23:29.088Z</time></trkpt><trkpt lat="45.083679772028916" lon="8.05607081855485"><ele>337.0</ele><time>2026-03-28T14:23:30.088Z</time></trkpt><trkpt lat="45.083743797891046" lon="8.055852845814146"><ele>337.0</ele><time>2026-03-28T14:23:31.089Z</time></trkpt><trkpt lat="45.083790387509126" lon="8.05562517964206"><ele>337.0</ele><time>2026-03-28T14:23:32.088Z</time></trkpt><trkpt lat="45.08381649405065" lon="8.055382958115771"><ele>336.3333333333333</ele><time>2026-03-28T14:23:33.088Z</time></trkpt><trkpt lat="45.08383284477532" lon="8.055143822235841"><ele>335.6666666666667</ele><time>2026-03-28T14:23:34.088Z</time></trkpt><trkpt lat="45.083840212455485" lon="8.054922545920487"><ele>335.0</ele><time>2026-03-28T14:23:35.088Z</time></trkpt><trkpt lat="45.0838375877972" lon="8.054703444480385"><ele>335.0</ele><time>2026-03-28T14:23:36.088Z</time></trkpt><trkpt lat="45.08385920851562" lon="8.05448325561293"><ele>335.0</ele><time>2026-03-28T14:23:37.088Z</time></trkpt><trkpt lat="45.08391303137057" lon="8.054261340748882"><ele>335.0</ele><time>2026-03-28T14:23:38.088Z</time></trkpt><trkpt lat="45.08398095089112" lon="8.054049136140408"><ele>334.33333333333337</ele><time>2026-03-28T14:23:39.088Z</time></trkpt><trkpt lat="45.08406311851321" lon="8.053834434119288"><ele>333.6666666666667</ele><time>2026-03-28T14:23:40.088Z</time></trkpt><trkpt lat="45.0841423826097" lon="8.053609748345693"><ele>333.0</ele><time>2026-03-28T14:23:41.088Z</time></trkpt><trkpt lat="45.08422064841742" lon="8.05338360078082"><ele>338.0</ele><time>2026-03-28T14:23:42.088Z</time></trkpt><trkpt lat="45.08429344065661" lon="8.053164566580822"><ele>343.0</ele><time>2026-03-28T14:23:43.088Z</time></trkpt><trkpt lat="45.08435829784506" lon="8.052959445858635"><ele>348.0</ele><time>2026-03-28T14:23:44.088Z</time></trkpt><trkpt lat="45.08441953745681" lon="8.052757711941695"><ele>348.0</ele><time>2026-03-28T14:23:45.088Z</time></trkpt><trkpt lat="45.08447446470479" lon="8.0525628787648"><ele>348.0</ele><time>2026-03-28T14:23:46.088Z</time></trkpt><trkpt lat="45.08452018770161" lon="8.052384176058348"><ele>348.0</ele><time>2026-03-28T14:23:47.088Z</time></trkpt><trkpt lat="45.08455726442209" lon="8.052211729694744"><ele>348.0</ele><time>2026-03-28T14:23:48.088Z</time></trkpt><trkpt lat="45.08457169906019" lon="8.05202477957413"><ele>347.5</ele><time>2026-03-28T14:23:49.088Z</time></trkpt><trkpt lat="45.084563579137836" lon="8.051830480523453"><ele>347.0</ele><time>2026-03-28T14:23:50.088Z</time></trkpt><trkpt lat="45.08453979604917" lon="8.051626256246815"><ele>346.5</ele><time>2026-03-28T14:23:51.089Z</time></trkpt><trkpt lat="45.08452137402832" lon="8.051413593455017"><ele>346.0</ele><time>2026-03-28T14:23:52.089Z</time></trkpt><trkpt lat="45.08451733173044" lon="8.051196073252193"><ele>345.75</ele><time>2026-03-28T14:23:53.089Z</time></trkpt><trkpt lat="45.084538263852295" lon="8.050986388579512"><ele>345.5</ele><time>2026-03-28T14:23:54.089Z</time></trkpt><trkpt lat="45.084571695816614" lon="8.050787529094794"><ele>345.25</ele><time>2026-03-28T14:23:55.089Z</time></trkpt><trkpt lat="45.084607060122565" lon="8.050596252234671"><ele>345.0</ele><time>2026-03-28T14:23:56.089Z</time></trkpt><trkpt lat="45.08463395886229" lon="8.050409072682148"><ele>346.0</ele><time>2026-03-28T14:23:57.089Z</time></trkpt><trkpt lat="45.08464694571132" lon="8.050224234066707"><ele>347.0</ele><time>2026-03-28T14:23:58.089Z</time></trkpt><trkpt lat="45.08464460927848" lon="8.05003869513533"><ele>348.0</ele><time>2026-03-28T14:23:59.089Z</time></trkpt><trkpt lat="45.0846349324674" lon="8.04985287426685"><ele>349.0</ele><time>2026-03-28T14:24:00.089Z</time></trkpt><trkpt lat="45.0846171353134" lon="8.049665148806664"><ele>350.75</ele><time>2026-03-28T14:24:01.089Z</time></trkpt><trkpt lat="45.0845968641164" lon="8.04947673141674"><ele>352.5</ele><time>2026-03-28T14:24:02.089Z</time></trkpt><trkpt lat="45.08456984030616" lon="8.049290557313924"><ele>354.25</ele><time>2026-03-28T14:24:03.089Z</time></trkpt><trkpt lat="45.0845276786622" lon="8.049113892135882"><ele>356.0</ele><time>2026-03-28T14:24:04.089Z</time></trkpt><trkpt lat="45.08447447706058" lon="8.048958377954772"><ele>358.6666666666667</ele><time>2026-03-28T14:24:05.089Z</time></trkpt><trkpt lat="45.08442177936917" lon="8.048833099744561"><ele>361.33333333333337</ele><time>2026-03-28T14:24:06.089Z</time></trkpt><trkpt lat="45.08437336643435" lon="8.04872318612794"><ele>364.0</ele><time>2026-03-28T14:24:07.089Z</time></trkpt><trkpt lat="45.08434778294348" lon="8.048623794922621"><ele>366.6666666666667</ele><time>2026-03-28T14:24:08.089Z</time></trkpt><trkpt lat="45.084357012223336" lon="8.048535155090303"><ele>369.3333333333333</ele><time>2026-03-28T14:24:09.089Z</time></trkpt><trkpt lat="45.08446250880899" lon="8.048464730597397"><ele>372.0</ele><time>2026-03-28T14:24:11.089Z</time></trkpt><trkpt lat="45.0845296553323" lon="8.04851571407054"><ele>372.0</ele><time>2026-03-28T14:24:12.089Z</time></trkpt><trkpt lat="45.08458617031121" lon="8.048602780650418"><ele>372.0</ele><time>2026-03-28T14:24:13.089Z</time></trkpt><trkpt lat="45.08463555661855" lon="8.048720649105029"><ele>372.0</ele><time>2026-03-28T14:24:14.089Z</time></trkpt><trkpt lat="45.0846944344152" lon="8.048851745748419"><ele>372.0</ele><time>2026-03-28T14:24:15.089Z</time></trkpt><trkpt lat="45.08474710107192" lon="8.048990268890934"><ele>372.0</ele><time>2026-03-28T14:24:16.089Z</time></trkpt><trkpt lat="45.08479823597556" lon="8.049114140443283"><ele>373.00000000000006</ele><time>2026-03-28T14:24:17.089Z</time></trkpt><trkpt lat="45.08484422265277" lon="8.049220775891724"><ele>374.0</ele><time>2026-03-28T14:24:18.089Z</time></trkpt><trkpt lat="45.08488804994786" lon="8.049310292027831"><ele>375.0</ele><time>2026-03-28T14:24:19.089Z</time></trkpt><trkpt lat="45.084938612846265" lon="8.049365942508032"><ele>376.0</ele><time>2026-03-28T14:24:20.089Z</time></trkpt><trkpt lat="45.0850029519446" lon="8.049376680154085"><ele>377.0</ele><time>2026-03-28T14:24:21.089Z</time></trkpt><trkpt lat="45.085066327008136" lon="8.049337135818872"><ele>378.00000000000006</ele><time>2026-03-28T14:24:22.089Z</time></trkpt><trkpt lat="45.08511074504207" lon="8.049251826776276"><ele>379.0</ele><time>2026-03-28T14:24:23.089Z</time></trkpt><trkpt lat="45.08511094903408" lon="8.049126049077907"><ele>380.25</ele><time>2026-03-28T14:24:24.09Z</time></trkpt><trkpt lat="45.08507997756769" lon="8.048993082164008"><ele>381.5</ele><time>2026-03-28T14:24:25.09Z</time></trkpt><trkpt lat="45.08499580113214" lon="8.048856460456806"><ele>382.75</ele><time>2026-03-28T14:24:26.09Z</time></trkpt><trkpt lat="45.084930904496694" lon="8.04871452527048"><ele>384.0</ele><time>2026-03-28T14:24:27.09Z</time></trkpt><trkpt lat="45.08487316785047" lon="8.048545222925679"><ele>384.0</ele><time>2026-03-28T14:24:28.09Z</time></trkpt><trkpt lat="45.08482966459145" lon="8.048370971324085"><ele>384.0</ele><time>2026-03-28T14:24:29.09Z</time></trkpt><trkpt lat="45.0847948421856" lon="8.04818926721658"><ele>384.0</ele><time>2026-03-28T14:24:30.09Z</time></trkpt><trkpt lat="45.08475942211573" lon="8.04800001444512"><ele>384.0</ele><time>2026-03-28T14:24:31.09Z</time></trkpt><trkpt lat="45.084731510212315" lon="8.047831932226547"><ele>384.0</ele><time>2026-03-28T14:24:32.09Z</time></trkpt><trkpt lat="45.08470989734843" lon="8.047670119114915"><ele>384.0</ele><time>2026-03-28T14:24:33.09Z</time></trkpt><trkpt lat="45.08470079137701" lon="8.047500953583757"><ele>384.0</ele><time>2026-03-28T14:24:34.09Z</time></trkpt><trkpt lat="45.084702776281254" lon="8.047319546760992"><ele>384.0</ele><time>2026-03-28T14:24:35.09Z</time></trkpt><trkpt lat="45.084704918759044" lon="8.047129337012377"><ele>383.5</ele><time>2026-03-28T14:24:36.09Z</time></trkpt><trkpt lat="45.084711241001024" lon="8.046933179723036"><ele>383.0</ele><time>2026-03-28T14:24:37.09Z</time></trkpt><trkpt lat="45.084725908869515" lon="8.04672919768556"><ele>382.5</ele><time>2026-03-28T14:24:38.09Z</time></trkpt><trkpt lat="45.08475306927276" lon="8.046523872135955"><ele>382.0</ele><time>2026-03-28T14:24:39.09Z</time></trkpt><trkpt lat="45.08478070412202" lon="8.046313185288371"><ele>381.66666666666663</ele><time>2026-03-28T14:24:40.09Z</time></trkpt><trkpt lat="45.084811272116646" lon="8.046099677829707"><ele>381.3333333333333</ele><time>2026-03-28T14:24:41.09Z</time></trkpt><trkpt lat="45.084835903465944" lon="8.045883313597994"><ele>381.0</ele><time>2026-03-28T14:24:42.09Z</time></trkpt><trkpt lat="45.084858670943866" lon="8.045670743153858"><ele>381.0</ele><time>2026-03-28T14:24:43.09Z</time></trkpt><trkpt lat="45.084881521856474" lon="8.045465234621913"><ele>381.0</ele><time>2026-03-28T14:24:44.09Z</time></trkpt><trkpt lat="45.084904438843616" lon="8.045275746204284"><ele>381.0</ele><time>2026-03-28T14:24:45.09Z</time></trkpt><trkpt lat="45.08492513967765" lon="8.045098456141972"><ele>381.0</ele><time>2026-03-28T14:24:46.09Z</time></trkpt><trkpt lat="45.08494362874375" lon="8.044930079983265"><ele>384.4</ele><time>2026-03-28T14:24:47.09Z</time></trkpt><trkpt lat="45.08497299788251" lon="8.0447761235181"><ele>387.8</ele><time>2026-03-28T14:24:48.09Z</time></trkpt><trkpt lat="45.0850043823745" lon="8.044625110204956"><ele>391.2</ele><time>2026-03-28T14:24:49.09Z</time></trkpt><trkpt lat="45.08505750902566" lon="8.044484410538054"><ele>394.59999999999997</ele><time>2026-03-28T14:24:50.09Z</time></trkpt><trkpt lat="45.08512753890629" lon="8.04435953724647"><ele>398.0</ele><time>2026-03-28T14:24:51.09Z</time></trkpt><trkpt lat="45.0852091996474" lon="8.044248324842716"><ele>398.0</ele><time>2026-03-28T14:24:52.09Z</time></trkpt><trkpt lat="45.08529031088685" lon="8.044134363640792"><ele>398.0</ele><time>2026-03-28T14:24:53.09Z</time></trkpt><trkpt lat="45.08536404147276" lon="8.044020789501182"><ele>398.0</ele><time>2026-03-28T14:24:54.09Z</time></trkpt><trkpt lat="45.08543241613819" lon="8.04391099973735"><ele>398.0</ele><time>2026-03-28T14:24:55.09Z</time></trkpt><trkpt lat="45.085492790582755" lon="8.04380660460862"><ele>398.0</ele><time>2026-03-28T14:24:56.09Z</time></trkpt><trkpt lat="45.08555769725308" lon="8.043708038671713"><ele>396.49999999999994</ele><time>2026-03-28T14:24:57.091Z</time></trkpt><trkpt lat="45.08561777214656" lon="8.043621068156911"><ele>395.0</ele><time>2026-03-28T14:24:58.091Z</time></trkpt><trkpt lat="45.085679777081545" lon="8.04354023980874"><ele>393.5</ele><time>2026-03-28T14:24:59.091Z</time></trkpt><trkpt lat="45.08572844146897" lon="8.043450231254841"><ele>392.0</ele><time>2026-03-28T14:25:00.091Z</time></trkpt><trkpt lat="45.08579226949242" lon="8.043365330418437"><ele>390.49999999999994</ele><time>2026-03-28T14:25:01.091Z</time></trkpt><trkpt lat="45.08585220847701" lon="8.043269433193132"><ele>389.0</ele><time>2026-03-28T14:25:02.091Z</time></trkpt><trkpt lat="45.085902459877865" lon="8.043154599354436"><ele>393.6</ele><time>2026-03-28T14:25:03.091Z</time></trkpt><trkpt lat="45.08595263558094" lon="8.043027523283552"><ele>398.2</ele><time>2026-03-28T14:25:04.091Z</time></trkpt><trkpt lat="45.08599792557273" lon="8.042889681081343"><ele>402.8</ele><time>2026-03-28T14:25:05.091Z</time></trkpt><trkpt lat="45.08604837804851" lon="8.042746699827237"><ele>407.40000000000003</ele><time>2026-03-28T14:25:06.091Z</time></trkpt><trkpt lat="45.08609076027922" lon="8.04259818204198"><ele>412.0</ele><time>2026-03-28T14:25:07.091Z</time></trkpt><trkpt lat="45.086129349631896" lon="8.04244911004733"><ele>413.0</ele><time>2026-03-28T14:25:08.091Z</time></trkpt><trkpt lat="45.08615945592888" lon="8.042306182580463"><ele>414.0</ele><time>2026-03-28T14:25:09.091Z</time></trkpt><trkpt lat="45.086182142440116" lon="8.0421699955595"><ele>415.0</ele><time>2026-03-28T14:25:10.091Z</time></trkpt><trkpt lat="45.08619652231888" lon="8.042037837605372"><ele>416.0</ele><time>2026-03-28T14:25:11.091Z</time></trkpt><trkpt lat="45.08621205352581" lon="8.041913966001392"><ele>417.0</ele><time>2026-03-28T14:25:12.091Z</time></trkpt><trkpt lat="45.086220142134955" lon="8.041801835651277"><ele>417.0</ele><time>2026-03-28T14:25:13.091Z</time></trkpt><trkpt lat="45.08621595667349" lon="8.041702522922241"><ele>417.0</ele><time>2026-03-28T14:25:14.091Z</time></trkpt><trkpt lat="45.08618998065613" lon="8.041550331925862"><ele>417.0</ele><time>2026-03-28T14:25:16.091Z</time></trkpt><trkpt lat="45.086168143891555" lon="8.0414063016861"><ele>417.0</ele><time>2026-03-28T14:25:18.091Z</time></trkpt><trkpt lat="45.086131147555356" lon="8.041305528212925"><ele>417.0</ele><time>2026-03-28T14:25:19.091Z</time></trkpt><trkpt lat="45.08609501550568" lon="8.041197805320534"><ele>417.0</ele><time>2026-03-28T14:25:20.091Z</time></trkpt><trkpt lat="45.08605442351096" lon="8.041087525354047"><ele>418.8333333333333</ele><time>2026-03-28T14:25:21.091Z</time></trkpt><trkpt lat="45.08601342176186" lon="8.04097523345155"><ele>420.66666666666663</ele><time>2026-03-28T14:25:22.091Z</time></trkpt><trkpt lat="45.08598132816765" lon="8.040870155993408"><ele>422.5</ele><time>2026-03-28T14:25:23.091Z</time></trkpt><trkpt lat="45.08594942481758" lon="8.040770050879997"><ele>424.3333333333333</ele><time>2026-03-28T14:25:24.091Z</time></trkpt><trkpt lat="45.08591776022795" lon="8.040669366825107"><ele>426.16666666666663</ele><time>2026-03-28T14:25:25.091Z</time></trkpt><trkpt lat="45.08586538867156" lon="8.040609738620518"><ele>428.0</ele><time>2026-03-28T14:25:26.091Z</time></trkpt><trkpt lat="45.08580517669883" lon="8.040555577060765"><ele>427.99999999999994</ele><time>2026-03-28T14:25:27.091Z</time></trkpt><trkpt lat="45.08575635136522" lon="8.04049038313589"><ele>428.0</ele><time>2026-03-28T14:25:28.091Z</time></trkpt><trkpt lat="45.0857029290819" lon="8.040441937591268"><ele>428.0</ele><time>2026-03-28T14:25:29.091Z</time></trkpt><trkpt lat="45.08563056966766" lon="8.04037307060458"><ele>428.0</ele><time>2026-03-28T14:25:31.091Z</time></trkpt><trkpt lat="45.085620529523204" lon="8.04028427727426"><ele>427.99999999999994</ele><time>2026-03-28T14:25:34.09Z</time></trkpt><trkpt lat="45.08568706705978" lon="8.040282519350484"><ele>428.0</ele><time>2026-03-28T14:25:36.09Z</time></trkpt><trkpt lat="45.08577316555198" lon="8.040370707874956"><ele>429.00000000000006</ele><time>2026-03-28T14:25:38.09Z</time></trkpt><trkpt lat="45.08582943320574" lon="8.040415078672167"><ele>430.0</ele><time>2026-03-28T14:25:39.09Z</time></trkpt><trkpt lat="45.08589284089683" lon="8.040451546168288"><ele>431.0</ele><time>2026-03-28T14:25:40.091Z</time></trkpt><trkpt lat="45.08594929303487" lon="8.040492453825035"><ele>432.0</ele><time>2026-03-28T14:25:41.09Z</time></trkpt><trkpt lat="45.08600809509604" lon="8.04053210266929"><ele>433.0</ele><time>2026-03-28T14:25:42.09Z</time></trkpt><trkpt lat="45.086101469520756" lon="8.040526806021958"><ele>434.00000000000006</ele><time>2026-03-28T14:25:44.091Z</time></trkpt><trkpt lat="45.08614388823416" lon="8.040425705611591"><ele>435.0</ele><time>2026-03-28T14:25:46.091Z</time></trkpt><trkpt lat="45.086150447834214" lon="8.040327586330944"><ele>435.0</ele><time>2026-03-28T14:25:48.091Z</time></trkpt><trkpt lat="45.086112900283936" lon="8.040251350493659"><ele>435.0</ele><time>2026-03-28T14:25:51.091Z</time></trkpt><trkpt lat="45.08606591360841" lon="8.040159101011929"><ele>435.0</ele><time>2026-03-28T14:25:55.091Z</time></trkpt><trkpt lat="45.086041853509776" lon="8.040059061453608"><ele>435.0</ele><time>2026-03-28T14:25:57.091Z</time></trkpt><trkpt lat="45.086014209473866" lon="8.0399620771652"><ele>427.0</ele><time>2026-03-28T14:25:59.091Z</time></trkpt><trkpt lat="45.08608086091477" lon="8.039985244435297"><ele>435.0</ele><time>2026-03-28T14:26:17.092Z</time></trkpt></trkseg><trkseg><trkpt lat="45.085881050171544" lon="8.040097379923338"><ele>435.0</ele><time>2026-03-28T15:03:19Z</time></trkpt><trkpt lat="45.086045802472505" lon="8.040077272082316"><ele>435.0</ele><time>2026-03-28T15:04:00.001Z</time></trkpt><trkpt lat="45.086087296996816" lon="8.040158909285667"><ele>435.0</ele><time>2026-03-28T15:04:36.001Z</time></trkpt><trkpt lat="45.08612756072634" lon="8.040262797200649"><ele>435.0</ele><time>2026-03-28T15:04:39.001Z</time></trkpt><trkpt lat="45.08616445975714" lon="8.04036315185619"><ele>435.0</ele><time>2026-03-28T15:04:41.001Z</time></trkpt><trkpt lat="45.086121769958126" lon="8.040480156874757"><ele>435.0</ele><time>2026-03-28T15:04:43.001Z</time></trkpt><trkpt lat="45.08602884481172" lon="8.040546744995664"><ele>435.0</ele><time>2026-03-28T15:04:45.001Z</time></trkpt><trkpt lat="45.08591987627593" lon="8.040496951911127"><ele>435.0</ele><time>2026-03-28T15:04:47.001Z</time></trkpt><trkpt lat="45.08583056573062" lon="8.040414410204333"><ele>435.0</ele><time>2026-03-28T15:04:49.001Z</time></trkpt><trkpt lat="45.08575275861932" lon="8.040344854951334"><ele>435.0</ele><time>2026-03-28T15:04:51.001Z</time></trkpt><trkpt lat="45.08568665748715" lon="8.040260582352351"><ele>435.0</ele><time>2026-03-28T15:04:53.001Z</time></trkpt><trkpt lat="45.085605336377164" lon="8.04024046709316"><ele>435.0</ele><time>2026-03-28T15:04:55.001Z</time></trkpt><trkpt lat="45.08554297334575" lon="8.040327744962239"><ele>435.0</ele><time>2026-03-28T15:04:57.001Z</time></trkpt><trkpt lat="45.08558623956721" lon="8.040445820558118"><ele>435.0</ele><time>2026-03-28T15:04:59.001Z</time></trkpt><trkpt lat="45.085668268428535" lon="8.0405199452042"><ele>435.0</ele><time>2026-03-28T15:05:01.001Z</time></trkpt><trkpt lat="45.08576977172302" lon="8.040625763311803"><ele>435.0</ele><time>2026-03-28T15:05:03.001Z</time></trkpt><trkpt lat="45.085836170150834" lon="8.040713357574239"><ele>435.0</ele><time>2026-03-28T15:05:04.001Z</time></trkpt><trkpt lat="45.085893508119284" lon="8.040815517466934"><ele>435.0</ele><time>2026-03-28T15:05:05.001Z</time></trkpt><trkpt lat="45.08594258170977" lon="8.040907599785696"><ele>435.0</ele><time>2026-03-28T15:05:06.001Z</time></trkpt><trkpt lat="45.085999406326096" lon="8.041000409553613"><ele>435.0</ele><time>2026-03-28T15:05:07.001Z</time></trkpt><trkpt lat="45.086037191415706" lon="8.041112837691871"><ele>435.0</ele><time>2026-03-28T15:05:08.001Z</time></trkpt><trkpt lat="45.08607566154646" lon="8.041231192896982"><ele>433.8333333333333</ele><time>2026-03-28T15:05:09.002Z</time></trkpt><trkpt lat="45.086102909916924" lon="8.041341807142032"><ele>432.66666666666663</ele><time>2026-03-28T15:05:10.002Z</time></trkpt><trkpt lat="45.08613730939666" lon="8.041459873041635"><ele>431.5</ele><time>2026-03-28T15:05:11.002Z</time></trkpt><trkpt lat="45.08618530829222" lon="8.041566095032895"><ele>430.3333333333333</ele><time>2026-03-28T15:05:12.002Z</time></trkpt><trkpt lat="45.08621284580202" lon="8.041666959949428"><ele>429.16666666666663</ele><time>2026-03-28T15:05:13.002Z</time></trkpt><trkpt lat="45.0862374119063" lon="8.041763833834095"><ele>428.0</ele><time>2026-03-28T15:05:14.002Z</time></trkpt><trkpt lat="45.08623377022968" lon="8.041877728144842"><ele>425.79999999999995</ele><time>2026-03-28T15:05:15.002Z</time></trkpt><trkpt lat="45.08621963275846" lon="8.041998394700308"><ele>423.59999999999997</ele><time>2026-03-28T15:05:16.002Z</time></trkpt><trkpt lat="45.08620242226532" lon="8.04212573129735"><ele>421.4</ele><time>2026-03-28T15:05:17.002Z</time></trkpt><trkpt lat="45.08618602389577" lon="8.04225886445308"><ele>419.20000000000005</ele><time>2026-03-28T15:05:18.002Z</time></trkpt><trkpt lat="45.086169265502434" lon="8.042402066176628"><ele>417.0</ele><time>2026-03-28T15:05:19.002Z</time></trkpt><trkpt lat="45.08613179054031" lon="8.04254448064606"><ele>416.0</ele><time>2026-03-28T15:05:20.002Z</time></trkpt><trkpt lat="45.08608356523367" lon="8.042687590785247"><ele>415.0</ele><time>2026-03-28T15:05:21.002Z</time></trkpt><trkpt lat="45.08603064680311" lon="8.042818573744022"><ele>414.0</ele><time>2026-03-28T15:05:22.002Z</time></trkpt><trkpt lat="45.08598890748728" lon="8.042949435166053"><ele>413.0</ele><time>2026-03-28T15:05:23.002Z</time></trkpt><trkpt lat="45.08595381466691" lon="8.04307431126245"><ele>412.0</ele><time>2026-03-28T15:05:24.002Z</time></trkpt><trkpt lat="45.08591397582197" lon="8.043196113592218"><ele>412.0</ele><time>2026-03-28T15:05:25.002Z</time></trkpt><trkpt lat="45.08586632645216" lon="8.043312708507123"><ele>412.0</ele><time>2026-03-28T15:05:26.002Z</time></trkpt><trkpt lat="45.08581369173264" lon="8.043422493888075"><ele>412.0</ele><time>2026-03-28T15:05:27.002Z</time></trkpt><trkpt lat="45.085760703677124" lon="8.0435277712421"><ele>412.0</ele><time>2026-03-28T15:05:28.002Z</time></trkpt><trkpt lat="45.08570338855895" lon="8.043623399534324"><ele>412.0</ele><time>2026-03-28T15:05:29.002Z</time></trkpt><trkpt lat="45.085634626011576" lon="8.043700791932523"><ele>409.20000000000005</ele><time>2026-03-28T15:05:30.002Z</time></trkpt><trkpt lat="45.085561909788176" lon="8.04377929339908"><ele>406.4</ele><time>2026-03-28T15:05:31.002Z</time></trkpt><trkpt lat="45.08548527940043" lon="8.043856197500187"><ele>403.6</ele><time>2026-03-28T15:05:32.002Z</time></trkpt><trkpt lat="45.08541831872501" lon="8.043954732782879"><ele>400.79999999999995</ele><time>2026-03-28T15:05:33.002Z</time></trkpt><trkpt lat="45.08535583053979" lon="8.044068295008438"><ele>398.0</ele><time>2026-03-28T15:05:34.002Z</time></trkpt><trkpt lat="45.08529439661347" lon="8.044178541513006"><ele>398.0</ele><time>2026-03-28T15:05:35.002Z</time></trkpt><trkpt lat="45.08522347965542" lon="8.044265124370003"><ele>398.0</ele><time>2026-03-28T15:05:36.002Z</time></trkpt><trkpt lat="45.085149490259525" lon="8.044359085973014"><ele>398.0</ele><time>2026-03-28T15:05:37.002Z</time></trkpt><trkpt lat="45.08507826096479" lon="8.044454449791955"><ele>398.0</ele><time>2026-03-28T15:05:38.002Z</time></trkpt><trkpt lat="45.085017350594924" lon="8.044547977030238"><ele>398.0</ele><time>2026-03-28T15:05:39.002Z</time></trkpt><trkpt lat="45.08496955191541" lon="8.04466844740507"><ele>398.0</ele><time>2026-03-28T15:05:40.002Z</time></trkpt><trkpt lat="45.08493760535346" lon="8.044807865654722"><ele>398.0</ele><time>2026-03-28T15:05:41.002Z</time></trkpt><trkpt lat="45.08492354356381" lon="8.04497004698723"><ele>398.0</ele><time>2026-03-28T15:05:42.002Z</time></trkpt><trkpt lat="45.084910090518605" lon="8.045140001078932"><ele>398.0</ele><time>2026-03-28T15:05:43.002Z</time></trkpt><trkpt lat="45.0848898239903" lon="8.045311678449252"><ele>393.75</ele><time>2026-03-28T15:05:44.002Z</time></trkpt><trkpt lat="45.08486514367775" lon="8.045485126505865"><ele>389.5</ele><time>2026-03-28T15:05:45.002Z</time></trkpt><trkpt lat="45.0848443533503" lon="8.04566186164511"><ele>385.25</ele><time>2026-03-28T15:05:46.002Z</time></trkpt><trkpt lat="45.08481882371643" lon="8.04583939470143"><ele>381.0</ele><time>2026-03-28T15:05:47.002Z</time></trkpt><trkpt lat="45.08479833729619" lon="8.046023338780941"><ele>381.25</ele><time>2026-03-28T15:05:48.002Z</time></trkpt><trkpt lat="45.08478446145659" lon="8.04620520574761"><ele>381.5</ele><time>2026-03-28T15:05:49.002Z</time></trkpt><trkpt lat="45.084755141710886" lon="8.046380969322849"><ele>381.75</ele><time>2026-03-28T15:05:50.002Z</time></trkpt><trkpt lat="45.08473380958095" lon="8.046559269799795"><ele>382.0</ele><time>2026-03-28T15:05:51.002Z</time></trkpt><trkpt lat="45.08470994213093" lon="8.04673124886302"><ele>382.0</ele><time>2026-03-28T15:05:52.002Z</time></trkpt><trkpt lat="45.084689869883015" lon="8.046908263400546"><ele>382.0</ele><time>2026-03-28T15:05:53.002Z</time></trkpt><trkpt lat="45.08467382026695" lon="8.04708560196088"><ele>382.0</ele><time>2026-03-28T15:05:54.002Z</time></trkpt><trkpt lat="45.08466172226423" lon="8.047267596470949"><ele>382.0</ele><time>2026-03-28T15:05:55.002Z</time></trkpt><trkpt lat="45.084656225323634" lon="8.047448921245822"><ele>382.5</ele><time>2026-03-28T15:05:56.002Z</time></trkpt><trkpt lat="45.08465849078079" lon="8.047622582881433"><ele>383.0</ele><time>2026-03-28T15:05:57.002Z</time></trkpt><trkpt lat="45.084672313338054" lon="8.047784262106664"><ele>383.5</ele><time>2026-03-28T15:05:58.002Z</time></trkpt><trkpt lat="45.084700251473656" lon="8.047950221764514"><ele>384.0</ele><time>2026-03-28T15:05:59.002Z</time></trkpt><trkpt lat="45.084738027526804" lon="8.048125151897679"><ele>381.0</ele><time>2026-03-28T15:06:00.002Z</time></trkpt><trkpt lat="45.084776936812986" lon="8.048304038785838"><ele>378.0</ele><time>2026-03-28T15:06:01.002Z</time></trkpt><trkpt lat="45.08481730262439" lon="8.048481224568562"><ele>375.0</ele><time>2026-03-28T15:06:02.002Z</time></trkpt><trkpt lat="45.084864060196686" lon="8.048650925697881"><ele>372.0</ele><time>2026-03-28T15:06:03.002Z</time></trkpt><trkpt lat="45.084919062649405" lon="8.048803303616385"><ele>373.40000000000003</ele><time>2026-03-28T15:06:04.002Z</time></trkpt><trkpt lat="45.08497691562825" lon="8.048936418329125"><ele>374.8</ele><time>2026-03-28T15:06:05.002Z</time></trkpt><trkpt lat="45.085025966787754" lon="8.049044288265138"><ele>376.2</ele><time>2026-03-28T15:06:06.002Z</time></trkpt><trkpt lat="45.085060985859954" lon="8.049141567799143"><ele>377.6</ele><time>2026-03-28T15:06:07.002Z</time></trkpt><trkpt lat="45.08505940759761" lon="8.049304099014996"><ele>379.0</ele><time>2026-03-28T15:06:09.002Z</time></trkpt><trkpt lat="45.084956628622145" lon="8.04935724888989"><ele>377.6</ele><time>2026-03-28T15:06:11.002Z</time></trkpt><trkpt lat="45.08486880752618" lon="8.049230478791547"><ele>376.2</ele><time>2026-03-28T15:06:13.002Z</time></trkpt><trkpt lat="45.08483427376111" lon="8.049117775333407"><ele>374.8</ele><time>2026-03-28T15:06:14.002Z</time></trkpt><trkpt lat="45.084784161343634" lon="8.048978421438244"><ele>373.40000000000003</ele><time>2026-03-28T15:06:15.002Z</time></trkpt><trkpt lat="45.08472539216053" lon="8.048830080002555"><ele>372.0</ele><time>2026-03-28T15:06:16.002Z</time></trkpt><trkpt lat="45.08466711106614" lon="8.048698624485905"><ele>372.0</ele><time>2026-03-28T15:06:17.002Z</time></trkpt><trkpt lat="45.084615174574935" lon="8.048578978152872"><ele>372.0</ele><time>2026-03-28T15:06:18.002Z</time></trkpt><trkpt lat="45.08457028384094" lon="8.048484503230622"><ele>372.0</ele><time>2026-03-28T15:06:19.002Z</time></trkpt><trkpt lat="45.0845137633756" lon="8.048433023074256"><ele>372.0</ele><time>2026-03-28T15:06:20.002Z</time></trkpt><trkpt lat="45.08444987762996" lon="8.04842966709024"><ele>372.0</ele><time>2026-03-28T15:06:21.002Z</time></trkpt><trkpt lat="45.08435504176569" lon="8.048542567220546"><ele>372.0</ele><time>2026-03-28T15:06:23.002Z</time></trkpt><trkpt lat="45.08434617390193" lon="8.048640041661983"><ele>372.0</ele><time>2026-03-28T15:06:24.002Z</time></trkpt><trkpt lat="45.084360309902905" lon="8.048738400122003"><ele>372.0</ele><time>2026-03-28T15:06:25.002Z</time></trkpt><trkpt lat="45.08440946842073" lon="8.048853870182455"><ele>372.0</ele><time>2026-03-28T15:06:26.002Z</time></trkpt><trkpt lat="45.08447389970832" lon="8.048975785898618"><ele>372.0</ele><time>2026-03-28T15:06:27.002Z</time></trkpt><trkpt lat="45.08452541233021" lon="8.04911370552329"><ele>372.0</ele><time>2026-03-28T15:06:28.002Z</time></trkpt><trkpt lat="45.08457633363651" lon="8.04926876795866"><ele>368.0</ele><time>2026-03-28T15:06:29.002Z</time></trkpt><trkpt lat="45.08460790207136" lon="8.049434333481443"><ele>364.0</ele><time>2026-03-28T15:06:30.002Z</time></trkpt><trkpt lat="45.084626228083245" lon="8.049604705515492"><ele>360.0</ele><time>2026-03-28T15:06:31.002Z</time></trkpt><trkpt lat="45.08464539348669" lon="8.04978496052176"><ele>356.0</ele><time>2026-03-28T15:06:32.002Z</time></trkpt><trkpt lat="45.08465619633749" lon="8.04997009799457"><ele>354.25</ele><time>2026-03-28T15:06:33.002Z</time></trkpt><trkpt lat="45.08466281266059" lon="8.0501534569119"><ele>352.5</ele><time>2026-03-28T15:06:34.002Z</time></trkpt><trkpt lat="45.084660937058054" lon="8.050344772597485"><ele>350.75</ele><time>2026-03-28T15:06:35.003Z</time></trkpt><trkpt lat="45.08464157178906" lon="8.050536996671344"><ele>349.0</ele><time>2026-03-28T15:06:36.003Z</time></trkpt><trkpt lat="45.084610644261375" lon="8.050729711497164"><ele>348.0</ele><time>2026-03-28T15:06:37.003Z</time></trkpt><trkpt lat="45.084578586004945" lon="8.050922852723772"><ele>347.0</ele><time>2026-03-28T15:06:38.003Z</time></trkpt><trkpt lat="45.08454498243326" lon="8.051119667084329"><ele>346.0</ele><time>2026-03-28T15:06:39.003Z</time></trkpt><trkpt lat="45.084519216228834" lon="8.051314402266726"><ele>345.0</ele><time>2026-03-28T15:06:40.003Z</time></trkpt><trkpt lat="45.08452120747235" lon="8.051512412324636"><ele>345.25</ele><time>2026-03-28T15:06:41.003Z</time></trkpt><trkpt lat="45.084542023755574" lon="8.051713480739702"><ele>345.5</ele><time>2026-03-28T15:06:42.003Z</time></trkpt><trkpt lat="45.08456556120781" lon="8.05191931532519"><ele>345.75</ele><time>2026-03-28T15:06:43.003Z</time></trkpt><trkpt lat="45.08457193831495" lon="8.052122575601397"><ele>346.0</ele><time>2026-03-28T15:06:44.003Z</time></trkpt><trkpt lat="45.08456083874375" lon="8.052309579870574"><ele>346.5</ele><time>2026-03-28T15:06:45.003Z</time></trkpt><trkpt lat="45.084519757436055" lon="8.052482618802365"><ele>347.0</ele><time>2026-03-28T15:06:46.003Z</time></trkpt><trkpt lat="45.08446481883779" lon="8.052646821483938"><ele>347.5</ele><time>2026-03-28T15:06:47.003Z</time></trkpt><trkpt lat="45.08441476919623" lon="8.052822304828483"><ele>348.0</ele><time>2026-03-28T15:06:48.003Z</time></trkpt><trkpt lat="45.084354544630685" lon="8.053008100000751"><ele>348.0</ele><time>2026-03-28T15:06:49.003Z</time></trkpt><trkpt lat="45.08429530923417" lon="8.053204694880701"><ele>348.0</ele><time>2026-03-28T15:06:50.003Z</time></trkpt><trkpt lat="45.08423387609482" lon="8.053405939586389"><ele>348.0</ele><time>2026-03-28T15:06:51.003Z</time></trkpt><trkpt lat="45.084166059552096" lon="8.053608547740414"><ele>343.6666666666667</ele><time>2026-03-28T15:06:52.003Z</time></trkpt><trkpt lat="45.084093015005074" lon="8.053800492421535"><ele>339.33333333333337</ele><time>2026-03-28T15:06:53.003Z</time></trkpt><trkpt lat="45.08402213150823" lon="8.053988812825919"><ele>335.0</ele><time>2026-03-28T15:06:54.003Z</time></trkpt><trkpt lat="45.08395260512787" lon="8.054177976771497"><ele>335.0</ele><time>2026-03-28T15:06:55.003Z</time></trkpt><trkpt lat="45.083892332362836" lon="8.05437573044966"><ele>335.0</ele><time>2026-03-28T15:06:56.003Z</time></trkpt><trkpt lat="45.08384558794556" lon="8.054580676028278"><ele>335.0</ele><time>2026-03-28T15:06:57.003Z</time></trkpt><trkpt lat="45.0838129353417" lon="8.054786911722"><ele>336.5</ele><time>2026-03-28T15:06:58.003Z</time></trkpt><trkpt lat="45.08380953548729" lon="8.054994019532293"><ele>338.0</ele><time>2026-03-28T15:06:59.003Z</time></trkpt><trkpt lat="45.08381572099222" lon="8.055193898779976"><ele>339.5</ele><time>2026-03-28T15:07:00.003Z</time></trkpt><trkpt lat="45.08380951269754" lon="8.05539949546319"><ele>341.0</ele><time>2026-03-28T15:07:01.003Z</time></trkpt><trkpt lat="45.08378962425899" lon="8.055594416524213"><ele>341.0</ele><time>2026-03-28T15:07:02.003Z</time></trkpt><trkpt lat="45.08376246630017" lon="8.055780534463567"><ele>341.0</ele><time>2026-03-28T15:07:03.003Z</time></trkpt><trkpt lat="45.08372531425541" lon="8.055956510109464"><ele>341.0</ele><time>2026-03-28T15:07:04.003Z</time></trkpt><trkpt lat="45.08366761260599" lon="8.05612981213247"><ele>341.0</ele><time>2026-03-28T15:07:05.003Z</time></trkpt><trkpt lat="45.083595088155676" lon="8.056301336590206"><ele>339.6666666666667</ele><time>2026-03-28T15:07:06.003Z</time></trkpt><trkpt lat="45.08351063357115" lon="8.056475748965743"><ele>338.3333333333333</ele><time>2026-03-28T15:07:07.003Z</time></trkpt><trkpt lat="45.08342269481324" lon="8.056654704908881"><ele>337.0</ele><time>2026-03-28T15:07:08.003Z</time></trkpt><trkpt lat="45.08333399731451" lon="8.056839959076257"><ele>332.3333333333333</ele><time>2026-03-28T15:07:09.003Z</time></trkpt><trkpt lat="45.08324591534682" lon="8.057031425369765"><ele>327.6666666666667</ele><time>2026-03-28T15:07:10.003Z</time></trkpt><trkpt lat="45.083169114692325" lon="8.057237015536806"><ele>323.0</ele><time>2026-03-28T15:07:11.003Z</time></trkpt><trkpt lat="45.08310575076282" lon="8.057456048193988"><ele>323.0</ele><time>2026-03-28T15:07:12.003Z</time></trkpt><trkpt lat="45.08304912164273" lon="8.057686050120589"><ele>323.0</ele><time>2026-03-28T15:07:13.003Z</time></trkpt><trkpt lat="45.082999213122164" lon="8.057925915992335"><ele>323.0</ele><time>2026-03-28T15:07:14.003Z</time></trkpt><trkpt lat="45.08295225008244" lon="8.058167371103906"><ele>322.33333333333337</ele><time>2026-03-28T15:07:15.003Z</time></trkpt><trkpt lat="45.08290451813419" lon="8.058410025531735"><ele>321.6666666666667</ele><time>2026-03-28T15:07:16.003Z</time></trkpt><trkpt lat="45.08286313792124" lon="8.058650059964112"><ele>321.0</ele><time>2026-03-28T15:07:17.003Z</time></trkpt><trkpt lat="45.08282736214345" lon="8.058884754752192"><ele>321.0</ele><time>2026-03-28T15:07:18.003Z</time></trkpt><trkpt lat="45.082800875510664" lon="8.05911414616986"><ele>321.0</ele><time>2026-03-28T15:07:19.003Z</time></trkpt><trkpt lat="45.08277643419846" lon="8.059331122574623"><ele>321.0</ele><time>2026-03-28T15:07:20.003Z</time></trkpt><trkpt lat="45.082741909174075" lon="8.059543855703781"><ele>319.6666666666667</ele><time>2026-03-28T15:07:21.003Z</time></trkpt><trkpt lat="45.08268518471556" lon="8.059755734855921"><ele>318.33333333333337</ele><time>2026-03-28T15:07:22.003Z</time></trkpt><trkpt lat="45.08260885786737" lon="8.059959133981382"><ele>317.0</ele><time>2026-03-28T15:07:23.003Z</time></trkpt><trkpt lat="45.08252370873725" lon="8.060156201760773"><ele>317.0</ele><time>2026-03-28T15:07:24.003Z</time></trkpt><trkpt lat="45.082443973952756" lon="8.060345684087133"><ele>317.0</ele><time>2026-03-28T15:07:25.003Z</time></trkpt><trkpt lat="45.08237223288631" lon="8.06053850085351"><ele>317.0</ele><time>2026-03-28T15:07:26.003Z</time></trkpt><trkpt lat="45.08230020320333" lon="8.06073533141141"><ele>314.75</ele><time>2026-03-28T15:07:27.003Z</time></trkpt><trkpt lat="45.082231734284754" lon="8.060932012923345"><ele>312.5</ele><time>2026-03-28T15:07:28.003Z</time></trkpt><trkpt lat="45.082166330663824" lon="8.061124577546781"><ele>310.25</ele><time>2026-03-28T15:07:29.003Z</time></trkpt><trkpt lat="45.08211179810803" lon="8.061312311082585"><ele>308.0</ele><time>2026-03-28T15:07:30.003Z</time></trkpt><trkpt lat="45.08206667321411" lon="8.061502408652782"><ele>309.0</ele><time>2026-03-28T15:07:31.003Z</time></trkpt><trkpt lat="45.0820289286461" lon="8.061686664022721"><ele>310.0</ele><time>2026-03-28T15:07:32.003Z</time></trkpt><trkpt lat="45.08198917985295" lon="8.061868881594718"><ele>311.0</ele><time>2026-03-28T15:07:33.003Z</time></trkpt><trkpt lat="45.0819449383636" lon="8.062054835785137"><ele>312.0</ele><time>2026-03-28T15:07:34.003Z</time></trkpt><trkpt lat="45.08189806608118" lon="8.062247266687242"><ele>312.0</ele><time>2026-03-28T15:07:35.003Z</time></trkpt><trkpt lat="45.081853572377305" lon="8.062445663564501"><ele>312.0</ele><time>2026-03-28T15:07:36.003Z</time></trkpt><trkpt lat="45.08180326913335" lon="8.062651953438714"><ele>312.0</ele><time>2026-03-28T15:07:37.003Z</time></trkpt><trkpt lat="45.0817552029122" lon="8.062863405120178"><ele>311.0</ele><time>2026-03-28T15:07:38.003Z</time></trkpt><trkpt lat="45.081698132164405" lon="8.063075916358539"><ele>310.0</ele><time>2026-03-28T15:07:39.003Z</time></trkpt><trkpt lat="45.0816462841551" lon="8.063295315148471"><ele>309.0</ele><time>2026-03-28T15:07:40.003Z</time></trkpt><trkpt lat="45.081596375294126" lon="8.063515618703928"><ele>307.6666666666667</ele><time>2026-03-28T15:07:41.003Z</time></trkpt><trkpt lat="45.08154482306611" lon="8.063736328727183"><ele>306.33333333333337</ele><time>2026-03-28T15:07:42.003Z</time></trkpt><trkpt lat="45.08149650645152" lon="8.063960798394607"><ele>305.0</ele><time>2026-03-28T15:07:43.003Z</time></trkpt><trkpt lat="45.08144362189924" lon="8.064184013200334"><ele>305.0</ele><time>2026-03-28T15:07:44.003Z</time></trkpt><trkpt lat="45.08139107679049" lon="8.064401517261327"><ele>305.0</ele><time>2026-03-28T15:07:45.003Z</time></trkpt><trkpt lat="45.081340178397845" lon="8.064610309126039"><ele>305.0</ele><time>2026-03-28T15:07:46.003Z</time></trkpt><trkpt lat="45.08129409379884" lon="8.064812121569139"><ele>305.6666666666667</ele><time>2026-03-28T15:07:47.003Z</time></trkpt><trkpt lat="45.08124627927051" lon="8.065008663119162"><ele>306.3333333333333</ele><time>2026-03-28T15:07:48.003Z</time></trkpt><trkpt lat="45.08119388336433" lon="8.065203669168284"><ele>307.0</ele><time>2026-03-28T15:07:49.003Z</time></trkpt><trkpt lat="45.08111947978478" lon="8.065396943364341"><ele>307.0</ele><time>2026-03-28T15:07:50.003Z</time></trkpt><trkpt lat="45.08103315873786" lon="8.06559373672336"><ele>307.0</ele><time>2026-03-28T15:07:51.003Z</time></trkpt><trkpt lat="45.08093323795462" lon="8.065780366638233"><ele>307.0</ele><time>2026-03-28T15:07:52.003Z</time></trkpt><trkpt lat="45.08082796776175" lon="8.065972977314786"><ele>305.0</ele><time>2026-03-28T15:07:53.003Z</time></trkpt><trkpt lat="45.08071786886352" lon="8.066168657586797"><ele>303.0</ele><time>2026-03-28T15:07:54.003Z</time></trkpt><trkpt lat="45.080608402871555" lon="8.066365752157182"><ele>301.0</ele><time>2026-03-28T15:07:55.003Z</time></trkpt><trkpt lat="45.080498247649665" lon="8.066556931531544"><ele>298.0</ele><time>2026-03-28T15:07:56.003Z</time></trkpt><trkpt lat="45.080391299813655" lon="8.066745087073548"><ele>295.0</ele><time>2026-03-28T15:07:57.003Z</time></trkpt><trkpt lat="45.08028316937913" lon="8.06692097302323"><ele>292.0</ele><time>2026-03-28T15:07:58.003Z</time></trkpt><trkpt lat="45.080180285232586" lon="8.067096798509162"><ele>292.0</ele><time>2026-03-28T15:07:59.003Z</time></trkpt><trkpt lat="45.080079044122336" lon="8.067266831737035"><ele>292.0</ele><time>2026-03-28T15:08:00.003Z</time></trkpt><trkpt lat="45.07998167469481" lon="8.067434728665646"><ele>292.0</ele><time>2026-03-28T15:08:01.003Z</time></trkpt><trkpt lat="45.0798845194758" lon="8.067595441354749"><ele>290.0</ele><time>2026-03-28T15:08:02.004Z</time></trkpt><trkpt lat="45.07978937384732" lon="8.067737481476383"><ele>288.0</ele><time>2026-03-28T15:08:03.004Z</time></trkpt><trkpt lat="45.07969715292261" lon="8.067867834703089"><ele>286.0</ele><time>2026-03-28T15:08:04.004Z</time></trkpt><trkpt lat="45.07960778108448" lon="8.067978045475728"><ele>284.0</ele><time>2026-03-28T15:08:05.004Z</time></trkpt><trkpt lat="45.07952807113113" lon="8.068068654427512"><ele>284.0</ele><time>2026-03-28T15:08:06.004Z</time></trkpt><trkpt lat="45.07946607195105" lon="8.068164899439212"><ele>284.0</ele><time>2026-03-28T15:08:07.004Z</time></trkpt><trkpt lat="45.0794424654069" lon="8.068264697503519"><ele>284.0</ele><time>2026-03-28T15:08:08.004Z</time></trkpt><trkpt lat="45.079453593226816" lon="8.068357807979247"><ele>284.0</ele><time>2026-03-28T15:08:09.004Z</time></trkpt><trkpt lat="45.07956582948915" lon="8.068441198031795"><ele>284.0</ele><time>2026-03-28T15:08:11.004Z</time></trkpt><trkpt lat="45.07964387830386" lon="8.068417955911675"><ele>284.0</ele><time>2026-03-28T15:08:12.004Z</time></trkpt><trkpt lat="45.07972752820411" lon="8.06836510222141"><ele>283.75</ele><time>2026-03-28T15:08:13.004Z</time></trkpt><trkpt lat="45.0798311373932" lon="8.068297813434006"><ele>283.5</ele><time>2026-03-28T15:08:14.004Z</time></trkpt><trkpt lat="45.07994813633775" lon="8.06822439738817"><ele>283.25</ele><time>2026-03-28T15:08:15.004Z</time></trkpt><trkpt lat="45.08007217145972" lon="8.068176561325712"><ele>283.0</ele><time>2026-03-28T15:08:16.004Z</time></trkpt><trkpt lat="45.08019685864614" lon="8.068131417533866"><ele>283.0</ele><time>2026-03-28T15:08:17.004Z</time></trkpt><trkpt lat="45.0803180476221" lon="8.068087507244204"><ele>283.0</ele><time>2026-03-28T15:08:18.004Z</time></trkpt><trkpt lat="45.08043173872713" lon="8.068036712459193"><ele>283.0</ele><time>2026-03-28T15:08:19.004Z</time></trkpt><trkpt lat="45.080547763750296" lon="8.067995560907228"><ele>283.0</ele><time>2026-03-28T15:08:20.004Z</time></trkpt><trkpt lat="45.08067007773603" lon="8.067989308673924"><ele>281.0</ele><time>2026-03-28T15:08:21.004Z</time></trkpt><trkpt lat="45.080794324016395" lon="8.068045059634898"><ele>279.0</ele><time>2026-03-28T15:08:22.004Z</time></trkpt><trkpt lat="45.08091296198203" lon="8.068144954720752"><ele>277.0</ele><time>2026-03-28T15:08:23.004Z</time></trkpt><trkpt lat="45.08103525287792" lon="8.068243142969653"><ele>275.0</ele><time>2026-03-28T15:08:24.004Z</time></trkpt><trkpt lat="45.08116444486707" lon="8.068329697890112"><ele>272.75</ele><time>2026-03-28T15:08:25.004Z</time></trkpt><trkpt lat="45.08129610468807" lon="8.06839651303706"><ele>270.5</ele><time>2026-03-28T15:08:26.004Z</time></trkpt><trkpt lat="45.08142567015888" lon="8.068439471955895"><ele>268.25</ele><time>2026-03-28T15:08:27.004Z</time></trkpt><trkpt lat="45.081551691340294" lon="8.06844377181527"><ele>266.0</ele><time>2026-03-28T15:08:28.004Z</time></trkpt><trkpt lat="45.08166554306766" lon="8.068406980876816"><ele>266.40000000000003</ele><time>2026-03-28T15:08:29.004Z</time></trkpt><trkpt lat="45.08176810860473" lon="8.06833073076825"><ele>266.8</ele><time>2026-03-28T15:08:30.004Z</time></trkpt><trkpt lat="45.08185291853489" lon="8.068231695065817"><ele>267.20000000000005</ele><time>2026-03-28T15:08:31.004Z</time></trkpt><trkpt lat="45.08194997945749" lon="8.068163263422724"><ele>267.6</ele><time>2026-03-28T15:08:32.004Z</time></trkpt><trkpt lat="45.082061812513956" lon="8.068144681218495"><ele>268.0</ele><time>2026-03-28T15:08:33.004Z</time></trkpt><trkpt lat="45.08217237294988" lon="8.06818891717322"><ele>265.5</ele><time>2026-03-28T15:08:34.004Z</time></trkpt><trkpt lat="45.08227289810432" lon="8.068289486088423"><ele>263.0</ele><time>2026-03-28T15:08:35.004Z</time></trkpt><trkpt lat="45.08235243964125" lon="8.068418818037681"><ele>260.5</ele><time>2026-03-28T15:08:36.004Z</time></trkpt><trkpt lat="45.0824316133653" lon="8.068558187359239"><ele>258.0</ele><time>2026-03-28T15:08:37.004Z</time></trkpt><trkpt lat="45.08252915098241" lon="8.068663819207226"><ele>257.0</ele><time>2026-03-28T15:08:38.004Z</time></trkpt><trkpt lat="45.08264146067633" lon="8.068719469092356"><ele>256.0</ele><time>2026-03-28T15:08:39.004Z</time></trkpt><trkpt lat="45.08276187866698" lon="8.068732532506662"><ele>255.0</ele><time>2026-03-28T15:08:40.004Z</time></trkpt><trkpt lat="45.08289063644703" lon="8.068712296018612"><ele>254.0</ele><time>2026-03-28T15:08:41.004Z</time></trkpt><trkpt lat="45.08303031808418" lon="8.068679308401348"><ele>254.0</ele><time>2026-03-28T15:08:42.004Z</time></trkpt><trkpt lat="45.08317332760771" lon="8.068652085395884"><ele>254.0</ele><time>2026-03-28T15:08:43.004Z</time></trkpt><trkpt lat="45.083307302721195" lon="8.068605554360056"><ele>254.0</ele><time>2026-03-28T15:08:44.004Z</time></trkpt><trkpt lat="45.08342476641248" lon="8.068513355335398"><ele>254.0</ele><time>2026-03-28T15:08:45.004Z</time></trkpt><trkpt lat="45.08352918748088" lon="8.068384828231132"><ele>253.5</ele><time>2026-03-28T15:08:46.004Z</time></trkpt><trkpt lat="45.083630541785325" lon="8.068237760172043"><ele>253.0</ele><time>2026-03-28T15:08:47.004Z</time></trkpt><trkpt lat="45.0837450588651" lon="8.068101345794817"><ele>252.5</ele><time>2026-03-28T15:08:48.004Z</time></trkpt><trkpt lat="45.083870497560284" lon="8.067988187790903"><ele>252.0</ele><time>2026-03-28T15:08:49.004Z</time></trkpt><trkpt lat="45.084000045553296" lon="8.067902337588366"><ele>249.25</ele><time>2026-03-28T15:08:50.004Z</time></trkpt><trkpt lat="45.08412944659581" lon="8.067828121879161"><ele>246.5</ele><time>2026-03-28T15:08:51.004Z</time></trkpt><trkpt lat="45.08426292705719" lon="8.067781612881195"><ele>243.75</ele><time>2026-03-28T15:08:52.004Z</time></trkpt><trkpt lat="45.084397655040206" lon="8.067787360353309"><ele>241.0</ele><time>2026-03-28T15:08:53.004Z</time></trkpt><trkpt lat="45.08452364328556" lon="8.067839086265682"><ele>241.0</ele><time>2026-03-28T15:08:54.004Z</time></trkpt><trkpt lat="45.08465393899691" lon="8.067920975449857"><ele>241.0</ele><time>2026-03-28T15:08:55.004Z</time></trkpt><trkpt lat="45.084787635975225" lon="8.068017475705615"><ele>241.0</ele><time>2026-03-28T15:08:56.004Z</time></trkpt><trkpt lat="45.08492070401923" lon="8.068119522917453"><ele>241.0</ele><time>2026-03-28T15:08:57.004Z</time></trkpt><trkpt lat="45.085048155704186" lon="8.068225066879933"><ele>238.0</ele><time>2026-03-28T15:08:58.004Z</time></trkpt><trkpt lat="45.08516773991471" lon="8.068329689294828"><ele>235.0</ele><time>2026-03-28T15:08:59.004Z</time></trkpt><trkpt lat="45.085285020546586" lon="8.0684464596251"><ele>232.0</ele><time>2026-03-28T15:09:00.004Z</time></trkpt><trkpt lat="45.085390997661186" lon="8.068565542981844"><ele>229.0</ele><time>2026-03-28T15:09:01.004Z</time></trkpt><trkpt lat="45.085483813804295" lon="8.068683887367516"><ele>229.0</ele><time>2026-03-28T15:09:02.004Z</time></trkpt><trkpt lat="45.08555779401756" lon="8.068811591770544"><ele>229.0</ele><time>2026-03-28T15:09:03.004Z</time></trkpt><trkpt lat="45.0856204290875" lon="8.068953604423477"><ele>229.0</ele><time>2026-03-28T15:09:04.004Z</time></trkpt><trkpt lat="45.085678041912416" lon="8.069108258454373"><ele>229.0</ele><time>2026-03-28T15:09:05.004Z</time></trkpt><trkpt lat="45.085717284806016" lon="8.069272887704006"><ele>228.75</ele><time>2026-03-28T15:09:06.004Z</time></trkpt><trkpt lat="45.085752834853736" lon="8.069420926867366"><ele>228.5</ele><time>2026-03-28T15:09:07.004Z</time></trkpt><trkpt lat="45.08580987232815" lon="8.069555219855337"><ele>228.25</ele><time>2026-03-28T15:09:08.004Z</time></trkpt><trkpt lat="45.08590244175445" lon="8.069676623518077"><ele>228.0</ele><time>2026-03-28T15:09:09.004Z</time></trkpt><trkpt lat="45.08600589139214" lon="8.06977740773882"><ele>229.25</ele><time>2026-03-28T15:09:10.004Z</time></trkpt><trkpt lat="45.086115613864656" lon="8.069862149652582"><ele>230.5</ele><time>2026-03-28T15:09:11.004Z</time></trkpt><trkpt lat="45.08623706089546" lon="8.069929468027524"><ele>231.75</ele><time>2026-03-28T15:09:12.004Z</time></trkpt><trkpt lat="45.08637098026927" lon="8.06998402816939"><ele>233.0</ele><time>2026-03-28T15:09:13.004Z</time></trkpt><trkpt lat="45.08650180587844" lon="8.070048450878241"><ele>236.25</ele><time>2026-03-28T15:09:14.004Z</time></trkpt><trkpt lat="45.086635741649665" lon="8.070117813270139"><ele>239.5</ele><time>2026-03-28T15:09:15.004Z</time></trkpt><trkpt lat="45.08674938999886" lon="8.070195524684287"><ele>242.75</ele><time>2026-03-28T15:09:16.004Z</time></trkpt><trkpt lat="45.08684020120956" lon="8.070276870626454"><ele>246.0</ele><time>2026-03-28T15:09:17.004Z</time></trkpt><trkpt lat="45.086914112840915" lon="8.070355560284161"><ele>246.00000000000003</ele><time>2026-03-28T15:09:18.004Z</time></trkpt><trkpt lat="45.08697881450843" lon="8.070425047324534"><ele>246.0</ele><time>2026-03-28T15:09:19.004Z</time></trkpt><trkpt lat="45.0870266291579" lon="8.070491827580929"><ele>246.00000000000003</ele><time>2026-03-28T15:09:20.004Z</time></trkpt><trkpt lat="45.087075338234655" lon="8.070556704975933"><ele>246.00000000000003</ele><time>2026-03-28T15:09:21.004Z</time></trkpt><trkpt lat="45.087124426319654" lon="8.070618037468517"><ele>246.0</ele><time>2026-03-28T15:09:22.004Z</time></trkpt><trkpt lat="45.087180283626736" lon="8.070682136737325"><ele>246.00000000000003</ele><time>2026-03-28T15:09:23.004Z</time></trkpt><trkpt lat="45.08723719037821" lon="8.070751256132878"><ele>246.00000000000003</ele><time>2026-03-28T15:09:24.004Z</time></trkpt><trkpt lat="45.08729449727042" lon="8.070821938413333"><ele>245.71428571428575</ele><time>2026-03-28T15:09:25.004Z</time></trkpt><trkpt lat="45.08734932557832" lon="8.070897794321246"><ele>245.42857142857144</ele><time>2026-03-28T15:09:26.004Z</time></trkpt><trkpt lat="45.08739627856188" lon="8.070977075050216"><ele>245.14285714285714</ele><time>2026-03-28T15:09:27.004Z</time></trkpt><trkpt lat="45.08743187242306" lon="8.071061685486859"><ele>244.85714285714286</ele><time>2026-03-28T15:09:28.005Z</time></trkpt><trkpt lat="45.087465708639215" lon="8.07114684144366"><ele>244.57142857142856</ele><time>2026-03-28T15:09:29.005Z</time></trkpt><trkpt lat="45.08749454229986" lon="8.07123422932294"><ele>244.28571428571425</ele><time>2026-03-28T15:09:30.005Z</time></trkpt><trkpt lat="45.08751583400853" lon="8.071322908895414"><ele>243.99999999999997</ele><time>2026-03-28T15:09:31.005Z</time></trkpt><trkpt lat="45.08753568180309" lon="8.071413377668346"><ele>246.75</ele><time>2026-03-28T15:09:32.005Z</time></trkpt><trkpt lat="45.08757546142776" lon="8.071591260964594"><ele>249.5</ele><time>2026-03-28T15:09:34.005Z</time></trkpt><trkpt lat="45.087629632939056" lon="8.071696120891533"><ele>252.25</ele><time>2026-03-28T15:09:35.005Z</time></trkpt><trkpt lat="45.087714633026025" lon="8.071792469371653"><ele>255.0</ele><time>2026-03-28T15:09:36.005Z</time></trkpt><trkpt lat="45.087820580221845" lon="8.071871442326326"><ele>255.0</ele><time>2026-03-28T15:09:37.005Z</time></trkpt><trkpt lat="45.08795071691179" lon="8.07192990292216"><ele>255.0</ele><time>2026-03-28T15:09:38.005Z</time></trkpt><trkpt lat="45.088062424029374" lon="8.071987312787252"><ele>255.0</ele><time>2026-03-28T15:09:39.005Z</time></trkpt><trkpt lat="45.088149166632" lon="8.072088357920942"><ele>255.0</ele><time>2026-03-28T15:09:40.005Z</time></trkpt><trkpt lat="45.08821494471225" lon="8.07223916338072"><ele>259.75</ele><time>2026-03-28T15:09:41.005Z</time></trkpt><trkpt lat="45.088264331638285" lon="8.072419589274933"><ele>264.5</ele><time>2026-03-28T15:09:42.005Z</time></trkpt><trkpt lat="45.08830675257933" lon="8.072621514438719"><ele>269.25</ele><time>2026-03-28T15:09:43.005Z</time></trkpt><trkpt lat="45.08833426683733" lon="8.072819376240085"><ele>274.0</ele><time>2026-03-28T15:09:44.005Z</time></trkpt><trkpt lat="45.08833607796483" lon="8.073036743165808"><ele>274.0</ele><time>2026-03-28T15:09:45.005Z</time></trkpt><trkpt lat="45.088297377544" lon="8.073255504276219"><ele>274.0</ele><time>2026-03-28T15:09:46.005Z</time></trkpt><trkpt lat="45.08825265753418" lon="8.073445602609864"><ele>274.0</ele><time>2026-03-28T15:09:47.005Z</time></trkpt><trkpt lat="45.0882320766567" lon="8.073626830600416"><ele>274.0</ele><time>2026-03-28T15:09:48.005Z</time></trkpt><trkpt lat="45.08824026760751" lon="8.073763644123396"><ele>274.2</ele><time>2026-03-28T15:09:49.005Z</time></trkpt><trkpt lat="45.08828041787714" lon="8.073871864259425"><ele>274.4</ele><time>2026-03-28T15:09:50.005Z</time></trkpt><trkpt lat="45.0883603898994" lon="8.073962519156536"><ele>274.6</ele><time>2026-03-28T15:09:51.005Z</time></trkpt><trkpt lat="45.08847351779197" lon="8.074026105504426"><ele>274.8</ele><time>2026-03-28T15:09:52.005Z</time></trkpt><trkpt lat="45.08860676551905" lon="8.074081040441296"><ele>275.0</ele><time>2026-03-28T15:09:53.005Z</time></trkpt><trkpt lat="45.088746188092706" lon="8.074139822470626"><ele>275.0</ele><time>2026-03-28T15:09:54.005Z</time></trkpt><trkpt lat="45.08888461089076" lon="8.074221094424523"><ele>275.0</ele><time>2026-03-28T15:09:55.005Z</time></trkpt><trkpt lat="45.08900589874407" lon="8.074343846040325"><ele>275.0</ele><time>2026-03-28T15:09:56.005Z</time></trkpt><trkpt lat="45.0891078897195" lon="8.07450480212419"><ele>278.33333333333337</ele><time>2026-03-28T15:09:57.005Z</time></trkpt><trkpt lat="45.08919517343441" lon="8.07469735050817"><ele>281.6666666666667</ele><time>2026-03-28T15:09:58.005Z</time></trkpt><trkpt lat="45.089279818467624" lon="8.074894199021983"><ele>285.0</ele><time>2026-03-28T15:09:59.005Z</time></trkpt><trkpt lat="45.089362183322045" lon="8.075093911586897"><ele>285.75</ele><time>2026-03-28T15:10:00.005Z</time></trkpt><trkpt lat="45.089438071376236" lon="8.075284907782647"><ele>286.5</ele><time>2026-03-28T15:10:01.005Z</time></trkpt><trkpt lat="45.089504056651386" lon="8.075470192856043"><ele>287.25</ele><time>2026-03-28T15:10:02.005Z</time></trkpt><trkpt lat="45.08955581726639" lon="8.075662151810624"><ele>288.0</ele><time>2026-03-28T15:10:03.005Z</time></trkpt><trkpt lat="45.0895847605598" lon="8.075875196987658"><ele>290.0</ele><time>2026-03-28T15:10:04.005Z</time></trkpt><trkpt lat="45.08960110148635" lon="8.076091533679763"><ele>292.0</ele><time>2026-03-28T15:10:05.005Z</time></trkpt><trkpt lat="45.0896120743219" lon="8.076295126071606"><ele>294.0</ele><time>2026-03-28T15:10:06.005Z</time></trkpt><trkpt lat="45.089614050731896" lon="8.076473987499718"><ele>296.0</ele><time>2026-03-28T15:10:07.005Z</time></trkpt><trkpt lat="45.08961000541544" lon="8.076629617525427"><ele>297.8</ele><time>2026-03-28T15:10:08.005Z</time></trkpt><trkpt lat="45.08959461936907" lon="8.076774022920194"><ele>299.6</ele><time>2026-03-28T15:10:09.005Z</time></trkpt><trkpt lat="45.08956350566305" lon="8.076911237748288"><ele>301.4</ele><time>2026-03-28T15:10:10.005Z</time></trkpt><trkpt lat="45.08951038552238" lon="8.077044196795876"><ele>303.2</ele><time>2026-03-28T15:10:11.005Z</time></trkpt><trkpt lat="45.089426070082936" lon="8.077147307771224"><ele>305.0</ele><time>2026-03-28T15:10:12.005Z</time></trkpt><trkpt lat="45.08932062589777" lon="8.077217596027435"><ele>305.0</ele><time>2026-03-28T15:10:13.005Z</time></trkpt><trkpt lat="45.08919749702555" lon="8.077279194921687"><ele>305.0</ele><time>2026-03-28T15:10:14.005Z</time></trkpt><trkpt lat="45.08906782131003" lon="8.077360247952697"><ele>305.0</ele><time>2026-03-28T15:10:15.005Z</time></trkpt><trkpt lat="45.08893679403023" lon="8.077464908274447"><ele>305.0</ele><time>2026-03-28T15:10:16.005Z</time></trkpt><trkpt lat="45.08881893234069" lon="8.07759590262613"><ele>306.25</ele><time>2026-03-28T15:10:17.005Z</time></trkpt><trkpt lat="45.08871172407785" lon="8.077734965085316"><ele>307.5</ele><time>2026-03-28T15:10:18.005Z</time></trkpt><trkpt lat="45.08861736679738" lon="8.07788374113018"><ele>308.75</ele><time>2026-03-28T15:10:19.005Z</time></trkpt><trkpt lat="45.088534437793825" lon="8.07804044121415"><ele>310.0</ele><time>2026-03-28T15:10:20.005Z</time></trkpt><trkpt lat="45.088456619233185" lon="8.078203774983058"><ele>311.5</ele><time>2026-03-28T15:10:21.005Z</time></trkpt><trkpt lat="45.08839981343605" lon="8.078385208307905"><ele>313.0</ele><time>2026-03-28T15:10:22.005Z</time></trkpt><trkpt lat="45.08835318903683" lon="8.078576555852747"><ele>314.5</ele><time>2026-03-28T15:10:23.005Z</time></trkpt><trkpt lat="45.0883056056505" lon="8.07877158927359"><ele>316.0</ele><time>2026-03-28T15:10:24.005Z</time></trkpt><trkpt lat="45.088261222024975" lon="8.078973390457197"><ele>315.0</ele><time>2026-03-28T15:10:25.005Z</time></trkpt><trkpt lat="45.0882312120918" lon="8.079185543538477"><ele>314.0</ele><time>2026-03-28T15:10:26.005Z</time></trkpt><trkpt lat="45.08821611104644" lon="8.079401991369442"><ele>313.0</ele><time>2026-03-28T15:10:27.005Z</time></trkpt><trkpt lat="45.08820522450345" lon="8.079614404576953"><ele>313.0</ele><time>2026-03-28T15:10:28.005Z</time></trkpt><trkpt lat="45.0881925778609" lon="8.079813791303854"><ele>313.0</ele><time>2026-03-28T15:10:29.005Z</time></trkpt><trkpt lat="45.08817130617853" lon="8.080001093707855"><ele>313.0</ele><time>2026-03-28T15:10:30.005Z</time></trkpt><trkpt lat="45.08815233718041" lon="8.080177826561261"><ele>313.0</ele><time>2026-03-28T15:10:31.005Z</time></trkpt><trkpt lat="45.08813971687291" lon="8.080342420023458"><ele>315.5</ele><time>2026-03-28T15:10:32.005Z</time></trkpt><trkpt lat="45.08812226506538" lon="8.080508299217088"><ele>318.0</ele><time>2026-03-28T15:10:33.005Z</time></trkpt><trkpt lat="45.08809420688261" lon="8.080667210726238"><ele>320.5</ele><time>2026-03-28T15:10:34.005Z</time></trkpt><trkpt lat="45.08804319479777" lon="8.080806404719608"><ele>323.0</ele><time>2026-03-28T15:10:35.005Z</time></trkpt><trkpt lat="45.08795745667143" lon="8.080922216712578"><ele>324.0</ele><time>2026-03-28T15:10:36.005Z</time></trkpt><trkpt lat="45.08785307578974" lon="8.0810318899948"><ele>325.0</ele><time>2026-03-28T15:10:37.005Z</time></trkpt><trkpt lat="45.08773178986639" lon="8.0811395540528"><ele>326.0</ele><time>2026-03-28T15:10:38.005Z</time></trkpt><trkpt lat="45.087608569044384" lon="8.081251058742598"><ele>327.0</ele><time>2026-03-28T15:10:39.005Z</time></trkpt><trkpt lat="45.087498099779346" lon="8.08137809745088"><ele>327.3333333333333</ele><time>2026-03-28T15:10:40.005Z</time></trkpt><trkpt lat="45.08739578392549" lon="8.081540164007453"><ele>327.66666666666663</ele><time>2026-03-28T15:10:41.005Z</time></trkpt><trkpt lat="45.08729875697381" lon="8.081732478943495"><ele>328.0</ele><time>2026-03-28T15:10:42.005Z</time></trkpt><trkpt lat="45.08720466241544" lon="8.081938277483351"><ele>326.3333333333333</ele><time>2026-03-28T15:10:43.005Z</time></trkpt><trkpt lat="45.08711062637608" lon="8.082138077465633"><ele>324.6666666666667</ele><time>2026-03-28T15:10:44.005Z</time></trkpt><trkpt lat="45.087023060484995" lon="8.082329563326127"><ele>323.0</ele><time>2026-03-28T15:10:45.005Z</time></trkpt><trkpt lat="45.08692753135768" lon="8.082508871215893"><ele>323.0</ele><time>2026-03-28T15:10:46.005Z</time></trkpt><trkpt lat="45.08681735985172" lon="8.08267546490182"><ele>323.0</ele><time>2026-03-28T15:10:47.005Z</time></trkpt><trkpt lat="45.0866912346804" lon="8.082803925016403"><ele>323.0</ele><time>2026-03-28T15:10:48.005Z</time></trkpt><trkpt lat="45.08655073529715" lon="8.082904274721098"><ele>323.0</ele><time>2026-03-28T15:10:49.005Z</time></trkpt><trkpt lat="45.086394604571794" lon="8.082982147262795"><ele>323.0</ele><time>2026-03-28T15:10:50.005Z</time></trkpt><trkpt lat="45.08622939535888" lon="8.083052840055842"><ele>323.0</ele><time>2026-03-28T15:10:51.005Z</time></trkpt><trkpt lat="45.08606523787052" lon="8.083133046824493"><ele>323.0</ele><time>2026-03-28T15:10:52.005Z</time></trkpt><trkpt lat="45.085915585828104" lon="8.083236052355176"><ele>323.0</ele><time>2026-03-28T15:10:53.005Z</time></trkpt><trkpt lat="45.08577508848264" lon="8.083359824173732"><ele>323.0</ele><time>2026-03-28T15:10:54.005Z</time></trkpt><trkpt lat="45.08564694152549" lon="8.083494548275215"><ele>320.25</ele><time>2026-03-28T15:10:55.006Z</time></trkpt><trkpt lat="45.08552072745702" lon="8.0836248186458"><ele>317.5</ele><time>2026-03-28T15:10:56.006Z</time></trkpt><trkpt lat="45.08539763079363" lon="8.083744790490751"><ele>314.75</ele><time>2026-03-28T15:10:57.006Z</time></trkpt><trkpt lat="45.0852820742032" lon="8.083850210278701"><ele>312.0</ele><time>2026-03-28T15:10:58.006Z</time></trkpt><trkpt lat="45.085154223552735" lon="8.083928196602212"><ele>312.0</ele><time>2026-03-28T15:10:59.006Z</time></trkpt><trkpt lat="45.08501245612408" lon="8.083982936241316"><ele>312.0</ele><time>2026-03-28T15:11:00.006Z</time></trkpt><trkpt lat="45.08486369238567" lon="8.084033632820772"><ele>312.0</ele><time>2026-03-28T15:11:01.006Z</time></trkpt><trkpt lat="45.0847103109135" lon="8.084090786729124"><ele>310.3333333333333</ele><time>2026-03-28T15:11:02.006Z</time></trkpt><trkpt lat="45.084554295815884" lon="8.084149099601373"><ele>308.66666666666663</ele><time>2026-03-28T15:11:03.006Z</time></trkpt><trkpt lat="45.08439935782456" lon="8.084206758911014"><ele>307.0</ele><time>2026-03-28T15:11:04.006Z</time></trkpt><trkpt lat="45.084252969387755" lon="8.084264729115509"><ele>307.0</ele><time>2026-03-28T15:11:05.006Z</time></trkpt><trkpt lat="45.084109577546116" lon="8.08432174859216"><ele>307.0</ele><time>2026-03-28T15:11:06.006Z</time></trkpt><trkpt lat="45.083964627869676" lon="8.084392991911857"><ele>307.0</ele><time>2026-03-28T15:11:07.006Z</time></trkpt><trkpt lat="45.08382793168105" lon="8.084496366054946"><ele>305.5</ele><time>2026-03-28T15:11:08.006Z</time></trkpt><trkpt lat="45.08370894391776" lon="8.084620814472425"><ele>304.0</ele><time>2026-03-28T15:11:09.006Z</time></trkpt><trkpt lat="45.083598298578686" lon="8.084758882952343"><ele>302.5</ele><time>2026-03-28T15:11:10.006Z</time></trkpt><trkpt lat="45.08350104665153" lon="8.08489544303444"><ele>301.0</ele><time>2026-03-28T15:11:11.006Z</time></trkpt><trkpt lat="45.083408756210545" lon="8.085025310842237"><ele>300.5</ele><time>2026-03-28T15:11:12.006Z</time></trkpt><trkpt lat="45.083322746708" lon="8.085153205384835"><ele>300.0</ele><time>2026-03-28T15:11:13.006Z</time></trkpt><trkpt lat="45.08324412161787" lon="8.08528713778187"><ele>299.5</ele><time>2026-03-28T15:11:14.006Z</time></trkpt><trkpt lat="45.08317823921471" lon="8.085430469587717"><ele>299.0</ele><time>2026-03-28T15:11:15.006Z</time></trkpt><trkpt lat="45.08312135160613" lon="8.085576178538094"><ele>298.33333333333337</ele><time>2026-03-28T15:11:16.006Z</time></trkpt><trkpt lat="45.08307069526547" lon="8.085713307634741"><ele>297.6666666666667</ele><time>2026-03-28T15:11:17.006Z</time></trkpt><trkpt lat="45.08302272585308" lon="8.085834647007784"><ele>297.0</ele><time>2026-03-28T15:11:18.006Z</time></trkpt><trkpt lat="45.0829740355225" lon="8.08594355405511"><ele>296.3333333333333</ele><time>2026-03-28T15:11:19.006Z</time></trkpt><trkpt lat="45.08293450371954" lon="8.086036727869025"><ele>295.66666666666663</ele><time>2026-03-28T15:11:20.006Z</time></trkpt><trkpt lat="45.082901006380844" lon="8.086119318328475"><ele>295.0</ele><time>2026-03-28T15:11:21.006Z</time></trkpt><trkpt lat="45.082853561478274" lon="8.086219683344344"><ele>295.0</ele><time>2026-03-28T15:11:23.006Z</time></trkpt><trkpt lat="45.08282002445473" lon="8.086320231871714"><ele>295.0</ele><time>2026-03-28T15:11:27.006Z</time></trkpt><trkpt lat="45.0828448309077" lon="8.086411584280599"><ele>295.0</ele><time>2026-03-28T15:11:29.006Z</time></trkpt><trkpt lat="45.082900602967484" lon="8.086453313337818"><ele>295.0</ele><time>2026-03-28T15:11:30.006Z</time></trkpt><trkpt lat="45.082971268389" lon="8.086491627647844"><ele>295.0</ele><time>2026-03-28T15:11:31.006Z</time></trkpt><trkpt lat="45.08305115475577" lon="8.086553869215663"><ele>295.0</ele><time>2026-03-28T15:11:32.006Z</time></trkpt><trkpt lat="45.08314607177239" lon="8.086640960212451"><ele>294.5</ele><time>2026-03-28T15:11:33.006Z</time></trkpt><trkpt lat="45.08324450757761" lon="8.086750982658776"><ele>294.0</ele><time>2026-03-28T15:11:34.006Z</time></trkpt><trkpt lat="45.08335066157088" lon="8.086879886034298"><ele>293.5</ele><time>2026-03-28T15:11:35.006Z</time></trkpt><trkpt lat="45.08346439525648" lon="8.087025889831247"><ele>293.0</ele><time>2026-03-28T15:11:36.006Z</time></trkpt><trkpt lat="45.08357886433992" lon="8.087176597595867"><ele>293.0</ele><time>2026-03-28T15:11:37.006Z</time></trkpt><trkpt lat="45.08370211410248" lon="8.087335772570707"><ele>293.0</ele><time>2026-03-28T15:11:38.006Z</time></trkpt><trkpt lat="45.08382910924002" lon="8.087496978385502"><ele>293.0</ele><time>2026-03-28T15:11:39.006Z</time></trkpt><trkpt lat="45.083950569058985" lon="8.087650013506167"><ele>293.6666666666667</ele><time>2026-03-28T15:11:40.006Z</time></trkpt><trkpt lat="45.08406639924143" lon="8.08780732330574"><ele>294.3333333333333</ele><time>2026-03-28T15:11:41.006Z</time></trkpt><trkpt lat="45.084182092524586" lon="8.087959416546806"><ele>295.0</ele><time>2026-03-28T15:11:42.006Z</time></trkpt><trkpt lat="45.08429574902066" lon="8.088111469422463"><ele>290.66666666666663</ele><time>2026-03-28T15:11:43.006Z</time></trkpt><trkpt lat="45.08441250925811" lon="8.088261207315679"><ele>286.3333333333333</ele><time>2026-03-28T15:11:44.006Z</time></trkpt><trkpt lat="45.08452869090836" lon="8.088411713685108"><ele>282.0</ele><time>2026-03-28T15:11:45.006Z</time></trkpt><trkpt lat="45.0846438922309" lon="8.088561503161776"><ele>282.0</ele><time>2026-03-28T15:11:46.006Z</time></trkpt><trkpt lat="45.084758948597525" lon="8.088707995447539"><ele>282.0</ele><time>2026-03-28T15:11:47.006Z</time></trkpt><trkpt lat="45.08487134810471" lon="8.088851015995784"><ele>282.0</ele><time>2026-03-28T15:11:48.006Z</time></trkpt><trkpt lat="45.084985578109475" lon="8.088993214113769"><ele>279.6666666666667</ele><time>2026-03-28T15:11:49.006Z</time></trkpt><trkpt lat="45.08510303583957" lon="8.089144279461722"><ele>277.33333333333337</ele><time>2026-03-28T15:11:50.006Z</time></trkpt><trkpt lat="45.08522112626473" lon="8.089307571193341"><ele>275.0</ele><time>2026-03-28T15:11:51.006Z</time></trkpt><trkpt lat="45.085331009666405" lon="8.089490713591816"><ele>275.0</ele><time>2026-03-28T15:11:52.006Z</time></trkpt><trkpt lat="45.08542243766177" lon="8.08970291991875"><ele>275.0</ele><time>2026-03-28T15:11:53.006Z</time></trkpt><trkpt lat="45.085497062822455" lon="8.089937111712153"><ele>275.0</ele><time>2026-03-28T15:11:54.006Z</time></trkpt><trkpt lat="45.0855652852943" lon="8.090189833435343"><ele>276.33333333333337</ele><time>2026-03-28T15:11:55.006Z</time></trkpt><trkpt lat="45.08564200844233" lon="8.090454949492997"><ele>277.6666666666667</ele><time>2026-03-28T15:11:56.006Z</time></trkpt><trkpt lat="45.085721807006244" lon="8.09073004221309"><ele>279.0</ele><time>2026-03-28T15:11:57.006Z</time></trkpt><trkpt lat="45.08580207125847" lon="8.09102028722227"><ele>269.0</ele><time>2026-03-28T15:11:58.006Z</time></trkpt><trkpt lat="45.08588943069737" lon="8.09131721285594"><ele>259.0</ele><time>2026-03-28T15:11:59.006Z</time></trkpt><trkpt lat="45.08598077915388" lon="8.091622384267021"><ele>259.0</ele><time>2026-03-28T15:12:00.006Z</time></trkpt><trkpt lat="45.08606523686032" lon="8.091939292946977"><ele>259.0</ele><time>2026-03-28T15:12:01.006Z</time></trkpt><trkpt lat="45.086149206032715" lon="8.092250375614455"><ele>259.0</ele><time>2026-03-28T15:12:02.006Z</time></trkpt><trkpt lat="45.0862319682551" lon="8.092548467619757"><ele>259.0</ele><time>2026-03-28T15:12:03.006Z</time></trkpt><trkpt lat="45.08630792947632" lon="8.092837727369513"><ele>259.0</ele><time>2026-03-28T15:12:04.006Z</time></trkpt><trkpt lat="45.08638433158725" lon="8.093120783795646"><ele>258.0</ele><time>2026-03-28T15:12:05.006Z</time></trkpt><trkpt lat="45.0864598087753" lon="8.093405163275936"><ele>257.0</ele><time>2026-03-28T15:12:06.006Z</time></trkpt><trkpt lat="45.08653734693166" lon="8.093696955164862"><ele>256.0</ele><time>2026-03-28T15:12:07.006Z</time></trkpt><trkpt lat="45.08661278891281" lon="8.093989824429473"><ele>253.66666666666666</ele><time>2026-03-28T15:12:08.006Z</time></trkpt><trkpt lat="45.08668983466399" lon="8.094271606846924"><ele>251.33333333333331</ele><time>2026-03-28T15:12:09.006Z</time></trkpt><trkpt lat="45.08676363691889" lon="8.094537900304681"><ele>249.0</ele><time>2026-03-28T15:12:10.006Z</time></trkpt><trkpt lat="45.08683863643132" lon="8.094791298558844"><ele>247.66666666666669</ele><time>2026-03-28T15:12:11.006Z</time></trkpt><trkpt lat="45.08694075746684" lon="8.09502627438669"><ele>246.33333333333334</ele><time>2026-03-28T15:12:12.006Z</time></trkpt><trkpt lat="45.08707078278606" lon="8.095241400904374"><ele>245.0</ele><time>2026-03-28T15:12:13.006Z</time></trkpt><trkpt lat="45.08722866618554" lon="8.095426315224605"><ele>245.0</ele><time>2026-03-28T15:12:14.006Z</time></trkpt><trkpt lat="45.08740384969954" lon="8.095593569125628"><ele>245.0</ele><time>2026-03-28T15:12:15.006Z</time></trkpt><trkpt lat="45.08758914730224" lon="8.095750634373534"><ele>245.0</ele><time>2026-03-28T15:12:16.006Z</time></trkpt><trkpt lat="45.08777455674557" lon="8.095905119042895"><ele>245.33333333333334</ele><time>2026-03-28T15:12:17.006Z</time></trkpt><trkpt lat="45.087955953661506" lon="8.096064543712277"><ele>245.66666666666669</ele><time>2026-03-28T15:12:18.006Z</time></trkpt><trkpt lat="45.088135591328296" lon="8.096220250584878"><ele>246.0</ele><time>2026-03-28T15:12:19.006Z</time></trkpt><trkpt lat="45.08830505793924" lon="8.096369074592099"><ele>246.33333333333331</ele><time>2026-03-28T15:12:20.006Z</time></trkpt><trkpt lat="45.08846596680336" lon="8.096503887062328"><ele>246.66666666666666</ele><time>2026-03-28T15:12:21.007Z</time></trkpt><trkpt lat="45.0886214224956" lon="8.096631976565082"><ele>247.0</ele><time>2026-03-28T15:12:22.007Z</time></trkpt><trkpt lat="45.0887671534339" lon="8.096755626050944"><ele>247.0</ele><time>2026-03-28T15:12:23.007Z</time></trkpt><trkpt lat="45.088900370769835" lon="8.096874543867001"><ele>247.0</ele><time>2026-03-28T15:12:24.007Z</time></trkpt><trkpt lat="45.089025118408316" lon="8.096987145402322"><ele>247.0</ele><time>2026-03-28T15:12:25.007Z</time></trkpt><trkpt lat="45.08914069475257" lon="8.09708758939037"><ele>247.0</ele><time>2026-03-28T15:12:26.007Z</time></trkpt><trkpt lat="45.08924745321797" lon="8.097181537869279"><ele>247.39999999999998</ele><time>2026-03-28T15:12:27.007Z</time></trkpt><trkpt lat="45.08935014214054" lon="8.097268327247017"><ele>247.79999999999998</ele><time>2026-03-28T15:12:28.007Z</time></trkpt><trkpt lat="45.08945024718859" lon="8.097353927988541"><ele>248.2</ele><time>2026-03-28T15:12:29.007Z</time></trkpt><trkpt lat="45.08954226275482" lon="8.097441384073152"><ele>248.6</ele><time>2026-03-28T15:12:30.007Z</time></trkpt><trkpt lat="45.08962427811336" lon="8.097525223635564"><ele>249.0</ele><time>2026-03-28T15:12:31.007Z</time></trkpt><trkpt lat="45.089693465423814" lon="8.097611363357641"><ele>249.0</ele><time>2026-03-28T15:12:32.007Z</time></trkpt><trkpt lat="45.08973908967922" lon="8.097716523419596"><ele>248.99999999999997</ele><time>2026-03-28T15:12:33.007Z</time></trkpt><trkpt lat="45.089749820892465" lon="8.09784075007613"><ele>248.99999999999997</ele><time>2026-03-28T15:12:34.007Z</time></trkpt><trkpt lat="45.08973521825354" lon="8.097978765944678"><ele>249.0</ele><time>2026-03-28T15:12:35.007Z</time></trkpt><trkpt lat="45.08968621776337" lon="8.09812594182485"><ele>249.0</ele><time>2026-03-28T15:12:36.007Z</time></trkpt><trkpt lat="45.08963240603032" lon="8.098286198582326"><ele>248.5</ele><time>2026-03-28T15:12:37.007Z</time></trkpt><trkpt lat="45.089572506254285" lon="8.098459749237986"><ele>248.0</ele><time>2026-03-28T15:12:38.007Z</time></trkpt><trkpt lat="45.08950948324449" lon="8.098643325758681"><ele>247.5</ele><time>2026-03-28T15:12:39.007Z</time></trkpt><trkpt lat="45.08944829757313" lon="8.098824830253506"><ele>247.0</ele><time>2026-03-28T15:12:40.007Z</time></trkpt><trkpt lat="45.089381813326895" lon="8.09901508588939"><ele>247.33333333333331</ele><time>2026-03-28T15:12:41.007Z</time></trkpt><trkpt lat="45.089307567884724" lon="8.09920920820198"><ele>247.66666666666669</ele><time>2026-03-28T15:12:42.007Z</time></trkpt><trkpt lat="45.08922704304706" lon="8.099407078563427"><ele>248.0</ele><time>2026-03-28T15:12:43.007Z</time></trkpt><trkpt lat="45.08914355769251" lon="8.099614449930712"><ele>247.0</ele><time>2026-03-28T15:12:44.007Z</time></trkpt><trkpt lat="45.089061927320316" lon="8.099832832537512"><ele>246.0</ele><time>2026-03-28T15:12:45.007Z</time></trkpt><trkpt lat="45.08898678502734" lon="8.100047896319186"><ele>245.0</ele><time>2026-03-28T15:12:46.007Z</time></trkpt><trkpt lat="45.08890866983913" lon="8.100273718690024"><ele>245.33333333333334</ele><time>2026-03-28T15:12:47.007Z</time></trkpt><trkpt lat="45.08882617364803" lon="8.100502193342695"><ele>245.66666666666669</ele><time>2026-03-28T15:12:48.007Z</time></trkpt><trkpt lat="45.08873891503745" lon="8.100733734221038"><ele>246.0</ele><time>2026-03-28T15:12:49.007Z</time></trkpt><trkpt lat="45.088650073291426" lon="8.100966477051355"><ele>246.0</ele><time>2026-03-28T15:12:50.007Z</time></trkpt><trkpt lat="45.08856037701555" lon="8.101205041571738"><ele>246.0</ele><time>2026-03-28T15:12:51.007Z</time></trkpt><trkpt lat="45.088470903216866" lon="8.101446438588395"><ele>246.0</ele><time>2026-03-28T15:12:52.007Z</time></trkpt><trkpt lat="45.08838337728126" lon="8.101688649348214"><ele>245.66666666666669</ele><time>2026-03-28T15:12:53.007Z</time></trkpt><trkpt lat="45.088294599356935" lon="8.101926478659012"><ele>245.33333333333334</ele><time>2026-03-28T15:12:54.007Z</time></trkpt><trkpt lat="45.08820888702706" lon="8.102151068344488"><ele>245.0</ele><time>2026-03-28T15:12:55.007Z</time></trkpt><trkpt lat="45.088129193810495" lon="8.102360394981341"><ele>245.0</ele><time>2026-03-28T15:12:56.007Z</time></trkpt><trkpt lat="45.08805414013297" lon="8.102562013623439"><ele>245.0</ele><time>2026-03-28T15:12:57.007Z</time></trkpt><trkpt lat="45.08798069962184" lon="8.102757945366829"><ele>245.0</ele><time>2026-03-28T15:12:58.007Z</time></trkpt><trkpt lat="45.08790620882914" lon="8.102951889237868"><ele>245.0</ele><time>2026-03-28T15:12:59.007Z</time></trkpt><trkpt lat="45.087833070769776" lon="8.103151505264313"><ele>245.0</ele><time>2026-03-28T15:13:00.007Z</time></trkpt><trkpt lat="45.087759323278" lon="8.103353879120295"><ele>245.0</ele><time>2026-03-28T15:13:01.007Z</time></trkpt><trkpt lat="45.08768153812421" lon="8.103559269124423"><ele>245.66666666666669</ele><time>2026-03-28T15:13:02.007Z</time></trkpt><trkpt lat="45.087603735537606" lon="8.103761823857095"><ele>246.33333333333331</ele><time>2026-03-28T15:13:03.007Z</time></trkpt><trkpt lat="45.08752562321388" lon="8.103966452258803"><ele>247.0</ele><time>2026-03-28T15:13:04.007Z</time></trkpt><trkpt lat="45.08744354228312" lon="8.104180590470353"><ele>245.66666666666666</ele><time>2026-03-28T15:13:05.007Z</time></trkpt><trkpt lat="45.08735668784053" lon="8.104406719062158"><ele>244.33333333333331</ele><time>2026-03-28T15:13:06.007Z</time></trkpt><trkpt lat="45.087268070131906" lon="8.10464506149678"><ele>243.0</ele><time>2026-03-28T15:13:07.007Z</time></trkpt><trkpt lat="45.08717839939813" lon="8.104892137801025"><ele>243.33333333333331</ele><time>2026-03-28T15:13:08.007Z</time></trkpt><trkpt lat="45.087083214449585" lon="8.10514759816754"><ele>243.66666666666666</ele><time>2026-03-28T15:13:09.007Z</time></trkpt><trkpt lat="45.08698590314307" lon="8.105405316718908"><ele>244.0</ele><time>2026-03-28T15:13:10.007Z</time></trkpt><trkpt lat="45.08688678356391" lon="8.105671120425232"><ele>243.33333333333331</ele><time>2026-03-28T15:13:11.007Z</time></trkpt><trkpt lat="45.08679438731656" lon="8.105946691248814"><ele>242.66666666666669</ele><time>2026-03-28T15:13:12.007Z</time></trkpt><trkpt lat="45.0867166691123" lon="8.106241327368112"><ele>242.0</ele><time>2026-03-28T15:13:13.007Z</time></trkpt><trkpt lat="45.08664599510327" lon="8.106545161067599"><ele>240.5</ele><time>2026-03-28T15:13:14.007Z</time></trkpt><trkpt lat="45.08658732519904" lon="8.106869100374514"><ele>239.0</ele><time>2026-03-28T15:13:15.007Z</time></trkpt><trkpt lat="45.086542985367906" lon="8.107206613984314"><ele>238.5</ele><time>2026-03-28T15:13:16.007Z</time></trkpt><trkpt lat="45.08651203327174" lon="8.107549408703546"><ele>238.0</ele><time>2026-03-28T15:13:17.007Z</time></trkpt><trkpt lat="45.08648332842157" lon="8.107891875250036"><ele>238.0</ele><time>2026-03-28T15:13:18.007Z</time></trkpt><trkpt lat="45.08645991412943" lon="8.108241687793674"><ele>238.0</ele><time>2026-03-28T15:13:19.007Z</time></trkpt><trkpt lat="45.086431689592764" lon="8.10858830869503"><ele>238.0</ele><time>2026-03-28T15:13:20.007Z</time></trkpt><trkpt lat="45.08640368957364" lon="8.108932152393107"><ele>238.0</ele><time>2026-03-28T15:13:21.007Z</time></trkpt><trkpt lat="45.08637824545616" lon="8.109276065352848"><ele>237.5</ele><time>2026-03-28T15:13:22.007Z</time></trkpt><trkpt lat="45.08635507494265" lon="8.109614606530666"><ele>237.0</ele><time>2026-03-28T15:13:23.007Z</time></trkpt><trkpt lat="45.08633351291269" lon="8.109947251505014"><ele>237.0</ele><time>2026-03-28T15:13:24.007Z</time></trkpt><trkpt lat="45.08631043196824" lon="8.110273922606245"><ele>237.0</ele><time>2026-03-28T15:13:25.007Z</time></trkpt><trkpt lat="45.08628735755834" lon="8.11059399072623"><ele>237.5</ele><time>2026-03-28T15:13:26.007Z</time></trkpt><trkpt lat="45.08626347872851" lon="8.11091435409833"><ele>238.0</ele><time>2026-03-28T15:13:27.007Z</time></trkpt><trkpt lat="45.086239177748276" lon="8.111234639937019"><ele>238.0</ele><time>2026-03-28T15:13:28.007Z</time></trkpt><trkpt lat="45.086215004011436" lon="8.111554471749042"><ele>238.0</ele><time>2026-03-28T15:13:29.007Z</time></trkpt><trkpt lat="45.08619458206033" lon="8.111877622078154"><ele>238.0</ele><time>2026-03-28T15:13:30.007Z</time></trkpt><trkpt lat="45.08617012956747" lon="8.112201094915836"><ele>238.0</ele><time>2026-03-28T15:13:31.007Z</time></trkpt><trkpt lat="45.086143785627435" lon="8.1125260610004"><ele>238.5</ele><time>2026-03-28T15:13:32.007Z</time></trkpt><trkpt lat="45.08611656696878" lon="8.11285144653545"><ele>239.0</ele><time>2026-03-28T15:13:33.007Z</time></trkpt><trkpt lat="45.08608780057808" lon="8.113178202285383"><ele>237.0</ele><time>2026-03-28T15:13:34.007Z</time></trkpt><trkpt lat="45.086058846117965" lon="8.11350534384852"><ele>235.0</ele><time>2026-03-28T15:13:35.007Z</time></trkpt><trkpt lat="45.086031201002854" lon="8.11383396737136"><ele>236.0</ele><time>2026-03-28T15:13:36.007Z</time></trkpt><trkpt lat="45.08600465439182" lon="8.114163327057968"><ele>237.0</ele><time>2026-03-28T15:13:37.007Z</time></trkpt><trkpt lat="45.08597855383645" lon="8.11449314051553"><ele>237.0</ele><time>2026-03-28T15:13:38.007Z</time></trkpt><trkpt lat="45.08595539018052" lon="8.114824370761891"><ele>237.0</ele><time>2026-03-28T15:13:39.007Z</time></trkpt><trkpt lat="45.085932226761294" lon="8.1151501337354"><ele>237.0</ele><time>2026-03-28T15:13:40.007Z</time></trkpt><trkpt lat="45.08590679192309" lon="8.115472736594826"><ele>237.0</ele><time>2026-03-28T15:13:41.007Z</time></trkpt><trkpt lat="45.0858823304193" lon="8.115795976761042"><ele>237.0</ele><time>2026-03-28T15:13:42.007Z</time></trkpt><trkpt lat="45.0858574952138" lon="8.116116698969684"><ele>237.0</ele><time>2026-03-28T15:13:43.007Z</time></trkpt><trkpt lat="45.085833886248196" lon="8.116434549932725"><ele>236.66666666666669</ele><time>2026-03-28T15:13:44.007Z</time></trkpt><trkpt lat="45.085811302195005" lon="8.116748780074413"><ele>236.33333333333334</ele><time>2026-03-28T15:13:45.007Z</time></trkpt><trkpt lat="45.085787049605116" lon="8.117060539572405"><ele>236.0</ele><time>2026-03-28T15:13:46.007Z</time></trkpt><trkpt lat="45.085764641221644" lon="8.117371728309154"><ele>235.66666666666669</ele><time>2026-03-28T15:13:47.007Z</time></trkpt><trkpt lat="45.08574255167824" lon="8.117683256649679"><ele>235.33333333333331</ele><time>2026-03-28T15:13:48.008Z</time></trkpt><trkpt lat="45.08571902686575" lon="8.117989412018963"><ele>235.0</ele><time>2026-03-28T15:13:49.008Z</time></trkpt><trkpt lat="45.08569915909061" lon="8.118297987489703"><ele>234.66666666666666</ele><time>2026-03-28T15:13:50.008Z</time></trkpt><trkpt lat="45.08568189058445" lon="8.118611257537971"><ele>234.33333333333331</ele><time>2026-03-28T15:13:51.008Z</time></trkpt><trkpt lat="45.085671314960585" lon="8.118926527746641"><ele>234.0</ele><time>2026-03-28T15:13:52.008Z</time></trkpt><trkpt lat="45.085672258534295" lon="8.119240410292054"><ele>234.0</ele><time>2026-03-28T15:13:53.008Z</time></trkpt><trkpt lat="45.08568983055077" lon="8.11953627692705"><ele>234.0</ele><time>2026-03-28T15:13:54.008Z</time></trkpt><trkpt lat="45.08571923226485" lon="8.119814261450127"><ele>234.0</ele><time>2026-03-28T15:13:55.008Z</time></trkpt><trkpt lat="45.08575313429338" lon="8.120077535010646"><ele>234.33333333333331</ele><time>2026-03-28T15:13:56.008Z</time></trkpt><trkpt lat="45.08579134602467" lon="8.1203248292172"><ele>234.66666666666666</ele><time>2026-03-28T15:13:57.008Z</time></trkpt><trkpt lat="45.0858364848195" lon="8.120559430510731"><ele>235.0</ele><time>2026-03-28T15:13:58.008Z</time></trkpt><trkpt lat="45.08588827486267" lon="8.12079202458156"><ele>234.33333333333331</ele><time>2026-03-28T15:13:59.008Z</time></trkpt><trkpt lat="45.08594493475184" lon="8.121023226858497"><ele>233.66666666666669</ele><time>2026-03-28T15:14:00.008Z</time></trkpt><trkpt lat="45.08600385820302" lon="8.12125732290219"><ele>233.0</ele><time>2026-03-28T15:14:01.008Z</time></trkpt><trkpt lat="45.08606268475534" lon="8.121494318348143"><ele>233.0</ele><time>2026-03-28T15:14:02.008Z</time></trkpt><trkpt lat="45.0861202888426" lon="8.121736102141364"><ele>233.0</ele><time>2026-03-28T15:14:03.008Z</time></trkpt><trkpt lat="45.0861823569439" lon="8.121979031213687"><ele>233.0</ele><time>2026-03-28T15:14:04.008Z</time></trkpt><trkpt lat="45.08624613699984" lon="8.12222164790285"><ele>233.0</ele><time>2026-03-28T15:14:05.008Z</time></trkpt><trkpt lat="45.08631166166185" lon="8.122465594111658"><ele>233.0</ele><time>2026-03-28T15:14:06.008Z</time></trkpt><trkpt lat="45.08637926173894" lon="8.122711228435701"><ele>233.0</ele><time>2026-03-28T15:14:07.008Z</time></trkpt><trkpt lat="45.08644873048064" lon="8.122960240449101"><ele>233.0</ele><time>2026-03-28T15:14:08.008Z</time></trkpt><trkpt lat="45.08651828527218" lon="8.123211345228242"><ele>233.0</ele><time>2026-03-28T15:14:09.008Z</time></trkpt><trkpt lat="45.086586063077924" lon="8.123464616574234"><ele>233.0</ele><time>2026-03-28T15:14:10.008Z</time></trkpt><trkpt lat="45.08665410643703" lon="8.123721149490907"><ele>233.33333333333334</ele><time>2026-03-28T15:14:11.008Z</time></trkpt><trkpt lat="45.086723586537275" lon="8.123980837045876"><ele>233.66666666666669</ele><time>2026-03-28T15:14:12.008Z</time></trkpt><trkpt lat="45.08679315140963" lon="8.124235602438624"><ele>234.0</ele><time>2026-03-28T15:14:13.008Z</time></trkpt><trkpt lat="45.08686957228302" lon="8.12448168911587"><ele>234.0</ele><time>2026-03-28T15:14:14.008Z</time></trkpt><trkpt lat="45.086934340962635" lon="8.124727507294173"><ele>234.0</ele><time>2026-03-28T15:14:15.008Z</time></trkpt><trkpt lat="45.086993849796464" lon="8.124972279740978"><ele>234.0</ele><time>2026-03-28T15:14:16.008Z</time></trkpt><trkpt lat="45.08705468615252" lon="8.125220504863648"><ele>234.33333333333331</ele><time>2026-03-28T15:14:17.008Z</time></trkpt><trkpt lat="45.08712203212551" lon="8.12547112619683"><ele>234.66666666666666</ele><time>2026-03-28T15:14:18.008Z</time></trkpt><trkpt lat="45.087189765607626" lon="8.125721068903262"><ele>235.0</ele><time>2026-03-28T15:14:19.008Z</time></trkpt><trkpt lat="45.087257509338464" lon="8.125974076189758"><ele>234.33333333333331</ele><time>2026-03-28T15:14:20.008Z</time></trkpt><trkpt lat="45.08732677214817" lon="8.12623367845341"><ele>233.66666666666669</ele><time>2026-03-28T15:14:21.008Z</time></trkpt><trkpt lat="45.08739617127177" lon="8.126494312433108"><ele>233.0</ele><time>2026-03-28T15:14:22.008Z</time></trkpt><trkpt lat="45.087473316253565" lon="8.126752414248278"><ele>232.66666666666669</ele><time>2026-03-28T15:14:23.008Z</time></trkpt><trkpt lat="45.087550394973974" lon="8.127005044949666"><ele>232.33333333333331</ele><time>2026-03-28T15:14:24.008Z</time></trkpt><trkpt lat="45.08762144141403" lon="8.1272554283137"><ele>232.0</ele><time>2026-03-28T15:14:25.008Z</time></trkpt><trkpt lat="45.08768983162436" lon="8.127505820330427"><ele>230.66666666666666</ele><time>2026-03-28T15:14:26.008Z</time></trkpt><trkpt lat="45.08775345386358" lon="8.127759613169905"><ele>229.33333333333331</ele><time>2026-03-28T15:14:27.008Z</time></trkpt><trkpt lat="45.087817219521014" lon="8.128015875555242"><ele>228.0</ele><time>2026-03-28T15:14:28.008Z</time></trkpt><trkpt lat="45.087882588594844" lon="8.12827402658919"><ele>228.0</ele><time>2026-03-28T15:14:29.008Z</time></trkpt><trkpt lat="45.087950184704155" lon="8.128533168094096"><ele>228.0</ele><time>2026-03-28T15:14:30.008Z</time></trkpt><trkpt lat="45.08802006360424" lon="8.128796887329532"><ele>228.0</ele><time>2026-03-28T15:14:31.008Z</time></trkpt><trkpt lat="45.088091639255346" lon="8.12906025236609"><ele>228.33333333333331</ele><time>2026-03-28T15:14:32.008Z</time></trkpt><trkpt lat="45.08816148058622" lon="8.129322944493438"><ele>228.66666666666666</ele><time>2026-03-28T15:14:33.008Z</time></trkpt><trkpt lat="45.0882318998144" lon="8.129583325865445"><ele>229.0</ele><time>2026-03-28T15:14:34.008Z</time></trkpt><trkpt lat="45.08830305572757" lon="8.129839984557513"><ele>228.33333333333331</ele><time>2026-03-28T15:14:35.008Z</time></trkpt><trkpt lat="45.08837452386326" lon="8.130071690225515"><ele>227.66666666666669</ele><time>2026-03-28T15:14:36.008Z</time></trkpt><trkpt lat="45.0884336385405" lon="8.130281429925633"><ele>227.0</ele><time>2026-03-28T15:14:37.008Z</time></trkpt><trkpt lat="45.0884846596033" lon="8.130472794921534"><ele>227.0</ele><time>2026-03-28T15:14:38.008Z</time></trkpt><trkpt lat="45.08852874217397" lon="8.130645864462343"><ele>227.0</ele><time>2026-03-28T15:14:39.008Z</time></trkpt><trkpt lat="45.08856784192215" lon="8.130803627514627"><ele>227.0</ele><time>2026-03-28T15:14:40.008Z</time></trkpt><trkpt lat="45.08860453352142" lon="8.130940964162646"><ele>227.0</ele><time>2026-03-28T15:14:41.008Z</time></trkpt><trkpt lat="45.08863446869394" lon="8.131061801738078"><ele>227.0</ele><time>2026-03-28T15:14:42.008Z</time></trkpt><trkpt lat="45.08865845212605" lon="8.131165459280728"><ele>226.83333333333334</ele><time>2026-03-28T15:14:43.008Z</time></trkpt><trkpt lat="45.08865620962143" lon="8.131266778357833"><ele>226.66666666666669</ele><time>2026-03-28T15:14:44.008Z</time></trkpt><trkpt lat="45.08863597360948" lon="8.13135991659324"><ele>226.5</ele><time>2026-03-28T15:14:45.008Z</time></trkpt><trkpt lat="45.088591515871315" lon="8.13143279689434"><ele>226.33333333333331</ele><time>2026-03-28T15:14:46.008Z</time></trkpt><trkpt lat="45.08852387424873" lon="8.13149175303229"><ele>226.16666666666666</ele><time>2026-03-28T15:14:47.008Z</time></trkpt><trkpt lat="45.08842992889565" lon="8.131537969238964"><ele>226.0</ele><time>2026-03-28T15:14:48.008Z</time></trkpt><trkpt lat="45.088320231546916" lon="8.131601872123175"><ele>226.5</ele><time>2026-03-28T15:14:49.008Z</time></trkpt><trkpt lat="45.08820244017561" lon="8.131683032414827"><ele>227.0</ele><time>2026-03-28T15:14:50.008Z</time></trkpt><trkpt lat="45.08807858317821" lon="8.131776087034076"><ele>227.5</ele><time>2026-03-28T15:14:51.008Z</time></trkpt><trkpt lat="45.08795390366165" lon="8.131864997888968"><ele>228.0</ele><time>2026-03-28T15:14:52.008Z</time></trkpt><trkpt lat="45.08781686064979" lon="8.131961286606792"><ele>228.0</ele><time>2026-03-28T15:14:53.008Z</time></trkpt><trkpt lat="45.08766437564093" lon="8.132060256987728"><ele>228.0</ele><time>2026-03-28T15:14:54.008Z</time></trkpt><trkpt lat="45.08751340449602" lon="8.132158147350264"><ele>228.0</ele><time>2026-03-28T15:14:55.008Z</time></trkpt><trkpt lat="45.08735699033104" lon="8.132254871515721"><ele>228.0</ele><time>2026-03-28T15:14:56.008Z</time></trkpt><trkpt lat="45.08719789343507" lon="8.132357796982612"><ele>228.0</ele><time>2026-03-28T15:14:57.008Z</time></trkpt><trkpt lat="45.087042150843956" lon="8.13246198070498"><ele>228.0</ele><time>2026-03-28T15:14:58.008Z</time></trkpt><trkpt lat="45.08689411186809" lon="8.132552998309475"><ele>228.33333333333331</ele><time>2026-03-28T15:14:59.008Z</time></trkpt><trkpt lat="45.086739243731124" lon="8.132609655354134"><ele>228.66666666666666</ele><time>2026-03-28T15:15:00.008Z</time></trkpt><trkpt lat="45.086576157248906" lon="8.132616325902813"><ele>229.0</ele><time>2026-03-28T15:15:01.008Z</time></trkpt><trkpt lat="45.08640913448826" lon="8.132598801699887"><ele>229.0</ele><time>2026-03-28T15:15:02.008Z</time></trkpt><trkpt lat="45.086239176036884" lon="8.132562463936116"><ele>229.0</ele><time>2026-03-28T15:15:03.008Z</time></trkpt><trkpt lat="45.08606517026303" lon="8.132518069352523"><ele>229.0</ele><time>2026-03-28T15:15:04.008Z</time></trkpt><trkpt lat="45.085885131987325" lon="8.132471435489895"><ele>230.33333333333331</ele><time>2026-03-28T15:15:05.008Z</time></trkpt><trkpt lat="45.08570671512068" lon="8.132425441622374"><ele>231.66666666666669</ele><time>2026-03-28T15:15:06.008Z</time></trkpt><trkpt lat="45.085526986506686" lon="8.132382766753372"><ele>233.0</ele><time>2026-03-28T15:15:07.008Z</time></trkpt><trkpt lat="45.0853451496509" lon="8.132337381485835"><ele>233.0</ele><time>2026-03-28T15:15:08.008Z</time></trkpt><trkpt lat="45.0851641259075" lon="8.132289057913427"><ele>233.0</ele><time>2026-03-28T15:15:09.008Z</time></trkpt><trkpt lat="45.084983991389315" lon="8.132237420701978"><ele>233.0</ele><time>2026-03-28T15:15:10.008Z</time></trkpt><trkpt lat="45.084805015309435" lon="8.132190781771852"><ele>235.0</ele><time>2026-03-28T15:15:11.008Z</time></trkpt><trkpt lat="45.084628679804034" lon="8.132147000798886"><ele>237.0</ele><time>2026-03-28T15:15:12.008Z</time></trkpt><trkpt lat="45.08445850093962" lon="8.132103707820038"><ele>239.0</ele><time>2026-03-28T15:15:13.008Z</time></trkpt><trkpt lat="45.08429338963456" lon="8.13205813856084"><ele>239.0</ele><time>2026-03-28T15:15:14.009Z</time></trkpt><trkpt lat="45.084134414171906" lon="8.13201923285402"><ele>239.0</ele><time>2026-03-28T15:15:15.009Z</time></trkpt><trkpt lat="45.08397636391269" lon="8.13198203728302"><ele>239.0</ele><time>2026-03-28T15:15:16.009Z</time></trkpt><trkpt lat="45.08382185393125" lon="8.131942584336954"><ele>239.33333333333334</ele><time>2026-03-28T15:15:17.009Z</time></trkpt><trkpt lat="45.08366874026977" lon="8.13191140648495"><ele>239.66666666666669</ele><time>2026-03-28T15:15:18.009Z</time></trkpt><trkpt lat="45.08351524260622" lon="8.131884130936626"><ele>240.0</ele><time>2026-03-28T15:15:19.009Z</time></trkpt><trkpt lat="45.083367045103245" lon="8.131857651302601"><ele>242.0</ele><time>2026-03-28T15:15:20.009Z</time></trkpt><trkpt lat="45.08322522240146" lon="8.13183472622817"><ele>244.0</ele><time>2026-03-28T15:15:21.009Z</time></trkpt><trkpt lat="45.08307810715878" lon="8.131838902610872"><ele>246.0</ele><time>2026-03-28T15:15:22.009Z</time></trkpt><trkpt lat="45.08293080869575" lon="8.131867234601645"><ele>248.0</ele><time>2026-03-28T15:15:23.009Z</time></trkpt><trkpt lat="45.082787784853394" lon="8.131916040164093"><ele>248.0</ele><time>2026-03-28T15:15:24.009Z</time></trkpt><trkpt lat="45.08265100734887" lon="8.131972133408713"><ele>248.0</ele><time>2026-03-28T15:15:25.009Z</time></trkpt><trkpt lat="45.08252683808124" lon="8.132026816405881"><ele>248.0</ele><time>2026-03-28T15:15:26.009Z</time></trkpt><trkpt lat="45.08241260689395" lon="8.13206945384251"><ele>248.0</ele><time>2026-03-28T15:15:27.009Z</time></trkpt><trkpt lat="45.08230311670535" lon="8.132110426083084"><ele>250.75</ele><time>2026-03-28T15:15:28.009Z</time></trkpt><trkpt lat="45.082187386696624" lon="8.132150176354536"><ele>253.5</ele><time>2026-03-28T15:15:29.009Z</time></trkpt><trkpt lat="45.082068474510116" lon="8.13219559807871"><ele>256.25</ele><time>2026-03-28T15:15:30.009Z</time></trkpt><trkpt lat="45.08194657558665" lon="8.132240757615534"><ele>259.0</ele><time>2026-03-28T15:15:31.009Z</time></trkpt><trkpt lat="45.08182644392973" lon="8.132288016579672"><ele>259.0</ele><time>2026-03-28T15:15:32.009Z</time></trkpt><trkpt lat="45.081706529882695" lon="8.132350207285887"><ele>259.0</ele><time>2026-03-28T15:15:33.009Z</time></trkpt><trkpt lat="45.08159892614067" lon="8.132438099992989"><ele>259.0</ele><time>2026-03-28T15:15:34.009Z</time></trkpt><trkpt lat="45.08152028904459" lon="8.13256671699429"><ele>259.0</ele><time>2026-03-28T15:15:35.009Z</time></trkpt><trkpt lat="45.081477181578265" lon="8.13272044788664"><ele>261.5</ele><time>2026-03-28T15:15:36.009Z</time></trkpt><trkpt lat="45.0814614131194" lon="8.132892135479338"><ele>264.0</ele><time>2026-03-28T15:15:37.009Z</time></trkpt><trkpt lat="45.08145437021273" lon="8.133066676359123"><ele>266.5</ele><time>2026-03-28T15:15:38.009Z</time></trkpt><trkpt lat="45.08144854654752" lon="8.133247337192719"><ele>269.0</ele><time>2026-03-28T15:15:39.009Z</time></trkpt><trkpt lat="45.08143708736147" lon="8.133436995103082"><ele>269.0</ele><time>2026-03-28T15:15:40.009Z</time></trkpt><trkpt lat="45.08142551417084" lon="8.133629769762594"><ele>269.0</ele><time>2026-03-28T15:15:41.009Z</time></trkpt><trkpt lat="45.08141224534723" lon="8.133824418838543"><ele>269.0</ele><time>2026-03-28T15:15:42.009Z</time></trkpt><trkpt lat="45.0814015262656" lon="8.13402109272282"><ele>269.0</ele><time>2026-03-28T15:15:43.009Z</time></trkpt><trkpt lat="45.08139095444579" lon="8.13421893744754"><ele>269.0</ele><time>2026-03-28T15:15:44.009Z</time></trkpt><trkpt lat="45.08137777349059" lon="8.13440909446712"><ele>269.0</ele><time>2026-03-28T15:15:45.009Z</time></trkpt><trkpt lat="45.08136412522113" lon="8.134586338823407"><ele>269.0</ele><time>2026-03-28T15:15:46.009Z</time></trkpt><trkpt lat="45.08135208710362" lon="8.134740705495245"><ele>269.0</ele><time>2026-03-28T15:15:47.009Z</time></trkpt><trkpt lat="45.08134034623428" lon="8.134876515445326"><ele>269.5</ele><time>2026-03-28T15:15:48.009Z</time></trkpt><trkpt lat="45.0813333075532" lon="8.134996125194714"><ele>270.0</ele><time>2026-03-28T15:15:49.009Z</time></trkpt><trkpt lat="45.08132011514835" lon="8.135102053671048"><ele>270.5</ele><time>2026-03-28T15:15:50.009Z</time></trkpt><trkpt lat="45.08129432408294" lon="8.135183433867702"><ele>271.0</ele><time>2026-03-28T15:15:51.009Z</time></trkpt><trkpt lat="45.08122099313821" lon="8.135243133584757"><ele>271.5</ele><time>2026-03-28T15:15:53.009Z</time></trkpt><trkpt lat="45.081102202072174" lon="8.1351700549585"><ele>272.0</ele><time>2026-03-28T15:15:55.009Z</time></trkpt><trkpt lat="45.0810194921356" lon="8.135118077146569"><ele>272.0</ele><time>2026-03-28T15:15:56.009Z</time></trkpt><trkpt lat="45.080928060660334" lon="8.135070699311708"><ele>272.0</ele><time>2026-03-28T15:15:57.009Z</time></trkpt><trkpt lat="45.08083590638783" lon="8.135044362570993"><ele>272.0</ele><time>2026-03-28T15:15:58.009Z</time></trkpt><trkpt lat="45.08073296329253" lon="8.135034826079101"><ele>272.0</ele><time>2026-03-28T15:15:59.009Z</time></trkpt><trkpt lat="45.08063927033326" lon="8.135046931043608"><ele>272.0</ele><time>2026-03-28T15:16:00.009Z</time></trkpt><trkpt lat="45.08055295110771" lon="8.135060864754196"><ele>273.5</ele><time>2026-03-28T15:16:01.009Z</time></trkpt><trkpt lat="45.08047629985036" lon="8.135084338479597"><ele>275.0</ele><time>2026-03-28T15:16:02.009Z</time></trkpt><trkpt lat="45.080409560253486" lon="8.135133601260238"><ele>276.5</ele><time>2026-03-28T15:16:03.009Z</time></trkpt><trkpt lat="45.080356553708725" lon="8.135197912290653"><ele>278.0</ele><time>2026-03-28T15:16:04.009Z</time></trkpt><trkpt lat="45.080301734702125" lon="8.1352836077383"><ele>279.5</ele><time>2026-03-28T15:16:05.009Z</time></trkpt><trkpt lat="45.080239115420326" lon="8.135385749523971"><ele>281.0</ele><time>2026-03-28T15:16:06.009Z</time></trkpt><trkpt lat="45.08017578189915" lon="8.13550285492692"><ele>281.0</ele><time>2026-03-28T15:16:07.009Z</time></trkpt><trkpt lat="45.08011149627519" lon="8.135631264349122"><ele>281.0</ele><time>2026-03-28T15:16:08.009Z</time></trkpt><trkpt lat="45.080044927365435" lon="8.135754561941324"><ele>281.0</ele><time>2026-03-28T15:16:09.009Z</time></trkpt><trkpt lat="45.07998883627763" lon="8.135877530668356"><ele>281.0</ele><time>2026-03-28T15:16:10.009Z</time></trkpt><trkpt lat="45.079941672087116" lon="8.135999165737486"><ele>281.0</ele><time>2026-03-28T15:16:11.009Z</time></trkpt><trkpt lat="45.0799013934512" lon="8.136117105984377"><ele>281.0</ele><time>2026-03-28T15:16:12.009Z</time></trkpt><trkpt lat="45.07986700753781" lon="8.13623234742898"><ele>281.0</ele><time>2026-03-28T15:16:13.009Z</time></trkpt><trkpt lat="45.07983501291522" lon="8.136341076575967"><ele>281.0</ele><time>2026-03-28T15:16:14.009Z</time></trkpt><trkpt lat="45.07981232352787" lon="8.13644571570683"><ele>281.0</ele><time>2026-03-28T15:16:15.009Z</time></trkpt><trkpt lat="45.079788691895665" lon="8.13656524347925"><ele>281.0</ele><time>2026-03-28T15:16:16.009Z</time></trkpt><trkpt lat="45.07976153235547" lon="8.136708015666096"><ele>281.0</ele><time>2026-03-28T15:16:17.009Z</time></trkpt><trkpt lat="45.07973017453915" lon="8.136867627326156"><ele>281.0</ele><time>2026-03-28T15:16:18.009Z</time></trkpt><trkpt lat="45.079690646271644" lon="8.137040473040326"><ele>281.0</ele><time>2026-03-28T15:16:19.009Z</time></trkpt><trkpt lat="45.07963995608101" lon="8.137223102881121"><ele>281.0</ele><time>2026-03-28T15:16:20.009Z</time></trkpt><trkpt lat="45.079574805902865" lon="8.137410991351933"><ele>281.0</ele><time>2026-03-28T15:16:21.009Z</time></trkpt><trkpt lat="45.07949480784122" lon="8.137596378485084"><ele>279.0</ele><time>2026-03-28T15:16:22.009Z</time></trkpt><trkpt lat="45.07939348054943" lon="8.137770350687184"><ele>277.0</ele><time>2026-03-28T15:16:23.009Z</time></trkpt><trkpt lat="45.07928476871289" lon="8.137921795015941"><ele>275.0</ele><time>2026-03-28T15:16:24.009Z</time></trkpt><trkpt lat="45.07916647428587" lon="8.138038979353857"><ele>276.0</ele><time>2026-03-28T15:16:25.009Z</time></trkpt><trkpt lat="45.07903765429196" lon="8.138119844482103"><ele>277.0</ele><time>2026-03-28T15:16:26.009Z</time></trkpt><trkpt lat="45.07890150476616" lon="8.13818442217418"><ele>278.0</ele><time>2026-03-28T15:16:27.009Z</time></trkpt><trkpt lat="45.07876602307171" lon="8.13824609592521"><ele>279.0</ele><time>2026-03-28T15:16:28.009Z</time></trkpt><trkpt lat="45.078635552469336" lon="8.138306883568228"><ele>279.0</ele><time>2026-03-28T15:16:29.009Z</time></trkpt><trkpt lat="45.078515699644335" lon="8.138357226525164"><ele>279.0</ele><time>2026-03-28T15:16:30.009Z</time></trkpt><trkpt lat="45.07841056716051" lon="8.138393700352305"><ele>279.0</ele><time>2026-03-28T15:16:31.009Z</time></trkpt><trkpt lat="45.07832669183858" lon="8.138418036895999"><ele>279.0</ele><time>2026-03-28T15:16:32.009Z</time></trkpt><trkpt lat="45.07825769792737" lon="8.138437144766959"><ele>279.0</ele><time>2026-03-28T15:16:33.009Z</time></trkpt><trkpt lat="45.0781526925008" lon="8.138501816806015"><ele>276.75</ele><time>2026-03-28T15:16:35.009Z</time></trkpt><trkpt lat="45.078054246373" lon="8.138612761964508"><ele>274.5</ele><time>2026-03-28T15:16:37.009Z</time></trkpt><trkpt lat="45.0779961070389" lon="8.138717281840337"><ele>272.25</ele><time>2026-03-28T15:16:38.009Z</time></trkpt><trkpt lat="45.07792717943251" lon="8.13885327909744"><ele>270.0</ele><time>2026-03-28T15:16:39.009Z</time></trkpt><trkpt lat="45.077850176682375" lon="8.1390121837391"><ele>270.5</ele><time>2026-03-28T15:16:40.01Z</time></trkpt><trkpt lat="45.07777323067306" lon="8.139164548306402"><ele>271.0</ele><time>2026-03-28T15:16:41.01Z</time></trkpt><trkpt lat="45.07768320371118" lon="8.139336659284233"><ele>271.5</ele><time>2026-03-28T15:16:42.01Z</time></trkpt><trkpt lat="45.077588585148504" lon="8.139513602256233"><ele>272.0</ele><time>2026-03-28T15:16:43.01Z</time></trkpt><trkpt lat="45.077485860416" lon="8.13969519046858"><ele>273.0</ele><time>2026-03-28T15:16:44.01Z</time></trkpt><trkpt lat="45.07737967656037" lon="8.139887254206942"><ele>274.0</ele><time>2026-03-28T15:16:45.01Z</time></trkpt><trkpt lat="45.07727283438445" lon="8.14007872973315"><ele>275.0</ele><time>2026-03-28T15:16:46.01Z</time></trkpt><trkpt lat="45.077175892833715" lon="8.14025134362468"><ele>275.0</ele><time>2026-03-28T15:16:47.01Z</time></trkpt><trkpt lat="45.07708874797434" lon="8.14041723761744"><ele>275.0</ele><time>2026-03-28T15:16:48.01Z</time></trkpt><trkpt lat="45.0770051035271" lon="8.140601877276238"><ele>275.0</ele><time>2026-03-28T15:16:49.01Z</time></trkpt><trkpt lat="45.07692404729112" lon="8.140803470814374"><ele>275.33333333333337</ele><time>2026-03-28T15:16:50.01Z</time></trkpt><trkpt lat="45.076843315037195" lon="8.141019803767488"><ele>275.6666666666667</ele><time>2026-03-28T15:16:51.01Z</time></trkpt><trkpt lat="45.076761933921624" lon="8.141253037170662"><ele>276.0</ele><time>2026-03-28T15:16:52.01Z</time></trkpt><trkpt lat="45.076678133860035" lon="8.14149642365555"><ele>270.3333333333333</ele><time>2026-03-28T15:16:53.01Z</time></trkpt><trkpt lat="45.07659573140362" lon="8.141728391373197"><ele>264.66666666666663</ele><time>2026-03-28T15:16:54.01Z</time></trkpt><trkpt lat="45.07651426518404" lon="8.14195063427208"><ele>259.0</ele><time>2026-03-28T15:16:55.01Z</time></trkpt><trkpt lat="45.076430421755916" lon="8.142176100655014"><ele>260.3333333333333</ele><time>2026-03-28T15:16:56.01Z</time></trkpt><trkpt lat="45.07635051328024" lon="8.142415402133524"><ele>261.6666666666667</ele><time>2026-03-28T15:16:57.01Z</time></trkpt><trkpt lat="45.07627926251392" lon="8.142664913149591"><ele>263.0</ele><time>2026-03-28T15:16:58.01Z</time></trkpt><trkpt lat="45.07620795647957" lon="8.142924145127509"><ele>263.0</ele><time>2026-03-28T15:16:59.01Z</time></trkpt><trkpt lat="45.07613546269447" lon="8.143190532302159"><ele>263.0</ele><time>2026-03-28T15:17:00.01Z</time></trkpt><trkpt lat="45.07606146096888" lon="8.143461369083113"><ele>263.0</ele><time>2026-03-28T15:17:01.01Z</time></trkpt><trkpt lat="45.07598992672732" lon="8.143728688243273"><ele>262.0</ele><time>2026-03-28T15:17:02.01Z</time></trkpt><trkpt lat="45.07591318673259" lon="8.143980361407381"><ele>261.0</ele><time>2026-03-28T15:17:03.01Z</time></trkpt><trkpt lat="45.075830244021915" lon="8.144212955193883"><ele>260.0</ele><time>2026-03-28T15:17:04.01Z</time></trkpt><trkpt lat="45.07574903828983" lon="8.144430199722315"><ele>260.0</ele><time>2026-03-28T15:17:05.01Z</time></trkpt><trkpt lat="45.07566726820919" lon="8.144638823190318"><ele>260.0</ele><time>2026-03-28T15:17:06.01Z</time></trkpt><trkpt lat="45.075599474166644" lon="8.144849039863006"><ele>260.0</ele><time>2026-03-28T15:17:07.01Z</time></trkpt><trkpt lat="45.07556269016574" lon="8.145064217964268"><ele>261.6666666666667</ele><time>2026-03-28T15:17:08.01Z</time></trkpt><trkpt lat="45.07555307758193" lon="8.145295262675335"><ele>263.3333333333333</ele><time>2026-03-28T15:17:09.01Z</time></trkpt><trkpt lat="45.07554982131205" lon="8.145524470490308"><ele>265.0</ele><time>2026-03-28T15:17:10.01Z</time></trkpt><trkpt lat="45.07554099081297" lon="8.145753120208838"><ele>266.5</ele><time>2026-03-28T15:17:11.01Z</time></trkpt><trkpt lat="45.075515546278886" lon="8.145968586956515"><ele>268.0</ele><time>2026-03-28T15:17:12.01Z</time></trkpt><trkpt lat="45.07547363982398" lon="8.146156708910171"><ele>269.5</ele><time>2026-03-28T15:17:13.01Z</time></trkpt><trkpt lat="45.07540748118417" lon="8.146311697400154"><ele>271.0</ele><time>2026-03-28T15:17:14.01Z</time></trkpt><trkpt lat="45.075312750229514" lon="8.14644196963308"><ele>270.5</ele><time>2026-03-28T15:17:15.01Z</time></trkpt><trkpt lat="45.07520310917243" lon="8.146549545320406"><ele>270.0</ele><time>2026-03-28T15:17:16.01Z</time></trkpt><trkpt lat="45.07508143872039" lon="8.14666203855563"><ele>269.5</ele><time>2026-03-28T15:17:17.01Z</time></trkpt><trkpt lat="45.07495209288612" lon="8.146794361924208"><ele>269.0</ele><time>2026-03-28T15:17:18.01Z</time></trkpt><trkpt lat="45.07481890928122" lon="8.146936953824127"><ele>269.0</ele><time>2026-03-28T15:17:19.01Z</time></trkpt><trkpt lat="45.0746852851836" lon="8.14708347279955"><ele>269.0</ele><time>2026-03-28T15:17:20.01Z</time></trkpt><trkpt lat="45.07455029890099" lon="8.147222942826817"><ele>269.0</ele><time>2026-03-28T15:17:21.01Z</time></trkpt><trkpt lat="45.07441973864505" lon="8.14734712063104"><ele>269.25</ele><time>2026-03-28T15:17:22.01Z</time></trkpt><trkpt lat="45.07428938190731" lon="8.147456297552468"><ele>269.5</ele><time>2026-03-28T15:17:23.01Z</time></trkpt><trkpt lat="45.07415134348012" lon="8.147532760325145"><ele>269.75</ele><time>2026-03-28T15:17:24.01Z</time></trkpt><trkpt lat="45.074006202649855" lon="8.147574622374766"><ele>270.0</ele><time>2026-03-28T15:17:25.01Z</time></trkpt><trkpt lat="45.073873332003316" lon="8.147599491810679"><ele>270.0</ele><time>2026-03-28T15:17:26.01Z</time></trkpt><trkpt lat="45.073762250382096" lon="8.14762636046822"><ele>270.0</ele><time>2026-03-28T15:17:27.01Z</time></trkpt><trkpt lat="45.07368636459624" lon="8.14765920980539"><ele>270.0</ele><time>2026-03-28T15:17:28.01Z</time></trkpt><trkpt lat="45.073625578196726" lon="8.147777573885296"><ele>270.0</ele><time>2026-03-28T15:17:30.01Z</time></trkpt><trkpt lat="45.07364413512179" lon="8.147878145473996"><ele>270.0</ele><time>2026-03-28T15:17:31.01Z</time></trkpt><trkpt lat="45.07367285525057" lon="8.148009574242776"><ele>270.0</ele><time>2026-03-28T15:17:32.01Z</time></trkpt><trkpt lat="45.073697035872854" lon="8.148161723156763"><ele>270.0</ele><time>2026-03-28T15:17:33.01Z</time></trkpt><trkpt lat="45.07370614567806" lon="8.148326288674014"><ele>270.0</ele><time>2026-03-28T15:17:34.01Z</time></trkpt><trkpt lat="45.07370034636333" lon="8.148512167364268"><ele>270.0</ele><time>2026-03-28T15:17:35.01Z</time></trkpt><trkpt lat="45.073671563722975" lon="8.148689117223444"><ele>270.75</ele><time>2026-03-28T15:17:36.01Z</time></trkpt><trkpt lat="45.07363026842655" lon="8.14887756481009"><ele>271.5</ele><time>2026-03-28T15:17:37.01Z</time></trkpt><trkpt lat="45.073571968703156" lon="8.149063374892693"><ele>272.25</ele><time>2026-03-28T15:17:38.01Z</time></trkpt><trkpt lat="45.07350004535723" lon="8.149259928366591"><ele>273.0</ele><time>2026-03-28T15:17:39.01Z</time></trkpt><trkpt lat="45.07342508601002" lon="8.14946201249763"><ele>273.0</ele><time>2026-03-28T15:17:40.01Z</time></trkpt><trkpt lat="45.073356759103724" lon="8.149658500676654"><ele>273.0</ele><time>2026-03-28T15:17:41.01Z</time></trkpt><trkpt lat="45.07329231307446" lon="8.149843986519073"><ele>273.0</ele><time>2026-03-28T15:17:42.01Z</time></trkpt><trkpt lat="45.07323565313778" lon="8.150020895152327"><ele>273.0</ele><time>2026-03-28T15:17:43.01Z</time></trkpt><trkpt lat="45.07318261004616" lon="8.150182381607584"><ele>273.0</ele><time>2026-03-28T15:17:44.01Z</time></trkpt><trkpt lat="45.073149692354086" lon="8.15034493482731"><ele>273.0</ele><time>2026-03-28T15:17:45.01Z</time></trkpt><trkpt lat="45.073143942464284" lon="8.150515050762008"><ele>273.0</ele><time>2026-03-28T15:17:46.01Z</time></trkpt><trkpt lat="45.073181187593235" lon="8.150693445013161"><ele>273.0</ele><time>2026-03-28T15:17:47.01Z</time></trkpt><trkpt lat="45.07325250537225" lon="8.15087410938492"><ele>273.6666666666667</ele><time>2026-03-28T15:17:48.01Z</time></trkpt><trkpt lat="45.073323513780366" lon="8.151074490000086"><ele>274.33333333333337</ele><time>2026-03-28T15:17:49.01Z</time></trkpt><trkpt lat="45.073363214427374" lon="8.151301993620695"><ele>275.0</ele><time>2026-03-28T15:17:50.01Z</time></trkpt><trkpt lat="45.07339583442103" lon="8.151545410062013"><ele>275.0</ele><time>2026-03-28T15:17:51.01Z</time></trkpt><trkpt lat="45.07343885908002" lon="8.151780748539293"><ele>275.0</ele><time>2026-03-28T15:17:52.01Z</time></trkpt><trkpt lat="45.07349749829519" lon="8.151994086940888"><ele>275.0</ele><time>2026-03-28T15:17:53.01Z</time></trkpt><trkpt lat="45.07357709599269" lon="8.15218725844673"><ele>275.0</ele><time>2026-03-28T15:17:54.01Z</time></trkpt><trkpt lat="45.07367665451523" lon="8.152359779523422"><ele>275.0</ele><time>2026-03-28T15:17:55.01Z</time></trkpt><trkpt lat="45.073796364686046" lon="8.152517591188856"><ele>275.0</ele><time>2026-03-28T15:17:56.01Z</time></trkpt><trkpt lat="45.07392097527299" lon="8.15265338022279"><ele>272.33333333333337</ele><time>2026-03-28T15:17:57.01Z</time></trkpt><trkpt lat="45.07405106481165" lon="8.152795443028399"><ele>269.6666666666667</ele><time>2026-03-28T15:17:58.01Z</time></trkpt><trkpt lat="45.07417881682326" lon="8.152942426447941"><ele>267.0</ele><time>2026-03-28T15:17:59.01Z</time></trkpt><trkpt lat="45.07430535908475" lon="8.153099579353935"><ele>268.0</ele><time>2026-03-28T15:18:00.01Z</time></trkpt><trkpt lat="45.07442449668323" lon="8.153258422506353"><ele>269.0</ele><time>2026-03-28T15:18:01.01Z</time></trkpt><trkpt lat="45.0745370639621" lon="8.153420575929792"><ele>270.0</ele><time>2026-03-28T15:18:02.01Z</time></trkpt><trkpt lat="45.074635373120515" lon="8.153596114849424"><ele>270.0</ele><time>2026-03-28T15:18:03.01Z</time></trkpt><trkpt lat="45.07472033629477" lon="8.153793823519754"><ele>270.0</ele><time>2026-03-28T15:18:04.01Z</time></trkpt><trkpt lat="45.07479740704018" lon="8.154004902693702"><ele>270.0</ele><time>2026-03-28T15:18:05.01Z</time></trkpt><trkpt lat="45.07485855746726" lon="8.154204686763427"><ele>269.3333333333333</ele><time>2026-03-28T15:18:06.01Z</time></trkpt><trkpt lat="45.07490356696857" lon="8.154412330249437"><ele>268.66666666666663</ele><time>2026-03-28T15:18:07.011Z</time></trkpt><trkpt lat="45.07493809463269" lon="8.154633721580776"><ele>268.0</ele><time>2026-03-28T15:18:08.011Z</time></trkpt><trkpt lat="45.074946851710735" lon="8.154865004368714"><ele>265.66666666666663</ele><time>2026-03-28T15:18:09.011Z</time></trkpt><trkpt lat="45.07493003218325" lon="8.155093424306376"><ele>263.3333333333333</ele><time>2026-03-28T15:18:10.011Z</time></trkpt><trkpt lat="45.07487978699729" lon="8.155316901932151"><ele>261.0</ele><time>2026-03-28T15:18:11.011Z</time></trkpt><trkpt lat="45.074812426484925" lon="8.155538709525635"><ele>261.6666666666667</ele><time>2026-03-28T15:18:12.011Z</time></trkpt><trkpt lat="45.07474294724559" lon="8.155766333759228"><ele>262.33333333333337</ele><time>2026-03-28T15:18:13.011Z</time></trkpt><trkpt lat="45.07468034061565" lon="8.156007783369407"><ele>263.0</ele><time>2026-03-28T15:18:14.011Z</time></trkpt><trkpt lat="45.07461776413027" lon="8.156259007766499"><ele>263.0</ele><time>2026-03-28T15:18:15.011Z</time></trkpt><trkpt lat="45.07454883504259" lon="8.156513530817879"><ele>263.0</ele><time>2026-03-28T15:18:16.011Z</time></trkpt><trkpt lat="45.07447956183272" lon="8.156762170112193"><ele>263.0</ele><time>2026-03-28T15:18:17.011Z</time></trkpt><trkpt lat="45.07439999022568" lon="8.157016741558394"><ele>263.33333333333337</ele><time>2026-03-28T15:18:18.011Z</time></trkpt><trkpt lat="45.07431252100142" lon="8.157273923049221"><ele>263.6666666666667</ele><time>2026-03-28T15:18:19.011Z</time></trkpt><trkpt lat="45.07422444441853" lon="8.157527821242992"><ele>264.0</ele><time>2026-03-28T15:18:20.011Z</time></trkpt><trkpt lat="45.07413845627743" lon="8.15776852474035"><ele>263.6666666666667</ele><time>2026-03-28T15:18:21.011Z</time></trkpt><trkpt lat="45.07405132872481" lon="8.157986814155823"><ele>263.33333333333337</ele><time>2026-03-28T15:18:22.011Z</time></trkpt><trkpt lat="45.073951155788485" lon="8.158171927126851"><ele>263.0</ele><time>2026-03-28T15:18:23.011Z</time></trkpt><trkpt lat="45.07384273987452" lon="8.15833694433919"><ele>265.6666666666667</ele><time>2026-03-28T15:18:24.011Z</time></trkpt><trkpt lat="45.07372788988606" lon="8.158491077526238"><ele>268.3333333333333</ele><time>2026-03-28T15:18:25.011Z</time></trkpt><trkpt lat="45.07362379790542" lon="8.158665548335026"><ele>271.0</ele><time>2026-03-28T15:18:26.011Z</time></trkpt><trkpt lat="45.07354054243856" lon="8.158882471652651"><ele>272.0</ele><time>2026-03-28T15:18:27.011Z</time></trkpt><trkpt lat="45.07348635023372" lon="8.159103398783563"><ele>273.0</ele><time>2026-03-28T15:18:28.011Z</time></trkpt><trkpt lat="45.07341951381582" lon="8.159311917832948"><ele>274.0</ele><time>2026-03-28T15:18:29.011Z</time></trkpt><trkpt lat="45.0733390585351" lon="8.159484506042366"><ele>274.25</ele><time>2026-03-28T15:18:30.011Z</time></trkpt><trkpt lat="45.07324695948006" lon="8.159612392603199"><ele>274.5</ele><time>2026-03-28T15:18:31.011Z</time></trkpt><trkpt lat="45.07314182232476" lon="8.159687593251894"><ele>274.75</ele><time>2026-03-28T15:18:32.011Z</time></trkpt><trkpt lat="45.07303926445803" lon="8.159753409698414"><ele>275.0</ele><time>2026-03-28T15:18:33.011Z</time></trkpt><trkpt lat="45.07295178523199" lon="8.1598406257981"><ele>277.8</ele><time>2026-03-28T15:18:34.011Z</time></trkpt><trkpt lat="45.07288108967476" lon="8.159971854351339"><ele>280.6</ele><time>2026-03-28T15:18:35.011Z</time></trkpt><trkpt lat="45.07283685822291" lon="8.160102375566442"><ele>283.4</ele><time>2026-03-28T15:18:36.011Z</time></trkpt><trkpt lat="45.0727981030861" lon="8.160240506822296"><ele>286.2</ele><time>2026-03-28T15:18:37.011Z</time></trkpt><trkpt lat="45.07273859330782" lon="8.160352744611956"><ele>289.0</ele><time>2026-03-28T15:18:38.011Z</time></trkpt><trkpt lat="45.07268252075326" lon="8.160488008490136"><ele>289.0</ele><time>2026-03-28T15:18:39.011Z</time></trkpt><trkpt lat="45.07262432896542" lon="8.160633566994548"><ele>289.0</ele><time>2026-03-28T15:18:40.011Z</time></trkpt><trkpt lat="45.0725783985532" lon="8.160794042730458"><ele>289.0</ele><time>2026-03-28T15:18:41.011Z</time></trkpt><trkpt lat="45.072538771178664" lon="8.160946306563389"><ele>289.0</ele><time>2026-03-28T15:18:42.011Z</time></trkpt><trkpt lat="45.072501051415415" lon="8.161089769537957"><ele>289.75</ele><time>2026-03-28T15:18:43.011Z</time></trkpt><trkpt lat="45.07244508974657" lon="8.161222741981483"><ele>290.5</ele><time>2026-03-28T15:18:44.011Z</time></trkpt><trkpt lat="45.07236438553982" lon="8.161343572876282"><ele>291.25</ele><time>2026-03-28T15:18:45.011Z</time></trkpt><trkpt lat="45.072263003051944" lon="8.161440606070586"><ele>292.0</ele><time>2026-03-28T15:18:46.011Z</time></trkpt><trkpt lat="45.07215252610315" lon="8.161527924843426"><ele>295.0</ele><time>2026-03-28T15:18:47.011Z</time></trkpt><trkpt lat="45.0720424650425" lon="8.161616592816687"><ele>298.0</ele><time>2026-03-28T15:18:48.011Z</time></trkpt><trkpt lat="45.071941306867885" lon="8.161713008990946"><ele>301.0</ele><time>2026-03-28T15:18:49.011Z</time></trkpt><trkpt lat="45.071847955640514" lon="8.161828812144947"><ele>304.0</ele><time>2026-03-28T15:18:50.011Z</time></trkpt><trkpt lat="45.07176695460924" lon="8.161959335815178"><ele>304.0</ele><time>2026-03-28T15:18:51.011Z</time></trkpt><trkpt lat="45.07168760858213" lon="8.162086055737632"><ele>304.0</ele><time>2026-03-28T15:18:52.011Z</time></trkpt><trkpt lat="45.07160938545983" lon="8.162206044509599"><ele>304.0</ele><time>2026-03-28T15:18:53.011Z</time></trkpt><trkpt lat="45.07154803984603" lon="8.162325004871814"><ele>304.0</ele><time>2026-03-28T15:18:54.011Z</time></trkpt><trkpt lat="45.071499288328795" lon="8.162435112646369"><ele>304.0</ele><time>2026-03-28T15:18:55.011Z</time></trkpt><trkpt lat="45.07145280366301" lon="8.162534514595661"><ele>303.8</ele><time>2026-03-28T15:18:56.011Z</time></trkpt><trkpt lat="45.07140725827114" lon="8.162638855191354"><ele>303.59999999999997</ele><time>2026-03-28T15:18:57.011Z</time></trkpt><trkpt lat="45.07136371523532" lon="8.162765491700611"><ele>303.4</ele><time>2026-03-28T15:18:58.011Z</time></trkpt><trkpt lat="45.07130986901771" lon="8.162896731792602"><ele>303.2</ele><time>2026-03-28T15:18:59.011Z</time></trkpt><trkpt lat="45.07125338491392" lon="8.163034261910319"><ele>303.0</ele><time>2026-03-28T15:19:00.011Z</time></trkpt><trkpt lat="45.07121740585394" lon="8.163178979501941"><ele>304.4</ele><time>2026-03-28T15:19:01.011Z</time></trkpt><trkpt lat="45.07119445347504" lon="8.163328707838001"><ele>305.8</ele><time>2026-03-28T15:19:02.011Z</time></trkpt><trkpt lat="45.07119151478775" lon="8.163470855907494"><ele>307.2</ele><time>2026-03-28T15:19:03.011Z</time></trkpt><trkpt lat="45.07119888623729" lon="8.163598611425355"><ele>308.6</ele><time>2026-03-28T15:19:04.011Z</time></trkpt><trkpt lat="45.0711950012848" lon="8.163708651256357"><ele>310.0</ele><time>2026-03-28T15:19:05.011Z</time></trkpt><trkpt lat="45.071118699957495" lon="8.163825827612289"><ele>310.0</ele><time>2026-03-28T15:19:07.011Z</time></trkpt><trkpt lat="45.07105972302738" lon="8.163858103010963"><ele>310.0</ele><time>2026-03-28T15:19:08.011Z</time></trkpt><trkpt lat="45.070980484067306" lon="8.163883486751736"><ele>310.0</ele><time>2026-03-28T15:19:09.011Z</time></trkpt><trkpt lat="45.07088410505992" lon="8.163907196556366"><ele>310.0</ele><time>2026-03-28T15:19:10.011Z</time></trkpt><trkpt lat="45.0707712344182" lon="8.16394530449487"><ele>310.0</ele><time>2026-03-28T15:19:11.011Z</time></trkpt><trkpt lat="45.070647155523034" lon="8.1639815578043"><ele>309.75</ele><time>2026-03-28T15:19:12.011Z</time></trkpt><trkpt lat="45.07052163940143" lon="8.164018601435467"><ele>309.5</ele><time>2026-03-28T15:19:13.011Z</time></trkpt><trkpt lat="45.07038992873907" lon="8.164058362096439"><ele>309.25</ele><time>2026-03-28T15:19:14.011Z</time></trkpt><trkpt lat="45.070255531768844" lon="8.164095771946997"><ele>309.0</ele><time>2026-03-28T15:19:15.011Z</time></trkpt><trkpt lat="45.07012301226218" lon="8.164132302129296"><ele>309.0</ele><time>2026-03-28T15:19:16.011Z</time></trkpt><trkpt lat="45.06998456315434" lon="8.164161478385996"><ele>309.0</ele><time>2026-03-28T15:19:17.011Z</time></trkpt><trkpt lat="45.06984730135018" lon="8.164191817856631"><ele>309.0</ele><time>2026-03-28T15:19:18.011Z</time></trkpt><trkpt lat="45.069712215947106" lon="8.16422717456897"><ele>309.0</ele><time>2026-03-28T15:19:19.011Z</time></trkpt><trkpt lat="45.069580833783476" lon="8.164266735025459"><ele>307.8</ele><time>2026-03-28T15:19:20.011Z</time></trkpt><trkpt lat="45.06946108704849" lon="8.164306007739533"><ele>306.59999999999997</ele><time>2026-03-28T15:19:21.011Z</time></trkpt><trkpt lat="45.06935536300832" lon="8.164330584386594"><ele>305.4</ele><time>2026-03-28T15:19:22.011Z</time></trkpt><trkpt lat="45.069262500583555" lon="8.164322725692998"><ele>304.2</ele><time>2026-03-28T15:19:23.011Z</time></trkpt><trkpt lat="45.06917613189068" lon="8.164262054146622"><ele>303.0</ele><time>2026-03-28T15:19:24.011Z</time></trkpt><trkpt lat="45.06911242482066" lon="8.164144030207174"><ele>301.0</ele><time>2026-03-28T15:19:25.011Z</time></trkpt><trkpt lat="45.069042915066184" lon="8.164020277028413"><ele>299.0</ele><time>2026-03-28T15:19:26.011Z</time></trkpt><trkpt lat="45.068972452400715" lon="8.163885377222456"><ele>297.0</ele><time>2026-03-28T15:19:27.011Z</time></trkpt><trkpt lat="45.068883783993385" lon="8.163775330793854"><ele>295.0</ele><time>2026-03-28T15:19:28.011Z</time></trkpt><trkpt lat="45.06877714159422" lon="8.163701446093759"><ele>295.0</ele><time>2026-03-28T15:19:29.011Z</time></trkpt><trkpt lat="45.068662652685745" lon="8.163685826791255"><ele>295.0</ele><time>2026-03-28T15:19:30.011Z</time></trkpt><trkpt lat="45.06855153320898" lon="8.163714831643487"><ele>295.0</ele><time>2026-03-28T15:19:31.011Z</time></trkpt><trkpt lat="45.06846355291553" lon="8.163771470817451"><ele>295.0</ele><time>2026-03-28T15:19:32.011Z</time></trkpt><trkpt lat="45.0684077684571" lon="8.163855764069346"><ele>295.0</ele><time>2026-03-28T15:19:33.012Z</time></trkpt><trkpt lat="45.068390547970736" lon="8.163959240434153"><ele>295.0</ele><time>2026-03-28T15:19:34.012Z</time></trkpt><trkpt lat="45.068403793006624" lon="8.164092355545185"><ele>295.0</ele><time>2026-03-28T15:19:35.012Z</time></trkpt><trkpt lat="45.068437248124994" lon="8.164248292680933"><ele>295.0</ele><time>2026-03-28T15:19:36.012Z</time></trkpt><trkpt lat="45.068488394377866" lon="8.164437957304248"><ele>295.0</ele><time>2026-03-28T15:19:37.012Z</time></trkpt><trkpt lat="45.068530605978005" lon="8.164650919957673"><ele>294.0</ele><time>2026-03-28T15:19:38.012Z</time></trkpt><trkpt lat="45.06854840151417" lon="8.164872897976283"><ele>293.0</ele><time>2026-03-28T15:19:39.012Z</time></trkpt><trkpt lat="45.06855325221276" lon="8.165088012551823"><ele>292.0</ele><time>2026-03-28T15:19:40.012Z</time></trkpt><trkpt lat="45.068548705167224" lon="8.16529158203141"><ele>292.0</ele><time>2026-03-28T15:19:41.012Z</time></trkpt><trkpt lat="45.06853966467104" lon="8.165475267049862"><ele>292.0</ele><time>2026-03-28T15:19:42.012Z</time></trkpt><trkpt lat="45.06851577758298" lon="8.165631827828445"><ele>292.0</ele><time>2026-03-28T15:19:43.012Z</time></trkpt><trkpt lat="45.06848915718111" lon="8.1657684693522"><ele>292.0</ele><time>2026-03-28T15:19:44.012Z</time></trkpt><trkpt lat="45.06843096544871" lon="8.165854170521156"><ele>292.0</ele><time>2026-03-28T15:19:45.012Z</time></trkpt><trkpt lat="45.068349626457994" lon="8.165885262166984"><ele>288.75</ele><time>2026-03-28T15:19:46.012Z</time></trkpt><trkpt lat="45.068253949845754" lon="8.165869042939953"><ele>285.5</ele><time>2026-03-28T15:19:47.012Z</time></trkpt><trkpt lat="45.068150196643565" lon="8.165791169223917"><ele>282.25</ele><time>2026-03-28T15:19:48.012Z</time></trkpt><trkpt lat="45.06803786354372" lon="8.165685355754439"><ele>279.0</ele><time>2026-03-28T15:19:49.012Z</time></trkpt><trkpt lat="45.067911525369766" lon="8.165573334890638"><ele>279.0</ele><time>2026-03-28T15:19:50.012Z</time></trkpt><trkpt lat="45.067779966054935" lon="8.165459450277112"><ele>279.0</ele><time>2026-03-28T15:19:51.012Z</time></trkpt><trkpt lat="45.06765846701939" lon="8.165354823180783"><ele>279.0</ele><time>2026-03-28T15:19:52.012Z</time></trkpt><trkpt lat="45.067540131688276" lon="8.165255982007068"><ele>279.0</ele><time>2026-03-28T15:19:53.012Z</time></trkpt><trkpt lat="45.067435505286916" lon="8.1651576781341"><ele>277.3333333333333</ele><time>2026-03-28T15:19:54.012Z</time></trkpt><trkpt lat="45.06735323348809" lon="8.165076334217003"><ele>275.6666666666667</ele><time>2026-03-28T15:19:55.012Z</time></trkpt><trkpt lat="45.067284487251094" lon="8.165033188770655"><ele>274.0</ele><time>2026-03-28T15:19:56.012Z</time></trkpt><trkpt lat="45.06721491079819" lon="8.165038522297476"><ele>272.33333333333337</ele><time>2026-03-28T15:19:57.012Z</time></trkpt><trkpt lat="45.06715576985344" lon="8.165099880934477"><ele>270.6666666666667</ele><time>2026-03-28T15:19:58.012Z</time></trkpt><trkpt lat="45.06712303526409" lon="8.165195666439773"><ele>269.0</ele><time>2026-03-28T15:19:59.012Z</time></trkpt><trkpt lat="45.06713409324156" lon="8.16532495898437"><ele>269.0</ele><time>2026-03-28T15:20:00.012Z</time></trkpt><trkpt lat="45.06717292249998" lon="8.165468587953743"><ele>269.0</ele><time>2026-03-28T15:20:01.012Z</time></trkpt><trkpt lat="45.0672466876319" lon="8.16563032678653"><ele>269.0</ele><time>2026-03-28T15:20:02.012Z</time></trkpt><trkpt lat="45.06732898874863" lon="8.165806246621951"><ele>269.0</ele><time>2026-03-28T15:20:03.012Z</time></trkpt><trkpt lat="45.06740776231278" lon="8.165978452987249"><ele>269.59999999999997</ele><time>2026-03-28T15:20:04.012Z</time></trkpt><trkpt lat="45.06747558198162" lon="8.166134266737163"><ele>270.2</ele><time>2026-03-28T15:20:05.012Z</time></trkpt><trkpt lat="45.06753625236835" lon="8.166277978069779"><ele>270.79999999999995</ele><time>2026-03-28T15:20:06.012Z</time></trkpt><trkpt lat="45.06759030259804" lon="8.166388308160734"><ele>271.4</ele><time>2026-03-28T15:20:07.012Z</time></trkpt><trkpt lat="45.06762098507679" lon="8.166489192232858"><ele>272.0</ele><time>2026-03-28T15:20:08.012Z</time></trkpt><trkpt lat="45.06762386522867" lon="8.166602603373315"><ele>272.0</ele><time>2026-03-28T15:20:09.012Z</time></trkpt><trkpt lat="45.06759201167559" lon="8.166709627513535"><ele>272.0</ele><time>2026-03-28T15:20:10.012Z</time></trkpt><trkpt lat="45.06753577974138" lon="8.166793110514666"><ele>272.0</ele><time>2026-03-28T15:20:11.012Z</time></trkpt><trkpt lat="45.067460939946784" lon="8.166831185946561"><ele>272.0</ele><time>2026-03-28T15:20:12.012Z</time></trkpt><trkpt lat="45.067368779366674" lon="8.166803517066192"><ele>272.0</ele><time>2026-03-28T15:20:13.012Z</time></trkpt><trkpt lat="45.06725356711872" lon="8.166698595743158"><ele>267.6666666666667</ele><time>2026-03-28T15:20:14.012Z</time></trkpt><trkpt lat="45.06713537240572" lon="8.166598175673341"><ele>263.3333333333333</ele><time>2026-03-28T15:20:15.012Z</time></trkpt><trkpt lat="45.067000451708026" lon="8.166480186444014"><ele>259.0</ele><time>2026-03-28T15:20:16.012Z</time></trkpt><trkpt lat="45.066858107189724" lon="8.166360647200657"><ele>259.0</ele><time>2026-03-28T15:20:17.012Z</time></trkpt><trkpt lat="45.06670972730182" lon="8.166241034654082"><ele>259.0</ele><time>2026-03-28T15:20:18.012Z</time></trkpt><trkpt lat="45.06654727814326" lon="8.166105421934818"><ele>259.0</ele><time>2026-03-28T15:20:19.012Z</time></trkpt><trkpt lat="45.066385418120525" lon="8.165959699425041"><ele>260.3333333333333</ele><time>2026-03-28T15:20:20.012Z</time></trkpt><trkpt lat="45.066240175368364" lon="8.16582438720594"><ele>261.6666666666667</ele><time>2026-03-28T15:20:21.012Z</time></trkpt><trkpt lat="45.06610149091995" lon="8.165691845019609"><ele>263.0</ele><time>2026-03-28T15:20:22.012Z</time></trkpt><trkpt lat="45.0659671454074" lon="8.165568611445096"><ele>263.0</ele><time>2026-03-28T15:20:23.012Z</time></trkpt><trkpt lat="45.065835754186864" lon="8.165446386957504"><ele>263.0</ele><time>2026-03-28T15:20:24.012Z</time></trkpt><trkpt lat="45.06570124422219" lon="8.16535617144044"><ele>263.0</ele><time>2026-03-28T15:20:25.012Z</time></trkpt><trkpt lat="45.06555671459249" lon="8.165319755764958"><ele>260.0</ele><time>2026-03-28T15:20:26.012Z</time></trkpt><trkpt lat="45.06538982603332" lon="8.165323294177073"><ele>257.0</ele><time>2026-03-28T15:20:27.012Z</time></trkpt><trkpt lat="45.06521784455564" lon="8.165354268869553"><ele>254.0</ele><time>2026-03-28T15:20:28.012Z</time></trkpt><trkpt lat="45.06505102617752" lon="8.165377510155894"><ele>252.0</ele><time>2026-03-28T15:20:29.012Z</time></trkpt><trkpt lat="45.06488809725414" lon="8.165392649181642"><ele>250.0</ele><time>2026-03-28T15:20:30.012Z</time></trkpt><trkpt lat="45.0647410025027" lon="8.165385546854287"><ele>248.0</ele><time>2026-03-28T15:20:31.012Z</time></trkpt><trkpt lat="45.06461594942196" lon="8.165329918430551"><ele>246.0</ele><time>2026-03-28T15:20:32.012Z</time></trkpt><trkpt lat="45.064511564898815" lon="8.165277787172569"><ele>246.0</ele><time>2026-03-28T15:20:33.012Z</time></trkpt><trkpt lat="45.06442036677834" lon="8.165248346635535"><ele>246.0</ele><time>2026-03-28T15:20:34.012Z</time></trkpt><trkpt lat="45.06434336178096" lon="8.165266246855886"><ele>246.0</ele><time>2026-03-28T15:20:35.012Z</time></trkpt><trkpt lat="45.0642952336488" lon="8.16532870108324"><ele>246.0</ele><time>2026-03-28T15:20:36.012Z</time></trkpt><trkpt lat="45.06427110059145" lon="8.165423328522266"><ele>246.0</ele><time>2026-03-28T15:20:37.012Z</time></trkpt><trkpt lat="45.06429431896869" lon="8.165528536521865"><ele>246.0</ele><time>2026-03-28T15:20:38.012Z</time></trkpt><trkpt lat="45.064361736926266" lon="8.165627398532342"><ele>243.5</ele><time>2026-03-28T15:20:39.012Z</time></trkpt><trkpt lat="45.06445509750042" lon="8.165728425882744"><ele>241.0</ele><time>2026-03-28T15:20:40.012Z</time></trkpt><trkpt lat="45.064566040187785" lon="8.165841044973718"><ele>238.5</ele><time>2026-03-28T15:20:41.012Z</time></trkpt><trkpt lat="45.06467416290358" lon="8.16595230532186"><ele>236.0</ele><time>2026-03-28T15:20:42.012Z</time></trkpt><trkpt lat="45.064761065824534" lon="8.166051314846623"><ele>236.00000000000003</ele><time>2026-03-28T15:20:43.012Z</time></trkpt><trkpt lat="45.064829689868034" lon="8.166149964381106"><ele>236.0</ele><time>2026-03-28T15:20:44.012Z</time></trkpt><trkpt lat="45.06486582972963" lon="8.166264033681548"><ele>236.0</ele><time>2026-03-28T15:20:45.012Z</time></trkpt><trkpt lat="45.064864314887565" lon="8.16638334497561"><ele>236.0</ele><time>2026-03-28T15:20:46.012Z</time></trkpt><trkpt lat="45.064817900122605" lon="8.166485861099986"><ele>236.00000000000003</ele><time>2026-03-28T15:20:47.012Z</time></trkpt><trkpt lat="45.064741259784505" lon="8.16654586407629"><ele>236.0</ele><time>2026-03-28T15:20:48.012Z</time></trkpt><trkpt lat="45.06463710919945" lon="8.166553446903688"><ele>236.0</ele><time>2026-03-28T15:20:49.012Z</time></trkpt><trkpt lat="45.06451488026701" lon="8.16647682455967"><ele>236.0</ele><time>2026-03-28T15:20:50.012Z</time></trkpt><trkpt lat="45.06439946633429" lon="8.166352670170564"><ele>236.0</ele><time>2026-03-28T15:20:51.012Z</time></trkpt><trkpt lat="45.06428108752032" lon="8.166207136809797"><ele>236.0</ele><time>2026-03-28T15:20:52.012Z</time></trkpt><trkpt lat="45.06414911499402" lon="8.166066864584673"><ele>234.0</ele><time>2026-03-28T15:20:53.012Z</time></trkpt><trkpt lat="45.064000886831494" lon="8.16594573606702"><ele>232.0</ele><time>2026-03-28T15:20:54.012Z</time></trkpt><trkpt lat="45.063825664345245" lon="8.165837480272522"><ele>230.0</ele><time>2026-03-28T15:20:55.012Z</time></trkpt><trkpt lat="45.06365686183713" lon="8.165737308474231"><ele>228.66666666666669</ele><time>2026-03-28T15:20:56.012Z</time></trkpt><trkpt lat="45.06349416381535" lon="8.165641778827377"><ele>227.33333333333331</ele><time>2026-03-28T15:20:57.012Z</time></trkpt><trkpt lat="45.06333897184539" lon="8.165551485412822"><ele>226.0</ele><time>2026-03-28T15:20:58.012Z</time></trkpt><trkpt lat="45.063193971801844" lon="8.165472651324952"><ele>226.0</ele><time>2026-03-28T15:20:59.012Z</time></trkpt><trkpt lat="45.063056568192074" lon="8.16539703217562"><ele>226.0</ele><time>2026-03-28T15:21:00.013Z</time></trkpt><trkpt lat="45.06293132829949" lon="8.165356284140469"><ele>226.0</ele><time>2026-03-28T15:21:01.013Z</time></trkpt><trkpt lat="45.06281281756661" lon="8.16534168976013"><ele>226.0</ele><time>2026-03-28T15:21:02.013Z</time></trkpt><trkpt lat="45.06270995305114" lon="8.165377451592374"><ele>226.0</ele><time>2026-03-28T15:21:03.013Z</time></trkpt><trkpt lat="45.06262056803762" lon="8.165450269371796"><ele>226.00000000000003</ele><time>2026-03-28T15:21:04.013Z</time></trkpt><trkpt lat="45.06255900743115" lon="8.16556146562267"><ele>226.00000000000003</ele><time>2026-03-28T15:21:05.013Z</time></trkpt><trkpt lat="45.06252504899771" lon="8.16570021018806"><ele>226.0</ele><time>2026-03-28T15:21:06.013Z</time></trkpt><trkpt lat="45.06247861440796" lon="8.165837291908009"><ele>226.0</ele><time>2026-03-28T15:21:07.013Z</time></trkpt><trkpt lat="45.06239861485959" lon="8.165935939340546"><ele>224.75</ele><time>2026-03-28T15:21:08.013Z</time></trkpt><trkpt lat="45.062290619265525" lon="8.166007471800963"><ele>223.5</ele><time>2026-03-28T15:21:09.013Z</time></trkpt><trkpt lat="45.06216658598116" lon="8.16602424133511"><ele>222.25</ele><time>2026-03-28T15:21:10.013Z</time></trkpt><trkpt lat="45.06203263967323" lon="8.165996921450315"><ele>221.0</ele><time>2026-03-28T15:21:11.013Z</time></trkpt><trkpt lat="45.0618964753115" lon="8.165955489740561"><ele>221.0</ele><time>2026-03-28T15:21:12.013Z</time></trkpt><trkpt lat="45.061745886146085" lon="8.165913944827137"><ele>221.0</ele><time>2026-03-28T15:21:13.013Z</time></trkpt><trkpt lat="45.06158985995962" lon="8.165878203993866"><ele>221.0</ele><time>2026-03-28T15:21:14.013Z</time></trkpt><trkpt lat="45.061431276566836" lon="8.165845368237191"><ele>220.0</ele><time>2026-03-28T15:21:15.013Z</time></trkpt><trkpt lat="45.061266868612094" lon="8.165813885602336"><ele>219.0</ele><time>2026-03-28T15:21:16.013Z</time></trkpt><trkpt lat="45.061095042737826" lon="8.16576954255642"><ele>218.0</ele><time>2026-03-28T15:21:17.013Z</time></trkpt><trkpt lat="45.06092578192286" lon="8.16570570577799"><ele>219.33333333333334</ele><time>2026-03-28T15:21:18.013Z</time></trkpt><trkpt lat="45.06076658982994" lon="8.16562307356697"><ele>220.66666666666669</ele><time>2026-03-28T15:21:19.013Z</time></trkpt><trkpt lat="45.06062391458835" lon="8.165509957324907"><ele>222.0</ele><time>2026-03-28T15:21:20.013Z</time></trkpt><trkpt lat="45.060503350180454" lon="8.165360180000032"><ele>222.0</ele><time>2026-03-28T15:21:21.013Z</time></trkpt><trkpt lat="45.06038492514758" lon="8.165189676470378"><ele>222.0</ele><time>2026-03-28T15:21:22.013Z</time></trkpt><trkpt lat="45.06026456163175" lon="8.165023382062117"><ele>222.0</ele><time>2026-03-28T15:21:23.013Z</time></trkpt><trkpt lat="45.06012943650945" lon="8.164877259447914"><ele>223.66666666666669</ele><time>2026-03-28T15:21:24.013Z</time></trkpt><trkpt lat="45.05998583599399" lon="8.164756218024847"><ele>225.33333333333334</ele><time>2026-03-28T15:21:25.013Z</time></trkpt><trkpt lat="45.05983730954134" lon="8.164649417146906"><ele>227.0</ele><time>2026-03-28T15:21:26.013Z</time></trkpt><trkpt lat="45.059690802903305" lon="8.164547109230188"><ele>227.0</ele><time>2026-03-28T15:21:27.013Z</time></trkpt><trkpt lat="45.05955179908654" lon="8.164446411753733"><ele>227.0</ele><time>2026-03-28T15:21:28.013Z</time></trkpt><trkpt lat="45.05941416999135" lon="8.16433883259063"><ele>227.0</ele><time>2026-03-28T15:21:29.013Z</time></trkpt><trkpt lat="45.05928911993443" lon="8.164241229063839"><ele>227.0</ele><time>2026-03-28T15:21:30.013Z</time></trkpt><trkpt lat="45.05918372202564" lon="8.164161139632776"><ele>227.0</ele><time>2026-03-28T15:21:31.013Z</time></trkpt><trkpt lat="45.05908837018947" lon="8.164113206054733"><ele>227.0</ele><time>2026-03-28T15:21:32.013Z</time></trkpt><trkpt lat="45.05900168104166" lon="8.164101525212223"><ele>227.0</ele><time>2026-03-28T15:21:33.013Z</time></trkpt><trkpt lat="45.05892787141399" lon="8.164129792318324"><ele>227.0</ele><time>2026-03-28T15:21:34.013Z</time></trkpt><trkpt lat="45.058871593522184" lon="8.164196371124824"><ele>229.2</ele><time>2026-03-28T15:21:35.013Z</time></trkpt><trkpt lat="45.058843499565185" lon="8.1643038952977"><ele>231.39999999999998</ele><time>2026-03-28T15:21:36.013Z</time></trkpt><trkpt lat="45.05884709648311" lon="8.164442934122663"><ele>233.60000000000002</ele><time>2026-03-28T15:21:37.013Z</time></trkpt><trkpt lat="45.05887794049633" lon="8.164594829545191"><ele>235.8</ele><time>2026-03-28T15:21:38.013Z</time></trkpt><trkpt lat="45.05893620988762" lon="8.164751653353308"><ele>238.0</ele><time>2026-03-28T15:21:39.013Z</time></trkpt><trkpt lat="45.0590124978003" lon="8.16492046058534"><ele>237.0</ele><time>2026-03-28T15:21:40.013Z</time></trkpt><trkpt lat="45.05909528691082" lon="8.165101318504657"><ele>236.0</ele><time>2026-03-28T15:21:41.013Z</time></trkpt><trkpt lat="45.059182236048485" lon="8.165278651087174"><ele>235.0</ele><time>2026-03-28T15:21:42.013Z</time></trkpt><trkpt lat="45.059267382653374" lon="8.165455542472097"><ele>235.0</ele><time>2026-03-28T15:21:43.013Z</time></trkpt><trkpt lat="45.059354622028074" lon="8.165642500657109"><ele>235.0</ele><time>2026-03-28T15:21:44.013Z</time></trkpt><trkpt lat="45.05944012688879" lon="8.165825091125626"><ele>235.0</ele><time>2026-03-28T15:21:45.013Z</time></trkpt><trkpt lat="45.05952152055313" lon="8.166002751330005"><ele>237.0</ele><time>2026-03-28T15:21:46.013Z</time></trkpt><trkpt lat="45.05959342114085" lon="8.166188536045118"><ele>239.0</ele><time>2026-03-28T15:21:47.013Z</time></trkpt><trkpt lat="45.059649916361295" lon="8.166382971852773"><ele>241.0</ele><time>2026-03-28T15:21:48.013Z</time></trkpt><trkpt lat="45.05969613695742" lon="8.166583933032866"><ele>243.0</ele><time>2026-03-28T15:21:49.013Z</time></trkpt><trkpt lat="45.05973489052678" lon="8.166784755788859"><ele>243.0</ele><time>2026-03-28T15:21:50.013Z</time></trkpt><trkpt lat="45.05977278325068" lon="8.166961880535514"><ele>243.0</ele><time>2026-03-28T15:21:51.013Z</time></trkpt><trkpt lat="45.05980283325936" lon="8.167118249861636"><ele>243.0</ele><time>2026-03-28T15:21:52.013Z</time></trkpt><trkpt lat="45.05981772559851" lon="8.167258976191045"><ele>243.0</ele><time>2026-03-28T15:21:53.013Z</time></trkpt><trkpt lat="45.059820226559275" lon="8.16738315610424"><ele>243.0</ele><time>2026-03-28T15:21:54.013Z</time></trkpt><trkpt lat="45.05980193773913" lon="8.167483054013369"><ele>243.0</ele><time>2026-03-28T15:21:55.013Z</time></trkpt><trkpt lat="45.059763301242775" lon="8.167554480490006"><ele>243.0</ele><time>2026-03-28T15:21:56.013Z</time></trkpt><trkpt lat="45.059726188605126" lon="8.167639115535245"><ele>243.0</ele><time>2026-03-28T15:21:57.013Z</time></trkpt><trkpt lat="45.05970482927175" lon="8.167738153569589"><ele>243.0</ele><time>2026-03-28T15:21:58.013Z</time></trkpt><trkpt lat="45.059698485887424" lon="8.167848589803468"><ele>243.0</ele><time>2026-03-28T15:21:59.013Z</time></trkpt><trkpt lat="45.05971670386133" lon="8.167972747385399"><ele>243.0</ele><time>2026-03-28T15:22:00.013Z</time></trkpt><trkpt lat="45.05975924479233" lon="8.16809677269716"><ele>242.75</ele><time>2026-03-28T15:22:01.013Z</time></trkpt><trkpt lat="45.059814365718225" lon="8.168225095686612"><ele>242.5</ele><time>2026-03-28T15:22:02.013Z</time></trkpt><trkpt lat="45.05987210472657" lon="8.168356494353963"><ele>242.25</ele><time>2026-03-28T15:22:03.013Z</time></trkpt><trkpt lat="45.05992210696089" lon="8.168514733646374"><ele>242.0</ele><time>2026-03-28T15:22:04.013Z</time></trkpt><trkpt lat="45.05993917777143" lon="8.168675454309103"><ele>242.0</ele><time>2026-03-28T15:22:05.013Z</time></trkpt><trkpt lat="45.05993042748304" lon="8.168810335251436"><ele>242.0</ele><time>2026-03-28T15:22:06.013Z</time></trkpt><trkpt lat="45.059891161687425" lon="8.168930552574112"><ele>242.0</ele><time>2026-03-28T15:22:07.013Z</time></trkpt><trkpt lat="45.05984296829881" lon="8.169073747393627"><ele>242.0</ele><time>2026-03-28T15:22:08.013Z</time></trkpt><trkpt lat="45.059781520210244" lon="8.169234992982908"><ele>242.0</ele><time>2026-03-28T15:22:09.013Z</time></trkpt><trkpt lat="45.0597257168151" lon="8.169421304889772"><ele>242.33333333333334</ele><time>2026-03-28T15:22:10.013Z</time></trkpt><trkpt lat="45.05967024982754" lon="8.169632910904353"><ele>242.66666666666669</ele><time>2026-03-28T15:22:11.013Z</time></trkpt><trkpt lat="45.0596060556431" lon="8.169842221973335"><ele>243.0</ele><time>2026-03-28T15:22:12.013Z</time></trkpt><trkpt lat="45.059542267349904" lon="8.170052007537745"><ele>244.66666666666669</ele><time>2026-03-28T15:22:13.013Z</time></trkpt><trkpt lat="45.059478136380754" lon="8.170274594910993"><ele>246.33333333333334</ele><time>2026-03-28T15:22:14.013Z</time></trkpt><trkpt lat="45.05940706687466" lon="8.170496351362525"><ele>248.0</ele><time>2026-03-28T15:22:15.013Z</time></trkpt><trkpt lat="45.05933010684743" lon="8.17070890757662"><ele>249.66666666666669</ele><time>2026-03-28T15:22:16.013Z</time></trkpt><trkpt lat="45.05925957338652" lon="8.170915174740538"><ele>251.33333333333331</ele><time>2026-03-28T15:22:17.013Z</time></trkpt><trkpt lat="45.05919891735318" lon="8.171109872938597"><ele>253.0</ele><time>2026-03-28T15:22:18.013Z</time></trkpt><trkpt lat="45.05913319345227" lon="8.171282581019375"><ele>253.75</ele><time>2026-03-28T15:22:19.013Z</time></trkpt><trkpt lat="45.05904872615351" lon="8.171417557565858"><ele>254.5</ele><time>2026-03-28T15:22:20.013Z</time></trkpt><trkpt lat="45.05893583559952" lon="8.171522217872157"><ele>255.25</ele><time>2026-03-28T15:22:21.013Z</time></trkpt><trkpt lat="45.05880527717797" lon="8.171597480064344"><ele>256.0</ele><time>2026-03-28T15:22:22.013Z</time></trkpt><trkpt lat="45.05865299183101" lon="8.171655982061711"><ele>256.0</ele><time>2026-03-28T15:22:23.013Z</time></trkpt><trkpt lat="45.058486386371065" lon="8.17171415816864"><ele>256.0</ele><time>2026-03-28T15:22:24.013Z</time></trkpt><trkpt lat="45.05831719539506" lon="8.171787153698611"><ele>256.0</ele><time>2026-03-28T15:22:25.013Z</time></trkpt><trkpt lat="45.058156571734386" lon="8.17187054826275"><ele>255.25</ele><time>2026-03-28T15:22:26.014Z</time></trkpt><trkpt lat="45.05801023079396" lon="8.171942268487555"><ele>254.5</ele><time>2026-03-28T15:22:27.014Z</time></trkpt><trkpt lat="45.0578789767991" lon="8.172005492575243"><ele>253.75</ele><time>2026-03-28T15:22:28.014Z</time></trkpt><trkpt lat="45.057756815653065" lon="8.172068723311408"><ele>253.0</ele><time>2026-03-28T15:22:29.014Z</time></trkpt><trkpt lat="45.05765180667345" lon="8.172145039712031"><ele>253.0</ele><time>2026-03-28T15:22:30.014Z</time></trkpt><trkpt lat="45.05757162830357" lon="8.172248505684"><ele>253.0</ele><time>2026-03-28T15:22:31.014Z</time></trkpt><trkpt lat="45.05751912401343" lon="8.172393516410057"><ele>253.0</ele><time>2026-03-28T15:22:32.014Z</time></trkpt><trkpt lat="45.0574839247213" lon="8.172582759693176"><ele>253.0</ele><time>2026-03-28T15:22:33.014Z</time></trkpt><trkpt lat="45.057442949469646" lon="8.17278757704683"><ele>253.0</ele><time>2026-03-28T15:22:34.014Z</time></trkpt><trkpt lat="45.05737096004772" lon="8.172989993155104"><ele>253.0</ele><time>2026-03-28T15:22:35.014Z</time></trkpt><trkpt lat="45.05727197601717" lon="8.173182994544867"><ele>253.0</ele><time>2026-03-28T15:22:36.014Z</time></trkpt><trkpt lat="45.05716322079613" lon="8.17336594819976"><ele>253.0</ele><time>2026-03-28T15:22:37.014Z</time></trkpt><trkpt lat="45.05704004314906" lon="8.173552245535445"><ele>253.0</ele><time>2026-03-28T15:22:38.014Z</time></trkpt><trkpt lat="45.05691315150392" lon="8.17375309530488"><ele>253.0</ele><time>2026-03-28T15:22:39.014Z</time></trkpt><trkpt lat="45.056790863774275" lon="8.173962579148284"><ele>252.33333333333331</ele><time>2026-03-28T15:22:40.014Z</time></trkpt><trkpt lat="45.056681995972994" lon="8.174160101957765"><ele>251.66666666666669</ele><time>2026-03-28T15:22:41.014Z</time></trkpt><trkpt lat="45.05657627538401" lon="8.17434355053512"><ele>251.0</ele><time>2026-03-28T15:22:42.014Z</time></trkpt><trkpt lat="45.056478852503254" lon="8.174511946286119"><ele>251.0</ele><time>2026-03-28T15:22:43.014Z</time></trkpt><trkpt lat="45.05639262663465" lon="8.174668104869882"><ele>251.0</ele><time>2026-03-28T15:22:44.014Z</time></trkpt><trkpt lat="45.05631403048283" lon="8.174805740536035"><ele>251.0</ele><time>2026-03-28T15:22:45.014Z</time></trkpt><trkpt lat="45.05622488675372" lon="8.17490975039609"><ele>251.0</ele><time>2026-03-28T15:22:46.014Z</time></trkpt><trkpt lat="45.056123848546314" lon="8.174975193830182"><ele>251.0</ele><time>2026-03-28T15:22:47.014Z</time></trkpt><trkpt lat="45.05600872252065" lon="8.174972273081844"><ele>251.0</ele><time>2026-03-28T15:22:48.014Z</time></trkpt><trkpt lat="45.05590714171649" lon="8.174920618350999"><ele>251.0</ele><time>2026-03-28T15:22:49.014Z</time></trkpt><trkpt lat="45.055798473924696" lon="8.174815918068658"><ele>251.0</ele><time>2026-03-28T15:22:50.014Z</time></trkpt><trkpt lat="45.0556786572517" lon="8.174689011550576"><ele>254.0</ele><time>2026-03-28T15:22:51.014Z</time></trkpt><trkpt lat="45.05554612900188" lon="8.174549757400534"><ele>257.0</ele><time>2026-03-28T15:22:52.014Z</time></trkpt><trkpt lat="45.0554141473169" lon="8.174443600308736"><ele>260.0</ele><time>2026-03-28T15:22:53.014Z</time></trkpt><trkpt lat="45.05528753060752" lon="8.174324996997358"><ele>260.0</ele><time>2026-03-28T15:22:54.014Z</time></trkpt><trkpt lat="45.05517327231731" lon="8.17418152813017"><ele>260.0</ele><time>2026-03-28T15:22:55.014Z</time></trkpt><trkpt lat="45.055070828683036" lon="8.17400227910323"><ele>260.0</ele><time>2026-03-28T15:22:56.014Z</time></trkpt><trkpt lat="45.054974481421006" lon="8.173818006025472"><ele>258.0</ele><time>2026-03-28T15:22:57.014Z</time></trkpt><trkpt lat="45.05488410919137" lon="8.173646462922791"><ele>256.0</ele><time>2026-03-28T15:22:58.014Z</time></trkpt><trkpt lat="45.05479964044944" lon="8.173489594500621"><ele>254.0</ele><time>2026-03-28T15:22:59.014Z</time></trkpt><trkpt lat="45.054712923332936" lon="8.1733573800337"><ele>252.0</ele><time>2026-03-28T15:23:00.014Z</time></trkpt><trkpt lat="45.05462628426117" lon="8.17328420289926"><ele>252.0</ele><time>2026-03-28T15:23:01.014Z</time></trkpt><trkpt lat="45.05453152860217" lon="8.173272578458047"><ele>252.0</ele><time>2026-03-28T15:23:02.014Z</time></trkpt><trkpt lat="45.05442023341529" lon="8.173318818276302"><ele>252.0</ele><time>2026-03-28T15:23:03.014Z</time></trkpt><trkpt lat="45.054295023788015" lon="8.173402579239893"><ele>252.0</ele><time>2026-03-28T15:23:04.014Z</time></trkpt><trkpt lat="45.054175044832256" lon="8.173492564259526"><ele>251.0</ele><time>2026-03-28T15:23:05.014Z</time></trkpt><trkpt lat="45.05407359946686" lon="8.173586242938434"><ele>250.0</ele><time>2026-03-28T15:23:05.998Z</time></trkpt><trkpt lat="45.05398927723519" lon="8.173722352429461"><ele>249.0</ele><time>2026-03-28T15:23:06.999Z</time></trkpt><trkpt lat="45.053919029898495" lon="8.173906382958203"><ele>248.0</ele><time>2026-03-28T15:23:07.999Z</time></trkpt><trkpt lat="45.05386852434778" lon="8.174139080003833"><ele>248.0</ele><time>2026-03-28T15:23:08.999Z</time></trkpt><trkpt lat="45.05381046214933" lon="8.174345181070159"><ele>248.0</ele><time>2026-03-28T15:23:09.999Z</time></trkpt><trkpt lat="45.0537479354712" lon="8.174563347969455"><ele>248.0</ele><time>2026-03-28T15:23:10.999Z</time></trkpt><trkpt lat="45.05368753569356" lon="8.174795261148098"><ele>248.33333333333334</ele><time>2026-03-28T15:23:11.999Z</time></trkpt><trkpt lat="45.05363107570041" lon="8.175038540683753"><ele>248.66666666666669</ele><time>2026-03-28T15:23:12.999Z</time></trkpt><trkpt lat="45.053577164702716" lon="8.17529086312888"><ele>249.0</ele><time>2026-03-28T15:23:13.999Z</time></trkpt><trkpt lat="45.05352498154676" lon="8.175545327909528"><ele>249.0</ele><time>2026-03-28T15:23:14.999Z</time></trkpt><trkpt lat="45.05347134731332" lon="8.175808762992968"><ele>249.0</ele><time>2026-03-28T15:23:15.999Z</time></trkpt><trkpt lat="45.05341518685257" lon="8.176058095640526"><ele>249.0</ele><time>2026-03-28T15:23:16.999Z</time></trkpt><trkpt lat="45.05334863572641" lon="8.176289383537624"><ele>247.66666666666669</ele><time>2026-03-28T15:23:17.999Z</time></trkpt><trkpt lat="45.053279634225106" lon="8.17650732831198"><ele>246.33333333333334</ele><time>2026-03-28T15:23:18.999Z</time></trkpt><trkpt lat="45.05322002356823" lon="8.1767224419926"><ele>245.0</ele><time>2026-03-28T15:23:19.999Z</time></trkpt><trkpt lat="45.05317240404141" lon="8.176930784321293"><ele>245.0</ele><time>2026-03-28T15:23:20.999Z</time></trkpt><trkpt lat="45.053141409401405" lon="8.177132073931016"><ele>245.0</ele><time>2026-03-28T15:23:21.999Z</time></trkpt><trkpt lat="45.05313606060648" lon="8.177306670768496"><ele>245.0</ele><time>2026-03-28T15:23:22.999Z</time></trkpt><trkpt lat="45.0531635938335" lon="8.177480452887005"><ele>245.0</ele><time>2026-03-28T15:23:23.999Z</time></trkpt><trkpt lat="45.05321623311888" lon="8.17763966987953"><ele>246.5</ele><time>2026-03-28T15:23:24.999Z</time></trkpt><trkpt lat="45.05329643728919" lon="8.177782401921318"><ele>248.0</ele><time>2026-03-28T15:23:25.999Z</time></trkpt><trkpt lat="45.05340204992192" lon="8.177901429749895"><ele>249.5</ele><time>2026-03-28T15:23:26.999Z</time></trkpt><trkpt lat="45.053486404077226" lon="8.178012366358539"><ele>251.0</ele><time>2026-03-28T15:23:27.999Z</time></trkpt><trkpt lat="45.0535247072356" lon="8.17814022953475"><ele>250.8</ele><time>2026-03-28T15:23:28.999Z</time></trkpt><trkpt lat="45.0535138413406" lon="8.178267995375748"><ele>250.60000000000002</ele><time>2026-03-28T15:23:29.999Z</time></trkpt><trkpt lat="45.05345639058087" lon="8.17837948824339"><ele>250.4</ele><time>2026-03-28T15:23:30.999Z</time></trkpt><trkpt lat="45.05336049995445" lon="8.178464632392682"><ele>250.2</ele><time>2026-03-28T15:23:31.999Z</time></trkpt><trkpt lat="45.0532375012046" lon="8.178551123134568"><ele>250.0</ele><time>2026-03-28T15:23:32.999Z</time></trkpt><trkpt lat="45.053111149950695" lon="8.178652727845035"><ele>245.66666666666666</ele><time>2026-03-28T15:23:33.999Z</time></trkpt><trkpt lat="45.052980700940985" lon="8.17875969341033"><ele>241.33333333333331</ele><time>2026-03-28T15:23:34.999Z</time></trkpt><trkpt lat="45.05284710593352" lon="8.178872423929148"><ele>237.0</ele><time>2026-03-28T15:23:35.999Z</time></trkpt><trkpt lat="45.052717550978" lon="8.178974953206497"><ele>236.25</ele><time>2026-03-28T15:23:36.999Z</time></trkpt><trkpt lat="45.05259299124031" lon="8.179063645628313"><ele>235.5</ele><time>2026-03-28T15:23:37.999Z</time></trkpt><trkpt lat="45.052472134282766" lon="8.179141977008653"><ele>234.75</ele><time>2026-03-28T15:23:38.999Z</time></trkpt><trkpt lat="45.05236666474235" lon="8.179227649459724"><ele>234.0</ele><time>2026-03-28T15:23:39.999Z</time></trkpt><trkpt lat="45.05228173570394" lon="8.179340327439933"><ele>234.0</ele><time>2026-03-28T15:23:40.999Z</time></trkpt><trkpt lat="45.052225862078345" lon="8.179468765415194"><ele>233.99999999999997</ele><time>2026-03-28T15:23:41.999Z</time></trkpt><trkpt lat="45.05219344661642" lon="8.179620606297378"><ele>233.99999999999997</ele><time>2026-03-28T15:23:42.999Z</time></trkpt><trkpt lat="45.05214837400373" lon="8.179768144262843"><ele>234.0</ele><time>2026-03-28T15:23:43.999Z</time></trkpt><trkpt lat="45.05209176384734" lon="8.179901575223447"><ele>234.0</ele><time>2026-03-28T15:23:44.999Z</time></trkpt><trkpt lat="45.052018724559446" lon="8.18001589298333"><ele>236.0</ele><time>2026-03-28T15:23:45.999Z</time></trkpt><trkpt lat="45.05191590734991" lon="8.180093552612487"><ele>238.0</ele><time>2026-03-28T15:23:46.999Z</time></trkpt><trkpt lat="45.051800051226834" lon="8.18015842566229"><ele>240.0</ele><time>2026-03-28T15:23:47.999Z</time></trkpt><trkpt lat="45.05168484344956" lon="8.180211027324852"><ele>242.0</ele><time>2026-03-28T15:23:48.999Z</time></trkpt><trkpt lat="45.051579769417245" lon="8.180256575426622"><ele>242.0</ele><time>2026-03-28T15:23:49.999Z</time></trkpt><trkpt lat="45.051493102419315" lon="8.180292857026565"><ele>241.99999999999997</ele><time>2026-03-28T15:23:50.999Z</time></trkpt><trkpt lat="45.0514233045887" lon="8.180344549763836"><ele>242.0</ele><time>2026-03-28T15:23:51.997Z</time></trkpt><trkpt lat="45.05136585034851" lon="8.180407201775498"><ele>242.0</ele><time>2026-03-28T15:23:52.997Z</time></trkpt><trkpt lat="45.051331215278395" lon="8.180483414188325"><ele>241.99999999999997</ele><time>2026-03-28T15:23:53.997Z</time></trkpt><trkpt lat="45.05132453011807" lon="8.180577261442465"><ele>242.0</ele><time>2026-03-28T15:23:54.997Z</time></trkpt><trkpt lat="45.05133865173936" lon="8.180677915505658"><ele>242.0</ele><time>2026-03-28T15:23:55.998Z</time></trkpt><trkpt lat="45.05135630626475" lon="8.180784503916064"><ele>242.8</ele><time>2026-03-28T15:23:56.998Z</time></trkpt><trkpt lat="45.05138641521964" lon="8.180903004137935"><ele>243.6</ele><time>2026-03-28T15:23:57.998Z</time></trkpt><trkpt lat="45.05142906816602" lon="8.181026840625597"><ele>244.40000000000003</ele><time>2026-03-28T15:23:58.997Z</time></trkpt><trkpt lat="45.051488890543055" lon="8.181164173826271"><ele>245.20000000000002</ele><time>2026-03-28T15:23:59.997Z</time></trkpt><trkpt lat="45.05157277771059" lon="8.181298590424378"><ele>246.0</ele><time>2026-03-28T15:24:00.997Z</time></trkpt><trkpt lat="45.051678573936776" lon="8.181401621397535"><ele>246.25</ele><time>2026-03-28T15:24:01.998Z</time></trkpt><trkpt lat="45.051794008100536" lon="8.181474331374305"><ele>246.5</ele><time>2026-03-28T15:24:02.998Z</time></trkpt><trkpt lat="45.05192640097136" lon="8.181541948786215"><ele>246.75</ele><time>2026-03-28T15:24:03.997Z</time></trkpt><trkpt lat="45.05206311057696" lon="8.181626136343212"><ele>247.0</ele><time>2026-03-28T15:24:04.997Z</time></trkpt><trkpt lat="45.05220871162884" lon="8.18171854992237"><ele>244.0</ele><time>2026-03-28T15:24:05.997Z</time></trkpt><trkpt lat="45.05236286027804" lon="8.181822053055324"><ele>241.0</ele><time>2026-03-28T15:24:06.997Z</time></trkpt><trkpt lat="45.052520536457436" lon="8.181923628559252"><ele>238.0</ele><time>2026-03-28T15:24:07.997Z</time></trkpt><trkpt lat="45.05267005820729" lon="8.182017237025846"><ele>238.0</ele><time>2026-03-28T15:24:08.997Z</time></trkpt><trkpt lat="45.05282282922931" lon="8.182101421929154"><ele>238.0</ele><time>2026-03-28T15:24:09.997Z</time></trkpt><trkpt lat="45.05298096095371" lon="8.182177117736561"><ele>238.0</ele><time>2026-03-28T15:24:10.997Z</time></trkpt><trkpt lat="45.053132455700585" lon="8.182243006452348"><ele>238.0</ele><time>2026-03-28T15:24:11.997Z</time></trkpt><trkpt lat="45.053273394999245" lon="8.182314767413402"><ele>238.0</ele><time>2026-03-28T15:24:12.997Z</time></trkpt><trkpt lat="45.053410843624384" lon="8.182391551008855"><ele>238.0</ele><time>2026-03-28T15:24:13.997Z</time></trkpt><trkpt lat="45.053536812475514" lon="8.182459471786022"><ele>238.0</ele><time>2026-03-28T15:24:14.997Z</time></trkpt><trkpt lat="45.053647117809895" lon="8.182521374202306"><ele>236.0</ele><time>2026-03-28T15:24:15.997Z</time></trkpt><trkpt lat="45.05374585687021" lon="8.182586540262774"><ele>234.0</ele><time>2026-03-28T15:24:16.997Z</time></trkpt><trkpt lat="45.05383130488603" lon="8.1826637309542"><ele>232.0</ele><time>2026-03-28T15:24:17.997Z</time></trkpt><trkpt lat="45.05389610493477" lon="8.182768934051841"><ele>230.0</ele><time>2026-03-28T15:24:18.997Z</time></trkpt><trkpt lat="45.05393077991685" lon="8.18290428231769"><ele>228.0</ele><time>2026-03-28T15:24:19.997Z</time></trkpt><trkpt lat="45.05393677446128" lon="8.183058588209718"><ele>227.25</ele><time>2026-03-28T15:24:20.998Z</time></trkpt><trkpt lat="45.05389500601354" lon="8.183223742732197"><ele>226.5</ele><time>2026-03-28T15:24:21.998Z</time></trkpt><trkpt lat="45.05381353388392" lon="8.183383706397116"><ele>225.75</ele><time>2026-03-28T15:24:22.998Z</time></trkpt><trkpt lat="45.05370283902403" lon="8.183536161151105"><ele>225.0</ele><time>2026-03-28T15:24:23.998Z</time></trkpt><trkpt lat="45.05357044849007" lon="8.18367145537039"><ele>225.0</ele><time>2026-03-28T15:24:24.998Z</time></trkpt><trkpt lat="45.05342718571529" lon="8.183789598998052"><ele>225.0</ele><time>2026-03-28T15:24:25.998Z</time></trkpt><trkpt lat="45.05327564189807" lon="8.183898263340243"><ele>225.0</ele><time>2026-03-28T15:24:26.998Z</time></trkpt><trkpt lat="45.053112184281" lon="8.184006522703326"><ele>224.33333333333331</ele><time>2026-03-28T15:24:27.998Z</time></trkpt><trkpt lat="45.05292813642475" lon="8.184081576044244"><ele>223.66666666666666</ele><time>2026-03-28T15:24:28.998Z</time></trkpt><trkpt lat="45.05274135921622" lon="8.184126608879364"><ele>223.0</ele><time>2026-03-28T15:24:29.998Z</time></trkpt><trkpt lat="45.05255032267304" lon="8.184160745988926"><ele>222.33333333333331</ele><time>2026-03-28T15:24:30.998Z</time></trkpt><trkpt lat="45.05236943485029" lon="8.184198644260597"><ele>221.66666666666669</ele><time>2026-03-28T15:24:31.998Z</time></trkpt><trkpt lat="45.05220120035734" lon="8.184234850214658"><ele>221.0</ele><time>2026-03-28T15:24:32.998Z</time></trkpt><trkpt lat="45.05203803079382" lon="8.18427007803426"><ele>221.0</ele><time>2026-03-28T15:24:33.998Z</time></trkpt><trkpt lat="45.051889952175856" lon="8.184298343164622"><ele>221.0</ele><time>2026-03-28T15:24:34.998Z</time></trkpt><trkpt lat="45.05176772429082" lon="8.184326086055645"><ele>221.0</ele><time>2026-03-28T15:24:35.998Z</time></trkpt><trkpt lat="45.051670902266565" lon="8.18437366701506"><ele>221.0</ele><time>2026-03-28T15:24:36.998Z</time></trkpt><trkpt lat="45.05160612612488" lon="8.184468372578545"><ele>221.8</ele><time>2026-03-28T15:24:37.998Z</time></trkpt><trkpt lat="45.05157680448009" lon="8.18458260116219"><ele>222.60000000000002</ele><time>2026-03-28T15:24:38.998Z</time></trkpt><trkpt lat="45.05157112125367" lon="8.184707397200365"><ele>223.4</ele><time>2026-03-28T15:24:39.998Z</time></trkpt><trkpt lat="45.05159720427241" lon="8.184826076861661"><ele>224.2</ele><time>2026-03-28T15:24:40.998Z</time></trkpt><trkpt lat="45.05165862667539" lon="8.18494545544003"><ele>225.0</ele><time>2026-03-28T15:24:41.998Z</time></trkpt><trkpt lat="45.05175042949373" lon="8.185035356769529"><ele>225.0</ele><time>2026-03-28T15:24:42.998Z</time></trkpt><trkpt lat="45.05185270459455" lon="8.185094053573042"><ele>225.0</ele><time>2026-03-28T15:24:43.998Z</time></trkpt><trkpt lat="45.05194425204613" lon="8.185168389923339"><ele>225.0</ele><time>2026-03-28T15:24:44.998Z</time></trkpt><trkpt lat="45.05199914498366" lon="8.185273846165812"><ele>225.0</ele><time>2026-03-28T15:24:45.998Z</time></trkpt><trkpt lat="45.052010406641266" lon="8.185393144014638"><ele>225.0</ele><time>2026-03-28T15:24:46.998Z</time></trkpt><trkpt lat="45.05198116784476" lon="8.185503764158458"><ele>225.0</ele><time>2026-03-28T15:24:47.998Z</time></trkpt><trkpt lat="45.051914132043976" lon="8.185604144498667"><ele>225.0</ele><time>2026-03-28T15:24:48.998Z</time></trkpt><trkpt lat="45.05182515959503" lon="8.185700867630766"><ele>225.0</ele><time>2026-03-28T15:24:49.998Z</time></trkpt><trkpt lat="45.0517368740818" lon="8.185819538405006"><ele>225.0</ele><time>2026-03-28T15:24:50.998Z</time></trkpt><trkpt lat="45.05164646328943" lon="8.185955989616932"><ele>225.5</ele><time>2026-03-28T15:24:51.998Z</time></trkpt><trkpt lat="45.05154743224041" lon="8.186095876829269"><ele>226.0</ele><time>2026-03-28T15:24:52.998Z</time></trkpt><trkpt lat="45.05144189474267" lon="8.186237844645401"><ele>226.5</ele><time>2026-03-28T15:24:53.998Z</time></trkpt><trkpt lat="45.05133997581415" lon="8.186383827158071"><ele>227.0</ele><time>2026-03-28T15:24:54.998Z</time></trkpt><trkpt lat="45.05124189385619" lon="8.186527563487672"><ele>228.5</ele><time>2026-03-28T15:24:55.998Z</time></trkpt><trkpt lat="45.05115303192859" lon="8.186661443069992"><ele>230.0</ele><time>2026-03-28T15:24:56.998Z</time></trkpt><trkpt lat="45.05108114997694" lon="8.186789424406504"><ele>231.5</ele><time>2026-03-28T15:24:57.998Z</time></trkpt><trkpt lat="45.05103513630942" lon="8.186920814787328"><ele>233.0</ele><time>2026-03-28T15:24:58.998Z</time></trkpt><trkpt lat="45.05101918819946" lon="8.187061955295905"><ele>233.0</ele><time>2026-03-28T15:24:59.998Z</time></trkpt><trkpt lat="45.05103705768142" lon="8.187190622613034"><ele>233.0</ele><time>2026-03-28T15:25:00.998Z</time></trkpt><trkpt lat="45.05109320976124" lon="8.18730910081855"><ele>233.0</ele><time>2026-03-28T15:25:01.998Z</time></trkpt><trkpt lat="45.05117696105582" lon="8.18741656288635"><ele>233.0</ele><time>2026-03-28T15:25:02.998Z</time></trkpt><trkpt lat="45.051274339398944" lon="8.187491460378613"><ele>233.0</ele><time>2026-03-28T15:25:03.998Z</time></trkpt><trkpt lat="45.051390434015254" lon="8.187518792440105"><ele>235.0</ele><time>2026-03-28T15:25:04.998Z</time></trkpt><trkpt lat="45.05152183065202" lon="8.187502928700955"><ele>237.0</ele><time>2026-03-28T15:25:05.998Z</time></trkpt><trkpt lat="45.05166924008602" lon="8.187469229162662"><ele>239.0</ele><time>2026-03-28T15:25:06.998Z</time></trkpt><trkpt lat="45.05182651055398" lon="8.187431535503016"><ele>241.0</ele><time>2026-03-28T15:25:07.998Z</time></trkpt><trkpt lat="45.051996182568416" lon="8.187397528638597"><ele>240.66666666666666</ele><time>2026-03-28T15:25:08.998Z</time></trkpt><trkpt lat="45.05216269136189" lon="8.187369465285268"><ele>240.33333333333331</ele><time>2026-03-28T15:25:09.998Z</time></trkpt><trkpt lat="45.05233822790163" lon="8.187338587031299"><ele>240.0</ele><time>2026-03-28T15:25:10.998Z</time></trkpt><trkpt lat="45.05251512041571" lon="8.187301277718923"><ele>241.66666666666669</ele><time>2026-03-28T15:25:11.998Z</time></trkpt><trkpt lat="45.05268423167379" lon="8.187257209011552"><ele>243.33333333333334</ele><time>2026-03-28T15:25:12.998Z</time></trkpt><trkpt lat="45.052833736660745" lon="8.187211860240915"><ele>245.0</ele><time>2026-03-28T15:25:13.998Z</time></trkpt><trkpt lat="45.05297213682266" lon="8.187177233369804"><ele>245.0</ele><time>2026-03-28T15:25:14.998Z</time></trkpt><trkpt lat="45.05309441829457" lon="8.187147262517904"><ele>245.0</ele><time>2026-03-28T15:25:15.998Z</time></trkpt><trkpt lat="45.05320978703137" lon="8.187121492344609"><ele>245.0</ele><time>2026-03-28T15:25:16.998Z</time></trkpt><trkpt lat="45.053318280101415" lon="8.187119890380034"><ele>245.0</ele><time>2026-03-28T15:25:17.998Z</time></trkpt><trkpt lat="45.053414927276386" lon="8.187171080725761"><ele>247.25</ele><time>2026-03-28T15:25:18.998Z</time></trkpt><trkpt lat="45.053493085133965" lon="8.187285611645336"><ele>249.5</ele><time>2026-03-28T15:25:19.998Z</time></trkpt><trkpt lat="45.053552041942744" lon="8.187434207244175"><ele>251.75</ele><time>2026-03-28T15:25:20.998Z</time></trkpt><trkpt lat="45.05359529657944" lon="8.18759331795565"><ele>254.0</ele><time>2026-03-28T15:25:21.998Z</time></trkpt><trkpt lat="45.053614499690106" lon="8.187751909566359"><ele>255.75</ele><time>2026-03-28T15:25:22.998Z</time></trkpt><trkpt lat="45.05360671142277" lon="8.187906338605117"><ele>257.5</ele><time>2026-03-28T15:25:23.998Z</time></trkpt><trkpt lat="45.05355502002198" lon="8.188049559515111"><ele>259.25</ele><time>2026-03-28T15:25:24.998Z</time></trkpt><trkpt lat="45.05345753428412" lon="8.188193479593192"><ele>261.0</ele><time>2026-03-28T15:25:25.998Z</time></trkpt><trkpt lat="45.05336801788315" lon="8.188343058154711"><ele>260.75</ele><time>2026-03-28T15:25:26.998Z</time></trkpt><trkpt lat="45.0532783807162" lon="8.188501345792892"><ele>260.5</ele><time>2026-03-28T15:25:27.998Z</time></trkpt><trkpt lat="45.053187614282564" lon="8.188657933617673"><ele>260.25</ele><time>2026-03-28T15:25:28.998Z</time></trkpt><trkpt lat="45.05309474759384" lon="8.188812936384803"><ele>260.0</ele><time>2026-03-28T15:25:29.998Z</time></trkpt><trkpt lat="45.05301562751177" lon="8.188959409801317"><ele>262.5</ele><time>2026-03-28T15:25:30.998Z</time></trkpt><trkpt lat="45.05294845315688" lon="8.189113388637187"><ele>265.0</ele><time>2026-03-28T15:25:31.998Z</time></trkpt><trkpt lat="45.05290637867133" lon="8.189278221095426"><ele>267.5</ele><time>2026-03-28T15:25:32.998Z</time></trkpt><trkpt lat="45.052890058558845" lon="8.18944659320538"><ele>270.0</ele><time>2026-03-28T15:25:33.998Z</time></trkpt><trkpt lat="45.05289435271906" lon="8.189621621043246"><ele>270.0</ele><time>2026-03-28T15:25:34.998Z</time></trkpt><trkpt lat="45.052886883646714" lon="8.189807882393152"><ele>270.0</ele><time>2026-03-28T15:25:35.998Z</time></trkpt><trkpt lat="45.05286739334364" lon="8.19000369216231"><ele>270.0</ele><time>2026-03-28T15:25:36.998Z</time></trkpt><trkpt lat="45.05283545654061" lon="8.190200503901064"><ele>270.0</ele><time>2026-03-28T15:25:37.998Z</time></trkpt><trkpt lat="45.052797867973084" lon="8.190389132867216"><ele>271.25</ele><time>2026-03-28T15:25:38.998Z</time></trkpt><trkpt lat="45.052758682474895" lon="8.19056346004185"><ele>272.5</ele><time>2026-03-28T15:25:39.998Z</time></trkpt><trkpt lat="45.05272933118861" lon="8.19073406106491"><ele>273.75</ele><time>2026-03-28T15:25:40.998Z</time></trkpt><trkpt lat="45.05270146249994" lon="8.190884396238898"><ele>275.0</ele><time>2026-03-28T15:25:41.998Z</time></trkpt><trkpt lat="45.05267914909424" lon="8.191016469268627"><ele>276.0</ele><time>2026-03-28T15:25:42.998Z</time></trkpt><trkpt lat="45.05265510240605" lon="8.191127136488507"><ele>277.0</ele><time>2026-03-28T15:25:43.998Z</time></trkpt><trkpt lat="45.05263618802885" lon="8.191222760074549"><ele>278.0</ele><time>2026-03-28T15:25:44.998Z</time></trkpt><trkpt lat="45.05260826346311" lon="8.191310696050557"><ele>279.0</ele><time>2026-03-28T15:25:46.998Z</time></trkpt><trkpt lat="45.05259084789352" lon="8.191401955280925"><ele>280.0</ele><time>2026-03-28T15:25:48.999Z</time></trkpt><trkpt lat="45.052539279568165" lon="8.19158273541399"><ele>281.0</ele><time>2026-03-28T15:25:50.999Z</time></trkpt><trkpt lat="45.05250903365868" lon="8.191707721806349"><ele>281.75</ele><time>2026-03-28T15:25:51.999Z</time></trkpt><trkpt lat="45.052472302763" lon="8.191853626736824"><ele>282.5</ele><time>2026-03-28T15:25:52.999Z</time></trkpt><trkpt lat="45.052442419117384" lon="8.192012955984255"><ele>283.25</ele><time>2026-03-28T15:25:53.999Z</time></trkpt><trkpt lat="45.052415060674406" lon="8.192185048543097"><ele>284.0</ele><time>2026-03-28T15:25:54.999Z</time></trkpt><trkpt lat="45.052390375812784" lon="8.192366938662385"><ele>280.75</ele><time>2026-03-28T15:25:55.999Z</time></trkpt><trkpt lat="45.0523712963575" lon="8.192564071407437"><ele>277.5</ele><time>2026-03-28T15:25:56.999Z</time></trkpt><trkpt lat="45.052358519198954" lon="8.192773120663114"><ele>274.25</ele><time>2026-03-28T15:25:57.998Z</time></trkpt><trkpt lat="45.05236009662313" lon="8.192992910546543"><ele>271.0</ele><time>2026-03-28T15:25:58.997Z</time></trkpt><trkpt lat="45.05237435280216" lon="8.19321899323869"><ele>269.0</ele><time>2026-03-28T15:25:59.997Z</time></trkpt><trkpt lat="45.05238814540394" lon="8.193447814846722"><ele>267.0</ele><time>2026-03-28T15:26:00.997Z</time></trkpt><trkpt lat="45.05238863162687" lon="8.193669285813183"><ele>265.0</ele><time>2026-03-28T15:26:01.997Z</time></trkpt><trkpt lat="45.052374825819335" lon="8.193884371933107"><ele>263.5</ele><time>2026-03-28T15:26:02.997Z</time></trkpt><trkpt lat="45.052356166457784" lon="8.194097077244859"><ele>262.0</ele><time>2026-03-28T15:26:03.997Z</time></trkpt><trkpt lat="45.05233569783834" lon="8.194306244254012"><ele>260.5</ele><time>2026-03-28T15:26:04.997Z</time></trkpt><trkpt lat="45.052301284407356" lon="8.194508428106703"><ele>259.0</ele><time>2026-03-28T15:26:05.997Z</time></trkpt><trkpt lat="45.052248853844965" lon="8.194700453919447"><ele>257.75</ele><time>2026-03-28T15:26:06.997Z</time></trkpt><trkpt lat="45.0521929820997" lon="8.194872016778222"><ele>256.5</ele><time>2026-03-28T15:26:07.997Z</time></trkpt><trkpt lat="45.05215541317973" lon="8.195042863182458"><ele>255.25</ele><time>2026-03-28T15:26:08.997Z</time></trkpt><trkpt lat="45.052151297923814" lon="8.19521542318253"><ele>254.0</ele><time>2026-03-28T15:26:09.997Z</time></trkpt><trkpt lat="45.05218245670456" lon="8.195380175122942"><ele>254.0</ele><time>2026-03-28T15:26:10.998Z</time></trkpt><trkpt lat="45.05223858886941" lon="8.195544038560545"><ele>254.0</ele><time>2026-03-28T15:26:11.998Z</time></trkpt><trkpt lat="45.05230204909935" lon="8.195724312239506"><ele>254.0</ele><time>2026-03-28T15:26:12.998Z</time></trkpt><trkpt lat="45.05235729255993" lon="8.195922556806561"><ele>254.0</ele><time>2026-03-28T15:26:13.998Z</time></trkpt><trkpt lat="45.05239153488437" lon="8.19612868786322"><ele>253.0</ele><time>2026-03-28T15:26:14.998Z</time></trkpt><trkpt lat="45.05239320008525" lon="8.196339055312706"><ele>252.0</ele><time>2026-03-28T15:26:15.998Z</time></trkpt><trkpt lat="45.052365486042596" lon="8.196547834480977"><ele>251.0</ele><time>2026-03-28T15:26:16.998Z</time></trkpt><trkpt lat="45.05230830441027" lon="8.196768275245708"><ele>251.0</ele><time>2026-03-28T15:26:17.998Z</time></trkpt><trkpt lat="45.05222547063224" lon="8.196990892290017"><ele>251.0</ele><time>2026-03-28T15:26:18.998Z</time></trkpt><trkpt lat="45.05212695679092" lon="8.197218155841911"><ele>251.0</ele><time>2026-03-28T15:26:19.998Z</time></trkpt><trkpt lat="45.05202084970749" lon="8.197449375369366"><ele>253.66666666666669</ele><time>2026-03-28T15:26:20.998Z</time></trkpt><trkpt lat="45.05191734794052" lon="8.19767112967002"><ele>256.3333333333333</ele><time>2026-03-28T15:26:21.998Z</time></trkpt><trkpt lat="45.051832317341514" lon="8.197880368207414"><ele>259.0</ele><time>2026-03-28T15:26:22.998Z</time></trkpt><trkpt lat="45.05175657154931" lon="8.198075054397599"><ele>260.25</ele><time>2026-03-28T15:26:23.998Z</time></trkpt><trkpt lat="45.05168278681126" lon="8.19826974435723"><ele>261.5</ele><time>2026-03-28T15:26:24.998Z</time></trkpt><trkpt lat="45.05161753907262" lon="8.198459008465171"><ele>262.75</ele><time>2026-03-28T15:26:25.998Z</time></trkpt><trkpt lat="45.05155892643074" lon="8.198634325235737"><ele>264.0</ele><time>2026-03-28T15:26:26.998Z</time></trkpt><trkpt lat="45.05150084352949" lon="8.198795972080978"><ele>264.0</ele><time>2026-03-28T15:26:27.998Z</time></trkpt><trkpt lat="45.05143856112662" lon="8.198952227129478"><ele>264.0</ele><time>2026-03-28T15:26:28.998Z</time></trkpt><trkpt lat="45.05137895112399" lon="8.199104842575094"><ele>264.0</ele><time>2026-03-28T15:26:29.998Z</time></trkpt><trkpt lat="45.05133109595196" lon="8.199264068388308"><ele>264.0</ele><time>2026-03-28T15:26:30.998Z</time></trkpt><trkpt lat="45.051293318415446" lon="8.19943719645882"><ele>264.5</ele><time>2026-03-28T15:26:31.998Z</time></trkpt><trkpt lat="45.05125523990962" lon="8.199620389591649"><ele>265.0</ele><time>2026-03-28T15:26:32.998Z</time></trkpt><trkpt lat="45.05121713042777" lon="8.199816453759402"><ele>265.5</ele><time>2026-03-28T15:26:33.998Z</time></trkpt><trkpt lat="45.05117601344099" lon="8.20001821784018"><ele>266.0</ele><time>2026-03-28T15:26:34.998Z</time></trkpt><trkpt lat="45.05113413997852" lon="8.200229733034625"><ele>266.0</ele><time>2026-03-28T15:26:35.998Z</time></trkpt><trkpt lat="45.051086039729746" lon="8.200443450419138"><ele>266.0</ele><time>2026-03-28T15:26:36.998Z</time></trkpt><trkpt lat="45.05102419799759" lon="8.200647459983436"><ele>266.0</ele><time>2026-03-28T15:26:37.998Z</time></trkpt><trkpt lat="45.05095313749944" lon="8.200845439805486"><ele>266.0</ele><time>2026-03-28T15:26:38.998Z</time></trkpt><trkpt lat="45.050879355944474" lon="8.201043114081426"><ele>266.0</ele><time>2026-03-28T15:26:39.998Z</time></trkpt><trkpt lat="45.05080069503452" lon="8.201236258175518"><ele>266.0</ele><time>2026-03-28T15:26:40.998Z</time></trkpt><trkpt lat="45.05071699248939" lon="8.201422167254584"><ele>263.33333333333337</ele><time>2026-03-28T15:26:41.998Z</time></trkpt><trkpt lat="45.05062873788388" lon="8.201603423624807"><ele>260.6666666666667</ele><time>2026-03-28T15:26:42.998Z</time></trkpt><trkpt lat="45.05054707849322" lon="8.201793514509871"><ele>258.0</ele><time>2026-03-28T15:26:43.998Z</time></trkpt><trkpt lat="45.0504750993452" lon="8.201992563532427"><ele>258.0</ele><time>2026-03-28T15:26:44.998Z</time></trkpt><trkpt lat="45.050414859259654" lon="8.202201804826629"><ele>258.0</ele><time>2026-03-28T15:26:45.998Z</time></trkpt><trkpt lat="45.05034267575261" lon="8.202401968288413"><ele>258.0</ele><time>2026-03-28T15:26:46.998Z</time></trkpt><trkpt lat="45.05026466109917" lon="8.202590201750956"><ele>259.5</ele><time>2026-03-28T15:26:47.998Z</time></trkpt><trkpt lat="45.050190414875125" lon="8.202769645589154"><ele>261.0</ele><time>2026-03-28T15:26:48.998Z</time></trkpt><trkpt lat="45.05012129522913" lon="8.2029464555559"><ele>262.5</ele><time>2026-03-28T15:26:49.998Z</time></trkpt><trkpt lat="45.05005945164644" lon="8.203124082887609"><ele>264.0</ele><time>2026-03-28T15:26:50.998Z</time></trkpt><trkpt lat="45.05000709784902" lon="8.203311732169558"><ele>263.5</ele><time>2026-03-28T15:26:51.998Z</time></trkpt><trkpt lat="45.04995617240914" lon="8.203503418032948"><ele>263.0</ele><time>2026-03-28T15:26:52.998Z</time></trkpt><trkpt lat="45.04990971354529" lon="8.203702110430473"><ele>262.5</ele><time>2026-03-28T15:26:53.998Z</time></trkpt><trkpt lat="45.04985992279171" lon="8.203892745631043"><ele>262.0</ele><time>2026-03-28T15:26:54.998Z</time></trkpt><trkpt lat="45.04980780462576" lon="8.204079058880405"><ele>262.0</ele><time>2026-03-28T15:26:55.998Z</time></trkpt><trkpt lat="45.04975948169607" lon="8.204256027830338"><ele>262.0</ele><time>2026-03-28T15:26:56.998Z</time></trkpt><trkpt lat="45.04972086356837" lon="8.204435566531886"><ele>262.0</ele><time>2026-03-28T15:26:57.998Z</time></trkpt><trkpt lat="45.049698972393045" lon="8.20462506716512"><ele>262.0</ele><time>2026-03-28T15:26:58.998Z</time></trkpt><trkpt lat="45.04969490520907" lon="8.204806627374396"><ele>263.25</ele><time>2026-03-28T15:26:59.998Z</time></trkpt><trkpt lat="45.04971441825766" lon="8.20498399037274"><ele>264.5</ele><time>2026-03-28T15:27:00.998Z</time></trkpt><trkpt lat="45.049725824106325" lon="8.205146093226624"><ele>265.75</ele><time>2026-03-28T15:27:01.998Z</time></trkpt><trkpt lat="45.04972733173799" lon="8.20530142691434"><ele>267.0</ele><time>2026-03-28T15:27:02.998Z</time></trkpt><trkpt lat="45.04972169391877" lon="8.20544477076232"><ele>267.0</ele><time>2026-03-28T15:27:03.998Z</time></trkpt><trkpt lat="45.04971176553195" lon="8.205570735965418"><ele>267.0</ele><time>2026-03-28T15:27:04.998Z</time></trkpt><trkpt lat="45.049699980635964" lon="8.205689207938676"><ele>267.0</ele><time>2026-03-28T15:27:05.998Z</time></trkpt><trkpt lat="45.04968492925596" lon="8.205799980341109"><ele>267.0</ele><time>2026-03-28T15:27:06.998Z</time></trkpt><trkpt lat="45.0496666826048" lon="8.205917016035668"><ele>267.0</ele><time>2026-03-28T15:27:07.998Z</time></trkpt><trkpt lat="45.049641737563014" lon="8.206036366436765"><ele>267.0</ele><time>2026-03-28T15:27:08.998Z</time></trkpt><trkpt lat="45.049612349166026" lon="8.206152839337888"><ele>268.0</ele><time>2026-03-28T15:27:09.998Z</time></trkpt><trkpt lat="45.04956173770889" lon="8.206253631884993"><ele>269.0</ele><time>2026-03-28T15:27:10.998Z</time></trkpt><trkpt lat="45.04950333040099" lon="8.206348865968051"><ele>270.0</ele><time>2026-03-28T15:27:11.998Z</time></trkpt><trkpt lat="45.04943169479916" lon="8.20642683539677"><ele>271.0</ele><time>2026-03-28T15:27:12.998Z</time></trkpt><trkpt lat="45.04933765267133" lon="8.206489663913263"><ele>272.0</ele><time>2026-03-28T15:27:13.998Z</time></trkpt><trkpt lat="45.04923559982508" lon="8.206560833595123"><ele>271.75</ele><time>2026-03-28T15:27:14.998Z</time></trkpt><trkpt lat="45.049133204583285" lon="8.206643440259455"><ele>271.5</ele><time>2026-03-28T15:27:15.998Z</time></trkpt><trkpt lat="45.04903223469021" lon="8.206733501199325"><ele>271.25</ele><time>2026-03-28T15:27:16.998Z</time></trkpt><trkpt lat="45.048932540583706" lon="8.20682057880097"><ele>271.0</ele><time>2026-03-28T15:27:17.998Z</time></trkpt><trkpt lat="45.04882764450568" lon="8.206903933117667"><ele>271.0</ele><time>2026-03-28T15:27:18.998Z</time></trkpt><trkpt lat="45.048724088110994" lon="8.206991448603763"><ele>271.0</ele><time>2026-03-28T15:27:19.998Z</time></trkpt><trkpt lat="45.048613496963036" lon="8.207069192906363"><ele>271.0</ele><time>2026-03-28T15:27:20.998Z</time></trkpt><trkpt lat="45.04850016964386" lon="8.207142009386093"><ele>271.0</ele><time>2026-03-28T15:27:21.998Z</time></trkpt><trkpt lat="45.04838875491619" lon="8.207222962302831"><ele>271.2</ele><time>2026-03-28T15:27:22.998Z</time></trkpt><trkpt lat="45.04828397096179" lon="8.207306401116387"><ele>271.40000000000003</ele><time>2026-03-28T15:27:23.998Z</time></trkpt><trkpt lat="45.04818937737291" lon="8.207390623809625"><ele>271.6</ele><time>2026-03-28T15:27:24.998Z</time></trkpt><trkpt lat="45.04810843936598" lon="8.207481641846988"><ele>271.8</ele><time>2026-03-28T15:27:25.998Z</time></trkpt><trkpt lat="45.04804166113993" lon="8.207574660097144"><ele>272.0</ele><time>2026-03-28T15:27:26.998Z</time></trkpt><trkpt lat="45.04799491880429" lon="8.207683383004886"><ele>272.0</ele><time>2026-03-28T15:27:27.998Z</time></trkpt><trkpt lat="45.04796165584963" lon="8.207793763503252"><ele>272.0</ele><time>2026-03-28T15:27:28.998Z</time></trkpt><trkpt lat="45.047941809082204" lon="8.207913279273118"><ele>272.0</ele><time>2026-03-28T15:27:29.998Z</time></trkpt><trkpt lat="45.04792919040382" lon="8.208024160530417"><ele>272.0</ele><time>2026-03-28T15:27:30.998Z</time></trkpt><trkpt lat="45.04792067296049" lon="8.208134354091142"><ele>272.0</ele><time>2026-03-28T15:27:31.999Z</time></trkpt><trkpt lat="45.047912721547746" lon="8.208246439985974"><ele>272.0</ele><time>2026-03-28T15:27:32.999Z</time></trkpt><trkpt lat="45.04789721381514" lon="8.208354935260317"><ele>272.6666666666667</ele><time>2026-03-28T15:27:33.999Z</time></trkpt><trkpt lat="45.04787934943847" lon="8.208465234130234"><ele>273.33333333333337</ele><time>2026-03-28T15:27:34.999Z</time></trkpt><trkpt lat="45.047861010543315" lon="8.208574719400405"><ele>274.0</ele><time>2026-03-28T15:27:35.999Z</time></trkpt><trkpt lat="45.04784851513148" lon="8.20867729028399"><ele>274.6666666666667</ele><time>2026-03-28T15:27:36.999Z</time></trkpt><trkpt lat="45.047830470901694" lon="8.208776260847836"><ele>275.3333333333333</ele><time>2026-03-28T15:27:37.999Z</time></trkpt><trkpt lat="45.04781808252416" lon="8.208877463342159"><ele>276.0</ele><time>2026-03-28T15:27:38.999Z</time></trkpt><trkpt lat="45.0478196446779" lon="8.208985994385479"><ele>276.0</ele><time>2026-03-28T15:27:39.999Z</time></trkpt><trkpt lat="45.047834827801886" lon="8.209098225028617"><ele>276.0</ele><time>2026-03-28T15:27:40.999Z</time></trkpt><trkpt lat="45.04785847753223" lon="8.209208550476175"><ele>276.0</ele><time>2026-03-28T15:27:41.999Z</time></trkpt><trkpt lat="45.04787924799669" lon="8.209315446237998"><ele>276.0</ele><time>2026-03-28T15:27:42.999Z</time></trkpt><trkpt lat="45.0479005411987" lon="8.209416030910731"><ele>276.0</ele><time>2026-03-28T15:27:43.999Z</time></trkpt><trkpt lat="45.047913410542826" lon="8.209515479784615"><ele>276.0</ele><time>2026-03-28T15:27:44.999Z</time></trkpt><trkpt lat="45.04793441344652" lon="8.209615305284547"><ele>276.0</ele><time>2026-03-28T15:27:45.999Z</time></trkpt><trkpt lat="45.0479596298024" lon="8.209719011210042"><ele>276.0</ele><time>2026-03-28T15:27:46.999Z</time></trkpt><trkpt lat="45.04798187659454" lon="8.209821516667569"><ele>276.0</ele><time>2026-03-28T15:27:47.999Z</time></trkpt><trkpt lat="45.047999492744" lon="8.209926497676335"><ele>276.0</ele><time>2026-03-28T15:27:48.999Z</time></trkpt><trkpt lat="45.04801206063588" lon="8.21003068745217"><ele>276.0</ele><time>2026-03-28T15:27:49.999Z</time></trkpt><trkpt lat="45.04802631881098" lon="8.210134003305019"><ele>276.0</ele><time>2026-03-28T15:27:50.999Z</time></trkpt><trkpt lat="45.04803071356105" lon="8.210240704199027"><ele>276.0</ele><time>2026-03-28T15:27:51.999Z</time></trkpt><trkpt lat="45.04803685119739" lon="8.210339759043842"><ele>276.0</ele><time>2026-03-28T15:27:52.999Z</time></trkpt><trkpt lat="45.04804129746226" lon="8.21043196177102"><ele>276.0</ele><time>2026-03-28T15:27:53.999Z</time></trkpt><trkpt lat="45.048047615827905" lon="8.210523098246128"><ele>276.0</ele><time>2026-03-28T15:27:54.999Z</time></trkpt><trkpt lat="45.04805636945562" lon="8.21061377365533"><ele>276.0</ele><time>2026-03-28T15:27:55.999Z</time></trkpt><trkpt lat="45.048065106958454" lon="8.210756669945484"><ele>276.0</ele><time>2026-03-28T15:27:57.999Z</time></trkpt><trkpt lat="45.04804200034275" lon="8.210845722053605"><ele>276.0</ele><time>2026-03-28T15:28:00.999Z</time></trkpt><trkpt lat="45.048028715505055" lon="8.210953290479605"><ele>276.0</ele><time>2026-03-28T15:28:03.996Z</time></trkpt><trkpt lat="45.04800630865051" lon="8.211078616248066"><ele>276.0</ele><time>2026-03-28T15:28:05.997Z</time></trkpt><trkpt lat="45.04796983947274" lon="8.211207546717603"><ele>276.0</ele><time>2026-03-28T15:28:07.997Z</time></trkpt><trkpt lat="45.047919738965064" lon="8.211382642910156"><ele>276.0</ele><time>2026-03-28T15:28:09.997Z</time></trkpt><trkpt lat="45.04789233556276" lon="8.211510932044021"><ele>276.0</ele><time>2026-03-28T15:28:10.997Z</time></trkpt><trkpt lat="45.04786262897494" lon="8.211664528057492"><ele>277.0</ele><time>2026-03-28T15:28:11.997Z</time></trkpt><trkpt lat="45.047833976491745" lon="8.211817124101502"><ele>278.0</ele><time>2026-03-28T15:28:12.997Z</time></trkpt><trkpt lat="45.047800966111836" lon="8.211948975142283"><ele>279.0</ele><time>2026-03-28T15:28:13.997Z</time></trkpt><trkpt lat="45.047780293012" lon="8.21207035009825"><ele>280.0</ele><time>2026-03-28T15:28:14.997Z</time></trkpt><trkpt lat="45.04776405724472" lon="8.212168129556071"><ele>281.0</ele><time>2026-03-28T15:28:15.997Z</time></trkpt><trkpt lat="45.04774526932986" lon="8.212334539315457"><ele>281.5</ele><time>2026-03-28T15:28:17.997Z</time></trkpt><trkpt lat="45.04773493370972" lon="8.212437206788309"><ele>282.0</ele><time>2026-03-28T15:28:18.997Z</time></trkpt><trkpt lat="45.04773374816079" lon="8.212559198718214"><ele>282.5</ele><time>2026-03-28T15:28:19.997Z</time></trkpt><trkpt lat="45.04774493673962" lon="8.212684336906946"><ele>283.0</ele><time>2026-03-28T15:28:20.997Z</time></trkpt><trkpt lat="45.04777390370003" lon="8.212800394502102"><ele>283.5</ele><time>2026-03-28T15:28:21.997Z</time></trkpt><trkpt lat="45.04782257770186" lon="8.21291260560372"><ele>284.0</ele><time>2026-03-28T15:28:22.997Z</time></trkpt><trkpt lat="45.04789233643158" lon="8.213030010373842"><ele>284.0</ele><time>2026-03-28T15:28:23.997Z</time></trkpt><trkpt lat="45.047974740484264" lon="8.213131897365802"><ele>284.0</ele><time>2026-03-28T15:28:24.997Z</time></trkpt><trkpt lat="45.04804879032998" lon="8.21322913566646"><ele>284.0</ele><time>2026-03-28T15:28:25.997Z</time></trkpt><trkpt lat="45.048115858150176" lon="8.213318322971231"><ele>284.0</ele><time>2026-03-28T15:28:26.997Z</time></trkpt><trkpt lat="45.04817903727945" lon="8.21340606545278"><ele>284.0</ele><time>2026-03-28T15:28:27.997Z</time></trkpt><trkpt lat="45.048232227940595" lon="8.21352254692288"><ele>284.59999999999997</ele><time>2026-03-28T15:28:28.997Z</time></trkpt><trkpt lat="45.04826832272043" lon="8.213647557459456"><ele>285.2</ele><time>2026-03-28T15:28:29.997Z</time></trkpt><trkpt lat="45.048293460261895" lon="8.213781152006485"><ele>285.79999999999995</ele><time>2026-03-28T15:28:30.997Z</time></trkpt><trkpt lat="45.04830148046292" lon="8.213921707207003"><ele>286.4</ele><time>2026-03-28T15:28:31.997Z</time></trkpt><trkpt lat="45.04830566930965" lon="8.214054864940241"><ele>287.0</ele><time>2026-03-28T15:28:32.997Z</time></trkpt><trkpt lat="45.04831284027721" lon="8.214179680231195"><ele>287.0</ele><time>2026-03-28T15:28:33.997Z</time></trkpt><trkpt lat="45.04833601062015" lon="8.214312009100023"><ele>287.0</ele><time>2026-03-28T15:28:34.997Z</time></trkpt><trkpt lat="45.04838052663568" lon="8.21443291290299"><ele>287.0</ele><time>2026-03-28T15:28:35.997Z</time></trkpt><trkpt lat="45.048441673833196" lon="8.214529906918298"><ele>287.0</ele><time>2026-03-28T15:28:36.997Z</time></trkpt><trkpt lat="45.04852820843288" lon="8.214614879650044"><ele>287.0</ele><time>2026-03-28T15:28:37.997Z</time></trkpt><trkpt lat="45.04861288929915" lon="8.21468303907474"><ele>287.0</ele><time>2026-03-28T15:28:38.997Z</time></trkpt><trkpt lat="45.04870734217107" lon="8.21472293073409"><ele>287.0</ele><time>2026-03-28T15:28:39.997Z</time></trkpt><trkpt lat="45.04880676313301" lon="8.214756545139705"><ele>287.0</ele><time>2026-03-28T15:28:40.997Z</time></trkpt><trkpt lat="45.04890412022449" lon="8.214792123320397"><ele>287.0</ele><time>2026-03-28T15:28:41.997Z</time></trkpt><trkpt lat="45.04900131868941" lon="8.21482964594091"><ele>287.0</ele><time>2026-03-28T15:28:42.997Z</time></trkpt><trkpt lat="45.04909565853432" lon="8.214866636729797"><ele>286.6</ele><time>2026-03-28T15:28:43.997Z</time></trkpt><trkpt lat="45.04917969692777" lon="8.214912754351502"><ele>286.2</ele><time>2026-03-28T15:28:44.998Z</time></trkpt><trkpt lat="45.049261982964694" lon="8.21497264902275"><ele>285.8</ele><time>2026-03-28T15:28:45.998Z</time></trkpt><trkpt lat="45.04934192544497" lon="8.215056048769311"><ele>285.4</ele><time>2026-03-28T15:28:46.998Z</time></trkpt><trkpt lat="45.04941067286428" lon="8.215166566656563"><ele>285.0</ele><time>2026-03-28T15:28:47.998Z</time></trkpt><trkpt lat="45.04945767007293" lon="8.215293789745612"><ele>285.0</ele><time>2026-03-28T15:28:48.998Z</time></trkpt><trkpt lat="45.049490696777326" lon="8.215425208134649"><ele>285.0</ele><time>2026-03-28T15:28:49.998Z</time></trkpt><trkpt lat="45.04952430860282" lon="8.215546425173613"><ele>285.0</ele><time>2026-03-28T15:28:50.998Z</time></trkpt><trkpt lat="45.04954169021477" lon="8.215663167789705"><ele>285.0</ele><time>2026-03-28T15:28:51.998Z</time></trkpt><trkpt lat="45.04953333377907" lon="8.215782720378549"><ele>285.0</ele><time>2026-03-28T15:28:52.998Z</time></trkpt><trkpt lat="45.04950447337047" lon="8.215895524974558"><ele>285.0</ele><time>2026-03-28T15:28:53.998Z</time></trkpt><trkpt lat="45.04945591707097" lon="8.21600693997465"><ele>283.5</ele><time>2026-03-28T15:28:54.998Z</time></trkpt><trkpt lat="45.04939081068203" lon="8.216123141313902"><ele>282.0</ele><time>2026-03-28T15:28:55.998Z</time></trkpt><trkpt lat="45.04930514913377" lon="8.21624460292614"><ele>280.5</ele><time>2026-03-28T15:28:56.998Z</time></trkpt><trkpt lat="45.049197752137474" lon="8.216367181308973"><ele>279.0</ele><time>2026-03-28T15:28:57.998Z</time></trkpt><trkpt lat="45.049072146081116" lon="8.21649564176166"><ele>277.6666666666667</ele><time>2026-03-28T15:28:58.998Z</time></trkpt><trkpt lat="45.04894235258982" lon="8.216620373415592"><ele>276.33333333333337</ele><time>2026-03-28T15:28:59.998Z</time></trkpt><trkpt lat="45.04880774037917" lon="8.216769036283006"><ele>275.0</ele><time>2026-03-28T15:29:00.998Z</time></trkpt><trkpt lat="45.048671798762335" lon="8.216926656903206"><ele>275.0</ele><time>2026-03-28T15:29:01.998Z</time></trkpt><trkpt lat="45.048531882027234" lon="8.217074022282358"><ele>275.0</ele><time>2026-03-28T15:29:02.998Z</time></trkpt><trkpt lat="45.048378288592716" lon="8.217198646017632"><ele>275.0</ele><time>2026-03-28T15:29:03.998Z</time></trkpt><trkpt lat="45.04822077605257" lon="8.217292153547683"><ele>275.33333333333337</ele><time>2026-03-28T15:29:04.998Z</time></trkpt><trkpt lat="45.04805634972464" lon="8.217378381644213"><ele>275.6666666666667</ele><time>2026-03-28T15:29:05.998Z</time></trkpt><trkpt lat="45.04789392038205" lon="8.217491737874441"><ele>276.0</ele><time>2026-03-28T15:29:06.998Z</time></trkpt><trkpt lat="45.047739401557266" lon="8.217648489793127"><ele>276.0</ele><time>2026-03-28T15:29:07.998Z</time></trkpt><trkpt lat="45.047587417224044" lon="8.21780521402848"><ele>276.0</ele><time>2026-03-28T15:29:08.998Z</time></trkpt><trkpt lat="45.0474297367467" lon="8.217923579411375"><ele>276.0</ele><time>2026-03-28T15:29:09.998Z</time></trkpt><trkpt lat="45.04725744000375" lon="8.218009661725949"><ele>275.6666666666667</ele><time>2026-03-28T15:29:10.998Z</time></trkpt><trkpt lat="45.04708368733523" lon="8.218078273893923"><ele>275.33333333333337</ele><time>2026-03-28T15:29:11.998Z</time></trkpt><trkpt lat="45.046910048627126" lon="8.218126564480903"><ele>275.0</ele><time>2026-03-28T15:29:12.998Z</time></trkpt><trkpt lat="45.04674216468866" lon="8.218153642230149"><ele>272.0</ele><time>2026-03-28T15:29:13.998Z</time></trkpt><trkpt lat="45.04657692536047" lon="8.218163664004411"><ele>269.0</ele><time>2026-03-28T15:29:14.998Z</time></trkpt><trkpt lat="45.04641323063591" lon="8.218171093069017"><ele>266.0</ele><time>2026-03-28T15:29:15.998Z</time></trkpt><trkpt lat="45.046257416853216" lon="8.218202179693838"><ele>266.0</ele><time>2026-03-28T15:29:16.998Z</time></trkpt><trkpt lat="45.04611496640566" lon="8.218271084163945"><ele>266.0</ele><time>2026-03-28T15:29:17.998Z</time></trkpt><trkpt lat="45.045986112435855" lon="8.218369650403469"><ele>266.0</ele><time>2026-03-28T15:29:18.998Z</time></trkpt><trkpt lat="45.045870331009866" lon="8.218496358464673"><ele>266.0</ele><time>2026-03-28T15:29:19.998Z</time></trkpt><trkpt lat="45.04576738933639" lon="8.218654908976124"><ele>265.75</ele><time>2026-03-28T15:29:20.998Z</time></trkpt><trkpt lat="45.045675939107774" lon="8.21882259531231"><ele>265.5</ele><time>2026-03-28T15:29:21.998Z</time></trkpt><trkpt lat="45.045586110851715" lon="8.218971062693676"><ele>265.25</ele><time>2026-03-28T15:29:22.998Z</time></trkpt><trkpt lat="45.0454973936263" lon="8.219095502382224"><ele>265.0</ele><time>2026-03-28T15:29:23.998Z</time></trkpt><trkpt lat="45.0454116255697" lon="8.219197605740943"><ele>265.0</ele><time>2026-03-28T15:29:24.998Z</time></trkpt><trkpt lat="45.04533225027929" lon="8.219259529652367"><ele>265.0</ele><time>2026-03-28T15:29:25.998Z</time></trkpt><trkpt lat="45.04525188137364" lon="8.219321965255988"><ele>265.0</ele><time>2026-03-28T15:29:26.998Z</time></trkpt><trkpt lat="45.04517312094609" lon="8.219381523412357"><ele>265.0</ele><time>2026-03-28T15:29:27.998Z</time></trkpt><trkpt lat="45.045099002629044" lon="8.219430929370517"><ele>265.0</ele><time>2026-03-28T15:29:28.998Z</time></trkpt><trkpt lat="45.045028911067824" lon="8.219465613398848"><ele>265.0</ele><time>2026-03-28T15:29:29.998Z</time></trkpt><trkpt lat="45.04492702885696" lon="8.219535512708122"><ele>264.4</ele><time>2026-03-28T15:29:31.998Z</time></trkpt><trkpt lat="45.04484709767563" lon="8.219635475833837"><ele>263.8</ele><time>2026-03-28T15:29:33.998Z</time></trkpt><trkpt lat="45.04479278225133" lon="8.219809944065283"><ele>263.2</ele><time>2026-03-28T15:29:35.998Z</time></trkpt><trkpt lat="45.04478938555077" lon="8.219937238059307"><ele>262.6</ele><time>2026-03-28T15:29:36.998Z</time></trkpt><trkpt lat="45.04481011813994" lon="8.220092839547325"><ele>262.0</ele><time>2026-03-28T15:29:37.998Z</time></trkpt><trkpt lat="45.04484345114992" lon="8.220268777888801"><ele>263.5</ele><time>2026-03-28T15:29:38.998Z</time></trkpt><trkpt lat="45.044869069732556" lon="8.220465138096037"><ele>265.0</ele><time>2026-03-28T15:29:39.998Z</time></trkpt><trkpt lat="45.04489626482782" lon="8.220675594070036"><ele>266.5</ele><time>2026-03-28T15:29:40.998Z</time></trkpt><trkpt lat="45.04492056663877" lon="8.220863568074888"><ele>268.0</ele><time>2026-03-28T15:29:41.998Z</time></trkpt><trkpt lat="45.04494967881276" lon="8.22102589024695"><ele>266.66666666666663</ele><time>2026-03-28T15:29:42.998Z</time></trkpt><trkpt lat="45.04499084441026" lon="8.221149949581756"><ele>265.3333333333333</ele><time>2026-03-28T15:29:43.998Z</time></trkpt><trkpt lat="45.045050513957825" lon="8.221242442720738"><ele>264.0</ele><time>2026-03-28T15:29:44.998Z</time></trkpt><trkpt lat="45.0451284090955" lon="8.221293036338778"><ele>262.6666666666667</ele><time>2026-03-28T15:29:45.998Z</time></trkpt><trkpt lat="45.045212644257944" lon="8.22129865108514"><ele>261.33333333333337</ele><time>2026-03-28T15:29:46.998Z</time></trkpt><trkpt lat="45.045299647674604" lon="8.221249326655478"><ele>260.0</ele><time>2026-03-28T15:29:47.998Z</time></trkpt><trkpt lat="45.04537578313633" lon="8.22114233858301"><ele>260.0</ele><time>2026-03-28T15:29:48.998Z</time></trkpt><trkpt lat="45.04542321652784" lon="8.221005257219828"><ele>260.0</ele><time>2026-03-28T15:29:49.998Z</time></trkpt><trkpt lat="45.04545767783789" lon="8.22087537134232"><ele>260.0</ele><time>2026-03-28T15:29:50.998Z</time></trkpt><trkpt lat="45.04551322955513" lon="8.220753206308983"><ele>260.0</ele><time>2026-03-28T15:29:51.998Z</time></trkpt><trkpt lat="45.045604168163884" lon="8.220661161148271"><ele>260.0</ele><time>2026-03-28T15:29:52.998Z</time></trkpt><trkpt lat="45.04572913399952" lon="8.220627261473405"><ele>262.0</ele><time>2026-03-28T15:29:53.998Z</time></trkpt><trkpt lat="45.04585955236513" lon="8.22064585382425"><ele>264.0</ele><time>2026-03-28T15:29:54.998Z</time></trkpt><trkpt lat="45.04598833193197" lon="8.220716034490778"><ele>266.0</ele><time>2026-03-28T15:29:55.998Z</time></trkpt><trkpt lat="45.04610922187677" lon="8.220822567942092"><ele>268.0</ele><time>2026-03-28T15:29:56.998Z</time></trkpt><trkpt lat="45.04623671546961" lon="8.220966099765008"><ele>263.3333333333333</ele><time>2026-03-28T15:29:57.998Z</time></trkpt><trkpt lat="45.0463742184187" lon="8.221110822349377"><ele>258.6666666666667</ele><time>2026-03-28T15:29:58.998Z</time></trkpt><trkpt lat="45.046524571986936" lon="8.221258376315294"><ele>254.0</ele><time>2026-03-28T15:29:59.998Z</time></trkpt><trkpt lat="45.046678675571094" lon="8.221409732491939"><ele>249.33333333333334</ele><time>2026-03-28T15:30:00.998Z</time></trkpt><trkpt lat="45.046828429572514" lon="8.221542418611296"><ele>244.66666666666669</ele><time>2026-03-28T15:30:01.998Z</time></trkpt><trkpt lat="45.04698584551047" lon="8.221628599057665"><ele>240.0</ele><time>2026-03-28T15:30:02.998Z</time></trkpt><trkpt lat="45.04713409976353" lon="8.221676016700705"><ele>240.0</ele><time>2026-03-28T15:30:03.998Z</time></trkpt><trkpt lat="45.04727332355951" lon="8.221748772348626"><ele>240.0</ele><time>2026-03-28T15:30:04.998Z</time></trkpt><trkpt lat="45.047405754149935" lon="8.221881215378865"><ele>240.0</ele><time>2026-03-28T15:30:05.998Z</time></trkpt><trkpt lat="45.04752392094344" lon="8.222068106789779"><ele>240.33333333333331</ele><time>2026-03-28T15:30:06.998Z</time></trkpt><trkpt lat="45.047637056204046" lon="8.222289353593613"><ele>240.66666666666666</ele><time>2026-03-28T15:30:07.998Z</time></trkpt><trkpt lat="45.04775883620435" lon="8.222514134168929"><ele>241.0</ele><time>2026-03-28T15:30:08.998Z</time></trkpt><trkpt lat="45.04786435358467" lon="8.2227602133911"><ele>239.66666666666666</ele><time>2026-03-28T15:30:09.997Z</time></trkpt><trkpt lat="45.04795360875612" lon="8.223020028225987"><ele>238.33333333333331</ele><time>2026-03-28T15:30:10.997Z</time></trkpt><trkpt lat="45.04803621217561" lon="8.223282160860617"><ele>237.0</ele><time>2026-03-28T15:30:11.997Z</time></trkpt><trkpt lat="45.0481419163213" lon="8.223541490216538"><ele>233.33333333333331</ele><time>2026-03-28T15:30:12.996Z</time></trkpt><trkpt lat="45.04825216377522" lon="8.223795998762236"><ele>229.66666666666666</ele><time>2026-03-28T15:30:13.997Z</time></trkpt><trkpt lat="45.048352637482196" lon="8.224045970096897"><ele>226.0</ele><time>2026-03-28T15:30:14.997Z</time></trkpt><trkpt lat="45.04843785706313" lon="8.224299692387577"><ele>223.66666666666666</ele><time>2026-03-28T15:30:15.997Z</time></trkpt><trkpt lat="45.04851828857651" lon="8.224549599123158"><ele>221.33333333333331</ele><time>2026-03-28T15:30:16.996Z</time></trkpt><trkpt lat="45.048600497923736" lon="8.224787519123884"><ele>219.0</ele><time>2026-03-28T15:30:17.996Z</time></trkpt><trkpt lat="45.04867875501093" lon="8.22501820590078"><ele>216.0</ele><time>2026-03-28T15:30:18.997Z</time></trkpt><trkpt lat="45.04875734324906" lon="8.225243308397598"><ele>213.0</ele><time>2026-03-28T15:30:19.997Z</time></trkpt><trkpt lat="45.04883293574792" lon="8.225466935149134"><ele>210.0</ele><time>2026-03-28T15:30:20.997Z</time></trkpt><trkpt lat="45.04890865515676" lon="8.225685729607207"><ele>210.66666666666669</ele><time>2026-03-28T15:30:21.996Z</time></trkpt><trkpt lat="45.04899479647287" lon="8.225894123086851"><ele>211.33333333333334</ele><time>2026-03-28T15:30:22.996Z</time></trkpt><trkpt lat="45.049094002565084" lon="8.22608319275428"><ele>212.0</ele><time>2026-03-28T15:30:23.996Z</time></trkpt><trkpt lat="45.04919280702153" lon="8.226238399383545"><ele>212.0</ele><time>2026-03-28T15:30:24.996Z</time></trkpt><trkpt lat="45.049296609868065" lon="8.22635966677398"><ele>212.0</ele><time>2026-03-28T15:30:25.996Z</time></trkpt><trkpt lat="45.04940507136096" lon="8.22643907168751"><ele>212.0</ele><time>2026-03-28T15:30:26.996Z</time></trkpt><trkpt lat="45.04952098537085" lon="8.226472156738842"><ele>212.0</ele><time>2026-03-28T15:30:27.996Z</time></trkpt><trkpt lat="45.049635928524275" lon="8.226470109167227"><ele>210.0</ele><time>2026-03-28T15:30:28.996Z</time></trkpt><trkpt lat="45.04974039017584" lon="8.226495044443213"><ele>208.0</ele><time>2026-03-28T15:30:29.996Z</time></trkpt><trkpt lat="45.04982223232081" lon="8.226589127666234"><ele>206.0</ele><time>2026-03-28T15:30:30.996Z</time></trkpt><trkpt lat="45.04985947343795" lon="8.226716835525782"><ele>204.0</ele><time>2026-03-28T15:30:31.996Z</time></trkpt><trkpt lat="45.049849518782345" lon="8.226840821082291"><ele>202.0</ele><time>2026-03-28T15:30:32.996Z</time></trkpt><trkpt lat="45.049801606359665" lon="8.226950982897979"><ele>202.0</ele><time>2026-03-28T15:30:33.996Z</time></trkpt><trkpt lat="45.04972437195345" lon="8.227034929707468"><ele>202.0</ele><time>2026-03-28T15:30:34.996Z</time></trkpt><trkpt lat="45.04965534709682" lon="8.22713820499215"><ele>202.0</ele><time>2026-03-28T15:30:35.996Z</time></trkpt><trkpt lat="45.04962230471261" lon="8.227281259856746"><ele>202.0</ele><time>2026-03-28T15:30:36.996Z</time></trkpt><trkpt lat="45.04963541617878" lon="8.227435472497001"><ele>202.0</ele><time>2026-03-28T15:30:37.996Z</time></trkpt><trkpt lat="45.04968864486092" lon="8.227588033475081"><ele>200.75</ele><time>2026-03-28T15:30:38.996Z</time></trkpt><trkpt lat="45.04977650359466" lon="8.227750665677437"><ele>199.5</ele><time>2026-03-28T15:30:39.996Z</time></trkpt><trkpt lat="45.049862630168924" lon="8.227914098941923"><ele>198.25</ele><time>2026-03-28T15:30:40.996Z</time></trkpt><trkpt lat="45.049947923869226" lon="8.228088093422551"><ele>197.0</ele><time>2026-03-28T15:30:41.997Z</time></trkpt><trkpt lat="45.050030900467576" lon="8.228270460299182"><ele>195.0</ele><time>2026-03-28T15:30:42.997Z</time></trkpt><trkpt lat="45.05010892304669" lon="8.228468532877578"><ele>193.0</ele><time>2026-03-28T15:30:43.997Z</time></trkpt><trkpt lat="45.05018378305767" lon="8.22868319517362"><ele>191.0</ele><time>2026-03-28T15:30:44.997Z</time></trkpt><trkpt lat="45.05025793789232" lon="8.228897865161958"><ele>190.66666666666666</ele><time>2026-03-28T15:30:45.997Z</time></trkpt><trkpt lat="45.05032664009284" lon="8.22912404503264"><ele>190.33333333333334</ele><time>2026-03-28T15:30:46.997Z</time></trkpt><trkpt lat="45.050395435803836" lon="8.22935700043265"><ele>190.0</ele><time>2026-03-28T15:30:47.997Z</time></trkpt><trkpt lat="45.0504674925589" lon="8.229585852640001"><ele>190.0</ele><time>2026-03-28T15:30:48.997Z</time></trkpt><trkpt lat="45.05053707620303" lon="8.22980243616147"><ele>190.0</ele><time>2026-03-28T15:30:49.997Z</time></trkpt><trkpt lat="45.05061317411315" lon="8.229999407935942"><ele>190.0</ele><time>2026-03-28T15:30:50.997Z</time></trkpt><trkpt lat="45.05070758774597" lon="8.230172622797207"><ele>189.66666666666669</ele><time>2026-03-28T15:30:51.997Z</time></trkpt><trkpt lat="45.05081410644264" lon="8.230328623952968"><ele>189.33333333333334</ele><time>2026-03-28T15:30:52.997Z</time></trkpt><trkpt lat="45.05092640108463" lon="8.230485017493772"><ele>189.0</ele><time>2026-03-28T15:30:53.997Z</time></trkpt><trkpt lat="45.051036267777434" lon="8.230645367570663"><ele>188.33333333333334</ele><time>2026-03-28T15:30:54.997Z</time></trkpt><trkpt lat="45.05114473150179" lon="8.230815111751584"><ele>187.66666666666669</ele><time>2026-03-28T15:30:55.997Z</time></trkpt><trkpt lat="45.0512545641032" lon="8.23098325705288"><ele>187.0</ele><time>2026-03-28T15:30:56.997Z</time></trkpt><trkpt lat="45.05136599058359" lon="8.231153800928414"><ele>187.0</ele><time>2026-03-28T15:30:57.997Z</time></trkpt><trkpt lat="45.051484757051725" lon="8.231319862881563"><ele>187.0</ele><time>2026-03-28T15:30:58.997Z</time></trkpt><trkpt lat="45.0516074301443" lon="8.231477980880156"><ele>187.0</ele><time>2026-03-28T15:30:59.997Z</time></trkpt><trkpt lat="45.05173184708648" lon="8.23163972740563"><ele>187.0</ele><time>2026-03-28T15:31:00.997Z</time></trkpt><trkpt lat="45.051847899235" lon="8.231798160695307"><ele>187.0</ele><time>2026-03-28T15:31:01.997Z</time></trkpt><trkpt lat="45.05196626665074" lon="8.231930171330063"><ele>187.0</ele><time>2026-03-28T15:31:02.997Z</time></trkpt><trkpt lat="45.052083112098884" lon="8.232032876817511"><ele>187.0</ele><time>2026-03-28T15:31:03.997Z</time></trkpt><trkpt lat="45.052193020017576" lon="8.23210441481107"><ele>187.0</ele><time>2026-03-28T15:31:04.997Z</time></trkpt><trkpt lat="45.05228206865932" lon="8.232176111588261"><ele>187.0</ele><time>2026-03-28T15:31:05.997Z</time></trkpt><trkpt lat="45.05233373906395" lon="8.232236533864633"><ele>187.0</ele><time>2026-03-28T15:31:06.997Z</time></trkpt><trkpt lat="45.05240003858039" lon="8.232395034221938"><ele>187.0</ele><time>2026-03-28T15:31:08.997Z</time></trkpt><trkpt lat="45.05245111580859" lon="8.232462274943062"><ele>187.0</ele><time>2026-03-28T15:31:09.997Z</time></trkpt><trkpt lat="45.052524339407974" lon="8.23252655311678"><ele>187.5</ele><time>2026-03-28T15:31:10.997Z</time></trkpt><trkpt lat="45.0526118368762" lon="8.232605689732715"><ele>188.0</ele><time>2026-03-28T15:31:11.997Z</time></trkpt><trkpt lat="45.05270713752901" lon="8.23269561560657"><ele>188.5</ele><time>2026-03-28T15:31:12.997Z</time></trkpt><trkpt lat="45.05281785859435" lon="8.232790214626053"><ele>189.0</ele><time>2026-03-28T15:31:13.997Z</time></trkpt><trkpt lat="45.05293902358536" lon="8.232877451971964"><ele>189.0</ele><time>2026-03-28T15:31:14.997Z</time></trkpt><trkpt lat="45.053071649467704" lon="8.232931389788677"><ele>189.0</ele><time>2026-03-28T15:31:15.997Z</time></trkpt><trkpt lat="45.053221853402455" lon="8.232970736717265"><ele>189.0</ele><time>2026-03-28T15:31:16.997Z</time></trkpt><trkpt lat="45.053394793830655" lon="8.232995367160942"><ele>191.0</ele><time>2026-03-28T15:31:17.997Z</time></trkpt><trkpt lat="45.053566121551405" lon="8.23303319013644"><ele>193.0</ele><time>2026-03-28T15:31:18.997Z</time></trkpt><trkpt lat="45.0537309976888" lon="8.233071764059858"><ele>195.0</ele><time>2026-03-28T15:31:19.997Z</time></trkpt><trkpt lat="45.05389360832213" lon="8.233103354892481"><ele>195.0</ele><time>2026-03-28T15:31:20.997Z</time></trkpt><trkpt lat="45.05404574564873" lon="8.23313084325351"><ele>195.0</ele><time>2026-03-28T15:31:21.997Z</time></trkpt><trkpt lat="45.05419097022747" lon="8.233156200001254"><ele>195.0</ele><time>2026-03-28T15:31:22.997Z</time></trkpt><trkpt lat="45.054333525267054" lon="8.233180371446533"><ele>195.0</ele><time>2026-03-28T15:31:23.997Z</time></trkpt><trkpt lat="45.054467402767784" lon="8.233204627228227"><ele>193.6</ele><time>2026-03-28T15:31:24.997Z</time></trkpt><trkpt lat="45.05458786026265" lon="8.233256994200966"><ele>192.2</ele><time>2026-03-28T15:31:25.997Z</time></trkpt><trkpt lat="45.05468373169179" lon="8.233339923666973"><ele>190.8</ele><time>2026-03-28T15:31:26.997Z</time></trkpt><trkpt lat="45.05475529503103" lon="8.233447886148571"><ele>189.4</ele><time>2026-03-28T15:31:27.997Z</time></trkpt><trkpt lat="45.054788981836616" lon="8.233586280179438"><ele>188.0</ele><time>2026-03-28T15:31:28.997Z</time></trkpt><trkpt lat="45.05480959581753" lon="8.233747854380079"><ele>188.0</ele><time>2026-03-28T15:31:29.997Z</time></trkpt><trkpt lat="45.05482898196962" lon="8.233921016658888"><ele>188.0</ele><time>2026-03-28T15:31:30.997Z</time></trkpt><trkpt lat="45.054848852317356" lon="8.234102925520054"><ele>188.0</ele><time>2026-03-28T15:31:31.997Z</time></trkpt><trkpt lat="45.054871598182" lon="8.234292142643662"><ele>188.0</ele><time>2026-03-28T15:31:32.997Z</time></trkpt><trkpt lat="45.05490711121689" lon="8.234478795874233"><ele>188.25</ele><time>2026-03-28T15:31:33.997Z</time></trkpt><trkpt lat="45.05496470600553" lon="8.234664853449438"><ele>188.5</ele><time>2026-03-28T15:31:34.997Z</time></trkpt><trkpt lat="45.05504126037959" lon="8.234823004465884"><ele>188.75</ele><time>2026-03-28T15:31:35.997Z</time></trkpt><trkpt lat="45.055136229400794" lon="8.234958423989932"><ele>189.0</ele><time>2026-03-28T15:31:36.997Z</time></trkpt><trkpt lat="45.05525035777635" lon="8.235073550532743"><ele>189.0</ele><time>2026-03-28T15:31:37.997Z</time></trkpt><trkpt lat="45.05537858126261" lon="8.23516970567423"><ele>189.0</ele><time>2026-03-28T15:31:38.997Z</time></trkpt><trkpt lat="45.05552249118186" lon="8.235242031704825"><ele>189.0</ele><time>2026-03-28T15:31:39.997Z</time></trkpt><trkpt lat="45.055676722360886" lon="8.235304473607421"><ele>189.33333333333334</ele><time>2026-03-28T15:31:40.997Z</time></trkpt><trkpt lat="45.05584130028657" lon="8.235364381024352"><ele>189.66666666666669</ele><time>2026-03-28T15:31:41.997Z</time></trkpt><trkpt lat="45.056011069757645" lon="8.235429899889677"><ele>190.0</ele><time>2026-03-28T15:31:42.997Z</time></trkpt><trkpt lat="45.056181104509314" lon="8.235497440115795"><ele>190.0</ele><time>2026-03-28T15:31:43.997Z</time></trkpt><trkpt lat="45.05634909528415" lon="8.235562407896607"><ele>190.0</ele><time>2026-03-28T15:31:44.997Z</time></trkpt><trkpt lat="45.056521240032204" lon="8.23562799459349"><ele>190.0</ele><time>2026-03-28T15:31:45.997Z</time></trkpt><trkpt lat="45.056690138113254" lon="8.235698028034586"><ele>190.66666666666669</ele><time>2026-03-28T15:31:46.997Z</time></trkpt><trkpt lat="45.05684581709388" lon="8.235765239787936"><ele>191.33333333333334</ele><time>2026-03-28T15:31:47.997Z</time></trkpt><trkpt lat="45.05699170608337" lon="8.235821801776481"><ele>192.0</ele><time>2026-03-28T15:31:48.997Z</time></trkpt><trkpt lat="45.057128941919366" lon="8.235875140941369"><ele>192.0</ele><time>2026-03-28T15:31:49.997Z</time></trkpt><trkpt lat="45.0572534246339" lon="8.235923096011353"><ele>192.0</ele><time>2026-03-28T15:31:50.997Z</time></trkpt><trkpt lat="45.05737329595675" lon="8.235967989345907"><ele>192.0</ele><time>2026-03-28T15:31:51.997Z</time></trkpt><trkpt lat="45.05748754895039" lon="8.236014941293197"><ele>192.0</ele><time>2026-03-28T15:31:52.997Z</time></trkpt><trkpt lat="45.05760766364463" lon="8.236063529218768"><ele>192.0</ele><time>2026-03-28T15:31:53.997Z</time></trkpt><trkpt lat="45.05773335571147" lon="8.236113767746371"><ele>192.0</ele><time>2026-03-28T15:31:54.997Z</time></trkpt><trkpt lat="45.05786196386485" lon="8.236162333969197"><ele>192.0</ele><time>2026-03-28T15:31:55.997Z</time></trkpt><trkpt lat="45.057991783335" lon="8.236214505800772"><ele>192.0</ele><time>2026-03-28T15:31:56.997Z</time></trkpt><trkpt lat="45.0581250669163" lon="8.23626593193648"><ele>192.0</ele><time>2026-03-28T15:31:57.997Z</time></trkpt><trkpt lat="45.05825923578095" lon="8.23631490385586"><ele>192.0</ele><time>2026-03-28T15:31:58.997Z</time></trkpt><trkpt lat="45.05839469256546" lon="8.236364545346035"><ele>192.0</ele><time>2026-03-28T15:31:59.997Z</time></trkpt><trkpt lat="45.05853269467155" lon="8.236413890040001"><ele>192.0</ele><time>2026-03-28T15:32:00.997Z</time></trkpt><trkpt lat="45.05866971670301" lon="8.23646523604812"><ele>193.5</ele><time>2026-03-28T15:32:01.997Z</time></trkpt><trkpt lat="45.05880761707139" lon="8.23652147023281"><ele>195.0</ele><time>2026-03-28T15:32:02.997Z</time></trkpt><trkpt lat="45.058944835909514" lon="8.236578601914422"><ele>196.5</ele><time>2026-03-28T15:32:03.997Z</time></trkpt><trkpt lat="45.05907591224592" lon="8.23662907400328"><ele>198.0</ele><time>2026-03-28T15:32:04.997Z</time></trkpt><trkpt lat="45.05919314595008" lon="8.236675966538158"><ele>198.5</ele><time>2026-03-28T15:32:05.997Z</time></trkpt><trkpt lat="45.05930233564087" lon="8.236719359271856"><ele>199.0</ele><time>2026-03-28T15:32:06.997Z</time></trkpt><trkpt lat="45.0594121169123" lon="8.236761963269863"><ele>199.5</ele><time>2026-03-28T15:32:07.997Z</time></trkpt><trkpt lat="45.05953448599236" lon="8.236812385040414"><ele>200.0</ele><time>2026-03-28T15:32:08.998Z</time></trkpt><trkpt lat="45.05966292887141" lon="8.236883757656726"><ele>200.0</ele><time>2026-03-28T15:32:09.998Z</time></trkpt><trkpt lat="45.05979128921907" lon="8.236972172210839"><ele>200.0</ele><time>2026-03-28T15:32:10.998Z</time></trkpt><trkpt lat="45.05992201574768" lon="8.237080893082092"><ele>200.0</ele><time>2026-03-28T15:32:11.998Z</time></trkpt><trkpt lat="45.060040401441974" lon="8.237221283147328"><ele>200.0</ele><time>2026-03-28T15:32:12.998Z</time></trkpt><trkpt lat="45.06015963367547" lon="8.237381792799583"><ele>201.33333333333334</ele><time>2026-03-28T15:32:13.998Z</time></trkpt><trkpt lat="45.060283845569565" lon="8.237541961563338"><ele>202.66666666666669</ele><time>2026-03-28T15:32:14.998Z</time></trkpt><trkpt lat="45.06041541901786" lon="8.237709285595773"><ele>204.0</ele><time>2026-03-28T15:32:15.997Z</time></trkpt><trkpt lat="45.06055424904054" lon="8.23787857474173"><ele>204.0</ele><time>2026-03-28T15:32:16.996Z</time></trkpt><trkpt lat="45.060696191114985" lon="8.238056237323569"><ele>204.0</ele><time>2026-03-28T15:32:17.996Z</time></trkpt><trkpt lat="45.060838289741696" lon="8.238240232524209"><ele>204.0</ele><time>2026-03-28T15:32:18.997Z</time></trkpt><trkpt lat="45.06098004999915" lon="8.238409784541197"><ele>204.33333333333331</ele><time>2026-03-28T15:32:19.996Z</time></trkpt><trkpt lat="45.0611170003201" lon="8.238588216011967"><ele>204.66666666666666</ele><time>2026-03-28T15:32:20.996Z</time></trkpt><trkpt lat="45.061254778237796" lon="8.238768613557047"><ele>205.0</ele><time>2026-03-28T15:32:21.996Z</time></trkpt><trkpt lat="45.06138970491153" lon="8.238949450372466"><ele>206.0</ele><time>2026-03-28T15:32:22.997Z</time></trkpt><trkpt lat="45.06152405942745" lon="8.239129490371274"><ele>207.0</ele><time>2026-03-28T15:32:23.997Z</time></trkpt><trkpt lat="45.06165928089181" lon="8.239301436138291"><ele>208.0</ele><time>2026-03-28T15:32:24.996Z</time></trkpt><trkpt lat="45.06178875300118" lon="8.239463714044737"><ele>208.0</ele><time>2026-03-28T15:32:25.996Z</time></trkpt><trkpt lat="45.061909444339356" lon="8.239613956129753"><ele>208.0</ele><time>2026-03-28T15:32:26.996Z</time></trkpt><trkpt lat="45.06202285477454" lon="8.239748607408071"><ele>208.0</ele><time>2026-03-28T15:32:27.996Z</time></trkpt><trkpt lat="45.06214282626301" lon="8.239865033212933"><ele>209.25</ele><time>2026-03-28T15:32:28.996Z</time></trkpt><trkpt lat="45.062260913925186" lon="8.239953235739081"><ele>210.5</ele><time>2026-03-28T15:32:29.996Z</time></trkpt><trkpt lat="45.0623768723609" lon="8.240007023866951"><ele>211.75</ele><time>2026-03-28T15:32:30.996Z</time></trkpt><trkpt lat="45.062495474520354" lon="8.240027680267005"><ele>213.0</ele><time>2026-03-28T15:32:31.996Z</time></trkpt><trkpt lat="45.062593221747264" lon="8.240036897313937"><ele>213.5</ele><time>2026-03-28T15:32:32.996Z</time></trkpt><trkpt lat="45.06266363158098" lon="8.240043045738611"><ele>214.0</ele><time>2026-03-28T15:32:33.996Z</time></trkpt><trkpt lat="45.062777215721866" lon="8.239993351512"><ele>214.5</ele><time>2026-03-28T15:32:35.996Z</time></trkpt><trkpt lat="45.06283364102335" lon="8.239937119528676"><ele>215.0</ele><time>2026-03-28T15:32:36.996Z</time></trkpt><trkpt lat="45.06288748116545" lon="8.239870118171902"><ele>215.5</ele><time>2026-03-28T15:32:37.996Z</time></trkpt><trkpt lat="45.062962862157164" lon="8.23978833846822"><ele>216.0</ele><time>2026-03-28T15:32:38.996Z</time></trkpt><trkpt lat="45.06305193109626" lon="8.239696344514645"><ele>216.0</ele><time>2026-03-28T15:32:39.996Z</time></trkpt><trkpt lat="45.06315224684418" lon="8.239597539016748"><ele>216.0</ele><time>2026-03-28T15:32:40.996Z</time></trkpt><trkpt lat="45.063263271491216" lon="8.239487686886907"><ele>216.0</ele><time>2026-03-28T15:32:41.996Z</time></trkpt><trkpt lat="45.063384368602755" lon="8.23936763171056"><ele>216.0</ele><time>2026-03-28T15:32:42.996Z</time></trkpt><trkpt lat="45.06350802069691" lon="8.239245118029373"><ele>216.66666666666669</ele><time>2026-03-28T15:32:43.996Z</time></trkpt><trkpt lat="45.06362724321455" lon="8.239124393418946"><ele>217.33333333333334</ele><time>2026-03-28T15:32:44.996Z</time></trkpt><trkpt lat="45.06375619571778" lon="8.238997675499355"><ele>218.0</ele><time>2026-03-28T15:32:45.996Z</time></trkpt><trkpt lat="45.06389124864495" lon="8.238865756206245"><ele>218.0</ele><time>2026-03-28T15:32:46.996Z</time></trkpt><trkpt lat="45.06402990337995" lon="8.238734994229128"><ele>218.0</ele><time>2026-03-28T15:32:47.996Z</time></trkpt><trkpt lat="45.064174219868335" lon="8.238600938009284"><ele>218.0</ele><time>2026-03-28T15:32:48.997Z</time></trkpt><trkpt lat="45.06430579728359" lon="8.23847016021678"><ele>221.33333333333334</ele><time>2026-03-28T15:32:49.997Z</time></trkpt><trkpt lat="45.06443427847444" lon="8.238325061154033"><ele>224.66666666666669</ele><time>2026-03-28T15:32:50.997Z</time></trkpt><trkpt lat="45.06455510710203" lon="8.238162069348444"><ele>228.0</ele><time>2026-03-28T15:32:51.997Z</time></trkpt><trkpt lat="45.064662417961756" lon="8.237976201345113"><ele>228.33333333333331</ele><time>2026-03-28T15:32:52.997Z</time></trkpt><trkpt lat="45.064761156371084" lon="8.237780501478504"><ele>228.66666666666666</ele><time>2026-03-28T15:32:53.997Z</time></trkpt><trkpt lat="45.064857901644025" lon="8.237583452342104"><ele>229.0</ele><time>2026-03-28T15:32:54.997Z</time></trkpt><trkpt lat="45.064955428266074" lon="8.237389942396602"><ele>231.33333333333331</ele><time>2026-03-28T15:32:55.997Z</time></trkpt><trkpt lat="45.06505345464503" lon="8.237196717476731"><ele>233.66666666666669</ele><time>2026-03-28T15:32:56.997Z</time></trkpt><trkpt lat="45.065149512005156" lon="8.237010497088075"><ele>236.0</ele><time>2026-03-28T15:32:57.997Z</time></trkpt><trkpt lat="45.06524302374582" lon="8.236825207260058"><ele>236.0</ele><time>2026-03-28T15:32:58.997Z</time></trkpt><trkpt lat="45.06532971623812" lon="8.236635577617891"><ele>236.0</ele><time>2026-03-28T15:32:59.997Z</time></trkpt><trkpt lat="45.065405523805936" lon="8.236433939010917"><ele>236.0</ele><time>2026-03-28T15:33:00.997Z</time></trkpt><trkpt lat="45.065473401587475" lon="8.236221288785286"><ele>235.66666666666669</ele><time>2026-03-28T15:33:01.997Z</time></trkpt><trkpt lat="45.065529331287664" lon="8.236002297769483"><ele>235.33333333333331</ele><time>2026-03-28T15:33:02.997Z</time></trkpt><trkpt lat="45.065583522888346" lon="8.235786186109634"><ele>235.0</ele><time>2026-03-28T15:33:03.997Z</time></trkpt><trkpt lat="45.06564239448582" lon="8.235572874327845"><ele>235.0</ele><time>2026-03-28T15:33:04.997Z</time></trkpt><trkpt lat="45.06569550828668" lon="8.235362639058575"><ele>235.0</ele><time>2026-03-28T15:33:05.997Z</time></trkpt><trkpt lat="45.065749032253265" lon="8.235148289008189"><ele>235.0</ele><time>2026-03-28T15:33:06.997Z</time></trkpt><trkpt lat="45.06580422335495" lon="8.23493648981913"><ele>239.0</ele><time>2026-03-28T15:33:07.997Z</time></trkpt><trkpt lat="45.06585672228983" lon="8.234726314927922"><ele>243.0</ele><time>2026-03-28T15:33:08.997Z</time></trkpt><trkpt lat="45.065912707595814" lon="8.234519956844967"><ele>247.0</ele><time>2026-03-28T15:33:09.997Z</time></trkpt><trkpt lat="45.065966701188934" lon="8.234314137607189"><ele>247.0</ele><time>2026-03-28T15:33:10.997Z</time></trkpt><trkpt lat="45.0660162039623" lon="8.234106031474122"><ele>247.0</ele><time>2026-03-28T15:33:11.997Z</time></trkpt><trkpt lat="45.06607066315474" lon="8.233905336868858"><ele>247.0</ele><time>2026-03-28T15:33:12.997Z</time></trkpt><trkpt lat="45.066125429930615" lon="8.23370558151151"><ele>246.75</ele><time>2026-03-28T15:33:13.997Z</time></trkpt><trkpt lat="45.06617977351558" lon="8.23350877482439"><ele>246.5</ele><time>2026-03-28T15:33:14.997Z</time></trkpt><trkpt lat="45.066234507057665" lon="8.233313909048038"><ele>246.25</ele><time>2026-03-28T15:33:15.997Z</time></trkpt><trkpt lat="45.06628498400313" lon="8.233116929290482"><ele>246.0</ele><time>2026-03-28T15:33:16.997Z</time></trkpt><trkpt lat="45.06633643918833" lon="8.23292010378036"><ele>246.5</ele><time>2026-03-28T15:33:17.997Z</time></trkpt><trkpt lat="45.06638983104347" lon="8.232722911643409"><ele>247.0</ele><time>2026-03-28T15:33:18.997Z</time></trkpt><trkpt lat="45.06644315489195" lon="8.2325292973691"><ele>247.5</ele><time>2026-03-28T15:33:19.997Z</time></trkpt><trkpt lat="45.06649373686706" lon="8.23233481238511"><ele>248.0</ele><time>2026-03-28T15:33:20.997Z</time></trkpt><trkpt lat="45.066544356477465" lon="8.232136364042596"><ele>248.0</ele><time>2026-03-28T15:33:21.997Z</time></trkpt><trkpt lat="45.066597027752756" lon="8.231946385147141"><ele>248.0</ele><time>2026-03-28T15:33:22.997Z</time></trkpt><trkpt lat="45.06664786688961" lon="8.231757619336765"><ele>248.0</ele><time>2026-03-28T15:33:23.997Z</time></trkpt><trkpt lat="45.06669508765593" lon="8.231583126627601"><ele>248.0</ele><time>2026-03-28T15:33:24.997Z</time></trkpt><trkpt lat="45.066733608757175" lon="8.231428189938276"><ele>251.4</ele><time>2026-03-28T15:33:25.997Z</time></trkpt><trkpt lat="45.066775267138055" lon="8.231286312347594"><ele>254.8</ele><time>2026-03-28T15:33:26.997Z</time></trkpt><trkpt lat="45.06681035972893" lon="8.231146592238145"><ele>258.2</ele><time>2026-03-28T15:33:27.997Z</time></trkpt><trkpt lat="45.066838559520825" lon="8.230998429514141"><ele>261.6</ele><time>2026-03-28T15:33:28.997Z</time></trkpt><trkpt lat="45.066845048218184" lon="8.230835505006603"><ele>265.0</ele><time>2026-03-28T15:33:29.997Z</time></trkpt><trkpt lat="45.06682818160598" lon="8.230667433178306"><ele>265.75</ele><time>2026-03-28T15:33:30.997Z</time></trkpt><trkpt lat="45.06679348306678" lon="8.230494864390128"><ele>266.5</ele><time>2026-03-28T15:33:31.997Z</time></trkpt><trkpt lat="45.06673272112533" lon="8.230326216950012"><ele>267.25</ele><time>2026-03-28T15:33:32.997Z</time></trkpt><trkpt lat="45.0666510107255" lon="8.230164054238896"><ele>268.0</ele><time>2026-03-28T15:33:33.997Z</time></trkpt><trkpt lat="45.06655790772775" lon="8.230013736826463"><ele>267.25</ele><time>2026-03-28T15:33:34.997Z</time></trkpt><trkpt lat="45.06645341530283" lon="8.229873755167858"><ele>266.5</ele><time>2026-03-28T15:33:35.997Z</time></trkpt><trkpt lat="45.06635239966984" lon="8.229735049757183"><ele>265.75</ele><time>2026-03-28T15:33:36.997Z</time></trkpt><trkpt lat="45.06625587056543" lon="8.229582661887989"><ele>265.0</ele><time>2026-03-28T15:33:37.997Z</time></trkpt><trkpt lat="45.06615983994623" lon="8.22944214517114"><ele>265.0</ele><time>2026-03-28T15:33:38.997Z</time></trkpt><trkpt lat="45.066061215185286" lon="8.229299376270625"><ele>265.0</ele><time>2026-03-28T15:33:39.997Z</time></trkpt><trkpt lat="45.065959504712175" lon="8.229157713547908"><ele>265.0</ele><time>2026-03-28T15:33:40.997Z</time></trkpt><trkpt lat="45.06585869906627" lon="8.229016007239927"><ele>265.0</ele><time>2026-03-28T15:33:41.997Z</time></trkpt><trkpt lat="45.065757783825376" lon="8.22887809449352"><ele>265.75</ele><time>2026-03-28T15:33:42.997Z</time></trkpt><trkpt lat="45.06567113184352" lon="8.22874729656383"><ele>266.5</ele><time>2026-03-28T15:33:43.997Z</time></trkpt><trkpt lat="45.06558604034837" lon="8.228626283333725"><ele>267.25</ele><time>2026-03-28T15:33:44.997Z</time></trkpt><trkpt lat="45.0655073881398" lon="8.228510224907021"><ele>268.0</ele><time>2026-03-28T15:33:45.997Z</time></trkpt><trkpt lat="45.06541705646855" lon="8.22839664292207"><ele>268.0</ele><time>2026-03-28T15:33:46.997Z</time></trkpt><trkpt lat="45.0653234409949" lon="8.228295925378024"><ele>268.0</ele><time>2026-03-28T15:33:47.997Z</time></trkpt><trkpt lat="45.06523188975437" lon="8.22820531915464"><ele>268.0</ele><time>2026-03-28T15:33:48.997Z</time></trkpt><trkpt lat="45.06514366352424" lon="8.228123708026354"><ele>268.0</ele><time>2026-03-28T15:33:49.997Z</time></trkpt><trkpt lat="45.0650633455752" lon="8.228047485409157"><ele>268.0</ele><time>2026-03-28T15:33:50.997Z</time></trkpt><trkpt lat="45.06499023050441" lon="8.227977399802972"><ele>268.6</ele><time>2026-03-28T15:33:51.997Z</time></trkpt><trkpt lat="45.064915950313235" lon="8.227937524228155"><ele>269.20000000000005</ele><time>2026-03-28T15:33:52.997Z</time></trkpt><trkpt lat="45.0648561536028" lon="8.22786629944978"><ele>269.8</ele><time>2026-03-28T15:33:53.997Z</time></trkpt><trkpt lat="45.064799822464096" lon="8.227781153996842"><ele>270.40000000000003</ele><time>2026-03-28T15:33:54.997Z</time></trkpt><trkpt lat="45.06479447453254" lon="8.227632172454117"><ele>271.0</ele><time>2026-03-28T15:33:55.997Z</time></trkpt><trkpt lat="45.06483532293529" lon="8.22749445953592"><ele>271.0</ele><time>2026-03-28T15:33:56.997Z</time></trkpt><trkpt lat="45.06486206853894" lon="8.22733825761928"><ele>271.0</ele><time>2026-03-28T15:33:57.997Z</time></trkpt><trkpt lat="45.064890897783975" lon="8.227187287222332"><ele>271.0</ele><time>2026-03-28T15:33:58.997Z</time></trkpt><trkpt lat="45.064912002170146" lon="8.227045433173187"><ele>271.0</ele><time>2026-03-28T15:33:59.997Z</time></trkpt><trkpt lat="45.06492899217005" lon="8.226908134295986"><ele>271.0</ele><time>2026-03-28T15:34:00.997Z</time></trkpt><trkpt lat="45.06494696177168" lon="8.226767560657663"><ele>271.0</ele><time>2026-03-28T15:34:01.997Z</time></trkpt><trkpt lat="45.06496852625514" lon="8.226632629538232"><ele>271.0</ele><time>2026-03-28T15:34:02.997Z</time></trkpt><trkpt lat="45.06499815623951" lon="8.226507923478318"><ele>271.0</ele><time>2026-03-28T15:34:03.997Z</time></trkpt><trkpt lat="45.06504542710473" lon="8.226393358063033"><ele>271.0</ele><time>2026-03-28T15:34:04.997Z</time></trkpt><trkpt lat="45.065108924589495" lon="8.22630644553767"><ele>271.0</ele><time>2026-03-28T15:34:05.997Z</time></trkpt><trkpt lat="45.065200870716204" lon="8.226244684457486"><ele>268.5</ele><time>2026-03-28T15:34:06.997Z</time></trkpt><trkpt lat="45.06531556818565" lon="8.226203750932777"><ele>266.0</ele><time>2026-03-28T15:34:07.997Z</time></trkpt><trkpt lat="45.06543450206209" lon="8.226169003602019"><ele>263.5</ele><time>2026-03-28T15:34:08.997Z</time></trkpt><trkpt lat="45.0655571357157" lon="8.226134911751258"><ele>261.0</ele><time>2026-03-28T15:34:09.997Z</time></trkpt><trkpt lat="45.06569129524929" lon="8.226093930005405"><ele>261.25</ele><time>2026-03-28T15:34:10.997Z</time></trkpt><trkpt lat="45.065827722718886" lon="8.226056314652482"><ele>261.5</ele><time>2026-03-28T15:34:11.997Z</time></trkpt><trkpt lat="45.06596678155199" lon="8.22602191729979"><ele>261.75</ele><time>2026-03-28T15:34:12.997Z</time></trkpt><trkpt lat="45.06610357334718" lon="8.225984193782056"><ele>262.0</ele><time>2026-03-28T15:34:13.997Z</time></trkpt><trkpt lat="45.06623814366856" lon="8.225950790184955"><ele>262.0</ele><time>2026-03-28T15:34:14.997Z</time></trkpt><trkpt lat="45.06637852175543" lon="8.225911890392528"><ele>262.0</ele><time>2026-03-28T15:34:15.998Z</time></trkpt><trkpt lat="45.06652044582297" lon="8.225872091443224"><ele>262.0</ele><time>2026-03-28T15:34:16.998Z</time></trkpt><trkpt lat="45.06666685134205" lon="8.22582808557163"><ele>262.0</ele><time>2026-03-28T15:34:17.998Z</time></trkpt><trkpt lat="45.06681821939265" lon="8.225785979171883"><ele>261.0</ele><time>2026-03-28T15:34:18.998Z</time></trkpt><trkpt lat="45.06697457476982" lon="8.225741528504429"><ele>260.0</ele><time>2026-03-28T15:34:19.998Z</time></trkpt><trkpt lat="45.06713294153417" lon="8.225698488751318"><ele>259.0</ele><time>2026-03-28T15:34:20.998Z</time></trkpt><trkpt lat="45.06729416668766" lon="8.22565762434887"><ele>258.0</ele><time>2026-03-28T15:34:21.996Z</time></trkpt><trkpt lat="45.067451099451446" lon="8.225617729781423"><ele>257.0</ele><time>2026-03-28T15:34:22.996Z</time></trkpt><trkpt lat="45.06759567024353" lon="8.225584955104585"><ele>256.0</ele><time>2026-03-28T15:34:23.996Z</time></trkpt><trkpt lat="45.067734377130094" lon="8.225546690849116"><ele>255.0</ele><time>2026-03-28T15:34:24.996Z</time></trkpt><trkpt lat="45.067867930073184" lon="8.225516021104857"><ele>255.0</ele><time>2026-03-28T15:34:25.996Z</time></trkpt><trkpt lat="45.06800101602678" lon="8.225478740899966"><ele>255.0</ele><time>2026-03-28T15:34:26.996Z</time></trkpt><trkpt lat="45.068134823109276" lon="8.225431587539171"><ele>255.0</ele><time>2026-03-28T15:34:27.996Z</time></trkpt><trkpt lat="45.068263639198534" lon="8.225367308265117"><ele>255.0</ele><time>2026-03-28T15:34:28.996Z</time></trkpt><trkpt lat="45.06838558828762" lon="8.22527204249825"><ele>255.33333333333331</ele><time>2026-03-28T15:34:29.996Z</time></trkpt><trkpt lat="45.06849619166138" lon="8.225133361420502"><ele>255.66666666666666</ele><time>2026-03-28T15:34:30.996Z</time></trkpt><trkpt lat="45.06860369788059" lon="8.224967388598612"><ele>256.0</ele><time>2026-03-28T15:34:31.996Z</time></trkpt><trkpt lat="45.06871238170948" lon="8.224796852839647"><ele>256.0</ele><time>2026-03-28T15:34:32.996Z</time></trkpt><trkpt lat="45.06882688557972" lon="8.224630036579093"><ele>256.0</ele><time>2026-03-28T15:34:33.996Z</time></trkpt><trkpt lat="45.06894045521111" lon="8.224473500626491"><ele>256.0</ele><time>2026-03-28T15:34:34.996Z</time></trkpt><trkpt lat="45.069056702693295" lon="8.22431330301203"><ele>259.0</ele><time>2026-03-28T15:34:35.996Z</time></trkpt><trkpt lat="45.06917427398999" lon="8.224147456505264"><ele>262.0</ele><time>2026-03-28T15:34:36.996Z</time></trkpt><trkpt lat="45.06928884583023" lon="8.223987691475374"><ele>265.0</ele><time>2026-03-28T15:34:37.996Z</time></trkpt><trkpt lat="45.069399845355534" lon="8.223828891012479"><ele>265.0</ele><time>2026-03-28T15:34:38.996Z</time></trkpt><trkpt lat="45.06950945838857" lon="8.223670836380292"><ele>265.0</ele><time>2026-03-28T15:34:39.996Z</time></trkpt><trkpt lat="45.06962134350595" lon="8.223513329331961"><ele>265.0</ele><time>2026-03-28T15:34:40.996Z</time></trkpt><trkpt lat="45.0697309006912" lon="8.223360691162933"><ele>265.0</ele><time>2026-03-28T15:34:41.996Z</time></trkpt><trkpt lat="45.06983082813059" lon="8.223217003901986"><ele>265.0</ele><time>2026-03-28T15:34:42.996Z</time></trkpt><trkpt lat="45.069915973237556" lon="8.22307276934222"><ele>265.0</ele><time>2026-03-28T15:34:43.996Z</time></trkpt><trkpt lat="45.06998195359789" lon="8.222917491342367"><ele>265.0</ele><time>2026-03-28T15:34:44.996Z</time></trkpt><trkpt lat="45.07002456410978" lon="8.22274229965384"><ele>266.5</ele><time>2026-03-28T15:34:45.996Z</time></trkpt><trkpt lat="45.07004953711676" lon="8.22255965099797"><ele>268.0</ele><time>2026-03-28T15:34:46.996Z</time></trkpt><trkpt lat="45.070064199997766" lon="8.222361638507167"><ele>269.5</ele><time>2026-03-28T15:34:47.996Z</time></trkpt><trkpt lat="45.07007509009956" lon="8.222159851436185"><ele>271.0</ele><time>2026-03-28T15:34:48.996Z</time></trkpt><trkpt lat="45.07008870449424" lon="8.221961190521478"><ele>271.25</ele><time>2026-03-28T15:34:49.996Z</time></trkpt><trkpt lat="45.070103106622575" lon="8.221765305675499"><ele>271.5</ele><time>2026-03-28T15:34:50.996Z</time></trkpt><trkpt lat="45.07011621446652" lon="8.221569227997652"><ele>271.75</ele><time>2026-03-28T15:34:51.996Z</time></trkpt><trkpt lat="45.07012953301402" lon="8.221368000310536"><ele>272.0</ele><time>2026-03-28T15:34:52.996Z</time></trkpt><trkpt lat="45.070138012379424" lon="8.221159733755144"><ele>272.33333333333337</ele><time>2026-03-28T15:34:53.996Z</time></trkpt><trkpt lat="45.070149065032524" lon="8.220930242022702"><ele>272.6666666666667</ele><time>2026-03-28T15:34:54.996Z</time></trkpt><trkpt lat="45.07016838491494" lon="8.220711449404407"><ele>273.0</ele><time>2026-03-28T15:34:55.996Z</time></trkpt><trkpt lat="45.0701862121229" lon="8.220502505690094"><ele>273.0</ele><time>2026-03-28T15:34:56.996Z</time></trkpt><trkpt lat="45.07018362404315" lon="8.220301367561314"><ele>273.0</ele><time>2026-03-28T15:34:57.996Z</time></trkpt><trkpt lat="45.07016570655958" lon="8.220095678000794"><ele>273.0</ele><time>2026-03-28T15:34:58.996Z</time></trkpt><trkpt lat="45.070137278062454" lon="8.219884260351048"><ele>273.0</ele><time>2026-03-28T15:34:59.996Z</time></trkpt><trkpt lat="45.07011866695454" lon="8.219672082045442"><ele>276.0</ele><time>2026-03-28T15:35:00.996Z</time></trkpt><trkpt lat="45.070109183400845" lon="8.219449594283736"><ele>279.0</ele><time>2026-03-28T15:35:01.996Z</time></trkpt><trkpt lat="45.07010795782758" lon="8.21922301821988"><ele>282.0</ele><time>2026-03-28T15:35:02.997Z</time></trkpt><trkpt lat="45.07010723112108" lon="8.218997148117156"><ele>284.0</ele><time>2026-03-28T15:35:03.997Z</time></trkpt><trkpt lat="45.07010628120548" lon="8.218770953954193"><ele>286.0</ele><time>2026-03-28T15:35:04.997Z</time></trkpt><trkpt lat="45.07010616011194" lon="8.21854757599524"><ele>288.0</ele><time>2026-03-28T15:35:05.997Z</time></trkpt><trkpt lat="45.07010456424562" lon="8.218329921869687"><ele>290.0</ele><time>2026-03-28T15:35:06.997Z</time></trkpt><trkpt lat="45.07010286601284" lon="8.218131895330474"><ele>292.0</ele><time>2026-03-28T15:35:07.997Z</time></trkpt><trkpt lat="45.07010140387127" lon="8.21796193825806"><ele>294.0</ele><time>2026-03-28T15:35:08.997Z</time></trkpt><trkpt lat="45.07009600552497" lon="8.217778794392197"><ele>296.0</ele><time>2026-03-28T15:35:09.997Z</time></trkpt><trkpt lat="45.07009309581005" lon="8.217594825747733"><ele>296.0</ele><time>2026-03-28T15:35:10.997Z</time></trkpt><trkpt lat="45.07009475938401" lon="8.217413528700346"><ele>296.0</ele><time>2026-03-28T15:35:11.997Z</time></trkpt><trkpt lat="45.07010146584024" lon="8.217232492121727"><ele>296.0</ele><time>2026-03-28T15:35:12.997Z</time></trkpt><trkpt lat="45.070112773077575" lon="8.217059005501289"><ele>296.0</ele><time>2026-03-28T15:35:13.997Z</time></trkpt><trkpt lat="45.07012505916207" lon="8.216894551102916"><ele>296.0</ele><time>2026-03-28T15:35:14.997Z</time></trkpt><trkpt lat="45.070139478832054" lon="8.216755486549324"><ele>296.0</ele><time>2026-03-28T15:35:15.997Z</time></trkpt><trkpt lat="45.07015098408343" lon="8.216635570365131"><ele>296.0</ele><time>2026-03-28T15:35:16.997Z</time></trkpt><trkpt lat="45.07016105211849" lon="8.216517443498327"><ele>296.0</ele><time>2026-03-28T15:35:17.997Z</time></trkpt><trkpt lat="45.070181028169685" lon="8.216397691328584"><ele>296.0</ele><time>2026-03-28T15:35:18.997Z</time></trkpt><trkpt lat="45.07021036953298" lon="8.216275247573863"><ele>296.0</ele><time>2026-03-28T15:35:19.997Z</time></trkpt><trkpt lat="45.07025415813768" lon="8.216160891545524"><ele>296.0</ele><time>2026-03-28T15:35:20.997Z</time></trkpt><trkpt lat="45.070322558912316" lon="8.216057136867649"><ele>296.0</ele><time>2026-03-28T15:35:21.997Z</time></trkpt><trkpt lat="45.070413632236324" lon="8.215973743278155"><ele>296.0</ele><time>2026-03-28T15:35:22.997Z</time></trkpt><trkpt lat="45.070521775746094" lon="8.215908730333872"><ele>296.0</ele><time>2026-03-28T15:35:23.997Z</time></trkpt><trkpt lat="45.07063485996477" lon="8.215844297014728"><ele>296.0</ele><time>2026-03-28T15:35:24.997Z</time></trkpt><trkpt lat="45.070740272066786" lon="8.215758674505823"><ele>293.75</ele><time>2026-03-28T15:35:25.997Z</time></trkpt><trkpt lat="45.07082492597727" lon="8.215637295070374"><ele>291.5</ele><time>2026-03-28T15:35:26.997Z</time></trkpt><trkpt lat="45.07088556481097" lon="8.215489729075228"><ele>289.25</ele><time>2026-03-28T15:35:27.997Z</time></trkpt><trkpt lat="45.07092724718555" lon="8.215332855260929"><ele>287.0</ele><time>2026-03-28T15:35:28.997Z</time></trkpt><trkpt lat="45.07094704788796" lon="8.215164593908012"><ele>287.0</ele><time>2026-03-28T15:35:29.997Z</time></trkpt><trkpt lat="45.07094456922236" lon="8.214988640914235"><ele>287.0</ele><time>2026-03-28T15:35:30.997Z</time></trkpt><trkpt lat="45.07092028343718" lon="8.214814224002176"><ele>287.0</ele><time>2026-03-28T15:35:31.997Z</time></trkpt><trkpt lat="45.07089062630749" lon="8.214645199449322"><ele>287.0</ele><time>2026-03-28T15:35:32.997Z</time></trkpt><trkpt lat="45.07086971279737" lon="8.214495315623404"><ele>285.8</ele><time>2026-03-28T15:35:33.997Z</time></trkpt><trkpt lat="45.07086045960877" lon="8.214352428253786"><ele>284.6</ele><time>2026-03-28T15:35:34.997Z</time></trkpt><trkpt lat="45.07087478261425" lon="8.214214628286655"><ele>283.40000000000003</ele><time>2026-03-28T15:35:35.997Z</time></trkpt><trkpt lat="45.070904854575105" lon="8.21407608641013"><ele>282.2</ele><time>2026-03-28T15:35:36.997Z</time></trkpt><trkpt lat="45.070958348080346" lon="8.213927950151263"><ele>281.0</ele><time>2026-03-28T15:35:37.997Z</time></trkpt><trkpt lat="45.07101576987447" lon="8.213769893997828"><ele>279.5</ele><time>2026-03-28T15:35:38.997Z</time></trkpt><trkpt lat="45.07107421230217" lon="8.213603490370822"><ele>278.0</ele><time>2026-03-28T15:35:39.997Z</time></trkpt><trkpt lat="45.071132390492934" lon="8.213433421665915"><ele>276.5</ele><time>2026-03-28T15:35:40.997Z</time></trkpt><trkpt lat="45.07119359665108" lon="8.21326470045448"><ele>275.0</ele><time>2026-03-28T15:35:41.997Z</time></trkpt><trkpt lat="45.07125160506734" lon="8.21308886280616"><ele>273.25</ele><time>2026-03-28T15:35:42.997Z</time></trkpt><trkpt lat="45.07131770636069" lon="8.212916074450279"><ele>271.5</ele><time>2026-03-28T15:35:43.997Z</time></trkpt><trkpt lat="45.071376276588545" lon="8.21275182513829"><ele>269.75</ele><time>2026-03-28T15:35:44.997Z</time></trkpt><trkpt lat="45.07143071131168" lon="8.212592466101071"><ele>268.0</ele><time>2026-03-28T15:35:45.997Z</time></trkpt><trkpt lat="45.07149086712057" lon="8.212442615154718"><ele>266.75</ele><time>2026-03-28T15:35:46.997Z</time></trkpt><trkpt lat="45.0715586581109" lon="8.21230578178611"><ele>265.5</ele><time>2026-03-28T15:35:47.997Z</time></trkpt><trkpt lat="45.071644000229945" lon="8.21217994193654"><ele>264.25</ele><time>2026-03-28T15:35:48.997Z</time></trkpt><trkpt lat="45.07173563185386" lon="8.212063953737452"><ele>263.0</ele><time>2026-03-28T15:35:49.997Z</time></trkpt><trkpt lat="45.071822049509514" lon="8.211940719746325"><ele>266.25</ele><time>2026-03-28T15:35:50.997Z</time></trkpt><trkpt lat="45.071878548857875" lon="8.211797329177118"><ele>269.5</ele><time>2026-03-28T15:35:51.997Z</time></trkpt><trkpt lat="45.07189771129168" lon="8.2116278567081"><ele>272.75</ele><time>2026-03-28T15:35:52.997Z</time></trkpt><trkpt lat="45.071881850588774" lon="8.211450938472684"><ele>276.0</ele><time>2026-03-28T15:35:53.997Z</time></trkpt><trkpt lat="45.07184463900041" lon="8.211275025589334"><ele>276.75</ele><time>2026-03-28T15:35:54.997Z</time></trkpt><trkpt lat="45.07178785196005" lon="8.211091582872484"><ele>277.5</ele><time>2026-03-28T15:35:55.997Z</time></trkpt><trkpt lat="45.07173044717675" lon="8.210900915463323"><ele>278.25</ele><time>2026-03-28T15:35:56.997Z</time></trkpt><trkpt lat="45.07167321925336" lon="8.210706871717223"><ele>279.0</ele><time>2026-03-28T15:35:57.997Z</time></trkpt><trkpt lat="45.071619302030605" lon="8.210512113826834"><ele>277.75</ele><time>2026-03-28T15:35:58.997Z</time></trkpt><trkpt lat="45.071582773840476" lon="8.210325750385644"><ele>276.5</ele><time>2026-03-28T15:35:59.997Z</time></trkpt><trkpt lat="45.0715648763463" lon="8.210146439357958"><ele>275.25</ele><time>2026-03-28T15:36:00.997Z</time></trkpt><trkpt lat="45.07156961187734" lon="8.209963447159915"><ele>274.0</ele><time>2026-03-28T15:36:01.997Z</time></trkpt><trkpt lat="45.0715918338893" lon="8.209777680969728"><ele>276.5</ele><time>2026-03-28T15:36:02.997Z</time></trkpt><trkpt lat="45.071620572479944" lon="8.209585902605465"><ele>279.0</ele><time>2026-03-28T15:36:03.997Z</time></trkpt><trkpt lat="45.071643934193936" lon="8.20939108702148"><ele>281.5</ele><time>2026-03-28T15:36:04.997Z</time></trkpt><trkpt lat="45.07166429818007" lon="8.209191932823375"><ele>284.0</ele><time>2026-03-28T15:36:05.997Z</time></trkpt><trkpt lat="45.07168428972519" lon="8.208985883503567"><ele>284.25</ele><time>2026-03-28T15:36:06.997Z</time></trkpt><trkpt lat="45.07171074764365" lon="8.208780354649047"><ele>284.5</ele><time>2026-03-28T15:36:07.997Z</time></trkpt><trkpt lat="45.07174057956993" lon="8.208572057738923"><ele>284.75</ele><time>2026-03-28T15:36:08.997Z</time></trkpt><trkpt lat="45.0717644163239" lon="8.208364484076764"><ele>285.0</ele><time>2026-03-28T15:36:09.997Z</time></trkpt><trkpt lat="45.07178699942729" lon="8.208164899835822"><ele>285.5</ele><time>2026-03-28T15:36:10.997Z</time></trkpt><trkpt lat="45.07180021791758" lon="8.20796826448821"><ele>286.0</ele><time>2026-03-28T15:36:11.997Z</time></trkpt><trkpt lat="45.071801769975835" lon="8.20777411472048"><ele>286.5</ele><time>2026-03-28T15:36:12.997Z</time></trkpt><trkpt lat="45.07178203131046" lon="8.20757970162804"><ele>287.0</ele><time>2026-03-28T15:36:13.997Z</time></trkpt><trkpt lat="45.07173768468237" lon="8.207401595619194"><ele>287.75</ele><time>2026-03-28T15:36:14.997Z</time></trkpt><trkpt lat="45.07169201581082" lon="8.207237223393058"><ele>288.5</ele><time>2026-03-28T15:36:15.997Z</time></trkpt><trkpt lat="45.07164619108195" lon="8.207076929588027"><ele>289.25</ele><time>2026-03-28T15:36:16.997Z</time></trkpt><trkpt lat="45.07160090733938" lon="8.206907522744519"><ele>290.0</ele><time>2026-03-28T15:36:17.997Z</time></trkpt><trkpt lat="45.07154300658829" lon="8.206750363107535"><ele>287.75</ele><time>2026-03-28T15:36:18.997Z</time></trkpt><trkpt lat="45.07147612941573" lon="8.206606490543678"><ele>285.5</ele><time>2026-03-28T15:36:19.997Z</time></trkpt><trkpt lat="45.0713896558086" lon="8.206467933329584"><ele>283.25</ele><time>2026-03-28T15:36:20.997Z</time></trkpt><trkpt lat="45.07129825745555" lon="8.206337842687525"><ele>281.0</ele><time>2026-03-28T15:36:21.997Z</time></trkpt><trkpt lat="45.071210076304084" lon="8.20621761763021"><ele>281.0</ele><time>2026-03-28T15:36:22.997Z</time></trkpt><trkpt lat="45.07113228728205" lon="8.206104441834452"><ele>281.0</ele><time>2026-03-28T15:36:23.997Z</time></trkpt><trkpt lat="45.071070328925224" lon="8.206002512499298"><ele>281.0</ele><time>2026-03-28T15:36:24.997Z</time></trkpt><trkpt lat="45.07102509992755" lon="8.205896827326821"><ele>281.0</ele><time>2026-03-28T15:36:25.997Z</time></trkpt><trkpt lat="45.0709997692385" lon="8.20577939619362"><ele>281.0</ele><time>2026-03-28T15:36:26.997Z</time></trkpt><trkpt lat="45.070987465815506" lon="8.20564503431447"><ele>280.5</ele><time>2026-03-28T15:36:27.995Z</time></trkpt><trkpt lat="45.0709830905825" lon="8.205507987221848"><ele>280.0</ele><time>2026-03-28T15:36:28.996Z</time></trkpt><trkpt lat="45.070980206812266" lon="8.205384287341433"><ele>279.5</ele><time>2026-03-28T15:36:29.996Z</time></trkpt><trkpt lat="45.07100325102393" lon="8.205279834912272"><ele>279.0</ele><time>2026-03-28T15:36:30.996Z</time></trkpt><trkpt lat="45.0710429461077" lon="8.205196825512742"><ele>278.5</ele><time>2026-03-28T15:36:31.995Z</time></trkpt><trkpt lat="45.0711064156757" lon="8.20515212813879"><ele>278.0</ele><time>2026-03-28T15:36:32.995Z</time></trkpt><trkpt lat="45.07118180847919" lon="8.205135141252846"><ele>278.0</ele><time>2026-03-28T15:36:33.996Z</time></trkpt><trkpt lat="45.07128214479791" lon="8.205146205822924"><ele>278.0</ele><time>2026-03-28T15:36:34.996Z</time></trkpt><trkpt lat="45.071398330603856" lon="8.205163531753126"><ele>278.0</ele><time>2026-03-28T15:36:35.996Z</time></trkpt><trkpt lat="45.07152038621386" lon="8.205183729535872"><ele>278.0</ele><time>2026-03-28T15:36:36.996Z</time></trkpt><trkpt lat="45.07166042284851" lon="8.20520822765792"><ele>277.33333333333337</ele><time>2026-03-28T15:36:37.996Z</time></trkpt><trkpt lat="45.0718106795736" lon="8.205244407113273"><ele>276.6666666666667</ele><time>2026-03-28T15:36:38.996Z</time></trkpt><trkpt lat="45.07195813828375" lon="8.205272516968899"><ele>276.0</ele><time>2026-03-28T15:36:39.995Z</time></trkpt><trkpt lat="45.0721121874162" lon="8.205264003056241"><ele>276.0</ele><time>2026-03-28T15:36:40.996Z</time></trkpt><trkpt lat="45.07226539282207" lon="8.20520775687486"><ele>276.0</ele><time>2026-03-28T15:36:41.996Z</time></trkpt><trkpt lat="45.07241159160185" lon="8.205109429493724"><ele>276.0</ele><time>2026-03-28T15:36:42.996Z</time></trkpt><trkpt lat="45.072560953268635" lon="8.205008824312609"><ele>276.5</ele><time>2026-03-28T15:36:43.996Z</time></trkpt><trkpt lat="45.07270194575613" lon="8.204903312346179"><ele>277.0</ele><time>2026-03-28T15:36:44.996Z</time></trkpt><trkpt lat="45.07283447988801" lon="8.204810626426116"><ele>277.5</ele><time>2026-03-28T15:36:45.996Z</time></trkpt><trkpt lat="45.07295242961091" lon="8.20473750537608"><ele>278.0</ele><time>2026-03-28T15:36:46.996Z</time></trkpt><trkpt lat="45.07306719861032" lon="8.20469397306863"><ele>275.75</ele><time>2026-03-28T15:36:47.996Z</time></trkpt><trkpt lat="45.07319653650658" lon="8.204681159924903"><ele>273.5</ele><time>2026-03-28T15:36:48.996Z</time></trkpt><trkpt lat="45.073333883464635" lon="8.204700920159784"><ele>271.25</ele><time>2026-03-28T15:36:49.996Z</time></trkpt><trkpt lat="45.073467260566034" lon="8.204724157703554"><ele>269.0</ele><time>2026-03-28T15:36:50.996Z</time></trkpt><trkpt lat="45.07359480811288" lon="8.20477081192502"><ele>271.75</ele><time>2026-03-28T15:36:51.996Z</time></trkpt><trkpt lat="45.0737169943962" lon="8.204847284736248"><ele>274.5</ele><time>2026-03-28T15:36:52.996Z</time></trkpt><trkpt lat="45.07382243056575" lon="8.204936691083454"><ele>277.25</ele><time>2026-03-28T15:36:53.996Z</time></trkpt><trkpt lat="45.07391526111664" lon="8.205011667280447"><ele>280.0</ele><time>2026-03-28T15:36:54.996Z</time></trkpt><trkpt lat="45.0740162874411" lon="8.205049287101762"><ele>279.8</ele><time>2026-03-28T15:36:55.996Z</time></trkpt><trkpt lat="45.074117208903054" lon="8.205038985350084"><ele>279.6</ele><time>2026-03-28T15:36:56.996Z</time></trkpt><trkpt lat="45.074201229475214" lon="8.204980274237709"><ele>279.4</ele><time>2026-03-28T15:36:57.996Z</time></trkpt><trkpt lat="45.07426013403455" lon="8.204889321877907"><ele>279.2</ele><time>2026-03-28T15:36:58.996Z</time></trkpt><trkpt lat="45.07430984706321" lon="8.204749994830674"><ele>279.0</ele><time>2026-03-28T15:36:59.996Z</time></trkpt><trkpt lat="45.07432132548472" lon="8.20457779994428"><ele>278.0</ele><time>2026-03-28T15:37:00.996Z</time></trkpt><trkpt lat="45.074299343433786" lon="8.20439152946487"><ele>277.0</ele><time>2026-03-28T15:37:01.996Z</time></trkpt><trkpt lat="45.074251229198524" lon="8.204213371015369"><ele>276.0</ele><time>2026-03-28T15:37:02.996Z</time></trkpt><trkpt lat="45.074172957756566" lon="8.204042202269987"><ele>275.0</ele><time>2026-03-28T15:37:03.996Z</time></trkpt><trkpt lat="45.07406543423659" lon="8.203886078638494"><ele>271.33333333333337</ele><time>2026-03-28T15:37:04.996Z</time></trkpt><trkpt lat="45.073951391316214" lon="8.203735173920363"><ele>267.6666666666667</ele><time>2026-03-28T15:37:05.996Z</time></trkpt><trkpt lat="45.07384717112285" lon="8.203580820327748"><ele>264.0</ele><time>2026-03-28T15:37:06.996Z</time></trkpt><trkpt lat="45.07374642763264" lon="8.20340193043454"><ele>264.0</ele><time>2026-03-28T15:37:07.996Z</time></trkpt><trkpt lat="45.073659152254386" lon="8.203223505622887"><ele>264.0</ele><time>2026-03-28T15:37:08.996Z</time></trkpt><trkpt lat="45.07358256416309" lon="8.203046271776044"><ele>264.0</ele><time>2026-03-28T15:37:09.996Z</time></trkpt><trkpt lat="45.073511398855246" lon="8.202878209311532"><ele>264.0</ele><time>2026-03-28T15:37:10.996Z</time></trkpt><trkpt lat="45.07345482917628" lon="8.202707631305826"><ele>266.5</ele><time>2026-03-28T15:37:11.996Z</time></trkpt><trkpt lat="45.07341260308247" lon="8.202519092848345"><ele>269.0</ele><time>2026-03-28T15:37:12.996Z</time></trkpt><trkpt lat="45.073389823285105" lon="8.202322283372952"><ele>271.5</ele><time>2026-03-28T15:37:13.996Z</time></trkpt><trkpt lat="45.07338068473796" lon="8.202121559681414"><ele>274.0</ele><time>2026-03-28T15:37:14.996Z</time></trkpt><trkpt lat="45.073380776022844" lon="8.201923106069373"><ele>274.5</ele><time>2026-03-28T15:37:15.996Z</time></trkpt><trkpt lat="45.07337283438774" lon="8.201724992061829"><ele>275.0</ele><time>2026-03-28T15:37:16.996Z</time></trkpt><trkpt lat="45.0733541278979" lon="8.201530513544862"><ele>275.5</ele><time>2026-03-28T15:37:17.996Z</time></trkpt><trkpt lat="45.07332663682463" lon="8.20135483590543"><ele>276.0</ele><time>2026-03-28T15:37:18.996Z</time></trkpt><trkpt lat="45.073283213854616" lon="8.201197971055727"><ele>275.40000000000003</ele><time>2026-03-28T15:37:19.996Z</time></trkpt><trkpt lat="45.073226566363644" lon="8.201054038755201"><ele>274.8</ele><time>2026-03-28T15:37:20.997Z</time></trkpt><trkpt lat="45.07316906148004" lon="8.200926477431498"><ele>274.20000000000005</ele><time>2026-03-28T15:37:21.997Z</time></trkpt><trkpt lat="45.07311589689958" lon="8.200805874062379"><ele>273.6</ele><time>2026-03-28T15:37:22.997Z</time></trkpt><trkpt lat="45.073066232096544" lon="8.200685839758163"><ele>273.0</ele><time>2026-03-28T15:37:23.997Z</time></trkpt><trkpt lat="45.073010242465855" lon="8.20055410484955"><ele>273.0</ele><time>2026-03-28T15:37:24.997Z</time></trkpt><trkpt lat="45.07295013132422" lon="8.200410854469915"><ele>273.0</ele><time>2026-03-28T15:37:25.997Z</time></trkpt><trkpt lat="45.07288571090266" lon="8.200257252292317"><ele>273.0</ele><time>2026-03-28T15:37:26.997Z</time></trkpt><trkpt lat="45.072817393200964" lon="8.20009655059674"><ele>273.0</ele><time>2026-03-28T15:37:27.997Z</time></trkpt><trkpt lat="45.07274823106744" lon="8.199928441599416"><ele>274.5</ele><time>2026-03-28T15:37:28.997Z</time></trkpt><trkpt lat="45.07267382897245" lon="8.199753960554759"><ele>276.0</ele><time>2026-03-28T15:37:29.997Z</time></trkpt><trkpt lat="45.07259588875432" lon="8.199573280772496"><ele>277.5</ele><time>2026-03-28T15:37:30.997Z</time></trkpt><trkpt lat="45.07251888088728" lon="8.199399587067175"><ele>279.0</ele><time>2026-03-28T15:37:31.997Z</time></trkpt><trkpt lat="45.0724531083425" lon="8.199239668249657"><ele>275.2</ele><time>2026-03-28T15:37:32.997Z</time></trkpt><trkpt lat="45.07239452327633" lon="8.1991068017007"><ele>271.4</ele><time>2026-03-28T15:37:33.997Z</time></trkpt><trkpt lat="45.07234689453092" lon="8.198987310524329"><ele>267.6</ele><time>2026-03-28T15:37:34.997Z</time></trkpt><trkpt lat="45.07231693965635" lon="8.198860895339363"><ele>263.8</ele><time>2026-03-28T15:37:35.997Z</time></trkpt><trkpt lat="45.072310582620005" lon="8.198736580625027"><ele>260.0</ele><time>2026-03-28T15:37:36.997Z</time></trkpt><trkpt lat="45.0723239863655" lon="8.19861105596477"><ele>260.4</ele><time>2026-03-28T15:37:37.997Z</time></trkpt><trkpt lat="45.072360885004194" lon="8.198495381500416"><ele>260.8</ele><time>2026-03-28T15:37:38.997Z</time></trkpt><trkpt lat="45.072436296291954" lon="8.198391956411509"><ele>261.2</ele><time>2026-03-28T15:37:39.997Z</time></trkpt><trkpt lat="45.072527375479545" lon="8.19829082624567"><ele>261.6</ele><time>2026-03-28T15:37:40.997Z</time></trkpt><trkpt lat="45.07264070177327" lon="8.198190003800487"><ele>262.0</ele><time>2026-03-28T15:37:41.997Z</time></trkpt><trkpt lat="45.07276626740244" lon="8.198081464775708"><ele>262.0</ele><time>2026-03-28T15:37:42.997Z</time></trkpt><trkpt lat="45.07289699604041" lon="8.197966100952542"><ele>262.0</ele><time>2026-03-28T15:37:43.997Z</time></trkpt><trkpt lat="45.07302757743057" lon="8.197841381532717"><ele>262.0</ele><time>2026-03-28T15:37:44.997Z</time></trkpt><trkpt lat="45.07316122221283" lon="8.19773851384875"><ele>264.0</ele><time>2026-03-28T15:37:45.997Z</time></trkpt><trkpt lat="45.07330236962766" lon="8.197665178469778"><ele>266.0</ele><time>2026-03-28T15:37:46.997Z</time></trkpt><trkpt lat="45.07344448249393" lon="8.197638248005973"><ele>268.0</ele><time>2026-03-28T15:37:47.997Z</time></trkpt><trkpt lat="45.07359070660922" lon="8.197651762183686"><ele>270.0</ele><time>2026-03-28T15:37:48.997Z</time></trkpt><trkpt lat="45.07374270860146" lon="8.197676911888644"><ele>270.0</ele><time>2026-03-28T15:37:49.997Z</time></trkpt><trkpt lat="45.07389702179109" lon="8.19767524707144"><ele>270.0</ele><time>2026-03-28T15:37:50.997Z</time></trkpt><trkpt lat="45.074049883552384" lon="8.197620598070365"><ele>270.0</ele><time>2026-03-28T15:37:51.997Z</time></trkpt><trkpt lat="45.074196212061906" lon="8.19753697401775"><ele>271.0</ele><time>2026-03-28T15:37:52.997Z</time></trkpt><trkpt lat="45.07431936215696" lon="8.197444719780039"><ele>272.0</ele><time>2026-03-28T15:37:53.997Z</time></trkpt><trkpt lat="45.074445859125326" lon="8.197362817210664"><ele>273.0</ele><time>2026-03-28T15:37:54.997Z</time></trkpt><trkpt lat="45.07458562186107" lon="8.197311073982254"><ele>274.0</ele><time>2026-03-28T15:37:55.997Z</time></trkpt><trkpt lat="45.07473641157149" lon="8.197279910972362"><ele>273.25</ele><time>2026-03-28T15:37:56.997Z</time></trkpt><trkpt lat="45.07489056094243" lon="8.197256138999895"><ele>272.5</ele><time>2026-03-28T15:37:57.997Z</time></trkpt><trkpt lat="45.0750340154415" lon="8.19724125284807"><ele>271.75</ele><time>2026-03-28T15:37:58.997Z</time></trkpt><trkpt lat="45.07516003239986" lon="8.197213364034042"><ele>271.0</ele><time>2026-03-28T15:37:59.997Z</time></trkpt><trkpt lat="45.07525731956497" lon="8.197173375565788"><ele>271.0</ele><time>2026-03-28T15:38:00.997Z</time></trkpt><trkpt lat="45.07532826172106" lon="8.197098241245866"><ele>271.0</ele><time>2026-03-28T15:38:01.997Z</time></trkpt><trkpt lat="45.075368303256916" lon="8.196979375409875"><ele>271.0</ele><time>2026-03-28T15:38:02.997Z</time></trkpt><trkpt lat="45.07538180255746" lon="8.196819297738871"><ele>271.0</ele><time>2026-03-28T15:38:03.997Z</time></trkpt><trkpt lat="45.07539066797752" lon="8.196641594118388"><ele>271.0</ele><time>2026-03-28T15:38:04.997Z</time></trkpt><trkpt lat="45.07540477553223" lon="8.19644932838965"><ele>270.0</ele><time>2026-03-28T15:38:05.997Z</time></trkpt><trkpt lat="45.07544457979078" lon="8.196259692912182"><ele>269.0</ele><time>2026-03-28T15:38:06.997Z</time></trkpt><trkpt lat="45.075505242912094" lon="8.196079712119854"><ele>268.0</ele><time>2026-03-28T15:38:07.997Z</time></trkpt><trkpt lat="45.0756029397439" lon="8.195903919980436"><ele>267.0</ele><time>2026-03-28T15:38:08.997Z</time></trkpt><trkpt lat="45.075714776298696" lon="8.195738428872305"><ele>267.25</ele><time>2026-03-28T15:38:09.997Z</time></trkpt><trkpt lat="45.07583570808906" lon="8.195589357065716"><ele>267.5</ele><time>2026-03-28T15:38:10.997Z</time></trkpt><trkpt lat="45.07595284163727" lon="8.195459965728686"><ele>267.75</ele><time>2026-03-28T15:38:11.997Z</time></trkpt><trkpt lat="45.076071771410156" lon="8.195366518812593"><ele>268.0</ele><time>2026-03-28T15:38:12.997Z</time></trkpt><trkpt lat="45.07619839694025" lon="8.195323432534202"><ele>268.0</ele><time>2026-03-28T15:38:13.997Z</time></trkpt><trkpt lat="45.07632731294538" lon="8.195338139338533"><ele>268.0</ele><time>2026-03-28T15:38:14.997Z</time></trkpt><trkpt lat="45.076457342691825" lon="8.195380365682306"><ele>268.0</ele><time>2026-03-28T15:38:15.997Z</time></trkpt><trkpt lat="45.07659211663369" lon="8.195448164738881"><ele>268.0</ele><time>2026-03-28T15:38:16.997Z</time></trkpt><trkpt lat="45.07671825776521" lon="8.195508265307815"><ele>269.4</ele><time>2026-03-28T15:38:17.997Z</time></trkpt><trkpt lat="45.07683111077082" lon="8.195524109205785"><ele>270.8</ele><time>2026-03-28T15:38:18.997Z</time></trkpt><trkpt lat="45.07692730112098" lon="8.195485926085558"><ele>272.2</ele><time>2026-03-28T15:38:19.997Z</time></trkpt><trkpt lat="45.077010994273735" lon="8.195398709100125"><ele>273.6</ele><time>2026-03-28T15:38:20.997Z</time></trkpt><trkpt lat="45.07707032503795" lon="8.195276293791181"><ele>275.0</ele><time>2026-03-28T15:38:21.997Z</time></trkpt><trkpt lat="45.077118602202994" lon="8.195139721714902"><ele>275.0</ele><time>2026-03-28T15:38:22.997Z</time></trkpt><trkpt lat="45.07718119067908" lon="8.194992861679467"><ele>275.0</ele><time>2026-03-28T15:38:23.997Z</time></trkpt><trkpt lat="45.077248869809075" lon="8.19484923075163"><ele>275.0</ele><time>2026-03-28T15:38:24.997Z</time></trkpt><trkpt lat="45.07732495569634" lon="8.194700527276348"><ele>275.0</ele><time>2026-03-28T15:38:25.997Z</time></trkpt><trkpt lat="45.07740679672931" lon="8.194540018463162"><ele>275.33333333333337</ele><time>2026-03-28T15:38:26.997Z</time></trkpt><trkpt lat="45.07749380200556" lon="8.194374778439846"><ele>275.6666666666667</ele><time>2026-03-28T15:38:27.997Z</time></trkpt><trkpt lat="45.07758915076814" lon="8.194208132498204"><ele>276.0</ele><time>2026-03-28T15:38:28.997Z</time></trkpt><trkpt lat="45.07769621455044" lon="8.194047191439626"><ele>275.6666666666667</ele><time>2026-03-28T15:38:29.997Z</time></trkpt><trkpt lat="45.07781293485473" lon="8.193895676934535"><ele>275.33333333333337</ele><time>2026-03-28T15:38:30.997Z</time></trkpt><trkpt lat="45.07793982745861" lon="8.193755655417727"><ele>275.0</ele><time>2026-03-28T15:38:31.997Z</time></trkpt><trkpt lat="45.078073185462394" lon="8.193623051254118"><ele>275.0</ele><time>2026-03-28T15:38:32.997Z</time></trkpt><trkpt lat="45.0781983353308" lon="8.19350229421614"><ele>275.0</ele><time>2026-03-28T15:38:33.996Z</time></trkpt><trkpt lat="45.07831373373465" lon="8.193392803549012"><ele>275.0</ele><time>2026-03-28T15:38:34.995Z</time></trkpt><trkpt lat="45.07842843897334" lon="8.193306288881892"><ele>275.0</ele><time>2026-03-28T15:38:35.995Z</time></trkpt><trkpt lat="45.07855062566994" lon="8.193246266301571"><ele>277.25</ele><time>2026-03-28T15:38:36.996Z</time></trkpt><trkpt lat="45.07867765326215" lon="8.193220119709329"><ele>279.5</ele><time>2026-03-28T15:38:37.995Z</time></trkpt><trkpt lat="45.07881366120234" lon="8.193206541247928"><ele>281.75</ele><time>2026-03-28T15:38:38.995Z</time></trkpt><trkpt lat="45.07895720294866" lon="8.193234845848663"><ele>284.0</ele><time>2026-03-28T15:38:39.996Z</time></trkpt><trkpt lat="45.07910570347359" lon="8.193293570939323"><ele>287.33333333333337</ele><time>2026-03-28T15:38:40.996Z</time></trkpt><trkpt lat="45.07926345809824" lon="8.19334651701171"><ele>290.6666666666667</ele><time>2026-03-28T15:38:41.996Z</time></trkpt><trkpt lat="45.079428812027835" lon="8.193399238911809"><ele>294.0</ele><time>2026-03-28T15:38:42.996Z</time></trkpt><trkpt lat="45.079607288292586" lon="8.193459705024388"><ele>294.0</ele><time>2026-03-28T15:38:43.995Z</time></trkpt><trkpt lat="45.079789197534815" lon="8.193515488647133"><ele>294.0</ele><time>2026-03-28T15:38:44.995Z</time></trkpt><trkpt lat="45.07997631955091" lon="8.193586516921359"><ele>294.0</ele><time>2026-03-28T15:38:45.996Z</time></trkpt><trkpt lat="45.08015784431864" lon="8.193657113754286"><ele>294.6666666666667</ele><time>2026-03-28T15:38:46.996Z</time></trkpt><trkpt lat="45.080336432479825" lon="8.193712733659531"><ele>295.33333333333337</ele><time>2026-03-28T15:38:47.996Z</time></trkpt><trkpt lat="45.08049483002218" lon="8.193764435618077"><ele>296.0</ele><time>2026-03-28T15:38:48.996Z</time></trkpt><trkpt lat="45.08063906208593" lon="8.193804022483052"><ele>297.75</ele><time>2026-03-28T15:38:49.996Z</time></trkpt><trkpt lat="45.08077214574683" lon="8.193844667771057"><ele>299.5</ele><time>2026-03-28T15:38:50.996Z</time></trkpt><trkpt lat="45.08089376131748" lon="8.193868159668522"><ele>301.25</ele><time>2026-03-28T15:38:51.996Z</time></trkpt><trkpt lat="45.081001166199954" lon="8.193857154276456"><ele>303.0</ele><time>2026-03-28T15:38:52.996Z</time></trkpt><trkpt lat="45.08110517205978" lon="8.193807880685181"><ele>303.0</ele><time>2026-03-28T15:38:53.996Z</time></trkpt><trkpt lat="45.081197546765324" lon="8.193727440108214"><ele>303.0</ele><time>2026-03-28T15:38:54.996Z</time></trkpt><trkpt lat="45.081282396372075" lon="8.193608866648665"><ele>303.0</ele><time>2026-03-28T15:38:55.996Z</time></trkpt><trkpt lat="45.081347178174894" lon="8.193462215517112"><ele>303.0</ele><time>2026-03-28T15:38:56.996Z</time></trkpt><trkpt lat="45.08138882775376" lon="8.193293355440197"><ele>303.5</ele><time>2026-03-28T15:38:57.996Z</time></trkpt><trkpt lat="45.08140919645826" lon="8.193118822717546"><ele>304.0</ele><time>2026-03-28T15:38:58.996Z</time></trkpt><trkpt lat="45.0814096160496" lon="8.192937763424295"><ele>304.5</ele><time>2026-03-28T15:38:59.996Z</time></trkpt><trkpt lat="45.08138654350485" lon="8.192765948860345"><ele>305.0</ele><time>2026-03-28T15:39:00.996Z</time></trkpt><trkpt lat="45.08133187091376" lon="8.192596118497514"><ele>305.0</ele><time>2026-03-28T15:39:01.996Z</time></trkpt><trkpt lat="45.081249969853495" lon="8.19245081112442"><ele>305.0</ele><time>2026-03-28T15:39:02.996Z</time></trkpt><trkpt lat="45.08116156939296" lon="8.19231728266542"><ele>305.0</ele><time>2026-03-28T15:39:03.996Z</time></trkpt><trkpt lat="45.081062822240675" lon="8.192183747722439"><ele>305.0</ele><time>2026-03-28T15:39:04.996Z</time></trkpt><trkpt lat="45.080982711134176" lon="8.192031607842553"><ele>305.2</ele><time>2026-03-28T15:39:05.996Z</time></trkpt><trkpt lat="45.08093078046638" lon="8.191889273933004"><ele>305.4</ele><time>2026-03-28T15:39:06.996Z</time></trkpt><trkpt lat="45.08087861843912" lon="8.191759359573453"><ele>305.6</ele><time>2026-03-28T15:39:07.996Z</time></trkpt><trkpt lat="45.08080029885565" lon="8.191694216433232"><ele>305.8</ele><time>2026-03-28T15:39:08.996Z</time></trkpt><trkpt lat="45.08070283548353" lon="8.19168500182967"><ele>306.0</ele><time>2026-03-28T15:39:09.996Z</time></trkpt><trkpt lat="45.08061157695501" lon="8.191713704577786"><ele>306.0</ele><time>2026-03-28T15:39:10.996Z</time></trkpt><trkpt lat="45.080528604026135" lon="8.191729576963608"><ele>306.0</ele><time>2026-03-28T15:39:11.996Z</time></trkpt><trkpt lat="45.08043523314471" lon="8.191706848000043"><ele>306.0</ele><time>2026-03-28T15:39:12.996Z</time></trkpt><trkpt lat="45.08036340160778" lon="8.191599520954288"><ele>306.0</ele><time>2026-03-28T15:39:13.996Z</time></trkpt><trkpt lat="45.08029655212169" lon="8.191473813453177"><ele>306.0</ele><time>2026-03-28T15:39:14.996Z</time></trkpt><trkpt lat="45.08026409692402" lon="8.19133754858759"><ele>309.6</ele><time>2026-03-28T15:39:15.996Z</time></trkpt><trkpt lat="45.08023834153629" lon="8.191219896669715"><ele>313.20000000000005</ele><time>2026-03-28T15:39:16.996Z</time></trkpt><trkpt lat="45.0802075981745" lon="8.191092011091719"><ele>316.79999999999995</ele><time>2026-03-28T15:39:17.996Z</time></trkpt><trkpt lat="45.080148673205635" lon="8.191016887351848"><ele>320.4</ele><time>2026-03-28T15:39:18.996Z</time></trkpt><trkpt lat="45.080051204925304" lon="8.190973600787945"><ele>324.0</ele><time>2026-03-28T15:39:19.996Z</time></trkpt><trkpt lat="45.07994678915356" lon="8.19095811000307"><ele>321.8333333333333</ele><time>2026-03-28T15:39:20.996Z</time></trkpt><trkpt lat="45.07984943530399" lon="8.190959914707372"><ele>319.6666666666667</ele><time>2026-03-28T15:39:21.996Z</time></trkpt><trkpt lat="45.07976869876211" lon="8.190949613245207"><ele>317.5</ele><time>2026-03-28T15:39:22.996Z</time></trkpt><trkpt lat="45.07970632764404" lon="8.19089931258264"><ele>315.33333333333337</ele><time>2026-03-28T15:39:23.996Z</time></trkpt><trkpt lat="45.07966373258101" lon="8.190814429454358"><ele>313.1666666666667</ele><time>2026-03-28T15:39:24.996Z</time></trkpt><trkpt lat="45.07965542096298" lon="8.190691633425136"><ele>311.0</ele><time>2026-03-28T15:39:25.996Z</time></trkpt><trkpt lat="45.07965329181277" lon="8.190538211694939"><ele>311.0</ele><time>2026-03-28T15:39:26.996Z</time></trkpt><trkpt lat="45.07965594178094" lon="8.190366901345497"><ele>311.0</ele><time>2026-03-28T15:39:27.996Z</time></trkpt><trkpt lat="45.07965793690047" lon="8.190173004186029"><ele>311.0</ele><time>2026-03-28T15:39:28.996Z</time></trkpt><trkpt lat="45.079667879538654" lon="8.189970374684387"><ele>311.0</ele><time>2026-03-28T15:39:29.996Z</time></trkpt><trkpt lat="45.07966056951483" lon="8.189759557149696"><ele>311.25</ele><time>2026-03-28T15:39:30.996Z</time></trkpt><trkpt lat="45.07966062193182" lon="8.1895480458886"><ele>311.5</ele><time>2026-03-28T15:39:31.996Z</time></trkpt><trkpt lat="45.079659137076376" lon="8.189339951806081"><ele>311.75</ele><time>2026-03-28T15:39:32.996Z</time></trkpt><trkpt lat="45.07967044403987" lon="8.189139271857371"><ele>312.0</ele><time>2026-03-28T15:39:33.996Z</time></trkpt><trkpt lat="45.07970217633993" lon="8.188933468370628"><ele>313.3333333333333</ele><time>2026-03-28T15:39:34.996Z</time></trkpt><trkpt lat="45.07976227928063" lon="8.188726695874882"><ele>314.66666666666663</ele><time>2026-03-28T15:39:35.996Z</time></trkpt><trkpt lat="45.07983797082013" lon="8.188507301347592"><ele>316.0</ele><time>2026-03-28T15:39:36.996Z</time></trkpt><trkpt lat="45.079900087890614" lon="8.188295379732049"><ele>318.75</ele><time>2026-03-28T15:39:37.996Z</time></trkpt><trkpt lat="45.07995091995512" lon="8.188105493676183"><ele>321.5</ele><time>2026-03-28T15:39:38.996Z</time></trkpt><trkpt lat="45.0800040229143" lon="8.187931507871637"><ele>324.25</ele><time>2026-03-28T15:39:39.996Z</time></trkpt><trkpt lat="45.08003792861069" lon="8.187767366956418"><ele>327.0</ele><time>2026-03-28T15:39:40.996Z</time></trkpt><trkpt lat="45.08004654147294" lon="8.187592050897907"><ele>327.0</ele><time>2026-03-28T15:39:41.996Z</time></trkpt><trkpt lat="45.08004804001645" lon="8.187400910387735"><ele>327.0</ele><time>2026-03-28T15:39:42.996Z</time></trkpt><trkpt lat="45.08008418326604" lon="8.187232713136291"><ele>327.0</ele><time>2026-03-28T15:39:43.996Z</time></trkpt><trkpt lat="45.08011722138026" lon="8.187083968785245"><ele>327.0</ele><time>2026-03-28T15:39:44.996Z</time></trkpt><trkpt lat="45.08013248857499" lon="8.186941347849048"><ele>325.6666666666667</ele><time>2026-03-28T15:39:45.996Z</time></trkpt><trkpt lat="45.080102954894855" lon="8.186771868529089"><ele>324.33333333333337</ele><time>2026-03-28T15:39:46.996Z</time></trkpt><trkpt lat="45.08000897439657" lon="8.186566396509697"><ele>323.0</ele><time>2026-03-28T15:39:47.996Z</time></trkpt><trkpt lat="45.07991687798361" lon="8.186370595396419"><ele>325.6666666666667</ele><time>2026-03-28T15:39:48.996Z</time></trkpt><trkpt lat="45.07985415502117" lon="8.186145797293666"><ele>328.3333333333333</ele><time>2026-03-28T15:39:49.996Z</time></trkpt><trkpt lat="45.079831687224896" lon="8.185924223974846"><ele>331.0</ele><time>2026-03-28T15:39:50.996Z</time></trkpt><trkpt lat="45.079840181490084" lon="8.185703054159205"><ele>327.5</ele><time>2026-03-28T15:39:51.996Z</time></trkpt><trkpt lat="45.07987531003211" lon="8.185498938619189"><ele>324.0</ele><time>2026-03-28T15:39:52.996Z</time></trkpt><trkpt lat="45.07994455799772" lon="8.18532375955107"><ele>320.5</ele><time>2026-03-28T15:39:53.996Z</time></trkpt><trkpt lat="45.08004196057061" lon="8.185187392981433"><ele>317.0</ele><time>2026-03-28T15:39:54.996Z</time></trkpt><trkpt lat="45.08017212022311" lon="8.185079561520194"><ele>315.0</ele><time>2026-03-28T15:39:55.996Z</time></trkpt><trkpt lat="45.08032686595626" lon="8.184991108170138"><ele>313.0</ele><time>2026-03-28T15:39:56.996Z</time></trkpt><trkpt lat="45.08048773489758" lon="8.184876289412216"><ele>311.0</ele><time>2026-03-28T15:39:57.996Z</time></trkpt><trkpt lat="45.08062972536742" lon="8.184741016277368"><ele>307.75</ele><time>2026-03-28T15:39:58.996Z</time></trkpt><trkpt lat="45.08075236472099" lon="8.184582287146343"><ele>304.5</ele><time>2026-03-28T15:39:59.997Z</time></trkpt><trkpt lat="45.08086272686366" lon="8.184457005132442"><ele>301.25</ele><time>2026-03-28T15:40:00.997Z</time></trkpt><trkpt lat="45.08097564864529" lon="8.184377573182969"><ele>298.0</ele><time>2026-03-28T15:40:01.997Z</time></trkpt><trkpt lat="45.08109597808288" lon="8.184332989112285"><ele>298.0</ele><time>2026-03-28T15:40:02.997Z</time></trkpt><trkpt lat="45.08122166776683" lon="8.18435020825356"><ele>298.0</ele><time>2026-03-28T15:40:03.997Z</time></trkpt><trkpt lat="45.08135731541193" lon="8.184376839553723"><ele>298.0</ele><time>2026-03-28T15:40:04.997Z</time></trkpt><trkpt lat="45.08149129944986" lon="8.184354982279057"><ele>298.0</ele><time>2026-03-28T15:40:05.997Z</time></trkpt><trkpt lat="45.08161621061198" lon="8.184278869180826"><ele>299.75</ele><time>2026-03-28T15:40:06.997Z</time></trkpt><trkpt lat="45.081717451951" lon="8.184159859676642"><ele>301.5</ele><time>2026-03-28T15:40:07.997Z</time></trkpt><trkpt lat="45.081801262694206" lon="8.18402229065776"><ele>303.25</ele><time>2026-03-28T15:40:08.997Z</time></trkpt><trkpt lat="45.08189597991643" lon="8.183891450032828"><ele>305.0</ele><time>2026-03-28T15:40:09.997Z</time></trkpt><trkpt lat="45.082017713155956" lon="8.183786183174805"><ele>301.75</ele><time>2026-03-28T15:40:10.997Z</time></trkpt><trkpt lat="45.0821516185054" lon="8.183700791324032"><ele>298.5</ele><time>2026-03-28T15:40:11.997Z</time></trkpt><trkpt lat="45.08228074170192" lon="8.183628076209303"><ele>295.25</ele><time>2026-03-28T15:40:12.997Z</time></trkpt><trkpt lat="45.0823856579534" lon="8.183559795485534"><ele>292.0</ele><time>2026-03-28T15:40:13.997Z</time></trkpt><trkpt lat="45.08246289386989" lon="8.183492112548098"><ele>292.0</ele><time>2026-03-28T15:40:14.997Z</time></trkpt><trkpt lat="45.0825099717009" lon="8.183417107202999"><ele>292.0</ele><time>2026-03-28T15:40:15.997Z</time></trkpt><trkpt lat="45.08249136174022" lon="8.18324141619126"><ele>292.0</ele><time>2026-03-28T15:40:17.997Z</time></trkpt><trkpt lat="45.08242658007824" lon="8.183189256733435"><ele>292.0</ele><time>2026-03-28T15:40:18.997Z</time></trkpt><trkpt lat="45.082337527705555" lon="8.183195491651002"><ele>292.0</ele><time>2026-03-28T15:40:19.997Z</time></trkpt><trkpt lat="45.0822667307347" lon="8.183262051789812"><ele>292.0</ele><time>2026-03-28T15:40:20.997Z</time></trkpt><trkpt lat="45.082188609691535" lon="8.183355146296435"><ele>290.25</ele><time>2026-03-28T15:40:21.997Z</time></trkpt><trkpt lat="45.08208787743276" lon="8.183470398503644"><ele>288.5</ele><time>2026-03-28T15:40:22.997Z</time></trkpt><trkpt lat="45.081969806795954" lon="8.18360352123005"><ele>286.75</ele><time>2026-03-28T15:40:23.997Z</time></trkpt><trkpt lat="45.08184053193855" lon="8.18371023452149"><ele>285.0</ele><time>2026-03-28T15:40:24.997Z</time></trkpt><trkpt lat="45.081715814658814" lon="8.183797563503509"><ele>283.75</ele><time>2026-03-28T15:40:25.997Z</time></trkpt><trkpt lat="45.081594232419675" lon="8.183870792734423"><ele>282.5</ele><time>2026-03-28T15:40:26.997Z</time></trkpt><trkpt lat="45.08146490027703" lon="8.183902413905859"><ele>281.25</ele><time>2026-03-28T15:40:27.997Z</time></trkpt><trkpt lat="45.0813365574139" lon="8.183883393096664"><ele>280.0</ele><time>2026-03-28T15:40:28.997Z</time></trkpt><trkpt lat="45.08122435166317" lon="8.183840574802607"><ele>280.0</ele><time>2026-03-28T15:40:29.997Z</time></trkpt><trkpt lat="45.081140927618904" lon="8.183776357908997"><ele>280.0</ele><time>2026-03-28T15:40:30.997Z</time></trkpt><trkpt lat="45.08109368428426" lon="8.183667898152637"><ele>280.0</ele><time>2026-03-28T15:40:31.997Z</time></trkpt><trkpt lat="45.08107008297129" lon="8.183554830074693"><ele>280.0</ele><time>2026-03-28T15:40:32.997Z</time></trkpt><trkpt lat="45.080955878324" lon="8.183483833382978"><ele>280.0</ele><time>2026-03-28T15:40:34.997Z</time></trkpt><trkpt lat="45.08083629670645" lon="8.183532034045005"><ele>278.0</ele><time>2026-03-28T15:40:35.997Z</time></trkpt><trkpt lat="45.080720838513294" lon="8.183634900940792"><ele>276.0</ele><time>2026-03-28T15:40:36.997Z</time></trkpt><trkpt lat="45.0806059641705" lon="8.183745004925523"><ele>274.0</ele><time>2026-03-28T15:40:37.997Z</time></trkpt><trkpt lat="45.08049564518415" lon="8.183838880702554"><ele>272.0</ele><time>2026-03-28T15:40:38.997Z</time></trkpt><trkpt lat="45.0803874368585" lon="8.18391003883818"><ele>272.0</ele><time>2026-03-28T15:40:39.995Z</time></trkpt><trkpt lat="45.08027835437899" lon="8.183938763835338"><ele>272.0</ele><time>2026-03-28T15:40:40.995Z</time></trkpt><trkpt lat="45.08016401181853" lon="8.183919747611045"><ele>272.0</ele><time>2026-03-28T15:40:41.995Z</time></trkpt><trkpt lat="45.0800508614657" lon="8.183853222793866"><ele>272.0</ele><time>2026-03-28T15:40:42.995Z</time></trkpt><trkpt lat="45.07993782122713" lon="8.18372960675633"><ele>272.5</ele><time>2026-03-28T15:40:43.996Z</time></trkpt><trkpt lat="45.07984616940179" lon="8.183579427347878"><ele>273.0</ele><time>2026-03-28T15:40:44.996Z</time></trkpt><trkpt lat="45.07976622851493" lon="8.183420009995269"><ele>273.5</ele><time>2026-03-28T15:40:45.996Z</time></trkpt><trkpt lat="45.07969712887948" lon="8.18330556898371"><ele>274.0</ele><time>2026-03-28T15:40:46.995Z</time></trkpt><trkpt lat="45.07963405212644" lon="8.183230902791339"><ele>274.0</ele><time>2026-03-28T15:40:47.995Z</time></trkpt><trkpt lat="45.079562262756994" lon="8.183218395684317"><ele>274.0</ele><time>2026-03-28T15:40:48.995Z</time></trkpt><trkpt lat="45.07949443436252" lon="8.183270008180191"><ele>274.0</ele><time>2026-03-28T15:40:49.995Z</time></trkpt><trkpt lat="45.07944317495996" lon="8.183359713707535"><ele>274.0</ele><time>2026-03-28T15:40:50.995Z</time></trkpt><trkpt lat="45.07940993251149" lon="8.183442106536837"><ele>274.0</ele><time>2026-03-28T15:40:51.995Z</time></trkpt><trkpt lat="45.07931387515555" lon="8.18344817471131"><ele>274.0</ele><time>2026-03-28T15:40:53.995Z</time></trkpt><trkpt lat="45.07929641500903" lon="8.18334522346354"><ele>274.0</ele><time>2026-03-28T15:40:54.995Z</time></trkpt><trkpt lat="45.07930844464609" lon="8.183246490389882"><ele>274.0</ele><time>2026-03-28T15:40:55.995Z</time></trkpt><trkpt lat="45.079358812048966" lon="8.183123516182325"><ele>274.0</ele><time>2026-03-28T15:40:56.995Z</time></trkpt><trkpt lat="45.07940734320992" lon="8.18303276640501"><ele>274.0</ele><time>2026-03-28T15:40:57.995Z</time></trkpt><trkpt lat="45.07944892935641" lon="8.182958290727331"><ele>274.0</ele><time>2026-03-28T15:40:58.995Z</time></trkpt><trkpt lat="45.07948928241406" lon="8.182889419331246"><ele>274.0</ele><time>2026-03-28T15:40:59.995Z</time></trkpt><trkpt lat="45.07955140371259" lon="8.182848264767381"><ele>271.8333333333333</ele><time>2026-03-28T15:41:00.995Z</time></trkpt><trkpt lat="45.07962710789061" lon="8.182851130408686"><ele>269.66666666666663</ele><time>2026-03-28T15:41:01.995Z</time></trkpt><trkpt lat="45.07969041696543" lon="8.182901498949416"><ele>267.5</ele><time>2026-03-28T15:41:02.995Z</time></trkpt><trkpt lat="45.07976054825791" lon="8.182987562375995"><ele>265.3333333333333</ele><time>2026-03-28T15:41:03.995Z</time></trkpt><trkpt lat="45.07982645437405" lon="8.18307354910051"><ele>263.1666666666667</ele><time>2026-03-28T15:41:04.995Z</time></trkpt><trkpt lat="45.07990156110522" lon="8.183133172609821"><ele>261.0</ele><time>2026-03-28T15:41:05.995Z</time></trkpt><trkpt lat="45.079990929094514" lon="8.18316172021237"><ele>261.0</ele><time>2026-03-28T15:41:06.995Z</time></trkpt><trkpt lat="45.080087823644675" lon="8.183136915939066"><ele>261.0</ele><time>2026-03-28T15:41:07.995Z</time></trkpt><trkpt lat="45.08017734756151" lon="8.183056339598348"><ele>261.0</ele><time>2026-03-28T15:41:08.995Z</time></trkpt><trkpt lat="45.08026849976609" lon="8.182941127636749"><ele>261.0</ele><time>2026-03-28T15:41:09.995Z</time></trkpt><trkpt lat="45.08033412323397" lon="8.182786121658777"><ele>261.0</ele><time>2026-03-28T15:41:10.996Z</time></trkpt><trkpt lat="45.08037324684612" lon="8.182608730513932"><ele>261.0</ele><time>2026-03-28T15:41:11.996Z</time></trkpt><trkpt lat="45.08040148757329" lon="8.182436022403577"><ele>261.0</ele><time>2026-03-28T15:41:12.996Z</time></trkpt><trkpt lat="45.08044665649663" lon="8.182279394756884"><ele>261.0</ele><time>2026-03-28T15:41:13.996Z</time></trkpt><trkpt lat="45.08052145627654" lon="8.182157727800664"><ele>258.8</ele><time>2026-03-28T15:41:14.996Z</time></trkpt><trkpt lat="45.0806044248698" lon="8.182070082949062"><ele>256.6</ele><time>2026-03-28T15:41:15.996Z</time></trkpt><trkpt lat="45.0807038509047" lon="8.18201697470382"><ele>254.4</ele><time>2026-03-28T15:41:16.996Z</time></trkpt><trkpt lat="45.08080400789677" lon="8.1820249797421"><ele>252.2</ele><time>2026-03-28T15:41:17.996Z</time></trkpt><trkpt lat="45.08090267595633" lon="8.182061126262143"><ele>250.0</ele><time>2026-03-28T15:41:18.996Z</time></trkpt><trkpt lat="45.08101235960625" lon="8.182128687300594"><ele>249.5</ele><time>2026-03-28T15:41:19.996Z</time></trkpt><trkpt lat="45.081123395166934" lon="8.182175800531107"><ele>249.0</ele><time>2026-03-28T15:41:20.996Z</time></trkpt><trkpt lat="45.081235356601596" lon="8.18216824713683"><ele>248.5</ele><time>2026-03-28T15:41:21.996Z</time></trkpt><trkpt lat="45.081333611390576" lon="8.182108950388182"><ele>248.0</ele><time>2026-03-28T15:41:22.996Z</time></trkpt><trkpt lat="45.0814254764211" lon="8.181995857215774"><ele>248.0</ele><time>2026-03-28T15:41:23.996Z</time></trkpt><trkpt lat="45.08150789898045" lon="8.181826241458204"><ele>248.0</ele><time>2026-03-28T15:41:24.996Z</time></trkpt><trkpt lat="45.081597488484284" lon="8.18165190418694"><ele>248.0</ele><time>2026-03-28T15:41:25.996Z</time></trkpt><trkpt lat="45.08170429311716" lon="8.181504609347892"><ele>248.0</ele><time>2026-03-28T15:41:26.996Z</time></trkpt><trkpt lat="45.081834252631246" lon="8.181405896076765"><ele>246.0</ele><time>2026-03-28T15:41:27.996Z</time></trkpt><trkpt lat="45.08196660956973" lon="8.181322915033446"><ele>244.0</ele><time>2026-03-28T15:41:28.996Z</time></trkpt><trkpt lat="45.08209569474455" lon="8.181221907638825"><ele>242.0</ele><time>2026-03-28T15:41:29.996Z</time></trkpt><trkpt lat="45.08220206833157" lon="8.181085568934803"><ele>240.0</ele><time>2026-03-28T15:41:30.996Z</time></trkpt><trkpt lat="45.08228530041354" lon="8.180898703886815"><ele>235.66666666666669</ele><time>2026-03-28T15:41:31.996Z</time></trkpt><trkpt lat="45.08234510614656" lon="8.180679867619464"><ele>231.33333333333334</ele><time>2026-03-28T15:41:32.996Z</time></trkpt><trkpt lat="45.082386365314534" lon="8.180453368251378"><ele>227.0</ele><time>2026-03-28T15:41:33.996Z</time></trkpt><trkpt lat="45.08242877436276" lon="8.180240991606503"><ele>228.5</ele><time>2026-03-28T15:41:34.996Z</time></trkpt><trkpt lat="45.0824797910742" lon="8.180042859493138"><ele>230.0</ele><time>2026-03-28T15:41:35.996Z</time></trkpt><trkpt lat="45.08254627889326" lon="8.179879756700757"><ele>231.5</ele><time>2026-03-28T15:41:36.996Z</time></trkpt><trkpt lat="45.08263112011969" lon="8.179752708371847"><ele>233.0</ele><time>2026-03-28T15:41:37.996Z</time></trkpt><trkpt lat="45.08274439642257" lon="8.179671023336029"><ele>229.75</ele><time>2026-03-28T15:41:38.996Z</time></trkpt><trkpt lat="45.08287346853034" lon="8.17961872342487"><ele>226.5</ele><time>2026-03-28T15:41:39.996Z</time></trkpt><trkpt lat="45.083003095780526" lon="8.179609345571837"><ele>223.25</ele><time>2026-03-28T15:41:40.996Z</time></trkpt><trkpt lat="45.08312625243242" lon="8.179636555232742"><ele>220.0</ele><time>2026-03-28T15:41:41.996Z</time></trkpt><trkpt lat="45.08323547980093" lon="8.179711949587725"><ele>220.0</ele><time>2026-03-28T15:41:42.996Z</time></trkpt><trkpt lat="45.08332979089026" lon="8.17981252799146"><ele>220.0</ele><time>2026-03-28T15:41:43.996Z</time></trkpt><trkpt lat="45.08342204559594" lon="8.179941751389137"><ele>220.0</ele><time>2026-03-28T15:41:44.996Z</time></trkpt><trkpt lat="45.08351700048268" lon="8.180072898354359"><ele>220.0</ele><time>2026-03-28T15:41:45.996Z</time></trkpt><trkpt lat="45.083605515642574" lon="8.180189145025835"><ele>222.0</ele><time>2026-03-28T15:41:46.996Z</time></trkpt><trkpt lat="45.08366620879108" lon="8.180317612294564"><ele>224.0</ele><time>2026-03-28T15:41:47.996Z</time></trkpt><trkpt lat="45.08369653492263" lon="8.180452054764016"><ele>226.0</ele><time>2026-03-28T15:41:48.996Z</time></trkpt><trkpt lat="45.083684486251066" lon="8.18058089201712"><ele>228.0</ele><time>2026-03-28T15:41:49.996Z</time></trkpt><trkpt lat="45.08363463667679" lon="8.180713584043385"><ele>230.0</ele><time>2026-03-28T15:41:50.996Z</time></trkpt><trkpt lat="45.08357611795" lon="8.180836432614718"><ele>230.6</ele><time>2026-03-28T15:41:51.996Z</time></trkpt><trkpt lat="45.08354469799425" lon="8.180968823009188"><ele>231.2</ele><time>2026-03-28T15:41:52.996Z</time></trkpt><trkpt lat="45.083545827716854" lon="8.181108310388186"><ele>231.8</ele><time>2026-03-28T15:41:53.996Z</time></trkpt><trkpt lat="45.083587689200655" lon="8.181236320754634"><ele>232.4</ele><time>2026-03-28T15:41:54.996Z</time></trkpt><trkpt lat="45.08365659522629" lon="8.181335651876006"><ele>233.0</ele><time>2026-03-28T15:41:55.996Z</time></trkpt><trkpt lat="45.0837443564514" lon="8.181393516174525"><ele>233.0</ele><time>2026-03-28T15:41:56.996Z</time></trkpt><trkpt lat="45.083835468934346" lon="8.181391073625512"><ele>233.0</ele><time>2026-03-28T15:41:57.996Z</time></trkpt><trkpt lat="45.08391476645344" lon="8.18132066761663"><ele>233.0</ele><time>2026-03-28T15:41:58.996Z</time></trkpt><trkpt lat="45.08396394483635" lon="8.181204676766548"><ele>233.0</ele><time>2026-03-28T15:41:59.996Z</time></trkpt><trkpt lat="45.084006644947934" lon="8.18106562599315"><ele>233.0</ele><time>2026-03-28T15:42:00.996Z</time></trkpt><trkpt lat="45.084032575257936" lon="8.180927631789352"><ele>233.00000000000003</ele><time>2026-03-28T15:42:01.996Z</time></trkpt><trkpt lat="45.084070292620275" lon="8.18080585655049"><ele>233.0</ele><time>2026-03-28T15:42:02.996Z</time></trkpt><trkpt lat="45.08413258683634" lon="8.180720645064932"><ele>233.0</ele><time>2026-03-28T15:42:03.996Z</time></trkpt><trkpt lat="45.08420959812037" lon="8.180682796996491"><ele>233.0</ele><time>2026-03-28T15:42:04.996Z</time></trkpt><trkpt lat="45.08428983325365" lon="8.180708660564072"><ele>233.00000000000003</ele><time>2026-03-28T15:42:05.996Z</time></trkpt><trkpt lat="45.08435631528786" lon="8.18079217502412"><ele>233.0</ele><time>2026-03-28T15:42:06.996Z</time></trkpt><trkpt lat="45.08440700317002" lon="8.180928106222678"><ele>229.0</ele><time>2026-03-28T15:42:07.996Z</time></trkpt><trkpt lat="45.08444527354778" lon="8.181093251488294"><ele>225.0</ele><time>2026-03-28T15:42:08.996Z</time></trkpt><trkpt lat="45.08447661624261" lon="8.181279837752285"><ele>221.0</ele><time>2026-03-28T15:42:09.996Z</time></trkpt><trkpt lat="45.08451099347274" lon="8.181460256153663"><ele>217.0</ele><time>2026-03-28T15:42:10.996Z</time></trkpt><trkpt lat="45.084564336251184" lon="8.181619734561743"><ele>217.0</ele><time>2026-03-28T15:42:11.996Z</time></trkpt><trkpt lat="45.08464778367514" lon="8.181736731386387"><ele>217.0</ele><time>2026-03-28T15:42:12.996Z</time></trkpt><trkpt lat="45.084741134116456" lon="8.18179743945973"><ele>217.0</ele><time>2026-03-28T15:42:13.996Z</time></trkpt><trkpt lat="45.08485291433588" lon="8.18181785380889"><ele>217.0</ele><time>2026-03-28T15:42:14.996Z</time></trkpt><trkpt lat="45.08497606744398" lon="8.181786485179325"><ele>214.75</ele><time>2026-03-28T15:42:15.996Z</time></trkpt><trkpt lat="45.08510252191462" lon="8.181712521889112"><ele>212.5</ele><time>2026-03-28T15:42:16.996Z</time></trkpt><trkpt lat="45.085219040513415" lon="8.181592952752238"><ele>210.25</ele><time>2026-03-28T15:42:17.996Z</time></trkpt><trkpt lat="45.08533275104059" lon="8.181445975503697"><ele>208.0</ele><time>2026-03-28T15:42:18.996Z</time></trkpt><trkpt lat="45.08544839074127" lon="8.181268705368444"><ele>206.33333333333331</ele><time>2026-03-28T15:42:19.996Z</time></trkpt><trkpt lat="45.08555710441696" lon="8.18106833274909"><ele>204.66666666666669</ele><time>2026-03-28T15:42:20.996Z</time></trkpt><trkpt lat="45.085659232325845" lon="8.180836732343323"><ele>203.0</ele><time>2026-03-28T15:42:21.996Z</time></trkpt><trkpt lat="45.085760414847435" lon="8.180593429783627"><ele>201.0</ele><time>2026-03-28T15:42:22.996Z</time></trkpt><trkpt lat="45.085865080951265" lon="8.180353040080645"><ele>199.0</ele><time>2026-03-28T15:42:23.996Z</time></trkpt><trkpt lat="45.08597713418788" lon="8.180101621479242"><ele>197.0</ele><time>2026-03-28T15:42:24.996Z</time></trkpt><trkpt lat="45.08609249447823" lon="8.179848538466182"><ele>196.66666666666669</ele><time>2026-03-28T15:42:25.996Z</time></trkpt><trkpt lat="45.08619996537325" lon="8.179598257738515"><ele>196.33333333333331</ele><time>2026-03-28T15:42:26.996Z</time></trkpt><trkpt lat="45.08630406207693" lon="8.179349350218468"><ele>196.0</ele><time>2026-03-28T15:42:27.996Z</time></trkpt><trkpt lat="45.086405382832034" lon="8.179104636042585"><ele>196.0</ele><time>2026-03-28T15:42:28.996Z</time></trkpt><trkpt lat="45.08650420116067" lon="8.17886437660731"><ele>196.0</ele><time>2026-03-28T15:42:29.996Z</time></trkpt><trkpt lat="45.08660424035535" lon="8.178627571588093"><ele>196.0</ele><time>2026-03-28T15:42:30.996Z</time></trkpt><trkpt lat="45.086703625382576" lon="8.178395982902813"><ele>196.0</ele><time>2026-03-28T15:42:31.996Z</time></trkpt><trkpt lat="45.086800292273146" lon="8.178168921022941"><ele>196.0</ele><time>2026-03-28T15:42:32.996Z</time></trkpt><trkpt lat="45.08689660308" lon="8.17794617104485"><ele>196.0</ele><time>2026-03-28T15:42:33.996Z</time></trkpt><trkpt lat="45.08699357158167" lon="8.177727311596021"><ele>196.0</ele><time>2026-03-28T15:42:34.996Z</time></trkpt><trkpt lat="45.08708202416036" lon="8.177519098834678"><ele>196.0</ele><time>2026-03-28T15:42:35.996Z</time></trkpt><trkpt lat="45.08716425889612" lon="8.17732234670394"><ele>196.0</ele><time>2026-03-28T15:42:36.996Z</time></trkpt><trkpt lat="45.087238472254775" lon="8.177150495419427"><ele>196.20000000000002</ele><time>2026-03-28T15:42:37.997Z</time></trkpt><trkpt lat="45.087308712762734" lon="8.176995317452478"><ele>196.4</ele><time>2026-03-28T15:42:38.997Z</time></trkpt><trkpt lat="45.08737570982772" lon="8.176860717304914"><ele>196.6</ele><time>2026-03-28T15:42:39.997Z</time></trkpt><trkpt lat="45.08742935995323" lon="8.176742723908887"><ele>196.8</ele><time>2026-03-28T15:42:40.997Z</time></trkpt><trkpt lat="45.08747272073824" lon="8.176641994840866"><ele>197.0</ele><time>2026-03-28T15:42:41.997Z</time></trkpt><trkpt lat="45.08752536645803" lon="8.176525930157316"><ele>197.33333333333334</ele><time>2026-03-28T15:42:43.997Z</time></trkpt><trkpt lat="45.087607461580276" lon="8.17651804091766"><ele>197.66666666666669</ele><time>2026-03-28T15:42:46.995Z</time></trkpt><trkpt lat="45.087656612441755" lon="8.176577591620871"><ele>198.0</ele><time>2026-03-28T15:42:47.995Z</time></trkpt><trkpt lat="45.087702719204906" lon="8.1766662664357"><ele>198.33333333333331</ele><time>2026-03-28T15:42:48.995Z</time></trkpt><trkpt lat="45.08776757023988" lon="8.176754577277364"><ele>198.66666666666666</ele><time>2026-03-28T15:42:49.995Z</time></trkpt><trkpt lat="45.0878385194869" lon="8.176838979157367"><ele>199.0</ele><time>2026-03-28T15:42:50.995Z</time></trkpt><trkpt lat="45.08792169679001" lon="8.17693889035216"><ele>199.0</ele><time>2026-03-28T15:42:51.995Z</time></trkpt><trkpt lat="45.087999734710486" lon="8.177037935270157"><ele>199.0</ele><time>2026-03-28T15:42:52.995Z</time></trkpt><trkpt lat="45.08807884593739" lon="8.177137537920238"><ele>199.0</ele><time>2026-03-28T15:42:53.995Z</time></trkpt><trkpt lat="45.088155113550584" lon="8.177238258771993"><ele>199.0</ele><time>2026-03-28T15:42:54.995Z</time></trkpt><trkpt lat="45.08823352417773" lon="8.177348501472284"><ele>199.0</ele><time>2026-03-28T15:42:55.995Z</time></trkpt><trkpt lat="45.088315426670015" lon="8.177463702735656"><ele>198.5</ele><time>2026-03-28T15:42:56.995Z</time></trkpt><trkpt lat="45.088400815681" lon="8.177583577774625"><ele>198.0</ele><time>2026-03-28T15:42:57.995Z</time></trkpt><trkpt lat="45.08849428028945" lon="8.177699368684127"><ele>197.5</ele><time>2026-03-28T15:42:58.995Z</time></trkpt><trkpt lat="45.08858671314479" lon="8.177821830070618"><ele>197.0</ele><time>2026-03-28T15:42:59.995Z</time></trkpt><trkpt lat="45.08867926474379" lon="8.177940206401091"><ele>197.0</ele><time>2026-03-28T15:43:00.995Z</time></trkpt><trkpt lat="45.08877004457473" lon="8.178049236436964"><ele>197.0</ele><time>2026-03-28T15:43:01.995Z</time></trkpt><trkpt lat="45.08885762880733" lon="8.178155552724814"><ele>197.0</ele><time>2026-03-28T15:43:02.995Z</time></trkpt><trkpt lat="45.088943128847134" lon="8.17826167826063"><ele>197.0</ele><time>2026-03-28T15:43:03.995Z</time></trkpt><trkpt lat="45.08902642163892" lon="8.17836886638824"><ele>197.0</ele><time>2026-03-28T15:43:04.995Z</time></trkpt><trkpt lat="45.08911298471544" lon="8.178476660674708"><ele>197.0</ele><time>2026-03-28T15:43:05.995Z</time></trkpt><trkpt lat="45.08920371560543" lon="8.17859524580536"><ele>197.0</ele><time>2026-03-28T15:43:06.995Z</time></trkpt><trkpt lat="45.08930420679175" lon="8.178727465425396"><ele>197.0</ele><time>2026-03-28T15:43:07.995Z</time></trkpt><trkpt lat="45.08941015962024" lon="8.178868934529063"><ele>197.0</ele><time>2026-03-28T15:43:08.995Z</time></trkpt><trkpt lat="45.08952315487702" lon="8.179012422323488"><ele>197.0</ele><time>2026-03-28T15:43:09.995Z</time></trkpt><trkpt lat="45.08963462369843" lon="8.17916033924732"><ele>197.0</ele><time>2026-03-28T15:43:10.995Z</time></trkpt><trkpt lat="45.08975547304009" lon="8.179317690761199"><ele>196.66666666666669</ele><time>2026-03-28T15:43:11.995Z</time></trkpt><trkpt lat="45.089883195308595" lon="8.179480396538"><ele>196.33333333333331</ele><time>2026-03-28T15:43:12.995Z</time></trkpt><trkpt lat="45.090011193698224" lon="8.179647159222494"><ele>196.0</ele><time>2026-03-28T15:43:13.995Z</time></trkpt><trkpt lat="45.09013272768243" lon="8.179806490190407"><ele>195.33333333333331</ele><time>2026-03-28T15:43:14.995Z</time></trkpt><trkpt lat="45.09025439969362" lon="8.17996168126126"><ele>194.66666666666669</ele><time>2026-03-28T15:43:15.995Z</time></trkpt><trkpt lat="45.09037651042912" lon="8.18011779103352"><ele>194.0</ele><time>2026-03-28T15:43:16.995Z</time></trkpt><trkpt lat="45.09049489695855" lon="8.180274156541218"><ele>194.0</ele><time>2026-03-28T15:43:17.995Z</time></trkpt><trkpt lat="45.09060935517184" lon="8.180435025980845"><ele>194.0</ele><time>2026-03-28T15:43:18.995Z</time></trkpt><trkpt lat="45.090731234398795" lon="8.180599588109509"><ele>194.0</ele><time>2026-03-28T15:43:19.995Z</time></trkpt><trkpt lat="45.09085839722351" lon="8.18076433163792"><ele>193.33333333333334</ele><time>2026-03-28T15:43:20.995Z</time></trkpt><trkpt lat="45.09098895672135" lon="8.180931920735087"><ele>192.66666666666669</ele><time>2026-03-28T15:43:21.995Z</time></trkpt><trkpt lat="45.09112510374221" lon="8.18110544518747"><ele>192.0</ele><time>2026-03-28T15:43:22.995Z</time></trkpt><trkpt lat="45.091265293923755" lon="8.18128528347329"><ele>192.0</ele><time>2026-03-28T15:43:23.995Z</time></trkpt><trkpt lat="45.09140684028931" lon="8.181464392900747"><ele>192.0</ele><time>2026-03-28T15:43:24.995Z</time></trkpt><trkpt lat="45.091549695553624" lon="8.181645548538386"><ele>192.0</ele><time>2026-03-28T15:43:25.995Z</time></trkpt><trkpt lat="45.09169233948568" lon="8.181829159850215"><ele>192.33333333333331</ele><time>2026-03-28T15:43:26.995Z</time></trkpt><trkpt lat="45.091834167371715" lon="8.182015430325576"><ele>192.66666666666666</ele><time>2026-03-28T15:43:27.995Z</time></trkpt><trkpt lat="45.091977495173396" lon="8.182199191274469"><ele>193.0</ele><time>2026-03-28T15:43:28.995Z</time></trkpt><trkpt lat="45.09212124004485" lon="8.182379404764006"><ele>193.0</ele><time>2026-03-28T15:43:29.996Z</time></trkpt><trkpt lat="45.092262711391086" lon="8.182561044824334"><ele>193.0</ele><time>2026-03-28T15:43:30.996Z</time></trkpt><trkpt lat="45.09240411574885" lon="8.182744419513424"><ele>193.0</ele><time>2026-03-28T15:43:31.996Z</time></trkpt><trkpt lat="45.0925416447107" lon="8.182927620039385"><ele>193.0</ele><time>2026-03-28T15:43:32.996Z</time></trkpt><trkpt lat="45.092680634701004" lon="8.183107268575831"><ele>193.0</ele><time>2026-03-28T15:43:33.996Z</time></trkpt><trkpt lat="45.09282078477607" lon="8.183284157311268"><ele>193.0</ele><time>2026-03-28T15:43:34.996Z</time></trkpt><trkpt lat="45.09296046816586" lon="8.183460952584293"><ele>193.0</ele><time>2026-03-28T15:43:35.996Z</time></trkpt><trkpt lat="45.09309822834656" lon="8.183639185647758"><ele>193.0</ele><time>2026-03-28T15:43:36.996Z</time></trkpt><trkpt lat="45.093237361049226" lon="8.18381851345263"><ele>193.0</ele><time>2026-03-28T15:43:37.996Z</time></trkpt><trkpt lat="45.093378572753316" lon="8.183997212434312"><ele>192.0</ele><time>2026-03-28T15:43:38.996Z</time></trkpt><trkpt lat="45.09352091960624" lon="8.184177952029657"><ele>191.0</ele><time>2026-03-28T15:43:39.996Z</time></trkpt><trkpt lat="45.093661590809546" lon="8.184359786535644"><ele>190.0</ele><time>2026-03-28T15:43:40.996Z</time></trkpt><trkpt lat="45.09380212036945" lon="8.184546864493218"><ele>190.0</ele><time>2026-03-28T15:43:41.996Z</time></trkpt><trkpt lat="45.093942632193944" lon="8.184731285046714"><ele>190.0</ele><time>2026-03-28T15:43:42.996Z</time></trkpt><trkpt lat="45.094082832037" lon="8.18491691883119"><ele>190.0</ele><time>2026-03-28T15:43:43.996Z</time></trkpt><trkpt lat="45.094222228762625" lon="8.185099825199304"><ele>190.33333333333334</ele><time>2026-03-28T15:43:44.996Z</time></trkpt><trkpt lat="45.094362000743494" lon="8.185286126674978"><ele>190.66666666666666</ele><time>2026-03-28T15:43:45.996Z</time></trkpt><trkpt lat="45.09450026689804" lon="8.18547180680285"><ele>191.0</ele><time>2026-03-28T15:43:46.996Z</time></trkpt><trkpt lat="45.09464068930938" lon="8.185654985891123"><ele>191.0</ele><time>2026-03-28T15:43:47.996Z</time></trkpt><trkpt lat="45.094781404714844" lon="8.185834782904717"><ele>191.0</ele><time>2026-03-28T15:43:48.996Z</time></trkpt><trkpt lat="45.09492487534746" lon="8.186013651790692"><ele>191.0</ele><time>2026-03-28T15:43:49.996Z</time></trkpt><trkpt lat="45.095066295955554" lon="8.186195218354705"><ele>191.33333333333331</ele><time>2026-03-28T15:43:50.996Z</time></trkpt><trkpt lat="45.095210344099904" lon="8.186376266388704"><ele>191.66666666666666</ele><time>2026-03-28T15:43:51.996Z</time></trkpt><trkpt lat="45.09535198511316" lon="8.186564671170999"><ele>192.0</ele><time>2026-03-28T15:43:52.996Z</time></trkpt><trkpt lat="45.09549698799294" lon="8.186750035606726"><ele>192.33333333333331</ele><time>2026-03-28T15:43:53.996Z</time></trkpt><trkpt lat="45.095643817525236" lon="8.1869347123058"><ele>192.66666666666666</ele><time>2026-03-28T15:43:54.996Z</time></trkpt><trkpt lat="45.095789009614805" lon="8.187121908408942"><ele>193.0</ele><time>2026-03-28T15:43:55.996Z</time></trkpt><trkpt lat="45.09593491906337" lon="8.187311173252631"><ele>191.66666666666666</ele><time>2026-03-28T15:43:56.996Z</time></trkpt><trkpt lat="45.09608120292741" lon="8.187503444111067"><ele>190.33333333333331</ele><time>2026-03-28T15:43:57.996Z</time></trkpt><trkpt lat="45.09622759155117" lon="8.187697191177133"><ele>189.0</ele><time>2026-03-28T15:43:58.996Z</time></trkpt><trkpt lat="45.09637709386174" lon="8.187891649598324"><ele>189.0</ele><time>2026-03-28T15:43:59.996Z</time></trkpt><trkpt lat="45.09652610035078" lon="8.188081821355016"><ele>189.0</ele><time>2026-03-28T15:44:00.996Z</time></trkpt><trkpt lat="45.09667602443232" lon="8.188272697999324"><ele>189.0</ele><time>2026-03-28T15:44:01.996Z</time></trkpt><trkpt lat="45.096826456049044" lon="8.18846852085788"><ele>189.66666666666666</ele><time>2026-03-28T15:44:02.996Z</time></trkpt><trkpt lat="45.09697671038691" lon="8.188663550106586"><ele>190.33333333333331</ele><time>2026-03-28T15:44:03.996Z</time></trkpt><trkpt lat="45.097129645447225" lon="8.1888588603065"><ele>191.0</ele><time>2026-03-28T15:44:04.996Z</time></trkpt><trkpt lat="45.09728270519956" lon="8.189053235328766"><ele>191.0</ele><time>2026-03-28T15:44:05.996Z</time></trkpt><trkpt lat="45.09743554539695" lon="8.189245014683076"><ele>191.0</ele><time>2026-03-28T15:44:06.996Z</time></trkpt><trkpt lat="45.09758851540616" lon="8.18943926449471"><ele>191.0</ele><time>2026-03-28T15:44:07.996Z</time></trkpt><trkpt lat="45.09773775970934" lon="8.189636154928126"><ele>191.0</ele><time>2026-03-28T15:44:08.996Z</time></trkpt><trkpt lat="45.09788804757835" lon="8.189833178199699"><ele>191.0</ele><time>2026-03-28T15:44:09.996Z</time></trkpt><trkpt lat="45.09803716297321" lon="8.19002413731148"><ele>191.0</ele><time>2026-03-28T15:44:10.996Z</time></trkpt><trkpt lat="45.09818828596288" lon="8.190213025943605"><ele>190.33333333333331</ele><time>2026-03-28T15:44:11.996Z</time></trkpt><trkpt lat="45.098335606249435" lon="8.190405919582917"><ele>189.66666666666666</ele><time>2026-03-28T15:44:12.996Z</time></trkpt><trkpt lat="45.098481285461865" lon="8.190606331892837"><ele>189.0</ele><time>2026-03-28T15:44:13.996Z</time></trkpt><trkpt lat="45.09862805618648" lon="8.190799106817487"><ele>189.0</ele><time>2026-03-28T15:44:14.996Z</time></trkpt><trkpt lat="45.098779986993804" lon="8.19098401622858"><ele>189.0</ele><time>2026-03-28T15:44:15.996Z</time></trkpt><trkpt lat="45.09893129125017" lon="8.19117188029217"><ele>189.0</ele><time>2026-03-28T15:44:16.996Z</time></trkpt><trkpt lat="45.099081698931805" lon="8.191362055644303"><ele>188.66666666666666</ele><time>2026-03-28T15:44:17.996Z</time></trkpt><trkpt lat="45.099236001360914" lon="8.191557127988304"><ele>188.33333333333331</ele><time>2026-03-28T15:44:18.996Z</time></trkpt><trkpt lat="45.09938604287523" lon="8.191755153321774"><ele>188.0</ele><time>2026-03-28T15:44:19.996Z</time></trkpt><trkpt lat="45.099540020926966" lon="8.191955004445079"><ele>188.0</ele><time>2026-03-28T15:44:20.996Z</time></trkpt><trkpt lat="45.09969139874166" lon="8.192161325791345"><ele>188.0</ele><time>2026-03-28T15:44:21.996Z</time></trkpt><trkpt lat="45.09984684622431" lon="8.192364043212365"><ele>188.0</ele><time>2026-03-28T15:44:22.996Z</time></trkpt><trkpt lat="45.10000162028787" lon="8.192570044557216"><ele>187.0</ele><time>2026-03-28T15:44:23.996Z</time></trkpt><trkpt lat="45.10016192158995" lon="8.192773970933972"><ele>186.0</ele><time>2026-03-28T15:44:24.996Z</time></trkpt><trkpt lat="45.10032125321439" lon="8.192979641443447"><ele>185.0</ele><time>2026-03-28T15:44:25.996Z</time></trkpt><trkpt lat="45.10047822936023" lon="8.193183124289485"><ele>185.0</ele><time>2026-03-28T15:44:26.996Z</time></trkpt><trkpt lat="45.10063184428169" lon="8.193381450640253"><ele>185.0</ele><time>2026-03-28T15:44:27.996Z</time></trkpt><trkpt lat="45.100782114349784" lon="8.193578982854323"><ele>185.0</ele><time>2026-03-28T15:44:28.996Z</time></trkpt><trkpt lat="45.10093126647645" lon="8.193773588934592"><ele>185.0</ele><time>2026-03-28T15:44:29.996Z</time></trkpt><trkpt lat="45.101079692814615" lon="8.193963585311431"><ele>185.0</ele><time>2026-03-28T15:44:30.996Z</time></trkpt><trkpt lat="45.10122234656063" lon="8.19414933518304"><ele>185.0</ele><time>2026-03-28T15:44:31.996Z</time></trkpt><trkpt lat="45.10136166033375" lon="8.194329348218915"><ele>185.0</ele><time>2026-03-28T15:44:32.996Z</time></trkpt><trkpt lat="45.10150081440143" lon="8.194512003365238"><ele>185.0</ele><time>2026-03-28T15:44:33.996Z</time></trkpt><trkpt lat="45.101637951864454" lon="8.194699716919956"><ele>185.0</ele><time>2026-03-28T15:44:34.996Z</time></trkpt><trkpt lat="45.10178128158756" lon="8.194885635537034"><ele>185.33333333333331</ele><time>2026-03-28T15:44:35.996Z</time></trkpt><trkpt lat="45.10192550073682" lon="8.195068036973446"><ele>185.66666666666666</ele><time>2026-03-28T15:44:36.996Z</time></trkpt><trkpt lat="45.10207102565995" lon="8.19524974825198"><ele>186.0</ele><time>2026-03-28T15:44:37.996Z</time></trkpt><trkpt lat="45.10221720364204" lon="8.195434530600352"><ele>186.0</ele><time>2026-03-28T15:44:38.996Z</time></trkpt><trkpt lat="45.10236352916829" lon="8.195624467151351"><ele>186.0</ele><time>2026-03-28T15:44:39.996Z</time></trkpt><trkpt lat="45.10251237029601" lon="8.19581671337632"><ele>186.0</ele><time>2026-03-28T15:44:40.996Z</time></trkpt><trkpt lat="45.10266367890944" lon="8.196012917631414"><ele>185.33333333333334</ele><time>2026-03-28T15:44:41.996Z</time></trkpt><trkpt lat="45.10281650153997" lon="8.196209521459755"><ele>184.66666666666669</ele><time>2026-03-28T15:44:42.996Z</time></trkpt><trkpt lat="45.102970101076174" lon="8.196407314958028"><ele>184.0</ele><time>2026-03-28T15:44:43.996Z</time></trkpt><trkpt lat="45.10312601689615" lon="8.19660463397177"><ele>184.33333333333334</ele><time>2026-03-28T15:44:44.996Z</time></trkpt><trkpt lat="45.10328083119457" lon="8.196802747314194"><ele>184.66666666666666</ele><time>2026-03-28T15:44:45.996Z</time></trkpt><trkpt lat="45.10343362331237" lon="8.197002628892855"><ele>185.0</ele><time>2026-03-28T15:44:46.996Z</time></trkpt><trkpt lat="45.10358534826388" lon="8.197200568005673"><ele>185.0</ele><time>2026-03-28T15:44:47.996Z</time></trkpt><trkpt lat="45.10373450662342" lon="8.197393474385702"><ele>185.0</ele><time>2026-03-28T15:44:48.996Z</time></trkpt><trkpt lat="45.103880851047315" lon="8.197590922914937"><ele>185.0</ele><time>2026-03-28T15:44:49.996Z</time></trkpt><trkpt lat="45.10402861748097" lon="8.197784778727742"><ele>184.33333333333331</ele><time>2026-03-28T15:44:50.996Z</time></trkpt><trkpt lat="45.104177304300684" lon="8.19797665576854"><ele>183.66666666666666</ele><time>2026-03-28T15:44:51.995Z</time></trkpt><trkpt lat="45.104325855662495" lon="8.19817171371883"><ele>183.0</ele><time>2026-03-28T15:44:52.995Z</time></trkpt><trkpt lat="45.104476867947916" lon="8.198362249327221"><ele>183.0</ele><time>2026-03-28T15:44:53.995Z</time></trkpt><trkpt lat="45.10462704422251" lon="8.19855220177226"><ele>183.0</ele><time>2026-03-28T15:44:54.995Z</time></trkpt><trkpt lat="45.10477970812677" lon="8.198741627015805"><ele>183.0</ele><time>2026-03-28T15:44:55.995Z</time></trkpt><trkpt lat="45.10492998071261" lon="8.19893741794059"><ele>182.66666666666666</ele><time>2026-03-28T15:44:56.995Z</time></trkpt><trkpt lat="45.10508256377058" lon="8.19912651145412"><ele>182.33333333333331</ele><time>2026-03-28T15:44:57.995Z</time></trkpt><trkpt lat="45.105236438734835" lon="8.199318187518237"><ele>182.0</ele><time>2026-03-28T15:44:58.995Z</time></trkpt><trkpt lat="45.10538707687558" lon="8.199512940314388"><ele>182.0</ele><time>2026-03-28T15:44:59.995Z</time></trkpt><trkpt lat="45.10553722818316" lon="8.19971178137592"><ele>182.0</ele><time>2026-03-28T15:45:00.995Z</time></trkpt><trkpt lat="45.1056908513669" lon="8.199910806533405"><ele>182.0</ele><time>2026-03-28T15:45:01.995Z</time></trkpt><trkpt lat="45.105842198133075" lon="8.200109168079683"><ele>181.33333333333331</ele><time>2026-03-28T15:45:02.995Z</time></trkpt><trkpt lat="45.10599773096801" lon="8.200306921061319"><ele>180.66666666666666</ele><time>2026-03-28T15:45:03.994Z</time></trkpt><trkpt lat="45.106151438703236" lon="8.200503766824923"><ele>180.0</ele><time>2026-03-28T15:45:04.995Z</time></trkpt><trkpt lat="45.10630600764183" lon="8.200705143170975"><ele>180.0</ele><time>2026-03-28T15:45:05.995Z</time></trkpt><trkpt lat="45.10646093992349" lon="8.200901356786874"><ele>180.0</ele><time>2026-03-28T15:45:06.995Z</time></trkpt><trkpt lat="45.10661665939095" lon="8.201101481193083"><ele>180.0</ele><time>2026-03-28T15:45:07.995Z</time></trkpt><trkpt lat="45.106770409698505" lon="8.201306829987765"><ele>179.0</ele><time>2026-03-28T15:45:08.995Z</time></trkpt><trkpt lat="45.10692519194599" lon="8.201504717659905"><ele>178.0</ele><time>2026-03-28T15:45:09.995Z</time></trkpt><trkpt lat="45.10707649863816" lon="8.201705869686556"><ele>177.0</ele><time>2026-03-28T15:45:10.995Z</time></trkpt><trkpt lat="45.10722410304291" lon="8.201901608748102"><ele>177.0</ele><time>2026-03-28T15:45:11.995Z</time></trkpt><trkpt lat="45.10736833950341" lon="8.202090509174981"><ele>177.0</ele><time>2026-03-28T15:45:12.995Z</time></trkpt><trkpt lat="45.107510441845236" lon="8.202274471206103"><ele>177.0</ele><time>2026-03-28T15:45:13.995Z</time></trkpt><trkpt lat="45.1076501393527" lon="8.202457256171389"><ele>177.0</ele><time>2026-03-28T15:45:14.995Z</time></trkpt><trkpt lat="45.10779081264734" lon="8.202637670645077"><ele>177.0</ele><time>2026-03-28T15:45:15.995Z</time></trkpt><trkpt lat="45.10793212276611" lon="8.202815252635066"><ele>177.0</ele><time>2026-03-28T15:45:16.995Z</time></trkpt><trkpt lat="45.10807473335197" lon="8.202995061746389"><ele>175.66666666666666</ele><time>2026-03-28T15:45:17.995Z</time></trkpt><trkpt lat="45.10821869270507" lon="8.203176390473029"><ele>174.33333333333331</ele><time>2026-03-28T15:45:18.995Z</time></trkpt><trkpt lat="45.10836184892287" lon="8.203360792872042"><ele>173.0</ele><time>2026-03-28T15:45:19.995Z</time></trkpt><trkpt lat="45.10850696631756" lon="8.203545757702637"><ele>173.0</ele><time>2026-03-28T15:45:20.995Z</time></trkpt><trkpt lat="45.10865112776074" lon="8.203730884860219"><ele>173.0</ele><time>2026-03-28T15:45:21.995Z</time></trkpt><trkpt lat="45.10879589586189" lon="8.203916442567893"><ele>173.0</ele><time>2026-03-28T15:45:22.995Z</time></trkpt><trkpt lat="45.108943462354944" lon="8.204104325303662"><ele>173.0</ele><time>2026-03-28T15:45:23.995Z</time></trkpt><trkpt lat="45.10908938482355" lon="8.20429143222674"><ele>173.0</ele><time>2026-03-28T15:45:24.995Z</time></trkpt><trkpt lat="45.109229587123345" lon="8.204482567322136"><ele>173.0</ele><time>2026-03-28T15:45:25.995Z</time></trkpt><trkpt lat="45.10935866029638" lon="8.204678663412182"><ele>173.0</ele><time>2026-03-28T15:45:26.995Z</time></trkpt><trkpt lat="45.10947320731027" lon="8.20488024802802"><ele>173.0</ele><time>2026-03-28T15:45:27.995Z</time></trkpt><trkpt lat="45.10957191640421" lon="8.205088556348926"><ele>173.0</ele><time>2026-03-28T15:45:28.995Z</time></trkpt><trkpt lat="45.10965662879434" lon="8.205299435084989"><ele>173.0</ele><time>2026-03-28T15:45:29.995Z</time></trkpt><trkpt lat="45.10973420004589" lon="8.20551457100121"><ele>173.0</ele><time>2026-03-28T15:45:30.995Z</time></trkpt><trkpt lat="45.109801872519476" lon="8.205733026923502"><ele>173.0</ele><time>2026-03-28T15:45:31.995Z</time></trkpt><trkpt lat="45.10985658021248" lon="8.205957069142732"><ele>172.66666666666666</ele><time>2026-03-28T15:45:32.995Z</time></trkpt><trkpt lat="45.109898334055835" lon="8.206184008418536"><ele>172.33333333333334</ele><time>2026-03-28T15:45:33.995Z</time></trkpt><trkpt lat="45.109936848231946" lon="8.206413231744602"><ele>172.0</ele><time>2026-03-28T15:45:34.995Z</time></trkpt><trkpt lat="45.10997150213811" lon="8.206648537141836"><ele>172.33333333333334</ele><time>2026-03-28T15:45:35.995Z</time></trkpt><trkpt lat="45.110012177123565" lon="8.2068870522531"><ele>172.66666666666666</ele><time>2026-03-28T15:45:36.995Z</time></trkpt><trkpt lat="45.11006068911535" lon="8.207118244548116"><ele>173.0</ele><time>2026-03-28T15:45:37.995Z</time></trkpt><trkpt lat="45.110122778584966" lon="8.207338001945478"><ele>173.0</ele><time>2026-03-28T15:45:38.995Z</time></trkpt><trkpt lat="45.110196721040715" lon="8.207548937275545"><ele>173.0</ele><time>2026-03-28T15:45:39.996Z</time></trkpt><trkpt lat="45.11027819105053" lon="8.207750245471631"><ele>173.0</ele><time>2026-03-28T15:45:40.996Z</time></trkpt><trkpt lat="45.110375381251224" lon="8.207936156411066"><ele>173.0</ele><time>2026-03-28T15:45:41.996Z</time></trkpt><trkpt lat="45.11048278079147" lon="8.208106857931552"><ele>173.0</ele><time>2026-03-28T15:45:42.996Z</time></trkpt><trkpt lat="45.11059864732437" lon="8.208270180366485"><ele>173.0</ele><time>2026-03-28T15:45:43.996Z</time></trkpt><trkpt lat="45.110717309742384" lon="8.208422558760823"><ele>174.0</ele><time>2026-03-28T15:45:44.996Z</time></trkpt><trkpt lat="45.11084330111839" lon="8.208564436777884"><ele>175.0</ele><time>2026-03-28T15:45:45.996Z</time></trkpt><trkpt lat="45.11096923491852" lon="8.208702304603086"><ele>176.0</ele><time>2026-03-28T15:45:46.996Z</time></trkpt><trkpt lat="45.111095239137214" lon="8.208835841198384"><ele>176.0</ele><time>2026-03-28T15:45:47.996Z</time></trkpt><trkpt lat="45.11122187339293" lon="8.208967751669842"><ele>176.0</ele><time>2026-03-28T15:45:48.996Z</time></trkpt><trkpt lat="45.11134119121261" lon="8.20909624358364"><ele>176.0</ele><time>2026-03-28T15:45:49.996Z</time></trkpt><trkpt lat="45.11145705745619" lon="8.209226633415849"><ele>175.0</ele><time>2026-03-28T15:45:50.996Z</time></trkpt><trkpt lat="45.11157611536299" lon="8.209357080076495"><ele>174.0</ele><time>2026-03-28T15:45:51.996Z</time></trkpt><trkpt lat="45.111690628960204" lon="8.209483292114196"><ele>173.0</ele><time>2026-03-28T15:45:52.996Z</time></trkpt><trkpt lat="45.111800545631155" lon="8.209615773239303"><ele>172.0</ele><time>2026-03-28T15:45:53.996Z</time></trkpt><trkpt lat="45.11191406785613" lon="8.209739134775319"><ele>171.5</ele><time>2026-03-28T15:45:54.996Z</time></trkpt><trkpt lat="45.112023093026465" lon="8.20985598385833"><ele>171.0</ele><time>2026-03-28T15:45:55.996Z</time></trkpt><trkpt lat="45.11212752508364" lon="8.209968085537543"><ele>170.5</ele><time>2026-03-28T15:45:56.996Z</time></trkpt><trkpt lat="45.112231845117705" lon="8.210084343726937"><ele>170.0</ele><time>2026-03-28T15:45:57.996Z</time></trkpt><trkpt lat="45.11233833070194" lon="8.210202501585012"><ele>170.0</ele><time>2026-03-28T15:45:58.996Z</time></trkpt><trkpt lat="45.112446041734366" lon="8.210317413373673"><ele>170.0</ele><time>2026-03-28T15:45:59.996Z</time></trkpt><trkpt lat="45.11255112923606" lon="8.210431527189858"><ele>170.0</ele><time>2026-03-28T15:46:00.996Z</time></trkpt><trkpt lat="45.112651191932635" lon="8.210549312205051"><ele>170.0</ele><time>2026-03-28T15:46:01.996Z</time></trkpt><trkpt lat="45.11274812036678" lon="8.210661931445447"><ele>169.8</ele><time>2026-03-28T15:46:02.996Z</time></trkpt><trkpt lat="45.11283995906177" lon="8.21076876869658"><ele>169.6</ele><time>2026-03-28T15:46:03.996Z</time></trkpt><trkpt lat="45.112931985365016" lon="8.210861721963859"><ele>169.39999999999998</ele><time>2026-03-28T15:46:04.996Z</time></trkpt><trkpt lat="45.11301741850473" lon="8.210956556947806"><ele>169.2</ele><time>2026-03-28T15:46:05.996Z</time></trkpt><trkpt lat="45.11309566538131" lon="8.211048046902022"><ele>169.0</ele><time>2026-03-28T15:46:06.996Z</time></trkpt><trkpt lat="45.11317151944939" lon="8.21113525695784"><ele>169.6</ele><time>2026-03-28T15:46:07.996Z</time></trkpt><trkpt lat="45.113247255728616" lon="8.211219989189063"><ele>170.2</ele><time>2026-03-28T15:46:08.996Z</time></trkpt><trkpt lat="45.1133251103316" lon="8.211308965437222"><ele>170.79999999999998</ele><time>2026-03-28T15:46:09.996Z</time></trkpt><trkpt lat="45.113403901016994" lon="8.211397670326713"><ele>171.39999999999998</ele><time>2026-03-28T15:46:10.996Z</time></trkpt><trkpt lat="45.11348477709755" lon="8.21148968855773"><ele>172.0</ele><time>2026-03-28T15:46:11.996Z</time></trkpt><trkpt lat="45.11356585799318" lon="8.211578258883785"><ele>172.2</ele><time>2026-03-28T15:46:12.996Z</time></trkpt><trkpt lat="45.113643719059425" lon="8.21166159133544"><ele>172.39999999999998</ele><time>2026-03-28T15:46:13.996Z</time></trkpt><trkpt lat="45.11372192432646" lon="8.21174123998639"><ele>172.60000000000002</ele><time>2026-03-28T15:46:14.996Z</time></trkpt><trkpt lat="45.113795349800135" lon="8.211824867756999"><ele>172.8</ele><time>2026-03-28T15:46:15.996Z</time></trkpt><trkpt lat="45.11387593767367" lon="8.21190685329707"><ele>173.0</ele><time>2026-03-28T15:46:16.996Z</time></trkpt><trkpt lat="45.11395663105845" lon="8.211990263127197"><ele>173.0</ele><time>2026-03-28T15:46:17.996Z</time></trkpt><trkpt lat="45.11404008321327" lon="8.212076190618708"><ele>173.0</ele><time>2026-03-28T15:46:18.996Z</time></trkpt><trkpt lat="45.11411665039138" lon="8.212163747064574"><ele>173.0</ele><time>2026-03-28T15:46:19.996Z</time></trkpt><trkpt lat="45.11419412213018" lon="8.212245250852362"><ele>173.0</ele><time>2026-03-28T15:46:20.996Z</time></trkpt><trkpt lat="45.11426479076414" lon="8.212333851557208"><ele>173.0</ele><time>2026-03-28T15:46:21.996Z</time></trkpt><trkpt lat="45.11433132116905" lon="8.212421496118537"><ele>172.4</ele><time>2026-03-28T15:46:22.996Z</time></trkpt><trkpt lat="45.11440314548938" lon="8.212506879357223"><ele>171.8</ele><time>2026-03-28T15:46:23.996Z</time></trkpt><trkpt lat="45.11447648689472" lon="8.212592960668562"><ele>171.2</ele><time>2026-03-28T15:46:24.996Z</time></trkpt><trkpt lat="45.114549930174" lon="8.212675642936864"><ele>170.6</ele><time>2026-03-28T15:46:25.996Z</time></trkpt><trkpt lat="45.114622869307325" lon="8.21276142793729"><ele>170.0</ele><time>2026-03-28T15:46:26.996Z</time></trkpt><trkpt lat="45.114700122080244" lon="8.212844092968504"><ele>170.0</ele><time>2026-03-28T15:46:27.996Z</time></trkpt><trkpt lat="45.11477427260107" lon="8.212933696683788"><ele>170.0</ele><time>2026-03-28T15:46:28.996Z</time></trkpt><trkpt lat="45.114844497212026" lon="8.213029504612175"><ele>170.0</ele><time>2026-03-28T15:46:29.996Z</time></trkpt><trkpt lat="45.11491504099767" lon="8.21313466785069"><ele>170.0</ele><time>2026-03-28T15:46:30.996Z</time></trkpt><trkpt lat="45.11498157671946" lon="8.213246607031953"><ele>170.0</ele><time>2026-03-28T15:46:31.996Z</time></trkpt><trkpt lat="45.115051757554085" lon="8.213368442087372"><ele>170.2</ele><time>2026-03-28T15:46:32.996Z</time></trkpt><trkpt lat="45.11511780105717" lon="8.213492898785068"><ele>170.4</ele><time>2026-03-28T15:46:33.996Z</time></trkpt><trkpt lat="45.1151791705655" lon="8.213623919260977"><ele>170.60000000000002</ele><time>2026-03-28T15:46:34.996Z</time></trkpt><trkpt lat="45.115233102644034" lon="8.213754144284856"><ele>170.8</ele><time>2026-03-28T15:46:35.996Z</time></trkpt><trkpt lat="45.11528771975786" lon="8.213885032458634"><ele>171.0</ele><time>2026-03-28T15:46:36.996Z</time></trkpt><trkpt lat="45.11533571246096" lon="8.214018071810314"><ele>170.60000000000002</ele><time>2026-03-28T15:46:37.996Z</time></trkpt><trkpt lat="45.11537752512888" lon="8.214156241822067"><ele>170.2</ele><time>2026-03-28T15:46:38.996Z</time></trkpt><trkpt lat="45.1154191275716" lon="8.214285927308918"><ele>169.8</ele><time>2026-03-28T15:46:39.996Z</time></trkpt><trkpt lat="45.11544794223127" lon="8.214435969107384"><ele>169.39999999999998</ele><time>2026-03-28T15:46:40.996Z</time></trkpt><trkpt lat="45.11547549848949" lon="8.214592851182033"><ele>169.0</ele><time>2026-03-28T15:46:41.996Z</time></trkpt><trkpt lat="45.1155044749435" lon="8.214751670797689"><ele>169.25</ele><time>2026-03-28T15:46:42.996Z</time></trkpt><trkpt lat="45.11553254153142" lon="8.214911963231623"><ele>169.5</ele><time>2026-03-28T15:46:43.996Z</time></trkpt><trkpt lat="45.1155639374064" lon="8.215078753445832"><ele>169.75</ele><time>2026-03-28T15:46:44.996Z</time></trkpt><trkpt lat="45.11559513051285" lon="8.215242959018079"><ele>170.0</ele><time>2026-03-28T15:46:45.996Z</time></trkpt><trkpt lat="45.115626550306075" lon="8.215409302394917"><ele>170.0</ele><time>2026-03-28T15:46:46.996Z</time></trkpt><trkpt lat="45.11565648590896" lon="8.215579869986744"><ele>170.0</ele><time>2026-03-28T15:46:47.996Z</time></trkpt><trkpt lat="45.11568537705069" lon="8.215752665742892"><ele>170.0</ele><time>2026-03-28T15:46:48.996Z</time></trkpt><trkpt lat="45.115714181424465" lon="8.215927322583873"><ele>170.0</ele><time>2026-03-28T15:46:49.996Z</time></trkpt><trkpt lat="45.11574657533735" lon="8.216104775482787"><ele>169.75</ele><time>2026-03-28T15:46:50.996Z</time></trkpt><trkpt lat="45.11577892624836" lon="8.216285489681768"><ele>169.5</ele><time>2026-03-28T15:46:51.996Z</time></trkpt><trkpt lat="45.115810003572015" lon="8.216469531596081"><ele>169.25</ele><time>2026-03-28T15:46:52.996Z</time></trkpt><trkpt lat="45.115841200369836" lon="8.216656108023724"><ele>169.0</ele><time>2026-03-28T15:46:53.996Z</time></trkpt><trkpt lat="45.115873335822144" lon="8.21684952119871"><ele>168.75</ele><time>2026-03-28T15:46:54.996Z</time></trkpt><trkpt lat="45.11590861292995" lon="8.217041932189842"><ele>168.5</ele><time>2026-03-28T15:46:55.996Z</time></trkpt><trkpt lat="45.115944072914246" lon="8.21723772913782"><ele>168.25</ele><time>2026-03-28T15:46:56.996Z</time></trkpt><trkpt lat="45.115979893571364" lon="8.217433081533237"><ele>168.0</ele><time>2026-03-28T15:46:57.995Z</time></trkpt><trkpt lat="45.116016037978866" lon="8.217630100480717"><ele>168.0</ele><time>2026-03-28T15:46:58.994Z</time></trkpt><trkpt lat="45.116051688295656" lon="8.217834574212494"><ele>168.0</ele><time>2026-03-28T15:46:59.994Z</time></trkpt><trkpt lat="45.116092314366895" lon="8.218043220160492"><ele>168.0</ele><time>2026-03-28T15:47:00.994Z</time></trkpt><trkpt lat="45.116131329731395" lon="8.21825777869051"><ele>168.0</ele><time>2026-03-28T15:47:01.995Z</time></trkpt><trkpt lat="45.11617187691801" lon="8.218473288087617"><ele>168.0</ele><time>2026-03-28T15:47:02.995Z</time></trkpt><trkpt lat="45.11621276023963" lon="8.218695718642081"><ele>168.0</ele><time>2026-03-28T15:47:03.994Z</time></trkpt><trkpt lat="45.11624987390529" lon="8.218912331985017"><ele>168.0</ele><time>2026-03-28T15:47:04.995Z</time></trkpt><trkpt lat="45.116287040952805" lon="8.219131506734861"><ele>168.0</ele><time>2026-03-28T15:47:05.995Z</time></trkpt><trkpt lat="45.11632368790199" lon="8.219347130849858"><ele>168.0</ele><time>2026-03-28T15:47:06.995Z</time></trkpt><trkpt lat="45.11635603063354" lon="8.21953952309837"><ele>168.0</ele><time>2026-03-28T15:47:07.995Z</time></trkpt><trkpt lat="45.116391305665026" lon="8.21972185267729"><ele>168.0</ele><time>2026-03-28T15:47:08.995Z</time></trkpt><trkpt lat="45.11642503378628" lon="8.219897571807198"><ele>168.0</ele><time>2026-03-28T15:47:09.994Z</time></trkpt><trkpt lat="45.11645695471559" lon="8.220076744087526"><ele>168.0</ele><time>2026-03-28T15:47:10.995Z</time></trkpt><trkpt lat="45.116488855041354" lon="8.220263110752203"><ele>168.0</ele><time>2026-03-28T15:47:11.995Z</time></trkpt><trkpt lat="45.11652369428156" lon="8.220458196728984"><ele>168.0</ele><time>2026-03-28T15:47:12.995Z</time></trkpt><trkpt lat="45.116559426618544" lon="8.220658645743555"><ele>168.0</ele><time>2026-03-28T15:47:13.995Z</time></trkpt><trkpt lat="45.11659696931476" lon="8.220857099481803"><ele>168.0</ele><time>2026-03-28T15:47:14.995Z</time></trkpt><trkpt lat="45.11663487142696" lon="8.22105348308496"><ele>167.66666666666666</ele><time>2026-03-28T15:47:15.995Z</time></trkpt><trkpt lat="45.116673398523446" lon="8.221254044347589"><ele>167.33333333333331</ele><time>2026-03-28T15:47:16.995Z</time></trkpt><trkpt lat="45.11671176576576" lon="8.22145922239098"><ele>167.0</ele><time>2026-03-28T15:47:17.995Z</time></trkpt><trkpt lat="45.1167503301304" lon="8.22166916863369"><ele>166.75</ele><time>2026-03-28T15:47:18.995Z</time></trkpt><trkpt lat="45.11678584669816" lon="8.221867208232204"><ele>166.5</ele><time>2026-03-28T15:47:19.995Z</time></trkpt><trkpt lat="45.1168233202251" lon="8.222055325846913"><ele>166.25</ele><time>2026-03-28T15:47:20.995Z</time></trkpt><trkpt lat="45.11685739889151" lon="8.222234637471159"><ele>166.0</ele><time>2026-03-28T15:47:21.995Z</time></trkpt><trkpt lat="45.11688982237023" lon="8.222406790803023"><ele>165.8</ele><time>2026-03-28T15:47:22.995Z</time></trkpt><trkpt lat="45.11691824301028" lon="8.222567194952797"><ele>165.60000000000002</ele><time>2026-03-28T15:47:23.995Z</time></trkpt><trkpt lat="45.11694371585653" lon="8.222701200605972"><ele>165.4</ele><time>2026-03-28T15:47:24.995Z</time></trkpt><trkpt lat="45.11696391721512" lon="8.222809003890504"><ele>165.2</ele><time>2026-03-28T15:47:25.995Z</time></trkpt><trkpt lat="45.11700504653565" lon="8.222930395043983"><ele>165.0</ele><time>2026-03-28T15:47:27.995Z</time></trkpt><trkpt lat="45.11710887105381" lon="8.222924320198828"><ele>165.0</ele><time>2026-03-28T15:47:30.995Z</time></trkpt><trkpt lat="45.11716802242922" lon="8.222882168229441"><ele>165.0</ele><time>2026-03-28T15:47:31.995Z</time></trkpt><trkpt lat="45.11724830022725" lon="8.222857467445841"><ele>165.0</ele><time>2026-03-28T15:47:32.995Z</time></trkpt><trkpt lat="45.117347741908986" lon="8.222828800109008"><ele>165.0</ele><time>2026-03-28T15:47:33.995Z</time></trkpt><trkpt lat="45.11744876642088" lon="8.222797128522181"><ele>165.0</ele><time>2026-03-28T15:47:34.995Z</time></trkpt><trkpt lat="45.117555971471496" lon="8.22276005198336"><ele>165.25</ele><time>2026-03-28T15:47:35.995Z</time></trkpt><trkpt lat="45.11767294034719" lon="8.222717767825943"><ele>165.5</ele><time>2026-03-28T15:47:36.995Z</time></trkpt><trkpt lat="45.11778987929353" lon="8.222672362381484"><ele>165.75</ele><time>2026-03-28T15:47:37.995Z</time></trkpt><trkpt lat="45.11790506365568" lon="8.222621084549164"><ele>166.0</ele><time>2026-03-28T15:47:38.995Z</time></trkpt><trkpt lat="45.11802472696526" lon="8.2225573614349"><ele>166.0</ele><time>2026-03-28T15:47:39.995Z</time></trkpt><trkpt lat="45.11813750750289" lon="8.222482916062965"><ele>166.0</ele><time>2026-03-28T15:47:40.995Z</time></trkpt><trkpt lat="45.118241947200545" lon="8.222384916408277"><ele>166.0</ele><time>2026-03-28T15:47:41.995Z</time></trkpt><trkpt lat="45.11833020577903" lon="8.222253247068657"><ele>166.0</ele><time>2026-03-28T15:47:42.995Z</time></trkpt><trkpt lat="45.118398537332254" lon="8.222100753342975"><ele>169.25</ele><time>2026-03-28T15:47:43.995Z</time></trkpt><trkpt lat="45.11845042304725" lon="8.221927634141691"><ele>172.5</ele><time>2026-03-28T15:47:44.995Z</time></trkpt><trkpt lat="45.118490290336084" lon="8.221738028875407"><ele>175.75</ele><time>2026-03-28T15:47:45.995Z</time></trkpt><trkpt lat="45.118523169524146" lon="8.221536325666213"><ele>179.0</ele><time>2026-03-28T15:47:46.995Z</time></trkpt><trkpt lat="45.118545905327444" lon="8.221331328432903"><ele>179.25</ele><time>2026-03-28T15:47:47.995Z</time></trkpt><trkpt lat="45.11856989030315" lon="8.221125920851785"><ele>179.5</ele><time>2026-03-28T15:47:48.995Z</time></trkpt><trkpt lat="45.1185975624767" lon="8.220923037300624"><ele>179.75</ele><time>2026-03-28T15:47:49.995Z</time></trkpt><trkpt lat="45.11862513837664" lon="8.220723371769251"><ele>180.0</ele><time>2026-03-28T15:47:50.995Z</time></trkpt><trkpt lat="45.11866414126642" lon="8.220532087041816"><ele>179.25</ele><time>2026-03-28T15:47:51.995Z</time></trkpt><trkpt lat="45.11872396044079" lon="8.220344372046144"><ele>178.5</ele><time>2026-03-28T15:47:52.995Z</time></trkpt><trkpt lat="45.11880169499808" lon="8.220169161396456"><ele>177.75</ele><time>2026-03-28T15:47:53.995Z</time></trkpt><trkpt lat="45.11889306812755" lon="8.220010116645112"><ele>177.0</ele><time>2026-03-28T15:47:54.995Z</time></trkpt><trkpt lat="45.11898802779364" lon="8.219872140782446"><ele>181.5</ele><time>2026-03-28T15:47:55.995Z</time></trkpt><trkpt lat="45.11908378190753" lon="8.219772512080157"><ele>186.0</ele><time>2026-03-28T15:47:56.995Z</time></trkpt><trkpt lat="45.119191271424356" lon="8.219713135798422"><ele>190.5</ele><time>2026-03-28T15:47:57.995Z</time></trkpt><trkpt lat="45.119307608946805" lon="8.219698349463748"><ele>195.0</ele><time>2026-03-28T15:47:58.995Z</time></trkpt><trkpt lat="45.11942615600634" lon="8.219730113734373"><ele>195.0</ele><time>2026-03-28T15:47:59.995Z</time></trkpt><trkpt lat="45.119546659723134" lon="8.219773169394514"><ele>195.0</ele><time>2026-03-28T15:48:00.995Z</time></trkpt><trkpt lat="45.11966761266976" lon="8.219793290807843"><ele>195.0</ele><time>2026-03-28T15:48:01.995Z</time></trkpt><trkpt lat="45.11977161040978" lon="8.219785883764088"><ele>195.0</ele><time>2026-03-28T15:48:02.995Z</time></trkpt><trkpt lat="45.11986894257449" lon="8.21974454309615"><ele>197.0</ele><time>2026-03-28T15:48:03.995Z</time></trkpt><trkpt lat="45.11996436782856" lon="8.219667576086158"><ele>199.0</ele><time>2026-03-28T15:48:04.995Z</time></trkpt><trkpt lat="45.12004840741578" lon="8.219547536315037"><ele>201.0</ele><time>2026-03-28T15:48:05.995Z</time></trkpt><trkpt lat="45.12011676873207" lon="8.2194051983006"><ele>203.0</ele><time>2026-03-28T15:48:06.995Z</time></trkpt><trkpt lat="45.120165591526614" lon="8.219238062564884"><ele>203.0</ele><time>2026-03-28T15:48:07.995Z</time></trkpt><trkpt lat="45.12018658447573" lon="8.219054050860885"><ele>203.0</ele><time>2026-03-28T15:48:08.995Z</time></trkpt><trkpt lat="45.12017543825879" lon="8.218865090503664"><ele>203.0</ele><time>2026-03-28T15:48:09.995Z</time></trkpt><trkpt lat="45.12015313756336" lon="8.218668340182134"><ele>203.0</ele><time>2026-03-28T15:48:10.995Z</time></trkpt><trkpt lat="45.120133223228585" lon="8.2184704695219"><ele>205.25</ele><time>2026-03-28T15:48:11.995Z</time></trkpt><trkpt lat="45.120120391583434" lon="8.218279374241027"><ele>207.5</ele><time>2026-03-28T15:48:12.995Z</time></trkpt><trkpt lat="45.12011144190264" lon="8.218096803909257"><ele>209.75</ele><time>2026-03-28T15:48:13.995Z</time></trkpt><trkpt lat="45.12011374013377" lon="8.217934186768836"><ele>212.0</ele><time>2026-03-28T15:48:14.995Z</time></trkpt><trkpt lat="45.12011593625148" lon="8.217768247644694"><ele>213.39999999999998</ele><time>2026-03-28T15:48:15.995Z</time></trkpt><trkpt lat="45.12012658781675" lon="8.217611725075786"><ele>214.79999999999998</ele><time>2026-03-28T15:48:16.995Z</time></trkpt><trkpt lat="45.1201433648437" lon="8.217457250256947"><ele>216.2</ele><time>2026-03-28T15:48:17.995Z</time></trkpt><trkpt lat="45.12015655539739" lon="8.217304223694633"><ele>217.6</ele><time>2026-03-28T15:48:18.995Z</time></trkpt><trkpt lat="45.120168832047604" lon="8.217150489218573"><ele>219.0</ele><time>2026-03-28T15:48:19.996Z</time></trkpt><trkpt lat="45.1201801141605" lon="8.216999427729535"><ele>220.39999999999998</ele><time>2026-03-28T15:48:20.996Z</time></trkpt><trkpt lat="45.120192504326" lon="8.216850377534607"><ele>221.79999999999998</ele><time>2026-03-28T15:48:21.996Z</time></trkpt><trkpt lat="45.120206825112646" lon="8.216700355206086"><ele>223.20000000000002</ele><time>2026-03-28T15:48:22.996Z</time></trkpt><trkpt lat="45.12022579675001" lon="8.216563040298789"><ele>224.60000000000002</ele><time>2026-03-28T15:48:23.996Z</time></trkpt><trkpt lat="45.120239836037996" lon="8.216449944078418"><ele>226.0</ele><time>2026-03-28T15:48:24.996Z</time></trkpt><trkpt lat="45.120278535601095" lon="8.216316901234455"><ele>226.42857142857144</ele><time>2026-03-28T15:48:26.996Z</time></trkpt><trkpt lat="45.12034635411499" lon="8.216304730798123"><ele>226.85714285714283</ele><time>2026-03-28T15:48:28.996Z</time></trkpt><trkpt lat="45.1204174137331" lon="8.216331554933955"><ele>227.28571428571428</ele><time>2026-03-28T15:48:29.996Z</time></trkpt><trkpt lat="45.120490598631584" lon="8.216323714054166"><ele>227.71428571428572</ele><time>2026-03-28T15:48:30.996Z</time></trkpt><trkpt lat="45.12055586951046" lon="8.216289159689056"><ele>228.14285714285717</ele><time>2026-03-28T15:48:31.996Z</time></trkpt><trkpt lat="45.120611024707166" lon="8.216217730215897"><ele>228.57142857142856</ele><time>2026-03-28T15:48:32.996Z</time></trkpt><trkpt lat="45.12065116009604" lon="8.216120345362052"><ele>229.0</ele><time>2026-03-28T15:48:33.996Z</time></trkpt><trkpt lat="45.120669640909185" lon="8.216000217098957"><ele>229.0</ele><time>2026-03-28T15:48:34.996Z</time></trkpt><trkpt lat="45.120673136724236" lon="8.215854198234682"><ele>228.99999999999997</ele><time>2026-03-28T15:48:35.996Z</time></trkpt><trkpt lat="45.12068042278388" lon="8.215699362859128"><ele>228.99999999999997</ele><time>2026-03-28T15:48:36.996Z</time></trkpt><trkpt lat="45.12068830902012" lon="8.215542938503846"><ele>229.0</ele><time>2026-03-28T15:48:37.996Z</time></trkpt><trkpt lat="45.120701190249044" lon="8.215391491845951"><ele>229.0</ele><time>2026-03-28T15:48:38.996Z</time></trkpt><trkpt lat="45.12072015630488" lon="8.215250196057927"><ele>228.66666666666666</ele><time>2026-03-28T15:48:39.996Z</time></trkpt><trkpt lat="45.12073231284931" lon="8.215125525464073"><ele>228.33333333333331</ele><time>2026-03-28T15:48:40.996Z</time></trkpt><trkpt lat="45.120745490714775" lon="8.215030887208162"><ele>228.0</ele><time>2026-03-28T15:48:41.996Z</time></trkpt><trkpt lat="45.12074676435494" lon="8.21492000922562"><ele>227.66666666666669</ele><time>2026-03-28T15:48:43.996Z</time></trkpt><trkpt lat="45.12077865421293" lon="8.214833536691547"><ele>227.33333333333334</ele><time>2026-03-28T15:48:45.996Z</time></trkpt><trkpt lat="45.12085647956885" lon="8.214680685026497"><ele>227.0</ele><time>2026-03-28T15:48:47.996Z</time></trkpt><trkpt lat="45.120908823926605" lon="8.214585974743924"><ele>227.0</ele><time>2026-03-28T15:48:48.996Z</time></trkpt><trkpt lat="45.12095036469663" lon="8.214489002667062"><ele>227.0</ele><time>2026-03-28T15:48:49.996Z</time></trkpt><trkpt lat="45.12099403889012" lon="8.214363298738235"><ele>227.0</ele><time>2026-03-28T15:48:50.996Z</time></trkpt><trkpt lat="45.12104412807809" lon="8.214222594236908"><ele>227.0</ele><time>2026-03-28T15:48:51.996Z</time></trkpt><trkpt lat="45.1210835341472" lon="8.214060834509613"><ele>227.0</ele><time>2026-03-28T15:48:52.996Z</time></trkpt><trkpt lat="45.12113572791883" lon="8.213901873237296"><ele>226.25</ele><time>2026-03-28T15:48:53.996Z</time></trkpt><trkpt lat="45.1212014223009" lon="8.213758058216014"><ele>225.5</ele><time>2026-03-28T15:48:54.996Z</time></trkpt><trkpt lat="45.12125546369437" lon="8.21359724697485"><ele>224.75</ele><time>2026-03-28T15:48:55.996Z</time></trkpt><trkpt lat="45.12131688938701" lon="8.213446612290413"><ele>224.0</ele><time>2026-03-28T15:48:56.996Z</time></trkpt><trkpt lat="45.12137185911825" lon="8.213299563524963"><ele>223.0</ele><time>2026-03-28T15:48:57.996Z</time></trkpt><trkpt lat="45.121427407898054" lon="8.213152293656716"><ele>222.0</ele><time>2026-03-28T15:48:58.996Z</time></trkpt><trkpt lat="45.12148705574708" lon="8.213009280252512"><ele>221.0</ele><time>2026-03-28T15:48:59.996Z</time></trkpt><trkpt lat="45.12154356694736" lon="8.212868897858424"><ele>220.0</ele><time>2026-03-28T15:49:00.996Z</time></trkpt><trkpt lat="45.121599404746156" lon="8.21272736532596"><ele>223.25</ele><time>2026-03-28T15:49:01.996Z</time></trkpt><trkpt lat="45.121649432943904" lon="8.212580900182402"><ele>226.5</ele><time>2026-03-28T15:49:02.996Z</time></trkpt><trkpt lat="45.12170308910681" lon="8.212435105505964"><ele>229.75</ele><time>2026-03-28T15:49:03.994Z</time></trkpt><trkpt lat="45.121757563538345" lon="8.212282222196642"><ele>233.0</ele><time>2026-03-28T15:49:04.994Z</time></trkpt><trkpt lat="45.12181364213939" lon="8.212123630501043"><ele>233.0</ele><time>2026-03-28T15:49:05.994Z</time></trkpt><trkpt lat="45.12187526538787" lon="8.211961685609062"><ele>233.0</ele><time>2026-03-28T15:49:06.995Z</time></trkpt><trkpt lat="45.12192170861016" lon="8.211788139837902"><ele>233.0</ele><time>2026-03-28T15:49:07.994Z</time></trkpt><trkpt lat="45.12196235395497" lon="8.21160786841599"><ele>233.0</ele><time>2026-03-28T15:49:08.994Z</time></trkpt><trkpt lat="45.122011532671245" lon="8.211411838760162"><ele>232.0</ele><time>2026-03-28T15:49:09.994Z</time></trkpt><trkpt lat="45.122057692087054" lon="8.211216798727131"><ele>231.0</ele><time>2026-03-28T15:49:10.994Z</time></trkpt><trkpt lat="45.12209653219179" lon="8.21102115888735"><ele>230.0</ele><time>2026-03-28T15:49:11.994Z</time></trkpt><trkpt lat="45.12214436834922" lon="8.210828953788912"><ele>229.0</ele><time>2026-03-28T15:49:12.995Z</time></trkpt><trkpt lat="45.12219728779649" lon="8.21064405366059"><ele>228.25</ele><time>2026-03-28T15:49:13.994Z</time></trkpt><trkpt lat="45.12225411483229" lon="8.210474231046417"><ele>227.5</ele><time>2026-03-28T15:49:14.994Z</time></trkpt><trkpt lat="45.12231025172317" lon="8.210315390052717"><ele>226.75</ele><time>2026-03-28T15:49:15.994Z</time></trkpt><trkpt lat="45.12235831497944" lon="8.21016844306015"><ele>226.0</ele><time>2026-03-28T15:49:16.995Z</time></trkpt><trkpt lat="45.12240985212694" lon="8.21003500342286"><ele>228.75</ele><time>2026-03-28T15:49:17.995Z</time></trkpt><trkpt lat="45.12246692099396" lon="8.209899053648138"><ele>231.5</ele><time>2026-03-28T15:49:18.995Z</time></trkpt><trkpt lat="45.12253412355628" lon="8.209761211577725"><ele>234.25</ele><time>2026-03-28T15:49:19.995Z</time></trkpt><trkpt lat="45.122610611174544" lon="8.209621676383327"><ele>237.0</ele><time>2026-03-28T15:49:20.995Z</time></trkpt><trkpt lat="45.12269202117248" lon="8.209473584661596"><ele>237.25</ele><time>2026-03-28T15:49:21.995Z</time></trkpt><trkpt lat="45.122781051249696" lon="8.209320886363166"><ele>237.5</ele><time>2026-03-28T15:49:22.995Z</time></trkpt><trkpt lat="45.12287595394596" lon="8.20916271394963"><ele>237.75</ele><time>2026-03-28T15:49:23.995Z</time></trkpt><trkpt lat="45.122971680377546" lon="8.209017132456562"><ele>238.0</ele><time>2026-03-28T15:49:24.995Z</time></trkpt><trkpt lat="45.12305968512592" lon="8.208881200582175"><ele>238.0</ele><time>2026-03-28T15:49:25.995Z</time></trkpt><trkpt lat="45.12314656485007" lon="8.208734431618241"><ele>238.0</ele><time>2026-03-28T15:49:26.995Z</time></trkpt><trkpt lat="45.123239036014354" lon="8.208592213110087"><ele>238.0</ele><time>2026-03-28T15:49:27.995Z</time></trkpt><trkpt lat="45.12333691576576" lon="8.208450780416165"><ele>238.0</ele><time>2026-03-28T15:49:28.995Z</time></trkpt><trkpt lat="45.12344345876222" lon="8.208313825694203"><ele>240.0</ele><time>2026-03-28T15:49:29.995Z</time></trkpt><trkpt lat="45.1235614505706" lon="8.208178844709412"><ele>242.0</ele><time>2026-03-28T15:49:30.995Z</time></trkpt><trkpt lat="45.12368190716678" lon="8.20804679430731"><ele>244.0</ele><time>2026-03-28T15:49:31.995Z</time></trkpt><trkpt lat="45.12379672249014" lon="8.20792108773275"><ele>246.0</ele><time>2026-03-28T15:49:32.995Z</time></trkpt><trkpt lat="45.123910204633845" lon="8.207807065820987"><ele>248.0</ele><time>2026-03-28T15:49:33.995Z</time></trkpt><trkpt lat="45.12401788033636" lon="8.207685926724825"><ele>250.0</ele><time>2026-03-28T15:49:34.995Z</time></trkpt><trkpt lat="45.12411269540024" lon="8.207552085880081"><ele>252.0</ele><time>2026-03-28T15:49:35.995Z</time></trkpt><trkpt lat="45.12418676920908" lon="8.207405513226101"><ele>254.0</ele><time>2026-03-28T15:49:36.995Z</time></trkpt><trkpt lat="45.124239247084375" lon="8.207221201543934"><ele>256.33333333333337</ele><time>2026-03-28T15:49:37.995Z</time></trkpt><trkpt lat="45.12427921019083" lon="8.207003136029025"><ele>258.6666666666667</ele><time>2026-03-28T15:49:38.995Z</time></trkpt><trkpt lat="45.12431745995622" lon="8.206773382396491"><ele>261.0</ele><time>2026-03-28T15:49:39.995Z</time></trkpt><trkpt lat="45.12436384294962" lon="8.206534364005375"><ele>262.6666666666667</ele><time>2026-03-28T15:49:40.995Z</time></trkpt><trkpt lat="45.1244142685564" lon="8.206285598611213"><ele>264.33333333333337</ele><time>2026-03-28T15:49:41.995Z</time></trkpt><trkpt lat="45.12446548744443" lon="8.206053427992513"><ele>266.0</ele><time>2026-03-28T15:49:42.995Z</time></trkpt><trkpt lat="45.12451257171998" lon="8.205847154586518"><ele>265.75</ele><time>2026-03-28T15:49:43.995Z</time></trkpt><trkpt lat="45.12455036694746" lon="8.205657159785742"><ele>265.5</ele><time>2026-03-28T15:49:44.995Z</time></trkpt><trkpt lat="45.124573574503195" lon="8.205478344766442"><ele>265.25</ele><time>2026-03-28T15:49:45.995Z</time></trkpt><trkpt lat="45.124565869430505" lon="8.205309803235311"><ele>265.0</ele><time>2026-03-28T15:49:46.995Z</time></trkpt><trkpt lat="45.12452407223622" lon="8.205159576514909"><ele>265.0</ele><time>2026-03-28T15:49:47.995Z</time></trkpt><trkpt lat="45.12444820456583" lon="8.205022274367348"><ele>265.0</ele><time>2026-03-28T15:49:48.995Z</time></trkpt><trkpt lat="45.1243475685912" lon="8.20489463617386"><ele>265.0</ele><time>2026-03-28T15:49:49.995Z</time></trkpt><trkpt lat="45.12425816165792" lon="8.20476734935415"><ele>265.0</ele><time>2026-03-28T15:49:50.995Z</time></trkpt><trkpt lat="45.12419850857628" lon="8.20462592683503"><ele>265.25</ele><time>2026-03-28T15:49:51.995Z</time></trkpt><trkpt lat="45.12417036903257" lon="8.204450142301281"><ele>265.5</ele><time>2026-03-28T15:49:52.995Z</time></trkpt><trkpt lat="45.124168197666684" lon="8.204246050045876"><ele>265.75</ele><time>2026-03-28T15:49:53.995Z</time></trkpt><trkpt lat="45.12416487562453" lon="8.204027716700597"><ele>266.0</ele><time>2026-03-28T15:49:54.995Z</time></trkpt><trkpt lat="45.124165537701636" lon="8.20379544933301"><ele>266.33333333333337</ele><time>2026-03-28T15:49:55.995Z</time></trkpt><trkpt lat="45.12417414440106" lon="8.203555771995468"><ele>266.6666666666667</ele><time>2026-03-28T15:49:56.995Z</time></trkpt><trkpt lat="45.12419812978786" lon="8.203310464428446"><ele>267.0</ele><time>2026-03-28T15:49:57.995Z</time></trkpt><trkpt lat="45.124242405523056" lon="8.203064007241679"><ele>266.3333333333333</ele><time>2026-03-28T15:49:58.995Z</time></trkpt><trkpt lat="45.12429076238753" lon="8.202824088751358"><ele>265.66666666666663</ele><time>2026-03-28T15:49:59.995Z</time></trkpt><trkpt lat="45.12434988089104" lon="8.202582459518895"><ele>265.0</ele><time>2026-03-28T15:50:00.995Z</time></trkpt><trkpt lat="45.12442563836456" lon="8.202344274450565"><ele>264.0</ele><time>2026-03-28T15:50:01.995Z</time></trkpt><trkpt lat="45.124506999046076" lon="8.202113977240169"><ele>263.0</ele><time>2026-03-28T15:50:02.995Z</time></trkpt><trkpt lat="45.12458884119895" lon="8.201886701500461"><ele>262.0</ele><time>2026-03-28T15:50:03.995Z</time></trkpt><trkpt lat="45.124647189261005" lon="8.201657009064299"><ele>264.0</ele><time>2026-03-28T15:50:04.995Z</time></trkpt><trkpt lat="45.124669971072876" lon="8.201422674152905"><ele>266.0</ele><time>2026-03-28T15:50:05.995Z</time></trkpt><trkpt lat="45.124666805403464" lon="8.201190986141942"><ele>268.0</ele><time>2026-03-28T15:50:06.995Z</time></trkpt><trkpt lat="45.12464810430065" lon="8.200982114567733"><ele>268.0</ele><time>2026-03-28T15:50:07.995Z</time></trkpt><trkpt lat="45.12462878624376" lon="8.200781084359958"><ele>268.0</ele><time>2026-03-28T15:50:08.995Z</time></trkpt><trkpt lat="45.12460901671446" lon="8.20058556136334"><ele>268.0</ele><time>2026-03-28T15:50:09.995Z</time></trkpt><trkpt lat="45.124594123288205" lon="8.200383095912693"><ele>268.0</ele><time>2026-03-28T15:50:10.995Z</time></trkpt><trkpt lat="45.12457873112702" lon="8.200178344227563"><ele>270.3333333333333</ele><time>2026-03-28T15:50:11.995Z</time></trkpt><trkpt lat="45.12456061944348" lon="8.199968076275438"><ele>272.6666666666667</ele><time>2026-03-28T15:50:12.995Z</time></trkpt><trkpt lat="45.124539665394444" lon="8.199754960584626"><ele>275.0</ele><time>2026-03-28T15:50:13.995Z</time></trkpt><trkpt lat="45.124525334510395" lon="8.199535899493892"><ele>277.0</ele><time>2026-03-28T15:50:14.995Z</time></trkpt><trkpt lat="45.12451795288055" lon="8.199311824517013"><ele>279.0</ele><time>2026-03-28T15:50:15.995Z</time></trkpt><trkpt lat="45.12450977600677" lon="8.199086553341202"><ele>281.0</ele><time>2026-03-28T15:50:16.995Z</time></trkpt><trkpt lat="45.12450300386377" lon="8.198878072417838"><ele>280.75</ele><time>2026-03-28T15:50:17.995Z</time></trkpt><trkpt lat="45.124503185785635" lon="8.198675412416621"><ele>280.5</ele><time>2026-03-28T15:50:18.995Z</time></trkpt><trkpt lat="45.124505890294856" lon="8.198477065445061"><ele>280.25</ele><time>2026-03-28T15:50:19.995Z</time></trkpt><trkpt lat="45.12450597201489" lon="8.198281157042766"><ele>280.0</ele><time>2026-03-28T15:50:20.995Z</time></trkpt><trkpt lat="45.124503949487355" lon="8.198085934719288"><ele>280.0</ele><time>2026-03-28T15:50:21.995Z</time></trkpt><trkpt lat="45.12449085463354" lon="8.19789146624166"><ele>280.0</ele><time>2026-03-28T15:50:22.995Z</time></trkpt><trkpt lat="45.1244616965622" lon="8.197700141817437"><ele>280.0</ele><time>2026-03-28T15:50:23.995Z</time></trkpt><trkpt lat="45.12442172342909" lon="8.197531145412846"><ele>280.0</ele><time>2026-03-28T15:50:24.995Z</time></trkpt><trkpt lat="45.12437761649376" lon="8.197369741232944"><ele>279.2</ele><time>2026-03-28T15:50:25.995Z</time></trkpt><trkpt lat="45.12434052082897" lon="8.197212469133119"><ele>278.4</ele><time>2026-03-28T15:50:26.995Z</time></trkpt><trkpt lat="45.124317387849196" lon="8.197061421282587"><ele>277.6</ele><time>2026-03-28T15:50:27.995Z</time></trkpt><trkpt lat="45.12431867597787" lon="8.196913020988447"><ele>276.8</ele><time>2026-03-28T15:50:28.995Z</time></trkpt><trkpt lat="45.124345674424426" lon="8.196764867071499"><ele>276.0</ele><time>2026-03-28T15:50:29.995Z</time></trkpt><trkpt lat="45.12439505407629" lon="8.196613503369084"><ele>274.6</ele><time>2026-03-28T15:50:30.995Z</time></trkpt><trkpt lat="45.12445296361022" lon="8.196462274395856"><ele>273.20000000000005</ele><time>2026-03-28T15:50:31.995Z</time></trkpt><trkpt lat="45.12449812616992" lon="8.196315173852406"><ele>271.79999999999995</ele><time>2026-03-28T15:50:32.995Z</time></trkpt><trkpt lat="45.12453594509785" lon="8.196168574009121"><ele>270.4</ele><time>2026-03-28T15:50:33.996Z</time></trkpt><trkpt lat="45.12456244087072" lon="8.196025886156928"><ele>269.0</ele><time>2026-03-28T15:50:34.996Z</time></trkpt><trkpt lat="45.124580993241935" lon="8.195888546523902"><ele>269.0</ele><time>2026-03-28T15:50:35.996Z</time></trkpt><trkpt lat="45.124589746035134" lon="8.195777926856477"><ele>269.0</ele><time>2026-03-28T15:50:36.996Z</time></trkpt><trkpt lat="45.124560934192395" lon="8.19560993648087"><ele>269.0</ele><time>2026-03-28T15:50:38.996Z</time></trkpt><trkpt lat="45.12452165406305" lon="8.195509205603292"><ele>269.0</ele><time>2026-03-28T15:50:39.996Z</time></trkpt><trkpt lat="45.12449261688096" lon="8.195379109955997"><ele>269.0</ele><time>2026-03-28T15:50:40.996Z</time></trkpt><trkpt lat="45.1244596774468" lon="8.195237693785296"><ele>267.59999999999997</ele><time>2026-03-28T15:50:41.996Z</time></trkpt><trkpt lat="45.124422263112855" lon="8.19508861458362"><ele>266.2</ele><time>2026-03-28T15:50:42.996Z</time></trkpt><trkpt lat="45.124383019436216" lon="8.194948194854062"><ele>264.79999999999995</ele><time>2026-03-28T15:50:43.996Z</time></trkpt><trkpt lat="45.12436371907218" lon="8.19482280481723"><ele>263.4</ele><time>2026-03-28T15:50:44.996Z</time></trkpt><trkpt lat="45.1243746128551" lon="8.194715121243883"><ele>262.0</ele><time>2026-03-28T15:50:45.996Z</time></trkpt><trkpt lat="45.12445710280289" lon="8.194587099689347"><ele>258.75</ele><time>2026-03-28T15:50:47.996Z</time></trkpt><trkpt lat="45.12454665343586" lon="8.194539384596245"><ele>255.5</ele><time>2026-03-28T15:50:48.996Z</time></trkpt><trkpt lat="45.1246508884318" lon="8.194484661187522"><ele>252.25</ele><time>2026-03-28T15:50:49.996Z</time></trkpt><trkpt lat="45.12476431740439" lon="8.194405868888978"><ele>249.0</ele><time>2026-03-28T15:50:50.996Z</time></trkpt><trkpt lat="45.12488583060868" lon="8.194305991507646"><ele>250.0</ele><time>2026-03-28T15:50:51.996Z</time></trkpt><trkpt lat="45.12500815707103" lon="8.194205834793634"><ele>251.0</ele><time>2026-03-28T15:50:52.996Z</time></trkpt><trkpt lat="45.12513752248485" lon="8.194099703702273"><ele>252.0</ele><time>2026-03-28T15:50:53.996Z</time></trkpt><trkpt lat="45.12527046562722" lon="8.193971075553495"><ele>252.0</ele><time>2026-03-28T15:50:54.996Z</time></trkpt><trkpt lat="45.12539649275012" lon="8.19383007202058"><ele>252.0</ele><time>2026-03-28T15:50:55.996Z</time></trkpt><trkpt lat="45.125529043920935" lon="8.193690691593922"><ele>252.0</ele><time>2026-03-28T15:50:56.996Z</time></trkpt><trkpt lat="45.12566374232087" lon="8.193558328385762"><ele>256.25</ele><time>2026-03-28T15:50:57.996Z</time></trkpt><trkpt lat="45.12578861226683" lon="8.193431780240692"><ele>260.5</ele><time>2026-03-28T15:50:58.996Z</time></trkpt><trkpt lat="45.12589537723919" lon="8.193294485095432"><ele>264.75</ele><time>2026-03-28T15:50:59.996Z</time></trkpt><trkpt lat="45.125987317886235" lon="8.193136203402009"><ele>269.0</ele><time>2026-03-28T15:51:00.996Z</time></trkpt><trkpt lat="45.12607055066474" lon="8.192960364668375"><ele>269.0</ele><time>2026-03-28T15:51:01.996Z</time></trkpt><trkpt lat="45.12614652211728" lon="8.192770737752854"><ele>269.0</ele><time>2026-03-28T15:51:02.996Z</time></trkpt><trkpt lat="45.12622681347404" lon="8.192578451499017"><ele>269.0</ele><time>2026-03-28T15:51:03.996Z</time></trkpt><trkpt lat="45.12631311886283" lon="8.192386511200286"><ele>267.6666666666667</ele><time>2026-03-28T15:51:04.996Z</time></trkpt><trkpt lat="45.12640624796641" lon="8.192196711032542"><ele>266.3333333333333</ele><time>2026-03-28T15:51:05.996Z</time></trkpt><trkpt lat="45.1265010101308" lon="8.19200765740774"><ele>265.0</ele><time>2026-03-28T15:51:06.996Z</time></trkpt><trkpt lat="45.126603249373744" lon="8.19182174969431"><ele>270.66666666666663</ele><time>2026-03-28T15:51:07.996Z</time></trkpt><trkpt lat="45.126713090048526" lon="8.191645009196924"><ele>276.3333333333333</ele><time>2026-03-28T15:51:08.996Z</time></trkpt><trkpt lat="45.12682899894836" lon="8.191473147400943"><ele>282.0</ele><time>2026-03-28T15:51:09.994Z</time></trkpt><trkpt lat="45.126946431802644" lon="8.191297484759268"><ele>284.6666666666667</ele><time>2026-03-28T15:51:10.994Z</time></trkpt><trkpt lat="45.127066480217785" lon="8.191122851105678"><ele>287.33333333333337</ele><time>2026-03-28T15:51:11.994Z</time></trkpt><trkpt lat="45.12718536705601" lon="8.190951269609732"><ele>290.0</ele><time>2026-03-28T15:51:12.994Z</time></trkpt><trkpt lat="45.127303841738836" lon="8.190778943621543"><ele>292.6666666666667</ele><time>2026-03-28T15:51:13.994Z</time></trkpt><trkpt lat="45.12742278783018" lon="8.190614080952619"><ele>295.3333333333333</ele><time>2026-03-28T15:51:14.994Z</time></trkpt><trkpt lat="45.127549905054344" lon="8.190473345230512"><ele>298.0</ele><time>2026-03-28T15:51:15.994Z</time></trkpt><trkpt lat="45.12769478029598" lon="8.190367865340008"><ele>298.0</ele><time>2026-03-28T15:51:16.994Z</time></trkpt><trkpt lat="45.12785379864147" lon="8.190291972094641"><ele>298.0</ele><time>2026-03-28T15:51:17.994Z</time></trkpt><trkpt lat="45.12801901518929" lon="8.190231356074474"><ele>298.0</ele><time>2026-03-28T15:51:18.994Z</time></trkpt><trkpt lat="45.12818450462654" lon="8.190163584522416"><ele>299.0</ele><time>2026-03-28T15:51:19.994Z</time></trkpt><trkpt lat="45.12835226389778" lon="8.190093631180313"><ele>300.0</ele><time>2026-03-28T15:51:20.994Z</time></trkpt><trkpt lat="45.12851233425249" lon="8.190029150999413"><ele>301.0</ele><time>2026-03-28T15:51:21.994Z</time></trkpt><trkpt lat="45.12865798895125" lon="8.189978391167523"><ele>301.0</ele><time>2026-03-28T15:51:22.994Z</time></trkpt><trkpt lat="45.128791382459944" lon="8.189955033680205"><ele>301.0</ele><time>2026-03-28T15:51:23.994Z</time></trkpt><trkpt lat="45.12891230268947" lon="8.18996389178479"><ele>301.0</ele><time>2026-03-28T15:51:24.994Z</time></trkpt><trkpt lat="45.129016811138754" lon="8.190015260961227"><ele>301.0</ele><time>2026-03-28T15:51:25.994Z</time></trkpt><trkpt lat="45.129120670542164" lon="8.19010257751848"><ele>301.25</ele><time>2026-03-28T15:51:26.994Z</time></trkpt><trkpt lat="45.129224988265555" lon="8.190204101480786"><ele>301.5</ele><time>2026-03-28T15:51:27.994Z</time></trkpt><trkpt lat="45.12933690202513" lon="8.190312111073752"><ele>301.75</ele><time>2026-03-28T15:51:28.994Z</time></trkpt><trkpt lat="45.12945523387359" lon="8.190422145003874"><ele>302.0</ele><time>2026-03-28T15:51:29.994Z</time></trkpt><trkpt lat="45.129576555705604" lon="8.190503012785243"><ele>302.0</ele><time>2026-03-28T15:51:30.994Z</time></trkpt><trkpt lat="45.12970039899705" lon="8.190536867415702"><ele>302.0</ele><time>2026-03-28T15:51:31.994Z</time></trkpt><trkpt lat="45.12982063518702" lon="8.190519015616848"><ele>302.0</ele><time>2026-03-28T15:51:32.994Z</time></trkpt><trkpt lat="45.129928901531784" lon="8.190458680211787"><ele>302.0</ele><time>2026-03-28T15:51:33.994Z</time></trkpt><trkpt lat="45.130035175237786" lon="8.190367740685359"><ele>299.5</ele><time>2026-03-28T15:51:34.994Z</time></trkpt><trkpt lat="45.130136198424964" lon="8.190274121174044"><ele>297.0</ele><time>2026-03-28T15:51:35.994Z</time></trkpt><trkpt lat="45.13024113896755" lon="8.190182462719685"><ele>294.5</ele><time>2026-03-28T15:51:36.994Z</time></trkpt><trkpt lat="45.13035459795431" lon="8.190113770812168"><ele>292.0</ele><time>2026-03-28T15:51:37.994Z</time></trkpt><trkpt lat="45.13047759549067" lon="8.190056793771566"><ele>292.0</ele><time>2026-03-28T15:51:38.994Z</time></trkpt><trkpt lat="45.13061244628347" lon="8.190016171693316"><ele>292.0</ele><time>2026-03-28T15:51:39.994Z</time></trkpt><trkpt lat="45.13076516977717" lon="8.190018808004965"><ele>292.0</ele><time>2026-03-28T15:51:40.994Z</time></trkpt><trkpt lat="45.1309214322987" lon="8.190040857549421"><ele>292.0</ele><time>2026-03-28T15:51:41.994Z</time></trkpt><trkpt lat="45.13107163155517" lon="8.190068917520735"><ele>293.5</ele><time>2026-03-28T15:51:42.994Z</time></trkpt><trkpt lat="45.13121815044078" lon="8.190072905027826"><ele>295.0</ele><time>2026-03-28T15:51:43.994Z</time></trkpt><trkpt lat="45.13135845741534" lon="8.190051576584322"><ele>296.5</ele><time>2026-03-28T15:51:44.994Z</time></trkpt><trkpt lat="45.131488432538376" lon="8.189999751240252"><ele>298.0</ele><time>2026-03-28T15:51:45.994Z</time></trkpt><trkpt lat="45.13160133167832" lon="8.189916485594148"><ele>297.0</ele><time>2026-03-28T15:51:46.994Z</time></trkpt><trkpt lat="45.13170772040154" lon="8.18980808884959"><ele>296.0</ele><time>2026-03-28T15:51:47.994Z</time></trkpt><trkpt lat="45.13180851991759" lon="8.189692299356508"><ele>295.0</ele><time>2026-03-28T15:51:48.994Z</time></trkpt><trkpt lat="45.131908086905696" lon="8.189579935085991"><ele>294.0</ele><time>2026-03-28T15:51:49.994Z</time></trkpt><trkpt lat="45.13200787590017" lon="8.189473032485788"><ele>294.0</ele><time>2026-03-28T15:51:50.994Z</time></trkpt><trkpt lat="45.13210449107135" lon="8.18936975631434"><ele>294.0</ele><time>2026-03-28T15:51:51.994Z</time></trkpt><trkpt lat="45.13219947222553" lon="8.189269923269222"><ele>294.0</ele><time>2026-03-28T15:51:52.994Z</time></trkpt><trkpt lat="45.13229959205047" lon="8.189185923218949"><ele>294.0</ele><time>2026-03-28T15:51:53.994Z</time></trkpt><trkpt lat="45.1324068359925" lon="8.189119761518997"><ele>295.5</ele><time>2026-03-28T15:51:54.994Z</time></trkpt><trkpt lat="45.13251546533236" lon="8.189067054924449"><ele>297.0</ele><time>2026-03-28T15:51:55.994Z</time></trkpt><trkpt lat="45.13262220906251" lon="8.18905647788141"><ele>298.5</ele><time>2026-03-28T15:51:56.994Z</time></trkpt><trkpt lat="45.13272508467381" lon="8.189069339922009"><ele>300.0</ele><time>2026-03-28T15:51:57.994Z</time></trkpt><trkpt lat="45.132848151512505" lon="8.189096452441806"><ele>300.0</ele><time>2026-03-28T15:51:58.994Z</time></trkpt><trkpt lat="45.132976269468436" lon="8.189128030747886"><ele>300.0</ele><time>2026-03-28T15:51:59.994Z</time></trkpt><trkpt lat="45.133111336477526" lon="8.18915629600818"><ele>300.0</ele><time>2026-03-28T15:52:00.994Z</time></trkpt><trkpt lat="45.13325520917137" lon="8.189182980149404"><ele>300.0</ele><time>2026-03-28T15:52:01.994Z</time></trkpt><trkpt lat="45.13340031422594" lon="8.189229118437805"><ele>300.75</ele><time>2026-03-28T15:52:02.994Z</time></trkpt><trkpt lat="45.133540628949184" lon="8.189284260650874"><ele>301.5</ele><time>2026-03-28T15:52:03.994Z</time></trkpt><trkpt lat="45.133672890198724" lon="8.1893466266422"><ele>302.25</ele><time>2026-03-28T15:52:04.994Z</time></trkpt><trkpt lat="45.13378515219785" lon="8.189411862226988"><ele>303.0</ele><time>2026-03-28T15:52:05.994Z</time></trkpt><trkpt lat="45.133883148950254" lon="8.189460803577091"><ele>303.0</ele><time>2026-03-28T15:52:06.994Z</time></trkpt><trkpt lat="45.13396421870847" lon="8.189506261966901"><ele>303.0</ele><time>2026-03-28T15:52:07.994Z</time></trkpt><trkpt lat="45.134030118451435" lon="8.18952833357406"><ele>303.0</ele><time>2026-03-28T15:52:08.994Z</time></trkpt><trkpt lat="45.13411473112045" lon="8.189462756472373"><ele>303.0</ele><time>2026-03-28T15:52:10.994Z</time></trkpt><trkpt lat="45.134149557036174" lon="8.189344209853322"><ele>303.0</ele><time>2026-03-28T15:52:11.994Z</time></trkpt><trkpt lat="45.13416584662392" lon="8.189202032883651"><ele>303.0</ele><time>2026-03-28T15:52:12.994Z</time></trkpt><trkpt lat="45.13417561664765" lon="8.189022553006264"><ele>301.75</ele><time>2026-03-28T15:52:13.994Z</time></trkpt><trkpt lat="45.13418178188592" lon="8.188830859429125"><ele>300.5</ele><time>2026-03-28T15:52:14.994Z</time></trkpt><trkpt lat="45.13421071537898" lon="8.188653681397334"><ele>299.25</ele><time>2026-03-28T15:52:15.994Z</time></trkpt><trkpt lat="45.13425619481284" lon="8.188483563394964"><ele>298.0</ele><time>2026-03-28T15:52:16.994Z</time></trkpt><trkpt lat="45.13430428004332" lon="8.188298663114516"><ele>299.0</ele><time>2026-03-28T15:52:17.994Z</time></trkpt><trkpt lat="45.13438414285045" lon="8.18812487342405"><ele>300.0</ele><time>2026-03-28T15:52:18.994Z</time></trkpt><trkpt lat="45.13448933218194" lon="8.187962595394335"><ele>301.0</ele><time>2026-03-28T15:52:19.994Z</time></trkpt><trkpt lat="45.13460982380459" lon="8.187811588108714"><ele>301.0</ele><time>2026-03-28T15:52:20.994Z</time></trkpt><trkpt lat="45.13475333727957" lon="8.187680973391599"><ele>301.0</ele><time>2026-03-28T15:52:21.995Z</time></trkpt><trkpt lat="45.13489517582042" lon="8.187561876244573"><ele>301.0</ele><time>2026-03-28T15:52:22.995Z</time></trkpt><trkpt lat="45.1350360887769" lon="8.18743394392707"><ele>296.3333333333333</ele><time>2026-03-28T15:52:23.995Z</time></trkpt><trkpt lat="45.13516814589406" lon="8.187302361316842"><ele>291.6666666666667</ele><time>2026-03-28T15:52:24.995Z</time></trkpt><trkpt lat="45.13529376614596" lon="8.187166476845723"><ele>287.0</ele><time>2026-03-28T15:52:25.995Z</time></trkpt><trkpt lat="45.135408884294975" lon="8.187034709644143"><ele>287.0</ele><time>2026-03-28T15:52:26.995Z</time></trkpt><trkpt lat="45.13551586523955" lon="8.186915051908798"><ele>287.0</ele><time>2026-03-28T15:52:27.995Z</time></trkpt><trkpt lat="45.13562676900197" lon="8.186810927034651"><ele>287.0</ele><time>2026-03-28T15:52:28.995Z</time></trkpt><trkpt lat="45.13574591870243" lon="8.186736966216014"><ele>287.0</ele><time>2026-03-28T15:52:29.995Z</time></trkpt><trkpt lat="45.135874306606055" lon="8.186701466227415"><ele>284.0</ele><time>2026-03-28T15:52:30.995Z</time></trkpt><trkpt lat="45.13601485975597" lon="8.186712684871264"><ele>281.0</ele><time>2026-03-28T15:52:31.995Z</time></trkpt><trkpt lat="45.136155896204315" lon="8.18673013522351"><ele>278.0</ele><time>2026-03-28T15:52:32.995Z</time></trkpt><trkpt lat="45.13630489276734" lon="8.186777156145647"><ele>275.0</ele><time>2026-03-28T15:52:33.995Z</time></trkpt><trkpt lat="45.136446351250065" lon="8.186847945833955"><ele>273.5</ele><time>2026-03-28T15:52:34.995Z</time></trkpt><trkpt lat="45.1365786183708" lon="8.186935331563593"><ele>272.0</ele><time>2026-03-28T15:52:35.995Z</time></trkpt><trkpt lat="45.13671295631835" lon="8.187018272130741"><ele>270.5</ele><time>2026-03-28T15:52:36.995Z</time></trkpt><trkpt lat="45.1368555567345" lon="8.187047911580327"><ele>269.0</ele><time>2026-03-28T15:52:37.995Z</time></trkpt><trkpt lat="45.13700203572656" lon="8.187056069095764"><ele>269.0</ele><time>2026-03-28T15:52:38.995Z</time></trkpt><trkpt lat="45.13714910746432" lon="8.187047459835137"><ele>269.0</ele><time>2026-03-28T15:52:39.995Z</time></trkpt><trkpt lat="45.137302758977036" lon="8.187034075393758"><ele>269.0</ele><time>2026-03-28T15:52:40.995Z</time></trkpt><trkpt lat="45.13745605805694" lon="8.187017735933253"><ele>266.0</ele><time>2026-03-28T15:52:41.995Z</time></trkpt><trkpt lat="45.1376063612125" lon="8.187002728436974"><ele>263.0</ele><time>2026-03-28T15:52:42.995Z</time></trkpt><trkpt lat="45.13775268984991" lon="8.186974225802098"><ele>260.0</ele><time>2026-03-28T15:52:43.995Z</time></trkpt><trkpt lat="45.13789552008129" lon="8.186909217802912"><ele>257.0</ele><time>2026-03-28T15:52:44.995Z</time></trkpt><trkpt lat="45.13803637417501" lon="8.18682485876334"><ele>257.0</ele><time>2026-03-28T15:52:45.995Z</time></trkpt><trkpt lat="45.138179281555395" lon="8.186721158587018"><ele>257.0</ele><time>2026-03-28T15:52:46.995Z</time></trkpt><trkpt lat="45.138329672077575" lon="8.186615095276524"><ele>257.0</ele><time>2026-03-28T15:52:47.995Z</time></trkpt><trkpt lat="45.13847952529791" lon="8.186501846061653"><ele>252.33333333333334</ele><time>2026-03-28T15:52:48.995Z</time></trkpt><trkpt lat="45.138633279862475" lon="8.18638718711672"><ele>247.66666666666669</ele><time>2026-03-28T15:52:49.995Z</time></trkpt><trkpt lat="45.1387907179921" lon="8.186270942637154"><ele>243.0</ele><time>2026-03-28T15:52:50.995Z</time></trkpt><trkpt lat="45.13894994617796" lon="8.186156812895868"><ele>245.33333333333331</ele><time>2026-03-28T15:52:51.995Z</time></trkpt><trkpt lat="45.13910821915681" lon="8.186043031364598"><ele>247.66666666666666</ele><time>2026-03-28T15:52:52.995Z</time></trkpt><trkpt lat="45.139268365291734" lon="8.185936961180774"><ele>250.0</ele><time>2026-03-28T15:52:53.995Z</time></trkpt><trkpt lat="45.13943576233522" lon="8.185856259718973"><ele>250.0</ele><time>2026-03-28T15:52:54.995Z</time></trkpt><trkpt lat="45.139606507904254" lon="8.18580277699437"><ele>250.0</ele><time>2026-03-28T15:52:55.995Z</time></trkpt><trkpt lat="45.13977309922025" lon="8.18576761135283"><ele>250.0</ele><time>2026-03-28T15:52:56.995Z</time></trkpt><trkpt lat="45.139933938966905" lon="8.18574390187744"><ele>252.0</ele><time>2026-03-28T15:52:57.995Z</time></trkpt><trkpt lat="45.14008431636433" lon="8.185724578612808"><ele>254.0</ele><time>2026-03-28T15:52:58.995Z</time></trkpt><trkpt lat="45.14022450722828" lon="8.185724546377545"><ele>256.0</ele><time>2026-03-28T15:52:59.995Z</time></trkpt><trkpt lat="45.140363617685246" lon="8.185746997313895"><ele>258.0</ele><time>2026-03-28T15:53:00.995Z</time></trkpt><trkpt lat="45.14050137485803" lon="8.185807637091584"><ele>258.0</ele><time>2026-03-28T15:53:01.995Z</time></trkpt><trkpt lat="45.14063134653852" lon="8.185893730217515"><ele>258.0</ele><time>2026-03-28T15:53:02.995Z</time></trkpt><trkpt lat="45.14076249341338" lon="8.185996502700405"><ele>258.0</ele><time>2026-03-28T15:53:03.995Z</time></trkpt><trkpt lat="45.140896316942104" lon="8.18609529443521"><ele>258.0</ele><time>2026-03-28T15:53:04.995Z</time></trkpt><trkpt lat="45.14103815662395" lon="8.1861726316832"><ele>259.3333333333333</ele><time>2026-03-28T15:53:05.995Z</time></trkpt><trkpt lat="45.141188992298815" lon="8.186229913244306"><ele>260.66666666666663</ele><time>2026-03-28T15:53:06.995Z</time></trkpt><trkpt lat="45.1413504977934" lon="8.186258694789917"><ele>262.0</ele><time>2026-03-28T15:53:07.995Z</time></trkpt><trkpt lat="45.14150819532701" lon="8.186279630760978"><ele>259.0</ele><time>2026-03-28T15:53:08.995Z</time></trkpt><trkpt lat="45.14166435720507" lon="8.186313667083265"><ele>256.0</ele><time>2026-03-28T15:53:09.995Z</time></trkpt><trkpt lat="45.141817591498636" lon="8.186373735524107"><ele>253.0</ele><time>2026-03-28T15:53:10.995Z</time></trkpt><trkpt lat="45.141969803594776" lon="8.186443911641"><ele>253.0</ele><time>2026-03-28T15:53:11.995Z</time></trkpt><trkpt lat="45.14211920029533" lon="8.186509823773541"><ele>253.0</ele><time>2026-03-28T15:53:12.995Z</time></trkpt><trkpt lat="45.142266392796586" lon="8.18656989102919"><ele>253.0</ele><time>2026-03-28T15:53:13.995Z</time></trkpt><trkpt lat="45.142410476328436" lon="8.186631234060595"><ele>253.66666666666666</ele><time>2026-03-28T15:53:14.995Z</time></trkpt><trkpt lat="45.14255211781808" lon="8.186704881681104"><ele>254.33333333333331</ele><time>2026-03-28T15:53:15.994Z</time></trkpt><trkpt lat="45.1426910670467" lon="8.18679771437024"><ele>255.0</ele><time>2026-03-28T15:53:16.994Z</time></trkpt><trkpt lat="45.14282144870418" lon="8.186908219386407"><ele>255.0</ele><time>2026-03-28T15:53:17.994Z</time></trkpt><trkpt lat="45.14295242990078" lon="8.187021446895857"><ele>255.0</ele><time>2026-03-28T15:53:18.993Z</time></trkpt><trkpt lat="45.14308465465849" lon="8.187131152691434"><ele>255.0</ele><time>2026-03-28T15:53:19.994Z</time></trkpt><trkpt lat="45.14321453952195" lon="8.187231824892313"><ele>253.25</ele><time>2026-03-28T15:53:20.994Z</time></trkpt><trkpt lat="45.14334829092041" lon="8.187320943225211"><ele>251.5</ele><time>2026-03-28T15:53:21.994Z</time></trkpt><trkpt lat="45.14348550488988" lon="8.187391617637648"><ele>249.75</ele><time>2026-03-28T15:53:22.994Z</time></trkpt><trkpt lat="45.14362770859576" lon="8.187458400362088"><ele>248.0</ele><time>2026-03-28T15:53:23.994Z</time></trkpt><trkpt lat="45.143767206826205" lon="8.187533255289667"><ele>247.25</ele><time>2026-03-28T15:53:24.994Z</time></trkpt><trkpt lat="45.143900123309805" lon="8.18761615952634"><ele>246.5</ele><time>2026-03-28T15:53:25.994Z</time></trkpt><trkpt lat="45.14401623681992" lon="8.187707671669468"><ele>245.75</ele><time>2026-03-28T15:53:26.994Z</time></trkpt><trkpt lat="45.14411508813441" lon="8.18780756993739"><ele>245.0</ele><time>2026-03-28T15:53:27.994Z</time></trkpt><trkpt lat="45.14419851217772" lon="8.187921210853471"><ele>243.8</ele><time>2026-03-28T15:53:28.994Z</time></trkpt><trkpt lat="45.1442637157474" lon="8.1880581441207"><ele>242.6</ele><time>2026-03-28T15:53:29.994Z</time></trkpt><trkpt lat="45.14431165469483" lon="8.188198052681646"><ele>241.39999999999998</ele><time>2026-03-28T15:53:30.994Z</time></trkpt><trkpt lat="45.144346931636285" lon="8.188329883772592"><ele>240.2</ele><time>2026-03-28T15:53:31.994Z</time></trkpt><trkpt lat="45.144392081649464" lon="8.188459148177396"><ele>239.0</ele><time>2026-03-28T15:53:32.994Z</time></trkpt><trkpt lat="45.14445220809583" lon="8.188567826701695"><ele>239.0</ele><time>2026-03-28T15:53:33.994Z</time></trkpt><trkpt lat="45.14452286202145" lon="8.18868071269667"><ele>239.0</ele><time>2026-03-28T15:53:34.994Z</time></trkpt><trkpt lat="45.14461646817703" lon="8.188778121663256"><ele>239.0</ele><time>2026-03-28T15:53:35.994Z</time></trkpt><trkpt lat="45.14471515167952" lon="8.188874536573238"><ele>239.0</ele><time>2026-03-28T15:53:36.994Z</time></trkpt><trkpt lat="45.14481923179143" lon="8.188968093832928"><ele>238.6</ele><time>2026-03-28T15:53:37.994Z</time></trkpt><trkpt lat="45.14491462262454" lon="8.189038697862562"><ele>238.2</ele><time>2026-03-28T15:53:38.994Z</time></trkpt><trkpt lat="45.14501029700382" lon="8.18909269710227"><ele>237.79999999999998</ele><time>2026-03-28T15:53:39.994Z</time></trkpt><trkpt lat="45.145107423515135" lon="8.189144330822758"><ele>237.39999999999998</ele><time>2026-03-28T15:53:40.994Z</time></trkpt><trkpt lat="45.14520221321743" lon="8.189192120413457"><ele>237.0</ele><time>2026-03-28T15:53:41.994Z</time></trkpt><trkpt lat="45.14530685963061" lon="8.189224647152889"><ele>237.0</ele><time>2026-03-28T15:53:42.994Z</time></trkpt><trkpt lat="45.14541530537719" lon="8.189241043427263"><ele>237.0</ele><time>2026-03-28T15:53:43.994Z</time></trkpt><trkpt lat="45.14551824409806" lon="8.189258386610382"><ele>237.0</ele><time>2026-03-28T15:53:44.994Z</time></trkpt><trkpt lat="45.14562378410863" lon="8.189266269906264"><ele>237.0</ele><time>2026-03-28T15:53:45.994Z</time></trkpt><trkpt lat="45.14571941382826" lon="8.189267613107672"><ele>237.0</ele><time>2026-03-28T15:53:46.994Z</time></trkpt><trkpt lat="45.14582300835541" lon="8.189244651400035"><ele>236.8</ele><time>2026-03-28T15:53:47.994Z</time></trkpt><trkpt lat="45.14592431269719" lon="8.18923174376578"><ele>236.6</ele><time>2026-03-28T15:53:48.994Z</time></trkpt><trkpt lat="45.146021802021146" lon="8.18923539702661"><ele>236.40000000000003</ele><time>2026-03-28T15:53:49.994Z</time></trkpt><trkpt lat="45.146113894065266" lon="8.189240437719507"><ele>236.20000000000002</ele><time>2026-03-28T15:53:50.994Z</time></trkpt><trkpt lat="45.146210490227716" lon="8.189259730495145"><ele>236.0</ele><time>2026-03-28T15:53:51.994Z</time></trkpt><trkpt lat="45.14630892192195" lon="8.189297517044162"><ele>236.0</ele><time>2026-03-28T15:53:52.994Z</time></trkpt><trkpt lat="45.146399625973146" lon="8.1893485062186"><ele>236.00000000000003</ele><time>2026-03-28T15:53:53.994Z</time></trkpt><trkpt lat="45.146496959040974" lon="8.189400137719847"><ele>236.00000000000003</ele><time>2026-03-28T15:53:54.994Z</time></trkpt><trkpt lat="45.14659782810015" lon="8.189461788654482"><ele>236.0</ele><time>2026-03-28T15:53:55.994Z</time></trkpt><trkpt lat="45.14670800054222" lon="8.189533873349061"><ele>236.0</ele><time>2026-03-28T15:53:56.994Z</time></trkpt><trkpt lat="45.146818067453815" lon="8.189616170898196"><ele>235.5</ele><time>2026-03-28T15:53:57.994Z</time></trkpt><trkpt lat="45.14693491581502" lon="8.189697054016603"><ele>235.0</ele><time>2026-03-28T15:53:58.995Z</time></trkpt><trkpt lat="45.14705095121595" lon="8.189776252367079"><ele>234.5</ele><time>2026-03-28T15:53:59.995Z</time></trkpt><trkpt lat="45.147167515372665" lon="8.189853649900234"><ele>234.0</ele><time>2026-03-28T15:54:00.995Z</time></trkpt><trkpt lat="45.14728793988871" lon="8.189916737717533"><ele>233.75</ele><time>2026-03-28T15:54:01.995Z</time></trkpt><trkpt lat="45.147417546324064" lon="8.189946220910532"><ele>233.5</ele><time>2026-03-28T15:54:02.995Z</time></trkpt><trkpt lat="45.14754786275216" lon="8.189953342246161"><ele>233.25</ele><time>2026-03-28T15:54:03.995Z</time></trkpt><trkpt lat="45.14768284525035" lon="8.189952615695802"><ele>233.0</ele><time>2026-03-28T15:54:04.995Z</time></trkpt><trkpt lat="45.147816544400094" lon="8.189950556081241"><ele>233.0</ele><time>2026-03-28T15:54:05.995Z</time></trkpt><trkpt lat="45.14795165729644" lon="8.189944509169914"><ele>233.0</ele><time>2026-03-28T15:54:06.995Z</time></trkpt><trkpt lat="45.148087637255664" lon="8.18994053483255"><ele>233.0</ele><time>2026-03-28T15:54:07.995Z</time></trkpt><trkpt lat="45.1482262416615" lon="8.189939421036174"><ele>233.0</ele><time>2026-03-28T15:54:08.995Z</time></trkpt><trkpt lat="45.148367952829794" lon="8.189940450558671"><ele>231.75</ele><time>2026-03-28T15:54:09.995Z</time></trkpt><trkpt lat="45.1485114972317" lon="8.189938934595018"><ele>230.5</ele><time>2026-03-28T15:54:10.995Z</time></trkpt><trkpt lat="45.14865708585794" lon="8.189922831122722"><ele>229.25</ele><time>2026-03-28T15:54:11.995Z</time></trkpt><trkpt lat="45.14880157006077" lon="8.189884422573193"><ele>228.0</ele><time>2026-03-28T15:54:12.995Z</time></trkpt><trkpt lat="45.148939423654355" lon="8.189794367870105"><ele>227.33333333333331</ele><time>2026-03-28T15:54:13.995Z</time></trkpt><trkpt lat="45.14906350457072" lon="8.189670115362693"><ele>226.66666666666666</ele><time>2026-03-28T15:54:14.995Z</time></trkpt><trkpt lat="45.14918803437412" lon="8.189542800050091"><ele>226.0</ele><time>2026-03-28T15:54:15.995Z</time></trkpt><trkpt lat="45.14931675910684" lon="8.189416591823303"><ele>226.0</ele><time>2026-03-28T15:54:16.995Z</time></trkpt><trkpt lat="45.149449275767964" lon="8.189291952200664"><ele>226.0</ele><time>2026-03-28T15:54:17.995Z</time></trkpt><trkpt lat="45.14958275613142" lon="8.189168215585644"><ele>226.0</ele><time>2026-03-28T15:54:18.995Z</time></trkpt><trkpt lat="45.1497229409709" lon="8.18906325213921"><ele>225.0</ele><time>2026-03-28T15:54:19.995Z</time></trkpt><trkpt lat="45.14986812202614" lon="8.188997977440604"><ele>224.0</ele><time>2026-03-28T15:54:20.995Z</time></trkpt><trkpt lat="45.150020161807305" lon="8.188959533062631"><ele>223.0</ele><time>2026-03-28T15:54:21.995Z</time></trkpt><trkpt lat="45.150181555744275" lon="8.188964085397332"><ele>223.0</ele><time>2026-03-28T15:54:22.995Z</time></trkpt><trkpt lat="45.15034787765608" lon="8.189001362969158"><ele>223.0</ele><time>2026-03-28T15:54:23.995Z</time></trkpt><trkpt lat="45.15051898442246" lon="8.189048452207928"><ele>223.0</ele><time>2026-03-28T15:54:24.995Z</time></trkpt><trkpt lat="45.15069625024128" lon="8.18909090341281"><ele>224.0</ele><time>2026-03-28T15:54:25.995Z</time></trkpt><trkpt lat="45.15087966790385" lon="8.189127189147303"><ele>225.0</ele><time>2026-03-28T15:54:26.995Z</time></trkpt><trkpt lat="45.151070169399105" lon="8.189154424209013"><ele>226.0</ele><time>2026-03-28T15:54:27.995Z</time></trkpt><trkpt lat="45.15126413626654" lon="8.1891719691365"><ele>226.0</ele><time>2026-03-28T15:54:28.995Z</time></trkpt><trkpt lat="45.151450951239426" lon="8.189183003543341"><ele>226.0</ele><time>2026-03-28T15:54:29.995Z</time></trkpt><trkpt lat="45.151630173457924" lon="8.18918675845076"><ele>226.0</ele><time>2026-03-28T15:54:30.995Z</time></trkpt><trkpt lat="45.151798870785235" lon="8.189193228533538"><ele>226.66666666666666</ele><time>2026-03-28T15:54:31.995Z</time></trkpt><trkpt lat="45.1519560987267" lon="8.189206338894882"><ele>227.33333333333331</ele><time>2026-03-28T15:54:32.995Z</time></trkpt><trkpt lat="45.15210499377515" lon="8.189218530082904"><ele>228.0</ele><time>2026-03-28T15:54:33.995Z</time></trkpt><trkpt lat="45.15224931860047" lon="8.189231707258381"><ele>228.0</ele><time>2026-03-28T15:54:34.995Z</time></trkpt><trkpt lat="45.15239376554577" lon="8.189256103732397"><ele>228.0</ele><time>2026-03-28T15:54:35.995Z</time></trkpt><trkpt lat="45.152545635506186" lon="8.189294068895649"><ele>228.0</ele><time>2026-03-28T15:54:36.995Z</time></trkpt><trkpt lat="45.15270232046981" lon="8.189327989062896"><ele>228.0</ele><time>2026-03-28T15:54:37.995Z</time></trkpt><trkpt lat="45.152859043048764" lon="8.189352015252272"><ele>228.0</ele><time>2026-03-28T15:54:38.995Z</time></trkpt><trkpt lat="45.15301823252447" lon="8.189363474013646"><ele>228.0</ele><time>2026-03-28T15:54:39.995Z</time></trkpt><trkpt lat="45.15317732409846" lon="8.189362917435963"><ele>226.75</ele><time>2026-03-28T15:54:40.995Z</time></trkpt><trkpt lat="45.15333192027739" lon="8.189353297891607"><ele>225.5</ele><time>2026-03-28T15:54:41.995Z</time></trkpt><trkpt lat="45.15347621980046" lon="8.189346044962587"><ele>224.25</ele><time>2026-03-28T15:54:42.995Z</time></trkpt><trkpt lat="45.15360615586033" lon="8.189343919350243"><ele>223.0</ele><time>2026-03-28T15:54:43.995Z</time></trkpt><trkpt lat="45.15371663782657" lon="8.18934272880855"><ele>222.99999999999997</ele><time>2026-03-28T15:54:44.995Z</time></trkpt><trkpt lat="45.153810586409016" lon="8.189343509727093"><ele>223.0</ele><time>2026-03-28T15:54:45.995Z</time></trkpt><trkpt lat="45.15389137283332" lon="8.1893447168455"><ele>223.0</ele><time>2026-03-28T15:54:46.995Z</time></trkpt><trkpt lat="45.153962102434626" lon="8.189374166968868"><ele>223.0</ele><time>2026-03-28T15:54:47.995Z</time></trkpt><trkpt lat="45.15402805074442" lon="8.189422749322466"><ele>222.99999999999997</ele><time>2026-03-28T15:54:48.995Z</time></trkpt><trkpt lat="45.1540845939312" lon="8.189491777432844"><ele>223.0</ele><time>2026-03-28T15:54:49.995Z</time></trkpt><trkpt lat="45.154141761921046" lon="8.189564043805076"><ele>222.66666666666666</ele><time>2026-03-28T15:54:50.995Z</time></trkpt><trkpt lat="45.154195874640614" lon="8.18964038192738"><ele>222.33333333333331</ele><time>2026-03-28T15:54:51.995Z</time></trkpt><trkpt lat="45.154245518476735" lon="8.189709447290578"><ele>222.0</ele><time>2026-03-28T15:54:52.995Z</time></trkpt><trkpt lat="45.154329658611786" lon="8.189792337622098"><ele>221.66666666666669</ele><time>2026-03-28T15:54:54.995Z</time></trkpt><trkpt lat="45.15443949685958" lon="8.189817235569459"><ele>221.33333333333334</ele><time>2026-03-28T15:54:56.995Z</time></trkpt><trkpt lat="45.15452124229868" lon="8.189817712079694"><ele>221.0</ele><time>2026-03-28T15:54:57.995Z</time></trkpt><trkpt lat="45.15461783274703" lon="8.189802904802331"><ele>221.0</ele><time>2026-03-28T15:54:58.995Z</time></trkpt><trkpt lat="45.15472247534441" lon="8.189781993170381"><ele>221.00000000000003</ele><time>2026-03-28T15:54:59.995Z</time></trkpt><trkpt lat="45.154830101388015" lon="8.189769747959891"><ele>221.00000000000003</ele><time>2026-03-28T15:55:00.995Z</time></trkpt><trkpt lat="45.15494526871065" lon="8.189750750994232"><ele>221.0</ele><time>2026-03-28T15:55:01.995Z</time></trkpt><trkpt lat="45.15506188219926" lon="8.189734058533404"><ele>221.0</ele><time>2026-03-28T15:55:02.995Z</time></trkpt><trkpt lat="45.15517703521469" lon="8.189723132718026"><ele>220.60000000000002</ele><time>2026-03-28T15:55:03.995Z</time></trkpt><trkpt lat="45.1552918571443" lon="8.189707402593385"><ele>220.20000000000002</ele><time>2026-03-28T15:55:04.995Z</time></trkpt><trkpt lat="45.155410472590546" lon="8.189691559266707"><ele>219.79999999999998</ele><time>2026-03-28T15:55:05.995Z</time></trkpt><trkpt lat="45.15551795203108" lon="8.18967672432955"><ele>219.39999999999998</ele><time>2026-03-28T15:55:06.995Z</time></trkpt><trkpt lat="45.15561704764478" lon="8.189670352896254"><ele>219.0</ele><time>2026-03-28T15:55:07.995Z</time></trkpt><trkpt lat="45.15570475055425" lon="8.189684689863721"><ele>218.0</ele><time>2026-03-28T15:55:08.995Z</time></trkpt><trkpt lat="45.155782451583455" lon="8.189717089353918"><ele>216.99999999999997</ele><time>2026-03-28T15:55:09.995Z</time></trkpt><trkpt lat="45.155868334972574" lon="8.189787466308697"><ele>215.99999999999997</ele><time>2026-03-28T15:55:10.995Z</time></trkpt><trkpt lat="45.15596381821984" lon="8.189867395522777"><ele>215.0</ele><time>2026-03-28T15:55:11.995Z</time></trkpt><trkpt lat="45.15606585212487" lon="8.189946462455882"><ele>214.0</ele><time>2026-03-28T15:55:12.995Z</time></trkpt><trkpt lat="45.15617080979035" lon="8.190028830953866"><ele>216.75</ele><time>2026-03-28T15:55:13.995Z</time></trkpt><trkpt lat="45.156277405629815" lon="8.190118084838051"><ele>219.5</ele><time>2026-03-28T15:55:14.995Z</time></trkpt><trkpt lat="45.156389880451215" lon="8.190208439131315"><ele>222.25</ele><time>2026-03-28T15:55:15.995Z</time></trkpt><trkpt lat="45.15650830312504" lon="8.19030119341157"><ele>225.0</ele><time>2026-03-28T15:55:16.995Z</time></trkpt><trkpt lat="45.15662176273787" lon="8.190385433867688"><ele>225.0</ele><time>2026-03-28T15:55:17.995Z</time></trkpt><trkpt lat="45.15671948570635" lon="8.190459531766177"><ele>225.0</ele><time>2026-03-28T15:55:18.995Z</time></trkpt><trkpt lat="45.15680582132346" lon="8.19053977795765"><ele>225.0</ele><time>2026-03-28T15:55:19.995Z</time></trkpt><trkpt lat="45.15686941110986" lon="8.190631686648183"><ele>225.0</ele><time>2026-03-28T15:55:20.995Z</time></trkpt><trkpt lat="45.15691367508949" lon="8.190733074866914"><ele>225.0</ele><time>2026-03-28T15:55:21.993Z</time></trkpt><trkpt lat="45.15691964039938" lon="8.19084099842516"><ele>227.2</ele><time>2026-03-28T15:55:22.993Z</time></trkpt><trkpt lat="45.15689874007154" lon="8.190965135718645"><ele>229.4</ele><time>2026-03-28T15:55:23.993Z</time></trkpt><trkpt lat="45.15686053522805" lon="8.191092404414093"><ele>231.60000000000002</ele><time>2026-03-28T15:55:24.994Z</time></trkpt><trkpt lat="45.156808246033975" lon="8.191218005032386"><ele>233.8</ele><time>2026-03-28T15:55:25.993Z</time></trkpt><trkpt lat="45.15675520888244" lon="8.191357343076143"><ele>236.0</ele><time>2026-03-28T15:55:26.993Z</time></trkpt><trkpt lat="45.15669362286441" lon="8.191512475468983"><ele>237.0</ele><time>2026-03-28T15:55:27.994Z</time></trkpt><trkpt lat="45.1566288118774" lon="8.19168509088766"><ele>238.0</ele><time>2026-03-28T15:55:28.994Z</time></trkpt><trkpt lat="45.156558711614224" lon="8.191869846805991"><ele>239.0</ele><time>2026-03-28T15:55:29.994Z</time></trkpt><trkpt lat="45.156484044241985" lon="8.192065641842726"><ele>240.0</ele><time>2026-03-28T15:55:30.994Z</time></trkpt><trkpt lat="45.15640220893074" lon="8.192266496101007"><ele>237.66666666666669</ele><time>2026-03-28T15:55:31.993Z</time></trkpt><trkpt lat="45.15632582010446" lon="8.192458225073866"><ele>235.33333333333334</ele><time>2026-03-28T15:55:32.993Z</time></trkpt><trkpt lat="45.15624597155299" lon="8.192659428804097"><ele>233.0</ele><time>2026-03-28T15:55:33.994Z</time></trkpt><trkpt lat="45.15616597148437" lon="8.1928636402023"><ele>233.0</ele><time>2026-03-28T15:55:34.994Z</time></trkpt><trkpt lat="45.15608617267811" lon="8.193065249550013"><ele>233.0</ele><time>2026-03-28T15:55:35.994Z</time></trkpt><trkpt lat="45.156012092627655" lon="8.193255591203696"><ele>233.0</ele><time>2026-03-28T15:55:36.994Z</time></trkpt><trkpt lat="45.1559420590604" lon="8.193436370065074"><ele>234.75</ele><time>2026-03-28T15:55:37.994Z</time></trkpt><trkpt lat="45.15588127140756" lon="8.193614658606597"><ele>236.5</ele><time>2026-03-28T15:55:38.994Z</time></trkpt><trkpt lat="45.15583335343633" lon="8.193795735083825"><ele>238.25</ele><time>2026-03-28T15:55:39.994Z</time></trkpt><trkpt lat="45.15580970109892" lon="8.193984411012943"><ele>240.0</ele><time>2026-03-28T15:55:40.994Z</time></trkpt><trkpt lat="45.15580596386748" lon="8.194179013433697"><ele>241.0</ele><time>2026-03-28T15:55:41.994Z</time></trkpt><trkpt lat="45.15582104054844" lon="8.194379365508537"><ele>242.0</ele><time>2026-03-28T15:55:42.994Z</time></trkpt><trkpt lat="45.15585355092456" lon="8.194583110203085"><ele>243.0</ele><time>2026-03-28T15:55:43.994Z</time></trkpt><trkpt lat="45.15589087534298" lon="8.19479219169609"><ele>244.0</ele><time>2026-03-28T15:55:44.994Z</time></trkpt><trkpt lat="45.15592888753875" lon="8.195006311193133"><ele>245.5</ele><time>2026-03-28T15:55:45.994Z</time></trkpt><trkpt lat="45.155962907562625" lon="8.195223239734949"><ele>247.0</ele><time>2026-03-28T15:55:46.994Z</time></trkpt><trkpt lat="45.15599763008973" lon="8.19542390904902"><ele>248.5</ele><time>2026-03-28T15:55:47.994Z</time></trkpt><trkpt lat="45.15603853975125" lon="8.195611368533768"><ele>250.0</ele><time>2026-03-28T15:55:48.994Z</time></trkpt><trkpt lat="45.15609455056696" lon="8.195786556866299"><ele>250.6</ele><time>2026-03-28T15:55:49.994Z</time></trkpt><trkpt lat="45.15616690889188" lon="8.195944198216312"><ele>251.2</ele><time>2026-03-28T15:55:50.994Z</time></trkpt><trkpt lat="45.15625902101844" lon="8.196064679391775"><ele>251.8</ele><time>2026-03-28T15:55:51.994Z</time></trkpt><trkpt lat="45.15634761465131" lon="8.196142471866228"><ele>252.4</ele><time>2026-03-28T15:55:52.994Z</time></trkpt><trkpt lat="45.156427532996666" lon="8.196170712076233"><ele>253.0</ele><time>2026-03-28T15:55:53.994Z</time></trkpt><trkpt lat="45.15650948319711" lon="8.196135390739554"><ele>255.25</ele><time>2026-03-28T15:55:54.994Z</time></trkpt><trkpt lat="45.15658840938626" lon="8.196061681374745"><ele>257.5</ele><time>2026-03-28T15:55:55.994Z</time></trkpt><trkpt lat="45.156682794959" lon="8.19595239077732"><ele>259.75</ele><time>2026-03-28T15:55:56.994Z</time></trkpt><trkpt lat="45.156782821719574" lon="8.195852943707285"><ele>262.0</ele><time>2026-03-28T15:55:57.994Z</time></trkpt><trkpt lat="45.15689107250755" lon="8.195765996610692"><ele>262.0</ele><time>2026-03-28T15:55:58.994Z</time></trkpt><trkpt lat="45.15700735058568" lon="8.195717750523615"><ele>262.0</ele><time>2026-03-28T15:55:59.994Z</time></trkpt><trkpt lat="45.157123897076396" lon="8.195705983674152"><ele>262.0</ele><time>2026-03-28T15:56:00.994Z</time></trkpt><trkpt lat="45.15723989414646" lon="8.195736811456559"><ele>262.0</ele><time>2026-03-28T15:56:01.994Z</time></trkpt><trkpt lat="45.1573597846346" lon="8.195800295131384"><ele>264.0</ele><time>2026-03-28T15:56:02.994Z</time></trkpt><trkpt lat="45.15747901945019" lon="8.195884767256672"><ele>266.0</ele><time>2026-03-28T15:56:03.994Z</time></trkpt><trkpt lat="45.1575966624218" lon="8.195960095234662"><ele>268.0</ele><time>2026-03-28T15:56:04.994Z</time></trkpt><trkpt lat="45.157715301941295" lon="8.196046707499834"><ele>270.0</ele><time>2026-03-28T15:56:05.994Z</time></trkpt><trkpt lat="45.15783148476099" lon="8.196147334089217"><ele>270.0</ele><time>2026-03-28T15:56:06.994Z</time></trkpt><trkpt lat="45.15792752974978" lon="8.196285809904555"><ele>270.0</ele><time>2026-03-28T15:56:07.994Z</time></trkpt><trkpt lat="45.15801200064304" lon="8.196436418729881"><ele>270.0</ele><time>2026-03-28T15:56:08.994Z</time></trkpt><trkpt lat="45.158092124390905" lon="8.196598602780476"><ele>270.0</ele><time>2026-03-28T15:56:09.994Z</time></trkpt><trkpt lat="45.15815669063043" lon="8.196782375831587"><ele>270.75</ele><time>2026-03-28T15:56:10.994Z</time></trkpt><trkpt lat="45.15820149042357" lon="8.196983820091788"><ele>271.5</ele><time>2026-03-28T15:56:11.994Z</time></trkpt><trkpt lat="45.15824105979081" lon="8.197174675599973"><ele>272.25</ele><time>2026-03-28T15:56:12.994Z</time></trkpt><trkpt lat="45.15828896164917" lon="8.197372271977567"><ele>273.0</ele><time>2026-03-28T15:56:13.994Z</time></trkpt><trkpt lat="45.158332797651894" lon="8.197572562627059"><ele>273.0</ele><time>2026-03-28T15:56:14.994Z</time></trkpt><trkpt lat="45.158376605484214" lon="8.197770038562739"><ele>273.0</ele><time>2026-03-28T15:56:15.994Z</time></trkpt><trkpt lat="45.15841855710218" lon="8.197964846352251"><ele>273.0</ele><time>2026-03-28T15:56:16.994Z</time></trkpt><trkpt lat="45.15847458777012" lon="8.198153481158013"><ele>273.0</ele><time>2026-03-28T15:56:17.994Z</time></trkpt><trkpt lat="45.15854210756874" lon="8.198332298517556"><ele>272.0</ele><time>2026-03-28T15:56:18.994Z</time></trkpt><trkpt lat="45.15860263104548" lon="8.198509200713763"><ele>271.0</ele><time>2026-03-28T15:56:19.994Z</time></trkpt><trkpt lat="45.15864298633001" lon="8.198686260899791"><ele>270.0</ele><time>2026-03-28T15:56:20.994Z</time></trkpt><trkpt lat="45.158677591218854" lon="8.198879005165779"><ele>269.0</ele><time>2026-03-28T15:56:21.994Z</time></trkpt><trkpt lat="45.15869319244588" lon="8.199083669482306"><ele>268.25</ele><time>2026-03-28T15:56:22.994Z</time></trkpt><trkpt lat="45.15868390686709" lon="8.199292744586126"><ele>267.5</ele><time>2026-03-28T15:56:23.994Z</time></trkpt><trkpt lat="45.15866256189036" lon="8.199488937048043"><ele>266.75</ele><time>2026-03-28T15:56:24.994Z</time></trkpt><trkpt lat="45.15864216501189" lon="8.199655543501832"><ele>266.0</ele><time>2026-03-28T15:56:25.994Z</time></trkpt><trkpt lat="45.15861829070383" lon="8.199793785266758"><ele>266.8</ele><time>2026-03-28T15:56:26.994Z</time></trkpt><trkpt lat="45.158597718340644" lon="8.199922095407002"><ele>267.6</ele><time>2026-03-28T15:56:27.994Z</time></trkpt><trkpt lat="45.15857706264142" lon="8.200040657942981"><ele>268.4</ele><time>2026-03-28T15:56:28.994Z</time></trkpt><trkpt lat="45.15855221258066" lon="8.200158615433358"><ele>269.2</ele><time>2026-03-28T15:56:29.994Z</time></trkpt><trkpt lat="45.158516566452256" lon="8.20028337266407"><ele>270.0</ele><time>2026-03-28T15:56:30.994Z</time></trkpt><trkpt lat="45.1584711409955" lon="8.200414426135305"><ele>270.0</ele><time>2026-03-28T15:56:31.994Z</time></trkpt><trkpt lat="45.15842470452692" lon="8.200552246644712"><ele>270.0</ele><time>2026-03-28T15:56:32.994Z</time></trkpt><trkpt lat="45.15836834366492" lon="8.200692219338174"><ele>270.0</ele><time>2026-03-28T15:56:33.994Z</time></trkpt><trkpt lat="45.158307495675736" lon="8.200834676439941"><ele>270.0</ele><time>2026-03-28T15:56:34.994Z</time></trkpt><trkpt lat="45.1582398071975" lon="8.200978695715119"><ele>270.75</ele><time>2026-03-28T15:56:35.994Z</time></trkpt><trkpt lat="45.15816250508145" lon="8.201115681608323"><ele>271.5</ele><time>2026-03-28T15:56:36.994Z</time></trkpt><trkpt lat="45.158082082258886" lon="8.201257017945833"><ele>272.25</ele><time>2026-03-28T15:56:37.994Z</time></trkpt><trkpt lat="45.15799820739495" lon="8.201398795766405"><ele>273.0</ele><time>2026-03-28T15:56:38.994Z</time></trkpt><trkpt lat="45.15791230670176" lon="8.201542601448566"><ele>273.0</ele><time>2026-03-28T15:56:39.994Z</time></trkpt><trkpt lat="45.15782632126331" lon="8.20168584847207"><ele>273.0</ele><time>2026-03-28T15:56:40.994Z</time></trkpt><trkpt lat="45.15773816787406" lon="8.20182870762724"><ele>273.0</ele><time>2026-03-28T15:56:41.994Z</time></trkpt><trkpt lat="45.15764938505068" lon="8.201974278786873"><ele>273.0</ele><time>2026-03-28T15:56:42.994Z</time></trkpt><trkpt lat="45.15755776772262" lon="8.202119997603488"><ele>273.0</ele><time>2026-03-28T15:56:43.994Z</time></trkpt><trkpt lat="45.15746826534861" lon="8.20226421125274"><ele>273.0</ele><time>2026-03-28T15:56:44.994Z</time></trkpt><trkpt lat="45.15738495640426" lon="8.2023996083095"><ele>273.0</ele><time>2026-03-28T15:56:45.994Z</time></trkpt><trkpt lat="45.1572982457628" lon="8.202523435211818"><ele>273.0</ele><time>2026-03-28T15:56:46.994Z</time></trkpt><trkpt lat="45.15719054559206" lon="8.202628799997454"><ele>271.0</ele><time>2026-03-28T15:56:47.994Z</time></trkpt><trkpt lat="45.15707235085426" lon="8.202730085883479"><ele>269.0</ele><time>2026-03-28T15:56:48.994Z</time></trkpt><trkpt lat="45.15695821680277" lon="8.202844251614097"><ele>267.0</ele><time>2026-03-28T15:56:49.994Z</time></trkpt><trkpt lat="45.156844555446845" lon="8.202970035603068"><ele>265.0</ele><time>2026-03-28T15:56:50.994Z</time></trkpt><trkpt lat="45.15673732531848" lon="8.203105738407531"><ele>268.3333333333333</ele><time>2026-03-28T15:56:51.995Z</time></trkpt><trkpt lat="45.15663617029991" lon="8.203260430562473"><ele>271.6666666666667</ele><time>2026-03-28T15:56:52.995Z</time></trkpt><trkpt lat="45.156541515075205" lon="8.20343801403813"><ele>275.0</ele><time>2026-03-28T15:56:53.995Z</time></trkpt><trkpt lat="45.15644327504136" lon="8.20362337165298"><ele>271.0</ele><time>2026-03-28T15:56:54.995Z</time></trkpt><trkpt lat="45.15634854900793" lon="8.2038136857555"><ele>267.0</ele><time>2026-03-28T15:56:55.995Z</time></trkpt><trkpt lat="45.15625368906675" lon="8.203998217738258"><ele>263.0</ele><time>2026-03-28T15:56:56.995Z</time></trkpt><trkpt lat="45.15615554656538" lon="8.204170425065909"><ele>263.0</ele><time>2026-03-28T15:56:57.995Z</time></trkpt><trkpt lat="45.15604973132932" lon="8.204313769718945"><ele>263.0</ele><time>2026-03-28T15:56:58.995Z</time></trkpt><trkpt lat="45.155930241224205" lon="8.20443386638869"><ele>263.0</ele><time>2026-03-28T15:56:59.995Z</time></trkpt><trkpt lat="45.15580260237664" lon="8.204533595275462"><ele>263.0</ele><time>2026-03-28T15:57:00.995Z</time></trkpt><trkpt lat="45.15567253264327" lon="8.20461234973133"><ele>263.25</ele><time>2026-03-28T15:57:01.995Z</time></trkpt><trkpt lat="45.155546647568855" lon="8.204668014047412"><ele>263.5</ele><time>2026-03-28T15:57:02.995Z</time></trkpt><trkpt lat="45.155429216984935" lon="8.204729595760607"><ele>263.75</ele><time>2026-03-28T15:57:03.995Z</time></trkpt><trkpt lat="45.15534072922597" lon="8.204804929364828"><ele>264.0</ele><time>2026-03-28T15:57:04.995Z</time></trkpt><trkpt lat="45.155279616001835" lon="8.20490871471517"><ele>264.0</ele><time>2026-03-28T15:57:05.995Z</time></trkpt><trkpt lat="45.15526055397806" lon="8.20502944129429"><ele>264.0</ele><time>2026-03-28T15:57:06.995Z</time></trkpt><trkpt lat="45.15528267966215" lon="8.205150521105647"><ele>264.0</ele><time>2026-03-28T15:57:07.995Z</time></trkpt><trkpt lat="45.1553279562913" lon="8.205235924659078"><ele>264.0</ele><time>2026-03-28T15:57:08.995Z</time></trkpt><trkpt lat="45.15539355110354" lon="8.205295786185607"><ele>264.0</ele><time>2026-03-28T15:57:09.995Z</time></trkpt><trkpt lat="45.155478756158104" lon="8.20534127520676"><ele>264.0</ele><time>2026-03-28T15:57:10.995Z</time></trkpt><trkpt lat="45.15557714805711" lon="8.205391805310123"><ele>264.0</ele><time>2026-03-28T15:57:11.995Z</time></trkpt><trkpt lat="45.15568622344256" lon="8.205454683584271"><ele>264.0</ele><time>2026-03-28T15:57:12.995Z</time></trkpt><trkpt lat="45.155805778336514" lon="8.205520788795315"><ele>264.0</ele><time>2026-03-28T15:57:13.995Z</time></trkpt><trkpt lat="45.15590989326195" lon="8.205615358793832"><ele>264.0</ele><time>2026-03-28T15:57:14.995Z</time></trkpt><trkpt lat="45.15599770559648" lon="8.205729740533044"><ele>264.75</ele><time>2026-03-28T15:57:15.995Z</time></trkpt><trkpt lat="45.156078397409246" lon="8.205857381574068"><ele>265.5</ele><time>2026-03-28T15:57:16.995Z</time></trkpt><trkpt lat="45.156164419151466" lon="8.205981624395493"><ele>266.25</ele><time>2026-03-28T15:57:17.995Z</time></trkpt><trkpt lat="45.15625462596057" lon="8.206087969958839"><ele>267.0</ele><time>2026-03-28T15:57:18.995Z</time></trkpt><trkpt lat="45.15634961100373" lon="8.206175058330311"><ele>267.0</ele><time>2026-03-28T15:57:19.995Z</time></trkpt><trkpt lat="45.15644749503394" lon="8.206259368342915"><ele>267.0</ele><time>2026-03-28T15:57:20.995Z</time></trkpt><trkpt lat="45.15654687689549" lon="8.206343766828539"><ele>267.0</ele><time>2026-03-28T15:57:21.995Z</time></trkpt><trkpt lat="45.156642970151005" lon="8.206432968229695"><ele>267.0</ele><time>2026-03-28T15:57:22.995Z</time></trkpt><trkpt lat="45.15673488595487" lon="8.206527142878022"><ele>267.0</ele><time>2026-03-28T15:57:23.995Z</time></trkpt><trkpt lat="45.15680862424563" lon="8.206643815653099"><ele>267.0</ele><time>2026-03-28T15:57:24.995Z</time></trkpt><trkpt lat="45.15685848197336" lon="8.206789304471865"><ele>267.0</ele><time>2026-03-28T15:57:25.995Z</time></trkpt><trkpt lat="45.15688257169844" lon="8.20695384584008"><ele>267.0</ele><time>2026-03-28T15:57:26.995Z</time></trkpt><trkpt lat="45.15687553044149" lon="8.207139176674064"><ele>266.5</ele><time>2026-03-28T15:57:27.993Z</time></trkpt><trkpt lat="45.1568621136854" lon="8.207332398333431"><ele>266.0</ele><time>2026-03-28T15:57:28.993Z</time></trkpt><trkpt lat="45.1568524294704" lon="8.20753769207083"><ele>265.5</ele><time>2026-03-28T15:57:29.993Z</time></trkpt><trkpt lat="45.15684461786361" lon="8.207749976009008"><ele>265.0</ele><time>2026-03-28T15:57:30.994Z</time></trkpt><trkpt lat="45.156835461921155" lon="8.207959637860192"><ele>267.0</ele><time>2026-03-28T15:57:31.993Z</time></trkpt><trkpt lat="45.156815375286655" lon="8.20816861255101"><ele>269.0</ele><time>2026-03-28T15:57:32.993Z</time></trkpt><trkpt lat="45.15678010453462" lon="8.20837680567839"><ele>271.0</ele><time>2026-03-28T15:57:33.993Z</time></trkpt><trkpt lat="45.15673921800178" lon="8.208585648307904"><ele>271.0</ele><time>2026-03-28T15:57:34.993Z</time></trkpt><trkpt lat="45.156693879640436" lon="8.208797619465365"><ele>271.0</ele><time>2026-03-28T15:57:35.993Z</time></trkpt><trkpt lat="45.15665620206761" lon="8.209004022158902"><ele>271.0</ele><time>2026-03-28T15:57:36.993Z</time></trkpt><trkpt lat="45.15662789793685" lon="8.209213151282162"><ele>269.3333333333333</ele><time>2026-03-28T15:57:37.993Z</time></trkpt><trkpt lat="45.156593187780004" lon="8.209432773612127"><ele>267.6666666666667</ele><time>2026-03-28T15:57:38.993Z</time></trkpt><trkpt lat="45.15654069870231" lon="8.20964566057581"><ele>266.0</ele><time>2026-03-28T15:57:39.993Z</time></trkpt><trkpt lat="45.15647576470909" lon="8.209856760910737"><ele>266.0</ele><time>2026-03-28T15:57:40.993Z</time></trkpt><trkpt lat="45.15640706322986" lon="8.21006506399844"><ele>266.0</ele><time>2026-03-28T15:57:41.993Z</time></trkpt><trkpt lat="45.156335703739046" lon="8.210274984477175"><ele>266.0</ele><time>2026-03-28T15:57:42.993Z</time></trkpt><trkpt lat="45.15626579314026" lon="8.210486820505444"><ele>269.6666666666667</ele><time>2026-03-28T15:57:43.993Z</time></trkpt><trkpt lat="45.156192512077645" lon="8.210696928400692"><ele>273.3333333333333</ele><time>2026-03-28T15:57:44.993Z</time></trkpt><trkpt lat="45.15612264950013" lon="8.210902142126427"><ele>277.0</ele><time>2026-03-28T15:57:45.993Z</time></trkpt><trkpt lat="45.15606048923002" lon="8.2110913110849"><ele>277.0</ele><time>2026-03-28T15:57:46.993Z</time></trkpt><trkpt lat="45.15600733130999" lon="8.211263276291517"><ele>277.0</ele><time>2026-03-28T15:57:47.993Z</time></trkpt><trkpt lat="45.15597307686555" lon="8.211434865224959"><ele>277.0</ele><time>2026-03-28T15:57:48.993Z</time></trkpt><trkpt lat="45.155971225834186" lon="8.211615357175537"><ele>277.0</ele><time>2026-03-28T15:57:49.993Z</time></trkpt><trkpt lat="45.15600590241719" lon="8.211796768784705"><ele>281.25</ele><time>2026-03-28T15:57:50.993Z</time></trkpt><trkpt lat="45.15606192234562" lon="8.21197593332292"><ele>285.5</ele><time>2026-03-28T15:57:51.993Z</time></trkpt><trkpt lat="45.15611619223109" lon="8.212167804993701"><ele>289.75</ele><time>2026-03-28T15:57:52.993Z</time></trkpt><trkpt lat="45.15616232974641" lon="8.212370785330517"><ele>294.0</ele><time>2026-03-28T15:57:53.993Z</time></trkpt><trkpt lat="45.15621957561357" lon="8.21257985980952"><ele>296.6666666666667</ele><time>2026-03-28T15:57:54.993Z</time></trkpt><trkpt lat="45.156301806905155" lon="8.212776026722839"><ele>299.33333333333337</ele><time>2026-03-28T15:57:55.993Z</time></trkpt><trkpt lat="45.15639142157765" lon="8.212962156288151"><ele>302.0</ele><time>2026-03-28T15:57:56.993Z</time></trkpt><trkpt lat="45.15647800835304" lon="8.213156883216177"><ele>299.0</ele><time>2026-03-28T15:57:57.993Z</time></trkpt><trkpt lat="45.15654658273227" lon="8.213350537595826"><ele>296.0</ele><time>2026-03-28T15:57:58.993Z</time></trkpt><trkpt lat="45.1565978147744" lon="8.213535538977986"><ele>293.0</ele><time>2026-03-28T15:57:59.993Z</time></trkpt><trkpt lat="45.15663391426498" lon="8.213715195878763"><ele>290.0</ele><time>2026-03-28T15:58:00.993Z</time></trkpt><trkpt lat="45.15665969834785" lon="8.213899421332913"><ele>290.75</ele><time>2026-03-28T15:58:01.993Z</time></trkpt><trkpt lat="45.156672045310884" lon="8.214101292443921"><ele>291.5</ele><time>2026-03-28T15:58:02.993Z</time></trkpt><trkpt lat="45.1566615123817" lon="8.214314026847443"><ele>292.25</ele><time>2026-03-28T15:58:03.993Z</time></trkpt><trkpt lat="45.15662279950512" lon="8.214527409578109"><ele>293.0</ele><time>2026-03-28T15:58:04.993Z</time></trkpt><trkpt lat="45.156572182900184" lon="8.214737728811285"><ele>289.0</ele><time>2026-03-28T15:58:05.993Z</time></trkpt><trkpt lat="45.156526142312124" lon="8.214942340467267"><ele>285.0</ele><time>2026-03-28T15:58:06.993Z</time></trkpt><trkpt lat="45.156487333292674" lon="8.21514950395328"><ele>281.0</ele><time>2026-03-28T15:58:07.993Z</time></trkpt><trkpt lat="45.15646241183518" lon="8.215356135977267"><ele>281.0</ele><time>2026-03-28T15:58:08.993Z</time></trkpt><trkpt lat="45.156451814513595" lon="8.215554496378212"><ele>281.0</ele><time>2026-03-28T15:58:09.993Z</time></trkpt><trkpt lat="45.156459302730305" lon="8.21572863768334"><ele>281.0</ele><time>2026-03-28T15:58:10.993Z</time></trkpt><trkpt lat="45.15649101248627" lon="8.215897241555943"><ele>281.0</ele><time>2026-03-28T15:58:11.993Z</time></trkpt><trkpt lat="45.15654155021136" lon="8.216048979543318"><ele>287.75</ele><time>2026-03-28T15:58:12.993Z</time></trkpt><trkpt lat="45.15661529103049" lon="8.216175497635286"><ele>294.5</ele><time>2026-03-28T15:58:13.993Z</time></trkpt><trkpt lat="45.156709445356164" lon="8.21627614503889"><ele>301.25</ele><time>2026-03-28T15:58:14.993Z</time></trkpt><trkpt lat="45.15680261345089" lon="8.216360749990562"><ele>308.0</ele><time>2026-03-28T15:58:15.993Z</time></trkpt><trkpt lat="45.156893099028224" lon="8.21645992028459"><ele>309.5</ele><time>2026-03-28T15:58:16.993Z</time></trkpt><trkpt lat="45.15697397861118" lon="8.216587335047677"><ele>311.0</ele><time>2026-03-28T15:58:17.993Z</time></trkpt><trkpt lat="45.157047928778596" lon="8.216728227206211"><ele>312.5</ele><time>2026-03-28T15:58:18.994Z</time></trkpt><trkpt lat="45.15713145939549" lon="8.216856349225731"><ele>314.0</ele><time>2026-03-28T15:58:19.994Z</time></trkpt><trkpt lat="45.15722105296647" lon="8.216960224466867"><ele>314.0</ele><time>2026-03-28T15:58:20.994Z</time></trkpt><trkpt lat="45.15732877774894" lon="8.217032342943781"><ele>314.0</ele><time>2026-03-28T15:58:21.994Z</time></trkpt><trkpt lat="45.157451048199036" lon="8.21706562293872"><ele>314.0</ele><time>2026-03-28T15:58:22.994Z</time></trkpt><trkpt lat="45.15757740979071" lon="8.217088022279718"><ele>314.0</ele><time>2026-03-28T15:58:23.994Z</time></trkpt><trkpt lat="45.15770420068234" lon="8.217102386302177"><ele>313.25</ele><time>2026-03-28T15:58:24.994Z</time></trkpt><trkpt lat="45.157833709705216" lon="8.217127301844446"><ele>312.5</ele><time>2026-03-28T15:58:25.994Z</time></trkpt><trkpt lat="45.15794891723646" lon="8.217162309916212"><ele>311.75</ele><time>2026-03-28T15:58:26.994Z</time></trkpt><trkpt lat="45.15805704391376" lon="8.21721281636828"><ele>311.0</ele><time>2026-03-28T15:58:27.994Z</time></trkpt><trkpt lat="45.158156310695595" lon="8.217278124950287"><ele>313.4</ele><time>2026-03-28T15:58:28.994Z</time></trkpt><trkpt lat="45.158245370684305" lon="8.21735673583822"><ele>315.8</ele><time>2026-03-28T15:58:29.994Z</time></trkpt><trkpt lat="45.15832065557948" lon="8.217429891014886"><ele>318.2</ele><time>2026-03-28T15:58:30.994Z</time></trkpt><trkpt lat="45.158390399436776" lon="8.217498170844287"><ele>320.59999999999997</ele><time>2026-03-28T15:58:31.994Z</time></trkpt><trkpt lat="45.15846919894977" lon="8.217557880919209"><ele>323.0</ele><time>2026-03-28T15:58:32.994Z</time></trkpt><trkpt lat="45.15855658381949" lon="8.217611168430581"><ele>323.0</ele><time>2026-03-28T15:58:33.994Z</time></trkpt><trkpt lat="45.15865576017636" lon="8.217651588469955"><ele>323.0</ele><time>2026-03-28T15:58:34.994Z</time></trkpt><trkpt lat="45.15877066846953" lon="8.21767072540044"><ele>323.0</ele><time>2026-03-28T15:58:35.994Z</time></trkpt><trkpt lat="45.15889960666508" lon="8.21769346128324"><ele>323.0</ele><time>2026-03-28T15:58:36.994Z</time></trkpt><trkpt lat="45.15902635569024" lon="8.2177342425139"><ele>321.75</ele><time>2026-03-28T15:58:37.994Z</time></trkpt><trkpt lat="45.15915512573038" lon="8.217770239837925"><ele>320.5</ele><time>2026-03-28T15:58:38.994Z</time></trkpt><trkpt lat="45.15927023865452" lon="8.21780424492686"><ele>319.25</ele><time>2026-03-28T15:58:39.994Z</time></trkpt><trkpt lat="45.159382921172465" lon="8.217843299936499"><ele>318.0</ele><time>2026-03-28T15:58:40.994Z</time></trkpt><trkpt lat="45.15946576072065" lon="8.217926252306345"><ele>318.0</ele><time>2026-03-28T15:58:41.994Z</time></trkpt><trkpt lat="45.159527815150135" lon="8.218043060488512"><ele>318.0</ele><time>2026-03-28T15:58:42.994Z</time></trkpt><trkpt lat="45.15958298349773" lon="8.21818549707291"><ele>318.0</ele><time>2026-03-28T15:58:43.994Z</time></trkpt><trkpt lat="45.159632450303356" lon="8.218334584140269"><ele>318.0</ele><time>2026-03-28T15:58:44.994Z</time></trkpt><trkpt lat="45.15967500046282" lon="8.218473681426858"><ele>318.0</ele><time>2026-03-28T15:58:45.994Z</time></trkpt><trkpt lat="45.15970659088532" lon="8.218623021651986"><ele>318.75</ele><time>2026-03-28T15:58:46.994Z</time></trkpt><trkpt lat="45.15972724295048" lon="8.218788621813149"><ele>319.5</ele><time>2026-03-28T15:58:47.994Z</time></trkpt><trkpt lat="45.159737817350496" lon="8.21896932874356"><ele>320.25</ele><time>2026-03-28T15:58:48.994Z</time></trkpt><trkpt lat="45.15973972614604" lon="8.219155892584688"><ele>321.0</ele><time>2026-03-28T15:58:49.994Z</time></trkpt><trkpt lat="45.159739198090186" lon="8.21933372885091"><ele>319.6</ele><time>2026-03-28T15:58:50.994Z</time></trkpt><trkpt lat="45.15973948161491" lon="8.219504259742395"><ele>318.20000000000005</ele><time>2026-03-28T15:58:51.994Z</time></trkpt><trkpt lat="45.15971756234271" lon="8.21965403990406"><ele>316.79999999999995</ele><time>2026-03-28T15:58:52.994Z</time></trkpt><trkpt lat="45.15969375333458" lon="8.219794569521973"><ele>315.4</ele><time>2026-03-28T15:58:53.994Z</time></trkpt><trkpt lat="45.15965630372996" lon="8.219922215348255"><ele>314.0</ele><time>2026-03-28T15:58:54.994Z</time></trkpt><trkpt lat="45.15960232224792" lon="8.220036106104013"><ele>313.4</ele><time>2026-03-28T15:58:55.994Z</time></trkpt><trkpt lat="45.15953124854865" lon="8.2201503710758"><ele>312.79999999999995</ele><time>2026-03-28T15:58:56.994Z</time></trkpt><trkpt lat="45.15944599564428" lon="8.22025974741391"><ele>312.20000000000005</ele><time>2026-03-28T15:58:57.994Z</time></trkpt><trkpt lat="45.15937418326847" lon="8.220367316744646"><ele>311.6</ele><time>2026-03-28T15:58:58.994Z</time></trkpt><trkpt lat="45.15930800964618" lon="8.220475017309198"><ele>311.0</ele><time>2026-03-28T15:58:59.994Z</time></trkpt><trkpt lat="45.159246210876915" lon="8.220584156050288"><ele>311.6</ele><time>2026-03-28T15:59:00.994Z</time></trkpt><trkpt lat="45.159206153926725" lon="8.22069871635573"><ele>312.20000000000005</ele><time>2026-03-28T15:59:01.994Z</time></trkpt><trkpt lat="45.15917691548585" lon="8.220821211338153"><ele>312.79999999999995</ele><time>2026-03-28T15:59:02.994Z</time></trkpt><trkpt lat="45.159166287609324" lon="8.220945473084"><ele>313.4</ele><time>2026-03-28T15:59:03.994Z</time></trkpt><trkpt lat="45.15918674160482" lon="8.221072485179834"><ele>314.0</ele><time>2026-03-28T15:59:04.994Z</time></trkpt><trkpt lat="45.15921336057715" lon="8.221198201727955"><ele>314.0</ele><time>2026-03-28T15:59:05.994Z</time></trkpt><trkpt lat="45.15923568949013" lon="8.221336327760826"><ele>314.0</ele><time>2026-03-28T15:59:06.994Z</time></trkpt><trkpt lat="45.15925290377356" lon="8.22147597463342"><ele>314.0</ele><time>2026-03-28T15:59:07.994Z</time></trkpt><trkpt lat="45.159257259151936" lon="8.221615915712858"><ele>314.0</ele><time>2026-03-28T15:59:08.994Z</time></trkpt><trkpt lat="45.15924335956707" lon="8.221752789421028"><ele>314.0</ele><time>2026-03-28T15:59:09.994Z</time></trkpt><trkpt lat="45.15925560724144" lon="8.22190837478207"><ele>314.0</ele><time>2026-03-28T15:59:10.994Z</time></trkpt><trkpt lat="45.15930072889701" lon="8.222060058266978"><ele>314.0</ele><time>2026-03-28T15:59:11.994Z</time></trkpt><trkpt lat="45.159368455601275" lon="8.222204255635635"><ele>314.0</ele><time>2026-03-28T15:59:12.994Z</time></trkpt><trkpt lat="45.1594406101373" lon="8.222359711050043"><ele>314.0</ele><time>2026-03-28T15:59:13.994Z</time></trkpt><trkpt lat="45.159510249760274" lon="8.222532348018115"><ele>314.0</ele><time>2026-03-28T15:59:14.994Z</time></trkpt><trkpt lat="45.15958555415306" lon="8.222708519574207"><ele>314.0</ele><time>2026-03-28T15:59:15.994Z</time></trkpt><trkpt lat="45.15966781366484" lon="8.222878617028059"><ele>314.0</ele><time>2026-03-28T15:59:16.994Z</time></trkpt><trkpt lat="45.15975007091966" lon="8.223034552025293"><ele>314.0</ele><time>2026-03-28T15:59:17.994Z</time></trkpt><trkpt lat="45.1598383140071" lon="8.223194266538002"><ele>314.5</ele><time>2026-03-28T15:59:18.994Z</time></trkpt><trkpt lat="45.159911046475905" lon="8.223357854786336"><ele>315.0</ele><time>2026-03-28T15:59:19.994Z</time></trkpt><trkpt lat="45.15995738240368" lon="8.223505627042769"><ele>315.5</ele><time>2026-03-28T15:59:20.994Z</time></trkpt><trkpt lat="45.159985063172655" lon="8.223647875273308"><ele>316.0</ele><time>2026-03-28T15:59:21.994Z</time></trkpt><trkpt lat="45.159985424841224" lon="8.223785703461251"><ele>316.0</ele><time>2026-03-28T15:59:22.994Z</time></trkpt><trkpt lat="45.15995119862933" lon="8.223906662393324"><ele>316.0</ele><time>2026-03-28T15:59:23.994Z</time></trkpt><trkpt lat="45.159911966917" lon="8.224028181353814"><ele>316.0</ele><time>2026-03-28T15:59:24.994Z</time></trkpt><trkpt lat="45.15989396421665" lon="8.224161012081856"><ele>316.0</ele><time>2026-03-28T15:59:25.994Z</time></trkpt><trkpt lat="45.159897232934206" lon="8.224306743656598"><ele>316.0</ele><time>2026-03-28T15:59:26.994Z</time></trkpt><trkpt lat="45.15992381737702" lon="8.224464409341111"><ele>318.25</ele><time>2026-03-28T15:59:27.994Z</time></trkpt><trkpt lat="45.159937698686186" lon="8.224640411410528"><ele>320.5</ele><time>2026-03-28T15:59:28.994Z</time></trkpt><trkpt lat="45.15993669054387" lon="8.224828632565925"><ele>322.75</ele><time>2026-03-28T15:59:29.994Z</time></trkpt><trkpt lat="45.15992796031811" lon="8.22502594110588"><ele>325.0</ele><time>2026-03-28T15:59:30.994Z</time></trkpt><trkpt lat="45.15989464240258" lon="8.22522528529385"><ele>322.66666666666663</ele><time>2026-03-28T15:59:31.994Z</time></trkpt><trkpt lat="45.15983957586172" lon="8.225423152651178"><ele>320.3333333333333</ele><time>2026-03-28T15:59:32.994Z</time></trkpt><trkpt lat="45.15978176121918" lon="8.22562392118966"><ele>318.0</ele><time>2026-03-28T15:59:33.993Z</time></trkpt><trkpt lat="45.159713811072116" lon="8.225818525342282"><ele>318.0</ele><time>2026-03-28T15:59:34.993Z</time></trkpt><trkpt lat="45.15963812217569" lon="8.22601456058113"><ele>318.0</ele><time>2026-03-28T15:59:35.993Z</time></trkpt><trkpt lat="45.15955908230983" lon="8.226195115180637"><ele>318.0</ele><time>2026-03-28T15:59:36.993Z</time></trkpt><trkpt lat="45.159484065407135" lon="8.226357068538391"><ele>318.0</ele><time>2026-03-28T15:59:37.993Z</time></trkpt><trkpt lat="45.15941514925758" lon="8.226504616689748"><ele>320.4</ele><time>2026-03-28T15:59:38.993Z</time></trkpt><trkpt lat="45.15935308667334" lon="8.226637740276058"><ele>322.8</ele><time>2026-03-28T15:59:39.993Z</time></trkpt><trkpt lat="45.15928477453012" lon="8.22676431972852"><ele>325.2</ele><time>2026-03-28T15:59:40.993Z</time></trkpt><trkpt lat="45.15921529405594" lon="8.226871329076818"><ele>327.6</ele><time>2026-03-28T15:59:41.993Z</time></trkpt><trkpt lat="45.159148604173595" lon="8.226969300946733"><ele>330.0</ele><time>2026-03-28T15:59:42.993Z</time></trkpt><trkpt lat="45.15909371873522" lon="8.227062312300756"><ele>330.0</ele><time>2026-03-28T15:59:43.993Z</time></trkpt><trkpt lat="45.15904164184856" lon="8.227147110250321"><ele>330.0</ele><time>2026-03-28T15:59:44.993Z</time></trkpt><trkpt lat="45.15900397157745" lon="8.227238027199677"><ele>330.0</ele><time>2026-03-28T15:59:45.993Z</time></trkpt><trkpt lat="45.15896208760566" lon="8.227328396707598"><ele>330.0</ele><time>2026-03-28T15:59:46.993Z</time></trkpt><trkpt lat="45.15892260663416" lon="8.227433081192949"><ele>330.0</ele><time>2026-03-28T15:59:47.993Z</time></trkpt><trkpt lat="45.15888976775173" lon="8.22754279116525"><ele>330.0</ele><time>2026-03-28T15:59:48.993Z</time></trkpt><trkpt lat="45.15885517090225" lon="8.227655421609672"><ele>329.8333333333333</ele><time>2026-03-28T15:59:49.993Z</time></trkpt><trkpt lat="45.158816828051116" lon="8.227764720493047"><ele>329.6666666666667</ele><time>2026-03-28T15:59:50.993Z</time></trkpt><trkpt lat="45.158771283090545" lon="8.227871660825611"><ele>329.5</ele><time>2026-03-28T15:59:51.993Z</time></trkpt><trkpt lat="45.15871399784023" lon="8.227970839297035"><ele>329.33333333333337</ele><time>2026-03-28T15:59:52.993Z</time></trkpt><trkpt lat="45.158648912857586" lon="8.228061119464805"><ele>329.1666666666667</ele><time>2026-03-28T15:59:53.993Z</time></trkpt><trkpt lat="45.158574240557186" lon="8.228139189115737"><ele>329.0</ele><time>2026-03-28T15:59:54.993Z</time></trkpt><trkpt lat="45.15849355175526" lon="8.22820919776284"><ele>329.0</ele><time>2026-03-28T15:59:55.993Z</time></trkpt><trkpt lat="45.15839790959957" lon="8.22827840045709"><ele>329.0</ele><time>2026-03-28T15:59:56.993Z</time></trkpt><trkpt lat="45.1582916653664" lon="8.228346726123036"><ele>329.0</ele><time>2026-03-28T15:59:57.993Z</time></trkpt><trkpt lat="45.15817623535258" lon="8.228420177683292"><ele>329.0</ele><time>2026-03-28T15:59:58.993Z</time></trkpt><trkpt lat="45.15805782154423" lon="8.22849549274746"><ele>326.5</ele><time>2026-03-28T15:59:59.993Z</time></trkpt><trkpt lat="45.15794079640146" lon="8.228580842575154"><ele>324.0</ele><time>2026-03-28T16:00:00.993Z</time></trkpt><trkpt lat="45.15782982225977" lon="8.22868609401557"><ele>321.5</ele><time>2026-03-28T16:00:01.993Z</time></trkpt><trkpt lat="45.15773208228916" lon="8.228814107767386"><ele>319.0</ele><time>2026-03-28T16:00:02.993Z</time></trkpt><trkpt lat="45.157629620811846" lon="8.228940055533384"><ele>319.75</ele><time>2026-03-28T16:00:03.993Z</time></trkpt><trkpt lat="45.15751991103183" lon="8.229056258090743"><ele>320.5</ele><time>2026-03-28T16:00:04.993Z</time></trkpt><trkpt lat="45.15740324911729" lon="8.229155358344821"><ele>321.25</ele><time>2026-03-28T16:00:05.993Z</time></trkpt><trkpt lat="45.157278129510914" lon="8.22924402995778"><ele>322.0</ele><time>2026-03-28T16:00:06.993Z</time></trkpt><trkpt lat="45.157158979875526" lon="8.229336156435185"><ele>322.75</ele><time>2026-03-28T16:00:07.993Z</time></trkpt><trkpt lat="45.1570423058923" lon="8.22941911464862"><ele>323.5</ele><time>2026-03-28T16:00:08.993Z</time></trkpt><trkpt lat="45.15691794288494" lon="8.22947939312492"><ele>324.25</ele><time>2026-03-28T16:00:09.993Z</time></trkpt><trkpt lat="45.1567892460585" lon="8.229532283309005"><ele>325.0</ele><time>2026-03-28T16:00:10.993Z</time></trkpt><trkpt lat="45.15667020568369" lon="8.229569758610461"><ele>325.0</ele><time>2026-03-28T16:00:11.993Z</time></trkpt><trkpt lat="45.15655822911717" lon="8.22958482805629"><ele>325.0</ele><time>2026-03-28T16:00:12.993Z</time></trkpt><trkpt lat="45.156456191819785" lon="8.229566782958845"><ele>325.0</ele><time>2026-03-28T16:00:13.993Z</time></trkpt><trkpt lat="45.15635741918044" lon="8.229573258797904"><ele>325.0</ele><time>2026-03-28T16:00:14.993Z</time></trkpt><trkpt lat="45.156274474422005" lon="8.229629510796602"><ele>325.0</ele><time>2026-03-28T16:00:15.993Z</time></trkpt><trkpt lat="45.1562148054351" lon="8.229750790459477"><ele>322.75</ele><time>2026-03-28T16:00:16.993Z</time></trkpt><trkpt lat="45.15616916296001" lon="8.229870593292347"><ele>320.5</ele><time>2026-03-28T16:00:17.993Z</time></trkpt><trkpt lat="45.15616742093" lon="8.230031722402064"><ele>318.25</ele><time>2026-03-28T16:00:18.993Z</time></trkpt><trkpt lat="45.156176192507665" lon="8.230205882700968"><ele>316.0</ele><time>2026-03-28T16:00:19.993Z</time></trkpt><trkpt lat="45.15619546567064" lon="8.230378839635149"><ele>316.0</ele><time>2026-03-28T16:00:20.993Z</time></trkpt><trkpt lat="45.156213035216346" lon="8.23056372708024"><ele>316.0</ele><time>2026-03-28T16:00:21.993Z</time></trkpt><trkpt lat="45.15620604628649" lon="8.23075851471445"><ele>316.0</ele><time>2026-03-28T16:00:22.993Z</time></trkpt><trkpt lat="45.156175372613674" lon="8.23094821858156"><ele>316.0</ele><time>2026-03-28T16:00:23.993Z</time></trkpt><trkpt lat="45.15612002764615" lon="8.231139092950043"><ele>317.66666666666663</ele><time>2026-03-28T16:00:24.993Z</time></trkpt><trkpt lat="45.156034157981495" lon="8.231314801516993"><ele>319.3333333333333</ele><time>2026-03-28T16:00:25.993Z</time></trkpt><trkpt lat="45.15594877950625" lon="8.231498771297234"><ele>321.0</ele><time>2026-03-28T16:00:26.993Z</time></trkpt><trkpt lat="45.15586321916591" lon="8.231678194919148"><ele>321.0</ele><time>2026-03-28T16:00:27.993Z</time></trkpt><trkpt lat="45.15577414596473" lon="8.231849269396044"><ele>321.0</ele><time>2026-03-28T16:00:28.993Z</time></trkpt><trkpt lat="45.15566322137167" lon="8.231991559665039"><ele>321.0</ele><time>2026-03-28T16:00:29.993Z</time></trkpt><trkpt lat="45.15554248803125" lon="8.232118022403887"><ele>321.0</ele><time>2026-03-28T16:00:30.993Z</time></trkpt><trkpt lat="45.15538945479861" lon="8.23220000347953"><ele>321.0</ele><time>2026-03-28T16:00:31.993Z</time></trkpt><trkpt lat="45.15523754152384" lon="8.232264483608503"><ele>321.0</ele><time>2026-03-28T16:00:32.993Z</time></trkpt><trkpt lat="45.15507499951373" lon="8.23230983308273"><ele>328.3333333333333</ele><time>2026-03-28T16:00:33.993Z</time></trkpt><trkpt lat="45.1549152380896" lon="8.232361209076723"><ele>335.66666666666663</ele><time>2026-03-28T16:00:34.993Z</time></trkpt><trkpt lat="45.15476151520004" lon="8.232405846014263"><ele>343.0</ele><time>2026-03-28T16:00:35.993Z</time></trkpt><trkpt lat="45.15460731875852" lon="8.232452392801296"><ele>344.0</ele><time>2026-03-28T16:00:36.993Z</time></trkpt><trkpt lat="45.15445063351553" lon="8.232484458505414"><ele>345.0</ele><time>2026-03-28T16:00:37.993Z</time></trkpt><trkpt lat="45.15430040279078" lon="8.232509839609365"><ele>346.0</ele><time>2026-03-28T16:00:38.993Z</time></trkpt><trkpt lat="45.154154736065465" lon="8.232516721302018"><ele>344.3333333333333</ele><time>2026-03-28T16:00:39.993Z</time></trkpt><trkpt lat="45.15400561236925" lon="8.232525103322502"><ele>342.6666666666667</ele><time>2026-03-28T16:00:40.993Z</time></trkpt><trkpt lat="45.153846477534145" lon="8.232537416074402"><ele>341.0</ele><time>2026-03-28T16:00:41.993Z</time></trkpt><trkpt lat="45.1536899389414" lon="8.232549016568305"><ele>341.0</ele><time>2026-03-28T16:00:42.993Z</time></trkpt><trkpt lat="45.15354862788749" lon="8.232560921034692"><ele>341.0</ele><time>2026-03-28T16:00:43.993Z</time></trkpt><trkpt lat="45.15342039581767" lon="8.232564199093538"><ele>341.0</ele><time>2026-03-28T16:00:44.993Z</time></trkpt><trkpt lat="45.15331570208711" lon="8.232579051101972"><ele>341.0</ele><time>2026-03-28T16:00:45.993Z</time></trkpt><trkpt lat="45.15324868563337" lon="8.232604039421199"><ele>341.0</ele><time>2026-03-28T16:00:46.993Z</time></trkpt><trkpt lat="45.15321288444206" lon="8.232678982100587"><ele>341.0</ele><time>2026-03-28T16:00:48.993Z</time></trkpt><trkpt lat="45.153239490987296" lon="8.232762856755006"><ele>341.0</ele><time>2026-03-28T16:00:50.993Z</time></trkpt><trkpt lat="45.153287264767755" lon="8.232825333579813"><ele>341.0</ele><time>2026-03-28T16:00:51.993Z</time></trkpt><trkpt lat="45.15335246711798" lon="8.232913898771574"><ele>341.0</ele><time>2026-03-28T16:00:52.993Z</time></trkpt><trkpt lat="45.15342392694926" lon="8.233039358129718"><ele>341.0</ele><time>2026-03-28T16:00:53.993Z</time></trkpt><trkpt lat="45.15350730027951" lon="8.233177997158203"><ele>341.25</ele><time>2026-03-28T16:00:54.993Z</time></trkpt><trkpt lat="45.153601299601924" lon="8.233324931100364"><ele>341.5</ele><time>2026-03-28T16:00:55.993Z</time></trkpt><trkpt lat="45.1537046639968" lon="8.233487243896072"><ele>341.75</ele><time>2026-03-28T16:00:56.994Z</time></trkpt><trkpt lat="45.1538003444423" lon="8.233654081195407"><ele>342.0</ele><time>2026-03-28T16:00:57.994Z</time></trkpt><trkpt lat="45.15389428207515" lon="8.233826487436652"><ele>340.40000000000003</ele><time>2026-03-28T16:00:58.994Z</time></trkpt><trkpt lat="45.15397068969241" lon="8.233987150763824"><ele>338.8</ele><time>2026-03-28T16:00:59.994Z</time></trkpt><trkpt lat="45.15403450438988" lon="8.234131911225424"><ele>337.2</ele><time>2026-03-28T16:01:00.994Z</time></trkpt><trkpt lat="45.15408338790226" lon="8.234247617737157"><ele>335.6</ele><time>2026-03-28T16:01:01.994Z</time></trkpt><trkpt lat="45.15411376579764" lon="8.23436182990597"><ele>334.0</ele><time>2026-03-28T16:01:02.994Z</time></trkpt><trkpt lat="45.15410321724762" lon="8.234482000672534"><ele>334.0</ele><time>2026-03-28T16:01:03.994Z</time></trkpt><trkpt lat="45.15405617841299" lon="8.23460045087847"><ele>334.0</ele><time>2026-03-28T16:01:04.994Z</time></trkpt><trkpt lat="45.15399208348358" lon="8.234720850794291"><ele>334.0</ele><time>2026-03-28T16:01:05.994Z</time></trkpt><trkpt lat="45.15390160188264" lon="8.234845280325281"><ele>334.0</ele><time>2026-03-28T16:01:06.994Z</time></trkpt><trkpt lat="45.153807368823166" lon="8.23498106436413"><ele>335.0</ele><time>2026-03-28T16:01:07.994Z</time></trkpt><trkpt lat="45.153709265110784" lon="8.23512997626732"><ele>336.0</ele><time>2026-03-28T16:01:08.994Z</time></trkpt><trkpt lat="45.15361645988257" lon="8.235297371560554"><ele>337.0</ele><time>2026-03-28T16:01:09.994Z</time></trkpt><trkpt lat="45.15352498774702" lon="8.235492696831098"><ele>340.3333333333333</ele><time>2026-03-28T16:01:10.994Z</time></trkpt><trkpt lat="45.1534336938088" lon="8.235682526134338"><ele>343.6666666666667</ele><time>2026-03-28T16:01:11.994Z</time></trkpt><trkpt lat="45.15334753816606" lon="8.235866983775049"><ele>347.0</ele><time>2026-03-28T16:01:12.994Z</time></trkpt><trkpt lat="45.15326368823453" lon="8.236046879999654"><ele>348.5</ele><time>2026-03-28T16:01:13.994Z</time></trkpt><trkpt lat="45.15318020211544" lon="8.236218285745803"><ele>350.0</ele><time>2026-03-28T16:01:14.994Z</time></trkpt><trkpt lat="45.15311610368772" lon="8.236376876064934"><ele>351.5</ele><time>2026-03-28T16:01:15.994Z</time></trkpt><trkpt lat="45.153089357031725" lon="8.23653072396077"><ele>353.0</ele><time>2026-03-28T16:01:16.994Z</time></trkpt><trkpt lat="45.15309367714565" lon="8.236675956257091"><ele>353.0</ele><time>2026-03-28T16:01:17.994Z</time></trkpt><trkpt lat="45.153128513556695" lon="8.236827084726968"><ele>353.0</ele><time>2026-03-28T16:01:18.994Z</time></trkpt><trkpt lat="45.153151893844864" lon="8.236988886407817"><ele>353.0</ele><time>2026-03-28T16:01:19.994Z</time></trkpt><trkpt lat="45.15316426730111" lon="8.237169201432872"><ele>353.0</ele><time>2026-03-28T16:01:20.994Z</time></trkpt><trkpt lat="45.15315732327144" lon="8.23736295155753"><ele>354.5</ele><time>2026-03-28T16:01:21.994Z</time></trkpt><trkpt lat="45.15313753887793" lon="8.237559186570424"><ele>356.0</ele><time>2026-03-28T16:01:22.994Z</time></trkpt><trkpt lat="45.15310590105036" lon="8.237734319119712"><ele>357.5</ele><time>2026-03-28T16:01:23.994Z</time></trkpt><trkpt lat="45.15305204035865" lon="8.237905271815782"><ele>359.0</ele><time>2026-03-28T16:01:24.994Z</time></trkpt><trkpt lat="45.15298307750941" lon="8.23806763559501"><ele>355.0</ele><time>2026-03-28T16:01:25.994Z</time></trkpt><trkpt lat="45.15290697719945" lon="8.238229131138821"><ele>351.0</ele><time>2026-03-28T16:01:26.994Z</time></trkpt><trkpt lat="45.15284625406167" lon="8.238404050878554"><ele>347.0</ele><time>2026-03-28T16:01:27.994Z</time></trkpt><trkpt lat="45.1528114525407" lon="8.238582622086938"><ele>343.0</ele><time>2026-03-28T16:01:28.994Z</time></trkpt><trkpt lat="45.15278440404383" lon="8.238760983491273"><ele>343.0</ele><time>2026-03-28T16:01:29.994Z</time></trkpt><trkpt lat="45.15276047290681" lon="8.238949090084333"><ele>343.0</ele><time>2026-03-28T16:01:30.994Z</time></trkpt><trkpt lat="45.152739434431815" lon="8.239149167339063"><ele>343.0</ele><time>2026-03-28T16:01:31.994Z</time></trkpt><trkpt lat="45.15271881608582" lon="8.239342645352687"><ele>343.0</ele><time>2026-03-28T16:01:32.994Z</time></trkpt><trkpt lat="45.15271482677799" lon="8.239524867775627"><ele>342.0</ele><time>2026-03-28T16:01:33.994Z</time></trkpt><trkpt lat="45.152742186405696" lon="8.239697997794355"><ele>341.0</ele><time>2026-03-28T16:01:34.994Z</time></trkpt><trkpt lat="45.15280258894305" lon="8.23986324882242"><ele>340.0</ele><time>2026-03-28T16:01:35.994Z</time></trkpt><trkpt lat="45.15288268296501" lon="8.240008488497338"><ele>339.0</ele><time>2026-03-28T16:01:36.994Z</time></trkpt><trkpt lat="45.15297284256282" lon="8.240122532879086"><ele>339.0</ele><time>2026-03-28T16:01:37.994Z</time></trkpt><trkpt lat="45.15307327015519" lon="8.240221558768912"><ele>339.0</ele><time>2026-03-28T16:01:38.994Z</time></trkpt><trkpt lat="45.153188412626" lon="8.24030272328701"><ele>339.0</ele><time>2026-03-28T16:01:39.993Z</time></trkpt><trkpt lat="45.15330328023252" lon="8.240396103578467"><ele>339.0</ele><time>2026-03-28T16:01:40.993Z</time></trkpt><trkpt lat="45.15340372748928" lon="8.240522800408213"><ele>342.75</ele><time>2026-03-28T16:01:41.993Z</time></trkpt><trkpt lat="45.15349639536652" lon="8.24064459819203"><ele>346.5</ele><time>2026-03-28T16:01:42.993Z</time></trkpt><trkpt lat="45.153606909584695" lon="8.240732989253694"><ele>350.25</ele><time>2026-03-28T16:01:43.992Z</time></trkpt><trkpt lat="45.15373760225652" lon="8.240779442828908"><ele>354.0</ele><time>2026-03-28T16:01:44.992Z</time></trkpt><trkpt lat="45.15386785813465" lon="8.240797026996283"><ele>354.0</ele><time>2026-03-28T16:01:45.993Z</time></trkpt><trkpt lat="45.153996057580805" lon="8.240810052141663"><ele>354.0</ele><time>2026-03-28T16:01:46.993Z</time></trkpt><trkpt lat="45.15411376337435" lon="8.240875537785307"><ele>354.0</ele><time>2026-03-28T16:01:47.993Z</time></trkpt><trkpt lat="45.154212558824895" lon="8.240966681841494"><ele>354.0</ele><time>2026-03-28T16:01:48.993Z</time></trkpt><trkpt lat="45.154317701422386" lon="8.241045968015177"><ele>350.25</ele><time>2026-03-28T16:01:49.992Z</time></trkpt><trkpt lat="45.154431048016804" lon="8.241067548095726"><ele>346.5</ele><time>2026-03-28T16:01:50.992Z</time></trkpt><trkpt lat="45.15454355849206" lon="8.241034944482589"><ele>342.75</ele><time>2026-03-28T16:01:51.992Z</time></trkpt><trkpt lat="45.154651419297856" lon="8.240960610922796"><ele>339.0</ele><time>2026-03-28T16:01:52.992Z</time></trkpt><trkpt lat="45.154750141845334" lon="8.240890293199273"><ele>339.0</ele><time>2026-03-28T16:01:53.992Z</time></trkpt><trkpt lat="45.15485091429195" lon="8.240883620851864"><ele>339.0</ele><time>2026-03-28T16:01:54.992Z</time></trkpt><trkpt lat="45.15495011485569" lon="8.240930521825538"><ele>339.0</ele><time>2026-03-28T16:01:55.992Z</time></trkpt><trkpt lat="45.15503865489089" lon="8.241017220048748"><ele>339.0</ele><time>2026-03-28T16:01:56.992Z</time></trkpt><trkpt lat="45.15512834055377" lon="8.241137643817986"><ele>339.0</ele><time>2026-03-28T16:01:57.992Z</time></trkpt><trkpt lat="45.1552235107136" lon="8.241260897062975"><ele>336.25</ele><time>2026-03-28T16:01:58.992Z</time></trkpt><trkpt lat="45.15532242473553" lon="8.241364743067974"><ele>333.5</ele><time>2026-03-28T16:01:59.992Z</time></trkpt><trkpt lat="45.1554358055665" lon="8.24143625614527"><ele>330.75</ele><time>2026-03-28T16:02:00.992Z</time></trkpt><trkpt lat="45.15557245387678" lon="8.24146239173134"><ele>328.0</ele><time>2026-03-28T16:02:01.992Z</time></trkpt><trkpt lat="45.15572091572028" lon="8.241468068599085"><ele>325.66666666666663</ele><time>2026-03-28T16:02:02.992Z</time></trkpt><trkpt lat="45.15588391120671" lon="8.24145702128237"><ele>323.3333333333333</ele><time>2026-03-28T16:02:03.992Z</time></trkpt><trkpt lat="45.156036334809734" lon="8.241453406076873"><ele>321.0</ele><time>2026-03-28T16:02:04.992Z</time></trkpt><trkpt lat="45.15618054381057" lon="8.241478875387234"><ele>321.0</ele><time>2026-03-28T16:02:05.992Z</time></trkpt><trkpt lat="45.1563194033508" lon="8.241534268331831"><ele>321.0</ele><time>2026-03-28T16:02:06.993Z</time></trkpt><trkpt lat="45.15646322246861" lon="8.241599576137416"><ele>321.0</ele><time>2026-03-28T16:02:07.993Z</time></trkpt><trkpt lat="45.156610734426714" lon="8.241672716591829"><ele>322.3333333333333</ele><time>2026-03-28T16:02:08.993Z</time></trkpt><trkpt lat="45.15675685132445" lon="8.241760662806257"><ele>323.66666666666663</ele><time>2026-03-28T16:02:09.993Z</time></trkpt><trkpt lat="45.15690177223824" lon="8.241857572892394"><ele>325.0</ele><time>2026-03-28T16:02:10.993Z</time></trkpt><trkpt lat="45.157039438432165" lon="8.241961974292595"><ele>325.0</ele><time>2026-03-28T16:02:11.993Z</time></trkpt><trkpt lat="45.15716599587854" lon="8.242076763086246"><ele>325.0</ele><time>2026-03-28T16:02:12.993Z</time></trkpt><trkpt lat="45.15727701680306" lon="8.242218732407602"><ele>325.0</ele><time>2026-03-28T16:02:13.993Z</time></trkpt><trkpt lat="45.15738081732842" lon="8.242383426858332"><ele>323.0</ele><time>2026-03-28T16:02:14.993Z</time></trkpt><trkpt lat="45.15747630659772" lon="8.24255950734724"><ele>321.0</ele><time>2026-03-28T16:02:15.993Z</time></trkpt><trkpt lat="45.15757230253795" lon="8.242733168367254"><ele>319.0</ele><time>2026-03-28T16:02:16.993Z</time></trkpt><trkpt lat="45.157661086437145" lon="8.242904942073546"><ele>319.0</ele><time>2026-03-28T16:02:17.993Z</time></trkpt><trkpt lat="45.15775021884855" lon="8.24306692501685"><ele>319.0</ele><time>2026-03-28T16:02:18.993Z</time></trkpt><trkpt lat="45.157840801947394" lon="8.243217555506337"><ele>319.0</ele><time>2026-03-28T16:02:19.993Z</time></trkpt><trkpt lat="45.157926505778" lon="8.243362453432669"><ele>319.0</ele><time>2026-03-28T16:02:20.993Z</time></trkpt><trkpt lat="45.15802140969992" lon="8.243486626505875"><ele>318.5</ele><time>2026-03-28T16:02:21.993Z</time></trkpt><trkpt lat="45.158136459869574" lon="8.243596700301078"><ele>318.0</ele><time>2026-03-28T16:02:22.993Z</time></trkpt><trkpt lat="45.158259860778884" lon="8.243705964760595"><ele>317.5</ele><time>2026-03-28T16:02:23.993Z</time></trkpt><trkpt lat="45.15837700093431" lon="8.243826019855055"><ele>317.0</ele><time>2026-03-28T16:02:24.993Z</time></trkpt><trkpt lat="45.1584932550357" lon="8.243941204117245"><ele>315.0</ele><time>2026-03-28T16:02:25.993Z</time></trkpt><trkpt lat="45.15860596003258" lon="8.244056946863791"><ele>313.0</ele><time>2026-03-28T16:02:26.993Z</time></trkpt><trkpt lat="45.158712092082375" lon="8.244167113969414"><ele>311.0</ele><time>2026-03-28T16:02:27.993Z</time></trkpt><trkpt lat="45.158812304771914" lon="8.24429202676315"><ele>309.0</ele><time>2026-03-28T16:02:28.993Z</time></trkpt><trkpt lat="45.15889062465163" lon="8.244437006695021"><ele>309.0</ele><time>2026-03-28T16:02:29.993Z</time></trkpt><trkpt lat="45.158935652197144" lon="8.244602498847438"><ele>309.0</ele><time>2026-03-28T16:02:30.993Z</time></trkpt><trkpt lat="45.15894109272129" lon="8.24478019471971"><ele>309.0</ele><time>2026-03-28T16:02:31.993Z</time></trkpt><trkpt lat="45.1589339029181" lon="8.24495105186859"><ele>309.0</ele><time>2026-03-28T16:02:32.993Z</time></trkpt><trkpt lat="45.158926512195634" lon="8.245120741794077"><ele>306.2</ele><time>2026-03-28T16:02:33.993Z</time></trkpt><trkpt lat="45.15891608839433" lon="8.245291813538099"><ele>303.4</ele><time>2026-03-28T16:02:34.993Z</time></trkpt><trkpt lat="45.158910371112185" lon="8.245463815298473"><ele>300.6</ele><time>2026-03-28T16:02:35.993Z</time></trkpt><trkpt lat="45.15890831466972" lon="8.245606212265997"><ele>297.8</ele><time>2026-03-28T16:02:36.993Z</time></trkpt><trkpt lat="45.15892060862248" lon="8.245721239111427"><ele>295.0</ele><time>2026-03-28T16:02:37.993Z</time></trkpt><trkpt lat="45.15896160295081" lon="8.24581575517329"><ele>294.3333333333333</ele><time>2026-03-28T16:02:38.993Z</time></trkpt><trkpt lat="45.159009513574105" lon="8.245887319576411"><ele>293.66666666666663</ele><time>2026-03-28T16:02:39.993Z</time></trkpt><trkpt lat="45.15907977298957" lon="8.245986384704317"><ele>293.0</ele><time>2026-03-28T16:02:41.993Z</time></trkpt><trkpt lat="45.159133561880594" lon="8.246044757067072"><ele>292.3333333333333</ele><time>2026-03-28T16:02:44.993Z</time></trkpt><trkpt lat="45.15921139158156" lon="8.245993698859436"><ele>291.6666666666667</ele><time>2026-03-28T16:02:46.993Z</time></trkpt><trkpt lat="45.159265560077664" lon="8.245918210456932"><ele>291.0</ele><time>2026-03-28T16:02:47.993Z</time></trkpt><trkpt lat="45.1593449889147" lon="8.245859274245609"><ele>294.75</ele><time>2026-03-28T16:02:48.993Z</time></trkpt><trkpt lat="45.159448501360345" lon="8.245809043372692"><ele>298.5</ele><time>2026-03-28T16:02:49.993Z</time></trkpt><trkpt lat="45.15956652846903" lon="8.24578833824663"><ele>302.25</ele><time>2026-03-28T16:02:50.993Z</time></trkpt><trkpt lat="45.15969339237641" lon="8.24579478681929"><ele>306.0</ele><time>2026-03-28T16:02:51.993Z</time></trkpt><trkpt lat="45.15982247678991" lon="8.24585055434501"><ele>306.5</ele><time>2026-03-28T16:02:52.993Z</time></trkpt><trkpt lat="45.159953107129745" lon="8.245943008979486"><ele>307.0</ele><time>2026-03-28T16:02:53.993Z</time></trkpt><trkpt lat="45.16007992624084" lon="8.246055718107586"><ele>307.5</ele><time>2026-03-28T16:02:54.993Z</time></trkpt><trkpt lat="45.160207374936654" lon="8.246155248303795"><ele>308.0</ele><time>2026-03-28T16:02:55.993Z</time></trkpt><trkpt lat="45.16033400036753" lon="8.246241430388986"><ele>308.0</ele><time>2026-03-28T16:02:56.993Z</time></trkpt><trkpt lat="45.1604437935741" lon="8.246353304773708"><ele>308.0</ele><time>2026-03-28T16:02:57.993Z</time></trkpt><trkpt lat="45.16052475573331" lon="8.246511318062181"><ele>308.0</ele><time>2026-03-28T16:02:58.993Z</time></trkpt><trkpt lat="45.160577458275746" lon="8.246705237688756"><ele>308.0</ele><time>2026-03-28T16:02:59.993Z</time></trkpt><trkpt lat="45.16060936781339" lon="8.246919979484291"><ele>305.25</ele><time>2026-03-28T16:03:00.993Z</time></trkpt><trkpt lat="45.16063700473633" lon="8.247124921863472"><ele>302.5</ele><time>2026-03-28T16:03:01.993Z</time></trkpt><trkpt lat="45.16064484200777" lon="8.247318263412604"><ele>299.75</ele><time>2026-03-28T16:03:02.993Z</time></trkpt><trkpt lat="45.160613869711135" lon="8.24750863586023"><ele>297.0</ele><time>2026-03-28T16:03:03.993Z</time></trkpt><trkpt lat="45.1605439043981" lon="8.247681689451808"><ele>296.25</ele><time>2026-03-28T16:03:04.993Z</time></trkpt><trkpt lat="45.160466697961546" lon="8.247831537140089"><ele>295.5</ele><time>2026-03-28T16:03:05.993Z</time></trkpt><trkpt lat="45.16040971497271" lon="8.247978514231727"><ele>294.75</ele><time>2026-03-28T16:03:06.993Z</time></trkpt><trkpt lat="45.16039144667703" lon="8.248129557044651"><ele>294.0</ele><time>2026-03-28T16:03:07.993Z</time></trkpt><trkpt lat="45.160413268143905" lon="8.248291099147341"><ele>295.5</ele><time>2026-03-28T16:03:08.993Z</time></trkpt><trkpt lat="45.16046866706744" lon="8.248453442220415"><ele>297.0</ele><time>2026-03-28T16:03:09.993Z</time></trkpt><trkpt lat="45.16055121061707" lon="8.248627455227734"><ele>298.5</ele><time>2026-03-28T16:03:10.993Z</time></trkpt><trkpt lat="45.16063787129343" lon="8.248818324954357"><ele>300.0</ele><time>2026-03-28T16:03:11.993Z</time></trkpt><trkpt lat="45.16072281056434" lon="8.249028827604564"><ele>301.3333333333333</ele><time>2026-03-28T16:03:12.993Z</time></trkpt><trkpt lat="45.16080906394083" lon="8.249256923914926"><ele>302.66666666666663</ele><time>2026-03-28T16:03:13.993Z</time></trkpt><trkpt lat="45.16089087399549" lon="8.249495805771229"><ele>304.0</ele><time>2026-03-28T16:03:14.993Z</time></trkpt><trkpt lat="45.160967029137076" lon="8.249740465341523"><ele>303.66666666666663</ele><time>2026-03-28T16:03:15.993Z</time></trkpt><trkpt lat="45.16104350759981" lon="8.249980860199399"><ele>303.3333333333333</ele><time>2026-03-28T16:03:16.993Z</time></trkpt><trkpt lat="45.16111889257567" lon="8.250215203128326"><ele>303.0</ele><time>2026-03-28T16:03:17.993Z</time></trkpt><trkpt lat="45.16116849725606" lon="8.250459523191749"><ele>303.0</ele><time>2026-03-28T16:03:18.993Z</time></trkpt><trkpt lat="45.16119252370021" lon="8.250712540605706"><ele>303.0</ele><time>2026-03-28T16:03:19.993Z</time></trkpt><trkpt lat="45.16121024702879" lon="8.250977275169472"><ele>303.0</ele><time>2026-03-28T16:03:20.993Z</time></trkpt><trkpt lat="45.16123048243189" lon="8.251250353584123"><ele>303.6666666666667</ele><time>2026-03-28T16:03:21.993Z</time></trkpt><trkpt lat="45.16125416150712" lon="8.25152490269917"><ele>304.33333333333337</ele><time>2026-03-28T16:03:22.993Z</time></trkpt><trkpt lat="45.16127528511886" lon="8.251788938653403"><ele>305.0</ele><time>2026-03-28T16:03:23.993Z</time></trkpt><trkpt lat="45.16129839666679" lon="8.252033646927627"><ele>305.0</ele><time>2026-03-28T16:03:24.993Z</time></trkpt><trkpt lat="45.16129958597744" lon="8.252271074596083"><ele>305.0</ele><time>2026-03-28T16:03:25.993Z</time></trkpt><trkpt lat="45.16127684156018" lon="8.252498151537674"><ele>305.0</ele><time>2026-03-28T16:03:26.993Z</time></trkpt><trkpt lat="45.161247979887854" lon="8.2527029336865"><ele>307.75</ele><time>2026-03-28T16:03:27.993Z</time></trkpt><trkpt lat="45.161209349827885" lon="8.252882197321055"><ele>310.5</ele><time>2026-03-28T16:03:28.993Z</time></trkpt><trkpt lat="45.16114059080724" lon="8.253043973858427"><ele>313.25</ele><time>2026-03-28T16:03:29.993Z</time></trkpt><trkpt lat="45.16104626100194" lon="8.253179695886885"><ele>316.0</ele><time>2026-03-28T16:03:30.993Z</time></trkpt><trkpt lat="45.16096017820923" lon="8.25331150222033"><ele>319.0</ele><time>2026-03-28T16:03:31.993Z</time></trkpt><trkpt lat="45.16090708593218" lon="8.253467025669034"><ele>322.0</ele><time>2026-03-28T16:03:32.993Z</time></trkpt><trkpt lat="45.16089144669667" lon="8.25363523205347"><ele>325.0</ele><time>2026-03-28T16:03:33.994Z</time></trkpt><trkpt lat="45.16090368243414" lon="8.253809817550206"><ele>328.0</ele><time>2026-03-28T16:03:34.994Z</time></trkpt><trkpt lat="45.16092430174107" lon="8.253991364151112"><ele>328.5</ele><time>2026-03-28T16:03:35.994Z</time></trkpt><trkpt lat="45.16092377222938" lon="8.254183285574923"><ele>329.0</ele><time>2026-03-28T16:03:36.994Z</time></trkpt><trkpt lat="45.160907085601806" lon="8.254370297999843"><ele>329.5</ele><time>2026-03-28T16:03:37.994Z</time></trkpt><trkpt lat="45.16090640506029" lon="8.25454732005985"><ele>330.0</ele><time>2026-03-28T16:03:38.994Z</time></trkpt><trkpt lat="45.16093974245761" lon="8.254718303832629"><ele>328.6666666666667</ele><time>2026-03-28T16:03:39.994Z</time></trkpt><trkpt lat="45.16101531384709" lon="8.25488512308135"><ele>327.33333333333337</ele><time>2026-03-28T16:03:40.994Z</time></trkpt><trkpt lat="45.16111733929156" lon="8.255049100649858"><ele>326.0</ele><time>2026-03-28T16:03:41.994Z</time></trkpt><trkpt lat="45.16122403008534" lon="8.255219524888712"><ele>326.0</ele><time>2026-03-28T16:03:42.994Z</time></trkpt><trkpt lat="45.16133077238038" lon="8.255408058842935"><ele>326.0</ele><time>2026-03-28T16:03:43.994Z</time></trkpt><trkpt lat="45.16144129149958" lon="8.255605696924418"><ele>326.0</ele><time>2026-03-28T16:03:44.994Z</time></trkpt><trkpt lat="45.1615533687169" lon="8.25580889825161"><ele>327.6666666666667</ele><time>2026-03-28T16:03:45.993Z</time></trkpt><trkpt lat="45.161668593017865" lon="8.255995919350612"><ele>329.3333333333333</ele><time>2026-03-28T16:03:46.993Z</time></trkpt><trkpt lat="45.161789911137916" lon="8.256159407077453"><ele>331.0</ele><time>2026-03-28T16:03:47.993Z</time></trkpt><trkpt lat="45.1619084595716" lon="8.256308474750952"><ele>331.0</ele><time>2026-03-28T16:03:48.993Z</time></trkpt><trkpt lat="45.162008712590385" lon="8.256450994414566"><ele>331.0</ele><time>2026-03-28T16:03:49.992Z</time></trkpt><trkpt lat="45.1620824610016" lon="8.256592296990071"><ele>331.0</ele><time>2026-03-28T16:03:50.992Z</time></trkpt><trkpt lat="45.16211895125544" lon="8.256742986649602"><ele>331.0</ele><time>2026-03-28T16:03:51.993Z</time></trkpt><trkpt lat="45.16211737751924" lon="8.256904204160323"><ele>330.25</ele><time>2026-03-28T16:03:52.992Z</time></trkpt><trkpt lat="45.16207977375078" lon="8.257082710977835"><ele>329.5</ele><time>2026-03-28T16:03:53.992Z</time></trkpt><trkpt lat="45.16201033747973" lon="8.257260516052352"><ele>328.75</ele><time>2026-03-28T16:03:54.992Z</time></trkpt><trkpt lat="45.1619251786049" lon="8.257413803308669"><ele>328.0</ele><time>2026-03-28T16:03:55.993Z</time></trkpt><trkpt lat="45.16183427571951" lon="8.257542267198682"><ele>326.79999999999995</ele><time>2026-03-28T16:03:56.993Z</time></trkpt><trkpt lat="45.161771980816866" lon="8.257675242975163"><ele>325.6</ele><time>2026-03-28T16:03:57.993Z</time></trkpt><trkpt lat="45.16175561742774" lon="8.257832620874533"><ele>324.4</ele><time>2026-03-28T16:03:58.993Z</time></trkpt><trkpt lat="45.16178097017415" lon="8.257977214844727"><ele>323.20000000000005</ele><time>2026-03-28T16:03:59.993Z</time></trkpt><trkpt lat="45.16184728581248" lon="8.258102253385209"><ele>322.0</ele><time>2026-03-28T16:04:00.993Z</time></trkpt><trkpt lat="45.161937423558996" lon="8.258242652848725"><ele>320.0</ele><time>2026-03-28T16:04:01.993Z</time></trkpt><trkpt lat="45.162025366031315" lon="8.258406004395773"><ele>318.0</ele><time>2026-03-28T16:04:02.993Z</time></trkpt><trkpt lat="45.1621057981134" lon="8.258557117754156"><ele>316.0</ele><time>2026-03-28T16:04:03.993Z</time></trkpt><trkpt lat="45.16220713996614" lon="8.25868368577529"><ele>314.0</ele><time>2026-03-28T16:04:04.993Z</time></trkpt><trkpt lat="45.16231518878696" lon="8.258783027041734"><ele>315.33333333333337</ele><time>2026-03-28T16:04:05.993Z</time></trkpt><trkpt lat="45.16245033936193" lon="8.258854587874639"><ele>316.6666666666667</ele><time>2026-03-28T16:04:06.993Z</time></trkpt><trkpt lat="45.162592066952534" lon="8.258944616986925"><ele>318.0</ele><time>2026-03-28T16:04:07.993Z</time></trkpt><trkpt lat="45.16271816738747" lon="8.25907667680062"><ele>318.0</ele><time>2026-03-28T16:04:08.993Z</time></trkpt><trkpt lat="45.16283250779862" lon="8.259203420647843"><ele>318.0</ele><time>2026-03-28T16:04:09.993Z</time></trkpt><trkpt lat="45.162956070567006" lon="8.259287323851773"><ele>318.0</ele><time>2026-03-28T16:04:10.993Z</time></trkpt><trkpt lat="45.16308694376576" lon="8.25933406074759"><ele>318.0</ele><time>2026-03-28T16:04:11.993Z</time></trkpt><trkpt lat="45.16321330475617" lon="8.259387196933817"><ele>319.5</ele><time>2026-03-28T16:04:12.993Z</time></trkpt><trkpt lat="45.16333214089805" lon="8.25946026052682"><ele>321.0</ele><time>2026-03-28T16:04:13.993Z</time></trkpt><trkpt lat="45.16343768215375" lon="8.25954767839546"><ele>322.5</ele><time>2026-03-28T16:04:14.993Z</time></trkpt><trkpt lat="45.16353071433781" lon="8.259657132772212"><ele>324.0</ele><time>2026-03-28T16:04:15.993Z</time></trkpt><trkpt lat="45.16359085242075" lon="8.259801863691296"><ele>325.0</ele><time>2026-03-28T16:04:16.993Z</time></trkpt><trkpt lat="45.16363126424552" lon="8.25998270786792"><ele>326.0</ele><time>2026-03-28T16:04:17.993Z</time></trkpt><trkpt lat="45.163670422858885" lon="8.260186125272893"><ele>327.0</ele><time>2026-03-28T16:04:18.993Z</time></trkpt><trkpt lat="45.16371032920423" lon="8.260407160791951"><ele>328.0</ele><time>2026-03-28T16:04:19.993Z</time></trkpt><trkpt lat="45.16375248252699" lon="8.260640601409897"><ele>328.66666666666663</ele><time>2026-03-28T16:04:20.993Z</time></trkpt><trkpt lat="45.16378869239881" lon="8.260864893581166"><ele>329.3333333333333</ele><time>2026-03-28T16:04:21.993Z</time></trkpt><trkpt lat="45.16383154439784" lon="8.261081430769673"><ele>330.0</ele><time>2026-03-28T16:04:22.993Z</time></trkpt><trkpt lat="45.163879883784986" lon="8.261288621617641"><ele>331.5</ele><time>2026-03-28T16:04:23.993Z</time></trkpt><trkpt lat="45.16393524902093" lon="8.26148446099696"><ele>333.0</ele><time>2026-03-28T16:04:24.993Z</time></trkpt><trkpt lat="45.16400383666385" lon="8.261669129640651"><ele>334.5</ele><time>2026-03-28T16:04:25.993Z</time></trkpt><trkpt lat="45.16409952327463" lon="8.261822880139277"><ele>336.0</ele><time>2026-03-28T16:04:26.993Z</time></trkpt><trkpt lat="45.16420984144914" lon="8.26193454864565"><ele>332.75</ele><time>2026-03-28T16:04:27.993Z</time></trkpt><trkpt lat="45.16433064169158" lon="8.26201649206554"><ele>329.5</ele><time>2026-03-28T16:04:28.993Z</time></trkpt><trkpt lat="45.164430802743446" lon="8.262133420803435"><ele>326.25</ele><time>2026-03-28T16:04:29.993Z</time></trkpt><trkpt lat="45.164497505419625" lon="8.262290195316446"><ele>323.0</ele><time>2026-03-28T16:04:30.993Z</time></trkpt><trkpt lat="45.16453727819443" lon="8.262463055290658"><ele>323.0</ele><time>2026-03-28T16:04:31.993Z</time></trkpt><trkpt lat="45.164583596080874" lon="8.262633305489187"><ele>323.0</ele><time>2026-03-28T16:04:32.993Z</time></trkpt><trkpt lat="45.16467087213393" lon="8.262767079904947"><ele>323.0</ele><time>2026-03-28T16:04:33.993Z</time></trkpt><trkpt lat="45.16479847076811" lon="8.2628531743006"><ele>323.0</ele><time>2026-03-28T16:04:34.993Z</time></trkpt><trkpt lat="45.164951279303075" lon="8.262890788681176"><ele>311.33333333333337</ele><time>2026-03-28T16:04:35.993Z</time></trkpt><trkpt lat="45.165115936707224" lon="8.26291266299167"><ele>299.6666666666667</ele><time>2026-03-28T16:04:36.993Z</time></trkpt><trkpt lat="45.16527679840786" lon="8.262949941335327"><ele>288.0</ele><time>2026-03-28T16:04:37.993Z</time></trkpt><trkpt lat="45.16543241425255" lon="8.262995403075264"><ele>288.0</ele><time>2026-03-28T16:04:38.993Z</time></trkpt><trkpt lat="45.165587326024635" lon="8.26304526013912"><ele>288.0</ele><time>2026-03-28T16:04:39.993Z</time></trkpt><trkpt lat="45.16572821829559" lon="8.263090321073651"><ele>288.0</ele><time>2026-03-28T16:04:40.993Z</time></trkpt><trkpt lat="45.16584460667263" lon="8.263123006365378"><ele>288.0</ele><time>2026-03-28T16:04:41.993Z</time></trkpt><trkpt lat="45.16593130173622" lon="8.263122364369549"><ele>286.6</ele><time>2026-03-28T16:04:42.993Z</time></trkpt><trkpt lat="45.16599244779539" lon="8.263083736743834"><ele>285.20000000000005</ele><time>2026-03-28T16:04:43.993Z</time></trkpt><trkpt lat="45.16602715617338" lon="8.262989618491378"><ele>283.8</ele><time>2026-03-28T16:04:44.993Z</time></trkpt><trkpt lat="45.166041258452616" lon="8.262849205132229"><ele>282.40000000000003</ele><time>2026-03-28T16:04:45.993Z</time></trkpt><trkpt lat="45.166070092486834" lon="8.262694857890917"><ele>281.0</ele><time>2026-03-28T16:04:46.993Z</time></trkpt><trkpt lat="45.16613454178391" lon="8.262546800062763"><ele>281.0</ele><time>2026-03-28T16:04:47.993Z</time></trkpt><trkpt lat="45.16622107351377" lon="8.262442089695703"><ele>281.0</ele><time>2026-03-28T16:04:48.994Z</time></trkpt><trkpt lat="45.16632613375023" lon="8.262372047586029"><ele>281.0</ele><time>2026-03-28T16:04:49.994Z</time></trkpt><trkpt lat="45.16644568735118" lon="8.262317948177238"><ele>281.0</ele><time>2026-03-28T16:04:50.994Z</time></trkpt><trkpt lat="45.16657522484121" lon="8.262284023587037"><ele>280.75</ele><time>2026-03-28T16:04:51.994Z</time></trkpt><trkpt lat="45.16671498976214" lon="8.26226308874571"><ele>280.5</ele><time>2026-03-28T16:04:52.994Z</time></trkpt><trkpt lat="45.166839631109625" lon="8.262246192876669"><ele>280.25</ele><time>2026-03-28T16:04:53.994Z</time></trkpt><trkpt lat="45.1669575132018" lon="8.262265616568966"><ele>280.0</ele><time>2026-03-28T16:04:54.994Z</time></trkpt><trkpt lat="45.16708101962111" lon="8.262321126726816"><ele>280.0</ele><time>2026-03-28T16:04:55.994Z</time></trkpt><trkpt lat="45.16720463997342" lon="8.262400923616736"><ele>280.0</ele><time>2026-03-28T16:04:56.994Z</time></trkpt><trkpt lat="45.167338021844" lon="8.262485347094888"><ele>280.0</ele><time>2026-03-28T16:04:57.994Z</time></trkpt><trkpt lat="45.167470847502045" lon="8.262569291745848"><ele>280.0</ele><time>2026-03-28T16:04:58.994Z</time></trkpt><trkpt lat="45.16759441844841" lon="8.262655719459543"><ele>280.25</ele><time>2026-03-28T16:04:59.994Z</time></trkpt><trkpt lat="45.16772176382602" lon="8.262733104795727"><ele>280.5</ele><time>2026-03-28T16:05:00.994Z</time></trkpt><trkpt lat="45.16784700216136" lon="8.262811641214372"><ele>280.75</ele><time>2026-03-28T16:05:01.994Z</time></trkpt><trkpt lat="45.16797084266417" lon="8.262891033761496"><ele>281.0</ele><time>2026-03-28T16:05:02.994Z</time></trkpt><trkpt lat="45.168098726948934" lon="8.262969201674066"><ele>279.5</ele><time>2026-03-28T16:05:03.994Z</time></trkpt><trkpt lat="45.16822764603306" lon="8.263047934217584"><ele>278.0</ele><time>2026-03-28T16:05:04.994Z</time></trkpt><trkpt lat="45.16835271940228" lon="8.26313558159649"><ele>276.5</ele><time>2026-03-28T16:05:05.994Z</time></trkpt><trkpt lat="45.16847365436449" lon="8.263222383930163"><ele>275.0</ele><time>2026-03-28T16:05:06.994Z</time></trkpt><trkpt lat="45.168592715802184" lon="8.26330220475352"><ele>275.0</ele><time>2026-03-28T16:05:07.994Z</time></trkpt><trkpt lat="45.16870907662506" lon="8.263381499434523"><ele>275.0</ele><time>2026-03-28T16:05:08.994Z</time></trkpt><trkpt lat="45.168819691808345" lon="8.263459613594293"><ele>275.0</ele><time>2026-03-28T16:05:09.994Z</time></trkpt><trkpt lat="45.168929352117985" lon="8.263536528749645"><ele>275.0</ele><time>2026-03-28T16:05:10.994Z</time></trkpt><trkpt lat="45.16903706207513" lon="8.263605706422236"><ele>274.0</ele><time>2026-03-28T16:05:11.994Z</time></trkpt><trkpt lat="45.1691377978169" lon="8.263664157531553"><ele>273.0</ele><time>2026-03-28T16:05:12.994Z</time></trkpt><trkpt lat="45.169227808031415" lon="8.2637147839754"><ele>272.0</ele><time>2026-03-28T16:05:13.994Z</time></trkpt><trkpt lat="45.16931353994397" lon="8.263757807113166"><ele>271.0</ele><time>2026-03-28T16:05:14.994Z</time></trkpt><trkpt lat="45.169395864203935" lon="8.263793231365742"><ele>270.0</ele><time>2026-03-28T16:05:15.994Z</time></trkpt><trkpt lat="45.169479462491154" lon="8.263824807962314"><ele>270.0</ele><time>2026-03-28T16:05:16.994Z</time></trkpt><trkpt lat="45.16956120873006" lon="8.263861789087853"><ele>270.0</ele><time>2026-03-28T16:05:17.994Z</time></trkpt><trkpt lat="45.16963696611718" lon="8.26391340344554"><ele>270.0</ele><time>2026-03-28T16:05:18.994Z</time></trkpt><trkpt lat="45.169711798241615" lon="8.263987456652483"><ele>270.0</ele><time>2026-03-28T16:05:19.994Z</time></trkpt><trkpt lat="45.169783336701755" lon="8.264074157490406"><ele>270.0</ele><time>2026-03-28T16:05:20.994Z</time></trkpt><trkpt lat="45.16985257688027" lon="8.264166869941258"><ele>270.0</ele><time>2026-03-28T16:05:21.994Z</time></trkpt><trkpt lat="45.169914860109316" lon="8.264258773711397"><ele>270.0</ele><time>2026-03-28T16:05:22.994Z</time></trkpt><trkpt lat="45.169970157340224" lon="8.264343640224192"><ele>270.0</ele><time>2026-03-28T16:05:23.994Z</time></trkpt><trkpt lat="45.170033637899195" lon="8.264417491325133"><ele>270.0</ele><time>2026-03-28T16:05:24.994Z</time></trkpt><trkpt lat="45.1701045705536" lon="8.264470856599974"><ele>270.0</ele><time>2026-03-28T16:05:25.994Z</time></trkpt><trkpt lat="45.17017630170738" lon="8.264508155308548"><ele>270.0</ele><time>2026-03-28T16:05:26.994Z</time></trkpt><trkpt lat="45.17024876871618" lon="8.264547677356733"><ele>270.0</ele><time>2026-03-28T16:05:27.994Z</time></trkpt><trkpt lat="45.17031624379991" lon="8.264591182590264"><ele>270.0</ele><time>2026-03-28T16:05:28.994Z</time></trkpt><trkpt lat="45.17039106400222" lon="8.264641957917185"><ele>270.0</ele><time>2026-03-28T16:05:29.994Z</time></trkpt><trkpt lat="45.17046440381709" lon="8.26470315000435"><ele>270.0</ele><time>2026-03-28T16:05:30.994Z</time></trkpt><trkpt lat="45.17053467308032" lon="8.264781431449496"><ele>270.0</ele><time>2026-03-28T16:05:31.994Z</time></trkpt><trkpt lat="45.17061244789788" lon="8.26484930014359"><ele>270.0</ele><time>2026-03-28T16:05:32.994Z</time></trkpt><trkpt lat="45.17069979452977" lon="8.26491862018372"><ele>268.8</ele><time>2026-03-28T16:05:33.994Z</time></trkpt><trkpt lat="45.17078838592668" lon="8.264975013575778"><ele>267.6</ele><time>2026-03-28T16:05:34.994Z</time></trkpt><trkpt lat="45.17087987713558" lon="8.265019945624234"><ele>266.4</ele><time>2026-03-28T16:05:35.994Z</time></trkpt><trkpt lat="45.17097185662003" lon="8.26504667214565"><ele>265.2</ele><time>2026-03-28T16:05:36.994Z</time></trkpt><trkpt lat="45.17105827394057" lon="8.265057493950682"><ele>264.0</ele><time>2026-03-28T16:05:37.994Z</time></trkpt><trkpt lat="45.171146534798346" lon="8.26505672841371"><ele>264.0</ele><time>2026-03-28T16:05:38.994Z</time></trkpt><trkpt lat="45.17123316974972" lon="8.265052985303896"><ele>264.0</ele><time>2026-03-28T16:05:39.994Z</time></trkpt><trkpt lat="45.171315264031904" lon="8.26504814927039"><ele>264.0</ele><time>2026-03-28T16:05:40.994Z</time></trkpt><trkpt lat="45.17139207963604" lon="8.265030804170848"><ele>264.0</ele><time>2026-03-28T16:05:41.994Z</time></trkpt><trkpt lat="45.17148009560003" lon="8.265033262076539"><ele>264.0</ele><time>2026-03-28T16:05:42.994Z</time></trkpt><trkpt lat="45.171562261994715" lon="8.265040849573694"><ele>264.0</ele><time>2026-03-28T16:05:43.994Z</time></trkpt><trkpt lat="45.17163952880136" lon="8.265057382572314"><ele>263.8333333333333</ele><time>2026-03-28T16:05:44.994Z</time></trkpt><trkpt lat="45.1717178907406" lon="8.265050791527823"><ele>263.6666666666667</ele><time>2026-03-28T16:05:45.994Z</time></trkpt><trkpt lat="45.171790153717616" lon="8.26503981979152"><ele>263.5</ele><time>2026-03-28T16:05:46.994Z</time></trkpt><trkpt lat="45.171860526930786" lon="8.264992414504094"><ele>263.33333333333337</ele><time>2026-03-28T16:05:47.994Z</time></trkpt><trkpt lat="45.1719419715576" lon="8.264955385165019"><ele>263.1666666666667</ele><time>2026-03-28T16:05:48.994Z</time></trkpt><trkpt lat="45.17203510946623" lon="8.264942392161105"><ele>263.0</ele><time>2026-03-28T16:05:49.994Z</time></trkpt><trkpt lat="45.17212038670979" lon="8.26493979298617"><ele>263.0</ele><time>2026-03-28T16:05:50.994Z</time></trkpt><trkpt lat="45.1722201371579" lon="8.264935739422308"><ele>263.0</ele><time>2026-03-28T16:05:51.993Z</time></trkpt><trkpt lat="45.17229898917336" lon="8.26495516222162"><ele>263.0</ele><time>2026-03-28T16:05:52.993Z</time></trkpt><trkpt lat="45.17238959765478" lon="8.264998069668323"><ele>263.0</ele><time>2026-03-28T16:05:53.993Z</time></trkpt><trkpt lat="45.172484978270596" lon="8.265033860896375"><ele>263.0</ele><time>2026-03-28T16:05:54.992Z</time></trkpt><trkpt lat="45.17258844452866" lon="8.26503191059058"><ele>262.5</ele><time>2026-03-28T16:05:55.992Z</time></trkpt><trkpt lat="45.17271650826503" lon="8.265017861874245"><ele>262.0</ele><time>2026-03-28T16:05:56.992Z</time></trkpt><trkpt lat="45.17285246535991" lon="8.26500408503942"><ele>261.5</ele><time>2026-03-28T16:05:57.992Z</time></trkpt><trkpt lat="45.17299602649772" lon="8.264991408917913"><ele>261.0</ele><time>2026-03-28T16:05:58.992Z</time></trkpt><trkpt lat="45.1731482109385" lon="8.264985748640697"><ele>258.5</ele><time>2026-03-28T16:05:59.992Z</time></trkpt><trkpt lat="45.17329647270016" lon="8.264991767999485"><ele>256.0</ele><time>2026-03-28T16:06:00.992Z</time></trkpt><trkpt lat="45.173439694848824" lon="8.26499718197451"><ele>253.5</ele><time>2026-03-28T16:06:01.992Z</time></trkpt><trkpt lat="45.17355605890243" lon="8.265010187289922"><ele>251.0</ele><time>2026-03-28T16:06:02.992Z</time></trkpt><trkpt lat="45.173656993851" lon="8.265013431607368"><ele>251.00000000000003</ele><time>2026-03-28T16:06:03.992Z</time></trkpt><trkpt lat="45.173753441718546" lon="8.26503215078877"><ele>251.0</ele><time>2026-03-28T16:06:04.993Z</time></trkpt><trkpt lat="45.173844542184774" lon="8.265060397693778"><ele>251.0</ele><time>2026-03-28T16:06:05.993Z</time></trkpt><trkpt lat="45.17389419998204" lon="8.265149121662565"><ele>251.0</ele><time>2026-03-28T16:06:06.993Z</time></trkpt><trkpt lat="45.17391641026497" lon="8.265257937162854"><ele>251.00000000000003</ele><time>2026-03-28T16:06:07.993Z</time></trkpt><trkpt lat="45.17391517983477" lon="8.265387462959351"><ele>251.0</ele><time>2026-03-28T16:06:08.993Z</time></trkpt><trkpt lat="45.17388741664567" lon="8.2655451480093"><ele>251.0</ele><time>2026-03-28T16:06:09.993Z</time></trkpt><trkpt lat="45.17383377050196" lon="8.265721194790336"><ele>251.0</ele><time>2026-03-28T16:06:10.993Z</time></trkpt><trkpt lat="45.17377710229774" lon="8.265879849574585"><ele>251.0</ele><time>2026-03-28T16:06:11.993Z</time></trkpt><trkpt lat="45.17372308236624" lon="8.266017931868907"><ele>251.0</ele><time>2026-03-28T16:06:12.993Z</time></trkpt><trkpt lat="45.173695525424485" lon="8.266137958040058"><ele>250.99999999999997</ele><time>2026-03-28T16:06:13.993Z</time></trkpt><trkpt lat="45.173684471661545" lon="8.266242205065225"><ele>251.0</ele><time>2026-03-28T16:06:14.993Z</time></trkpt><trkpt lat="45.17370255906897" lon="8.266333212830427"><ele>250.99999999999997</ele><time>2026-03-28T16:06:15.993Z</time></trkpt><trkpt lat="45.17374710058112" lon="8.266405897644836"><ele>250.99999999999997</ele><time>2026-03-28T16:06:16.993Z</time></trkpt><trkpt lat="45.17381112605613" lon="8.266433996943432"><ele>251.0</ele><time>2026-03-28T16:06:17.993Z</time></trkpt><trkpt lat="45.17388346541318" lon="8.266423288590234"><ele>250.99999999999997</ele><time>2026-03-28T16:06:18.993Z</time></trkpt><trkpt lat="45.17396291877093" lon="8.266357422038848"><ele>250.99999999999997</ele><time>2026-03-28T16:06:19.993Z</time></trkpt><trkpt lat="45.17405101975268" lon="8.266244567721756"><ele>247.0</ele><time>2026-03-28T16:06:20.993Z</time></trkpt><trkpt lat="45.174155527951484" lon="8.266117620717297"><ele>243.0</ele><time>2026-03-28T16:06:21.993Z</time></trkpt><trkpt lat="45.17425753387006" lon="8.265990435658006"><ele>239.0</ele><time>2026-03-28T16:06:22.993Z</time></trkpt><trkpt lat="45.174363776048665" lon="8.26584707992255"><ele>235.0</ele><time>2026-03-28T16:06:23.993Z</time></trkpt><trkpt lat="45.174470264437666" lon="8.265684131314353"><ele>236.33333333333331</ele><time>2026-03-28T16:06:24.993Z</time></trkpt><trkpt lat="45.17458378401662" lon="8.265522913403931"><ele>237.66666666666669</ele><time>2026-03-28T16:06:25.993Z</time></trkpt><trkpt lat="45.17469391747963" lon="8.265364217464436"><ele>239.0</ele><time>2026-03-28T16:06:26.993Z</time></trkpt><trkpt lat="45.17480066415812" lon="8.265208329355334"><ele>236.2</ele><time>2026-03-28T16:06:27.993Z</time></trkpt><trkpt lat="45.17489479502724" lon="8.265063124365236"><ele>233.39999999999998</ele><time>2026-03-28T16:06:28.993Z</time></trkpt><trkpt lat="45.17497368920546" lon="8.264948676532082"><ele>230.6</ele><time>2026-03-28T16:06:29.993Z</time></trkpt><trkpt lat="45.1750520856219" lon="8.264858555103345"><ele>227.8</ele><time>2026-03-28T16:06:30.993Z</time></trkpt><trkpt lat="45.1751302573081" lon="8.264803743151989"><ele>225.0</ele><time>2026-03-28T16:06:31.993Z</time></trkpt><trkpt lat="45.17521702506244" lon="8.264791683878693"><ele>225.0</ele><time>2026-03-28T16:06:32.993Z</time></trkpt><trkpt lat="45.17530627669747" lon="8.264831948330059"><ele>225.0</ele><time>2026-03-28T16:06:33.993Z</time></trkpt><trkpt lat="45.175381951722066" lon="8.264921960334679"><ele>225.0</ele><time>2026-03-28T16:06:34.993Z</time></trkpt><trkpt lat="45.1754275557942" lon="8.265029673312366"><ele>225.0</ele><time>2026-03-28T16:06:35.993Z</time></trkpt><trkpt lat="45.1754315697267" lon="8.265151557134928"><ele>225.0</ele><time>2026-03-28T16:06:36.993Z</time></trkpt><trkpt lat="45.17540239316428" lon="8.26526463067087"><ele>225.0</ele><time>2026-03-28T16:06:37.993Z</time></trkpt><trkpt lat="45.17538853238926" lon="8.265390974467236"><ele>225.0</ele><time>2026-03-28T16:06:38.993Z</time></trkpt><trkpt lat="45.17543281876621" lon="8.265524747013878"><ele>225.0</ele><time>2026-03-28T16:06:39.993Z</time></trkpt><trkpt lat="45.175518177536695" lon="8.265631326290517"><ele>225.0</ele><time>2026-03-28T16:06:40.993Z</time></trkpt><trkpt lat="45.175600251113295" lon="8.265748457311476"><ele>225.0</ele><time>2026-03-28T16:06:41.993Z</time></trkpt><trkpt lat="45.17568448782895" lon="8.26588869321462"><ele>219.66666666666669</ele><time>2026-03-28T16:06:42.993Z</time></trkpt><trkpt lat="45.175763928591834" lon="8.26607338258621"><ele>214.33333333333334</ele><time>2026-03-28T16:06:43.993Z</time></trkpt><trkpt lat="45.17584708971942" lon="8.266269415639313"><ele>209.0</ele><time>2026-03-28T16:06:44.993Z</time></trkpt><trkpt lat="45.175920129259794" lon="8.266472744739717"><ele>207.0</ele><time>2026-03-28T16:06:45.993Z</time></trkpt><trkpt lat="45.17599085511634" lon="8.26668025608715"><ele>205.0</ele><time>2026-03-28T16:06:46.993Z</time></trkpt><trkpt lat="45.17606795738518" lon="8.266881660190453"><ele>203.0</ele><time>2026-03-28T16:06:47.993Z</time></trkpt><trkpt lat="45.176124014731315" lon="8.267093810572954"><ele>200.66666666666669</ele><time>2026-03-28T16:06:48.993Z</time></trkpt><trkpt lat="45.17615070446235" lon="8.267320835267864"><ele>198.33333333333331</ele><time>2026-03-28T16:06:49.993Z</time></trkpt><trkpt lat="45.17614203712144" lon="8.267547193397766"><ele>196.0</ele><time>2026-03-28T16:06:50.993Z</time></trkpt><trkpt lat="45.17612229164761" lon="8.267773349539357"><ele>196.0</ele><time>2026-03-28T16:06:51.993Z</time></trkpt><trkpt lat="45.17611177521238" lon="8.268016538752255"><ele>196.0</ele><time>2026-03-28T16:06:52.993Z</time></trkpt><trkpt lat="45.17610159708449" lon="8.26827202836114"><ele>196.0</ele><time>2026-03-28T16:06:53.993Z</time></trkpt><trkpt lat="45.17611193151621" lon="8.268522607762621"><ele>192.33333333333331</ele><time>2026-03-28T16:06:54.993Z</time></trkpt><trkpt lat="45.1761524452897" lon="8.268779849094734"><ele>188.66666666666666</ele><time>2026-03-28T16:06:55.993Z</time></trkpt><trkpt lat="45.17621764528099" lon="8.26903699022592"><ele>185.0</ele><time>2026-03-28T16:06:56.993Z</time></trkpt><trkpt lat="45.17627983811047" lon="8.269288283884357"><ele>183.33333333333331</ele><time>2026-03-28T16:06:57.993Z</time></trkpt><trkpt lat="45.176334792425905" lon="8.269530200695796"><ele>181.66666666666666</ele><time>2026-03-28T16:06:58.993Z</time></trkpt><trkpt lat="45.17638568207153" lon="8.269745818954993"><ele>180.0</ele><time>2026-03-28T16:06:59.993Z</time></trkpt><trkpt lat="45.176435435517924" lon="8.269948908348157"><ele>178.75</ele><time>2026-03-28T16:07:00.993Z</time></trkpt><trkpt lat="45.17649021692644" lon="8.270128440238041"><ele>177.5</ele><time>2026-03-28T16:07:01.993Z</time></trkpt><trkpt lat="45.17655796470084" lon="8.270268689502064"><ele>176.25</ele><time>2026-03-28T16:07:02.993Z</time></trkpt><trkpt lat="45.17663782994908" lon="8.270371621390165"><ele>175.0</ele><time>2026-03-28T16:07:03.993Z</time></trkpt><trkpt lat="45.17674221620521" lon="8.270416395471507"><ele>175.0</ele><time>2026-03-28T16:07:04.993Z</time></trkpt><trkpt lat="45.17685942233509" lon="8.270406826435975"><ele>175.0</ele><time>2026-03-28T16:07:05.993Z</time></trkpt><trkpt lat="45.17696494494658" lon="8.270364577388545"><ele>175.0</ele><time>2026-03-28T16:07:06.993Z</time></trkpt><trkpt lat="45.177048470940015" lon="8.270267692820228"><ele>175.0</ele><time>2026-03-28T16:07:07.993Z</time></trkpt><trkpt lat="45.17711911641141" lon="8.270128277769187"><ele>175.0</ele><time>2026-03-28T16:07:08.993Z</time></trkpt><trkpt lat="45.1771532160986" lon="8.269960058257846"><ele>175.0</ele><time>2026-03-28T16:07:09.993Z</time></trkpt><trkpt lat="45.177171344701755" lon="8.26976959780144"><ele>175.0</ele><time>2026-03-28T16:07:10.993Z</time></trkpt><trkpt lat="45.17718548307012" lon="8.269560349353943"><ele>175.0</ele><time>2026-03-28T16:07:11.993Z</time></trkpt><trkpt lat="45.17720554283868" lon="8.269340509546298"><ele>176.0</ele><time>2026-03-28T16:07:12.993Z</time></trkpt><trkpt lat="45.17725279003791" lon="8.26910699635429"><ele>177.0</ele><time>2026-03-28T16:07:13.993Z</time></trkpt><trkpt lat="45.17732830200382" lon="8.268879105628011"><ele>178.0</ele><time>2026-03-28T16:07:14.993Z</time></trkpt><trkpt lat="45.177424336027165" lon="8.2686692021877"><ele>175.33333333333334</ele><time>2026-03-28T16:07:15.993Z</time></trkpt><trkpt lat="45.177519964780124" lon="8.268476205706573"><ele>172.66666666666666</ele><time>2026-03-28T16:07:16.993Z</time></trkpt><trkpt lat="45.177601114497655" lon="8.268280194133608"><ele>170.0</ele><time>2026-03-28T16:07:17.993Z</time></trkpt><trkpt lat="45.177669019216076" lon="8.268097956174504"><ele>170.0</ele><time>2026-03-28T16:07:18.994Z</time></trkpt><trkpt lat="45.177743337171115" lon="8.26794485935239"><ele>170.0</ele><time>2026-03-28T16:07:19.994Z</time></trkpt><trkpt lat="45.17783730021988" lon="8.2678236806321"><ele>170.0</ele><time>2026-03-28T16:07:20.994Z</time></trkpt><trkpt lat="45.177951722071704" lon="8.267748151692592"><ele>170.0</ele><time>2026-03-28T16:07:21.994Z</time></trkpt><trkpt lat="45.1780671531701" lon="8.267730636543263"><ele>170.0</ele><time>2026-03-28T16:07:22.994Z</time></trkpt><trkpt lat="45.178184129149415" lon="8.267782155767394"><ele>170.0</ele><time>2026-03-28T16:07:23.994Z</time></trkpt><trkpt lat="45.17828534327608" lon="8.267870563972355"><ele>170.0</ele><time>2026-03-28T16:07:24.994Z</time></trkpt><trkpt lat="45.17834337646692" lon="8.268014988735263"><ele>170.0</ele><time>2026-03-28T16:07:25.994Z</time></trkpt><trkpt lat="45.17837963744101" lon="8.268196121721154"><ele>162.33333333333331</ele><time>2026-03-28T16:07:26.994Z</time></trkpt><trkpt lat="45.178383311248396" lon="8.268397654775061"><ele>154.66666666666666</ele><time>2026-03-28T16:07:27.994Z</time></trkpt><trkpt lat="45.17836665325381" lon="8.268611853518028"><ele>147.0</ele><time>2026-03-28T16:07:28.994Z</time></trkpt><trkpt lat="45.17833513574241" lon="8.268838851070141"><ele>146.33333333333334</ele><time>2026-03-28T16:07:29.994Z</time></trkpt><trkpt lat="45.178298796447606" lon="8.269073170622848"><ele>145.66666666666669</ele><time>2026-03-28T16:07:30.994Z</time></trkpt><trkpt lat="45.17826807937047" lon="8.269312011011738"><ele>145.0</ele><time>2026-03-28T16:07:31.994Z</time></trkpt><trkpt lat="45.17825277210028" lon="8.26954484881899"><ele>145.0</ele><time>2026-03-28T16:07:32.994Z</time></trkpt><trkpt lat="45.17825992171565" lon="8.26977325589208"><ele>145.0</ele><time>2026-03-28T16:07:33.994Z</time></trkpt><trkpt lat="45.17826722674748" lon="8.269998687899514"><ele>145.0</ele><time>2026-03-28T16:07:34.994Z</time></trkpt><trkpt lat="45.17826282234396" lon="8.270230407711434"><ele>144.0</ele><time>2026-03-28T16:07:35.994Z</time></trkpt><trkpt lat="45.17824239124126" lon="8.270467486453466"><ele>143.0</ele><time>2026-03-28T16:07:36.994Z</time></trkpt><trkpt lat="45.178198667496765" lon="8.270702792841954"><ele>142.0</ele><time>2026-03-28T16:07:37.994Z</time></trkpt><trkpt lat="45.17813803930984" lon="8.270933943528322"><ele>142.33333333333334</ele><time>2026-03-28T16:07:38.994Z</time></trkpt><trkpt lat="45.17806974633959" lon="8.271163128349295"><ele>142.66666666666666</ele><time>2026-03-28T16:07:39.994Z</time></trkpt><trkpt lat="45.177992262544706" lon="8.271384388108888"><ele>143.0</ele><time>2026-03-28T16:07:40.994Z</time></trkpt><trkpt lat="45.17790149969231" lon="8.271589865744476"><ele>143.0</ele><time>2026-03-28T16:07:41.994Z</time></trkpt><trkpt lat="45.177807871386165" lon="8.271796097946002"><ele>143.0</ele><time>2026-03-28T16:07:42.994Z</time></trkpt><trkpt lat="45.1776979152675" lon="8.2720029888908"><ele>143.0</ele><time>2026-03-28T16:07:43.994Z</time></trkpt><trkpt lat="45.17757935118294" lon="8.272212463667884"><ele>143.66666666666666</ele><time>2026-03-28T16:07:44.994Z</time></trkpt><trkpt lat="45.17746170454437" lon="8.272423776278792"><ele>144.33333333333334</ele><time>2026-03-28T16:07:45.994Z</time></trkpt><trkpt lat="45.177351750131386" lon="8.272647740883595"><ele>145.0</ele><time>2026-03-28T16:07:46.994Z</time></trkpt><trkpt lat="45.17724809642159" lon="8.272882985728856"><ele>142.33333333333334</ele><time>2026-03-28T16:07:47.994Z</time></trkpt><trkpt lat="45.17714758615704" lon="8.273132517066518"><ele>139.66666666666666</ele><time>2026-03-28T16:07:48.994Z</time></trkpt><trkpt lat="45.17704227001421" lon="8.273383938540082"><ele>137.0</ele><time>2026-03-28T16:07:49.994Z</time></trkpt><trkpt lat="45.17693726118857" lon="8.273637699646832"><ele>137.0</ele><time>2026-03-28T16:07:50.994Z</time></trkpt><trkpt lat="45.176833288786376" lon="8.27389641530072"><ele>137.0</ele><time>2026-03-28T16:07:51.994Z</time></trkpt><trkpt lat="45.1767272938916" lon="8.274163566841285"><ele>137.0</ele><time>2026-03-28T16:07:52.994Z</time></trkpt><trkpt lat="45.17661947284364" lon="8.2744255102666"><ele>138.66666666666666</ele><time>2026-03-28T16:07:53.994Z</time></trkpt><trkpt lat="45.17651106451645" lon="8.27469078470552"><ele>140.33333333333334</ele><time>2026-03-28T16:07:54.994Z</time></trkpt><trkpt lat="45.17640189670656" lon="8.274958716987618"><ele>142.0</ele><time>2026-03-28T16:07:55.994Z</time></trkpt><trkpt lat="45.176292514298936" lon="8.275223541711341"><ele>141.33333333333334</ele><time>2026-03-28T16:07:56.994Z</time></trkpt><trkpt lat="45.17618492012115" lon="8.275488123245161"><ele>140.66666666666666</ele><time>2026-03-28T16:07:57.993Z</time></trkpt><trkpt lat="45.17607445210415" lon="8.275753411951172"><ele>140.0</ele><time>2026-03-28T16:07:58.992Z</time></trkpt><trkpt lat="45.175960888261656" lon="8.276013961231568"><ele>140.0</ele><time>2026-03-28T16:07:59.992Z</time></trkpt><trkpt lat="45.1758523534354" lon="8.276275240999066"><ele>140.0</ele><time>2026-03-28T16:08:00.992Z</time></trkpt><trkpt lat="45.175741717395624" lon="8.276539046352841"><ele>140.0</ele><time>2026-03-28T16:08:01.992Z</time></trkpt><trkpt lat="45.17563269404931" lon="8.276806038670385"><ele>140.33333333333331</ele><time>2026-03-28T16:08:02.992Z</time></trkpt><trkpt lat="45.1755235943974" lon="8.277066053872868"><ele>140.66666666666666</ele><time>2026-03-28T16:08:03.992Z</time></trkpt><trkpt lat="45.17541818097704" lon="8.277322878489485"><ele>141.0</ele><time>2026-03-28T16:08:04.993Z</time></trkpt><trkpt lat="45.17531297473819" lon="8.277580232386784"><ele>141.0</ele><time>2026-03-28T16:08:05.993Z</time></trkpt><trkpt lat="45.17521415955237" lon="8.277846547724298"><ele>141.0</ele><time>2026-03-28T16:08:06.993Z</time></trkpt><trkpt lat="45.17512778062435" lon="8.278119736555716"><ele>141.0</ele><time>2026-03-28T16:08:07.992Z</time></trkpt><trkpt lat="45.17505208159061" lon="8.278402312146609"><ele>139.0</ele><time>2026-03-28T16:08:08.992Z</time></trkpt><trkpt lat="45.17498708366435" lon="8.278700047145247"><ele>137.0</ele><time>2026-03-28T16:08:09.992Z</time></trkpt><trkpt lat="45.17492921755506" lon="8.278998919767377"><ele>135.0</ele><time>2026-03-28T16:08:10.992Z</time></trkpt><trkpt lat="45.17488014256138" lon="8.27930003071376"><ele>137.66666666666666</ele><time>2026-03-28T16:08:11.992Z</time></trkpt><trkpt lat="45.174839030636456" lon="8.279605423768574"><ele>140.33333333333331</ele><time>2026-03-28T16:08:12.992Z</time></trkpt><trkpt lat="45.17480028702093" lon="8.279916369717329"><ele>143.0</ele><time>2026-03-28T16:08:13.992Z</time></trkpt><trkpt lat="45.17476004276981" lon="8.280231996074193"><ele>143.0</ele><time>2026-03-28T16:08:14.992Z</time></trkpt><trkpt lat="45.17471585221506" lon="8.280542999221053"><ele>143.0</ele><time>2026-03-28T16:08:15.992Z</time></trkpt><trkpt lat="45.17465590460963" lon="8.280849618457449"><ele>143.0</ele><time>2026-03-28T16:08:16.992Z</time></trkpt><trkpt lat="45.17457486325879" lon="8.281146914553439"><ele>139.5</ele><time>2026-03-28T16:08:17.992Z</time></trkpt><trkpt lat="45.17447953786087" lon="8.281442316210217"><ele>136.0</ele><time>2026-03-28T16:08:18.992Z</time></trkpt><trkpt lat="45.17437785327507" lon="8.281730350849392"><ele>136.0</ele><time>2026-03-28T16:08:19.992Z</time></trkpt><trkpt lat="45.174280912706124" lon="8.282026370398073"><ele>136.0</ele><time>2026-03-28T16:08:20.992Z</time></trkpt><trkpt lat="45.17418822231688" lon="8.28232204523854"><ele>134.0</ele><time>2026-03-28T16:08:21.992Z</time></trkpt><trkpt lat="45.17409948074232" lon="8.28261823609712"><ele>132.0</ele><time>2026-03-28T16:08:22.992Z</time></trkpt><trkpt lat="45.174004623962" lon="8.282910936056288"><ele>135.0</ele><time>2026-03-28T16:08:23.992Z</time></trkpt><trkpt lat="45.17390338813698" lon="8.283197023963233"><ele>138.0</ele><time>2026-03-28T16:08:24.992Z</time></trkpt><trkpt lat="45.173790158598756" lon="8.2834724875823"><ele>138.0</ele><time>2026-03-28T16:08:25.992Z</time></trkpt><trkpt lat="45.17367354730265" lon="8.283743241434063"><ele>138.0</ele><time>2026-03-28T16:08:26.992Z</time></trkpt><trkpt lat="45.17356403869511" lon="8.284004262169027"><ele>138.0</ele><time>2026-03-28T16:08:27.992Z</time></trkpt><trkpt lat="45.17345724230692" lon="8.284253933742013"><ele>138.33333333333334</ele><time>2026-03-28T16:08:28.992Z</time></trkpt><trkpt lat="45.17335612431348" lon="8.284498446807023"><ele>138.66666666666669</ele><time>2026-03-28T16:08:29.992Z</time></trkpt><trkpt lat="45.17325958493984" lon="8.2847413238384"><ele>139.0</ele><time>2026-03-28T16:08:30.992Z</time></trkpt><trkpt lat="45.173161229069535" lon="8.28498510230238"><ele>139.0</ele><time>2026-03-28T16:08:31.992Z</time></trkpt><trkpt lat="45.173063727301894" lon="8.285222058534412"><ele>139.0</ele><time>2026-03-28T16:08:32.992Z</time></trkpt><trkpt lat="45.17296829427662" lon="8.285447733814843"><ele>139.0</ele><time>2026-03-28T16:08:33.992Z</time></trkpt><trkpt lat="45.172873812358425" lon="8.285673545711587"><ele>137.66666666666669</ele><time>2026-03-28T16:08:34.992Z</time></trkpt><trkpt lat="45.17277951927293" lon="8.285892015255312"><ele>136.33333333333334</ele><time>2026-03-28T16:08:35.992Z</time></trkpt><trkpt lat="45.172695089505936" lon="8.286101860600793"><ele>135.0</ele><time>2026-03-28T16:08:36.992Z</time></trkpt><trkpt lat="45.172627934295626" lon="8.286310991445314"><ele>134.33333333333334</ele><time>2026-03-28T16:08:37.992Z</time></trkpt><trkpt lat="45.17258545651918" lon="8.286523776887348"><ele>133.66666666666669</ele><time>2026-03-28T16:08:38.992Z</time></trkpt><trkpt lat="45.172573454264594" lon="8.28673235889586"><ele>133.0</ele><time>2026-03-28T16:08:39.992Z</time></trkpt><trkpt lat="45.17259230353259" lon="8.286943834614322"><ele>133.0</ele><time>2026-03-28T16:08:40.992Z</time></trkpt><trkpt lat="45.172650096660526" lon="8.287144997748644"><ele>133.0</ele><time>2026-03-28T16:08:41.992Z</time></trkpt><trkpt lat="45.17272706744473" lon="8.287324079490276"><ele>133.0</ele><time>2026-03-28T16:08:42.992Z</time></trkpt><trkpt lat="45.172817177951266" lon="8.287471763236843"><ele>133.0</ele><time>2026-03-28T16:08:43.992Z</time></trkpt><trkpt lat="45.1729230266168" lon="8.287599476255581"><ele>132.66666666666669</ele><time>2026-03-28T16:08:44.992Z</time></trkpt><trkpt lat="45.17305692014824" lon="8.287710368506563"><ele>132.33333333333334</ele><time>2026-03-28T16:08:45.992Z</time></trkpt><trkpt lat="45.17320357413909" lon="8.287828974338105"><ele>132.0</ele><time>2026-03-28T16:08:46.992Z</time></trkpt><trkpt lat="45.17334689562544" lon="8.287950658705794"><ele>131.25</ele><time>2026-03-28T16:08:47.992Z</time></trkpt><trkpt lat="45.173481173483346" lon="8.288072401689384"><ele>130.5</ele><time>2026-03-28T16:08:48.992Z</time></trkpt><trkpt lat="45.17360425000286" lon="8.28818660322018"><ele>129.75</ele><time>2026-03-28T16:08:49.992Z</time></trkpt><trkpt lat="45.173720332010625" lon="8.288296844138351"><ele>129.0</ele><time>2026-03-28T16:08:50.992Z</time></trkpt><trkpt lat="45.17382540222448" lon="8.288412026624238"><ele>129.0</ele><time>2026-03-28T16:08:51.992Z</time></trkpt><trkpt lat="45.17389366271804" lon="8.288546742429315"><ele>129.0</ele><time>2026-03-28T16:08:52.992Z</time></trkpt><trkpt lat="45.17393255564414" lon="8.28866715608132"><ele>129.0</ele><time>2026-03-28T16:08:53.992Z</time></trkpt><trkpt lat="45.17393176250427" lon="8.288798004172305"><ele>129.0</ele><time>2026-03-28T16:08:54.992Z</time></trkpt><trkpt lat="45.173907359730094" lon="8.288909485203797"><ele>129.0</ele><time>2026-03-28T16:08:55.992Z</time></trkpt><trkpt lat="45.17387035083301" lon="8.28901634471637"><ele>129.66666666666666</ele><time>2026-03-28T16:08:56.992Z</time></trkpt><trkpt lat="45.17383347664383" lon="8.289120443696119"><ele>130.33333333333334</ele><time>2026-03-28T16:08:57.992Z</time></trkpt><trkpt lat="45.17380127837516" lon="8.289228973107706"><ele>131.0</ele><time>2026-03-28T16:08:58.992Z</time></trkpt><trkpt lat="45.17376670764905" lon="8.28934788958883"><ele>131.66666666666669</ele><time>2026-03-28T16:08:59.993Z</time></trkpt><trkpt lat="45.173733690399615" lon="8.289456057612862"><ele>132.33333333333334</ele><time>2026-03-28T16:09:00.993Z</time></trkpt><trkpt lat="45.17370308217588" lon="8.289542839372716"><ele>133.0</ele><time>2026-03-28T16:09:01.993Z</time></trkpt><trkpt lat="45.173669988619295" lon="8.28966254680942"><ele>133.0</ele><time>2026-03-28T16:09:03.993Z</time></trkpt><trkpt lat="45.17368414885211" lon="8.289758215692594"><ele>133.0</ele><time>2026-03-28T16:09:05.993Z</time></trkpt><trkpt lat="45.17377039015709" lon="8.289905193576578"><ele>133.0</ele><time>2026-03-28T16:09:07.993Z</time></trkpt><trkpt lat="45.1738497268299" lon="8.289989118955615"><ele>133.0</ele><time>2026-03-28T16:09:08.993Z</time></trkpt><trkpt lat="45.17393061054499" lon="8.290092552722157"><ele>133.0</ele><time>2026-03-28T16:09:09.993Z</time></trkpt><trkpt lat="45.1740154852796" lon="8.290216280374558"><ele>133.0</ele><time>2026-03-28T16:09:10.993Z</time></trkpt><trkpt lat="45.17410166065925" lon="8.290348905977257"><ele>133.0</ele><time>2026-03-28T16:09:11.993Z</time></trkpt><trkpt lat="45.1741813963192" lon="8.290492058384428"><ele>133.0</ele><time>2026-03-28T16:09:12.993Z</time></trkpt><trkpt lat="45.17426877165421" lon="8.29065619353517"><ele>133.0</ele><time>2026-03-28T16:09:13.993Z</time></trkpt><trkpt lat="45.17436371975184" lon="8.290829289065842"><ele>132.33333333333334</ele><time>2026-03-28T16:09:14.993Z</time></trkpt><trkpt lat="45.174458598924474" lon="8.291004989357269"><ele>131.66666666666666</ele><time>2026-03-28T16:09:15.993Z</time></trkpt><trkpt lat="45.174559344064605" lon="8.291189406645652"><ele>131.0</ele><time>2026-03-28T16:09:16.993Z</time></trkpt><trkpt lat="45.17466471058243" lon="8.291385304090245"><ele>129.0</ele><time>2026-03-28T16:09:17.993Z</time></trkpt><trkpt lat="45.174777123300714" lon="8.291586175050622"><ele>127.0</ele><time>2026-03-28T16:09:18.993Z</time></trkpt><trkpt lat="45.1748905716677" lon="8.291787528764477"><ele>125.0</ele><time>2026-03-28T16:09:19.993Z</time></trkpt><trkpt lat="45.17500280000326" lon="8.291996220455312"><ele>124.66666666666666</ele><time>2026-03-28T16:09:20.993Z</time></trkpt><trkpt lat="45.175112024789044" lon="8.292202369110534"><ele>124.33333333333334</ele><time>2026-03-28T16:09:21.993Z</time></trkpt><trkpt lat="45.175216288496344" lon="8.292394830863547"><ele>124.0</ele><time>2026-03-28T16:09:22.993Z</time></trkpt><trkpt lat="45.175318376831676" lon="8.292581181692542"><ele>124.0</ele><time>2026-03-28T16:09:23.993Z</time></trkpt><trkpt lat="45.175419272939024" lon="8.292764331176153"><ele>124.0</ele><time>2026-03-28T16:09:24.993Z</time></trkpt><trkpt lat="45.17552179742324" lon="8.29295214250284"><ele>124.0</ele><time>2026-03-28T16:09:25.993Z</time></trkpt><trkpt lat="45.17562635517698" lon="8.293142208278525"><ele>125.33333333333334</ele><time>2026-03-28T16:09:26.993Z</time></trkpt><trkpt lat="45.17573272831762" lon="8.293335930058102"><ele>126.66666666666666</ele><time>2026-03-28T16:09:27.993Z</time></trkpt><trkpt lat="45.17584288624139" lon="8.293520728477617"><ele>128.0</ele><time>2026-03-28T16:09:28.993Z</time></trkpt><trkpt lat="45.175970243361796" lon="8.293684938432614"><ele>128.0</ele><time>2026-03-28T16:09:29.993Z</time></trkpt><trkpt lat="45.17612105754855" lon="8.29382524751945"><ele>128.0</ele><time>2026-03-28T16:09:30.993Z</time></trkpt><trkpt lat="45.17629172635658" lon="8.293935009399663"><ele>128.0</ele><time>2026-03-28T16:09:31.993Z</time></trkpt><trkpt lat="45.176472315840314" lon="8.294021571995502"><ele>128.33333333333331</ele><time>2026-03-28T16:09:32.993Z</time></trkpt><trkpt lat="45.17665867272485" lon="8.294104587277424"><ele>128.66666666666666</ele><time>2026-03-28T16:09:33.993Z</time></trkpt><trkpt lat="45.17684728416739" lon="8.294193668577975"><ele>129.0</ele><time>2026-03-28T16:09:34.993Z</time></trkpt><trkpt lat="45.17702888855876" lon="8.29428359118386"><ele>129.0</ele><time>2026-03-28T16:09:35.993Z</time></trkpt><trkpt lat="45.17720414384113" lon="8.294372959836519"><ele>129.0</ele><time>2026-03-28T16:09:36.993Z</time></trkpt><trkpt lat="45.177382017585046" lon="8.2944572557904"><ele>129.0</ele><time>2026-03-28T16:09:37.993Z</time></trkpt><trkpt lat="45.177560250844024" lon="8.294538836352844"><ele>129.0</ele><time>2026-03-28T16:09:38.993Z</time></trkpt><trkpt lat="45.17773349130478" lon="8.294622211360506"><ele>129.0</ele><time>2026-03-28T16:09:39.993Z</time></trkpt><trkpt lat="45.177905621725046" lon="8.29470352280815"><ele>129.0</ele><time>2026-03-28T16:09:40.993Z</time></trkpt><trkpt lat="45.178080056572206" lon="8.294784953924154"><ele>128.33333333333334</ele><time>2026-03-28T16:09:41.993Z</time></trkpt><trkpt lat="45.17825600975586" lon="8.294867445562858"><ele>127.66666666666667</ele><time>2026-03-28T16:09:42.993Z</time></trkpt><trkpt lat="45.17843473891065" lon="8.29494911577818"><ele>127.0</ele><time>2026-03-28T16:09:43.993Z</time></trkpt><trkpt lat="45.17861003952272" lon="8.295030667692263"><ele>127.0</ele><time>2026-03-28T16:09:44.993Z</time></trkpt><trkpt lat="45.17878473399196" lon="8.295112842286667"><ele>127.0</ele><time>2026-03-28T16:09:45.993Z</time></trkpt><trkpt lat="45.178957003563085" lon="8.295198526991626"><ele>127.0</ele><time>2026-03-28T16:09:46.993Z</time></trkpt><trkpt lat="45.17912514008827" lon="8.29528140736025"><ele>127.0</ele><time>2026-03-28T16:09:47.993Z</time></trkpt><trkpt lat="45.17929166373809" lon="8.29535973334251"><ele>127.0</ele><time>2026-03-28T16:09:48.993Z</time></trkpt><trkpt lat="45.17946040438574" lon="8.29542930857522"><ele>127.0</ele><time>2026-03-28T16:09:49.993Z</time></trkpt><trkpt lat="45.17962863927911" lon="8.295489071339524"><ele>127.0</ele><time>2026-03-28T16:09:50.993Z</time></trkpt><trkpt lat="45.17980119213256" lon="8.295529767845755"><ele>127.0</ele><time>2026-03-28T16:09:51.993Z</time></trkpt><trkpt lat="45.179974974366274" lon="8.295557905601921"><ele>127.0</ele><time>2026-03-28T16:09:52.993Z</time></trkpt><trkpt lat="45.18015067340112" lon="8.295574048298443"><ele>127.0</ele><time>2026-03-28T16:09:53.993Z</time></trkpt><trkpt lat="45.18032440747545" lon="8.295582625266249"><ele>127.0</ele><time>2026-03-28T16:09:54.993Z</time></trkpt><trkpt lat="45.18049873898534" lon="8.295589949077792"><ele>127.0</ele><time>2026-03-28T16:09:55.993Z</time></trkpt><trkpt lat="45.180676793626006" lon="8.295599767362807"><ele>128.0</ele><time>2026-03-28T16:09:56.993Z</time></trkpt><trkpt lat="45.18085583983217" lon="8.295609457786021"><ele>129.0</ele><time>2026-03-28T16:09:57.993Z</time></trkpt><trkpt lat="45.181035869007935" lon="8.29562008147894"><ele>130.0</ele><time>2026-03-28T16:09:58.993Z</time></trkpt><trkpt lat="45.18121726750577" lon="8.295630434713434"><ele>130.0</ele><time>2026-03-28T16:09:59.993Z</time></trkpt><trkpt lat="45.181400769086885" lon="8.29563853146145"><ele>130.0</ele><time>2026-03-28T16:10:00.993Z</time></trkpt><trkpt lat="45.181586590201924" lon="8.295649444726376"><ele>130.0</ele><time>2026-03-28T16:10:01.993Z</time></trkpt><trkpt lat="45.18177431877439" lon="8.295659640626083"><ele>129.0</ele><time>2026-03-28T16:10:02.993Z</time></trkpt><trkpt lat="45.181964840196095" lon="8.29566914537632"><ele>128.0</ele><time>2026-03-28T16:10:03.992Z</time></trkpt><trkpt lat="45.182154403535264" lon="8.295678194405554"><ele>127.0</ele><time>2026-03-28T16:10:04.992Z</time></trkpt><trkpt lat="45.18234442395019" lon="8.295688083754762"><ele>126.66666666666667</ele><time>2026-03-28T16:10:05.992Z</time></trkpt><trkpt lat="45.182530155028104" lon="8.295696048623727"><ele>126.33333333333334</ele><time>2026-03-28T16:10:06.992Z</time></trkpt><trkpt lat="45.182710636500666" lon="8.295702789832307"><ele>126.0</ele><time>2026-03-28T16:10:07.992Z</time></trkpt><trkpt lat="45.18288434332041" lon="8.295715098710742"><ele>126.0</ele><time>2026-03-28T16:10:08.992Z</time></trkpt><trkpt lat="45.183046461019" lon="8.295728413245497"><ele>126.0</ele><time>2026-03-28T16:10:09.992Z</time></trkpt><trkpt lat="45.18320569687262" lon="8.29573974298653"><ele>126.0</ele><time>2026-03-28T16:10:10.992Z</time></trkpt><trkpt lat="45.1833633709071" lon="8.295748636993492"><ele>126.33333333333334</ele><time>2026-03-28T16:10:11.992Z</time></trkpt><trkpt lat="45.18352639473205" lon="8.295762329583988"><ele>126.66666666666667</ele><time>2026-03-28T16:10:12.992Z</time></trkpt><trkpt lat="45.1836900362686" lon="8.295771636560717"><ele>127.0</ele><time>2026-03-28T16:10:13.992Z</time></trkpt><trkpt lat="45.18385733455371" lon="8.295780264918056"><ele>128.33333333333334</ele><time>2026-03-28T16:10:14.992Z</time></trkpt><trkpt lat="45.18401877990726" lon="8.295788282831325"><ele>129.66666666666666</ele><time>2026-03-28T16:10:15.992Z</time></trkpt><trkpt lat="45.184180057521935" lon="8.295793669107717"><ele>131.0</ele><time>2026-03-28T16:10:16.992Z</time></trkpt><trkpt lat="45.18433985961148" lon="8.29580302982523"><ele>131.0</ele><time>2026-03-28T16:10:17.992Z</time></trkpt><trkpt lat="45.18450075791782" lon="8.295815663728458"><ele>131.0</ele><time>2026-03-28T16:10:18.993Z</time></trkpt><trkpt lat="45.184658134814086" lon="8.295830896792062"><ele>131.0</ele><time>2026-03-28T16:10:19.993Z</time></trkpt><trkpt lat="45.184815939363254" lon="8.2958491241186"><ele>131.0</ele><time>2026-03-28T16:10:20.993Z</time></trkpt><trkpt lat="45.18497400228391" lon="8.295857899624714"><ele>131.0</ele><time>2026-03-28T16:10:21.993Z</time></trkpt><trkpt lat="45.18513015003091" lon="8.29586224541352"><ele>131.0</ele><time>2026-03-28T16:10:22.993Z</time></trkpt><trkpt lat="45.185291345738364" lon="8.295868105384207"><ele>131.0</ele><time>2026-03-28T16:10:23.993Z</time></trkpt><trkpt lat="45.18545176074414" lon="8.295873870793663"><ele>131.0</ele><time>2026-03-28T16:10:24.993Z</time></trkpt><trkpt lat="45.18560868913422" lon="8.2958816177471"><ele>131.0</ele><time>2026-03-28T16:10:25.993Z</time></trkpt><trkpt lat="45.18576746273643" lon="8.295888672822455"><ele>130.75</ele><time>2026-03-28T16:10:26.993Z</time></trkpt><trkpt lat="45.18592355109481" lon="8.295900630957531"><ele>130.5</ele><time>2026-03-28T16:10:27.993Z</time></trkpt><trkpt lat="45.18607133513257" lon="8.295909956080383"><ele>130.25</ele><time>2026-03-28T16:10:28.993Z</time></trkpt><trkpt lat="45.186214194210635" lon="8.295918066573696"><ele>130.0</ele><time>2026-03-28T16:10:29.993Z</time></trkpt><trkpt lat="45.18635064512992" lon="8.295928765051942"><ele>130.0</ele><time>2026-03-28T16:10:30.993Z</time></trkpt><trkpt lat="45.1864791411678" lon="8.29593832943606"><ele>130.0</ele><time>2026-03-28T16:10:31.993Z</time></trkpt><trkpt lat="45.186602079024546" lon="8.29594436733316"><ele>130.0</ele><time>2026-03-28T16:10:32.993Z</time></trkpt><trkpt lat="45.18672007760339" lon="8.295954136233627"><ele>130.0</ele><time>2026-03-28T16:10:33.993Z</time></trkpt><trkpt lat="45.18683023468534" lon="8.29596695123926"><ele>130.16666666666669</ele><time>2026-03-28T16:10:34.993Z</time></trkpt><trkpt lat="45.18693271010775" lon="8.295972626676841"><ele>130.33333333333334</ele><time>2026-03-28T16:10:35.993Z</time></trkpt><trkpt lat="45.18702472956255" lon="8.295979490463335"><ele>130.5</ele><time>2026-03-28T16:10:36.993Z</time></trkpt><trkpt lat="45.187110294918924" lon="8.295985729869525"><ele>130.66666666666666</ele><time>2026-03-28T16:10:37.993Z</time></trkpt><trkpt lat="45.18718138456775" lon="8.295998739028592"><ele>130.83333333333331</ele><time>2026-03-28T16:10:38.993Z</time></trkpt><trkpt lat="45.187245345902596" lon="8.29602284011677"><ele>131.0</ele><time>2026-03-28T16:10:39.993Z</time></trkpt><trkpt lat="45.18731433517105" lon="8.296064619775835"><ele>131.2</ele><time>2026-03-28T16:10:40.993Z</time></trkpt><trkpt lat="45.18739298752018" lon="8.296085488405641"><ele>131.39999999999998</ele><time>2026-03-28T16:10:41.993Z</time></trkpt><trkpt lat="45.18747653838693" lon="8.296074478456342"><ele>131.6</ele><time>2026-03-28T16:10:42.993Z</time></trkpt><trkpt lat="45.18757626879782" lon="8.296034088804069"><ele>131.79999999999998</ele><time>2026-03-28T16:10:43.993Z</time></trkpt><trkpt lat="45.1876836588886" lon="8.296012584551123"><ele>132.0</ele><time>2026-03-28T16:10:44.993Z</time></trkpt><trkpt lat="45.187799593323064" lon="8.29601487573846"><ele>132.0</ele><time>2026-03-28T16:10:45.993Z</time></trkpt><trkpt lat="45.187918734179505" lon="8.296023617595585"><ele>132.0</ele><time>2026-03-28T16:10:46.993Z</time></trkpt><trkpt lat="45.18803867840474" lon="8.29603625672348"><ele>132.0</ele><time>2026-03-28T16:10:47.993Z</time></trkpt><trkpt lat="45.18816317965269" lon="8.296045032207209"><ele>132.0</ele><time>2026-03-28T16:10:48.993Z</time></trkpt><trkpt lat="45.18828458454116" lon="8.29605542542788"><ele>131.75</ele><time>2026-03-28T16:10:49.993Z</time></trkpt><trkpt lat="45.188407897519376" lon="8.296064253971203"><ele>131.5</ele><time>2026-03-28T16:10:50.993Z</time></trkpt><trkpt lat="45.18853007521702" lon="8.296071681383733"><ele>131.25</ele><time>2026-03-28T16:10:51.993Z</time></trkpt><trkpt lat="45.18865111104435" lon="8.296078767831986"><ele>131.0</ele><time>2026-03-28T16:10:52.993Z</time></trkpt><trkpt lat="45.18877337403086" lon="8.296088258672794"><ele>131.0</ele><time>2026-03-28T16:10:53.993Z</time></trkpt><trkpt lat="45.18889763170242" lon="8.296094352574052"><ele>131.0</ele><time>2026-03-28T16:10:54.993Z</time></trkpt><trkpt lat="45.18901561668055" lon="8.296099004277359"><ele>131.0</ele><time>2026-03-28T16:10:55.993Z</time></trkpt><trkpt lat="45.18912316176621" lon="8.296106103888642"><ele>131.0</ele><time>2026-03-28T16:10:56.993Z</time></trkpt><trkpt lat="45.18922477498191" lon="8.296110390203694"><ele>131.0</ele><time>2026-03-28T16:10:57.993Z</time></trkpt><trkpt lat="45.189317943467515" lon="8.296116952016865"><ele>131.0</ele><time>2026-03-28T16:10:58.993Z</time></trkpt><trkpt lat="45.18939642968607" lon="8.296124878632106"><ele>131.0</ele><time>2026-03-28T16:10:59.993Z</time></trkpt><trkpt lat="45.18946102320381" lon="8.296128914892247"><ele>131.0</ele><time>2026-03-28T16:11:00.993Z</time></trkpt><trkpt lat="45.18956630185261" lon="8.296128466296283"><ele>131.0</ele><time>2026-03-28T16:11:02.993Z</time></trkpt><trkpt lat="45.18966389120258" lon="8.296126333836858"><ele>131.0</ele><time>2026-03-28T16:11:04.993Z</time></trkpt><trkpt lat="45.18973273251958" lon="8.296126069040012"><ele>131.0</ele><time>2026-03-28T16:11:05.993Z</time></trkpt><trkpt lat="45.189812695127884" lon="8.2961290073809"><ele>131.0</ele><time>2026-03-28T16:11:06.993Z</time></trkpt><trkpt lat="45.18990985189958" lon="8.296129173904486"><ele>131.0</ele><time>2026-03-28T16:11:07.993Z</time></trkpt><trkpt lat="45.190016098200225" lon="8.296138004113375"><ele>131.0</ele><time>2026-03-28T16:11:08.993Z</time></trkpt><trkpt lat="45.19012745159559" lon="8.29615776227001"><ele>131.0</ele><time>2026-03-28T16:11:09.993Z</time></trkpt><trkpt lat="45.19022890848999" lon="8.296169019394119"><ele>131.2</ele><time>2026-03-28T16:11:10.993Z</time></trkpt><trkpt lat="45.19032463240476" lon="8.296179873945148"><ele>131.39999999999998</ele><time>2026-03-28T16:11:11.993Z</time></trkpt><trkpt lat="45.19040303864593" lon="8.296190800080876"><ele>131.6</ele><time>2026-03-28T16:11:12.993Z</time></trkpt><trkpt lat="45.19045915208428" lon="8.29624856787205"><ele>131.79999999999998</ele><time>2026-03-28T16:11:14.993Z</time></trkpt><trkpt lat="45.1904848100594" lon="8.296426754867689"><ele>132.0</ele><time>2026-03-28T16:11:16.993Z</time></trkpt><trkpt lat="45.19044444042026" lon="8.29655676196627"><ele>132.0</ele><time>2026-03-28T16:11:17.993Z</time></trkpt><trkpt lat="45.190404882663195" lon="8.296708146209404"><ele>132.0</ele><time>2026-03-28T16:11:18.993Z</time></trkpt><trkpt lat="45.19037314442573" lon="8.296873131201872"><ele>132.0</ele><time>2026-03-28T16:11:19.993Z</time></trkpt><trkpt lat="45.190343968268344" lon="8.297041226933153"><ele>132.0</ele><time>2026-03-28T16:11:20.993Z</time></trkpt><trkpt lat="45.19031381795414" lon="8.297214590723138"><ele>131.75</ele><time>2026-03-28T16:11:21.993Z</time></trkpt><trkpt lat="45.19028220293916" lon="8.297399519303937"><ele>131.5</ele><time>2026-03-28T16:11:22.993Z</time></trkpt><trkpt lat="45.19025648300979" lon="8.29759107623722"><ele>131.25</ele><time>2026-03-28T16:11:23.993Z</time></trkpt><trkpt lat="45.190222480702616" lon="8.297768942697315"><ele>131.0</ele><time>2026-03-28T16:11:24.993Z</time></trkpt><trkpt lat="45.19019365531567" lon="8.297944384772771"><ele>131.2</ele><time>2026-03-28T16:11:25.993Z</time></trkpt><trkpt lat="45.19021101733599" lon="8.298127690882142"><ele>131.39999999999998</ele><time>2026-03-28T16:11:26.993Z</time></trkpt><trkpt lat="45.19021253576357" lon="8.298288632622"><ele>131.6</ele><time>2026-03-28T16:11:27.993Z</time></trkpt><trkpt lat="45.1901768501964" lon="8.29841508070921"><ele>131.79999999999998</ele><time>2026-03-28T16:11:28.993Z</time></trkpt><trkpt lat="45.19014823631525" lon="8.298532133725253"><ele>132.0</ele><time>2026-03-28T16:11:29.993Z</time></trkpt><trkpt lat="45.190140788981566" lon="8.298622842776261"><ele>132.0</ele><time>2026-03-28T16:11:30.993Z</time></trkpt><trkpt lat="45.19019902227978" lon="8.298751227280212"><ele>132.0</ele><time>2026-03-28T16:11:32.993Z</time></trkpt><trkpt lat="45.190263385147695" lon="8.298795707033344"><ele>132.0</ele><time>2026-03-28T16:11:33.993Z</time></trkpt><trkpt lat="45.19035300551289" lon="8.298817463655675"><ele>132.0</ele><time>2026-03-28T16:11:34.993Z</time></trkpt><trkpt lat="45.19045561602442" lon="8.298838500982063"><ele>132.0</ele><time>2026-03-28T16:11:35.993Z</time></trkpt><trkpt lat="45.19056652222694" lon="8.298863938152458"><ele>132.0</ele><time>2026-03-28T16:11:36.993Z</time></trkpt><trkpt lat="45.190679163628715" lon="8.2988969114239"><ele>132.0</ele><time>2026-03-28T16:11:37.993Z</time></trkpt><trkpt lat="45.19079332586567" lon="8.298937196140852"><ele>132.0</ele><time>2026-03-28T16:11:38.993Z</time></trkpt><trkpt lat="45.19091582745265" lon="8.298972595642377"><ele>132.0</ele><time>2026-03-28T16:11:39.993Z</time></trkpt><trkpt lat="45.1910424428429" lon="8.299008707310785"><ele>132.0</ele><time>2026-03-28T16:11:40.993Z</time></trkpt><trkpt lat="45.19116621771603" lon="8.299044821692302"><ele>132.0</ele><time>2026-03-28T16:11:41.993Z</time></trkpt><trkpt lat="45.19128968533717" lon="8.299082856122048"><ele>132.0</ele><time>2026-03-28T16:11:42.993Z</time></trkpt><trkpt lat="45.19141088019286" lon="8.299116804590819"><ele>132.0</ele><time>2026-03-28T16:11:43.993Z</time></trkpt><trkpt lat="45.191534173498596" lon="8.299147144149643"><ele>132.0</ele><time>2026-03-28T16:11:44.993Z</time></trkpt><trkpt lat="45.19166269797735" lon="8.299180849038171"><ele>132.0</ele><time>2026-03-28T16:11:45.994Z</time></trkpt><trkpt lat="45.19179321374723" lon="8.299218146118724"><ele>132.0</ele><time>2026-03-28T16:11:46.994Z</time></trkpt><trkpt lat="45.191925058589504" lon="8.299255367891478"><ele>132.0</ele><time>2026-03-28T16:11:47.994Z</time></trkpt><trkpt lat="45.192055668644535" lon="8.299301159975915"><ele>132.0</ele><time>2026-03-28T16:11:48.994Z</time></trkpt><trkpt lat="45.192186287889605" lon="8.299353166184924"><ele>132.0</ele><time>2026-03-28T16:11:49.994Z</time></trkpt><trkpt lat="45.19232216563915" lon="8.299403287474396"><ele>132.0</ele><time>2026-03-28T16:11:50.994Z</time></trkpt><trkpt lat="45.19245651248131" lon="8.299455440895361"><ele>132.0</ele><time>2026-03-28T16:11:51.994Z</time></trkpt><trkpt lat="45.192588508614584" lon="8.299501687487817"><ele>132.0</ele><time>2026-03-28T16:11:52.994Z</time></trkpt><trkpt lat="45.19271723999276" lon="8.2995381893286"><ele>132.0</ele><time>2026-03-28T16:11:53.994Z</time></trkpt><trkpt lat="45.192844698278854" lon="8.299579324646247"><ele>132.0</ele><time>2026-03-28T16:11:54.994Z</time></trkpt><trkpt lat="45.19297252549" lon="8.299614228617449"><ele>132.0</ele><time>2026-03-28T16:11:55.994Z</time></trkpt><trkpt lat="45.19309469298809" lon="8.299653176302742"><ele>132.0</ele><time>2026-03-28T16:11:56.994Z</time></trkpt><trkpt lat="45.193217905220095" lon="8.299691121466081"><ele>132.0</ele><time>2026-03-28T16:11:57.994Z</time></trkpt><trkpt lat="45.19333971357247" lon="8.299718445064986"><ele>132.0</ele><time>2026-03-28T16:11:58.994Z</time></trkpt><trkpt lat="45.19345475480501" lon="8.299751819358578"><ele>132.0</ele><time>2026-03-28T16:11:59.994Z</time></trkpt><trkpt lat="45.19355632407543" lon="8.299786468401743"><ele>132.0</ele><time>2026-03-28T16:12:00.994Z</time></trkpt><trkpt lat="45.193648403665584" lon="8.299809094944312"><ele>132.0</ele><time>2026-03-28T16:12:01.994Z</time></trkpt><trkpt lat="45.19372577159274" lon="8.299833583908708"><ele>132.0</ele><time>2026-03-28T16:12:02.994Z</time></trkpt><trkpt lat="45.19379156826631" lon="8.29988171545013"><ele>132.0</ele><time>2026-03-28T16:12:03.994Z</time></trkpt><trkpt lat="45.19388534835523" lon="8.300038025799207"><ele>132.0</ele><time>2026-03-28T16:12:05.994Z</time></trkpt><trkpt lat="45.19395348433831" lon="8.300123751802746"><ele>131.79999999999998</ele><time>2026-03-28T16:12:06.994Z</time></trkpt><trkpt lat="45.19403885433138" lon="8.30017780780085"><ele>131.6</ele><time>2026-03-28T16:12:07.994Z</time></trkpt><trkpt lat="45.194132449565544" lon="8.30022469637078"><ele>131.39999999999998</ele><time>2026-03-28T16:12:08.992Z</time></trkpt><trkpt lat="45.19422020936941" lon="8.300272512442637"><ele>131.2</ele><time>2026-03-28T16:12:09.991Z</time></trkpt><trkpt lat="45.194312407784935" lon="8.300295891032375"><ele>131.0</ele><time>2026-03-28T16:12:10.991Z</time></trkpt><trkpt lat="45.19439626795296" lon="8.300336862842025"><ele>131.0</ele><time>2026-03-28T16:12:11.992Z</time></trkpt><trkpt lat="45.19448470563073" lon="8.30038671268107"><ele>131.0</ele><time>2026-03-28T16:12:12.992Z</time></trkpt><trkpt lat="45.194579058164095" lon="8.300432291982569"><ele>131.0</ele><time>2026-03-28T16:12:13.992Z</time></trkpt><trkpt lat="45.19466758264177" lon="8.300476429837428"><ele>131.0</ele><time>2026-03-28T16:12:14.992Z</time></trkpt><trkpt lat="45.194750805815055" lon="8.300532938231536"><ele>131.0</ele><time>2026-03-28T16:12:15.992Z</time></trkpt><trkpt lat="45.194849936223875" lon="8.300572041135219"><ele>131.0</ele><time>2026-03-28T16:12:16.992Z</time></trkpt><trkpt lat="45.19494629524387" lon="8.30060863863944"><ele>131.0</ele><time>2026-03-28T16:12:17.992Z</time></trkpt><trkpt lat="45.195047535489536" lon="8.300646454424365"><ele>131.0</ele><time>2026-03-28T16:12:18.992Z</time></trkpt><trkpt lat="45.1951507150082" lon="8.30068330401622"><ele>131.0</ele><time>2026-03-28T16:12:19.992Z</time></trkpt><trkpt lat="45.19524248843157" lon="8.300724826059481"><ele>131.0</ele><time>2026-03-28T16:12:20.992Z</time></trkpt><trkpt lat="45.19532701429486" lon="8.30076220922714"><ele>131.0</ele><time>2026-03-28T16:12:21.992Z</time></trkpt><trkpt lat="45.19540177722956" lon="8.300790563058353"><ele>131.0</ele><time>2026-03-28T16:12:22.992Z</time></trkpt><trkpt lat="45.19547137734542" lon="8.300816022893347"><ele>131.0</ele><time>2026-03-28T16:12:23.992Z</time></trkpt><trkpt lat="45.19553212289085" lon="8.30084325226162"><ele>131.0</ele><time>2026-03-28T16:12:24.992Z</time></trkpt><trkpt lat="45.195641520985355" lon="8.300876550774301"><ele>131.0</ele><time>2026-03-28T16:12:26.992Z</time></trkpt><trkpt lat="45.195729520935956" lon="8.30082350019639"><ele>131.0</ele><time>2026-03-28T16:12:28.992Z</time></trkpt><trkpt lat="45.195801024371676" lon="8.300667774206794"><ele>131.0</ele><time>2026-03-28T16:12:30.992Z</time></trkpt><trkpt lat="45.1958400450863" lon="8.30057304195525"><ele>131.0</ele><time>2026-03-28T16:12:31.992Z</time></trkpt><trkpt lat="45.19587740156307" lon="8.300482262016738"><ele>131.0</ele><time>2026-03-28T16:12:32.992Z</time></trkpt><trkpt lat="45.195919585460615" lon="8.30039328635566"><ele>131.0</ele><time>2026-03-28T16:12:33.992Z</time></trkpt><trkpt lat="45.195962485894825" lon="8.300295763371407"><ele>131.0</ele><time>2026-03-28T16:12:34.992Z</time></trkpt><trkpt lat="45.19600669189077" lon="8.300184621308114"><ele>131.0</ele><time>2026-03-28T16:12:35.992Z</time></trkpt><trkpt lat="45.19605587976387" lon="8.300072665165395"><ele>131.0</ele><time>2026-03-28T16:12:36.992Z</time></trkpt><trkpt lat="45.19610796298039" lon="8.299955718604503"><ele>131.0</ele><time>2026-03-28T16:12:37.992Z</time></trkpt><trkpt lat="45.196162790652544" lon="8.299834952846632"><ele>131.0</ele><time>2026-03-28T16:12:38.992Z</time></trkpt><trkpt lat="45.19621875933993" lon="8.29971138662019"><ele>131.0</ele><time>2026-03-28T16:12:39.992Z</time></trkpt><trkpt lat="45.196275730637204" lon="8.299583534337506"><ele>131.0</ele><time>2026-03-28T16:12:40.992Z</time></trkpt><trkpt lat="45.196334234651474" lon="8.299451233262763"><ele>131.2</ele><time>2026-03-28T16:12:41.992Z</time></trkpt><trkpt lat="45.19639485149648" lon="8.299318571187165"><ele>131.39999999999998</ele><time>2026-03-28T16:12:42.992Z</time></trkpt><trkpt lat="45.19645477553418" lon="8.299192368168075"><ele>131.6</ele><time>2026-03-28T16:12:43.992Z</time></trkpt><trkpt lat="45.19651369608883" lon="8.299064618639248"><ele>131.79999999999998</ele><time>2026-03-28T16:12:44.992Z</time></trkpt><trkpt lat="45.19657392990189" lon="8.298930043120693"><ele>132.0</ele><time>2026-03-28T16:12:45.992Z</time></trkpt><trkpt lat="45.196634596051915" lon="8.2987962814023"><ele>132.2</ele><time>2026-03-28T16:12:46.992Z</time></trkpt><trkpt lat="45.19669403231231" lon="8.298663300443591"><ele>132.39999999999998</ele><time>2026-03-28T16:12:47.992Z</time></trkpt><trkpt lat="45.19675306153829" lon="8.298530858428379"><ele>132.60000000000002</ele><time>2026-03-28T16:12:48.992Z</time></trkpt><trkpt lat="45.19680902831908" lon="8.29839827860733"><ele>132.8</ele><time>2026-03-28T16:12:49.992Z</time></trkpt><trkpt lat="45.19685709451676" lon="8.298268565797501"><ele>133.0</ele><time>2026-03-28T16:12:50.992Z</time></trkpt><trkpt lat="45.19689930399162" lon="8.29815099607858"><ele>133.33333333333334</ele><time>2026-03-28T16:12:51.992Z</time></trkpt><trkpt lat="45.19693954536881" lon="8.298033970207024"><ele>133.66666666666669</ele><time>2026-03-28T16:12:52.992Z</time></trkpt><trkpt lat="45.196982217825656" lon="8.297931193916815"><ele>134.0</ele><time>2026-03-28T16:12:53.992Z</time></trkpt><trkpt lat="45.197023181761416" lon="8.297830450675464"><ele>134.33333333333334</ele><time>2026-03-28T16:12:54.992Z</time></trkpt><trkpt lat="45.19706078347981" lon="8.297729803339633"><ele>134.66666666666666</ele><time>2026-03-28T16:12:55.992Z</time></trkpt><trkpt lat="45.197088732406066" lon="8.297630727864025"><ele>135.0</ele><time>2026-03-28T16:12:56.992Z</time></trkpt><trkpt lat="45.19712049389965" lon="8.297538980026452"><ele>135.0</ele><time>2026-03-28T16:12:58.992Z</time></trkpt><trkpt lat="45.19715759853047" lon="8.297452301989606"><ele>135.0</ele><time>2026-03-28T16:13:04.992Z</time></trkpt><trkpt lat="45.19720968269137" lon="8.297383688898085"><ele>135.0</ele><time>2026-03-28T16:13:07.992Z</time></trkpt><trkpt lat="45.197294598727886" lon="8.297327790581921"><ele>135.0</ele><time>2026-03-28T16:13:10.992Z</time></trkpt><trkpt lat="45.19739730690886" lon="8.297339405351773"><ele>135.0</ele><time>2026-03-28T16:13:12.992Z</time></trkpt><trkpt lat="45.197475003831926" lon="8.297350510870459"><ele>135.0</ele><time>2026-03-28T16:13:13.993Z</time></trkpt><trkpt lat="45.19755705070099" lon="8.297370416925714"><ele>134.8</ele><time>2026-03-28T16:13:14.993Z</time></trkpt><trkpt lat="45.19765015311793" lon="8.297385891835779"><ele>134.6</ele><time>2026-03-28T16:13:15.993Z</time></trkpt><trkpt lat="45.1977497541756" lon="8.297402921457278"><ele>134.4</ele><time>2026-03-28T16:13:16.993Z</time></trkpt><trkpt lat="45.197840226317815" lon="8.297417521977597"><ele>134.2</ele><time>2026-03-28T16:13:17.993Z</time></trkpt><trkpt lat="45.19793703893918" lon="8.297439071772477"><ele>134.0</ele><time>2026-03-28T16:13:18.993Z</time></trkpt><trkpt lat="45.198044577488744" lon="8.297457136251571"><ele>134.0</ele><time>2026-03-28T16:13:19.993Z</time></trkpt><trkpt lat="45.19815889059602" lon="8.29750351229699"><ele>134.0</ele><time>2026-03-28T16:13:20.993Z</time></trkpt><trkpt lat="45.198274109910514" lon="8.297543677213923"><ele>134.0</ele><time>2026-03-28T16:13:21.993Z</time></trkpt><trkpt lat="45.19839144248218" lon="8.297577095541724"><ele>134.0</ele><time>2026-03-28T16:13:22.993Z</time></trkpt><trkpt lat="45.19851251848537" lon="8.297611748809263"><ele>133.75</ele><time>2026-03-28T16:13:23.993Z</time></trkpt><trkpt lat="45.198636856841325" lon="8.297652554044335"><ele>133.5</ele><time>2026-03-28T16:13:24.993Z</time></trkpt><trkpt lat="45.19876893080868" lon="8.297726692453502"><ele>133.25</ele><time>2026-03-28T16:13:25.993Z</time></trkpt><trkpt lat="45.19888463391126" lon="8.297776833963638"><ele>133.0</ele><time>2026-03-28T16:13:26.993Z</time></trkpt><trkpt lat="45.19900141782706" lon="8.297822039653562"><ele>133.0</ele><time>2026-03-28T16:13:27.993Z</time></trkpt><trkpt lat="45.19912051002301" lon="8.29786617161283"><ele>133.0</ele><time>2026-03-28T16:13:28.993Z</time></trkpt><trkpt lat="45.199241051368794" lon="8.297908204474595"><ele>133.0</ele><time>2026-03-28T16:13:29.993Z</time></trkpt><trkpt lat="45.19936677897653" lon="8.297950666312003"><ele>133.0</ele><time>2026-03-28T16:13:30.993Z</time></trkpt><trkpt lat="45.19949668455074" lon="8.29798772399524"><ele>133.0</ele><time>2026-03-28T16:13:31.993Z</time></trkpt><trkpt lat="45.19962567139625" lon="8.298026560691591"><ele>133.0</ele><time>2026-03-28T16:13:32.993Z</time></trkpt><trkpt lat="45.19975520944339" lon="8.29807205729567"><ele>133.0</ele><time>2026-03-28T16:13:33.993Z</time></trkpt><trkpt lat="45.19988413162955" lon="8.298115163945438"><ele>133.0</ele><time>2026-03-28T16:13:34.993Z</time></trkpt><trkpt lat="45.20001082881928" lon="8.298162869137855"><ele>132.75</ele><time>2026-03-28T16:13:35.993Z</time></trkpt><trkpt lat="45.20013702239396" lon="8.298211090969037"><ele>132.5</ele><time>2026-03-28T16:13:36.993Z</time></trkpt><trkpt lat="45.2002657031948" lon="8.298264320052475"><ele>132.25</ele><time>2026-03-28T16:13:37.993Z</time></trkpt><trkpt lat="45.20039364734148" lon="8.298317293881231"><ele>132.0</ele><time>2026-03-28T16:13:38.993Z</time></trkpt><trkpt lat="45.200517170998026" lon="8.298375320759922"><ele>132.0</ele><time>2026-03-28T16:13:39.993Z</time></trkpt><trkpt lat="45.20064504034016" lon="8.298418323976366"><ele>132.0</ele><time>2026-03-28T16:13:40.993Z</time></trkpt><trkpt lat="45.20077428749725" lon="8.298455657701266"><ele>132.0</ele><time>2026-03-28T16:13:41.993Z</time></trkpt><trkpt lat="45.200895047415926" lon="8.298492983536276"><ele>132.0</ele><time>2026-03-28T16:13:42.993Z</time></trkpt><trkpt lat="45.201013742643866" lon="8.298534403897518"><ele>132.2</ele><time>2026-03-28T16:13:43.993Z</time></trkpt><trkpt lat="45.20113240395605" lon="8.298572842036247"><ele>132.39999999999998</ele><time>2026-03-28T16:13:44.993Z</time></trkpt><trkpt lat="45.20124736482488" lon="8.298607724184542"><ele>132.60000000000002</ele><time>2026-03-28T16:13:45.993Z</time></trkpt><trkpt lat="45.201354041247185" lon="8.298640663778649"><ele>132.8</ele><time>2026-03-28T16:13:46.993Z</time></trkpt><trkpt lat="45.20144853755743" lon="8.298686371944774"><ele>133.0</ele><time>2026-03-28T16:13:47.993Z</time></trkpt><trkpt lat="45.20152876270495" lon="8.298736048557565"><ele>133.0</ele><time>2026-03-28T16:13:48.993Z</time></trkpt><trkpt lat="45.20158299691065" lon="8.298815950274875"><ele>133.0</ele><time>2026-03-28T16:13:49.993Z</time></trkpt><trkpt lat="45.20162765252198" lon="8.298930056469827"><ele>133.0</ele><time>2026-03-28T16:13:50.993Z</time></trkpt><trkpt lat="45.201638882450276" lon="8.299069528384159"><ele>133.0</ele><time>2026-03-28T16:13:51.993Z</time></trkpt><trkpt lat="45.20162656243365" lon="8.299227252554005"><ele>133.0</ele><time>2026-03-28T16:13:52.993Z</time></trkpt><trkpt lat="45.201608872885096" lon="8.299396348392369"><ele>133.0</ele><time>2026-03-28T16:13:53.993Z</time></trkpt><trkpt lat="45.20158771921726" lon="8.299569026766251"><ele>133.0</ele><time>2026-03-28T16:13:54.993Z</time></trkpt><trkpt lat="45.2015631056168" lon="8.299757483076972"><ele>133.0</ele><time>2026-03-28T16:13:55.993Z</time></trkpt><trkpt lat="45.20153790653409" lon="8.299958653510501"><ele>133.0</ele><time>2026-03-28T16:13:56.993Z</time></trkpt><trkpt lat="45.20151631578634" lon="8.300168749340967"><ele>132.0</ele><time>2026-03-28T16:13:57.993Z</time></trkpt><trkpt lat="45.201492881764" lon="8.30038093453398"><ele>131.0</ele><time>2026-03-28T16:13:58.993Z</time></trkpt><trkpt lat="45.201465623290346" lon="8.300594704157339"><ele>130.0</ele><time>2026-03-28T16:13:59.993Z</time></trkpt><trkpt lat="45.20143843159111" lon="8.300815944471076"><ele>130.0</ele><time>2026-03-28T16:14:00.993Z</time></trkpt><trkpt lat="45.201405361612494" lon="8.301039754881694"><ele>130.0</ele><time>2026-03-28T16:14:01.993Z</time></trkpt><trkpt lat="45.20137303613463" lon="8.30126923624428"><ele>130.0</ele><time>2026-03-28T16:14:02.993Z</time></trkpt><trkpt lat="45.20133698387284" lon="8.301501315471935"><ele>130.0</ele><time>2026-03-28T16:14:03.993Z</time></trkpt><trkpt lat="45.20129756748101" lon="8.301718795362012"><ele>130.0</ele><time>2026-03-28T16:14:04.993Z</time></trkpt><trkpt lat="45.20126148690797" lon="8.30192245363555"><ele>130.0</ele><time>2026-03-28T16:14:05.993Z</time></trkpt><trkpt lat="45.20122915105986" lon="8.302115560948986"><ele>130.0</ele><time>2026-03-28T16:14:06.993Z</time></trkpt><trkpt lat="45.2011966095409" lon="8.302299896074597"><ele>130.0</ele><time>2026-03-28T16:14:07.993Z</time></trkpt><trkpt lat="45.201162336067924" lon="8.30247365333481"><ele>130.0</ele><time>2026-03-28T16:14:08.993Z</time></trkpt><trkpt lat="45.20113187622205" lon="8.302635502742927"><ele>130.0</ele><time>2026-03-28T16:14:09.993Z</time></trkpt><trkpt lat="45.2011053119514" lon="8.302784825048517"><ele>130.0</ele><time>2026-03-28T16:14:10.993Z</time></trkpt><trkpt lat="45.201072260691575" lon="8.302919313162297"><ele>130.0</ele><time>2026-03-28T16:14:11.993Z</time></trkpt><trkpt lat="45.20102102449093" lon="8.303033281743081"><ele>130.0</ele><time>2026-03-28T16:14:12.993Z</time></trkpt><trkpt lat="45.200963047337524" lon="8.30312460918001"><ele>130.0</ele><time>2026-03-28T16:14:13.993Z</time></trkpt><trkpt lat="45.20092852020655" lon="8.303206098397448"><ele>130.0</ele><time>2026-03-28T16:14:14.992Z</time></trkpt><trkpt lat="45.20096233537711" lon="8.303340975253263"><ele>130.0</ele><time>2026-03-28T16:14:16.991Z</time></trkpt><trkpt lat="45.20108833673363" lon="8.303401911728661"><ele>130.0</ele><time>2026-03-28T16:14:18.991Z</time></trkpt><trkpt lat="45.201179566109595" lon="8.303440502586257"><ele>130.0</ele><time>2026-03-28T16:14:19.991Z</time></trkpt><trkpt lat="45.20127859595735" lon="8.303514163790283"><ele>130.0</ele><time>2026-03-28T16:14:20.992Z</time></trkpt><trkpt lat="45.20138855834677" lon="8.30358941488345"><ele>130.0</ele><time>2026-03-28T16:14:21.991Z</time></trkpt><trkpt lat="45.20151782037652" lon="8.30365665766413"><ele>130.0</ele><time>2026-03-28T16:14:22.991Z</time></trkpt><trkpt lat="45.20165846583274" lon="8.303718850706884"><ele>130.0</ele><time>2026-03-28T16:14:23.992Z</time></trkpt><trkpt lat="45.20179996239409" lon="8.303776461780936"><ele>130.0</ele><time>2026-03-28T16:14:24.991Z</time></trkpt><trkpt lat="45.20195355764155" lon="8.303836445756586"><ele>130.0</ele><time>2026-03-28T16:14:25.991Z</time></trkpt><trkpt lat="45.202104223398656" lon="8.303896442298285"><ele>130.0</ele><time>2026-03-28T16:14:26.991Z</time></trkpt><trkpt lat="45.20226347496109" lon="8.303959999033475"><ele>130.0</ele><time>2026-03-28T16:14:27.992Z</time></trkpt><trkpt lat="45.20242471735003" lon="8.304033667022352"><ele>129.66666666666669</ele><time>2026-03-28T16:14:28.992Z</time></trkpt><trkpt lat="45.20258246523635" lon="8.304133130424303"><ele>129.33333333333334</ele><time>2026-03-28T16:14:29.992Z</time></trkpt><trkpt lat="45.20272877198077" lon="8.30426337293059"><ele>129.0</ele><time>2026-03-28T16:14:30.992Z</time></trkpt><trkpt lat="45.20285415833719" lon="8.304428763914364"><ele>129.0</ele><time>2026-03-28T16:14:31.992Z</time></trkpt><trkpt lat="45.20294856239357" lon="8.304608215460972"><ele>129.0</ele><time>2026-03-28T16:14:32.992Z</time></trkpt><trkpt lat="45.20301832383443" lon="8.304798553607133"><ele>129.0</ele><time>2026-03-28T16:14:33.992Z</time></trkpt><trkpt lat="45.203060466262684" lon="8.305001047576205"><ele>129.0</ele><time>2026-03-28T16:14:34.992Z</time></trkpt><trkpt lat="45.203081627056434" lon="8.305208408339526"><ele>129.0</ele><time>2026-03-28T16:14:35.992Z</time></trkpt><trkpt lat="45.20308913545055" lon="8.30541260501217"><ele>129.0</ele><time>2026-03-28T16:14:36.992Z</time></trkpt><trkpt lat="45.20310198106079" lon="8.305607839217025"><ele>129.0</ele><time>2026-03-28T16:14:37.992Z</time></trkpt><trkpt lat="45.203130521378334" lon="8.305797514934438"><ele>129.0</ele><time>2026-03-28T16:14:38.992Z</time></trkpt><trkpt lat="45.20317832042869" lon="8.305988897300882"><ele>129.0</ele><time>2026-03-28T16:14:39.992Z</time></trkpt><trkpt lat="45.20324701868299" lon="8.306169635652573"><ele>129.0</ele><time>2026-03-28T16:14:40.992Z</time></trkpt><trkpt lat="45.20333982112474" lon="8.30633365291388"><ele>129.0</ele><time>2026-03-28T16:14:41.992Z</time></trkpt><trkpt lat="45.20344804155087" lon="8.306473540646461"><ele>129.33333333333334</ele><time>2026-03-28T16:14:42.992Z</time></trkpt><trkpt lat="45.20357779548018" lon="8.306581266300684"><ele>129.66666666666669</ele><time>2026-03-28T16:14:43.992Z</time></trkpt><trkpt lat="45.20371384389895" lon="8.30667052377997"><ele>130.0</ele><time>2026-03-28T16:14:44.992Z</time></trkpt><trkpt lat="45.20385749655269" lon="8.306746318247413"><ele>130.0</ele><time>2026-03-28T16:14:45.992Z</time></trkpt><trkpt lat="45.203997938941356" lon="8.30682034086054"><ele>130.0</ele><time>2026-03-28T16:14:46.992Z</time></trkpt><trkpt lat="45.20413270430842" lon="8.306900807352822"><ele>130.0</ele><time>2026-03-28T16:14:47.992Z</time></trkpt><trkpt lat="45.20426056097521" lon="8.307008435521878"><ele>130.0</ele><time>2026-03-28T16:14:48.992Z</time></trkpt><trkpt lat="45.20437671840639" lon="8.307154563666208"><ele>129.66666666666669</ele><time>2026-03-28T16:14:49.992Z</time></trkpt><trkpt lat="45.20447481737685" lon="8.30731899440423"><ele>129.33333333333334</ele><time>2026-03-28T16:14:50.992Z</time></trkpt><trkpt lat="45.20456706137234" lon="8.307492524951584"><ele>129.0</ele><time>2026-03-28T16:14:51.992Z</time></trkpt><trkpt lat="45.204651097954475" lon="8.307670392050351"><ele>129.0</ele><time>2026-03-28T16:14:52.992Z</time></trkpt><trkpt lat="45.20472709767622" lon="8.30785513424287"><ele>129.0</ele><time>2026-03-28T16:14:53.992Z</time></trkpt><trkpt lat="45.20480523716012" lon="8.308037814461978"><ele>129.0</ele><time>2026-03-28T16:14:54.992Z</time></trkpt><trkpt lat="45.204884640449215" lon="8.308213437082843"><ele>129.0</ele><time>2026-03-28T16:14:55.992Z</time></trkpt><trkpt lat="45.204965121585374" lon="8.308385447736425"><ele>129.0</ele><time>2026-03-28T16:14:56.992Z</time></trkpt><trkpt lat="45.20504438866584" lon="8.308561267468534"><ele>129.0</ele><time>2026-03-28T16:14:57.992Z</time></trkpt><trkpt lat="45.2051171287476" lon="8.308747138185714"><ele>129.0</ele><time>2026-03-28T16:14:58.992Z</time></trkpt><trkpt lat="45.205169166829975" lon="8.308949707415113"><ele>129.0</ele><time>2026-03-28T16:14:59.992Z</time></trkpt><trkpt lat="45.20520484899117" lon="8.30916331640777"><ele>129.0</ele><time>2026-03-28T16:15:00.992Z</time></trkpt><trkpt lat="45.20523327590628" lon="8.309385202183229"><ele>129.0</ele><time>2026-03-28T16:15:01.992Z</time></trkpt><trkpt lat="45.2052598448848" lon="8.309609151029125"><ele>129.0</ele><time>2026-03-28T16:15:02.992Z</time></trkpt><trkpt lat="45.2052902292192" lon="8.309831665510979"><ele>129.33333333333334</ele><time>2026-03-28T16:15:03.992Z</time></trkpt><trkpt lat="45.205322874825235" lon="8.310045550193422"><ele>129.66666666666669</ele><time>2026-03-28T16:15:04.992Z</time></trkpt><trkpt lat="45.20536211078662" lon="8.310254496064797"><ele>130.0</ele><time>2026-03-28T16:15:05.992Z</time></trkpt><trkpt lat="45.2054066261603" lon="8.310466423989336"><ele>130.66666666666669</ele><time>2026-03-28T16:15:06.992Z</time></trkpt><trkpt lat="45.20544770794987" lon="8.310682225119615"><ele>131.33333333333334</ele><time>2026-03-28T16:15:07.992Z</time></trkpt><trkpt lat="45.2054816196096" lon="8.310899922146922"><ele>132.0</ele><time>2026-03-28T16:15:08.992Z</time></trkpt><trkpt lat="45.205516908778264" lon="8.31112164399591"><ele>132.0</ele><time>2026-03-28T16:15:09.992Z</time></trkpt><trkpt lat="45.205549240176055" lon="8.311346472126715"><ele>132.0</ele><time>2026-03-28T16:15:10.992Z</time></trkpt><trkpt lat="45.205575515557314" lon="8.311573256340882"><ele>132.0</ele><time>2026-03-28T16:15:11.992Z</time></trkpt><trkpt lat="45.20559638249187" lon="8.311801734784318"><ele>132.33333333333334</ele><time>2026-03-28T16:15:12.992Z</time></trkpt><trkpt lat="45.20560850676706" lon="8.312027958145837"><ele>132.66666666666669</ele><time>2026-03-28T16:15:13.992Z</time></trkpt><trkpt lat="45.2056221090467" lon="8.312253457268126"><ele>133.0</ele><time>2026-03-28T16:15:14.992Z</time></trkpt><trkpt lat="45.205632656496775" lon="8.312481192055449"><ele>133.0</ele><time>2026-03-28T16:15:15.992Z</time></trkpt><trkpt lat="45.205638424917844" lon="8.312702373233604"><ele>133.0</ele><time>2026-03-28T16:15:16.992Z</time></trkpt><trkpt lat="45.205645567349485" lon="8.312916001234866"><ele>133.0</ele><time>2026-03-28T16:15:17.992Z</time></trkpt><trkpt lat="45.20564987942141" lon="8.313123796193684"><ele>133.25</ele><time>2026-03-28T16:15:18.992Z</time></trkpt><trkpt lat="45.20565296363306" lon="8.31333480975408"><ele>133.5</ele><time>2026-03-28T16:15:19.992Z</time></trkpt><trkpt lat="45.20565337352105" lon="8.313544500814135"><ele>133.75</ele><time>2026-03-28T16:15:20.992Z</time></trkpt><trkpt lat="45.20563701943607" lon="8.313750643613549"><ele>134.0</ele><time>2026-03-28T16:15:21.992Z</time></trkpt><trkpt lat="45.205601485427465" lon="8.31395431187172"><ele>134.0</ele><time>2026-03-28T16:15:22.992Z</time></trkpt><trkpt lat="45.20554688712212" lon="8.314162159861796"><ele>134.0</ele><time>2026-03-28T16:15:23.992Z</time></trkpt><trkpt lat="45.20547364940322" lon="8.314370099659277"><ele>134.0</ele><time>2026-03-28T16:15:24.992Z</time></trkpt><trkpt lat="45.205393318547785" lon="8.31457667590522"><ele>133.66666666666666</ele><time>2026-03-28T16:15:25.992Z</time></trkpt><trkpt lat="45.20531164973579" lon="8.314785206156019"><ele>133.33333333333334</ele><time>2026-03-28T16:15:26.992Z</time></trkpt><trkpt lat="45.20523273526964" lon="8.31499614155708"><ele>133.0</ele><time>2026-03-28T16:15:27.992Z</time></trkpt><trkpt lat="45.205161850818186" lon="8.315207818711713"><ele>133.0</ele><time>2026-03-28T16:15:28.992Z</time></trkpt><trkpt lat="45.205100595819935" lon="8.315429828751565"><ele>133.0</ele><time>2026-03-28T16:15:29.992Z</time></trkpt><trkpt lat="45.20504724704155" lon="8.315657757224145"><ele>133.0</ele><time>2026-03-28T16:15:30.992Z</time></trkpt><trkpt lat="45.20500161798196" lon="8.315891910410906"><ele>133.66666666666669</ele><time>2026-03-28T16:15:31.992Z</time></trkpt><trkpt lat="45.20496225226903" lon="8.316132550733572"><ele>134.33333333333334</ele><time>2026-03-28T16:15:32.992Z</time></trkpt><trkpt lat="45.20493195854496" lon="8.316376171938039"><ele>135.0</ele><time>2026-03-28T16:15:33.992Z</time></trkpt><trkpt lat="45.20491367437493" lon="8.316623199462887"><ele>135.66666666666666</ele><time>2026-03-28T16:15:34.992Z</time></trkpt><trkpt lat="45.20489948313887" lon="8.316867794686662"><ele>136.33333333333331</ele><time>2026-03-28T16:15:35.992Z</time></trkpt><trkpt lat="45.204885001432636" lon="8.317107967472136"><ele>137.0</ele><time>2026-03-28T16:15:36.992Z</time></trkpt><trkpt lat="45.20487310598495" lon="8.317338475815836"><ele>137.0</ele><time>2026-03-28T16:15:37.992Z</time></trkpt><trkpt lat="45.20486157975763" lon="8.317563079704051"><ele>137.0</ele><time>2026-03-28T16:15:38.992Z</time></trkpt><trkpt lat="45.20484154568746" lon="8.317787057059109"><ele>137.0</ele><time>2026-03-28T16:15:39.992Z</time></trkpt><trkpt lat="45.204802347234214" lon="8.318006407622137"><ele>134.66666666666666</ele><time>2026-03-28T16:15:40.992Z</time></trkpt><trkpt lat="45.204741411352096" lon="8.318210654549501"><ele>132.33333333333334</ele><time>2026-03-28T16:15:41.992Z</time></trkpt><trkpt lat="45.20467202520991" lon="8.318408198189848"><ele>130.0</ele><time>2026-03-28T16:15:42.992Z</time></trkpt><trkpt lat="45.204620737666815" lon="8.318616097074207"><ele>130.0</ele><time>2026-03-28T16:15:43.992Z</time></trkpt><trkpt lat="45.20459924927968" lon="8.318838486007282"><ele>130.0</ele><time>2026-03-28T16:15:44.992Z</time></trkpt><trkpt lat="45.20459065525297" lon="8.31906341231143"><ele>130.0</ele><time>2026-03-28T16:15:45.992Z</time></trkpt><trkpt lat="45.20458292158592" lon="8.319287520529299"><ele>130.33333333333334</ele><time>2026-03-28T16:15:46.992Z</time></trkpt><trkpt lat="45.204563687893476" lon="8.319510015253805"><ele>130.66666666666666</ele><time>2026-03-28T16:15:47.992Z</time></trkpt><trkpt lat="45.20452687185781" lon="8.319728897483081"><ele>131.0</ele><time>2026-03-28T16:15:48.992Z</time></trkpt><trkpt lat="45.20447540866009" lon="8.319944805559441"><ele>131.66666666666666</ele><time>2026-03-28T16:15:49.992Z</time></trkpt><trkpt lat="45.20441310577329" lon="8.3201602135533"><ele>132.33333333333334</ele><time>2026-03-28T16:15:50.992Z</time></trkpt><trkpt lat="45.204350034222664" lon="8.320369947699579"><ele>133.0</ele><time>2026-03-28T16:15:51.993Z</time></trkpt><trkpt lat="45.20429649479594" lon="8.320570847123639"><ele>133.0</ele><time>2026-03-28T16:15:52.993Z</time></trkpt><trkpt lat="45.20424331280755" lon="8.32076346098206"><ele>133.0</ele><time>2026-03-28T16:15:53.993Z</time></trkpt><trkpt lat="45.204200861932875" lon="8.320946460719764"><ele>133.0</ele><time>2026-03-28T16:15:54.993Z</time></trkpt><trkpt lat="45.20417356877787" lon="8.321145293998594"><ele>133.0</ele><time>2026-03-28T16:15:55.993Z</time></trkpt><trkpt lat="45.20416847291604" lon="8.321355951979713"><ele>133.66666666666669</ele><time>2026-03-28T16:15:56.993Z</time></trkpt><trkpt lat="45.20418013036703" lon="8.321581620748528"><ele>134.33333333333334</ele><time>2026-03-28T16:15:57.993Z</time></trkpt><trkpt lat="45.20419804703591" lon="8.32180387642819"><ele>135.0</ele><time>2026-03-28T16:15:58.993Z</time></trkpt><trkpt lat="45.204224423964014" lon="8.322018139384607"><ele>135.0</ele><time>2026-03-28T16:15:59.993Z</time></trkpt><trkpt lat="45.20425601223007" lon="8.322223574784937"><ele>135.0</ele><time>2026-03-28T16:16:00.993Z</time></trkpt><trkpt lat="45.20429114632829" lon="8.322422178890255"><ele>135.0</ele><time>2026-03-28T16:16:01.993Z</time></trkpt><trkpt lat="45.204328939237094" lon="8.322616777759894"><ele>135.0</ele><time>2026-03-28T16:16:02.993Z</time></trkpt><trkpt lat="45.204370484344324" lon="8.322804693698675"><ele>135.0</ele><time>2026-03-28T16:16:03.993Z</time></trkpt><trkpt lat="45.2044114087127" lon="8.322979594272454"><ele>135.0</ele><time>2026-03-28T16:16:04.993Z</time></trkpt><trkpt lat="45.2044505838929" lon="8.323149330456152"><ele>135.0</ele><time>2026-03-28T16:16:05.993Z</time></trkpt><trkpt lat="45.2044818939382" lon="8.32332506755392"><ele>135.0</ele><time>2026-03-28T16:16:06.993Z</time></trkpt><trkpt lat="45.20449531146305" lon="8.323507272022498"><ele>135.0</ele><time>2026-03-28T16:16:07.993Z</time></trkpt><trkpt lat="45.20449181413325" lon="8.323698033045666"><ele>135.0</ele><time>2026-03-28T16:16:08.993Z</time></trkpt><trkpt lat="45.204478434481054" lon="8.323894462875657"><ele>135.0</ele><time>2026-03-28T16:16:09.993Z</time></trkpt><trkpt lat="45.204467006027784" lon="8.324092276788296"><ele>135.0</ele><time>2026-03-28T16:16:10.993Z</time></trkpt><trkpt lat="45.20445904139259" lon="8.324282640762716"><ele>135.0</ele><time>2026-03-28T16:16:11.993Z</time></trkpt><trkpt lat="45.20445433326499" lon="8.324462194804854"><ele>135.0</ele><time>2026-03-28T16:16:12.993Z</time></trkpt><trkpt lat="45.204451851824" lon="8.324635050822947"><ele>135.0</ele><time>2026-03-28T16:16:13.993Z</time></trkpt><trkpt lat="45.20445376446453" lon="8.324805530442735"><ele>135.0</ele><time>2026-03-28T16:16:14.993Z</time></trkpt><trkpt lat="45.20446297638102" lon="8.324973529457584"><ele>134.75</ele><time>2026-03-28T16:16:15.993Z</time></trkpt><trkpt lat="45.20446881600088" lon="8.325150507665162"><ele>134.5</ele><time>2026-03-28T16:16:16.993Z</time></trkpt><trkpt lat="45.20448233019534" lon="8.325333777620237"><ele>134.25</ele><time>2026-03-28T16:16:17.993Z</time></trkpt><trkpt lat="45.20449650978437" lon="8.325520703728293"><ele>134.0</ele><time>2026-03-28T16:16:18.993Z</time></trkpt><trkpt lat="45.20450826214663" lon="8.325710249046617"><ele>134.0</ele><time>2026-03-28T16:16:19.993Z</time></trkpt><trkpt lat="45.20452771350886" lon="8.325899048675565"><ele>134.0</ele><time>2026-03-28T16:16:20.991Z</time></trkpt><trkpt lat="45.204557786809765" lon="8.32607505725718"><ele>134.0</ele><time>2026-03-28T16:16:21.991Z</time></trkpt><trkpt lat="45.204595739323665" lon="8.326245449342215"><ele>134.0</ele><time>2026-03-28T16:16:22.991Z</time></trkpt><trkpt lat="45.20464000747975" lon="8.326419390329493"><ele>133.5</ele><time>2026-03-28T16:16:23.991Z</time></trkpt><trkpt lat="45.204678583783746" lon="8.326600032088889"><ele>133.0</ele><time>2026-03-28T16:16:24.991Z</time></trkpt><trkpt lat="45.20470645593496" lon="8.326775839600696"><ele>132.5</ele><time>2026-03-28T16:16:25.991Z</time></trkpt><trkpt lat="45.20473309065596" lon="8.326957094030076"><ele>132.0</ele><time>2026-03-28T16:16:26.991Z</time></trkpt><trkpt lat="45.20476233097199" lon="8.3271358462306"><ele>131.75</ele><time>2026-03-28T16:16:27.991Z</time></trkpt><trkpt lat="45.20480069036178" lon="8.327300850419702"><ele>131.5</ele><time>2026-03-28T16:16:28.991Z</time></trkpt><trkpt lat="45.20484079624711" lon="8.327458294785739"><ele>131.25</ele><time>2026-03-28T16:16:29.991Z</time></trkpt><trkpt lat="45.204878350688716" lon="8.327617402018088"><ele>131.0</ele><time>2026-03-28T16:16:30.991Z</time></trkpt><trkpt lat="45.204912988462866" lon="8.327777485441095"><ele>132.5</ele><time>2026-03-28T16:16:31.991Z</time></trkpt><trkpt lat="45.20494804901888" lon="8.327940525510046"><ele>134.0</ele><time>2026-03-28T16:16:32.991Z</time></trkpt><trkpt lat="45.20498121145596" lon="8.328107379934004"><ele>135.5</ele><time>2026-03-28T16:16:33.992Z</time></trkpt><trkpt lat="45.20501426813905" lon="8.328283613133635"><ele>137.0</ele><time>2026-03-28T16:16:34.992Z</time></trkpt><trkpt lat="45.205041707043456" lon="8.328465745535157"><ele>137.0</ele><time>2026-03-28T16:16:35.992Z</time></trkpt><trkpt lat="45.205061666461276" lon="8.328656158674981"><ele>137.0</ele><time>2026-03-28T16:16:36.992Z</time></trkpt><trkpt lat="45.205078995935715" lon="8.328854378907424"><ele>137.0</ele><time>2026-03-28T16:16:37.992Z</time></trkpt><trkpt lat="45.20508515233083" lon="8.329056791137363"><ele>137.0</ele><time>2026-03-28T16:16:38.992Z</time></trkpt><trkpt lat="45.20508958082993" lon="8.329258076176215"><ele>137.0</ele><time>2026-03-28T16:16:39.992Z</time></trkpt><trkpt lat="45.20509373231074" lon="8.329455041072446"><ele>137.0</ele><time>2026-03-28T16:16:40.992Z</time></trkpt><trkpt lat="45.20508671296719" lon="8.329642359100825"><ele>137.0</ele><time>2026-03-28T16:16:41.992Z</time></trkpt><trkpt lat="45.205074424071526" lon="8.329817392511124"><ele>137.0</ele><time>2026-03-28T16:16:42.992Z</time></trkpt><trkpt lat="45.20504475565473" lon="8.329986692613033"><ele>137.0</ele><time>2026-03-28T16:16:43.992Z</time></trkpt><trkpt lat="45.205034181620405" lon="8.330164243881892"><ele>137.0</ele><time>2026-03-28T16:16:44.992Z</time></trkpt><trkpt lat="45.20498217873198" lon="8.33033556443996"><ele>137.0</ele><time>2026-03-28T16:16:45.992Z</time></trkpt><trkpt lat="45.20490212051927" lon="8.330487939962811"><ele>137.0</ele><time>2026-03-28T16:16:46.992Z</time></trkpt><trkpt lat="45.204848016970104" lon="8.330679777920311"><ele>134.66666666666666</ele><time>2026-03-28T16:16:47.992Z</time></trkpt><trkpt lat="45.204808565529156" lon="8.330889142699014"><ele>132.33333333333334</ele><time>2026-03-28T16:16:48.992Z</time></trkpt><trkpt lat="45.204774161534914" lon="8.33109717685162"><ele>130.0</ele><time>2026-03-28T16:16:49.992Z</time></trkpt><trkpt lat="45.20474507125268" lon="8.331302442808802"><ele>130.75</ele><time>2026-03-28T16:16:50.992Z</time></trkpt><trkpt lat="45.204723331463136" lon="8.331501388039715"><ele>131.5</ele><time>2026-03-28T16:16:51.992Z</time></trkpt><trkpt lat="45.204703803523024" lon="8.331702919391951"><ele>132.25</ele><time>2026-03-28T16:16:52.992Z</time></trkpt><trkpt lat="45.2046887607447" lon="8.331889928994652"><ele>133.0</ele><time>2026-03-28T16:16:53.992Z</time></trkpt><trkpt lat="45.20467248018393" lon="8.332059188704042"><ele>133.0</ele><time>2026-03-28T16:16:54.992Z</time></trkpt><trkpt lat="45.20465817925605" lon="8.332221423118092"><ele>133.0</ele><time>2026-03-28T16:16:55.992Z</time></trkpt><trkpt lat="45.20464790222895" lon="8.3323838875608"><ele>133.0</ele><time>2026-03-28T16:16:56.992Z</time></trkpt><trkpt lat="45.204632453003974" lon="8.332558070351114"><ele>133.0</ele><time>2026-03-28T16:16:57.992Z</time></trkpt><trkpt lat="45.204635926321124" lon="8.332732945090255"><ele>132.75</ele><time>2026-03-28T16:16:58.992Z</time></trkpt><trkpt lat="45.20466727754271" lon="8.332918078102788"><ele>132.5</ele><time>2026-03-28T16:16:59.992Z</time></trkpt><trkpt lat="45.20470103303658" lon="8.333112507023495"><ele>132.25</ele><time>2026-03-28T16:17:00.992Z</time></trkpt><trkpt lat="45.20472932352647" lon="8.333317815830615"><ele>132.0</ele><time>2026-03-28T16:17:01.992Z</time></trkpt><trkpt lat="45.20476089658283" lon="8.333530768077475"><ele>131.66666666666666</ele><time>2026-03-28T16:17:02.992Z</time></trkpt><trkpt lat="45.204784708079835" lon="8.333752034602211"><ele>131.33333333333331</ele><time>2026-03-28T16:17:03.992Z</time></trkpt><trkpt lat="45.204805587654704" lon="8.333977388019902"><ele>131.0</ele><time>2026-03-28T16:17:04.992Z</time></trkpt><trkpt lat="45.20482856432872" lon="8.334200173158074"><ele>131.0</ele><time>2026-03-28T16:17:05.992Z</time></trkpt><trkpt lat="45.20484279437062" lon="8.334427577148213"><ele>131.0</ele><time>2026-03-28T16:17:06.992Z</time></trkpt><trkpt lat="45.20483826388624" lon="8.334658318752933"><ele>131.0</ele><time>2026-03-28T16:17:07.992Z</time></trkpt><trkpt lat="45.204806454844736" lon="8.334890870089714"><ele>131.0</ele><time>2026-03-28T16:17:08.992Z</time></trkpt><trkpt lat="45.20476901742288" lon="8.335130541154234"><ele>131.0</ele><time>2026-03-28T16:17:09.992Z</time></trkpt><trkpt lat="45.20472953233455" lon="8.335374961014862"><ele>131.0</ele><time>2026-03-28T16:17:10.992Z</time></trkpt><trkpt lat="45.20469193764754" lon="8.335623472231928"><ele>130.66666666666666</ele><time>2026-03-28T16:17:11.992Z</time></trkpt><trkpt lat="45.2046679451763" lon="8.335876648381522"><ele>130.33333333333334</ele><time>2026-03-28T16:17:12.992Z</time></trkpt><trkpt lat="45.20466136405355" lon="8.336132436595372"><ele>130.0</ele><time>2026-03-28T16:17:13.992Z</time></trkpt><trkpt lat="45.204665073852475" lon="8.336392586048902"><ele>130.66666666666669</ele><time>2026-03-28T16:17:14.992Z</time></trkpt><trkpt lat="45.204680428614175" lon="8.33665469062919"><ele>131.33333333333334</ele><time>2026-03-28T16:17:15.992Z</time></trkpt><trkpt lat="45.204699402715086" lon="8.336919133142542"><ele>132.0</ele><time>2026-03-28T16:17:16.992Z</time></trkpt><trkpt lat="45.204713416748454" lon="8.337185495357897"><ele>132.33333333333334</ele><time>2026-03-28T16:17:17.992Z</time></trkpt><trkpt lat="45.20472450706529" lon="8.337454045507654"><ele>132.66666666666669</ele><time>2026-03-28T16:17:18.992Z</time></trkpt><trkpt lat="45.20473022467662" lon="8.337722823988353"><ele>133.0</ele><time>2026-03-28T16:17:19.992Z</time></trkpt><trkpt lat="45.20473692900519" lon="8.337992261268306"><ele>133.66666666666669</ele><time>2026-03-28T16:17:20.992Z</time></trkpt><trkpt lat="45.20474620788006" lon="8.33825941909623"><ele>134.33333333333334</ele><time>2026-03-28T16:17:21.992Z</time></trkpt><trkpt lat="45.204757278705465" lon="8.338526642824034"><ele>135.0</ele><time>2026-03-28T16:17:22.992Z</time></trkpt><trkpt lat="45.20476952956318" lon="8.338794702280675"><ele>135.33333333333334</ele><time>2026-03-28T16:17:23.992Z</time></trkpt><trkpt lat="45.20478022378077" lon="8.339062372287877"><ele>135.66666666666669</ele><time>2026-03-28T16:17:24.992Z</time></trkpt><trkpt lat="45.20478727865553" lon="8.339328796429298"><ele>136.0</ele><time>2026-03-28T16:17:25.992Z</time></trkpt><trkpt lat="45.204797001025746" lon="8.339595121657705"><ele>136.0</ele><time>2026-03-28T16:17:26.992Z</time></trkpt><trkpt lat="45.20481023665367" lon="8.33986283843116"><ele>136.0</ele><time>2026-03-28T16:17:27.992Z</time></trkpt><trkpt lat="45.20482517677408" lon="8.340130287658347"><ele>136.0</ele><time>2026-03-28T16:17:28.992Z</time></trkpt><trkpt lat="45.20484493234503" lon="8.340407659101318"><ele>136.33333333333334</ele><time>2026-03-28T16:17:29.992Z</time></trkpt><trkpt lat="45.204872915626204" lon="8.340689362701774"><ele>136.66666666666666</ele><time>2026-03-28T16:17:30.992Z</time></trkpt><trkpt lat="45.20490546836625" lon="8.340971115998009"><ele>137.0</ele><time>2026-03-28T16:17:31.992Z</time></trkpt><trkpt lat="45.20494166581099" lon="8.341257827673592"><ele>137.33333333333331</ele><time>2026-03-28T16:17:32.992Z</time></trkpt><trkpt lat="45.204979528667245" lon="8.341545224096233"><ele>137.66666666666666</ele><time>2026-03-28T16:17:33.992Z</time></trkpt><trkpt lat="45.20501914293068" lon="8.341835689843098"><ele>138.0</ele><time>2026-03-28T16:17:34.992Z</time></trkpt><trkpt lat="45.20506288338178" lon="8.342126540197018"><ele>138.0</ele><time>2026-03-28T16:17:35.992Z</time></trkpt><trkpt lat="45.20510803140468" lon="8.342417307696419"><ele>138.0</ele><time>2026-03-28T16:17:36.992Z</time></trkpt><trkpt lat="45.20514772258719" lon="8.342713817918085"><ele>138.0</ele><time>2026-03-28T16:17:37.992Z</time></trkpt><trkpt lat="45.20517879186439" lon="8.343013867398026"><ele>138.0</ele><time>2026-03-28T16:17:38.992Z</time></trkpt><trkpt lat="45.20520826343099" lon="8.34331825026925"><ele>138.0</ele><time>2026-03-28T16:17:39.992Z</time></trkpt><trkpt lat="45.20523398352062" lon="8.34361815398374"><ele>138.0</ele><time>2026-03-28T16:17:40.992Z</time></trkpt><trkpt lat="45.20525220787385" lon="8.343910898692862"><ele>137.33333333333334</ele><time>2026-03-28T16:17:41.992Z</time></trkpt><trkpt lat="45.2052630823566" lon="8.344191089189518"><ele>136.66666666666669</ele><time>2026-03-28T16:17:42.992Z</time></trkpt><trkpt lat="45.20527047053587" lon="8.344457271384908"><ele>136.0</ele><time>2026-03-28T16:17:43.992Z</time></trkpt><trkpt lat="45.20528062286542" lon="8.344708105157164"><ele>135.66666666666669</ele><time>2026-03-28T16:17:44.992Z</time></trkpt><trkpt lat="45.20530180546053" lon="8.344949163982621"><ele>135.33333333333334</ele><time>2026-03-28T16:17:45.992Z</time></trkpt><trkpt lat="45.20534303208958" lon="8.34518657811197"><ele>135.0</ele><time>2026-03-28T16:17:46.992Z</time></trkpt><trkpt lat="45.20540869761485" lon="8.345422499343288"><ele>134.33333333333334</ele><time>2026-03-28T16:17:47.992Z</time></trkpt><trkpt lat="45.20550157873874" lon="8.345646778348389"><ele>133.66666666666669</ele><time>2026-03-28T16:17:48.992Z</time></trkpt><trkpt lat="45.20560530040287" lon="8.345857007825808"><ele>133.0</ele><time>2026-03-28T16:17:49.992Z</time></trkpt><trkpt lat="45.20571706430389" lon="8.346050184869158"><ele>134.0</ele><time>2026-03-28T16:17:50.992Z</time></trkpt><trkpt lat="45.20582815932112" lon="8.346235857032045"><ele>135.0</ele><time>2026-03-28T16:17:51.992Z</time></trkpt><trkpt lat="45.205915764765024" lon="8.34644570114499"><ele>136.0</ele><time>2026-03-28T16:17:52.992Z</time></trkpt><trkpt lat="45.205977080099935" lon="8.346679658379092"><ele>136.0</ele><time>2026-03-28T16:17:53.992Z</time></trkpt><trkpt lat="45.20600488167915" lon="8.346927654504622"><ele>136.0</ele><time>2026-03-28T16:17:54.993Z</time></trkpt><trkpt lat="45.20599819699301" lon="8.347186213450799"><ele>136.0</ele><time>2026-03-28T16:17:55.993Z</time></trkpt><trkpt lat="45.20596423198036" lon="8.347451069109946"><ele>136.0</ele><time>2026-03-28T16:17:56.993Z</time></trkpt><trkpt lat="45.20591448792664" lon="8.347725483358587"><ele>136.0</ele><time>2026-03-28T16:17:57.993Z</time></trkpt><trkpt lat="45.20586164148052" lon="8.348008421234567"><ele>136.0</ele><time>2026-03-28T16:17:58.993Z</time></trkpt><trkpt lat="45.20580881627203" lon="8.348295821293474"><ele>136.0</ele><time>2026-03-28T16:17:59.993Z</time></trkpt><trkpt lat="45.20575642227523" lon="8.348589624625905"><ele>136.0</ele><time>2026-03-28T16:18:00.993Z</time></trkpt><trkpt lat="45.205700773139824" lon="8.348888576788287"><ele>136.0</ele><time>2026-03-28T16:18:01.993Z</time></trkpt><trkpt lat="45.20564480586324" lon="8.349192817328028"><ele>134.66666666666669</ele><time>2026-03-28T16:18:02.993Z</time></trkpt><trkpt lat="45.205587503631854" lon="8.34949935156484"><ele>133.33333333333334</ele><time>2026-03-28T16:18:03.993Z</time></trkpt><trkpt lat="45.20553196741062" lon="8.34980041351532"><ele>132.0</ele><time>2026-03-28T16:18:04.993Z</time></trkpt><trkpt lat="45.20548220914571" lon="8.350089320722459"><ele>132.0</ele><time>2026-03-28T16:18:05.993Z</time></trkpt><trkpt lat="45.20543147780857" lon="8.350374476271115"><ele>132.0</ele><time>2026-03-28T16:18:06.993Z</time></trkpt><trkpt lat="45.20538130549178" lon="8.35066159986605"><ele>132.0</ele><time>2026-03-28T16:18:07.993Z</time></trkpt><trkpt lat="45.20532581323205" lon="8.350947765861681"><ele>132.33333333333334</ele><time>2026-03-28T16:18:08.993Z</time></trkpt><trkpt lat="45.20526740961094" lon="8.351239529263289"><ele>132.66666666666669</ele><time>2026-03-28T16:18:09.993Z</time></trkpt><trkpt lat="45.205213220762694" lon="8.351531753544837"><ele>133.0</ele><time>2026-03-28T16:18:10.993Z</time></trkpt><trkpt lat="45.20515787004061" lon="8.351826903049378"><ele>133.33333333333334</ele><time>2026-03-28T16:18:11.993Z</time></trkpt><trkpt lat="45.20510294153743" lon="8.352126883719304"><ele>133.66666666666666</ele><time>2026-03-28T16:18:12.993Z</time></trkpt><trkpt lat="45.20504580047709" lon="8.352426713005139"><ele>134.0</ele><time>2026-03-28T16:18:13.993Z</time></trkpt><trkpt lat="45.20498717244038" lon="8.352729436208374"><ele>134.0</ele><time>2026-03-28T16:18:14.993Z</time></trkpt><trkpt lat="45.20492511869347" lon="8.35303487184637"><ele>134.0</ele><time>2026-03-28T16:18:15.993Z</time></trkpt><trkpt lat="45.204864561041724" lon="8.353341848136695"><ele>134.0</ele><time>2026-03-28T16:18:16.993Z</time></trkpt><trkpt lat="45.20480853370012" lon="8.353650060392997"><ele>134.0</ele><time>2026-03-28T16:18:17.993Z</time></trkpt><trkpt lat="45.20475044918998" lon="8.353961938484973"><ele>134.0</ele><time>2026-03-28T16:18:18.993Z</time></trkpt><trkpt lat="45.20469319957928" lon="8.354275046745046"><ele>134.0</ele><time>2026-03-28T16:18:19.993Z</time></trkpt><trkpt lat="45.204635319574535" lon="8.354589182205693"><ele>134.0</ele><time>2026-03-28T16:18:20.993Z</time></trkpt><trkpt lat="45.204575889245326" lon="8.354903166820913"><ele>134.0</ele><time>2026-03-28T16:18:21.993Z</time></trkpt><trkpt lat="45.204514137844484" lon="8.355215953202654"><ele>134.0</ele><time>2026-03-28T16:18:22.993Z</time></trkpt><trkpt lat="45.20445496418001" lon="8.355524118308939"><ele>134.33333333333331</ele><time>2026-03-28T16:18:23.993Z</time></trkpt><trkpt lat="45.204398204761205" lon="8.355825371765858"><ele>134.66666666666666</ele><time>2026-03-28T16:18:24.993Z</time></trkpt><trkpt lat="45.20434282674415" lon="8.356112484097643"><ele>135.0</ele><time>2026-03-28T16:18:25.993Z</time></trkpt><trkpt lat="45.20429429114176" lon="8.356388121286637"><ele>135.33333333333334</ele><time>2026-03-28T16:18:26.991Z</time></trkpt><trkpt lat="45.20424508230667" lon="8.356655213742416"><ele>135.66666666666669</ele><time>2026-03-28T16:18:27.991Z</time></trkpt><trkpt lat="45.204194852966594" lon="8.35691646583976"><ele>136.0</ele><time>2026-03-28T16:18:28.991Z</time></trkpt><trkpt lat="45.204148370121075" lon="8.357174981928658"><ele>135.66666666666669</ele><time>2026-03-28T16:18:29.991Z</time></trkpt><trkpt lat="45.204100128488975" lon="8.35742985248648"><ele>135.33333333333334</ele><time>2026-03-28T16:18:30.991Z</time></trkpt><trkpt lat="45.20405556478882" lon="8.35767408954605"><ele>135.0</ele><time>2026-03-28T16:18:31.991Z</time></trkpt><trkpt lat="45.20401535033066" lon="8.35791119108208"><ele>134.33333333333334</ele><time>2026-03-28T16:18:32.991Z</time></trkpt><trkpt lat="45.20397410356246" lon="8.358136478103454"><ele>133.66666666666669</ele><time>2026-03-28T16:18:33.991Z</time></trkpt><trkpt lat="45.20392894271853" lon="8.358348874137837"><ele>133.0</ele><time>2026-03-28T16:18:34.991Z</time></trkpt><trkpt lat="45.20388739806314" lon="8.358550639118297"><ele>133.0</ele><time>2026-03-28T16:18:35.991Z</time></trkpt><trkpt lat="45.203851687773586" lon="8.358726831896458"><ele>133.0</ele><time>2026-03-28T16:18:36.991Z</time></trkpt><trkpt lat="45.203822509655346" lon="8.358876403198233"><ele>133.0</ele><time>2026-03-28T16:18:37.991Z</time></trkpt><trkpt lat="45.20380034547621" lon="8.358997363120388"><ele>133.0</ele><time>2026-03-28T16:18:38.991Z</time></trkpt><trkpt lat="45.20378318195096" lon="8.359099963173293"><ele>133.0</ele><time>2026-03-28T16:18:39.99Z</time></trkpt><trkpt lat="45.2037572258138" lon="8.359257068645112"><ele>133.20000000000002</ele><time>2026-03-28T16:18:41.99Z</time></trkpt><trkpt lat="45.203756070624394" lon="8.359367145053293"><ele>133.4</ele><time>2026-03-28T16:18:43.99Z</time></trkpt><trkpt lat="45.203786092784526" lon="8.359452053745406"><ele>133.60000000000002</ele><time>2026-03-28T16:18:45.99Z</time></trkpt><trkpt lat="45.2039018046168" lon="8.359521228116613"><ele>133.8</ele><time>2026-03-28T16:18:47.991Z</time></trkpt><trkpt lat="45.204000107782015" lon="8.359551607286107"><ele>134.0</ele><time>2026-03-28T16:18:48.991Z</time></trkpt><trkpt lat="45.20412433373126" lon="8.35958169170812"><ele>134.25</ele><time>2026-03-28T16:18:49.991Z</time></trkpt><trkpt lat="45.204249895706226" lon="8.359619571271693"><ele>134.5</ele><time>2026-03-28T16:18:50.991Z</time></trkpt><trkpt lat="45.20439480451682" lon="8.359669698526822"><ele>134.75</ele><time>2026-03-28T16:18:51.991Z</time></trkpt><trkpt lat="45.20454992799895" lon="8.359727680979509"><ele>135.0</ele><time>2026-03-28T16:18:52.991Z</time></trkpt><trkpt lat="45.20470751152416" lon="8.359784158379576"><ele>135.33333333333334</ele><time>2026-03-28T16:18:53.991Z</time></trkpt><trkpt lat="45.20488336955005" lon="8.359843291999661"><ele>135.66666666666669</ele><time>2026-03-28T16:18:54.991Z</time></trkpt><trkpt lat="45.20506863526731" lon="8.359905950596659"><ele>136.0</ele><time>2026-03-28T16:18:55.991Z</time></trkpt><trkpt lat="45.20525342824384" lon="8.359965836730195"><ele>136.0</ele><time>2026-03-28T16:18:56.991Z</time></trkpt><trkpt lat="45.20544969746614" lon="8.360030914715088"><ele>136.0</ele><time>2026-03-28T16:18:57.991Z</time></trkpt><trkpt lat="45.205650974937136" lon="8.36009763426464"><ele>136.0</ele><time>2026-03-28T16:18:58.991Z</time></trkpt><trkpt lat="45.20584970769401" lon="8.360162157988135"><ele>136.0</ele><time>2026-03-28T16:18:59.991Z</time></trkpt><trkpt lat="45.20605531108491" lon="8.36023081697404"><ele>136.0</ele><time>2026-03-28T16:19:00.991Z</time></trkpt><trkpt lat="45.206264666812686" lon="8.360306361518475"><ele>136.0</ele><time>2026-03-28T16:19:01.991Z</time></trkpt><trkpt lat="45.20647866703706" lon="8.36038237424551"><ele>135.66666666666669</ele><time>2026-03-28T16:19:02.991Z</time></trkpt><trkpt lat="45.206691308146944" lon="8.360455580494119"><ele>135.33333333333334</ele><time>2026-03-28T16:19:03.991Z</time></trkpt><trkpt lat="45.206906648714885" lon="8.360530924304873"><ele>135.0</ele><time>2026-03-28T16:19:04.991Z</time></trkpt><trkpt lat="45.207123928974426" lon="8.360608328999575"><ele>135.0</ele><time>2026-03-28T16:19:05.991Z</time></trkpt><trkpt lat="45.20734145924034" lon="8.360687323966685"><ele>135.0</ele><time>2026-03-28T16:19:06.991Z</time></trkpt><trkpt lat="45.20755888657647" lon="8.360765807023498"><ele>135.0</ele><time>2026-03-28T16:19:07.991Z</time></trkpt><trkpt lat="45.20777801188521" lon="8.360843275693478"><ele>135.0</ele><time>2026-03-28T16:19:08.991Z</time></trkpt><trkpt lat="45.207995237513146" lon="8.360918998724324"><ele>135.0</ele><time>2026-03-28T16:19:09.991Z</time></trkpt><trkpt lat="45.20821137126053" lon="8.360994373119528"><ele>135.0</ele><time>2026-03-28T16:19:10.991Z</time></trkpt><trkpt lat="45.208427092059964" lon="8.361067351618578"><ele>135.0</ele><time>2026-03-28T16:19:11.991Z</time></trkpt><trkpt lat="45.20863866997677" lon="8.361137039523994"><ele>135.0</ele><time>2026-03-28T16:19:12.991Z</time></trkpt><trkpt lat="45.208843818684464" lon="8.361205475334646"><ele>135.0</ele><time>2026-03-28T16:19:13.991Z</time></trkpt><trkpt lat="45.20904537788625" lon="8.361276573971109"><ele>134.66666666666666</ele><time>2026-03-28T16:19:14.991Z</time></trkpt><trkpt lat="45.20924136959317" lon="8.361344480897602"><ele>134.33333333333331</ele><time>2026-03-28T16:19:15.991Z</time></trkpt><trkpt lat="45.209432158927946" lon="8.361410929452296"><ele>134.0</ele><time>2026-03-28T16:19:16.991Z</time></trkpt><trkpt lat="45.20961448081926" lon="8.36147690905061"><ele>134.0</ele><time>2026-03-28T16:19:17.991Z</time></trkpt><trkpt lat="45.209795935747046" lon="8.361541793617258"><ele>134.0</ele><time>2026-03-28T16:19:18.991Z</time></trkpt><trkpt lat="45.209981539511155" lon="8.361606404117243"><ele>134.0</ele><time>2026-03-28T16:19:19.991Z</time></trkpt><trkpt lat="45.21016928977816" lon="8.361671539875466"><ele>134.0</ele><time>2026-03-28T16:19:20.991Z</time></trkpt><trkpt lat="45.210361263708734" lon="8.361737981500315"><ele>134.0</ele><time>2026-03-28T16:19:21.991Z</time></trkpt><trkpt lat="45.21055604394246" lon="8.361807559634572"><ele>134.0</ele><time>2026-03-28T16:19:22.991Z</time></trkpt><trkpt lat="45.21075366067762" lon="8.361878309284485"><ele>134.0</ele><time>2026-03-28T16:19:23.991Z</time></trkpt><trkpt lat="45.2109571074994" lon="8.361948518119462"><ele>134.0</ele><time>2026-03-28T16:19:24.991Z</time></trkpt><trkpt lat="45.21116556407435" lon="8.3620192190613"><ele>134.0</ele><time>2026-03-28T16:19:25.991Z</time></trkpt><trkpt lat="45.21137618953508" lon="8.362090553013"><ele>133.0</ele><time>2026-03-28T16:19:26.991Z</time></trkpt><trkpt lat="45.21159035849984" lon="8.362163084332302"><ele>132.0</ele><time>2026-03-28T16:19:27.991Z</time></trkpt><trkpt lat="45.2118063234694" lon="8.36223933937177"><ele>131.0</ele><time>2026-03-28T16:19:28.991Z</time></trkpt><trkpt lat="45.212026451067665" lon="8.362314424841257"><ele>129.5</ele><time>2026-03-28T16:19:29.991Z</time></trkpt><trkpt lat="45.21224925518737" lon="8.362390218334747"><ele>128.0</ele><time>2026-03-28T16:19:30.991Z</time></trkpt><trkpt lat="45.21247557850825" lon="8.362470221316178"><ele>127.5</ele><time>2026-03-28T16:19:31.991Z</time></trkpt><trkpt lat="45.21270279805781" lon="8.362547017422342"><ele>127.0</ele><time>2026-03-28T16:19:32.991Z</time></trkpt><trkpt lat="45.212934187490774" lon="8.362622709200954"><ele>127.0</ele><time>2026-03-28T16:19:33.991Z</time></trkpt><trkpt lat="45.21316772174217" lon="8.36269970586368"><ele>127.0</ele><time>2026-03-28T16:19:34.991Z</time></trkpt><trkpt lat="45.21339895882174" lon="8.362779683512702"><ele>127.0</ele><time>2026-03-28T16:19:35.991Z</time></trkpt><trkpt lat="45.21362570520514" lon="8.362859954126607"><ele>127.0</ele><time>2026-03-28T16:19:36.991Z</time></trkpt><trkpt lat="45.21385014341469" lon="8.362938588765594"><ele>127.0</ele><time>2026-03-28T16:19:37.991Z</time></trkpt><trkpt lat="45.21407647872838" lon="8.363017847455112"><ele>127.0</ele><time>2026-03-28T16:19:38.991Z</time></trkpt><trkpt lat="45.21430385105477" lon="8.363098477023183"><ele>127.0</ele><time>2026-03-28T16:19:39.991Z</time></trkpt><trkpt lat="45.214533671621474" lon="8.36318108200114"><ele>127.0</ele><time>2026-03-28T16:19:40.991Z</time></trkpt><trkpt lat="45.21476448600605" lon="8.363265084736511"><ele>126.5</ele><time>2026-03-28T16:19:41.991Z</time></trkpt><trkpt lat="45.21499631641298" lon="8.363346429178211"><ele>126.0</ele><time>2026-03-28T16:19:42.991Z</time></trkpt><trkpt lat="45.21522731352374" lon="8.363424930283541"><ele>126.0</ele><time>2026-03-28T16:19:43.991Z</time></trkpt><trkpt lat="45.21545564176348" lon="8.363501383310552"><ele>126.0</ele><time>2026-03-28T16:19:44.991Z</time></trkpt><trkpt lat="45.215684285931324" lon="8.363577878299544"><ele>126.0</ele><time>2026-03-28T16:19:45.991Z</time></trkpt><trkpt lat="45.21591383766604" lon="8.363658473049863"><ele>126.0</ele><time>2026-03-28T16:19:46.991Z</time></trkpt><trkpt lat="45.216144503897254" lon="8.363740365032054"><ele>126.0</ele><time>2026-03-28T16:19:47.991Z</time></trkpt><trkpt lat="45.21637867059998" lon="8.36382069002031"><ele>126.0</ele><time>2026-03-28T16:19:48.991Z</time></trkpt><trkpt lat="45.21661013636736" lon="8.363898586484705"><ele>126.0</ele><time>2026-03-28T16:19:49.991Z</time></trkpt><trkpt lat="45.21684545663118" lon="8.363978473249214"><ele>126.0</ele><time>2026-03-28T16:19:50.991Z</time></trkpt><trkpt lat="45.217079066762466" lon="8.364059351154449"><ele>126.0</ele><time>2026-03-28T16:19:51.991Z</time></trkpt><trkpt lat="45.2173086074354" lon="8.364138244794947"><ele>126.0</ele><time>2026-03-28T16:19:52.991Z</time></trkpt><trkpt lat="45.21753151982721" lon="8.364212770236499"><ele>125.5</ele><time>2026-03-28T16:19:53.991Z</time></trkpt><trkpt lat="45.21775194979997" lon="8.364286752860403"><ele>125.0</ele><time>2026-03-28T16:19:54.991Z</time></trkpt><trkpt lat="45.217969808821394" lon="8.364364681711157"><ele>124.5</ele><time>2026-03-28T16:19:55.991Z</time></trkpt><trkpt lat="45.21819283520895" lon="8.364445531171206"><ele>124.0</ele><time>2026-03-28T16:19:56.991Z</time></trkpt><trkpt lat="45.21841360912138" lon="8.364528871916459"><ele>124.0</ele><time>2026-03-28T16:19:57.991Z</time></trkpt><trkpt lat="45.2186375062243" lon="8.364612064065545"><ele>124.0</ele><time>2026-03-28T16:19:58.991Z</time></trkpt><trkpt lat="45.21885622559051" lon="8.364688255626936"><ele>125.0</ele><time>2026-03-28T16:19:59.991Z</time></trkpt><trkpt lat="45.21906748980292" lon="8.364758059442668"><ele>126.0</ele><time>2026-03-28T16:20:00.991Z</time></trkpt><trkpt lat="45.2192708449634" lon="8.364829396553029"><ele>127.0</ele><time>2026-03-28T16:20:01.991Z</time></trkpt><trkpt lat="45.21947169225391" lon="8.364899053255138"><ele>127.0</ele><time>2026-03-28T16:20:02.991Z</time></trkpt><trkpt lat="45.219665241927785" lon="8.364962546279463"><ele>127.0</ele><time>2026-03-28T16:20:03.991Z</time></trkpt><trkpt lat="45.21985354937827" lon="8.365027843110806"><ele>127.0</ele><time>2026-03-28T16:20:04.991Z</time></trkpt><trkpt lat="45.22003717945026" lon="8.365092411057947"><ele>127.66666666666667</ele><time>2026-03-28T16:20:05.991Z</time></trkpt><trkpt lat="45.22021599693641" lon="8.365159789346473"><ele>128.33333333333334</ele><time>2026-03-28T16:20:06.991Z</time></trkpt><trkpt lat="45.22039403286345" lon="8.365224325081885"><ele>129.0</ele><time>2026-03-28T16:20:07.991Z</time></trkpt><trkpt lat="45.22057332757905" lon="8.365279404647225"><ele>129.66666666666666</ele><time>2026-03-28T16:20:08.991Z</time></trkpt><trkpt lat="45.22075873729121" lon="8.36531454240062"><ele>130.33333333333331</ele><time>2026-03-28T16:20:09.991Z</time></trkpt><trkpt lat="45.22094503862204" lon="8.36530487488503"><ele>131.0</ele><time>2026-03-28T16:20:10.991Z</time></trkpt><trkpt lat="45.221119543100656" lon="8.365244716456841"><ele>131.0</ele><time>2026-03-28T16:20:11.991Z</time></trkpt><trkpt lat="45.22128666875858" lon="8.365143233034694"><ele>131.0</ele><time>2026-03-28T16:20:12.991Z</time></trkpt><trkpt lat="45.221446488348285" lon="8.365020254995086"><ele>131.0</ele><time>2026-03-28T16:20:13.991Z</time></trkpt><trkpt lat="45.221587123444145" lon="8.364895971778065"><ele>131.25</ele><time>2026-03-28T16:20:14.992Z</time></trkpt><trkpt lat="45.22172145036457" lon="8.364778283623622"><ele>131.5</ele><time>2026-03-28T16:20:15.992Z</time></trkpt><trkpt lat="45.22184819319344" lon="8.364674507645256"><ele>131.75</ele><time>2026-03-28T16:20:16.992Z</time></trkpt><trkpt lat="45.22197895582165" lon="8.364602235221588"><ele>132.0</ele><time>2026-03-28T16:20:17.992Z</time></trkpt><trkpt lat="45.222110955646926" lon="8.364567602466083"><ele>132.0</ele><time>2026-03-28T16:20:18.992Z</time></trkpt><trkpt lat="45.22225313985508" lon="8.364584826089734"><ele>132.0</ele><time>2026-03-28T16:20:19.992Z</time></trkpt><trkpt lat="45.22239652534406" lon="8.364635938491249"><ele>132.0</ele><time>2026-03-28T16:20:20.992Z</time></trkpt><trkpt lat="45.22254401145757" lon="8.364688545593223"><ele>132.0</ele><time>2026-03-28T16:20:21.992Z</time></trkpt><trkpt lat="45.22269920855216" lon="8.364736981555103"><ele>132.0</ele><time>2026-03-28T16:20:22.992Z</time></trkpt><trkpt lat="45.222865698842156" lon="8.364788447421907"><ele>132.0</ele><time>2026-03-28T16:20:23.992Z</time></trkpt><trkpt lat="45.223037449291766" lon="8.364853682535689"><ele>132.0</ele><time>2026-03-28T16:20:24.992Z</time></trkpt><trkpt lat="45.22321978131775" lon="8.364936575408715"><ele>132.0</ele><time>2026-03-28T16:20:25.992Z</time></trkpt><trkpt lat="45.223408379007736" lon="8.365013464155519"><ele>132.0</ele><time>2026-03-28T16:20:26.992Z</time></trkpt><trkpt lat="45.223608348146946" lon="8.365091539504663"><ele>132.0</ele><time>2026-03-28T16:20:27.992Z</time></trkpt><trkpt lat="45.223812715303154" lon="8.365167020548446"><ele>132.0</ele><time>2026-03-28T16:20:28.992Z</time></trkpt><trkpt lat="45.22402123952417" lon="8.365245970918854"><ele>132.0</ele><time>2026-03-28T16:20:29.992Z</time></trkpt><trkpt lat="45.22423561303529" lon="8.365326498003494"><ele>132.0</ele><time>2026-03-28T16:20:30.992Z</time></trkpt><trkpt lat="45.22445406573146" lon="8.365410231233117"><ele>132.0</ele><time>2026-03-28T16:20:31.992Z</time></trkpt><trkpt lat="45.22467742140966" lon="8.365496361725102"><ele>132.0</ele><time>2026-03-28T16:20:32.991Z</time></trkpt><trkpt lat="45.22490585656519" lon="8.365579971404449"><ele>131.5</ele><time>2026-03-28T16:20:33.99Z</time></trkpt><trkpt lat="45.22513955015392" lon="8.365663161146795"><ele>131.0</ele><time>2026-03-28T16:20:34.99Z</time></trkpt><trkpt lat="45.2253773992708" lon="8.365751446105174"><ele>131.0</ele><time>2026-03-28T16:20:35.991Z</time></trkpt><trkpt lat="45.22561824965857" lon="8.365841492024286"><ele>131.0</ele><time>2026-03-28T16:20:36.99Z</time></trkpt><trkpt lat="45.22585776401374" lon="8.365937236686452"><ele>130.0</ele><time>2026-03-28T16:20:37.99Z</time></trkpt><trkpt lat="45.226097480269644" lon="8.366029859870146"><ele>129.0</ele><time>2026-03-28T16:20:38.991Z</time></trkpt><trkpt lat="45.22633391360986" lon="8.366117752387462"><ele>129.5</ele><time>2026-03-28T16:20:39.991Z</time></trkpt><trkpt lat="45.226566426414145" lon="8.366207275575748"><ele>130.0</ele><time>2026-03-28T16:20:40.991Z</time></trkpt><trkpt lat="45.22679721081674" lon="8.36629446491719"><ele>130.0</ele><time>2026-03-28T16:20:41.991Z</time></trkpt><trkpt lat="45.227026713770485" lon="8.366378133413525"><ele>130.0</ele><time>2026-03-28T16:20:42.99Z</time></trkpt><trkpt lat="45.22725546225987" lon="8.3664621546018"><ele>130.0</ele><time>2026-03-28T16:20:43.99Z</time></trkpt><trkpt lat="45.22748603399191" lon="8.366545610722486"><ele>130.0</ele><time>2026-03-28T16:20:44.991Z</time></trkpt><trkpt lat="45.227713422171824" lon="8.366624638331325"><ele>130.0</ele><time>2026-03-28T16:20:45.99Z</time></trkpt><trkpt lat="45.22793541815628" lon="8.36670784377986"><ele>130.0</ele><time>2026-03-28T16:20:46.99Z</time></trkpt><trkpt lat="45.22815769649715" lon="8.36678837028924"><ele>130.5</ele><time>2026-03-28T16:20:47.99Z</time></trkpt><trkpt lat="45.228379632409876" lon="8.366868216600484"><ele>131.0</ele><time>2026-03-28T16:20:48.99Z</time></trkpt><trkpt lat="45.228594577668915" lon="8.366946299704221"><ele>131.0</ele><time>2026-03-28T16:20:49.99Z</time></trkpt><trkpt lat="45.228798589557066" lon="8.367021644749398"><ele>131.0</ele><time>2026-03-28T16:20:50.99Z</time></trkpt><trkpt lat="45.22899164524787" lon="8.367093279702535"><ele>131.0</ele><time>2026-03-28T16:20:51.99Z</time></trkpt><trkpt lat="45.22917833621778" lon="8.367162355759882"><ele>131.0</ele><time>2026-03-28T16:20:52.99Z</time></trkpt><trkpt lat="45.2293537714271" lon="8.367237321762971"><ele>131.0</ele><time>2026-03-28T16:20:53.99Z</time></trkpt><trkpt lat="45.2295186697451" lon="8.367328169654416"><ele>131.0</ele><time>2026-03-28T16:20:54.99Z</time></trkpt><trkpt lat="45.229665117243286" lon="8.367456941351538"><ele>131.0</ele><time>2026-03-28T16:20:55.99Z</time></trkpt><trkpt lat="45.22980274709956" lon="8.367613983285889"><ele>131.0</ele><time>2026-03-28T16:20:56.99Z</time></trkpt><trkpt lat="45.22992532654739" lon="8.367792071688736"><ele>131.0</ele><time>2026-03-28T16:20:57.991Z</time></trkpt><trkpt lat="45.230028935044736" lon="8.367995158379708"><ele>130.66666666666666</ele><time>2026-03-28T16:20:58.991Z</time></trkpt><trkpt lat="45.23011913816853" lon="8.368209816265333"><ele>130.33333333333334</ele><time>2026-03-28T16:20:59.991Z</time></trkpt><trkpt lat="45.23019815836655" lon="8.36844079739495"><ele>130.0</ele><time>2026-03-28T16:21:00.991Z</time></trkpt><trkpt lat="45.23027159334357" lon="8.368673757417762"><ele>129.33333333333334</ele><time>2026-03-28T16:21:01.991Z</time></trkpt><trkpt lat="45.230359063561444" lon="8.36888707524383"><ele>128.66666666666666</ele><time>2026-03-28T16:21:02.991Z</time></trkpt><trkpt lat="45.23047395446091" lon="8.369072005179971"><ele>128.0</ele><time>2026-03-28T16:21:03.991Z</time></trkpt><trkpt lat="45.23060567820098" lon="8.36922898809056"><ele>127.33333333333333</ele><time>2026-03-28T16:21:04.991Z</time></trkpt><trkpt lat="45.23074201487336" lon="8.369363769975086"><ele>126.66666666666666</ele><time>2026-03-28T16:21:05.991Z</time></trkpt><trkpt lat="45.23087140023904" lon="8.369487326170573"><ele>126.0</ele><time>2026-03-28T16:21:06.991Z</time></trkpt><trkpt lat="45.230993841745615" lon="8.36961150459297"><ele>126.0</ele><time>2026-03-28T16:21:07.991Z</time></trkpt><trkpt lat="45.231116713931485" lon="8.369740329348707"><ele>126.0</ele><time>2026-03-28T16:21:08.991Z</time></trkpt><trkpt lat="45.23123170563654" lon="8.36988677258107"><ele>126.0</ele><time>2026-03-28T16:21:09.991Z</time></trkpt><trkpt lat="45.23133854102275" lon="8.370054590217704"><ele>126.0</ele><time>2026-03-28T16:21:10.991Z</time></trkpt><trkpt lat="45.231429393333336" lon="8.370245776550696"><ele>126.0</ele><time>2026-03-28T16:21:11.991Z</time></trkpt><trkpt lat="45.23150296668539" lon="8.370454668675873"><ele>126.0</ele><time>2026-03-28T16:21:12.991Z</time></trkpt><trkpt lat="45.23155579560373" lon="8.370681048772367"><ele>126.0</ele><time>2026-03-28T16:21:13.991Z</time></trkpt><trkpt lat="45.23159713220525" lon="8.37091538496602"><ele>126.0</ele><time>2026-03-28T16:21:14.991Z</time></trkpt><trkpt lat="45.23164032543549" lon="8.371158260150478"><ele>126.0</ele><time>2026-03-28T16:21:15.991Z</time></trkpt><trkpt lat="45.23170665874328" lon="8.371403105538644"><ele>126.66666666666666</ele><time>2026-03-28T16:21:16.991Z</time></trkpt><trkpt lat="45.23180010858986" lon="8.371639524128977"><ele>127.33333333333333</ele><time>2026-03-28T16:21:17.991Z</time></trkpt><trkpt lat="45.2319183180045" lon="8.371870013104587"><ele>128.0</ele><time>2026-03-28T16:21:18.991Z</time></trkpt><trkpt lat="45.2320567723234" lon="8.372092887027154"><ele>127.66666666666666</ele><time>2026-03-28T16:21:19.991Z</time></trkpt><trkpt lat="45.23220880968761" lon="8.372307193089883"><ele>127.33333333333334</ele><time>2026-03-28T16:21:20.991Z</time></trkpt><trkpt lat="45.23237474663085" lon="8.372520775375486"><ele>127.0</ele><time>2026-03-28T16:21:21.991Z</time></trkpt><trkpt lat="45.232550026978544" lon="8.37273848293476"><ele>127.0</ele><time>2026-03-28T16:21:22.991Z</time></trkpt><trkpt lat="45.23272705732022" lon="8.372960251107857"><ele>127.0</ele><time>2026-03-28T16:21:23.991Z</time></trkpt><trkpt lat="45.23290784728645" lon="8.373185571717046"><ele>126.5</ele><time>2026-03-28T16:21:24.991Z</time></trkpt><trkpt lat="45.23308643991311" lon="8.37341500995438"><ele>126.0</ele><time>2026-03-28T16:21:25.991Z</time></trkpt><trkpt lat="45.233264700496264" lon="8.373638669696332"><ele>126.0</ele><time>2026-03-28T16:21:26.991Z</time></trkpt><trkpt lat="45.23344245950425" lon="8.373863811422504"><ele>126.0</ele><time>2026-03-28T16:21:27.991Z</time></trkpt><trkpt lat="45.233620498434696" lon="8.374088061652978"><ele>126.0</ele><time>2026-03-28T16:21:28.991Z</time></trkpt><trkpt lat="45.23379728474923" lon="8.374312953388614"><ele>126.0</ele><time>2026-03-28T16:21:29.991Z</time></trkpt><trkpt lat="45.23397703723372" lon="8.374534625343744"><ele>126.0</ele><time>2026-03-28T16:21:30.991Z</time></trkpt><trkpt lat="45.234152340431805" lon="8.374759264970034"><ele>126.0</ele><time>2026-03-28T16:21:31.991Z</time></trkpt><trkpt lat="45.23432261450027" lon="8.374975255974716"><ele>126.0</ele><time>2026-03-28T16:21:32.991Z</time></trkpt><trkpt lat="45.23448704342319" lon="8.375185012542849"><ele>126.0</ele><time>2026-03-28T16:21:33.991Z</time></trkpt><trkpt lat="45.23464899971571" lon="8.375392916277098"><ele>126.0</ele><time>2026-03-28T16:21:34.991Z</time></trkpt><trkpt lat="45.234815184275234" lon="8.375595842977628"><ele>126.33333333333334</ele><time>2026-03-28T16:21:35.991Z</time></trkpt><trkpt lat="45.23497234435444" lon="8.375798079849785"><ele>126.66666666666667</ele><time>2026-03-28T16:21:36.991Z</time></trkpt><trkpt lat="45.23512837478633" lon="8.375990426909805"><ele>127.0</ele><time>2026-03-28T16:21:37.991Z</time></trkpt><trkpt lat="45.23527072626341" lon="8.376175048353087"><ele>127.0</ele><time>2026-03-28T16:21:38.991Z</time></trkpt><trkpt lat="45.23541055158867" lon="8.376347934682874"><ele>127.0</ele><time>2026-03-28T16:21:39.991Z</time></trkpt><trkpt lat="45.23554340023646" lon="8.376511277629085"><ele>127.0</ele><time>2026-03-28T16:21:40.991Z</time></trkpt><trkpt lat="45.23566367745812" lon="8.376659153154556"><ele>127.5</ele><time>2026-03-28T16:21:41.991Z</time></trkpt><trkpt lat="45.23576312050251" lon="8.376788774740653"><ele>128.0</ele><time>2026-03-28T16:21:42.991Z</time></trkpt><trkpt lat="45.23584592977151" lon="8.37690228168752"><ele>128.5</ele><time>2026-03-28T16:21:43.991Z</time></trkpt><trkpt lat="45.235917764557186" lon="8.377005886239424"><ele>129.0</ele><time>2026-03-28T16:21:44.991Z</time></trkpt><trkpt lat="45.23598467496334" lon="8.37710723802562"><ele>128.5</ele><time>2026-03-28T16:21:45.991Z</time></trkpt><trkpt lat="45.23604932240201" lon="8.377203078606462"><ele>128.0</ele><time>2026-03-28T16:21:46.991Z</time></trkpt><trkpt lat="45.23613373776245" lon="8.377291193756733"><ele>127.5</ele><time>2026-03-28T16:21:47.991Z</time></trkpt><trkpt lat="45.23624501786462" lon="8.377373728449664"><ele>127.0</ele><time>2026-03-28T16:21:48.991Z</time></trkpt><trkpt lat="45.23637494610247" lon="8.377431719553444"><ele>127.0</ele><time>2026-03-28T16:21:49.991Z</time></trkpt><trkpt lat="45.23652637936061" lon="8.377473249959321"><ele>127.0</ele><time>2026-03-28T16:21:50.991Z</time></trkpt><trkpt lat="45.23669238613992" lon="8.37752078465374"><ele>127.0</ele><time>2026-03-28T16:21:51.991Z</time></trkpt><trkpt lat="45.236866668228245" lon="8.377597501775485"><ele>127.0</ele><time>2026-03-28T16:21:52.991Z</time></trkpt><trkpt lat="45.237051074188315" lon="8.377688921322"><ele>127.0</ele><time>2026-03-28T16:21:53.991Z</time></trkpt><trkpt lat="45.237232142410065" lon="8.377772839511618"><ele>127.0</ele><time>2026-03-28T16:21:54.991Z</time></trkpt><trkpt lat="45.237425384400495" lon="8.377859375319751"><ele>127.0</ele><time>2026-03-28T16:21:55.991Z</time></trkpt><trkpt lat="45.23762951519932" lon="8.377953013939294"><ele>127.0</ele><time>2026-03-28T16:21:56.991Z</time></trkpt><trkpt lat="45.23784360033126" lon="8.378051392872319"><ele>127.0</ele><time>2026-03-28T16:21:57.991Z</time></trkpt><trkpt lat="45.23805745290862" lon="8.37814983872512"><ele>127.0</ele><time>2026-03-28T16:21:58.991Z</time></trkpt><trkpt lat="45.23826854728782" lon="8.378245619297596"><ele>127.0</ele><time>2026-03-28T16:21:59.991Z</time></trkpt><trkpt lat="45.23848775714136" lon="8.378347172421742"><ele>127.0</ele><time>2026-03-28T16:22:00.991Z</time></trkpt><trkpt lat="45.238709824872124" lon="8.378452301801502"><ele>127.0</ele><time>2026-03-28T16:22:01.991Z</time></trkpt><trkpt lat="45.23893582381182" lon="8.378556554082584"><ele>126.5</ele><time>2026-03-28T16:22:02.991Z</time></trkpt><trkpt lat="45.23916494507857" lon="8.37866112715758"><ele>126.0</ele><time>2026-03-28T16:22:03.991Z</time></trkpt><trkpt lat="45.239396899745095" lon="8.378768020131734"><ele>126.0</ele><time>2026-03-28T16:22:04.991Z</time></trkpt><trkpt lat="45.239623615434766" lon="8.37888180807045"><ele>126.0</ele><time>2026-03-28T16:22:05.991Z</time></trkpt><trkpt lat="45.239846174857185" lon="8.379013108593375"><ele>126.0</ele><time>2026-03-28T16:22:06.991Z</time></trkpt><trkpt lat="45.2400616998928" lon="8.379160386018578"><ele>126.0</ele><time>2026-03-28T16:22:07.991Z</time></trkpt><trkpt lat="45.240271826730414" lon="8.379326572669637"><ele>126.0</ele><time>2026-03-28T16:22:08.991Z</time></trkpt><trkpt lat="45.2404750568296" lon="8.379512067840675"><ele>126.0</ele><time>2026-03-28T16:22:09.991Z</time></trkpt><trkpt lat="45.2406731212389" lon="8.37971244741109"><ele>126.5</ele><time>2026-03-28T16:22:10.991Z</time></trkpt><trkpt lat="45.24087253213585" lon="8.379914645311228"><ele>127.0</ele><time>2026-03-28T16:22:11.991Z</time></trkpt><trkpt lat="45.2410766288815" lon="8.380110078918738"><ele>127.0</ele><time>2026-03-28T16:22:12.991Z</time></trkpt><trkpt lat="45.24128135157401" lon="8.38029748097469"><ele>127.0</ele><time>2026-03-28T16:22:13.991Z</time></trkpt><trkpt lat="45.24149398390424" lon="8.380471042711134"><ele>126.0</ele><time>2026-03-28T16:22:14.991Z</time></trkpt><trkpt lat="45.241710897460166" lon="8.380624508817293"><ele>125.0</ele><time>2026-03-28T16:22:15.991Z</time></trkpt><trkpt lat="45.24193163755442" lon="8.380766449625712"><ele>125.0</ele><time>2026-03-28T16:22:16.991Z</time></trkpt><trkpt lat="45.24214529461895" lon="8.380907393710569"><ele>125.0</ele><time>2026-03-28T16:22:17.991Z</time></trkpt><trkpt lat="45.242350363373845" lon="8.381053806967417"><ele>125.0</ele><time>2026-03-28T16:22:18.991Z</time></trkpt><trkpt lat="45.24255127053603" lon="8.381206240120989"><ele>125.0</ele><time>2026-03-28T16:22:19.991Z</time></trkpt><trkpt lat="45.24274821747096" lon="8.38136969744577"><ele>125.0</ele><time>2026-03-28T16:22:20.991Z</time></trkpt><trkpt lat="45.242932897074475" lon="8.381551397194535"><ele>125.0</ele><time>2026-03-28T16:22:21.991Z</time></trkpt><trkpt lat="45.2431044190213" lon="8.381761630605086"><ele>125.5</ele><time>2026-03-28T16:22:22.991Z</time></trkpt><trkpt lat="45.24326785693785" lon="8.381988000178405"><ele>126.0</ele><time>2026-03-28T16:22:23.991Z</time></trkpt><trkpt lat="45.243422074706274" lon="8.382229783528938"><ele>126.0</ele><time>2026-03-28T16:22:24.992Z</time></trkpt><trkpt lat="45.243562642709676" lon="8.382490314303421"><ele>126.0</ele><time>2026-03-28T16:22:25.992Z</time></trkpt><trkpt lat="45.243696508752755" lon="8.382766782728861"><ele>126.0</ele><time>2026-03-28T16:22:26.992Z</time></trkpt><trkpt lat="45.243826657696886" lon="8.383050452691698"><ele>126.0</ele><time>2026-03-28T16:22:27.992Z</time></trkpt><trkpt lat="45.24395938438472" lon="8.383334534673164"><ele>126.5</ele><time>2026-03-28T16:22:28.992Z</time></trkpt><trkpt lat="45.2440986414927" lon="8.383621025347411"><ele>127.0</ele><time>2026-03-28T16:22:29.992Z</time></trkpt><trkpt lat="45.24424262096781" lon="8.383906725484541"><ele>126.0</ele><time>2026-03-28T16:22:30.992Z</time></trkpt><trkpt lat="45.24438290382953" lon="8.384197474450087"><ele>125.0</ele><time>2026-03-28T16:22:31.992Z</time></trkpt><trkpt lat="45.24452420572079" lon="8.384494730282933"><ele>125.0</ele><time>2026-03-28T16:22:32.992Z</time></trkpt><trkpt lat="45.24466600330692" lon="8.38479513945111"><ele>125.0</ele><time>2026-03-28T16:22:33.992Z</time></trkpt><trkpt lat="45.244809059479905" lon="8.38509263627253"><ele>125.0</ele><time>2026-03-28T16:22:34.992Z</time></trkpt><trkpt lat="45.24494432228545" lon="8.385390957352334"><ele>125.0</ele><time>2026-03-28T16:22:35.992Z</time></trkpt><trkpt lat="45.24508329929321" lon="8.385681273927561"><ele>125.0</ele><time>2026-03-28T16:22:36.992Z</time></trkpt><trkpt lat="45.245225295468906" lon="8.385963604839759"><ele>125.0</ele><time>2026-03-28T16:22:37.992Z</time></trkpt><trkpt lat="45.24536714205215" lon="8.386247692652658"><ele>125.0</ele><time>2026-03-28T16:22:38.99Z</time></trkpt><trkpt lat="45.24551065608871" lon="8.386532759067157"><ele>125.0</ele><time>2026-03-28T16:22:39.991Z</time></trkpt><trkpt lat="45.2456492757251" lon="8.38681359650272"><ele>125.0</ele><time>2026-03-28T16:22:40.991Z</time></trkpt><trkpt lat="45.2457843593157" lon="8.38708905632543"><ele>125.0</ele><time>2026-03-28T16:22:41.99Z</time></trkpt><trkpt lat="45.24592667428931" lon="8.387351902465552"><ele>125.0</ele><time>2026-03-28T16:22:42.991Z</time></trkpt><trkpt lat="45.24607812249436" lon="8.38759932743375"><ele>125.0</ele><time>2026-03-28T16:22:43.991Z</time></trkpt><trkpt lat="45.24624085126312" lon="8.38783469222398"><ele>125.5</ele><time>2026-03-28T16:22:44.99Z</time></trkpt><trkpt lat="45.246415047151615" lon="8.38806258913178"><ele>126.0</ele><time>2026-03-28T16:22:45.991Z</time></trkpt><trkpt lat="45.24659200482991" lon="8.38829467754419"><ele>125.0</ele><time>2026-03-28T16:22:46.991Z</time></trkpt><trkpt lat="45.24676734858083" lon="8.388528301676287"><ele>124.0</ele><time>2026-03-28T16:22:47.991Z</time></trkpt><trkpt lat="45.24694354012539" lon="8.388762469403215"><ele>124.5</ele><time>2026-03-28T16:22:48.99Z</time></trkpt><trkpt lat="45.24712027034201" lon="8.388996781222989"><ele>125.0</ele><time>2026-03-28T16:22:49.99Z</time></trkpt><trkpt lat="45.247291705002866" lon="8.389235496332976"><ele>125.0</ele><time>2026-03-28T16:22:50.99Z</time></trkpt><trkpt lat="45.24745470263" lon="8.389491047193887"><ele>125.0</ele><time>2026-03-28T16:22:51.99Z</time></trkpt><trkpt lat="45.24760446340135" lon="8.38976651118566"><ele>125.0</ele><time>2026-03-28T16:22:52.99Z</time></trkpt><trkpt lat="45.247748088829596" lon="8.390045113608798"><ele>125.0</ele><time>2026-03-28T16:22:53.99Z</time></trkpt><trkpt lat="45.24789101359168" lon="8.390322714804954"><ele>125.0</ele><time>2026-03-28T16:22:54.99Z</time></trkpt><trkpt lat="45.248032410883575" lon="8.390600021080706"><ele>125.0</ele><time>2026-03-28T16:22:55.99Z</time></trkpt><trkpt lat="45.24817347345518" lon="8.39086983012703"><ele>125.0</ele><time>2026-03-28T16:22:56.99Z</time></trkpt><trkpt lat="45.24831279328114" lon="8.391135303751787"><ele>125.0</ele><time>2026-03-28T16:22:57.99Z</time></trkpt><trkpt lat="45.248461209303414" lon="8.391391910860712"><ele>125.0</ele><time>2026-03-28T16:22:58.99Z</time></trkpt><trkpt lat="45.24861495610856" lon="8.391627391774175"><ele>125.0</ele><time>2026-03-28T16:22:59.99Z</time></trkpt><trkpt lat="45.248779434857255" lon="8.391823033185899"><ele>125.0</ele><time>2026-03-28T16:23:00.99Z</time></trkpt><trkpt lat="45.248967800700065" lon="8.391991866182188"><ele>125.0</ele><time>2026-03-28T16:23:01.99Z</time></trkpt><trkpt lat="45.24916721816237" lon="8.392158015163199"><ele>125.0</ele><time>2026-03-28T16:23:02.99Z</time></trkpt><trkpt lat="45.249365880096605" lon="8.39233166838892"><ele>125.5</ele><time>2026-03-28T16:23:03.99Z</time></trkpt><trkpt lat="45.24956090295183" lon="8.39251562235597"><ele>126.0</ele><time>2026-03-28T16:23:04.99Z</time></trkpt><trkpt lat="45.24975719589123" lon="8.39269592249652"><ele>126.0</ele><time>2026-03-28T16:23:05.99Z</time></trkpt><trkpt lat="45.249957710303946" lon="8.392867890536552"><ele>126.0</ele><time>2026-03-28T16:23:06.99Z</time></trkpt><trkpt lat="45.25015748592415" lon="8.393029188252912"><ele>126.0</ele><time>2026-03-28T16:23:07.99Z</time></trkpt><trkpt lat="45.25034966005507" lon="8.393170510125834"><ele>126.0</ele><time>2026-03-28T16:23:08.99Z</time></trkpt><trkpt lat="45.25055184800396" lon="8.393280774119793"><ele>126.0</ele><time>2026-03-28T16:23:09.99Z</time></trkpt><trkpt lat="45.250758463288065" lon="8.393355970425555"><ele>125.66666666666666</ele><time>2026-03-28T16:23:10.99Z</time></trkpt><trkpt lat="45.25097948384519" lon="8.393376031496272"><ele>125.33333333333333</ele><time>2026-03-28T16:23:11.99Z</time></trkpt><trkpt lat="45.251206959810354" lon="8.393367572375405"><ele>125.0</ele><time>2026-03-28T16:23:12.99Z</time></trkpt><trkpt lat="45.25144247845876" lon="8.393354679465695"><ele>125.5</ele><time>2026-03-28T16:23:13.99Z</time></trkpt><trkpt lat="45.25168228714814" lon="8.393356229539704"><ele>126.0</ele><time>2026-03-28T16:23:14.991Z</time></trkpt><trkpt lat="45.25192260543852" lon="8.393360167444241"><ele>126.0</ele><time>2026-03-28T16:23:15.991Z</time></trkpt><trkpt lat="45.252151632339" lon="8.393354601407461"><ele>126.0</ele><time>2026-03-28T16:23:16.991Z</time></trkpt><trkpt lat="45.25236375593714" lon="8.393346773357877"><ele>126.0</ele><time>2026-03-28T16:23:17.991Z</time></trkpt><trkpt lat="45.25256611351474" lon="8.393359549738"><ele>126.0</ele><time>2026-03-28T16:23:18.991Z</time></trkpt><trkpt lat="45.25276926841024" lon="8.393402917125863"><ele>126.0</ele><time>2026-03-28T16:23:19.991Z</time></trkpt><trkpt lat="45.252967213230164" lon="8.393485190108564"><ele>126.0</ele><time>2026-03-28T16:23:20.991Z</time></trkpt><trkpt lat="45.253144587400236" lon="8.393592203457478"><ele>125.66666666666666</ele><time>2026-03-28T16:23:21.991Z</time></trkpt><trkpt lat="45.25330248712778" lon="8.393721936732154"><ele>125.33333333333333</ele><time>2026-03-28T16:23:22.991Z</time></trkpt><trkpt lat="45.2534173207374" lon="8.393896366125118"><ele>125.0</ele><time>2026-03-28T16:23:23.991Z</time></trkpt><trkpt lat="45.253497254183834" lon="8.394091126084344"><ele>125.0</ele><time>2026-03-28T16:23:24.991Z</time></trkpt><trkpt lat="45.253541551062625" lon="8.39429660058149"><ele>125.0</ele><time>2026-03-28T16:23:25.991Z</time></trkpt><trkpt lat="45.25355097120419" lon="8.394513902693657"><ele>125.0</ele><time>2026-03-28T16:23:26.991Z</time></trkpt><trkpt lat="45.25354801134941" lon="8.3947521701657"><ele>125.33333333333333</ele><time>2026-03-28T16:23:27.991Z</time></trkpt><trkpt lat="45.25354766410009" lon="8.395005044778088"><ele>125.66666666666666</ele><time>2026-03-28T16:23:28.991Z</time></trkpt><trkpt lat="45.25355243869362" lon="8.395274725470168"><ele>126.0</ele><time>2026-03-28T16:23:29.991Z</time></trkpt><trkpt lat="45.253572903912136" lon="8.395555566781129"><ele>126.0</ele><time>2026-03-28T16:23:30.991Z</time></trkpt><trkpt lat="45.25361268931061" lon="8.395848443925418"><ele>126.0</ele><time>2026-03-28T16:23:31.991Z</time></trkpt><trkpt lat="45.25367459958005" lon="8.39614470122817"><ele>126.0</ele><time>2026-03-28T16:23:32.991Z</time></trkpt><trkpt lat="45.25375124124484" lon="8.396444807294138"><ele>125.66666666666666</ele><time>2026-03-28T16:23:33.991Z</time></trkpt><trkpt lat="45.25383437932572" lon="8.396738946821143"><ele>125.33333333333333</ele><time>2026-03-28T16:23:34.991Z</time></trkpt><trkpt lat="45.25392209249475" lon="8.397009483832704"><ele>125.0</ele><time>2026-03-28T16:23:35.991Z</time></trkpt><trkpt lat="45.25402575696695" lon="8.397250923368913"><ele>125.0</ele><time>2026-03-28T16:23:36.991Z</time></trkpt><trkpt lat="45.25414844882773" lon="8.397455604992816"><ele>125.0</ele><time>2026-03-28T16:23:37.991Z</time></trkpt><trkpt lat="45.254297208202566" lon="8.397608617884966"><ele>125.0</ele><time>2026-03-28T16:23:38.991Z</time></trkpt><trkpt lat="45.25447615940721" lon="8.397722943553054"><ele>125.0</ele><time>2026-03-28T16:23:39.991Z</time></trkpt><trkpt lat="45.2546771039407" lon="8.397802317568718"><ele>125.0</ele><time>2026-03-28T16:23:40.991Z</time></trkpt><trkpt lat="45.25489585414848" lon="8.397851193264183"><ele>125.0</ele><time>2026-03-28T16:23:41.991Z</time></trkpt><trkpt lat="45.25512369207389" lon="8.397882327895621"><ele>124.5</ele><time>2026-03-28T16:23:42.991Z</time></trkpt><trkpt lat="45.255352849199625" lon="8.397913692010205"><ele>124.0</ele><time>2026-03-28T16:23:43.991Z</time></trkpt><trkpt lat="45.2555729899841" lon="8.39794757587357"><ele>124.0</ele><time>2026-03-28T16:23:44.991Z</time></trkpt><trkpt lat="45.25578913779698" lon="8.398002026170747"><ele>124.0</ele><time>2026-03-28T16:23:45.991Z</time></trkpt><trkpt lat="45.255997813907285" lon="8.398095695017382"><ele>124.0</ele><time>2026-03-28T16:23:46.991Z</time></trkpt><trkpt lat="45.25620223648897" lon="8.398232540793968"><ele>124.0</ele><time>2026-03-28T16:23:47.991Z</time></trkpt><trkpt lat="45.2564009544816" lon="8.398394784236483"><ele>124.0</ele><time>2026-03-28T16:23:48.991Z</time></trkpt><trkpt lat="45.256584516628706" lon="8.398566597386937"><ele>124.0</ele><time>2026-03-28T16:23:49.991Z</time></trkpt><trkpt lat="45.25675765008635" lon="8.398747972176922"><ele>124.66666666666667</ele><time>2026-03-28T16:23:50.991Z</time></trkpt><trkpt lat="45.25691761078173" lon="8.3989554825387"><ele>125.33333333333334</ele><time>2026-03-28T16:23:51.991Z</time></trkpt><trkpt lat="45.2570620475216" lon="8.399174524926018"><ele>126.0</ele><time>2026-03-28T16:23:52.991Z</time></trkpt><trkpt lat="45.2571975546599" lon="8.399390822506573"><ele>126.0</ele><time>2026-03-28T16:23:53.991Z</time></trkpt><trkpt lat="45.25731821274674" lon="8.399604914912155"><ele>126.0</ele><time>2026-03-28T16:23:54.991Z</time></trkpt><trkpt lat="45.257418630002974" lon="8.399822937557783"><ele>126.0</ele><time>2026-03-28T16:23:55.991Z</time></trkpt><trkpt lat="45.257509911539536" lon="8.400032714392447"><ele>125.75</ele><time>2026-03-28T16:23:56.991Z</time></trkpt><trkpt lat="45.25759193724007" lon="8.400223248093052"><ele>125.5</ele><time>2026-03-28T16:23:57.991Z</time></trkpt><trkpt lat="45.25767421246739" lon="8.400391839957763"><ele>125.25</ele><time>2026-03-28T16:23:58.991Z</time></trkpt><trkpt lat="45.257764762389655" lon="8.400527943258366"><ele>125.0</ele><time>2026-03-28T16:23:59.991Z</time></trkpt><trkpt lat="45.25786450265227" lon="8.400637130998332"><ele>125.5</ele><time>2026-03-28T16:24:00.991Z</time></trkpt><trkpt lat="45.257965644781066" lon="8.400733330985117"><ele>126.0</ele><time>2026-03-28T16:24:01.991Z</time></trkpt><trkpt lat="45.2580728956397" lon="8.40081635754606"><ele>126.5</ele><time>2026-03-28T16:24:02.991Z</time></trkpt><trkpt lat="45.258190057721286" lon="8.400888167132914"><ele>127.0</ele><time>2026-03-28T16:24:03.991Z</time></trkpt><trkpt lat="45.25831806701512" lon="8.40094952225783"><ele>127.0</ele><time>2026-03-28T16:24:04.991Z</time></trkpt><trkpt lat="45.25844947872633" lon="8.400991323011082"><ele>127.0</ele><time>2026-03-28T16:24:05.991Z</time></trkpt><trkpt lat="45.258585693372275" lon="8.40102079901806"><ele>127.0</ele><time>2026-03-28T16:24:06.991Z</time></trkpt><trkpt lat="45.25872551371614" lon="8.401035437061985"><ele>127.0</ele><time>2026-03-28T16:24:07.991Z</time></trkpt><trkpt lat="45.25885963089761" lon="8.401058029427894"><ele>126.5</ele><time>2026-03-28T16:24:08.991Z</time></trkpt><trkpt lat="45.258990492748886" lon="8.401082714926837"><ele>126.0</ele><time>2026-03-28T16:24:09.991Z</time></trkpt><trkpt lat="45.25911942530451" lon="8.40111267488721"><ele>125.5</ele><time>2026-03-28T16:24:10.991Z</time></trkpt><trkpt lat="45.259243276515704" lon="8.40114937902996"><ele>125.0</ele><time>2026-03-28T16:24:11.991Z</time></trkpt><trkpt lat="45.25936454319985" lon="8.40120268951707"><ele>125.0</ele><time>2026-03-28T16:24:12.991Z</time></trkpt><trkpt lat="45.25948137859203" lon="8.401267634084522"><ele>125.0</ele><time>2026-03-28T16:24:13.991Z</time></trkpt><trkpt lat="45.259582185461205" lon="8.40135318666435"><ele>125.0</ele><time>2026-03-28T16:24:14.991Z</time></trkpt><trkpt lat="45.259658913588986" lon="8.401471301026826"><ele>125.0</ele><time>2026-03-28T16:24:15.991Z</time></trkpt><trkpt lat="45.2597077142103" lon="8.401603039279967"><ele>125.0</ele><time>2026-03-28T16:24:16.991Z</time></trkpt><trkpt lat="45.25973625614641" lon="8.401735680040186"><ele>125.0</ele><time>2026-03-28T16:24:17.991Z</time></trkpt><trkpt lat="45.25973512423845" lon="8.401869660246417"><ele>125.0</ele><time>2026-03-28T16:24:18.991Z</time></trkpt><trkpt lat="45.25971888631073" lon="8.402015662831865"><ele>125.0</ele><time>2026-03-28T16:24:19.991Z</time></trkpt><trkpt lat="45.259712692479155" lon="8.402168952214872"><ele>125.0</ele><time>2026-03-28T16:24:20.991Z</time></trkpt><trkpt lat="45.259727650708484" lon="8.40232216860237"><ele>125.0</ele><time>2026-03-28T16:24:21.991Z</time></trkpt><trkpt lat="45.2597734619037" lon="8.402481196534277"><ele>125.0</ele><time>2026-03-28T16:24:22.991Z</time></trkpt><trkpt lat="45.259834904742675" lon="8.402643377874218"><ele>125.0</ele><time>2026-03-28T16:24:23.991Z</time></trkpt><trkpt lat="45.259903896338244" lon="8.402804679949456"><ele>125.0</ele><time>2026-03-28T16:24:24.991Z</time></trkpt><trkpt lat="45.25998903190475" lon="8.402951600444746"><ele>124.8</ele><time>2026-03-28T16:24:25.991Z</time></trkpt><trkpt lat="45.26007818016691" lon="8.40306908679764"><ele>124.6</ele><time>2026-03-28T16:24:26.991Z</time></trkpt><trkpt lat="45.26016514991093" lon="8.403163127125557"><ele>124.4</ele><time>2026-03-28T16:24:27.991Z</time></trkpt><trkpt lat="45.26024633858619" lon="8.403245692205317"><ele>124.2</ele><time>2026-03-28T16:24:28.991Z</time></trkpt><trkpt lat="45.260329252771925" lon="8.40332868454143"><ele>124.0</ele><time>2026-03-28T16:24:29.991Z</time></trkpt><trkpt lat="45.26041065676738" lon="8.40339791508528"><ele>124.00000000000001</ele><time>2026-03-28T16:24:30.991Z</time></trkpt><trkpt lat="45.26047803176577" lon="8.403458197194853"><ele>124.0</ele><time>2026-03-28T16:24:31.991Z</time></trkpt><trkpt lat="45.26053807130571" lon="8.403501785486002"><ele>124.0</ele><time>2026-03-28T16:24:32.991Z</time></trkpt><trkpt lat="45.260660296347325" lon="8.403559834368515"><ele>124.0</ele><time>2026-03-28T16:24:34.991Z</time></trkpt><trkpt lat="45.26073230543328" lon="8.403585685827553"><ele>124.00000000000001</ele><time>2026-03-28T16:24:35.991Z</time></trkpt><trkpt lat="45.260807203633355" lon="8.403627859886651"><ele>124.0</ele><time>2026-03-28T16:24:36.991Z</time></trkpt><trkpt lat="45.260887664597384" lon="8.403669542595768"><ele>124.4</ele><time>2026-03-28T16:24:37.991Z</time></trkpt><trkpt lat="45.26097828300157" lon="8.403715794175854"><ele>124.80000000000001</ele><time>2026-03-28T16:24:38.991Z</time></trkpt><trkpt lat="45.261070309221274" lon="8.403760756941967"><ele>125.19999999999999</ele><time>2026-03-28T16:24:39.991Z</time></trkpt><trkpt lat="45.26115888492127" lon="8.403809681889053"><ele>125.6</ele><time>2026-03-28T16:24:40.991Z</time></trkpt><trkpt lat="45.261246732972516" lon="8.403859666636702"><ele>126.0</ele><time>2026-03-28T16:24:41.992Z</time></trkpt><trkpt lat="45.261329085290264" lon="8.403906845472255"><ele>126.19999999999999</ele><time>2026-03-28T16:24:42.992Z</time></trkpt><trkpt lat="45.26139784452721" lon="8.403942032614625"><ele>126.39999999999999</ele><time>2026-03-28T16:24:43.992Z</time></trkpt><trkpt lat="45.26149421453222" lon="8.404009539190254"><ele>126.6</ele><time>2026-03-28T16:24:45.99Z</time></trkpt><trkpt lat="45.261559484930636" lon="8.404083912615587"><ele>126.8</ele><time>2026-03-28T16:24:48.99Z</time></trkpt><trkpt lat="45.26157146452791" lon="8.404179231106424"><ele>127.0</ele><time>2026-03-28T16:24:50.99Z</time></trkpt><trkpt lat="45.2615556165235" lon="8.404371844188704"><ele>127.0</ele><time>2026-03-28T16:24:52.99Z</time></trkpt><trkpt lat="45.26153730427845" lon="8.404498401036323"><ele>126.99999999999999</ele><time>2026-03-28T16:24:53.991Z</time></trkpt><trkpt lat="45.26151932419211" lon="8.404622560884771"><ele>126.99999999999999</ele><time>2026-03-28T16:24:54.99Z</time></trkpt><trkpt lat="45.26149244664811" lon="8.404762366155433"><ele>127.0</ele><time>2026-03-28T16:24:55.99Z</time></trkpt><trkpt lat="45.26144661088682" lon="8.404899392179054"><ele>127.0</ele><time>2026-03-28T16:24:56.99Z</time></trkpt><trkpt lat="45.261392280299354" lon="8.40503761769064"><ele>127.0</ele><time>2026-03-28T16:24:57.99Z</time></trkpt><trkpt lat="45.26133662166188" lon="8.405181954150109"><ele>127.0</ele><time>2026-03-28T16:24:58.99Z</time></trkpt><trkpt lat="45.26128516025167" lon="8.405320613117496"><ele>127.0</ele><time>2026-03-28T16:24:59.99Z</time></trkpt><trkpt lat="45.26124069504402" lon="8.405471099224426"><ele>127.0</ele><time>2026-03-28T16:25:00.99Z</time></trkpt><trkpt lat="45.26119396426362" lon="8.405632422074222"><ele>127.19999999999999</ele><time>2026-03-28T16:25:01.99Z</time></trkpt><trkpt lat="45.26115513864127" lon="8.405793273915434"><ele>127.39999999999999</ele><time>2026-03-28T16:25:02.99Z</time></trkpt><trkpt lat="45.261116162242516" lon="8.405945446441242"><ele>127.60000000000001</ele><time>2026-03-28T16:25:03.99Z</time></trkpt><trkpt lat="45.2610809701049" lon="8.406085231212664"><ele>127.80000000000001</ele><time>2026-03-28T16:25:04.99Z</time></trkpt><trkpt lat="45.261047951655954" lon="8.406215985609697"><ele>128.0</ele><time>2026-03-28T16:25:05.99Z</time></trkpt><trkpt lat="45.261022512772605" lon="8.406341698324155"><ele>127.99999999999999</ele><time>2026-03-28T16:25:06.99Z</time></trkpt><trkpt lat="45.26099391149622" lon="8.406462344563298"><ele>128.0</ele><time>2026-03-28T16:25:07.991Z</time></trkpt><trkpt lat="45.26096546773499" lon="8.406576247512119"><ele>128.0</ele><time>2026-03-28T16:25:08.991Z</time></trkpt><trkpt lat="45.26093846710143" lon="8.40667991798611"><ele>128.0</ele><time>2026-03-28T16:25:09.991Z</time></trkpt><trkpt lat="45.26091270697073" lon="8.406779421464279"><ele>127.99999999999999</ele><time>2026-03-28T16:25:10.991Z</time></trkpt><trkpt lat="45.260894776851025" lon="8.406877117990184"><ele>128.0</ele><time>2026-03-28T16:25:11.991Z</time></trkpt><trkpt lat="45.260902380980475" lon="8.406966958857812"><ele>128.0</ele><time>2026-03-28T16:25:12.991Z</time></trkpt><trkpt lat="45.26095746516052" lon="8.407096257782698"><ele>128.0</ele><time>2026-03-28T16:25:14.991Z</time></trkpt><trkpt lat="45.26109117318621" lon="8.407158643427849"><ele>128.0</ele><time>2026-03-28T16:25:16.991Z</time></trkpt><trkpt lat="45.261183791609874" lon="8.407197806473926"><ele>128.0</ele><time>2026-03-28T16:25:17.991Z</time></trkpt><trkpt lat="45.26128728056312" lon="8.407246627860193"><ele>127.60000000000001</ele><time>2026-03-28T16:25:18.991Z</time></trkpt><trkpt lat="45.261389543426226" lon="8.407286712078239"><ele>127.20000000000002</ele><time>2026-03-28T16:25:19.991Z</time></trkpt><trkpt lat="45.26149383384769" lon="8.407326462799139"><ele>126.8</ele><time>2026-03-28T16:25:20.991Z</time></trkpt><trkpt lat="45.26159669659146" lon="8.407373223384367"><ele>126.4</ele><time>2026-03-28T16:25:21.991Z</time></trkpt><trkpt lat="45.261698582564414" lon="8.40742850279802"><ele>126.0</ele><time>2026-03-28T16:25:22.991Z</time></trkpt><trkpt lat="45.26179343656973" lon="8.407479805720039"><ele>125.83333333333333</ele><time>2026-03-28T16:25:23.991Z</time></trkpt><trkpt lat="45.26187994536365" lon="8.407530410210333"><ele>125.66666666666666</ele><time>2026-03-28T16:25:24.991Z</time></trkpt><trkpt lat="45.26195551884609" lon="8.407581708816538"><ele>125.5</ele><time>2026-03-28T16:25:25.991Z</time></trkpt><trkpt lat="45.26202546746991" lon="8.407633903549861"><ele>125.33333333333333</ele><time>2026-03-28T16:25:26.991Z</time></trkpt><trkpt lat="45.26209122089498" lon="8.407691206242811"><ele>125.16666666666666</ele><time>2026-03-28T16:25:27.991Z</time></trkpt><trkpt lat="45.26214694007323" lon="8.407742117787494"><ele>125.0</ele><time>2026-03-28T16:25:28.991Z</time></trkpt><trkpt lat="45.262199009408526" lon="8.407857886124493"><ele>125.0</ele><time>2026-03-28T16:25:30.991Z</time></trkpt><trkpt lat="45.26215457289665" lon="8.408008715272587"><ele>125.0</ele><time>2026-03-28T16:25:32.991Z</time></trkpt><trkpt lat="45.26211161210786" lon="8.408098517311988"><ele>125.0</ele><time>2026-03-28T16:25:33.991Z</time></trkpt><trkpt lat="45.262066163727404" lon="8.408200077721899"><ele>125.0</ele><time>2026-03-28T16:25:34.991Z</time></trkpt><trkpt lat="45.26202017536195" lon="8.408311041488364"><ele>125.0</ele><time>2026-03-28T16:25:35.991Z</time></trkpt><trkpt lat="45.26197887366986" lon="8.408412842533902"><ele>124.99999999999999</ele><time>2026-03-28T16:25:36.991Z</time></trkpt><trkpt lat="45.26194062220942" lon="8.408512894239294"><ele>125.0</ele><time>2026-03-28T16:25:37.991Z</time></trkpt><trkpt lat="45.26189903119795" lon="8.408613335138664"><ele>125.0</ele><time>2026-03-28T16:25:38.991Z</time></trkpt><trkpt lat="45.2618555333098" lon="8.408701122411864"><ele>125.0</ele><time>2026-03-28T16:25:39.991Z</time></trkpt><trkpt lat="45.2618217645355" lon="8.40878631440936"><ele>124.99999999999999</ele><time>2026-03-28T16:25:40.991Z</time></trkpt><trkpt lat="45.261793608971274" lon="8.408869120224375"><ele>125.0</ele><time>2026-03-28T16:25:41.991Z</time></trkpt><trkpt lat="45.26173883716854" lon="8.40900132214403"><ele>125.0</ele><time>2026-03-28T16:25:43.991Z</time></trkpt><trkpt lat="45.26169771722911" lon="8.409109875715561"><ele>125.0</ele><time>2026-03-28T16:25:45.991Z</time></trkpt><trkpt lat="45.26167136011764" lon="8.409249290958881"><ele>125.0</ele><time>2026-03-28T16:25:47.991Z</time></trkpt><trkpt lat="45.26171259209224" lon="8.409383424810237"><ele>125.0</ele><time>2026-03-28T16:25:49.991Z</time></trkpt><trkpt lat="45.26181660205315" lon="8.409516948300752"><ele>125.0</ele><time>2026-03-28T16:25:51.991Z</time></trkpt><trkpt lat="45.26187642930936" lon="8.40959366168264"><ele>125.16666666666666</ele><time>2026-03-28T16:25:52.991Z</time></trkpt><trkpt lat="45.26193524165705" lon="8.409667987397754"><ele>125.33333333333333</ele><time>2026-03-28T16:25:53.991Z</time></trkpt><trkpt lat="45.26199370217451" lon="8.40973399266087"><ele>125.5</ele><time>2026-03-28T16:25:54.991Z</time></trkpt><trkpt lat="45.26205014838498" lon="8.40979833127138"><ele>125.66666666666666</ele><time>2026-03-28T16:25:55.991Z</time></trkpt><trkpt lat="45.262110048358146" lon="8.409870266835611"><ele>125.83333333333333</ele><time>2026-03-28T16:25:56.991Z</time></trkpt><trkpt lat="45.26216852620647" lon="8.409951300640008"><ele>126.0</ele><time>2026-03-28T16:25:57.991Z</time></trkpt><trkpt lat="45.26222842424732" lon="8.41004016304687"><ele>125.6</ele><time>2026-03-28T16:25:58.991Z</time></trkpt><trkpt lat="45.26228281757652" lon="8.410146629465329"><ele>125.19999999999999</ele><time>2026-03-28T16:25:59.991Z</time></trkpt><trkpt lat="45.262335634897404" lon="8.410255683538297"><ele>124.80000000000001</ele><time>2026-03-28T16:26:00.991Z</time></trkpt><trkpt lat="45.262382580874274" lon="8.41037608069794"><ele>124.4</ele><time>2026-03-28T16:26:01.991Z</time></trkpt><trkpt lat="45.262430641012806" lon="8.410504191694043"><ele>124.0</ele><time>2026-03-28T16:26:02.991Z</time></trkpt><trkpt lat="45.262474520855335" lon="8.410633989117416"><ele>124.0</ele><time>2026-03-28T16:26:03.991Z</time></trkpt><trkpt lat="45.26251995818266" lon="8.410757346448591"><ele>124.0</ele><time>2026-03-28T16:26:04.991Z</time></trkpt><trkpt lat="45.26256527667345" lon="8.410886033494043"><ele>124.0</ele><time>2026-03-28T16:26:05.991Z</time></trkpt><trkpt lat="45.262610069377125" lon="8.41101586324817"><ele>124.0</ele><time>2026-03-28T16:26:06.991Z</time></trkpt><trkpt lat="45.26266191485889" lon="8.411149860320934"><ele>124.0</ele><time>2026-03-28T16:26:07.991Z</time></trkpt><trkpt lat="45.26271551101156" lon="8.411288685503175"><ele>123.75</ele><time>2026-03-28T16:26:08.991Z</time></trkpt><trkpt lat="45.262769008906304" lon="8.411431582372977"><ele>123.5</ele><time>2026-03-28T16:26:09.991Z</time></trkpt><trkpt lat="45.26282496138084" lon="8.411581849513512"><ele>123.25</ele><time>2026-03-28T16:26:10.991Z</time></trkpt><trkpt lat="45.26288044856258" lon="8.411733318662817"><ele>123.0</ele><time>2026-03-28T16:26:11.991Z</time></trkpt><trkpt lat="45.2629373408628" lon="8.411884908888629"><ele>123.0</ele><time>2026-03-28T16:26:12.991Z</time></trkpt><trkpt lat="45.26299478268728" lon="8.412038714120113"><ele>123.0</ele><time>2026-03-28T16:26:13.991Z</time></trkpt><trkpt lat="45.26305447706992" lon="8.412189905055238"><ele>123.0</ele><time>2026-03-28T16:26:14.991Z</time></trkpt><trkpt lat="45.26311096915493" lon="8.41233618364718"><ele>123.0</ele><time>2026-03-28T16:26:15.991Z</time></trkpt><trkpt lat="45.2631665347827" lon="8.412476543810323"><ele>123.0</ele><time>2026-03-28T16:26:16.991Z</time></trkpt><trkpt lat="45.26321963676681" lon="8.412607275735354"><ele>123.00000000000001</ele><time>2026-03-28T16:26:17.991Z</time></trkpt><trkpt lat="45.263265157218484" lon="8.412729465804823"><ele>123.00000000000001</ele><time>2026-03-28T16:26:18.991Z</time></trkpt><trkpt lat="45.26330986668834" lon="8.412843385137917"><ele>123.0</ele><time>2026-03-28T16:26:19.991Z</time></trkpt><trkpt lat="45.26335059883668" lon="8.412949698065455"><ele>123.0</ele><time>2026-03-28T16:26:20.991Z</time></trkpt><trkpt lat="45.26337859875623" lon="8.413047757467602"><ele>123.2</ele><time>2026-03-28T16:26:21.991Z</time></trkpt><trkpt lat="45.26339028507778" lon="8.413147488369008"><ele>123.4</ele><time>2026-03-28T16:26:22.991Z</time></trkpt><trkpt lat="45.26339070546911" lon="8.413240288816057"><ele>123.60000000000001</ele><time>2026-03-28T16:26:23.991Z</time></trkpt><trkpt lat="45.26341446536023" lon="8.413411804415386"><ele>123.80000000000001</ele><time>2026-03-28T16:26:25.991Z</time></trkpt><trkpt lat="45.263507086028845" lon="8.413521930318264"><ele>124.0</ele><time>2026-03-28T16:26:27.991Z</time></trkpt><trkpt lat="45.263616558222886" lon="8.413505329737216"><ele>124.00000000000001</ele><time>2026-03-28T16:26:29.991Z</time></trkpt><trkpt lat="45.26366366281284" lon="8.41344511484835"><ele>124.0</ele><time>2026-03-28T16:26:30.991Z</time></trkpt><trkpt lat="45.263704592059064" lon="8.413365304300804"><ele>124.0</ele><time>2026-03-28T16:26:31.991Z</time></trkpt><trkpt lat="45.26375584938241" lon="8.413283578185503"><ele>124.0</ele><time>2026-03-28T16:26:32.991Z</time></trkpt><trkpt lat="45.26382026778321" lon="8.413216883180455"><ele>124.00000000000001</ele><time>2026-03-28T16:26:33.991Z</time></trkpt><trkpt lat="45.263896512120226" lon="8.413169468259218"><ele>124.0</ele><time>2026-03-28T16:26:34.992Z</time></trkpt><trkpt lat="45.26398512911652" lon="8.4131426407566"><ele>124.25</ele><time>2026-03-28T16:26:35.992Z</time></trkpt><trkpt lat="45.26408721133507" lon="8.413135056561782"><ele>124.5</ele><time>2026-03-28T16:26:36.992Z</time></trkpt><trkpt lat="45.264200313913804" lon="8.413144493292892"><ele>124.75</ele><time>2026-03-28T16:26:37.992Z</time></trkpt><trkpt lat="45.26432523495962" lon="8.413158311068836"><ele>125.0</ele><time>2026-03-28T16:26:38.992Z</time></trkpt><trkpt lat="45.264454795908904" lon="8.413167439426134"><ele>125.0</ele><time>2026-03-28T16:26:39.992Z</time></trkpt><trkpt lat="45.26458460130215" lon="8.413185127164907"><ele>125.0</ele><time>2026-03-28T16:26:40.992Z</time></trkpt><trkpt lat="45.264722395027086" lon="8.413204443002138"><ele>125.0</ele><time>2026-03-28T16:26:41.992Z</time></trkpt><trkpt lat="45.26487214963531" lon="8.413225856027706"><ele>125.0</ele><time>2026-03-28T16:26:42.992Z</time></trkpt><trkpt lat="45.265029550647405" lon="8.413268302579372"><ele>125.0</ele><time>2026-03-28T16:26:43.992Z</time></trkpt><trkpt lat="45.265195181629615" lon="8.41332876264936"><ele>125.0</ele><time>2026-03-28T16:26:44.992Z</time></trkpt><trkpt lat="45.26537882620212" lon="8.413396230649017"><ele>125.0</ele><time>2026-03-28T16:26:45.992Z</time></trkpt><trkpt lat="45.26557629135078" lon="8.413471861275813"><ele>124.66666666666666</ele><time>2026-03-28T16:26:46.992Z</time></trkpt><trkpt lat="45.26577362012381" lon="8.413547834020704"><ele>124.33333333333334</ele><time>2026-03-28T16:26:47.992Z</time></trkpt><trkpt lat="45.2659811480333" lon="8.413630536473915"><ele>124.0</ele><time>2026-03-28T16:26:48.992Z</time></trkpt><trkpt lat="45.26619407552048" lon="8.413711115233818"><ele>124.0</ele><time>2026-03-28T16:26:49.992Z</time></trkpt><trkpt lat="45.26640593134655" lon="8.413795680729132"><ele>124.0</ele><time>2026-03-28T16:26:50.99Z</time></trkpt><trkpt lat="45.266624165394674" lon="8.413892566164803"><ele>124.0</ele><time>2026-03-28T16:26:51.99Z</time></trkpt><trkpt lat="45.26684407591328" lon="8.413992897383324"><ele>123.0</ele><time>2026-03-28T16:26:52.99Z</time></trkpt><trkpt lat="45.26706307665754" lon="8.414095201889776"><ele>122.0</ele><time>2026-03-28T16:26:53.99Z</time></trkpt><trkpt lat="45.26727713560658" lon="8.41420485360141"><ele>122.33333333333333</ele><time>2026-03-28T16:26:54.99Z</time></trkpt><trkpt lat="45.26748297251206" lon="8.414322412291511"><ele>122.66666666666666</ele><time>2026-03-28T16:26:55.99Z</time></trkpt><trkpt lat="45.26768621128354" lon="8.414450197720408"><ele>123.0</ele><time>2026-03-28T16:26:56.99Z</time></trkpt><trkpt lat="45.26788664035472" lon="8.414584202278611"><ele>123.0</ele><time>2026-03-28T16:26:57.99Z</time></trkpt><trkpt lat="45.268090348990874" lon="8.41471780694875"><ele>123.0</ele><time>2026-03-28T16:26:58.99Z</time></trkpt><trkpt lat="45.268292028454454" lon="8.41484900156241"><ele>123.0</ele><time>2026-03-28T16:26:59.99Z</time></trkpt><trkpt lat="45.26849443724683" lon="8.414977012467839"><ele>123.0</ele><time>2026-03-28T16:27:00.99Z</time></trkpt><trkpt lat="45.26869658753311" lon="8.415103691096766"><ele>123.0</ele><time>2026-03-28T16:27:01.99Z</time></trkpt><trkpt lat="45.26890035857442" lon="8.415227358024625"><ele>123.0</ele><time>2026-03-28T16:27:02.99Z</time></trkpt><trkpt lat="45.26911336805949" lon="8.41533868158441"><ele>123.5</ele><time>2026-03-28T16:27:03.99Z</time></trkpt><trkpt lat="45.269335669187164" lon="8.415425575753439"><ele>124.0</ele><time>2026-03-28T16:27:04.99Z</time></trkpt><trkpt lat="45.26956422028286" lon="8.415489304013754"><ele>123.5</ele><time>2026-03-28T16:27:05.99Z</time></trkpt><trkpt lat="45.26979660799355" lon="8.415535994317626"><ele>123.0</ele><time>2026-03-28T16:27:06.99Z</time></trkpt><trkpt lat="45.27003203725804" lon="8.415568332168961"><ele>123.0</ele><time>2026-03-28T16:27:07.99Z</time></trkpt><trkpt lat="45.270269082509905" lon="8.415592912897056"><ele>123.0</ele><time>2026-03-28T16:27:08.99Z</time></trkpt><trkpt lat="45.270505407976394" lon="8.415616474266056"><ele>123.0</ele><time>2026-03-28T16:27:09.99Z</time></trkpt><trkpt lat="45.2707428430129" lon="8.415644323632472"><ele>123.0</ele><time>2026-03-28T16:27:10.99Z</time></trkpt><trkpt lat="45.27097758679846" lon="8.415671063524373"><ele>123.0</ele><time>2026-03-28T16:27:11.99Z</time></trkpt><trkpt lat="45.27121325835722" lon="8.415696650653738"><ele>123.0</ele><time>2026-03-28T16:27:12.99Z</time></trkpt><trkpt lat="45.271447689693076" lon="8.415716495352134"><ele>124.0</ele><time>2026-03-28T16:27:13.99Z</time></trkpt><trkpt lat="45.27167812237713" lon="8.415737252212299"><ele>125.0</ele><time>2026-03-28T16:27:14.99Z</time></trkpt><trkpt lat="45.271906506773846" lon="8.41576227326268"><ele>125.0</ele><time>2026-03-28T16:27:15.99Z</time></trkpt><trkpt lat="45.27213541705566" lon="8.415788954394515"><ele>125.0</ele><time>2026-03-28T16:27:16.991Z</time></trkpt><trkpt lat="45.27236179875154" lon="8.415813802347904"><ele>126.33333333333333</ele><time>2026-03-28T16:27:17.991Z</time></trkpt><trkpt lat="45.27257720290135" lon="8.415839228724222"><ele>127.66666666666666</ele><time>2026-03-28T16:27:18.991Z</time></trkpt><trkpt lat="45.27277642673252" lon="8.415865370131696"><ele>129.0</ele><time>2026-03-28T16:27:19.991Z</time></trkpt><trkpt lat="45.272948803064814" lon="8.415889470062755"><ele>128.0</ele><time>2026-03-28T16:27:20.991Z</time></trkpt><trkpt lat="45.27311148920535" lon="8.41593562530205"><ele>127.0</ele><time>2026-03-28T16:27:21.991Z</time></trkpt><trkpt lat="45.27326737147927" lon="8.416026718909809"><ele>126.0</ele><time>2026-03-28T16:27:22.991Z</time></trkpt><trkpt lat="45.273420179884496" lon="8.416169990546805"><ele>126.0</ele><time>2026-03-28T16:27:23.991Z</time></trkpt><trkpt lat="45.273586784944044" lon="8.416354950307635"><ele>126.0</ele><time>2026-03-28T16:27:24.991Z</time></trkpt><trkpt lat="45.27374910857044" lon="8.416560350288911"><ele>126.0</ele><time>2026-03-28T16:27:25.991Z</time></trkpt><trkpt lat="45.27390787810357" lon="8.41677081476453"><ele>125.66666666666666</ele><time>2026-03-28T16:27:26.991Z</time></trkpt><trkpt lat="45.27407267413249" lon="8.416977038950304"><ele>125.33333333333333</ele><time>2026-03-28T16:27:27.991Z</time></trkpt><trkpt lat="45.274238767035875" lon="8.417185357738363"><ele>125.0</ele><time>2026-03-28T16:27:28.991Z</time></trkpt><trkpt lat="45.274412522270985" lon="8.417400118359204"><ele>125.0</ele><time>2026-03-28T16:27:29.991Z</time></trkpt><trkpt lat="45.27458222699258" lon="8.417621389925328"><ele>125.0</ele><time>2026-03-28T16:27:30.991Z</time></trkpt><trkpt lat="45.274752047782435" lon="8.417842789204402"><ele>124.5</ele><time>2026-03-28T16:27:31.991Z</time></trkpt><trkpt lat="45.27492746443737" lon="8.418064537576099"><ele>124.0</ele><time>2026-03-28T16:27:32.991Z</time></trkpt><trkpt lat="45.27510237910598" lon="8.41828460756987"><ele>124.0</ele><time>2026-03-28T16:27:33.991Z</time></trkpt><trkpt lat="45.275272114425455" lon="8.418500375705488"><ele>124.0</ele><time>2026-03-28T16:27:34.991Z</time></trkpt><trkpt lat="45.275437699433766" lon="8.418715124664496"><ele>123.5</ele><time>2026-03-28T16:27:35.991Z</time></trkpt><trkpt lat="45.27560492686646" lon="8.418931276607475"><ele>123.0</ele><time>2026-03-28T16:27:36.991Z</time></trkpt><trkpt lat="45.27577402597842" lon="8.419149465153962"><ele>123.0</ele><time>2026-03-28T16:27:37.991Z</time></trkpt><trkpt lat="45.275944410333025" lon="8.419365684534492"><ele>123.0</ele><time>2026-03-28T16:27:38.991Z</time></trkpt><trkpt lat="45.27611897309141" lon="8.419581548131543"><ele>123.0</ele><time>2026-03-28T16:27:39.991Z</time></trkpt><trkpt lat="45.276294029957256" lon="8.419800593944995"><ele>123.0</ele><time>2026-03-28T16:27:40.991Z</time></trkpt><trkpt lat="45.27646881224496" lon="8.420025638103548"><ele>123.0</ele><time>2026-03-28T16:27:41.991Z</time></trkpt><trkpt lat="45.27664354940434" lon="8.420247852432492"><ele>123.0</ele><time>2026-03-28T16:27:42.991Z</time></trkpt><trkpt lat="45.27682484405865" lon="8.4204658045695"><ele>123.5</ele><time>2026-03-28T16:27:43.991Z</time></trkpt><trkpt lat="45.27701553603725" lon="8.420666791228049"><ele>124.0</ele><time>2026-03-28T16:27:44.991Z</time></trkpt><trkpt lat="45.27721721874779" lon="8.42084820956939"><ele>123.5</ele><time>2026-03-28T16:27:45.991Z</time></trkpt><trkpt lat="45.27742787613257" lon="8.42101417698574"><ele>123.0</ele><time>2026-03-28T16:27:46.991Z</time></trkpt><trkpt lat="45.27764145539406" lon="8.421164879871556"><ele>123.0</ele><time>2026-03-28T16:27:47.991Z</time></trkpt><trkpt lat="45.27785704610101" lon="8.42129617274853"><ele>123.0</ele><time>2026-03-28T16:27:48.991Z</time></trkpt><trkpt lat="45.27807669515081" lon="8.421407647899061"><ele>123.5</ele><time>2026-03-28T16:27:49.991Z</time></trkpt><trkpt lat="45.27829745917728" lon="8.421510545302938"><ele>124.0</ele><time>2026-03-28T16:27:50.991Z</time></trkpt><trkpt lat="45.27851980700861" lon="8.421608485192733"><ele>124.0</ele><time>2026-03-28T16:27:51.991Z</time></trkpt><trkpt lat="45.278745054344114" lon="8.421708827287691"><ele>124.0</ele><time>2026-03-28T16:27:52.991Z</time></trkpt><trkpt lat="45.27897235660738" lon="8.421807717644908"><ele>123.0</ele><time>2026-03-28T16:27:53.991Z</time></trkpt><trkpt lat="45.279202080717155" lon="8.4219093679588"><ele>122.0</ele><time>2026-03-28T16:27:54.991Z</time></trkpt><trkpt lat="45.27943209544971" lon="8.422006391430738"><ele>122.0</ele><time>2026-03-28T16:27:55.991Z</time></trkpt><trkpt lat="45.279663594096576" lon="8.422100569820666"><ele>122.0</ele><time>2026-03-28T16:27:56.991Z</time></trkpt><trkpt lat="45.27989468492766" lon="8.422200449081997"><ele>123.0</ele><time>2026-03-28T16:27:57.991Z</time></trkpt><trkpt lat="45.280126012730776" lon="8.42230693002287"><ele>124.0</ele><time>2026-03-28T16:27:58.991Z</time></trkpt><trkpt lat="45.28035683536624" lon="8.42241934792115"><ele>124.0</ele><time>2026-03-28T16:27:59.991Z</time></trkpt><trkpt lat="45.280589015377814" lon="8.422532070984273"><ele>124.0</ele><time>2026-03-28T16:28:00.991Z</time></trkpt><trkpt lat="45.28081921421983" lon="8.422640584707015"><ele>123.5</ele><time>2026-03-28T16:28:01.991Z</time></trkpt><trkpt lat="45.2810484417493" lon="8.422747695615294"><ele>123.0</ele><time>2026-03-28T16:28:02.991Z</time></trkpt><trkpt lat="45.28127684857343" lon="8.42285446658062"><ele>123.0</ele><time>2026-03-28T16:28:03.991Z</time></trkpt><trkpt lat="45.28150719555398" lon="8.422959093018061"><ele>123.0</ele><time>2026-03-28T16:28:04.991Z</time></trkpt><trkpt lat="45.281736625425815" lon="8.423063241652414"><ele>122.5</ele><time>2026-03-28T16:28:05.991Z</time></trkpt><trkpt lat="45.281963768168445" lon="8.42317114833894"><ele>122.0</ele><time>2026-03-28T16:28:06.991Z</time></trkpt><trkpt lat="45.28218651646058" lon="8.423279492438269"><ele>121.5</ele><time>2026-03-28T16:28:07.991Z</time></trkpt><trkpt lat="45.28240656115527" lon="8.42338639351613"><ele>121.0</ele><time>2026-03-28T16:28:08.991Z</time></trkpt><trkpt lat="45.28262699724552" lon="8.423489401178085"><ele>121.0</ele><time>2026-03-28T16:28:09.991Z</time></trkpt><trkpt lat="45.28284859041704" lon="8.423583556769467"><ele>121.0</ele><time>2026-03-28T16:28:10.991Z</time></trkpt><trkpt lat="45.2830717962735" lon="8.423664001335469"><ele>122.5</ele><time>2026-03-28T16:28:11.991Z</time></trkpt><trkpt lat="45.28329707942007" lon="8.423735549330493"><ele>124.0</ele><time>2026-03-28T16:28:12.991Z</time></trkpt><trkpt lat="45.28352383391757" lon="8.423797995941191"><ele>124.0</ele><time>2026-03-28T16:28:13.991Z</time></trkpt><trkpt lat="45.28375110777009" lon="8.423852946339105"><ele>124.0</ele><time>2026-03-28T16:28:14.991Z</time></trkpt><trkpt lat="45.2839804157503" lon="8.423899922597055"><ele>124.0</ele><time>2026-03-28T16:28:15.991Z</time></trkpt><trkpt lat="45.28420930074193" lon="8.4239368968446"><ele>124.0</ele><time>2026-03-28T16:28:16.991Z</time></trkpt><trkpt lat="45.2844399528189" lon="8.423967549012245"><ele>124.0</ele><time>2026-03-28T16:28:17.991Z</time></trkpt><trkpt lat="45.28466779193519" lon="8.423996720922384"><ele>124.0</ele><time>2026-03-28T16:28:18.991Z</time></trkpt><trkpt lat="45.28488552299361" lon="8.424021848245033"><ele>124.0</ele><time>2026-03-28T16:28:19.991Z</time></trkpt><trkpt lat="45.28509405779498" lon="8.424045099314249"><ele>123.33333333333334</ele><time>2026-03-28T16:28:20.991Z</time></trkpt><trkpt lat="45.285293990683705" lon="8.42407035735705"><ele>122.66666666666666</ele><time>2026-03-28T16:28:21.991Z</time></trkpt><trkpt lat="45.28548357332919" lon="8.424104169569611"><ele>122.0</ele><time>2026-03-28T16:28:22.991Z</time></trkpt><trkpt lat="45.28566904559649" lon="8.424151459929242"><ele>123.33333333333333</ele><time>2026-03-28T16:28:23.991Z</time></trkpt><trkpt lat="45.2858575115503" lon="8.424201646125203"><ele>124.66666666666666</ele><time>2026-03-28T16:28:24.991Z</time></trkpt><trkpt lat="45.28604423116425" lon="8.424249305816932"><ele>126.0</ele><time>2026-03-28T16:28:25.991Z</time></trkpt><trkpt lat="45.28622837798964" lon="8.424300654665842"><ele>126.0</ele><time>2026-03-28T16:28:26.991Z</time></trkpt><trkpt lat="45.28640981837458" lon="8.424353066287274"><ele>126.0</ele><time>2026-03-28T16:28:27.991Z</time></trkpt><trkpt lat="45.28659348444799" lon="8.424408116584596"><ele>126.0</ele><time>2026-03-28T16:28:28.991Z</time></trkpt><trkpt lat="45.28678377714889" lon="8.424467987801831"><ele>126.0</ele><time>2026-03-28T16:28:29.991Z</time></trkpt><trkpt lat="45.286973879939886" lon="8.424528691762884"><ele>126.0</ele><time>2026-03-28T16:28:30.991Z</time></trkpt><trkpt lat="45.2871658480088" lon="8.424588405134767"><ele>126.0</ele><time>2026-03-28T16:28:31.991Z</time></trkpt><trkpt lat="45.28736862527456" lon="8.424644844908956"><ele>125.0</ele><time>2026-03-28T16:28:32.991Z</time></trkpt><trkpt lat="45.287571286327285" lon="8.424702747348388"><ele>124.0</ele><time>2026-03-28T16:28:33.991Z</time></trkpt><trkpt lat="45.28777732770226" lon="8.424764331394426"><ele>123.0</ele><time>2026-03-28T16:28:34.991Z</time></trkpt><trkpt lat="45.287981841117855" lon="8.424826045504414"><ele>123.33333333333334</ele><time>2026-03-28T16:28:35.991Z</time></trkpt><trkpt lat="45.2881886814736" lon="8.424878456221933"><ele>123.66666666666667</ele><time>2026-03-28T16:28:36.991Z</time></trkpt><trkpt lat="45.28840013164811" lon="8.42492014875876"><ele>124.0</ele><time>2026-03-28T16:28:37.991Z</time></trkpt><trkpt lat="45.28861718803419" lon="8.424948827499136"><ele>124.0</ele><time>2026-03-28T16:28:38.991Z</time></trkpt><trkpt lat="45.28883442009417" lon="8.424964201616797"><ele>124.0</ele><time>2026-03-28T16:28:39.991Z</time></trkpt><trkpt lat="45.2890529601408" lon="8.424968842484533"><ele>124.0</ele><time>2026-03-28T16:28:40.991Z</time></trkpt><trkpt lat="45.28927523487208" lon="8.424971172272818"><ele>124.0</ele><time>2026-03-28T16:28:41.991Z</time></trkpt><trkpt lat="45.289498055449236" lon="8.424971572798727"><ele>124.0</ele><time>2026-03-28T16:28:42.991Z</time></trkpt><trkpt lat="45.28972014659137" lon="8.424971238584005"><ele>124.0</ele><time>2026-03-28T16:28:43.992Z</time></trkpt><trkpt lat="45.28994336120453" lon="8.424968388323375"><ele>124.0</ele><time>2026-03-28T16:28:44.992Z</time></trkpt><trkpt lat="45.290167609025545" lon="8.424966276275244"><ele>124.0</ele><time>2026-03-28T16:28:45.992Z</time></trkpt><trkpt lat="45.29039245812376" lon="8.424969319099487"><ele>124.0</ele><time>2026-03-28T16:28:46.992Z</time></trkpt><trkpt lat="45.29061869548974" lon="8.42497133025579"><ele>124.0</ele><time>2026-03-28T16:28:47.992Z</time></trkpt><trkpt lat="45.29084294707992" lon="8.424972030628732"><ele>124.0</ele><time>2026-03-28T16:28:48.992Z</time></trkpt><trkpt lat="45.29106848771999" lon="8.424970911412386"><ele>124.0</ele><time>2026-03-28T16:28:49.992Z</time></trkpt><trkpt lat="45.29129167063635" lon="8.424972863674617"><ele>124.0</ele><time>2026-03-28T16:28:50.992Z</time></trkpt><trkpt lat="45.29151563625475" lon="8.4249704453686"><ele>124.0</ele><time>2026-03-28T16:28:51.992Z</time></trkpt><trkpt lat="45.291740683932225" lon="8.42496620489661"><ele>124.0</ele><time>2026-03-28T16:28:52.992Z</time></trkpt><trkpt lat="45.291965388122854" lon="8.42496017671922"><ele>124.0</ele><time>2026-03-28T16:28:53.992Z</time></trkpt><trkpt lat="45.29218999286476" lon="8.424943281792267"><ele>123.33333333333334</ele><time>2026-03-28T16:28:54.992Z</time></trkpt><trkpt lat="45.29241041768447" lon="8.424918155097298"><ele>122.66666666666666</ele><time>2026-03-28T16:28:55.992Z</time></trkpt><trkpt lat="45.29263308979971" lon="8.424881959687212"><ele>122.0</ele><time>2026-03-28T16:28:56.989Z</time></trkpt><trkpt lat="45.29285230497065" lon="8.424832692184978"><ele>122.0</ele><time>2026-03-28T16:28:57.99Z</time></trkpt><trkpt lat="45.29306623706845" lon="8.424772057570568"><ele>122.0</ele><time>2026-03-28T16:28:58.99Z</time></trkpt><trkpt lat="45.29327673834418" lon="8.424702526211584"><ele>122.0</ele><time>2026-03-28T16:28:59.99Z</time></trkpt><trkpt lat="45.293486142945" lon="8.424625164015996"><ele>122.33333333333333</ele><time>2026-03-28T16:29:00.99Z</time></trkpt><trkpt lat="45.29369390434922" lon="8.424543626187296"><ele>122.66666666666666</ele><time>2026-03-28T16:29:01.99Z</time></trkpt><trkpt lat="45.2938958769061" lon="8.424464452846363"><ele>123.0</ele><time>2026-03-28T16:29:02.99Z</time></trkpt><trkpt lat="45.29409872732638" lon="8.424383839767286"><ele>123.0</ele><time>2026-03-28T16:29:03.99Z</time></trkpt><trkpt lat="45.29430230377466" lon="8.424303191962988"><ele>123.0</ele><time>2026-03-28T16:29:04.99Z</time></trkpt><trkpt lat="45.294508863635535" lon="8.42422235611297"><ele>123.0</ele><time>2026-03-28T16:29:05.99Z</time></trkpt><trkpt lat="45.29471490200712" lon="8.424144543830684"><ele>123.0</ele><time>2026-03-28T16:29:06.99Z</time></trkpt><trkpt lat="45.29492301865932" lon="8.424068917928505"><ele>123.0</ele><time>2026-03-28T16:29:07.99Z</time></trkpt><trkpt lat="45.29513389380195" lon="8.424002084164481"><ele>123.0</ele><time>2026-03-28T16:29:08.99Z</time></trkpt><trkpt lat="45.29534573552108" lon="8.423945369081647"><ele>123.0</ele><time>2026-03-28T16:29:09.99Z</time></trkpt><trkpt lat="45.29555912702139" lon="8.42389905943955"><ele>123.0</ele><time>2026-03-28T16:29:10.99Z</time></trkpt><trkpt lat="45.295773414440994" lon="8.42386158129406"><ele>123.0</ele><time>2026-03-28T16:29:11.99Z</time></trkpt><trkpt lat="45.295993352491685" lon="8.42382513915899"><ele>123.5</ele><time>2026-03-28T16:29:12.99Z</time></trkpt><trkpt lat="45.29622083169434" lon="8.423783158865133"><ele>124.0</ele><time>2026-03-28T16:29:13.99Z</time></trkpt><trkpt lat="45.29645277616095" lon="8.423741692105095"><ele>124.0</ele><time>2026-03-28T16:29:14.99Z</time></trkpt><trkpt lat="45.296690559405214" lon="8.423702620134273"><ele>124.0</ele><time>2026-03-28T16:29:15.99Z</time></trkpt><trkpt lat="45.29692687473113" lon="8.423664133492627"><ele>124.0</ele><time>2026-03-28T16:29:16.99Z</time></trkpt><trkpt lat="45.29716398888052" lon="8.423628904047105"><ele>124.0</ele><time>2026-03-28T16:29:17.99Z</time></trkpt><trkpt lat="45.297398228999256" lon="8.423602655296364"><ele>124.5</ele><time>2026-03-28T16:29:18.99Z</time></trkpt><trkpt lat="45.29762950547806" lon="8.423577882185246"><ele>125.0</ele><time>2026-03-28T16:29:19.99Z</time></trkpt><trkpt lat="45.29785963162696" lon="8.423553089425218"><ele>125.0</ele><time>2026-03-28T16:29:20.99Z</time></trkpt><trkpt lat="45.29807995756296" lon="8.423526063601182"><ele>125.0</ele><time>2026-03-28T16:29:21.99Z</time></trkpt><trkpt lat="45.298293604003334" lon="8.42349703234326"><ele>125.0</ele><time>2026-03-28T16:29:22.99Z</time></trkpt><trkpt lat="45.29849703037867" lon="8.423467898525804"><ele>125.0</ele><time>2026-03-28T16:29:23.99Z</time></trkpt><trkpt lat="45.29869634796952" lon="8.423437840461924"><ele>125.0</ele><time>2026-03-28T16:29:24.99Z</time></trkpt><trkpt lat="45.29888739906783" lon="8.423409611359862"><ele>125.0</ele><time>2026-03-28T16:29:25.99Z</time></trkpt><trkpt lat="45.299074016731225" lon="8.423388111474445"><ele>125.0</ele><time>2026-03-28T16:29:26.99Z</time></trkpt><trkpt lat="45.29926175626826" lon="8.423376894698492"><ele>125.0</ele><time>2026-03-28T16:29:27.99Z</time></trkpt><trkpt lat="45.299448152616534" lon="8.423396056683417"><ele>125.0</ele><time>2026-03-28T16:29:28.99Z</time></trkpt><trkpt lat="45.29963193736377" lon="8.423441918887796"><ele>124.66666666666666</ele><time>2026-03-28T16:29:29.99Z</time></trkpt><trkpt lat="45.29981255256355" lon="8.423506648550898"><ele>124.33333333333334</ele><time>2026-03-28T16:29:30.99Z</time></trkpt><trkpt lat="45.2999791219508" lon="8.423580881530338"><ele>124.0</ele><time>2026-03-28T16:29:31.99Z</time></trkpt><trkpt lat="45.300133757326115" lon="8.42365328779488"><ele>124.0</ele><time>2026-03-28T16:29:32.99Z</time></trkpt><trkpt lat="45.30027526269157" lon="8.423716186578911"><ele>124.0</ele><time>2026-03-28T16:29:33.99Z</time></trkpt><trkpt lat="45.30040562546866" lon="8.423770070640474"><ele>124.0</ele><time>2026-03-28T16:29:34.99Z</time></trkpt><trkpt lat="45.300525370841406" lon="8.423821470534305"><ele>124.0</ele><time>2026-03-28T16:29:35.99Z</time></trkpt><trkpt lat="45.300631559241985" lon="8.423871544779127"><ele>123.83333333333334</ele><time>2026-03-28T16:29:36.99Z</time></trkpt><trkpt lat="45.30071243724206" lon="8.423919814919442"><ele>123.66666666666667</ele><time>2026-03-28T16:29:37.99Z</time></trkpt><trkpt lat="45.3007743728234" lon="8.423966249360088"><ele>123.5</ele><time>2026-03-28T16:29:38.99Z</time></trkpt><trkpt lat="45.300860876822824" lon="8.424077549151079"><ele>123.33333333333334</ele><time>2026-03-28T16:29:40.99Z</time></trkpt><trkpt lat="45.30089898632251" lon="8.42415070938942"><ele>123.16666666666667</ele><time>2026-03-28T16:29:41.99Z</time></trkpt><trkpt lat="45.300956052454026" lon="8.424224425936485"><ele>123.0</ele><time>2026-03-28T16:29:42.99Z</time></trkpt><trkpt lat="45.30102569685329" lon="8.424272504794967"><ele>123.0</ele><time>2026-03-28T16:29:43.99Z</time></trkpt><trkpt lat="45.30112287408915" lon="8.424269195800349"><ele>123.0</ele><time>2026-03-28T16:29:44.99Z</time></trkpt><trkpt lat="45.30122883786671" lon="8.424233742248271"><ele>123.0</ele><time>2026-03-28T16:29:45.99Z</time></trkpt><trkpt lat="45.30135529649474" lon="8.424209008434772"><ele>123.0</ele><time>2026-03-28T16:29:46.99Z</time></trkpt><trkpt lat="45.301500619342605" lon="8.424232075423873"><ele>123.66666666666666</ele><time>2026-03-28T16:29:47.991Z</time></trkpt><trkpt lat="45.30166156668266" lon="8.424277762818926"><ele>124.33333333333333</ele><time>2026-03-28T16:29:48.991Z</time></trkpt><trkpt lat="45.301825013661706" lon="8.424302852472758"><ele>125.0</ele><time>2026-03-28T16:29:49.991Z</time></trkpt><trkpt lat="45.30201054617777" lon="8.424307874812875"><ele>125.0</ele><time>2026-03-28T16:29:50.991Z</time></trkpt><trkpt lat="45.30220781453246" lon="8.424287887097401"><ele>125.0</ele><time>2026-03-28T16:29:51.991Z</time></trkpt><trkpt lat="45.30239999801169" lon="8.424233960764976"><ele>125.0</ele><time>2026-03-28T16:29:52.991Z</time></trkpt><trkpt lat="45.30260334223529" lon="8.424153165713154"><ele>124.66666666666666</ele><time>2026-03-28T16:29:53.991Z</time></trkpt><trkpt lat="45.30280876677738" lon="8.42405769910963"><ele>124.33333333333334</ele><time>2026-03-28T16:29:54.991Z</time></trkpt><trkpt lat="45.303003563244665" lon="8.42396029201313"><ele>124.0</ele><time>2026-03-28T16:29:55.991Z</time></trkpt><trkpt lat="45.30319775868221" lon="8.4238619810988"><ele>123.66666666666667</ele><time>2026-03-28T16:29:56.991Z</time></trkpt><trkpt lat="45.3033858391549" lon="8.423769766241886"><ele>123.33333333333334</ele><time>2026-03-28T16:29:57.991Z</time></trkpt><trkpt lat="45.30356966079259" lon="8.423687496427068"><ele>123.0</ele><time>2026-03-28T16:29:58.991Z</time></trkpt><trkpt lat="45.30375202465632" lon="8.423609671882016"><ele>122.33333333333334</ele><time>2026-03-28T16:29:59.991Z</time></trkpt><trkpt lat="45.3039331892439" lon="8.423539374418118"><ele>121.66666666666667</ele><time>2026-03-28T16:30:00.991Z</time></trkpt><trkpt lat="45.30411287453648" lon="8.42347862257772"><ele>121.0</ele><time>2026-03-28T16:30:01.991Z</time></trkpt><trkpt lat="45.304291112929334" lon="8.423426996163293"><ele>121.0</ele><time>2026-03-28T16:30:02.991Z</time></trkpt><trkpt lat="45.30446460183553" lon="8.423393810767195"><ele>121.0</ele><time>2026-03-28T16:30:03.991Z</time></trkpt><trkpt lat="45.30463651170456" lon="8.423363637696967"><ele>121.0</ele><time>2026-03-28T16:30:04.991Z</time></trkpt><trkpt lat="45.30480530147935" lon="8.423346644902495"><ele>121.66666666666667</ele><time>2026-03-28T16:30:05.991Z</time></trkpt><trkpt lat="45.304969936414324" lon="8.423341422342418"><ele>122.33333333333334</ele><time>2026-03-28T16:30:06.991Z</time></trkpt><trkpt lat="45.30512698400602" lon="8.423344562580954"><ele>123.0</ele><time>2026-03-28T16:30:07.991Z</time></trkpt><trkpt lat="45.30527843638797" lon="8.423353314872628"><ele>123.0</ele><time>2026-03-28T16:30:08.991Z</time></trkpt><trkpt lat="45.305425588294284" lon="8.423369821436987"><ele>123.0</ele><time>2026-03-28T16:30:09.991Z</time></trkpt><trkpt lat="45.30556890789845" lon="8.423393862074546"><ele>123.0</ele><time>2026-03-28T16:30:10.991Z</time></trkpt><trkpt lat="45.30570743686192" lon="8.423423677060189"><ele>123.0</ele><time>2026-03-28T16:30:11.991Z</time></trkpt><trkpt lat="45.30584065666436" lon="8.423460933766243"><ele>123.0</ele><time>2026-03-28T16:30:12.991Z</time></trkpt><trkpt lat="45.30597299112518" lon="8.423508754017808"><ele>123.0</ele><time>2026-03-28T16:30:13.991Z</time></trkpt><trkpt lat="45.30610852359136" lon="8.423559105687046"><ele>123.0</ele><time>2026-03-28T16:30:14.991Z</time></trkpt><trkpt lat="45.30625036760367" lon="8.423607065785625"><ele>123.0</ele><time>2026-03-28T16:30:15.991Z</time></trkpt><trkpt lat="45.30639599396618" lon="8.423652272049232"><ele>123.5</ele><time>2026-03-28T16:30:16.991Z</time></trkpt><trkpt lat="45.306543628689155" lon="8.42369897698184"><ele>124.0</ele><time>2026-03-28T16:30:17.991Z</time></trkpt><trkpt lat="45.306686075222146" lon="8.423745215419798"><ele>124.5</ele><time>2026-03-28T16:30:18.991Z</time></trkpt><trkpt lat="45.30682300466722" lon="8.423794906728261"><ele>125.0</ele><time>2026-03-28T16:30:19.991Z</time></trkpt><trkpt lat="45.30696220811678" lon="8.423837308107775"><ele>125.25</ele><time>2026-03-28T16:30:20.991Z</time></trkpt><trkpt lat="45.30710290346588" lon="8.423883786831647"><ele>125.5</ele><time>2026-03-28T16:30:21.991Z</time></trkpt><trkpt lat="45.307246594604294" lon="8.423933792288128"><ele>125.75</ele><time>2026-03-28T16:30:22.991Z</time></trkpt><trkpt lat="45.30739536148315" lon="8.423983234275076"><ele>126.0</ele><time>2026-03-28T16:30:23.991Z</time></trkpt><trkpt lat="45.30754230873022" lon="8.424032957033353"><ele>126.0</ele><time>2026-03-28T16:30:24.991Z</time></trkpt><trkpt lat="45.30768940582494" lon="8.424083983051927"><ele>126.0</ele><time>2026-03-28T16:30:25.991Z</time></trkpt><trkpt lat="45.30783372372908" lon="8.424136216494833"><ele>126.0</ele><time>2026-03-28T16:30:26.991Z</time></trkpt><trkpt lat="45.30797659887545" lon="8.424182136608955"><ele>126.0</ele><time>2026-03-28T16:30:27.991Z</time></trkpt><trkpt lat="45.30811558253863" lon="8.424231129894054"><ele>126.0</ele><time>2026-03-28T16:30:28.991Z</time></trkpt><trkpt lat="45.308255086509114" lon="8.424277289346389"><ele>126.0</ele><time>2026-03-28T16:30:29.991Z</time></trkpt><trkpt lat="45.30839077245788" lon="8.424323017799471"><ele>126.0</ele><time>2026-03-28T16:30:30.991Z</time></trkpt><trkpt lat="45.308520571165275" lon="8.424365559525397"><ele>126.0</ele><time>2026-03-28T16:30:31.991Z</time></trkpt><trkpt lat="45.308643750646056" lon="8.424406927946208"><ele>126.0</ele><time>2026-03-28T16:30:32.991Z</time></trkpt><trkpt lat="45.30876156478115" lon="8.424444734599076"><ele>126.0</ele><time>2026-03-28T16:30:33.991Z</time></trkpt><trkpt lat="45.30887478973737" lon="8.42448425539838"><ele>126.0</ele><time>2026-03-28T16:30:34.991Z</time></trkpt><trkpt lat="45.30899476523688" lon="8.424528875426931"><ele>126.0</ele><time>2026-03-28T16:30:35.991Z</time></trkpt><trkpt lat="45.30911889492178" lon="8.424574918506847"><ele>126.0</ele><time>2026-03-28T16:30:36.991Z</time></trkpt><trkpt lat="45.30924889032136" lon="8.424624488017445"><ele>126.0</ele><time>2026-03-28T16:30:37.991Z</time></trkpt><trkpt lat="45.30938451836104" lon="8.424673955655658"><ele>126.0</ele><time>2026-03-28T16:30:38.991Z</time></trkpt><trkpt lat="45.30952486352698" lon="8.424717546649957"><ele>126.0</ele><time>2026-03-28T16:30:39.991Z</time></trkpt><trkpt lat="45.30966507988665" lon="8.424766502250806"><ele>125.75</ele><time>2026-03-28T16:30:40.991Z</time></trkpt><trkpt lat="45.30980351322597" lon="8.424816279634115"><ele>125.5</ele><time>2026-03-28T16:30:41.991Z</time></trkpt><trkpt lat="45.30994642016989" lon="8.424864292105681"><ele>125.25</ele><time>2026-03-28T16:30:42.991Z</time></trkpt><trkpt lat="45.310086666775355" lon="8.424909944758918"><ele>125.0</ele><time>2026-03-28T16:30:43.991Z</time></trkpt><trkpt lat="45.31022417256946" lon="8.424958505765225"><ele>125.0</ele><time>2026-03-28T16:30:44.991Z</time></trkpt><trkpt lat="45.31035815010298" lon="8.425002348668107"><ele>125.0</ele><time>2026-03-28T16:30:45.991Z</time></trkpt><trkpt lat="45.31048971087792" lon="8.42504139370435"><ele>125.0</ele><time>2026-03-28T16:30:46.991Z</time></trkpt><trkpt lat="45.31061805784791" lon="8.425080022037596"><ele>125.0</ele><time>2026-03-28T16:30:47.991Z</time></trkpt><trkpt lat="45.310742271716094" lon="8.42512175887241"><ele>125.0</ele><time>2026-03-28T16:30:48.991Z</time></trkpt><trkpt lat="45.31085974051301" lon="8.425165731836067"><ele>125.0</ele><time>2026-03-28T16:30:49.991Z</time></trkpt><trkpt lat="45.310969116738" lon="8.425209203013171"><ele>125.0</ele><time>2026-03-28T16:30:50.991Z</time></trkpt><trkpt lat="45.31107913774299" lon="8.425249884644154"><ele>125.0</ele><time>2026-03-28T16:30:51.991Z</time></trkpt><trkpt lat="45.311183839373776" lon="8.425290003010911"><ele>125.0</ele><time>2026-03-28T16:30:52.991Z</time></trkpt><trkpt lat="45.311285043941645" lon="8.425326864984214"><ele>125.0</ele><time>2026-03-28T16:30:53.991Z</time></trkpt><trkpt lat="45.311392838863405" lon="8.425363481294491"><ele>125.0</ele><time>2026-03-28T16:30:54.991Z</time></trkpt><trkpt lat="45.31149816662928" lon="8.42540140020168"><ele>125.0</ele><time>2026-03-28T16:30:55.991Z</time></trkpt><trkpt lat="45.31161150118359" lon="8.425436623569668"><ele>125.0</ele><time>2026-03-28T16:30:56.991Z</time></trkpt><trkpt lat="45.311730411128416" lon="8.425482266880751"><ele>125.75</ele><time>2026-03-28T16:30:57.991Z</time></trkpt><trkpt lat="45.31184221578145" lon="8.425529593758295"><ele>126.5</ele><time>2026-03-28T16:30:58.991Z</time></trkpt><trkpt lat="45.311955977457956" lon="8.42557112221994"><ele>127.25</ele><time>2026-03-28T16:30:59.991Z</time></trkpt><trkpt lat="45.31205962594347" lon="8.42561682683556"><ele>128.0</ele><time>2026-03-28T16:31:00.991Z</time></trkpt><trkpt lat="45.31216486672705" lon="8.425661416485328"><ele>127.80000000000001</ele><time>2026-03-28T16:31:01.991Z</time></trkpt><trkpt lat="45.31226592495561" lon="8.425701666465644"><ele>127.60000000000001</ele><time>2026-03-28T16:31:02.99Z</time></trkpt><trkpt lat="45.31236520527348" lon="8.425746634973336"><ele>127.39999999999999</ele><time>2026-03-28T16:31:03.99Z</time></trkpt><trkpt lat="45.31246244724113" lon="8.425787249453592"><ele>127.19999999999999</ele><time>2026-03-28T16:31:04.99Z</time></trkpt><trkpt lat="45.31256178345229" lon="8.425832526562239"><ele>127.0</ele><time>2026-03-28T16:31:05.99Z</time></trkpt><trkpt lat="45.3126606962465" lon="8.42587840798374"><ele>127.0</ele><time>2026-03-28T16:31:06.989Z</time></trkpt><trkpt lat="45.31275733658698" lon="8.425924045218942"><ele>126.99999999999999</ele><time>2026-03-28T16:31:07.989Z</time></trkpt><trkpt lat="45.31285451983436" lon="8.425965544158622"><ele>126.99999999999999</ele><time>2026-03-28T16:31:08.989Z</time></trkpt><trkpt lat="45.3129475426153" lon="8.42600186794958"><ele>127.0</ele><time>2026-03-28T16:31:09.989Z</time></trkpt><trkpt lat="45.31304176353458" lon="8.426040361772577"><ele>127.0</ele><time>2026-03-28T16:31:10.989Z</time></trkpt><trkpt lat="45.31313230399775" lon="8.42607644172695"><ele>127.0</ele><time>2026-03-28T16:31:11.989Z</time></trkpt><trkpt lat="45.31322239113637" lon="8.426118147574389"><ele>126.99999999999999</ele><time>2026-03-28T16:31:12.99Z</time></trkpt><trkpt lat="45.31331216491928" lon="8.426160735245587"><ele>126.99999999999999</ele><time>2026-03-28T16:31:13.99Z</time></trkpt><trkpt lat="45.313402785726666" lon="8.42620276729818"><ele>127.0</ele><time>2026-03-28T16:31:14.989Z</time></trkpt><trkpt lat="45.313493028246455" lon="8.426240975101253"><ele>127.0</ele><time>2026-03-28T16:31:15.989Z</time></trkpt><trkpt lat="45.31358436170264" lon="8.426284611636266"><ele>127.0</ele><time>2026-03-28T16:31:16.989Z</time></trkpt><trkpt lat="45.313675797576366" lon="8.426324677487814"><ele>126.99999999999999</ele><time>2026-03-28T16:31:17.989Z</time></trkpt><trkpt lat="45.31376866959061" lon="8.426365888779955"><ele>126.99999999999999</ele><time>2026-03-28T16:31:18.989Z</time></trkpt><trkpt lat="45.31385461617692" lon="8.42639537035803"><ele>127.0</ele><time>2026-03-28T16:31:19.989Z</time></trkpt><trkpt lat="45.31394238117005" lon="8.426435791348796"><ele>127.0</ele><time>2026-03-28T16:31:20.989Z</time></trkpt><trkpt lat="45.31401940182333" lon="8.426479004407199"><ele>127.0</ele><time>2026-03-28T16:31:21.989Z</time></trkpt><trkpt lat="45.314083956526005" lon="8.426557766646189"><ele>126.99999999999999</ele><time>2026-03-28T16:31:22.989Z</time></trkpt><trkpt lat="45.31413550199205" lon="8.426672470735648"><ele>126.99999999999999</ele><time>2026-03-28T16:31:23.989Z</time></trkpt><trkpt lat="45.314176270548785" lon="8.426796920906423"><ele>127.0</ele><time>2026-03-28T16:31:24.989Z</time></trkpt><trkpt lat="45.31421303378158" lon="8.426934767585918"><ele>127.0</ele><time>2026-03-28T16:31:25.989Z</time></trkpt><trkpt lat="45.31426728730227" lon="8.427078804684927"><ele>127.5</ele><time>2026-03-28T16:31:26.989Z</time></trkpt><trkpt lat="45.31433744876425" lon="8.427216964117648"><ele>128.0</ele><time>2026-03-28T16:31:27.99Z</time></trkpt><trkpt lat="45.31441174697658" lon="8.427340608036953"><ele>128.5</ele><time>2026-03-28T16:31:28.99Z</time></trkpt><trkpt lat="45.31450491328506" lon="8.427458444832236"><ele>129.0</ele><time>2026-03-28T16:31:29.99Z</time></trkpt><trkpt lat="45.314599388438836" lon="8.427577854057683"><ele>129.0</ele><time>2026-03-28T16:31:30.99Z</time></trkpt><trkpt lat="45.31469494249446" lon="8.427701703239894"><ele>129.0</ele><time>2026-03-28T16:31:31.99Z</time></trkpt><trkpt lat="45.31478872878889" lon="8.427826546965015"><ele>129.0</ele><time>2026-03-28T16:31:32.99Z</time></trkpt><trkpt lat="45.31487882759037" lon="8.42794439388325"><ele>129.0</ele><time>2026-03-28T16:31:33.99Z</time></trkpt><trkpt lat="45.31496450977841" lon="8.42805658701964"><ele>129.0</ele><time>2026-03-28T16:31:34.99Z</time></trkpt><trkpt lat="45.31503656040081" lon="8.4281516954781"><ele>129.0</ele><time>2026-03-28T16:31:35.99Z</time></trkpt><trkpt lat="45.31510485641271" lon="8.428228572363645"><ele>129.0</ele><time>2026-03-28T16:31:36.99Z</time></trkpt><trkpt lat="45.31516880071689" lon="8.428303830309083"><ele>129.0</ele><time>2026-03-28T16:31:37.99Z</time></trkpt><trkpt lat="45.315231330410235" lon="8.428378644835458"><ele>129.0</ele><time>2026-03-28T16:31:38.99Z</time></trkpt><trkpt lat="45.31529227804667" lon="8.428457023818355"><ele>129.0</ele><time>2026-03-28T16:31:39.99Z</time></trkpt><trkpt lat="45.3153533823811" lon="8.428538299134065"><ele>129.0</ele><time>2026-03-28T16:31:40.99Z</time></trkpt><trkpt lat="45.31542043217288" lon="8.428625084414879"><ele>129.0</ele><time>2026-03-28T16:31:41.99Z</time></trkpt><trkpt lat="45.31549076844319" lon="8.428710350751198"><ele>129.0</ele><time>2026-03-28T16:31:42.99Z</time></trkpt><trkpt lat="45.31555760124815" lon="8.428787570013595"><ele>129.0</ele><time>2026-03-28T16:31:43.989Z</time></trkpt><trkpt lat="45.31562139230671" lon="8.428869029042575"><ele>129.0</ele><time>2026-03-28T16:31:44.989Z</time></trkpt><trkpt lat="45.315685535254296" lon="8.42894563106516"><ele>129.0</ele><time>2026-03-28T16:31:45.989Z</time></trkpt><trkpt lat="45.31574944056851" lon="8.429031706659726"><ele>128.83333333333334</ele><time>2026-03-28T16:31:46.989Z</time></trkpt><trkpt lat="45.315812679819516" lon="8.4291162826063"><ele>128.66666666666666</ele><time>2026-03-28T16:31:47.989Z</time></trkpt><trkpt lat="45.31587469836967" lon="8.429198858687242"><ele>128.5</ele><time>2026-03-28T16:31:48.989Z</time></trkpt><trkpt lat="45.31594044671907" lon="8.429280481932999"><ele>128.33333333333331</ele><time>2026-03-28T16:31:49.989Z</time></trkpt><trkpt lat="45.31601119475115" lon="8.429359585258906"><ele>128.16666666666666</ele><time>2026-03-28T16:31:50.989Z</time></trkpt><trkpt lat="45.31607761497117" lon="8.429439163626926"><ele>128.0</ele><time>2026-03-28T16:31:51.989Z</time></trkpt><trkpt lat="45.316144767926026" lon="8.429522207082186"><ele>128.0</ele><time>2026-03-28T16:31:52.989Z</time></trkpt><trkpt lat="45.3162115539382" lon="8.42959487384525"><ele>128.0</ele><time>2026-03-28T16:31:53.989Z</time></trkpt><trkpt lat="45.31626547950708" lon="8.429665702028226"><ele>128.0</ele><time>2026-03-28T16:31:54.989Z</time></trkpt><trkpt lat="45.316350170542876" lon="8.429766587897834"><ele>128.0</ele><time>2026-03-28T16:31:56.989Z</time></trkpt><trkpt lat="45.316419231923035" lon="8.429850207761499"><ele>128.0</ele><time>2026-03-28T16:31:58.989Z</time></trkpt><trkpt lat="45.31648811539192" lon="8.42994123513779"><ele>127.83333333333333</ele><time>2026-03-28T16:32:00.989Z</time></trkpt><trkpt lat="45.31657798921073" lon="8.430055236513251"><ele>127.66666666666666</ele><time>2026-03-28T16:32:02.989Z</time></trkpt><trkpt lat="45.31664607392904" lon="8.430142431667173"><ele>127.5</ele><time>2026-03-28T16:32:04.989Z</time></trkpt><trkpt lat="45.316721033795" lon="8.430200641980369"><ele>127.33333333333334</ele><time>2026-03-28T16:32:06.989Z</time></trkpt><trkpt lat="45.316789460957025" lon="8.430264329198089"><ele>127.16666666666667</ele><time>2026-03-28T16:32:10.989Z</time></trkpt><trkpt lat="45.31683908912053" lon="8.430322742313527"><ele>127.0</ele><time>2026-03-28T16:32:12.989Z</time></trkpt><trkpt lat="45.31691387237492" lon="8.43041603245911"><ele>127.0</ele><time>2026-03-28T16:32:14.989Z</time></trkpt><trkpt lat="45.316965065020746" lon="8.43047999361002"><ele>127.0</ele><time>2026-03-28T16:32:15.989Z</time></trkpt><trkpt lat="45.317011385336514" lon="8.430543379435731"><ele>127.0</ele><time>2026-03-28T16:32:16.989Z</time></trkpt><trkpt lat="45.31705673130848" lon="8.430607783415045"><ele>127.0</ele><time>2026-03-28T16:32:17.989Z</time></trkpt><trkpt lat="45.31711397282795" lon="8.43071189311419"><ele>127.0</ele><time>2026-03-28T16:32:18.989Z</time></trkpt><trkpt lat="45.31717116504838" lon="8.430808344833826"><ele>127.0</ele><time>2026-03-28T16:32:19.989Z</time></trkpt><trkpt lat="45.31721713454399" lon="8.430874621548977"><ele>127.0</ele><time>2026-03-28T16:32:20.989Z</time></trkpt><trkpt lat="45.31730167200367" lon="8.43098738480097"><ele>127.0</ele><time>2026-03-28T16:32:22.989Z</time></trkpt><trkpt lat="45.317370150746214" lon="8.431071021504554"><ele>126.99999999999999</ele><time>2026-03-28T16:32:24.989Z</time></trkpt><trkpt lat="45.317438528165845" lon="8.431177172124762"><ele>126.99999999999999</ele><time>2026-03-28T16:32:26.989Z</time></trkpt><trkpt lat="45.3175501282277" lon="8.431290391787835"><ele>127.0</ele><time>2026-03-28T16:32:28.989Z</time></trkpt><trkpt lat="45.31761913952899" lon="8.431344887315804"><ele>127.0</ele><time>2026-03-28T16:32:29.989Z</time></trkpt><trkpt lat="45.317690526195044" lon="8.431417345771315"><ele>127.0</ele><time>2026-03-28T16:32:30.989Z</time></trkpt><trkpt lat="45.317764365390076" lon="8.431511259458224"><ele>126.99999999999999</ele><time>2026-03-28T16:32:31.989Z</time></trkpt><trkpt lat="45.31784223366888" lon="8.431624406294219"><ele>126.99999999999999</ele><time>2026-03-28T16:32:32.989Z</time></trkpt><trkpt lat="45.31792907724983" lon="8.431734597158286"><ele>127.0</ele><time>2026-03-28T16:32:33.989Z</time></trkpt><trkpt lat="45.318014803435275" lon="8.431852314182414"><ele>127.0</ele><time>2026-03-28T16:32:34.989Z</time></trkpt><trkpt lat="45.31810895118659" lon="8.431979139482756"><ele>127.0</ele><time>2026-03-28T16:32:35.989Z</time></trkpt><trkpt lat="45.318201660651184" lon="8.432113313454877"><ele>127.0</ele><time>2026-03-28T16:32:36.989Z</time></trkpt><trkpt lat="45.31830006913479" lon="8.432250026051406"><ele>127.0</ele><time>2026-03-28T16:32:37.989Z</time></trkpt><trkpt lat="45.31840382499799" lon="8.432387085522267"><ele>127.0</ele><time>2026-03-28T16:32:38.989Z</time></trkpt><trkpt lat="45.31850054242805" lon="8.432526271444534"><ele>127.0</ele><time>2026-03-28T16:32:39.989Z</time></trkpt><trkpt lat="45.31860189799341" lon="8.432659371257165"><ele>127.0</ele><time>2026-03-28T16:32:40.989Z</time></trkpt><trkpt lat="45.318703757333736" lon="8.432796379251421"><ele>127.0</ele><time>2026-03-28T16:32:41.989Z</time></trkpt><trkpt lat="45.3188037380551" lon="8.432937875133133"><ele>127.0</ele><time>2026-03-28T16:32:42.989Z</time></trkpt><trkpt lat="45.31890586863564" lon="8.433081020798921"><ele>127.0</ele><time>2026-03-28T16:32:43.989Z</time></trkpt><trkpt lat="45.31900201721435" lon="8.43321501194405"><ele>127.0</ele><time>2026-03-28T16:32:44.989Z</time></trkpt><trkpt lat="45.319108118047936" lon="8.43334585530422"><ele>127.0</ele><time>2026-03-28T16:32:45.989Z</time></trkpt><trkpt lat="45.31921882974193" lon="8.433471399275808"><ele>127.0</ele><time>2026-03-28T16:32:46.989Z</time></trkpt><trkpt lat="45.31933396885739" lon="8.433593611986675"><ele>127.0</ele><time>2026-03-28T16:32:47.989Z</time></trkpt><trkpt lat="45.31945479445415" lon="8.433719070776682"><ele>127.0</ele><time>2026-03-28T16:32:48.989Z</time></trkpt><trkpt lat="45.31957877898475" lon="8.433846655233042"><ele>127.0</ele><time>2026-03-28T16:32:49.989Z</time></trkpt><trkpt lat="45.319696754353046" lon="8.433988727703486"><ele>126.0</ele><time>2026-03-28T16:32:50.989Z</time></trkpt><trkpt lat="45.31981858724211" lon="8.434129372374517"><ele>125.0</ele><time>2026-03-28T16:32:51.989Z</time></trkpt><trkpt lat="45.31994068765271" lon="8.43426649482141"><ele>124.0</ele><time>2026-03-28T16:32:52.989Z</time></trkpt><trkpt lat="45.32006016711779" lon="8.434395069317665"><ele>124.0</ele><time>2026-03-28T16:32:53.989Z</time></trkpt><trkpt lat="45.32018058232661" lon="8.434515742386798"><ele>124.0</ele><time>2026-03-28T16:32:54.99Z</time></trkpt><trkpt lat="45.320312970603396" lon="8.434630860954963"><ele>124.0</ele><time>2026-03-28T16:32:55.99Z</time></trkpt><trkpt lat="45.32044716475669" lon="8.434730435966278"><ele>124.0</ele><time>2026-03-28T16:32:56.99Z</time></trkpt><trkpt lat="45.320587758153415" lon="8.434816796425194"><ele>124.0</ele><time>2026-03-28T16:32:57.99Z</time></trkpt><trkpt lat="45.32073405626038" lon="8.43489023205231"><ele>124.0</ele><time>2026-03-28T16:32:58.99Z</time></trkpt><trkpt lat="45.3208801660368" lon="8.43495746312888"><ele>124.0</ele><time>2026-03-28T16:32:59.99Z</time></trkpt><trkpt lat="45.321030975172064" lon="8.435009885281474"><ele>124.0</ele><time>2026-03-28T16:33:00.99Z</time></trkpt><trkpt lat="45.32118380093144" lon="8.435058281491969"><ele>124.0</ele><time>2026-03-28T16:33:01.99Z</time></trkpt><trkpt lat="45.32133905353759" lon="8.435098021714294"><ele>125.0</ele><time>2026-03-28T16:33:02.99Z</time></trkpt><trkpt lat="45.32149964544305" lon="8.435130383047076"><ele>126.0</ele><time>2026-03-28T16:33:03.99Z</time></trkpt><trkpt lat="45.321662133545594" lon="8.435142304811476"><ele>127.0</ele><time>2026-03-28T16:33:04.99Z</time></trkpt><trkpt lat="45.3218261625739" lon="8.435140956236431"><ele>127.0</ele><time>2026-03-28T16:33:05.99Z</time></trkpt><trkpt lat="45.32199216991213" lon="8.43513296548781"><ele>127.0</ele><time>2026-03-28T16:33:06.99Z</time></trkpt><trkpt lat="45.32215758814788" lon="8.435122790799982"><ele>127.0</ele><time>2026-03-28T16:33:07.99Z</time></trkpt><trkpt lat="45.32232384989802" lon="8.435111483030513"><ele>126.66666666666667</ele><time>2026-03-28T16:33:08.988Z</time></trkpt><trkpt lat="45.32248969204592" lon="8.43510364984039"><ele>126.33333333333334</ele><time>2026-03-28T16:33:09.988Z</time></trkpt><trkpt lat="45.32265595268772" lon="8.435091987519069"><ele>126.0</ele><time>2026-03-28T16:33:10.988Z</time></trkpt><trkpt lat="45.32281848160451" lon="8.435080018361356"><ele>126.0</ele><time>2026-03-28T16:33:11.987Z</time></trkpt><trkpt lat="45.32297788620233" lon="8.435071429114682"><ele>126.0</ele><time>2026-03-28T16:33:12.988Z</time></trkpt><trkpt lat="45.32313484174719" lon="8.435062670031062"><ele>126.0</ele><time>2026-03-28T16:33:13.988Z</time></trkpt><trkpt lat="45.323290973403616" lon="8.435053549992693"><ele>125.33333333333334</ele><time>2026-03-28T16:33:14.988Z</time></trkpt><trkpt lat="45.323444459447" lon="8.435043143165363"><ele>124.66666666666667</ele><time>2026-03-28T16:33:15.988Z</time></trkpt><trkpt lat="45.32359628981873" lon="8.435031719306753"><ele>124.0</ele><time>2026-03-28T16:33:16.988Z</time></trkpt><trkpt lat="45.32374680658824" lon="8.435021569084677"><ele>124.0</ele><time>2026-03-28T16:33:17.988Z</time></trkpt><trkpt lat="45.32389864818893" lon="8.435013261555145"><ele>124.0</ele><time>2026-03-28T16:33:18.988Z</time></trkpt><trkpt lat="45.324046251105536" lon="8.435003442932793"><ele>124.0</ele><time>2026-03-28T16:33:19.988Z</time></trkpt><trkpt lat="45.32418885798405" lon="8.434998679946832"><ele>124.0</ele><time>2026-03-28T16:33:20.988Z</time></trkpt><trkpt lat="45.3243223286929" lon="8.434999013007268"><ele>124.0</ele><time>2026-03-28T16:33:21.988Z</time></trkpt><trkpt lat="45.32444935606722" lon="8.434995930030984"><ele>124.0</ele><time>2026-03-28T16:33:22.988Z</time></trkpt><trkpt lat="45.32456824776048" lon="8.43499040848269"><ele>124.0</ele><time>2026-03-28T16:33:23.988Z</time></trkpt><trkpt lat="45.324677157508965" lon="8.434981543076267"><ele>124.0</ele><time>2026-03-28T16:33:24.988Z</time></trkpt><trkpt lat="45.324780156665234" lon="8.434978165491158"><ele>124.6</ele><time>2026-03-28T16:33:25.988Z</time></trkpt><trkpt lat="45.32486419665784" lon="8.434980758069306"><ele>125.2</ele><time>2026-03-28T16:33:26.988Z</time></trkpt><trkpt lat="45.32493337064346" lon="8.434980401871213"><ele>125.79999999999998</ele><time>2026-03-28T16:33:27.988Z</time></trkpt><trkpt lat="45.32505060126775" lon="8.434973401328408"><ele>126.39999999999999</ele><time>2026-03-28T16:33:29.988Z</time></trkpt><trkpt lat="45.32516062550285" lon="8.434941354870954"><ele>127.0</ele><time>2026-03-28T16:33:31.988Z</time></trkpt><trkpt lat="45.325253665444656" lon="8.43493309825542"><ele>127.0</ele><time>2026-03-28T16:33:33.988Z</time></trkpt><trkpt lat="45.325326727980475" lon="8.434986682473813"><ele>126.99999999999999</ele><time>2026-03-28T16:33:42.988Z</time></trkpt><trkpt lat="45.32537212874248" lon="8.435164615177223"><ele>126.99999999999999</ele><time>2026-03-28T16:33:44.988Z</time></trkpt><trkpt lat="45.3253853363549" lon="8.435284800036808"><ele>127.0</ele><time>2026-03-28T16:33:45.988Z</time></trkpt><trkpt lat="45.32540085695879" lon="8.435409283294002"><ele>127.0</ele><time>2026-03-28T16:33:46.988Z</time></trkpt><trkpt lat="45.32541879286158" lon="8.43553663064407"><ele>126.83333333333334</ele><time>2026-03-28T16:33:47.988Z</time></trkpt><trkpt lat="45.32543420117718" lon="8.435666005618165"><ele>126.66666666666667</ele><time>2026-03-28T16:33:48.988Z</time></trkpt><trkpt lat="45.32544681478769" lon="8.435783074605185"><ele>126.5</ele><time>2026-03-28T16:33:49.988Z</time></trkpt><trkpt lat="45.32545794036638" lon="8.435895035046139"><ele>126.33333333333334</ele><time>2026-03-28T16:33:50.988Z</time></trkpt><trkpt lat="45.32546806784612" lon="8.436005107749144"><ele>126.16666666666667</ele><time>2026-03-28T16:33:51.988Z</time></trkpt><trkpt lat="45.3254803070493" lon="8.436120485998924"><ele>126.0</ele><time>2026-03-28T16:33:52.988Z</time></trkpt><trkpt lat="45.32549719313732" lon="8.43625497520829"><ele>125.8</ele><time>2026-03-28T16:33:53.988Z</time></trkpt><trkpt lat="45.325523633274834" lon="8.436399990173381"><ele>125.6</ele><time>2026-03-28T16:33:54.988Z</time></trkpt><trkpt lat="45.32555009988241" lon="8.436550787206329"><ele>125.4</ele><time>2026-03-28T16:33:55.988Z</time></trkpt><trkpt lat="45.325568874487494" lon="8.436708882115441"><ele>125.2</ele><time>2026-03-28T16:33:56.988Z</time></trkpt><trkpt lat="45.32558475728567" lon="8.436875431880917"><ele>125.0</ele><time>2026-03-28T16:33:57.988Z</time></trkpt><trkpt lat="45.32560138904407" lon="8.437040308551724"><ele>123.25</ele><time>2026-03-28T16:33:58.988Z</time></trkpt><trkpt lat="45.325614793317094" lon="8.437198800409236"><ele>121.5</ele><time>2026-03-28T16:33:59.988Z</time></trkpt><trkpt lat="45.32563103909724" lon="8.437363102667788"><ele>119.75</ele><time>2026-03-28T16:34:00.988Z</time></trkpt><trkpt lat="45.32564712310571" lon="8.437534373419664"><ele>118.0</ele><time>2026-03-28T16:34:01.988Z</time></trkpt><trkpt lat="45.32566466368233" lon="8.437710368920236"><ele>118.0</ele><time>2026-03-28T16:34:02.988Z</time></trkpt><trkpt lat="45.3256843628665" lon="8.437892682874802"><ele>118.0</ele><time>2026-03-28T16:34:03.988Z</time></trkpt><trkpt lat="45.325704449958856" lon="8.438080347298884"><ele>118.0</ele><time>2026-03-28T16:34:04.988Z</time></trkpt><trkpt lat="45.32572560368263" lon="8.438274777191518"><ele>118.0</ele><time>2026-03-28T16:34:05.988Z</time></trkpt><trkpt lat="45.3257447200418" lon="8.438479382039118"><ele>117.75</ele><time>2026-03-28T16:34:06.988Z</time></trkpt><trkpt lat="45.32576539186328" lon="8.438679039309699"><ele>117.5</ele><time>2026-03-28T16:34:07.988Z</time></trkpt><trkpt lat="45.32579038789915" lon="8.438885820178713"><ele>117.25</ele><time>2026-03-28T16:34:08.988Z</time></trkpt><trkpt lat="45.32581593448334" lon="8.43910375891991"><ele>117.0</ele><time>2026-03-28T16:34:09.988Z</time></trkpt><trkpt lat="45.325845633594625" lon="8.439333249355407"><ele>118.0</ele><time>2026-03-28T16:34:10.988Z</time></trkpt><trkpt lat="45.32587694842301" lon="8.439582834937513"><ele>119.0</ele><time>2026-03-28T16:34:11.988Z</time></trkpt><trkpt lat="45.32590629960259" lon="8.43984543137357"><ele>120.0</ele><time>2026-03-28T16:34:12.988Z</time></trkpt><trkpt lat="45.32593647103953" lon="8.440120646774897"><ele>120.66666666666666</ele><time>2026-03-28T16:34:13.988Z</time></trkpt><trkpt lat="45.32597159301282" lon="8.44041471491721"><ele>121.33333333333333</ele><time>2026-03-28T16:34:14.988Z</time></trkpt><trkpt lat="45.32600764762211" lon="8.440731715999934"><ele>122.0</ele><time>2026-03-28T16:34:15.988Z</time></trkpt><trkpt lat="45.32604010361933" lon="8.4410591892306"><ele>122.0</ele><time>2026-03-28T16:34:16.988Z</time></trkpt><trkpt lat="45.32606716221528" lon="8.441383420455324"><ele>122.0</ele><time>2026-03-28T16:34:17.988Z</time></trkpt><trkpt lat="45.32610145279037" lon="8.441718460369335"><ele>122.0</ele><time>2026-03-28T16:34:18.988Z</time></trkpt><trkpt lat="45.326140518478766" lon="8.442062890519534"><ele>122.0</ele><time>2026-03-28T16:34:19.988Z</time></trkpt><trkpt lat="45.32617659519946" lon="8.442410095244496"><ele>122.0</ele><time>2026-03-28T16:34:20.988Z</time></trkpt><trkpt lat="45.326214796704654" lon="8.442755724123534"><ele>122.0</ele><time>2026-03-28T16:34:21.988Z</time></trkpt><trkpt lat="45.32625286115261" lon="8.44309951908454"><ele>122.0</ele><time>2026-03-28T16:34:22.989Z</time></trkpt><trkpt lat="45.3262874203361" lon="8.44343872818803"><ele>122.0</ele><time>2026-03-28T16:34:23.989Z</time></trkpt><trkpt lat="45.32631991666877" lon="8.44377474481983"><ele>122.0</ele><time>2026-03-28T16:34:24.989Z</time></trkpt><trkpt lat="45.32635466297797" lon="8.444108472133683"><ele>122.0</ele><time>2026-03-28T16:34:25.989Z</time></trkpt><trkpt lat="45.326388449881414" lon="8.444440603272811"><ele>122.5</ele><time>2026-03-28T16:34:26.989Z</time></trkpt><trkpt lat="45.32642467412228" lon="8.444771530769396"><ele>123.0</ele><time>2026-03-28T16:34:27.989Z</time></trkpt><trkpt lat="45.32645955379413" lon="8.445092145607024"><ele>123.0</ele><time>2026-03-28T16:34:28.989Z</time></trkpt><trkpt lat="45.32648578310819" lon="8.445396136795946"><ele>123.0</ele><time>2026-03-28T16:34:29.989Z</time></trkpt><trkpt lat="45.3265114341743" lon="8.445681937311017"><ele>123.0</ele><time>2026-03-28T16:34:30.989Z</time></trkpt><trkpt lat="45.32654815393744" lon="8.44594605431172"><ele>123.0</ele><time>2026-03-28T16:34:31.989Z</time></trkpt><trkpt lat="45.326612824594804" lon="8.44619545071937"><ele>123.0</ele><time>2026-03-28T16:34:32.989Z</time></trkpt><trkpt lat="45.32670764955143" lon="8.446433824046508"><ele>123.0</ele><time>2026-03-28T16:34:33.989Z</time></trkpt><trkpt lat="45.326830842414566" lon="8.446640070492313"><ele>123.0</ele><time>2026-03-28T16:34:34.989Z</time></trkpt><trkpt lat="45.32698327669105" lon="8.446805624423812"><ele>123.0</ele><time>2026-03-28T16:34:35.989Z</time></trkpt><trkpt lat="45.32715676472957" lon="8.4469346885559"><ele>123.0</ele><time>2026-03-28T16:34:36.989Z</time></trkpt><trkpt lat="45.327354421543355" lon="8.44702635686003"><ele>123.0</ele><time>2026-03-28T16:34:37.989Z</time></trkpt><trkpt lat="45.32755486442764" lon="8.447106448480062"><ele>123.0</ele><time>2026-03-28T16:34:38.989Z</time></trkpt><trkpt lat="45.327763277031956" lon="8.447183649476917"><ele>123.0</ele><time>2026-03-28T16:34:39.989Z</time></trkpt><trkpt lat="45.32797611244161" lon="8.447265152870923"><ele>123.5</ele><time>2026-03-28T16:34:40.989Z</time></trkpt><trkpt lat="45.32819698655451" lon="8.447353722104456"><ele>124.0</ele><time>2026-03-28T16:34:41.989Z</time></trkpt><trkpt lat="45.32841945724291" lon="8.447444887980593"><ele>124.0</ele><time>2026-03-28T16:34:42.989Z</time></trkpt><trkpt lat="45.328649054066496" lon="8.44753815354693"><ele>124.0</ele><time>2026-03-28T16:34:43.989Z</time></trkpt><trkpt lat="45.32888026755908" lon="8.44762700802414"><ele>123.5</ele><time>2026-03-28T16:34:44.989Z</time></trkpt><trkpt lat="45.32911803839882" lon="8.44771420862426"><ele>123.0</ele><time>2026-03-28T16:34:45.989Z</time></trkpt><trkpt lat="45.32935674496596" lon="8.447805839445044"><ele>123.0</ele><time>2026-03-28T16:34:46.989Z</time></trkpt><trkpt lat="45.329594899854136" lon="8.447904510080914"><ele>123.0</ele><time>2026-03-28T16:34:47.989Z</time></trkpt><trkpt lat="45.32983200604548" lon="8.448001663054914"><ele>121.5</ele><time>2026-03-28T16:34:48.989Z</time></trkpt><trkpt lat="45.33007504559001" lon="8.44809688425627"><ele>120.0</ele><time>2026-03-28T16:34:49.989Z</time></trkpt><trkpt lat="45.330316076101546" lon="8.448192061466926"><ele>120.0</ele><time>2026-03-28T16:34:50.989Z</time></trkpt><trkpt lat="45.33055646834348" lon="8.448286928680151"><ele>120.0</ele><time>2026-03-28T16:34:51.989Z</time></trkpt><trkpt lat="45.330794752633146" lon="8.448381194872674"><ele>121.0</ele><time>2026-03-28T16:34:52.989Z</time></trkpt><trkpt lat="45.33102180198187" lon="8.448472268954655"><ele>122.0</ele><time>2026-03-28T16:34:53.989Z</time></trkpt><trkpt lat="45.33124661494755" lon="8.448558938601412"><ele>122.66666666666666</ele><time>2026-03-28T16:34:54.989Z</time></trkpt><trkpt lat="45.33146433602165" lon="8.448641818600219"><ele>123.33333333333334</ele><time>2026-03-28T16:34:55.989Z</time></trkpt><trkpt lat="45.33167981114275" lon="8.448721974158447"><ele>124.0</ele><time>2026-03-28T16:34:56.989Z</time></trkpt><trkpt lat="45.3318903353529" lon="8.448802691913606"><ele>124.0</ele><time>2026-03-28T16:34:57.989Z</time></trkpt><trkpt lat="45.33209848966188" lon="8.44888323366515"><ele>124.0</ele><time>2026-03-28T16:34:58.989Z</time></trkpt><trkpt lat="45.332300040332385" lon="8.44896363694542"><ele>124.0</ele><time>2026-03-28T16:34:59.989Z</time></trkpt><trkpt lat="45.332498915951334" lon="8.449043466648074"><ele>124.0</ele><time>2026-03-28T16:35:00.989Z</time></trkpt><trkpt lat="45.33269513391842" lon="8.44912065639027"><ele>124.0</ele><time>2026-03-28T16:35:01.989Z</time></trkpt><trkpt lat="45.3328872092438" lon="8.449192695531549"><ele>124.0</ele><time>2026-03-28T16:35:02.989Z</time></trkpt><trkpt lat="45.333071415122404" lon="8.449261801347415"><ele>124.0</ele><time>2026-03-28T16:35:03.989Z</time></trkpt><trkpt lat="45.3332580813461" lon="8.44933183910415"><ele>124.0</ele><time>2026-03-28T16:35:04.989Z</time></trkpt><trkpt lat="45.333437079598404" lon="8.449402663872256"><ele>124.0</ele><time>2026-03-28T16:35:05.989Z</time></trkpt><trkpt lat="45.333608931826376" lon="8.44947042213959"><ele>124.0</ele><time>2026-03-28T16:35:06.989Z</time></trkpt><trkpt lat="45.333778786394426" lon="8.44953983150147"><ele>124.0</ele><time>2026-03-28T16:35:07.989Z</time></trkpt><trkpt lat="45.333941922813985" lon="8.44960250306693"><ele>124.0</ele><time>2026-03-28T16:35:08.989Z</time></trkpt><trkpt lat="45.33409875609309" lon="8.449661758014592"><ele>124.25</ele><time>2026-03-28T16:35:09.989Z</time></trkpt><trkpt lat="45.33424960212201" lon="8.449720461023327"><ele>124.5</ele><time>2026-03-28T16:35:10.989Z</time></trkpt><trkpt lat="45.33439357819041" lon="8.449776575586164"><ele>124.75</ele><time>2026-03-28T16:35:11.989Z</time></trkpt><trkpt lat="45.334531336017065" lon="8.449831489519228"><ele>125.0</ele><time>2026-03-28T16:35:12.989Z</time></trkpt><trkpt lat="45.33466160702116" lon="8.44988343228661"><ele>124.5</ele><time>2026-03-28T16:35:13.989Z</time></trkpt><trkpt lat="45.33478584800549" lon="8.44993058514511"><ele>124.0</ele><time>2026-03-28T16:35:14.987Z</time></trkpt><trkpt lat="45.33490783832624" lon="8.449972238990153"><ele>123.5</ele><time>2026-03-28T16:35:15.988Z</time></trkpt><trkpt lat="45.33502374160416" lon="8.450009361282666"><ele>123.0</ele><time>2026-03-28T16:35:16.988Z</time></trkpt><trkpt lat="45.33513255258709" lon="8.45004571246118"><ele>123.0</ele><time>2026-03-28T16:35:17.987Z</time></trkpt><trkpt lat="45.335235735476196" lon="8.450086221206949"><ele>123.00000000000001</ele><time>2026-03-28T16:35:18.988Z</time></trkpt><trkpt lat="45.335334613940596" lon="8.45012734143173"><ele>123.00000000000001</ele><time>2026-03-28T16:35:19.988Z</time></trkpt><trkpt lat="45.335430372355" lon="8.450165854197476"><ele>123.0</ele><time>2026-03-28T16:35:20.987Z</time></trkpt><trkpt lat="45.33553398088802" lon="8.45020649048474"><ele>123.0</ele><time>2026-03-28T16:35:21.988Z</time></trkpt><trkpt lat="45.335639988383015" lon="8.450246671870747"><ele>123.5</ele><time>2026-03-28T16:35:22.988Z</time></trkpt><trkpt lat="45.3357471487344" lon="8.45028662815824"><ele>124.0</ele><time>2026-03-28T16:35:23.988Z</time></trkpt><trkpt lat="45.33585697936265" lon="8.45032975146332"><ele>124.5</ele><time>2026-03-28T16:35:24.988Z</time></trkpt><trkpt lat="45.33597675856732" lon="8.450379485585552"><ele>125.0</ele><time>2026-03-28T16:35:25.988Z</time></trkpt><trkpt lat="45.33610964155838" lon="8.450436063121566"><ele>124.5</ele><time>2026-03-28T16:35:26.987Z</time></trkpt><trkpt lat="45.3362491168868" lon="8.45049368283169"><ele>124.0</ele><time>2026-03-28T16:35:27.987Z</time></trkpt><trkpt lat="45.33638835064261" lon="8.450549844099378"><ele>123.5</ele><time>2026-03-28T16:35:28.987Z</time></trkpt><trkpt lat="45.33652253800023" lon="8.450604965622457"><ele>123.0</ele><time>2026-03-28T16:35:29.987Z</time></trkpt><trkpt lat="45.33666104271339" lon="8.450659185940006"><ele>122.66666666666666</ele><time>2026-03-28T16:35:30.987Z</time></trkpt><trkpt lat="45.3368051959778" lon="8.450713661795914"><ele>122.33333333333333</ele><time>2026-03-28T16:35:31.987Z</time></trkpt><trkpt lat="45.3369537339508" lon="8.450767002720683"><ele>122.0</ele><time>2026-03-28T16:35:32.987Z</time></trkpt><trkpt lat="45.33710245092943" lon="8.4508280952957"><ele>122.0</ele><time>2026-03-28T16:35:33.987Z</time></trkpt><trkpt lat="45.33724966907242" lon="8.450888512750273"><ele>122.0</ele><time>2026-03-28T16:35:34.987Z</time></trkpt><trkpt lat="45.33738735251867" lon="8.450945648726936"><ele>122.0</ele><time>2026-03-28T16:35:35.987Z</time></trkpt><trkpt lat="45.33750121529872" lon="8.45099175581204"><ele>122.0</ele><time>2026-03-28T16:35:36.987Z</time></trkpt><trkpt lat="45.33760107589902" lon="8.451029564585081"><ele>122.0</ele><time>2026-03-28T16:35:37.987Z</time></trkpt><trkpt lat="45.33769535499474" lon="8.451060822831845"><ele>121.99999999999999</ele><time>2026-03-28T16:35:38.987Z</time></trkpt><trkpt lat="45.33778308483056" lon="8.4510953595226"><ele>121.99999999999999</ele><time>2026-03-28T16:35:39.987Z</time></trkpt><trkpt lat="45.33787714168067" lon="8.451130118149466"><ele>122.0</ele><time>2026-03-28T16:35:40.987Z</time></trkpt><trkpt lat="45.337986593490584" lon="8.451171567002023"><ele>122.0</ele><time>2026-03-28T16:35:41.987Z</time></trkpt><trkpt lat="45.338109148069215" lon="8.45121890110467"><ele>122.0</ele><time>2026-03-28T16:35:42.987Z</time></trkpt><trkpt lat="45.33824460799203" lon="8.45126822833703"><ele>122.0</ele><time>2026-03-28T16:35:43.987Z</time></trkpt><trkpt lat="45.338390716690405" lon="8.45132133495305"><ele>122.0</ele><time>2026-03-28T16:35:44.987Z</time></trkpt><trkpt lat="45.338547383164205" lon="8.45137678175469"><ele>121.66666666666666</ele><time>2026-03-28T16:35:45.987Z</time></trkpt><trkpt lat="45.33871243212271" lon="8.451444155589412"><ele>121.33333333333334</ele><time>2026-03-28T16:35:46.987Z</time></trkpt><trkpt lat="45.33888443906438" lon="8.451517842386798"><ele>121.0</ele><time>2026-03-28T16:35:47.987Z</time></trkpt><trkpt lat="45.33905841959145" lon="8.45159742964848"><ele>121.66666666666667</ele><time>2026-03-28T16:35:48.987Z</time></trkpt><trkpt lat="45.339242697942616" lon="8.45167324599113"><ele>122.33333333333334</ele><time>2026-03-28T16:35:49.987Z</time></trkpt><trkpt lat="45.33941244626154" lon="8.451735896541273"><ele>123.0</ele><time>2026-03-28T16:35:50.987Z</time></trkpt><trkpt lat="45.339572492280936" lon="8.451796739330634"><ele>123.25</ele><time>2026-03-28T16:35:51.987Z</time></trkpt><trkpt lat="45.339718070132655" lon="8.45185438937495"><ele>123.5</ele><time>2026-03-28T16:35:52.987Z</time></trkpt><trkpt lat="45.33984820219571" lon="8.451903932230566"><ele>123.75</ele><time>2026-03-28T16:35:53.987Z</time></trkpt><trkpt lat="45.33996943378882" lon="8.45194900802458"><ele>124.0</ele><time>2026-03-28T16:35:54.987Z</time></trkpt><trkpt lat="45.34008078061593" lon="8.45199569203677"><ele>124.0</ele><time>2026-03-28T16:35:55.987Z</time></trkpt><trkpt lat="45.34018338031462" lon="8.452044516294212"><ele>124.0</ele><time>2026-03-28T16:35:56.987Z</time></trkpt><trkpt lat="45.340274883598916" lon="8.45209169682528"><ele>124.0</ele><time>2026-03-28T16:35:57.987Z</time></trkpt><trkpt lat="45.34036216971908" lon="8.452147237564633"><ele>124.0</ele><time>2026-03-28T16:35:58.987Z</time></trkpt><trkpt lat="45.34043294752612" lon="8.452207162083488"><ele>124.0</ele><time>2026-03-28T16:35:59.988Z</time></trkpt><trkpt lat="45.34048845387467" lon="8.452271894407932"><ele>123.6</ele><time>2026-03-28T16:36:00.988Z</time></trkpt><trkpt lat="45.34057377418999" lon="8.452380088489107"><ele>123.2</ele><time>2026-03-28T16:36:02.988Z</time></trkpt><trkpt lat="45.3406893435033" lon="8.452412493665324"><ele>122.79999999999998</ele><time>2026-03-28T16:36:04.988Z</time></trkpt><trkpt lat="45.34075788721803" lon="8.452382398897"><ele>122.39999999999999</ele><time>2026-03-28T16:36:05.988Z</time></trkpt><trkpt lat="45.34083476780027" lon="8.452334178229618"><ele>122.0</ele><time>2026-03-28T16:36:06.988Z</time></trkpt><trkpt lat="45.340920687054" lon="8.452283528647929"><ele>122.0</ele><time>2026-03-28T16:36:07.988Z</time></trkpt><trkpt lat="45.3410093571271" lon="8.45225389829945"><ele>121.99999999999999</ele><time>2026-03-28T16:36:08.988Z</time></trkpt><trkpt lat="45.34111361606416" lon="8.452240091085029"><ele>121.99999999999999</ele><time>2026-03-28T16:36:09.988Z</time></trkpt><trkpt lat="45.34122426124496" lon="8.452243183363759"><ele>122.0</ele><time>2026-03-28T16:36:10.988Z</time></trkpt><trkpt lat="45.341329849513905" lon="8.452248511100505"><ele>122.0</ele><time>2026-03-28T16:36:11.988Z</time></trkpt><trkpt lat="45.34145038450753" lon="8.452249920718279"><ele>122.75</ele><time>2026-03-28T16:36:12.988Z</time></trkpt><trkpt lat="45.34157829244269" lon="8.452249630400754"><ele>123.5</ele><time>2026-03-28T16:36:13.988Z</time></trkpt><trkpt lat="45.341719749428854" lon="8.452248783238364"><ele>124.25</ele><time>2026-03-28T16:36:14.988Z</time></trkpt><trkpt lat="45.34188172778305" lon="8.45224321668422"><ele>125.0</ele><time>2026-03-28T16:36:15.988Z</time></trkpt><trkpt lat="45.34206600379798" lon="8.45223681416406"><ele>124.0</ele><time>2026-03-28T16:36:16.988Z</time></trkpt><trkpt lat="45.342266181029466" lon="8.452238692855543"><ele>123.0</ele><time>2026-03-28T16:36:17.988Z</time></trkpt><trkpt lat="45.34246986636029" lon="8.452256225718985"><ele>122.0</ele><time>2026-03-28T16:36:18.988Z</time></trkpt><trkpt lat="45.34267049358566" lon="8.452276585014323"><ele>122.0</ele><time>2026-03-28T16:36:19.988Z</time></trkpt><trkpt lat="45.342868389185085" lon="8.452289710420551"><ele>122.0</ele><time>2026-03-28T16:36:20.988Z</time></trkpt><trkpt lat="45.34307087737471" lon="8.452295013550842"><ele>122.0</ele><time>2026-03-28T16:36:21.988Z</time></trkpt><trkpt lat="45.34327948340303" lon="8.45229246405194"><ele>122.0</ele><time>2026-03-28T16:36:22.988Z</time></trkpt><trkpt lat="45.34349129248373" lon="8.452290108338135"><ele>122.0</ele><time>2026-03-28T16:36:23.988Z</time></trkpt><trkpt lat="45.343689379968524" lon="8.452294679863067"><ele>122.0</ele><time>2026-03-28T16:36:24.988Z</time></trkpt><trkpt lat="45.34388739988049" lon="8.452304908101473"><ele>122.33333333333333</ele><time>2026-03-28T16:36:25.988Z</time></trkpt><trkpt lat="45.34408737504281" lon="8.452310724918394"><ele>122.66666666666666</ele><time>2026-03-28T16:36:26.988Z</time></trkpt><trkpt lat="45.34428869842811" lon="8.452315786401492"><ele>123.0</ele><time>2026-03-28T16:36:27.988Z</time></trkpt><trkpt lat="45.344491538595186" lon="8.452320776443562"><ele>123.0</ele><time>2026-03-28T16:36:28.988Z</time></trkpt><trkpt lat="45.34469392577115" lon="8.452325686278263"><ele>123.0</ele><time>2026-03-28T16:36:29.988Z</time></trkpt><trkpt lat="45.344896304065365" lon="8.452333753356834"><ele>123.0</ele><time>2026-03-28T16:36:30.988Z</time></trkpt><trkpt lat="45.34509630098781" lon="8.452341827558138"><ele>123.66666666666666</ele><time>2026-03-28T16:36:31.988Z</time></trkpt><trkpt lat="45.34528729342619" lon="8.452349607438334"><ele>124.33333333333333</ele><time>2026-03-28T16:36:32.988Z</time></trkpt><trkpt lat="45.34547266027895" lon="8.45235338103603"><ele>125.0</ele><time>2026-03-28T16:36:33.988Z</time></trkpt><trkpt lat="45.34565522430797" lon="8.452357093964"><ele>125.0</ele><time>2026-03-28T16:36:34.988Z</time></trkpt><trkpt lat="45.34583735896729" lon="8.45235760222039"><ele>125.0</ele><time>2026-03-28T16:36:35.988Z</time></trkpt><trkpt lat="45.346020335584356" lon="8.452357237347046"><ele>125.0</ele><time>2026-03-28T16:36:36.988Z</time></trkpt><trkpt lat="45.3461980940875" lon="8.452381017238302"><ele>125.0</ele><time>2026-03-28T16:36:37.988Z</time></trkpt><trkpt lat="45.346363498515856" lon="8.452460541860859"><ele>125.0</ele><time>2026-03-28T16:36:38.988Z</time></trkpt><trkpt lat="45.346519496799395" lon="8.452591106051875"><ele>125.0</ele><time>2026-03-28T16:36:39.988Z</time></trkpt><trkpt lat="45.34666604055265" lon="8.452761057308743"><ele>124.66666666666666</ele><time>2026-03-28T16:36:40.988Z</time></trkpt><trkpt lat="45.34680106473467" lon="8.452944532923414"><ele>124.33333333333334</ele><time>2026-03-28T16:36:41.988Z</time></trkpt><trkpt lat="45.34693906788329" lon="8.453127560661144"><ele>124.0</ele><time>2026-03-28T16:36:42.988Z</time></trkpt><trkpt lat="45.34707530243577" lon="8.45330980661886"><ele>124.0</ele><time>2026-03-28T16:36:43.988Z</time></trkpt><trkpt lat="45.34721064414741" lon="8.453483555849973"><ele>124.0</ele><time>2026-03-28T16:36:44.988Z</time></trkpt><trkpt lat="45.347342927098104" lon="8.453653279338177"><ele>124.0</ele><time>2026-03-28T16:36:45.988Z</time></trkpt><trkpt lat="45.347473513816766" lon="8.453821971256435"><ele>124.33333333333334</ele><time>2026-03-28T16:36:46.988Z</time></trkpt><trkpt lat="45.347598705897056" lon="8.453982880833008"><ele>124.66666666666666</ele><time>2026-03-28T16:36:47.988Z</time></trkpt><trkpt lat="45.347720300166046" lon="8.45414042030528"><ele>125.0</ele><time>2026-03-28T16:36:48.988Z</time></trkpt><trkpt lat="45.3478379363901" lon="8.454295413383246"><ele>125.0</ele><time>2026-03-28T16:36:49.988Z</time></trkpt><trkpt lat="45.347953231502494" lon="8.454446442794284"><ele>125.0</ele><time>2026-03-28T16:36:50.988Z</time></trkpt><trkpt lat="45.348068533088274" lon="8.454594254119282"><ele>125.0</ele><time>2026-03-28T16:36:51.988Z</time></trkpt><trkpt lat="45.34818216992956" lon="8.45474251080242"><ele>125.0</ele><time>2026-03-28T16:36:52.988Z</time></trkpt><trkpt lat="45.348293589772844" lon="8.454888905972997"><ele>125.0</ele><time>2026-03-28T16:36:53.988Z</time></trkpt><trkpt lat="45.34840662848574" lon="8.455035024292938"><ele>125.0</ele><time>2026-03-28T16:36:54.988Z</time></trkpt><trkpt lat="45.34851969251437" lon="8.455179165126747"><ele>125.0</ele><time>2026-03-28T16:36:55.988Z</time></trkpt><trkpt lat="45.34863284401047" lon="8.455320511308438"><ele>125.0</ele><time>2026-03-28T16:36:56.988Z</time></trkpt><trkpt lat="45.348743002958564" lon="8.455460346581667"><ele>125.0</ele><time>2026-03-28T16:36:57.988Z</time></trkpt><trkpt lat="45.34885387060599" lon="8.45560398716533"><ele>125.0</ele><time>2026-03-28T16:36:58.988Z</time></trkpt><trkpt lat="45.348964786968025" lon="8.455749756314473"><ele>124.66666666666666</ele><time>2026-03-28T16:36:59.988Z</time></trkpt><trkpt lat="45.34907599368941" lon="8.455892502482472"><ele>124.33333333333334</ele><time>2026-03-28T16:37:00.988Z</time></trkpt><trkpt lat="45.34918827749184" lon="8.456038835546686"><ele>124.0</ele><time>2026-03-28T16:37:01.988Z</time></trkpt><trkpt lat="45.349305304477596" lon="8.45618255747758"><ele>123.66666666666667</ele><time>2026-03-28T16:37:02.988Z</time></trkpt><trkpt lat="45.34942258760525" lon="8.456325088382515"><ele>123.33333333333334</ele><time>2026-03-28T16:37:03.988Z</time></trkpt><trkpt lat="45.34953609164958" lon="8.456477540718861"><ele>123.0</ele><time>2026-03-28T16:37:04.988Z</time></trkpt><trkpt lat="45.3496514372981" lon="8.456622166520866"><ele>123.25</ele><time>2026-03-28T16:37:05.988Z</time></trkpt><trkpt lat="45.349764346993815" lon="8.456753486105363"><ele>123.5</ele><time>2026-03-28T16:37:06.988Z</time></trkpt><trkpt lat="45.3498625812388" lon="8.45687946187079"><ele>123.75</ele><time>2026-03-28T16:37:07.988Z</time></trkpt><trkpt lat="45.34995860198275" lon="8.457001307553051"><ele>124.0</ele><time>2026-03-28T16:37:08.988Z</time></trkpt><trkpt lat="45.3500507006309" lon="8.457120766564628"><ele>123.5</ele><time>2026-03-28T16:37:09.988Z</time></trkpt><trkpt lat="45.35014484423363" lon="8.45724363878004"><ele>123.0</ele><time>2026-03-28T16:37:10.988Z</time></trkpt><trkpt lat="45.3502372553764" lon="8.45735709936085"><ele>122.5</ele><time>2026-03-28T16:37:11.988Z</time></trkpt><trkpt lat="45.35033674709609" lon="8.457473350857239"><ele>122.0</ele><time>2026-03-28T16:37:12.988Z</time></trkpt><trkpt lat="45.350440268467096" lon="8.457603541098328"><ele>122.33333333333333</ele><time>2026-03-28T16:37:13.988Z</time></trkpt><trkpt lat="45.350549152049126" lon="8.457743309449011"><ele>122.66666666666666</ele><time>2026-03-28T16:37:14.988Z</time></trkpt><trkpt lat="45.350665436436614" lon="8.45789462689239"><ele>123.0</ele><time>2026-03-28T16:37:15.988Z</time></trkpt><trkpt lat="45.35078558055355" lon="8.458049797554212"><ele>123.33333333333334</ele><time>2026-03-28T16:37:16.988Z</time></trkpt><trkpt lat="45.3509112271081" lon="8.458211967257943"><ele>123.66666666666667</ele><time>2026-03-28T16:37:17.988Z</time></trkpt><trkpt lat="45.35104256451929" lon="8.458376888430305"><ele>124.0</ele><time>2026-03-28T16:37:18.988Z</time></trkpt><trkpt lat="45.35117368848454" lon="8.458545738184972"><ele>124.0</ele><time>2026-03-28T16:37:19.988Z</time></trkpt><trkpt lat="45.35130519242951" lon="8.458713281666588"><ele>124.0</ele><time>2026-03-28T16:37:20.987Z</time></trkpt><trkpt lat="45.35143100365517" lon="8.458872518804442"><ele>124.0</ele><time>2026-03-28T16:37:21.987Z</time></trkpt><trkpt lat="45.351549367247706" lon="8.45902311720956"><ele>124.66666666666667</ele><time>2026-03-28T16:37:22.987Z</time></trkpt><trkpt lat="45.35166816713561" lon="8.459170838611605"><ele>125.33333333333334</ele><time>2026-03-28T16:37:23.988Z</time></trkpt><trkpt lat="45.351780931479425" lon="8.459320105994815"><ele>126.0</ele><time>2026-03-28T16:37:24.987Z</time></trkpt><trkpt lat="45.351894338636356" lon="8.45947645338546"><ele>126.0</ele><time>2026-03-28T16:37:25.987Z</time></trkpt><trkpt lat="45.35200958045546" lon="8.459637030693502"><ele>126.0</ele><time>2026-03-28T16:37:26.987Z</time></trkpt><trkpt lat="45.35212745493638" lon="8.459794451893075"><ele>126.0</ele><time>2026-03-28T16:37:27.987Z</time></trkpt><trkpt lat="45.35224324628049" lon="8.45993749182588"><ele>126.0</ele><time>2026-03-28T16:37:28.987Z</time></trkpt><trkpt lat="45.35235766071263" lon="8.460079157896283"><ele>126.0</ele><time>2026-03-28T16:37:29.987Z</time></trkpt><trkpt lat="45.352470919636225" lon="8.46022508810162"><ele>126.0</ele><time>2026-03-28T16:37:30.987Z</time></trkpt><trkpt lat="45.35258512933556" lon="8.460376191021123"><ele>125.33333333333334</ele><time>2026-03-28T16:37:31.987Z</time></trkpt><trkpt lat="45.35270078595735" lon="8.460530408055572"><ele>124.66666666666667</ele><time>2026-03-28T16:37:32.987Z</time></trkpt><trkpt lat="45.35281954442313" lon="8.460682480433157"><ele>124.0</ele><time>2026-03-28T16:37:33.987Z</time></trkpt><trkpt lat="45.352945601938615" lon="8.460835505758137"><ele>124.0</ele><time>2026-03-28T16:37:34.987Z</time></trkpt><trkpt lat="45.35306668418802" lon="8.460982382834285"><ele>124.0</ele><time>2026-03-28T16:37:35.987Z</time></trkpt><trkpt lat="45.3531814691111" lon="8.461134157378112"><ele>124.0</ele><time>2026-03-28T16:37:36.987Z</time></trkpt><trkpt lat="45.35329559176354" lon="8.46128967927374"><ele>124.33333333333334</ele><time>2026-03-28T16:37:37.987Z</time></trkpt><trkpt lat="45.35340638528836" lon="8.46143651940938"><ele>124.66666666666666</ele><time>2026-03-28T16:37:38.987Z</time></trkpt><trkpt lat="45.35351362311753" lon="8.461582528999863"><ele>125.0</ele><time>2026-03-28T16:37:39.987Z</time></trkpt><trkpt lat="45.353623079045065" lon="8.46173264460668"><ele>125.0</ele><time>2026-03-28T16:37:40.988Z</time></trkpt><trkpt lat="45.353732884847965" lon="8.461883416194194"><ele>125.0</ele><time>2026-03-28T16:37:41.988Z</time></trkpt><trkpt lat="45.35384329922635" lon="8.462024260927667"><ele>125.0</ele><time>2026-03-28T16:37:42.988Z</time></trkpt><trkpt lat="45.35395107323387" lon="8.462164701081607"><ele>125.0</ele><time>2026-03-28T16:37:43.988Z</time></trkpt><trkpt lat="45.354058475633806" lon="8.462299176270404"><ele>125.25</ele><time>2026-03-28T16:37:44.988Z</time></trkpt><trkpt lat="45.354157755235285" lon="8.462426693323044"><ele>125.5</ele><time>2026-03-28T16:37:45.988Z</time></trkpt><trkpt lat="45.35425436207844" lon="8.462544441918734"><ele>125.75</ele><time>2026-03-28T16:37:46.988Z</time></trkpt><trkpt lat="45.354343651238715" lon="8.462659260511213"><ele>126.0</ele><time>2026-03-28T16:37:47.988Z</time></trkpt><trkpt lat="45.35443097800302" lon="8.462768956316701"><ele>126.0</ele><time>2026-03-28T16:37:48.988Z</time></trkpt><trkpt lat="45.354512254667" lon="8.462872264924103"><ele>126.0</ele><time>2026-03-28T16:37:49.988Z</time></trkpt><trkpt lat="45.35459168988756" lon="8.462972758629693"><ele>126.0</ele><time>2026-03-28T16:37:50.988Z</time></trkpt><trkpt lat="45.354666026199155" lon="8.463076593105544"><ele>126.0</ele><time>2026-03-28T16:37:51.988Z</time></trkpt><trkpt lat="45.35474356831902" lon="8.463187439293646"><ele>126.0</ele><time>2026-03-28T16:37:52.988Z</time></trkpt><trkpt lat="45.354828239136005" lon="8.463298982206899"><ele>126.0</ele><time>2026-03-28T16:37:53.988Z</time></trkpt><trkpt lat="45.35491627274244" lon="8.463415459151404"><ele>126.0</ele><time>2026-03-28T16:37:54.988Z</time></trkpt><trkpt lat="45.35500790734286" lon="8.463534526985194"><ele>126.0</ele><time>2026-03-28T16:37:55.988Z</time></trkpt><trkpt lat="45.3551033720381" lon="8.463658858373222"><ele>126.0</ele><time>2026-03-28T16:37:56.988Z</time></trkpt><trkpt lat="45.35520197884915" lon="8.463787634133894"><ele>125.75</ele><time>2026-03-28T16:37:57.988Z</time></trkpt><trkpt lat="45.35530463804136" lon="8.46391951172542"><ele>125.5</ele><time>2026-03-28T16:37:58.988Z</time></trkpt><trkpt lat="45.35541356706645" lon="8.464052743322531"><ele>125.25</ele><time>2026-03-28T16:37:59.988Z</time></trkpt><trkpt lat="45.355522693891224" lon="8.464189866211377"><ele>125.0</ele><time>2026-03-28T16:38:00.988Z</time></trkpt><trkpt lat="45.355632612582426" lon="8.464323208427267"><ele>125.0</ele><time>2026-03-28T16:38:01.988Z</time></trkpt><trkpt lat="45.355737861218074" lon="8.464454170509882"><ele>125.0</ele><time>2026-03-28T16:38:02.988Z</time></trkpt><trkpt lat="45.355843615758104" lon="8.464583422338434"><ele>125.0</ele><time>2026-03-28T16:38:03.988Z</time></trkpt><trkpt lat="45.35594511189168" lon="8.464716913977206"><ele>125.0</ele><time>2026-03-28T16:38:04.988Z</time></trkpt><trkpt lat="45.356048582869086" lon="8.464847590885908"><ele>125.0</ele><time>2026-03-28T16:38:05.988Z</time></trkpt><trkpt lat="45.356152116008076" lon="8.464974004467324"><ele>125.0</ele><time>2026-03-28T16:38:06.988Z</time></trkpt><trkpt lat="45.356254677119345" lon="8.465102498374646"><ele>125.0</ele><time>2026-03-28T16:38:07.988Z</time></trkpt><trkpt lat="45.3563552261978" lon="8.4652316748611"><ele>125.0</ele><time>2026-03-28T16:38:08.988Z</time></trkpt><trkpt lat="45.35645705870098" lon="8.465359169816624"><ele>125.5</ele><time>2026-03-28T16:38:09.988Z</time></trkpt><trkpt lat="45.35655803688062" lon="8.465478901807213"><ele>126.0</ele><time>2026-03-28T16:38:10.988Z</time></trkpt><trkpt lat="45.356657852865425" lon="8.465593019424544"><ele>126.5</ele><time>2026-03-28T16:38:11.988Z</time></trkpt><trkpt lat="45.356755222811536" lon="8.465702873914523"><ele>127.0</ele><time>2026-03-28T16:38:12.988Z</time></trkpt><trkpt lat="45.35684846556043" lon="8.465812419049906"><ele>127.0</ele><time>2026-03-28T16:38:13.988Z</time></trkpt><trkpt lat="45.356939323652625" lon="8.465930711029124"><ele>127.0</ele><time>2026-03-28T16:38:14.988Z</time></trkpt><trkpt lat="45.35703631069808" lon="8.466042451077502"><ele>127.0</ele><time>2026-03-28T16:38:15.988Z</time></trkpt><trkpt lat="45.35714056100521" lon="8.466141976627398"><ele>127.0</ele><time>2026-03-28T16:38:16.988Z</time></trkpt><trkpt lat="45.357251280300645" lon="8.466225093358801"><ele>127.25</ele><time>2026-03-28T16:38:17.988Z</time></trkpt><trkpt lat="45.35736971518437" lon="8.46629441960722"><ele>127.5</ele><time>2026-03-28T16:38:18.988Z</time></trkpt><trkpt lat="45.3574831949961" lon="8.466356007181494"><ele>127.75</ele><time>2026-03-28T16:38:19.988Z</time></trkpt><trkpt lat="45.35759293033985" lon="8.46643403134654"><ele>128.0</ele><time>2026-03-28T16:38:20.988Z</time></trkpt><trkpt lat="45.357694337029564" lon="8.466525792815432"><ele>128.0</ele><time>2026-03-28T16:38:21.988Z</time></trkpt><trkpt lat="45.35778137689042" lon="8.466625802678104"><ele>128.0</ele><time>2026-03-28T16:38:22.988Z</time></trkpt><trkpt lat="45.35786410168726" lon="8.46675064441786"><ele>128.0</ele><time>2026-03-28T16:38:23.988Z</time></trkpt><trkpt lat="45.357934819884335" lon="8.46690875208757"><ele>128.0</ele><time>2026-03-28T16:38:24.988Z</time></trkpt><trkpt lat="45.35800330106045" lon="8.467067158551105"><ele>128.0</ele><time>2026-03-28T16:38:25.988Z</time></trkpt><trkpt lat="45.35806963097816" lon="8.467224961226043"><ele>128.0</ele><time>2026-03-28T16:38:26.988Z</time></trkpt><trkpt lat="45.358138538637355" lon="8.467376634038263"><ele>128.0</ele><time>2026-03-28T16:38:27.988Z</time></trkpt><trkpt lat="45.35820583664209" lon="8.467532940859309"><ele>128.0</ele><time>2026-03-28T16:38:28.988Z</time></trkpt><trkpt lat="45.3582777116634" lon="8.467691378156845"><ele>128.0</ele><time>2026-03-28T16:38:29.988Z</time></trkpt><trkpt lat="45.35834694133445" lon="8.467855506844227"><ele>128.0</ele><time>2026-03-28T16:38:30.988Z</time></trkpt><trkpt lat="45.35842533979892" lon="8.468017523802532"><ele>128.0</ele><time>2026-03-28T16:38:31.988Z</time></trkpt><trkpt lat="45.3584989650047" lon="8.46818264739168"><ele>128.0</ele><time>2026-03-28T16:38:32.988Z</time></trkpt><trkpt lat="45.358581767920086" lon="8.468334794336526"><ele>127.75</ele><time>2026-03-28T16:38:33.988Z</time></trkpt><trkpt lat="45.35867532749463" lon="8.468473945217287"><ele>127.5</ele><time>2026-03-28T16:38:34.988Z</time></trkpt><trkpt lat="45.35877076875108" lon="8.468596881279446"><ele>127.25</ele><time>2026-03-28T16:38:35.988Z</time></trkpt><trkpt lat="45.35887095166458" lon="8.468705043552859"><ele>127.0</ele><time>2026-03-28T16:38:36.988Z</time></trkpt><trkpt lat="45.35897119396616" lon="8.46881196850443"><ele>127.6</ele><time>2026-03-28T16:38:37.988Z</time></trkpt><trkpt lat="45.35906751117609" lon="8.468911107601597"><ele>128.2</ele><time>2026-03-28T16:38:38.988Z</time></trkpt><trkpt lat="45.35915880801065" lon="8.469001888595516"><ele>128.8</ele><time>2026-03-28T16:38:39.988Z</time></trkpt><trkpt lat="45.35924048195788" lon="8.469092583846516"><ele>129.4</ele><time>2026-03-28T16:38:40.988Z</time></trkpt><trkpt lat="45.359320420862396" lon="8.469182858671312"><ele>130.0</ele><time>2026-03-28T16:38:41.988Z</time></trkpt><trkpt lat="45.3593746093187" lon="8.4692978867869"><ele>130.0</ele><time>2026-03-28T16:38:42.988Z</time></trkpt><trkpt lat="45.35939836096198" lon="8.469439807003866"><ele>130.0</ele><time>2026-03-28T16:38:43.988Z</time></trkpt><trkpt lat="45.35939496007957" lon="8.469586946939529"><ele>130.0</ele><time>2026-03-28T16:38:44.988Z</time></trkpt><trkpt lat="45.359376249698514" lon="8.469753401936378"><ele>130.0</ele><time>2026-03-28T16:38:45.988Z</time></trkpt><trkpt lat="45.35936090362203" lon="8.46993390946553"><ele>129.75</ele><time>2026-03-28T16:38:46.988Z</time></trkpt><trkpt lat="45.35934446008875" lon="8.470127065201089"><ele>129.5</ele><time>2026-03-28T16:38:47.988Z</time></trkpt><trkpt lat="45.35932438655683" lon="8.470321336653615"><ele>129.25</ele><time>2026-03-28T16:38:48.988Z</time></trkpt><trkpt lat="45.359309236071795" lon="8.470533168401174"><ele>129.0</ele><time>2026-03-28T16:38:49.988Z</time></trkpt><trkpt lat="45.359287711161045" lon="8.470749543179705"><ele>128.33333333333334</ele><time>2026-03-28T16:38:50.988Z</time></trkpt><trkpt lat="45.359262140181" lon="8.470975711488187"><ele>127.66666666666667</ele><time>2026-03-28T16:38:51.988Z</time></trkpt><trkpt lat="45.35923660819012" lon="8.471208142039197"><ele>127.0</ele><time>2026-03-28T16:38:52.988Z</time></trkpt><trkpt lat="45.35922109450171" lon="8.471446799642324"><ele>127.0</ele><time>2026-03-28T16:38:53.988Z</time></trkpt><trkpt lat="45.35922495735901" lon="8.47169184524607"><ele>127.0</ele><time>2026-03-28T16:38:54.988Z</time></trkpt><trkpt lat="45.3592550329295" lon="8.471937063812698"><ele>127.0</ele><time>2026-03-28T16:38:55.988Z</time></trkpt><trkpt lat="45.35931421520087" lon="8.47215482408761"><ele>127.33333333333334</ele><time>2026-03-28T16:38:56.988Z</time></trkpt><trkpt lat="45.359403249002845" lon="8.472363045449967"><ele>127.66666666666666</ele><time>2026-03-28T16:38:57.988Z</time></trkpt><trkpt lat="45.35951521747996" lon="8.472557756838228"><ele>128.0</ele><time>2026-03-28T16:38:58.988Z</time></trkpt><trkpt lat="45.35963805442954" lon="8.472748637844973"><ele>127.66666666666666</ele><time>2026-03-28T16:38:59.988Z</time></trkpt><trkpt lat="45.359767330820844" lon="8.472942442745655"><ele>127.33333333333334</ele><time>2026-03-28T16:39:00.988Z</time></trkpt><trkpt lat="45.359894109995636" lon="8.473140959201006"><ele>127.0</ele><time>2026-03-28T16:39:01.988Z</time></trkpt><trkpt lat="45.360022972019394" lon="8.473341750202032"><ele>127.0</ele><time>2026-03-28T16:39:02.988Z</time></trkpt><trkpt lat="45.360150632596294" lon="8.473533998560564"><ele>127.0</ele><time>2026-03-28T16:39:03.988Z</time></trkpt><trkpt lat="45.36027675851045" lon="8.473727720623966"><ele>127.0</ele><time>2026-03-28T16:39:04.988Z</time></trkpt><trkpt lat="45.36040549749671" lon="8.473926517640846"><ele>127.0</ele><time>2026-03-28T16:39:05.988Z</time></trkpt><trkpt lat="45.360534040755205" lon="8.474123662996348"><ele>127.0</ele><time>2026-03-28T16:39:06.988Z</time></trkpt><trkpt lat="45.36066657394316" lon="8.474319741503404"><ele>127.0</ele><time>2026-03-28T16:39:07.989Z</time></trkpt><trkpt lat="45.36080091000542" lon="8.474519749956203"><ele>127.0</ele><time>2026-03-28T16:39:08.989Z</time></trkpt><trkpt lat="45.36093246730298" lon="8.47472390977364"><ele>127.0</ele><time>2026-03-28T16:39:09.989Z</time></trkpt><trkpt lat="45.36106601415629" lon="8.474928511163867"><ele>127.0</ele><time>2026-03-28T16:39:10.989Z</time></trkpt><trkpt lat="45.3611985870059" lon="8.475129585592354"><ele>127.0</ele><time>2026-03-28T16:39:11.989Z</time></trkpt><trkpt lat="45.361326801281024" lon="8.475322449937186"><ele>127.0</ele><time>2026-03-28T16:39:12.989Z</time></trkpt><trkpt lat="45.36144879595984" lon="8.475506443247504"><ele>127.0</ele><time>2026-03-28T16:39:13.989Z</time></trkpt><trkpt lat="45.36156394436463" lon="8.475684262858243"><ele>126.66666666666667</ele><time>2026-03-28T16:39:14.989Z</time></trkpt><trkpt lat="45.36167940583609" lon="8.475861747875188"><ele>126.33333333333334</ele><time>2026-03-28T16:39:15.989Z</time></trkpt><trkpt lat="45.36178999619145" lon="8.476033580720761"><ele>126.0</ele><time>2026-03-28T16:39:16.989Z</time></trkpt><trkpt lat="45.36189183261534" lon="8.476191781403589"><ele>125.75</ele><time>2026-03-28T16:39:17.989Z</time></trkpt><trkpt lat="45.36198641349605" lon="8.476335259113876"><ele>125.5</ele><time>2026-03-28T16:39:18.989Z</time></trkpt><trkpt lat="45.362073935925345" lon="8.476466919865153"><ele>125.25</ele><time>2026-03-28T16:39:19.989Z</time></trkpt><trkpt lat="45.36215794649034" lon="8.476591807367637"><ele>125.0</ele><time>2026-03-28T16:39:20.989Z</time></trkpt><trkpt lat="45.36223801228637" lon="8.476715004840539"><ele>125.0</ele><time>2026-03-28T16:39:21.989Z</time></trkpt><trkpt lat="45.36230474437949" lon="8.476837981809467"><ele>125.0</ele><time>2026-03-28T16:39:22.989Z</time></trkpt><trkpt lat="45.36235117674887" lon="8.47697237218607"><ele>125.0</ele><time>2026-03-28T16:39:23.989Z</time></trkpt><trkpt lat="45.362377573163734" lon="8.477106866376463"><ele>125.0</ele><time>2026-03-28T16:39:24.989Z</time></trkpt><trkpt lat="45.362394378521465" lon="8.477230977053761"><ele>125.0</ele><time>2026-03-28T16:39:25.989Z</time></trkpt><trkpt lat="45.36242911442955" lon="8.477339270875545"><ele>125.0</ele><time>2026-03-28T16:39:26.987Z</time></trkpt><trkpt lat="45.36250979559628" lon="8.477414710391642"><ele>125.0</ele><time>2026-03-28T16:39:27.987Z</time></trkpt><trkpt lat="45.36261407337359" lon="8.477477814730692"><ele>125.0</ele><time>2026-03-28T16:39:28.987Z</time></trkpt><trkpt lat="45.362745365811506" lon="8.477554742814778"><ele>125.0</ele><time>2026-03-28T16:39:29.987Z</time></trkpt><trkpt lat="45.362866135579694" lon="8.477677262793868"><ele>125.0</ele><time>2026-03-28T16:39:30.987Z</time></trkpt><trkpt lat="45.362969475193054" lon="8.477833281338768"><ele>125.0</ele><time>2026-03-28T16:39:31.987Z</time></trkpt><trkpt lat="45.36307244018243" lon="8.47799109872714"><ele>125.0</ele><time>2026-03-28T16:39:32.986Z</time></trkpt><trkpt lat="45.36317641410175" lon="8.478161599901402"><ele>125.0</ele><time>2026-03-28T16:39:33.986Z</time></trkpt><trkpt lat="45.3632821550176" lon="8.478317360277545"><ele>125.0</ele><time>2026-03-28T16:39:34.986Z</time></trkpt><trkpt lat="45.3633834907575" lon="8.47845134634011"><ele>125.0</ele><time>2026-03-28T16:39:35.986Z</time></trkpt><trkpt lat="45.36348779019754" lon="8.478579253238852"><ele>125.0</ele><time>2026-03-28T16:39:36.987Z</time></trkpt><trkpt lat="45.36358850217282" lon="8.478695946813433"><ele>125.0</ele><time>2026-03-28T16:39:37.987Z</time></trkpt><trkpt lat="45.36368029399367" lon="8.478808100320649"><ele>125.0</ele><time>2026-03-28T16:39:38.987Z</time></trkpt><trkpt lat="45.36376359781221" lon="8.47890758458628"><ele>125.0</ele><time>2026-03-28T16:39:39.987Z</time></trkpt><trkpt lat="45.36384096062768" lon="8.479007563449553"><ele>125.0</ele><time>2026-03-28T16:39:40.987Z</time></trkpt><trkpt lat="45.363916156454586" lon="8.479100622409252"><ele>125.0</ele><time>2026-03-28T16:39:41.987Z</time></trkpt><trkpt lat="45.3639943895455" lon="8.479197412140087"><ele>125.0</ele><time>2026-03-28T16:39:42.987Z</time></trkpt><trkpt lat="45.364075428443705" lon="8.479289873029572"><ele>125.0</ele><time>2026-03-28T16:39:43.987Z</time></trkpt><trkpt lat="45.36414955979647" lon="8.479379692083846"><ele>125.0</ele><time>2026-03-28T16:39:44.987Z</time></trkpt><trkpt lat="45.364230152297786" lon="8.479454414400747"><ele>125.0</ele><time>2026-03-28T16:39:45.987Z</time></trkpt><trkpt lat="45.3643122720481" lon="8.479524643292002"><ele>125.0</ele><time>2026-03-28T16:39:46.987Z</time></trkpt><trkpt lat="45.364401637640995" lon="8.479589813815622"><ele>125.0</ele><time>2026-03-28T16:39:47.987Z</time></trkpt><trkpt lat="45.36449332774971" lon="8.479652437393895"><ele>125.0</ele><time>2026-03-28T16:39:48.987Z</time></trkpt><trkpt lat="45.364584707826886" lon="8.479725016400373"><ele>125.0</ele><time>2026-03-28T16:39:49.987Z</time></trkpt><trkpt lat="45.36467927660104" lon="8.479806413789436"><ele>125.0</ele><time>2026-03-28T16:39:50.987Z</time></trkpt><trkpt lat="45.364775727073315" lon="8.479898039599146"><ele>125.0</ele><time>2026-03-28T16:39:51.987Z</time></trkpt><trkpt lat="45.364869538039976" lon="8.480002634977831"><ele>125.25</ele><time>2026-03-28T16:39:52.987Z</time></trkpt><trkpt lat="45.364956643776814" lon="8.480119145442142"><ele>125.5</ele><time>2026-03-28T16:39:53.987Z</time></trkpt><trkpt lat="45.36504147777847" lon="8.480250582823796"><ele>125.75</ele><time>2026-03-28T16:39:54.987Z</time></trkpt><trkpt lat="45.365117436815005" lon="8.480390440899745"><ele>126.0</ele><time>2026-03-28T16:39:55.987Z</time></trkpt><trkpt lat="45.36519406763092" lon="8.480530040411567"><ele>126.0</ele><time>2026-03-28T16:39:56.987Z</time></trkpt><trkpt lat="45.365281070231624" lon="8.480677568786449"><ele>126.0</ele><time>2026-03-28T16:39:57.987Z</time></trkpt><trkpt lat="45.36538291587303" lon="8.480839012993687"><ele>126.0</ele><time>2026-03-28T16:39:58.987Z</time></trkpt><trkpt lat="45.36549269899346" lon="8.481011055278673"><ele>126.0</ele><time>2026-03-28T16:39:59.987Z</time></trkpt><trkpt lat="45.36559771504912" lon="8.481184825840186"><ele>126.0</ele><time>2026-03-28T16:40:00.987Z</time></trkpt><trkpt lat="45.36569591365643" lon="8.481347938854409"><ele>126.0</ele><time>2026-03-28T16:40:01.987Z</time></trkpt><trkpt lat="45.36579833952671" lon="8.481505162182394"><ele>126.0</ele><time>2026-03-28T16:40:02.987Z</time></trkpt><trkpt lat="45.36589887289309" lon="8.481653650699316"><ele>126.0</ele><time>2026-03-28T16:40:03.987Z</time></trkpt><trkpt lat="45.36599749199133" lon="8.481788028648504"><ele>126.0</ele><time>2026-03-28T16:40:04.988Z</time></trkpt><trkpt lat="45.36609635427295" lon="8.481917847129788"><ele>126.0</ele><time>2026-03-28T16:40:05.988Z</time></trkpt><trkpt lat="45.36620117846796" lon="8.482049479528719"><ele>126.5</ele><time>2026-03-28T16:40:06.988Z</time></trkpt><trkpt lat="45.3663065621536" lon="8.482186684432907"><ele>127.0</ele><time>2026-03-28T16:40:07.988Z</time></trkpt><trkpt lat="45.36641287921098" lon="8.482323516113162"><ele>127.5</ele><time>2026-03-28T16:40:08.988Z</time></trkpt><trkpt lat="45.36652027475385" lon="8.482460737239217"><ele>128.0</ele><time>2026-03-28T16:40:09.988Z</time></trkpt><trkpt lat="45.36662876480098" lon="8.482596086591554"><ele>128.25</ele><time>2026-03-28T16:40:10.988Z</time></trkpt><trkpt lat="45.366737509504276" lon="8.48272942875894"><ele>128.5</ele><time>2026-03-28T16:40:11.988Z</time></trkpt><trkpt lat="45.366849692368824" lon="8.482864953889633"><ele>128.75</ele><time>2026-03-28T16:40:12.988Z</time></trkpt><trkpt lat="45.36696705708529" lon="8.483004987017733"><ele>129.0</ele><time>2026-03-28T16:40:13.988Z</time></trkpt><trkpt lat="45.36708796997377" lon="8.483148719091078"><ele>127.66666666666666</ele><time>2026-03-28T16:40:14.988Z</time></trkpt><trkpt lat="45.36720792734854" lon="8.483295743889093"><ele>126.33333333333333</ele><time>2026-03-28T16:40:15.988Z</time></trkpt><trkpt lat="45.36732045551825" lon="8.48344113491037"><ele>125.0</ele><time>2026-03-28T16:40:16.988Z</time></trkpt><trkpt lat="45.36743832497614" lon="8.483581402705314"><ele>125.0</ele><time>2026-03-28T16:40:17.988Z</time></trkpt><trkpt lat="45.367553249856435" lon="8.483723635191442"><ele>125.0</ele><time>2026-03-28T16:40:18.988Z</time></trkpt><trkpt lat="45.36766398071858" lon="8.483868544893523"><ele>125.0</ele><time>2026-03-28T16:40:19.988Z</time></trkpt><trkpt lat="45.36777324987624" lon="8.484013669968428"><ele>125.33333333333333</ele><time>2026-03-28T16:40:20.988Z</time></trkpt><trkpt lat="45.3678827208596" lon="8.484165261513276"><ele>125.66666666666666</ele><time>2026-03-28T16:40:21.988Z</time></trkpt><trkpt lat="45.367994400274014" lon="8.484316503856107"><ele>126.0</ele><time>2026-03-28T16:40:22.988Z</time></trkpt><trkpt lat="45.36810877186399" lon="8.484463416802605"><ele>126.0</ele><time>2026-03-28T16:40:23.988Z</time></trkpt><trkpt lat="45.36821714402961" lon="8.48460239203701"><ele>126.0</ele><time>2026-03-28T16:40:24.988Z</time></trkpt><trkpt lat="45.36832457476645" lon="8.484741413011166"><ele>126.0</ele><time>2026-03-28T16:40:25.988Z</time></trkpt><trkpt lat="45.36843447492212" lon="8.484880605653037"><ele>126.0</ele><time>2026-03-28T16:40:26.988Z</time></trkpt><trkpt lat="45.368550362539416" lon="8.48502340714918"><ele>126.0</ele><time>2026-03-28T16:40:27.988Z</time></trkpt><trkpt lat="45.368674568101696" lon="8.485161507734936"><ele>126.0</ele><time>2026-03-28T16:40:28.988Z</time></trkpt><trkpt lat="45.368806510187355" lon="8.485295495117485"><ele>126.0</ele><time>2026-03-28T16:40:29.988Z</time></trkpt><trkpt lat="45.36894514483308" lon="8.485426691546898"><ele>127.0</ele><time>2026-03-28T16:40:30.988Z</time></trkpt><trkpt lat="45.36908738908932" lon="8.485557711731882"><ele>128.0</ele><time>2026-03-28T16:40:31.988Z</time></trkpt><trkpt lat="45.369225916116946" lon="8.485679123778471"><ele>129.0</ele><time>2026-03-28T16:40:32.988Z</time></trkpt><trkpt lat="45.3693604707805" lon="8.485790012055105"><ele>129.0</ele><time>2026-03-28T16:40:33.988Z</time></trkpt><trkpt lat="45.36949566516923" lon="8.485888797547547"><ele>129.0</ele><time>2026-03-28T16:40:34.988Z</time></trkpt><trkpt lat="45.36962741389816" lon="8.485982115187056"><ele>129.0</ele><time>2026-03-28T16:40:35.988Z</time></trkpt><trkpt lat="45.3697621171392" lon="8.486075656552716"><ele>129.0</ele><time>2026-03-28T16:40:36.988Z</time></trkpt><trkpt lat="45.3698996070278" lon="8.486179251062199"><ele>129.0</ele><time>2026-03-28T16:40:37.988Z</time></trkpt><trkpt lat="45.3700356446744" lon="8.486293095242138"><ele>129.0</ele><time>2026-03-28T16:40:38.988Z</time></trkpt><trkpt lat="45.37018317534941" lon="8.486453696338662"><ele>129.0</ele><time>2026-03-28T16:40:39.988Z</time></trkpt><trkpt lat="45.37034406691574" lon="8.486626138529768"><ele>129.0</ele><time>2026-03-28T16:40:40.988Z</time></trkpt><trkpt lat="45.37051076634745" lon="8.486787550813773"><ele>129.0</ele><time>2026-03-28T16:40:41.988Z</time></trkpt><trkpt lat="45.370682648457404" lon="8.486946886249346"><ele>129.0</ele><time>2026-03-28T16:40:42.988Z</time></trkpt><trkpt lat="45.3708553217742" lon="8.487105931592119"><ele>129.66666666666666</ele><time>2026-03-28T16:40:43.988Z</time></trkpt><trkpt lat="45.37103276545965" lon="8.487266698074137"><ele>130.33333333333331</ele><time>2026-03-28T16:40:44.988Z</time></trkpt><trkpt lat="45.371214086315916" lon="8.487425345194197"><ele>131.0</ele><time>2026-03-28T16:40:45.988Z</time></trkpt><trkpt lat="45.37139771048178" lon="8.487587740218022"><ele>131.0</ele><time>2026-03-28T16:40:46.988Z</time></trkpt><trkpt lat="45.37158205831527" lon="8.487750896537237"><ele>131.0</ele><time>2026-03-28T16:40:47.988Z</time></trkpt><trkpt lat="45.37176013838735" lon="8.487910316221189"><ele>131.0</ele><time>2026-03-28T16:40:48.988Z</time></trkpt><trkpt lat="45.37193650353925" lon="8.488071805844774"><ele>131.0</ele><time>2026-03-28T16:40:49.988Z</time></trkpt><trkpt lat="45.37210930579025" lon="8.488225903353634"><ele>131.0</ele><time>2026-03-28T16:40:50.988Z</time></trkpt><trkpt lat="45.37228409764778" lon="8.488379505912699"><ele>131.0</ele><time>2026-03-28T16:40:51.988Z</time></trkpt><trkpt lat="45.37245767222675" lon="8.488533650125687"><ele>130.0</ele><time>2026-03-28T16:40:52.988Z</time></trkpt><trkpt lat="45.372628476187906" lon="8.488693200444956"><ele>129.0</ele><time>2026-03-28T16:40:53.988Z</time></trkpt><trkpt lat="45.37279871423189" lon="8.48885403014546"><ele>128.0</ele><time>2026-03-28T16:40:54.988Z</time></trkpt><trkpt lat="45.372970609526405" lon="8.48901719083878"><ele>128.33333333333331</ele><time>2026-03-28T16:40:55.988Z</time></trkpt><trkpt lat="45.373144904895135" lon="8.48917985694555"><ele>128.66666666666666</ele><time>2026-03-28T16:40:56.988Z</time></trkpt><trkpt lat="45.37332031694242" lon="8.489345469960318"><ele>129.0</ele><time>2026-03-28T16:40:57.988Z</time></trkpt><trkpt lat="45.3734977450106" lon="8.489511310903062"><ele>128.66666666666666</ele><time>2026-03-28T16:40:58.988Z</time></trkpt><trkpt lat="45.373678159360416" lon="8.489680667130207"><ele>128.33333333333331</ele><time>2026-03-28T16:40:59.988Z</time></trkpt><trkpt lat="45.373860855838345" lon="8.489854441394826"><ele>128.0</ele><time>2026-03-28T16:41:00.988Z</time></trkpt><trkpt lat="45.37404462378855" lon="8.490028048700834"><ele>128.0</ele><time>2026-03-28T16:41:01.988Z</time></trkpt><trkpt lat="45.37423061328588" lon="8.4902011075782"><ele>128.0</ele><time>2026-03-28T16:41:02.988Z</time></trkpt><trkpt lat="45.374414520007655" lon="8.49037480607181"><ele>128.0</ele><time>2026-03-28T16:41:03.988Z</time></trkpt><trkpt lat="45.374593874952886" lon="8.490548587805206"><ele>128.33333333333331</ele><time>2026-03-28T16:41:04.988Z</time></trkpt><trkpt lat="45.37477527996781" lon="8.490726499401031"><ele>128.66666666666666</ele><time>2026-03-28T16:41:05.988Z</time></trkpt><trkpt lat="45.37495860940268" lon="8.490902678229558"><ele>129.0</ele><time>2026-03-28T16:41:06.988Z</time></trkpt><trkpt lat="45.375147538373625" lon="8.491082247906812"><ele>129.5</ele><time>2026-03-28T16:41:07.988Z</time></trkpt><trkpt lat="45.3753374406899" lon="8.49126361166824"><ele>130.0</ele><time>2026-03-28T16:41:08.988Z</time></trkpt><trkpt lat="45.375526976219206" lon="8.491442270772612"><ele>130.0</ele><time>2026-03-28T16:41:09.988Z</time></trkpt><trkpt lat="45.37571092274801" lon="8.4916175161267"><ele>130.0</ele><time>2026-03-28T16:41:10.988Z</time></trkpt><trkpt lat="45.375888500650014" lon="8.491792266759077"><ele>130.0</ele><time>2026-03-28T16:41:11.988Z</time></trkpt><trkpt lat="45.37606607699127" lon="8.491968102467894"><ele>129.66666666666669</ele><time>2026-03-28T16:41:12.988Z</time></trkpt><trkpt lat="45.37624335069286" lon="8.492139516724245"><ele>129.33333333333334</ele><time>2026-03-28T16:41:13.988Z</time></trkpt><trkpt lat="45.37641994018134" lon="8.492306829623272"><ele>129.0</ele><time>2026-03-28T16:41:14.988Z</time></trkpt><trkpt lat="45.37659461397425" lon="8.492476773757017"><ele>129.0</ele><time>2026-03-28T16:41:15.988Z</time></trkpt><trkpt lat="45.37677055828414" lon="8.492648672105421"><ele>129.0</ele><time>2026-03-28T16:41:16.988Z</time></trkpt><trkpt lat="45.3769465457772" lon="8.492820956088169"><ele>129.0</ele><time>2026-03-28T16:41:17.988Z</time></trkpt><trkpt lat="45.37712521646616" lon="8.4929950698553"><ele>129.66666666666666</ele><time>2026-03-28T16:41:18.988Z</time></trkpt><trkpt lat="45.37730032462463" lon="8.493163641270348"><ele>130.33333333333331</ele><time>2026-03-28T16:41:19.988Z</time></trkpt><trkpt lat="45.37747767210369" lon="8.493334100295897"><ele>131.0</ele><time>2026-03-28T16:41:20.988Z</time></trkpt><trkpt lat="45.377658249291756" lon="8.493506697271352"><ele>131.0</ele><time>2026-03-28T16:41:21.988Z</time></trkpt><trkpt lat="45.37784056668796" lon="8.49368099127857"><ele>131.0</ele><time>2026-03-28T16:41:22.988Z</time></trkpt><trkpt lat="45.37802231844242" lon="8.493855513718024"><ele>131.0</ele><time>2026-03-28T16:41:23.988Z</time></trkpt><trkpt lat="45.37819697262211" lon="8.49402367205605"><ele>131.0</ele><time>2026-03-28T16:41:24.988Z</time></trkpt><trkpt lat="45.37836845493268" lon="8.494190729024789"><ele>131.0</ele><time>2026-03-28T16:41:25.988Z</time></trkpt><trkpt lat="45.378540720648516" lon="8.494357815004236"><ele>131.0</ele><time>2026-03-28T16:41:26.988Z</time></trkpt><trkpt lat="45.37871590190743" lon="8.494522690116572"><ele>131.33333333333331</ele><time>2026-03-28T16:41:27.988Z</time></trkpt><trkpt lat="45.37888664226465" lon="8.494688948290989"><ele>131.66666666666666</ele><time>2026-03-28T16:41:28.988Z</time></trkpt><trkpt lat="45.37905770897324" lon="8.494858754488815"><ele>132.0</ele><time>2026-03-28T16:41:29.988Z</time></trkpt><trkpt lat="45.37922859722964" lon="8.495029638524601"><ele>132.0</ele><time>2026-03-28T16:41:30.988Z</time></trkpt><trkpt lat="45.379401253912576" lon="8.495197925619342"><ele>132.0</ele><time>2026-03-28T16:41:31.989Z</time></trkpt><trkpt lat="45.37957486676894" lon="8.495363670290738"><ele>132.0</ele><time>2026-03-28T16:41:32.987Z</time></trkpt><trkpt lat="45.37974697062532" lon="8.495530417423703"><ele>131.66666666666666</ele><time>2026-03-28T16:41:33.986Z</time></trkpt><trkpt lat="45.37992099346696" lon="8.495693413091645"><ele>131.33333333333331</ele><time>2026-03-28T16:41:34.986Z</time></trkpt><trkpt lat="45.38009256650638" lon="8.495859464848671"><ele>131.0</ele><time>2026-03-28T16:41:35.986Z</time></trkpt><trkpt lat="45.38025883674502" lon="8.496016402214531"><ele>131.0</ele><time>2026-03-28T16:41:36.986Z</time></trkpt><trkpt lat="45.38041808734166" lon="8.496165698603045"><ele>131.0</ele><time>2026-03-28T16:41:37.986Z</time></trkpt><trkpt lat="45.38057054163458" lon="8.496309233025395"><ele>131.0</ele><time>2026-03-28T16:41:38.987Z</time></trkpt><trkpt lat="45.38071466160732" lon="8.496443237435285"><ele>131.33333333333331</ele><time>2026-03-28T16:41:39.987Z</time></trkpt><trkpt lat="45.38085128206826" lon="8.496572388133142"><ele>131.66666666666666</ele><time>2026-03-28T16:41:40.987Z</time></trkpt><trkpt lat="45.380982247922255" lon="8.496698974677688"><ele>132.0</ele><time>2026-03-28T16:41:41.987Z</time></trkpt><trkpt lat="45.38111153608947" lon="8.496824997972242"><ele>132.0</ele><time>2026-03-28T16:41:42.987Z</time></trkpt><trkpt lat="45.38124040355496" lon="8.496948453540895"><ele>132.0</ele><time>2026-03-28T16:41:43.987Z</time></trkpt><trkpt lat="45.38137308433293" lon="8.497073179225234"><ele>132.0</ele><time>2026-03-28T16:41:44.987Z</time></trkpt><trkpt lat="45.38150755552311" lon="8.497199767153312"><ele>132.0</ele><time>2026-03-28T16:41:45.987Z</time></trkpt><trkpt lat="45.381645299750005" lon="8.49732781319146"><ele>132.0</ele><time>2026-03-28T16:41:46.987Z</time></trkpt><trkpt lat="45.38178526124011" lon="8.497458039245329"><ele>132.0</ele><time>2026-03-28T16:41:47.987Z</time></trkpt><trkpt lat="45.38192511182896" lon="8.497591694760011"><ele>132.0</ele><time>2026-03-28T16:41:48.987Z</time></trkpt><trkpt lat="45.38206684085877" lon="8.497726592029359"><ele>132.0</ele><time>2026-03-28T16:41:49.987Z</time></trkpt><trkpt lat="45.382208821224644" lon="8.497863391246154"><ele>132.0</ele><time>2026-03-28T16:41:50.987Z</time></trkpt><trkpt lat="45.38234906468531" lon="8.49799704537582"><ele>132.0</ele><time>2026-03-28T16:41:51.987Z</time></trkpt><trkpt lat="45.38249260618643" lon="8.49812650971194"><ele>132.0</ele><time>2026-03-28T16:41:52.987Z</time></trkpt><trkpt lat="45.38263083015727" lon="8.498248983464057"><ele>132.0</ele><time>2026-03-28T16:41:53.987Z</time></trkpt><trkpt lat="45.3827623764754" lon="8.498360693949213"><ele>132.0</ele><time>2026-03-28T16:41:54.987Z</time></trkpt><trkpt lat="45.38289624513249" lon="8.49845873936853"><ele>132.0</ele><time>2026-03-28T16:41:55.987Z</time></trkpt><trkpt lat="45.3830324476735" lon="8.498554429295751"><ele>132.0</ele><time>2026-03-28T16:41:56.987Z</time></trkpt><trkpt lat="45.383175864072" lon="8.49865627785879"><ele>132.33333333333334</ele><time>2026-03-28T16:41:57.987Z</time></trkpt><trkpt lat="45.3833207644144" lon="8.498759176305002"><ele>132.66666666666669</ele><time>2026-03-28T16:41:58.987Z</time></trkpt><trkpt lat="45.38347162269696" lon="8.498866496519808"><ele>133.0</ele><time>2026-03-28T16:41:59.987Z</time></trkpt><trkpt lat="45.38362726187076" lon="8.498975179965651"><ele>133.0</ele><time>2026-03-28T16:42:00.987Z</time></trkpt><trkpt lat="45.38378760462369" lon="8.499086205030347"><ele>133.0</ele><time>2026-03-28T16:42:01.987Z</time></trkpt><trkpt lat="45.38394765117811" lon="8.499199083379196"><ele>133.0</ele><time>2026-03-28T16:42:02.987Z</time></trkpt><trkpt lat="45.384103499914815" lon="8.499314247137415"><ele>132.66666666666669</ele><time>2026-03-28T16:42:03.987Z</time></trkpt><trkpt lat="45.38424895422425" lon="8.499420250727749"><ele>132.33333333333334</ele><time>2026-03-28T16:42:04.987Z</time></trkpt><trkpt lat="45.384382631164414" lon="8.499518991904221"><ele>132.0</ele><time>2026-03-28T16:42:05.987Z</time></trkpt><trkpt lat="45.38451236425148" lon="8.499616114642283"><ele>132.0</ele><time>2026-03-28T16:42:06.987Z</time></trkpt><trkpt lat="45.38463507330311" lon="8.499707174996344"><ele>132.0</ele><time>2026-03-28T16:42:07.987Z</time></trkpt><trkpt lat="45.38475285753684" lon="8.499791858518622"><ele>132.0</ele><time>2026-03-28T16:42:08.987Z</time></trkpt><trkpt lat="45.38486649428054" lon="8.499872582646024"><ele>132.0</ele><time>2026-03-28T16:42:09.987Z</time></trkpt><trkpt lat="45.384972778584874" lon="8.499948323331438"><ele>132.0</ele><time>2026-03-28T16:42:10.987Z</time></trkpt><trkpt lat="45.38507641967221" lon="8.500022575265954"><ele>132.0</ele><time>2026-03-28T16:42:11.987Z</time></trkpt><trkpt lat="45.38518028730329" lon="8.50009619391339"><ele>132.0</ele><time>2026-03-28T16:42:12.987Z</time></trkpt><trkpt lat="45.38528156093214" lon="8.500169451942844"><ele>132.0</ele><time>2026-03-28T16:42:13.987Z</time></trkpt><trkpt lat="45.38538208771968" lon="8.500239310268205"><ele>132.0</ele><time>2026-03-28T16:42:14.987Z</time></trkpt><trkpt lat="45.385479434322775" lon="8.50030929221328"><ele>132.0</ele><time>2026-03-28T16:42:15.987Z</time></trkpt><trkpt lat="45.38557754251583" lon="8.50037990374954"><ele>132.0</ele><time>2026-03-28T16:42:16.987Z</time></trkpt><trkpt lat="45.38567486085832" lon="8.500446047927506"><ele>132.0</ele><time>2026-03-28T16:42:17.987Z</time></trkpt><trkpt lat="45.38576507293323" lon="8.500511948136253"><ele>132.0</ele><time>2026-03-28T16:42:18.987Z</time></trkpt><trkpt lat="45.385855282558694" lon="8.500572341822071"><ele>132.2</ele><time>2026-03-28T16:42:19.987Z</time></trkpt><trkpt lat="45.38594491244337" lon="8.500633505765974"><ele>132.39999999999998</ele><time>2026-03-28T16:42:20.987Z</time></trkpt><trkpt lat="45.38603327186796" lon="8.50070182640599"><ele>132.60000000000002</ele><time>2026-03-28T16:42:21.987Z</time></trkpt><trkpt lat="45.38612341616851" lon="8.500771482520681"><ele>132.8</ele><time>2026-03-28T16:42:22.987Z</time></trkpt><trkpt lat="45.38621678485637" lon="8.50083942989404"><ele>133.0</ele><time>2026-03-28T16:42:23.987Z</time></trkpt><trkpt lat="45.38631139414336" lon="8.500906012419268"><ele>133.0</ele><time>2026-03-28T16:42:24.987Z</time></trkpt><trkpt lat="45.386409843764646" lon="8.500979579848199"><ele>133.0</ele><time>2026-03-28T16:42:25.987Z</time></trkpt><trkpt lat="45.38651170024242" lon="8.501062553373592"><ele>133.0</ele><time>2026-03-28T16:42:26.987Z</time></trkpt><trkpt lat="45.38661519170643" lon="8.501157712252315"><ele>133.0</ele><time>2026-03-28T16:42:27.987Z</time></trkpt><trkpt lat="45.386719817211166" lon="8.501263871368531"><ele>132.75</ele><time>2026-03-28T16:42:28.987Z</time></trkpt><trkpt lat="45.38682728450709" lon="8.501377770536246"><ele>132.5</ele><time>2026-03-28T16:42:29.987Z</time></trkpt><trkpt lat="45.38693846845734" lon="8.501499283238726"><ele>132.25</ele><time>2026-03-28T16:42:30.987Z</time></trkpt><trkpt lat="45.38705488248103" lon="8.501623275174746"><ele>132.0</ele><time>2026-03-28T16:42:31.987Z</time></trkpt><trkpt lat="45.3871745806658" lon="8.501750031694698"><ele>132.0</ele><time>2026-03-28T16:42:32.987Z</time></trkpt><trkpt lat="45.387299372982206" lon="8.501880304642793"><ele>132.0</ele><time>2026-03-28T16:42:33.987Z</time></trkpt><trkpt lat="45.38742454990022" lon="8.502011188594784"><ele>132.0</ele><time>2026-03-28T16:42:34.987Z</time></trkpt><trkpt lat="45.387547220471596" lon="8.50213938821022"><ele>132.75</ele><time>2026-03-28T16:42:35.987Z</time></trkpt><trkpt lat="45.3876631277159" lon="8.502265123817514"><ele>133.5</ele><time>2026-03-28T16:42:36.987Z</time></trkpt><trkpt lat="45.38777120908876" lon="8.502392539953515"><ele>134.25</ele><time>2026-03-28T16:42:37.987Z</time></trkpt><trkpt lat="45.387885556987634" lon="8.502516829651613"><ele>135.0</ele><time>2026-03-28T16:42:38.987Z</time></trkpt><trkpt lat="45.38800066830805" lon="8.502642799763908"><ele>135.25</ele><time>2026-03-28T16:42:39.987Z</time></trkpt><trkpt lat="45.38811554578528" lon="8.502769968413812"><ele>135.5</ele><time>2026-03-28T16:42:40.987Z</time></trkpt><trkpt lat="45.38823521974788" lon="8.50289348994038"><ele>135.75</ele><time>2026-03-28T16:42:41.987Z</time></trkpt><trkpt lat="45.38836131345417" lon="8.503004349857683"><ele>136.0</ele><time>2026-03-28T16:42:42.987Z</time></trkpt><trkpt lat="45.38849665020762" lon="8.503096405583337"><ele>136.25</ele><time>2026-03-28T16:42:43.987Z</time></trkpt><trkpt lat="45.38863631067587" lon="8.503159962341973"><ele>136.5</ele><time>2026-03-28T16:42:44.987Z</time></trkpt><trkpt lat="45.38878528009238" lon="8.503217359461162"><ele>136.75</ele><time>2026-03-28T16:42:45.987Z</time></trkpt><trkpt lat="45.38892231311531" lon="8.503272260399676"><ele>137.0</ele><time>2026-03-28T16:42:46.987Z</time></trkpt><trkpt lat="45.389056093967575" lon="8.503338209572906"><ele>137.25</ele><time>2026-03-28T16:42:47.987Z</time></trkpt><trkpt lat="45.38918759571234" lon="8.50341177856793"><ele>137.5</ele><time>2026-03-28T16:42:48.987Z</time></trkpt><trkpt lat="45.38931084376903" lon="8.50347014475582"><ele>137.75</ele><time>2026-03-28T16:42:49.987Z</time></trkpt><trkpt lat="45.389430078406136" lon="8.503534651912538"><ele>138.0</ele><time>2026-03-28T16:42:50.987Z</time></trkpt><trkpt lat="45.38953972107959" lon="8.503616488036782"><ele>138.0</ele><time>2026-03-28T16:42:51.987Z</time></trkpt><trkpt lat="45.38964055986019" lon="8.503728205716898"><ele>138.0</ele><time>2026-03-28T16:42:52.987Z</time></trkpt><trkpt lat="45.38972326475235" lon="8.50387303992032"><ele>138.0</ele><time>2026-03-28T16:42:53.987Z</time></trkpt><trkpt lat="45.389784411397045" lon="8.504036651626576"><ele>138.0</ele><time>2026-03-28T16:42:54.987Z</time></trkpt><trkpt lat="45.38984268884646" lon="8.504222234395733"><ele>137.0</ele><time>2026-03-28T16:42:55.987Z</time></trkpt><trkpt lat="45.38990126979491" lon="8.50441718788784"><ele>136.0</ele><time>2026-03-28T16:42:56.987Z</time></trkpt><trkpt lat="45.38997346648697" lon="8.504604842328689"><ele>135.0</ele><time>2026-03-28T16:42:57.987Z</time></trkpt><trkpt lat="45.39004712698869" lon="8.504794108957023"><ele>135.0</ele><time>2026-03-28T16:42:58.987Z</time></trkpt><trkpt lat="45.390120113015804" lon="8.504985802482501"><ele>135.0</ele><time>2026-03-28T16:42:59.987Z</time></trkpt><trkpt lat="45.39019706919185" lon="8.505166294017176"><ele>135.0</ele><time>2026-03-28T16:43:00.987Z</time></trkpt><trkpt lat="45.390277380442726" lon="8.505350479575188"><ele>134.75</ele><time>2026-03-28T16:43:01.987Z</time></trkpt><trkpt lat="45.39035955801359" lon="8.50553378147222"><ele>134.5</ele><time>2026-03-28T16:43:02.987Z</time></trkpt><trkpt lat="45.39043575025256" lon="8.50570994108065"><ele>134.25</ele><time>2026-03-28T16:43:03.987Z</time></trkpt><trkpt lat="45.39050839172124" lon="8.505876376997564"><ele>134.0</ele><time>2026-03-28T16:43:04.987Z</time></trkpt><trkpt lat="45.39058270264846" lon="8.506032212522236"><ele>134.0</ele><time>2026-03-28T16:43:05.987Z</time></trkpt><trkpt lat="45.39066025150514" lon="8.506184484141492"><ele>134.0</ele><time>2026-03-28T16:43:06.987Z</time></trkpt><trkpt lat="45.39074196387293" lon="8.506330700910333"><ele>134.0</ele><time>2026-03-28T16:43:07.987Z</time></trkpt><trkpt lat="45.390821473835956" lon="8.506469925204753"><ele>134.0</ele><time>2026-03-28T16:43:08.987Z</time></trkpt><trkpt lat="45.39089733561491" lon="8.506598348751348"><ele>134.0</ele><time>2026-03-28T16:43:09.988Z</time></trkpt><trkpt lat="45.390973479151306" lon="8.506726378624117"><ele>134.0</ele><time>2026-03-28T16:43:10.988Z</time></trkpt><trkpt lat="45.39105172654896" lon="8.506860710995644"><ele>134.0</ele><time>2026-03-28T16:43:11.988Z</time></trkpt><trkpt lat="45.39113424642106" lon="8.507000932652584"><ele>134.0</ele><time>2026-03-28T16:43:12.988Z</time></trkpt><trkpt lat="45.391222989332235" lon="8.507151962448777"><ele>134.0</ele><time>2026-03-28T16:43:13.988Z</time></trkpt><trkpt lat="45.39131666131642" lon="8.507315414096976"><ele>134.0</ele><time>2026-03-28T16:43:14.988Z</time></trkpt><trkpt lat="45.39142008126389" lon="8.50749310098697"><ele>134.0</ele><time>2026-03-28T16:43:15.988Z</time></trkpt><trkpt lat="45.391532508384714" lon="8.507681364552212"><ele>134.0</ele><time>2026-03-28T16:43:16.988Z</time></trkpt><trkpt lat="45.391653729491686" lon="8.507885273264487"><ele>134.0</ele><time>2026-03-28T16:43:17.988Z</time></trkpt><trkpt lat="45.39178366026646" lon="8.508105408017604"><ele>134.0</ele><time>2026-03-28T16:43:18.988Z</time></trkpt><trkpt lat="45.39192407686724" lon="8.50834499739614"><ele>134.0</ele><time>2026-03-28T16:43:19.988Z</time></trkpt><trkpt lat="45.39207366957984" lon="8.508595582636575"><ele>134.0</ele><time>2026-03-28T16:43:20.988Z</time></trkpt><trkpt lat="45.392234387470644" lon="8.50885925981573"><ele>133.5</ele><time>2026-03-28T16:43:21.988Z</time></trkpt><trkpt lat="45.3924007157229" lon="8.509136299453152"><ele>133.0</ele><time>2026-03-28T16:43:22.988Z</time></trkpt><trkpt lat="45.39256457128241" lon="8.509425268274702"><ele>133.5</ele><time>2026-03-28T16:43:23.988Z</time></trkpt><trkpt lat="45.39272015429344" lon="8.50971364897657"><ele>134.0</ele><time>2026-03-28T16:43:24.988Z</time></trkpt><trkpt lat="45.39287991084877" lon="8.50999810729575"><ele>135.0</ele><time>2026-03-28T16:43:25.988Z</time></trkpt><trkpt lat="45.39303413360313" lon="8.51026281063984"><ele>136.0</ele><time>2026-03-28T16:43:26.988Z</time></trkpt><trkpt lat="45.39318530473327" lon="8.510517175276988"><ele>136.0</ele><time>2026-03-28T16:43:27.988Z</time></trkpt><trkpt lat="45.39333053000129" lon="8.510768461349436"><ele>136.0</ele><time>2026-03-28T16:43:28.988Z</time></trkpt><trkpt lat="45.39347682993448" lon="8.511014604269214"><ele>136.0</ele><time>2026-03-28T16:43:29.988Z</time></trkpt><trkpt lat="45.39362104207021" lon="8.5112539554268"><ele>136.0</ele><time>2026-03-28T16:43:30.988Z</time></trkpt><trkpt lat="45.39375808898891" lon="8.51148495540347"><ele>136.0</ele><time>2026-03-28T16:43:31.988Z</time></trkpt><trkpt lat="45.393889159068785" lon="8.511704247186389"><ele>136.0</ele><time>2026-03-28T16:43:32.988Z</time></trkpt><trkpt lat="45.39401209243892" lon="8.511922454555211"><ele>136.0</ele><time>2026-03-28T16:43:33.988Z</time></trkpt><trkpt lat="45.39412146685834" lon="8.51215977720111"><ele>136.0</ele><time>2026-03-28T16:43:34.988Z</time></trkpt><trkpt lat="45.394201232343576" lon="8.512420143168992"><ele>136.0</ele><time>2026-03-28T16:43:35.988Z</time></trkpt><trkpt lat="45.3942623022753" lon="8.512699164657771"><ele>136.0</ele><time>2026-03-28T16:43:36.988Z</time></trkpt><trkpt lat="45.39429856806597" lon="8.512997460375914"><ele>136.0</ele><time>2026-03-28T16:43:37.988Z</time></trkpt><trkpt lat="45.39433287986106" lon="8.513303678830765"><ele>136.0</ele><time>2026-03-28T16:43:38.986Z</time></trkpt><trkpt lat="45.394374415139914" lon="8.513620317858077"><ele>136.0</ele><time>2026-03-28T16:43:39.986Z</time></trkpt><trkpt lat="45.39441825529447" lon="8.513941915233982"><ele>136.0</ele><time>2026-03-28T16:43:40.986Z</time></trkpt><trkpt lat="45.39446067791291" lon="8.514270895435677"><ele>136.0</ele><time>2026-03-28T16:43:41.986Z</time></trkpt><trkpt lat="45.3945023432361" lon="8.514603919365129"><ele>135.5</ele><time>2026-03-28T16:43:42.986Z</time></trkpt><trkpt lat="45.39454782949702" lon="8.51494117118598"><ele>135.0</ele><time>2026-03-28T16:43:43.986Z</time></trkpt><trkpt lat="45.3945941975112" lon="8.51528270286987"><ele>135.0</ele><time>2026-03-28T16:43:44.986Z</time></trkpt><trkpt lat="45.394638686600565" lon="8.515623804611767"><ele>135.0</ele><time>2026-03-28T16:43:45.986Z</time></trkpt><trkpt lat="45.39468095042342" lon="8.515967524406248"><ele>134.0</ele><time>2026-03-28T16:43:46.986Z</time></trkpt><trkpt lat="45.39472413301991" lon="8.516307654307997"><ele>133.0</ele><time>2026-03-28T16:43:47.986Z</time></trkpt><trkpt lat="45.39476854362073" lon="8.51664710632245"><ele>133.0</ele><time>2026-03-28T16:43:48.986Z</time></trkpt><trkpt lat="45.3948101147542" lon="8.516982347878608"><ele>133.0</ele><time>2026-03-28T16:43:49.986Z</time></trkpt><trkpt lat="45.39485047057026" lon="8.51731466497919"><ele>134.5</ele><time>2026-03-28T16:43:50.986Z</time></trkpt><trkpt lat="45.394890328685335" lon="8.517641714604151"><ele>136.0</ele><time>2026-03-28T16:43:51.986Z</time></trkpt><trkpt lat="45.39492942689049" lon="8.517960683500338"><ele>136.33333333333334</ele><time>2026-03-28T16:43:52.986Z</time></trkpt><trkpt lat="45.394969655463456" lon="8.518268736496278"><ele>136.66666666666666</ele><time>2026-03-28T16:43:53.986Z</time></trkpt><trkpt lat="45.3950098159711" lon="8.518571948879652"><ele>137.0</ele><time>2026-03-28T16:43:54.986Z</time></trkpt><trkpt lat="45.39505154942774" lon="8.518876952156825"><ele>137.0</ele><time>2026-03-28T16:43:55.986Z</time></trkpt><trkpt lat="45.39509105069245" lon="8.519181884996996"><ele>137.0</ele><time>2026-03-28T16:43:56.986Z</time></trkpt><trkpt lat="45.39513003291231" lon="8.519488725332852"><ele>137.0</ele><time>2026-03-28T16:43:57.986Z</time></trkpt><trkpt lat="45.39516732664312" lon="8.519787301955498"><ele>137.33333333333331</ele><time>2026-03-28T16:43:58.986Z</time></trkpt><trkpt lat="45.395196448971305" lon="8.52008227236126"><ele>137.66666666666666</ele><time>2026-03-28T16:43:59.986Z</time></trkpt><trkpt lat="45.3952163923627" lon="8.52037472686295"><ele>138.0</ele><time>2026-03-28T16:44:00.986Z</time></trkpt><trkpt lat="45.39521849735889" lon="8.52066210779867"><ele>138.0</ele><time>2026-03-28T16:44:01.986Z</time></trkpt><trkpt lat="45.39520599201106" lon="8.520939176217224"><ele>138.0</ele><time>2026-03-28T16:44:02.986Z</time></trkpt><trkpt lat="45.39518793642319" lon="8.52121438248272"><ele>138.0</ele><time>2026-03-28T16:44:03.986Z</time></trkpt><trkpt lat="45.395169938561054" lon="8.521487063877379"><ele>137.66666666666666</ele><time>2026-03-28T16:44:04.986Z</time></trkpt><trkpt lat="45.39515410149114" lon="8.521756341154607"><ele>137.33333333333331</ele><time>2026-03-28T16:44:05.986Z</time></trkpt><trkpt lat="45.395139407041114" lon="8.522024221614387"><ele>137.0</ele><time>2026-03-28T16:44:06.986Z</time></trkpt><trkpt lat="45.39512652169996" lon="8.522289564850958"><ele>137.0</ele><time>2026-03-28T16:44:07.986Z</time></trkpt><trkpt lat="45.3951140172924" lon="8.522551730684631"><ele>137.0</ele><time>2026-03-28T16:44:08.986Z</time></trkpt><trkpt lat="45.39510435079661" lon="8.52281150681094"><ele>137.0</ele><time>2026-03-28T16:44:09.986Z</time></trkpt><trkpt lat="45.39509203522667" lon="8.523065536334165"><ele>137.33333333333331</ele><time>2026-03-28T16:44:10.986Z</time></trkpt><trkpt lat="45.395080249224776" lon="8.523314462542832"><ele>137.66666666666666</ele><time>2026-03-28T16:44:11.986Z</time></trkpt><trkpt lat="45.395069633196506" lon="8.523559352483359"><ele>138.0</ele><time>2026-03-28T16:44:12.986Z</time></trkpt><trkpt lat="45.39506425710907" lon="8.523793904979318"><ele>138.0</ele><time>2026-03-28T16:44:13.986Z</time></trkpt><trkpt lat="45.39506122296147" lon="8.52402149654518"><ele>138.0</ele><time>2026-03-28T16:44:14.986Z</time></trkpt><trkpt lat="45.39505795483931" lon="8.52424898827406"><ele>138.0</ele><time>2026-03-28T16:44:15.986Z</time></trkpt><trkpt lat="45.39505130444734" lon="8.524480059919629"><ele>137.33333333333334</ele><time>2026-03-28T16:44:16.986Z</time></trkpt><trkpt lat="45.39504397838125" lon="8.524712178427901"><ele>136.66666666666669</ele><time>2026-03-28T16:44:17.986Z</time></trkpt><trkpt lat="45.39503341295847" lon="8.524945579556347"><ele>136.0</ele><time>2026-03-28T16:44:18.986Z</time></trkpt><trkpt lat="45.39502545900296" lon="8.52518267194465"><ele>136.0</ele><time>2026-03-28T16:44:19.986Z</time></trkpt><trkpt lat="45.39501726388194" lon="8.525421834416008"><ele>136.0</ele><time>2026-03-28T16:44:20.986Z</time></trkpt><trkpt lat="45.395010330992896" lon="8.525665242540892"><ele>136.0</ele><time>2026-03-28T16:44:21.986Z</time></trkpt><trkpt lat="45.39500913057414" lon="8.525909169683517"><ele>136.0</ele><time>2026-03-28T16:44:22.986Z</time></trkpt><trkpt lat="45.39501675671369" lon="8.526157263971184"><ele>136.0</ele><time>2026-03-28T16:44:23.986Z</time></trkpt><trkpt lat="45.3950389191899" lon="8.526406800887065"><ele>136.0</ele><time>2026-03-28T16:44:24.986Z</time></trkpt><trkpt lat="45.39507463595904" lon="8.526660269367593"><ele>136.0</ele><time>2026-03-28T16:44:25.986Z</time></trkpt><trkpt lat="45.395112309034545" lon="8.526916359562833"><ele>136.0</ele><time>2026-03-28T16:44:26.986Z</time></trkpt><trkpt lat="45.39514566852871" lon="8.527170864183645"><ele>136.0</ele><time>2026-03-28T16:44:27.986Z</time></trkpt><trkpt lat="45.395176667895925" lon="8.527413451952949"><ele>136.0</ele><time>2026-03-28T16:44:28.986Z</time></trkpt><trkpt lat="45.3952086720206" lon="8.527652038891059"><ele>136.0</ele><time>2026-03-28T16:44:29.986Z</time></trkpt><trkpt lat="45.395241690639466" lon="8.527891859010104"><ele>136.0</ele><time>2026-03-28T16:44:30.986Z</time></trkpt><trkpt lat="45.395276629762634" lon="8.528134873933679"><ele>136.0</ele><time>2026-03-28T16:44:31.986Z</time></trkpt><trkpt lat="45.39530906392684" lon="8.52837731114386"><ele>136.0</ele><time>2026-03-28T16:44:32.986Z</time></trkpt><trkpt lat="45.39534015159538" lon="8.528615927419487"><ele>136.0</ele><time>2026-03-28T16:44:33.986Z</time></trkpt><trkpt lat="45.395370912695576" lon="8.528850896549685"><ele>136.0</ele><time>2026-03-28T16:44:34.986Z</time></trkpt><trkpt lat="45.39540110053551" lon="8.529082585833736"><ele>136.0</ele><time>2026-03-28T16:44:35.986Z</time></trkpt><trkpt lat="45.395431182778935" lon="8.529306607726856"><ele>136.0</ele><time>2026-03-28T16:44:36.986Z</time></trkpt><trkpt lat="45.39545715351894" lon="8.529519598793101"><ele>135.75</ele><time>2026-03-28T16:44:37.986Z</time></trkpt><trkpt lat="45.39548183674454" lon="8.52972324209605"><ele>135.5</ele><time>2026-03-28T16:44:38.986Z</time></trkpt><trkpt lat="45.395505346846065" lon="8.529919559009388"><ele>135.25</ele><time>2026-03-28T16:44:39.986Z</time></trkpt><trkpt lat="45.39552691349385" lon="8.530098564777992"><ele>135.0</ele><time>2026-03-28T16:44:40.986Z</time></trkpt><trkpt lat="45.39554713941819" lon="8.530265533301538"><ele>135.2</ele><time>2026-03-28T16:44:41.986Z</time></trkpt><trkpt lat="45.395568206492555" lon="8.530423790645813"><ele>135.4</ele><time>2026-03-28T16:44:42.986Z</time></trkpt><trkpt lat="45.39558734443674" lon="8.530577016891847"><ele>135.6</ele><time>2026-03-28T16:44:43.986Z</time></trkpt><trkpt lat="45.39560473678455" lon="8.530721038661968"><ele>135.8</ele><time>2026-03-28T16:44:44.986Z</time></trkpt><trkpt lat="45.39562382830333" lon="8.530862082433364"><ele>136.0</ele><time>2026-03-28T16:44:45.986Z</time></trkpt><trkpt lat="45.39564098137441" lon="8.531007266021508"><ele>136.0</ele><time>2026-03-28T16:44:46.986Z</time></trkpt><trkpt lat="45.39565837269771" lon="8.531153698556315"><ele>136.0</ele><time>2026-03-28T16:44:47.986Z</time></trkpt><trkpt lat="45.39567643408636" lon="8.531301770321127"><ele>136.0</ele><time>2026-03-28T16:44:48.986Z</time></trkpt><trkpt lat="45.395698635118585" lon="8.531451700098525"><ele>136.0</ele><time>2026-03-28T16:44:49.986Z</time></trkpt><trkpt lat="45.39572075159415" lon="8.531607259174978"><ele>136.0</ele><time>2026-03-28T16:44:50.986Z</time></trkpt><trkpt lat="45.39574481529925" lon="8.531768756863464"><ele>136.25</ele><time>2026-03-28T16:44:51.986Z</time></trkpt><trkpt lat="45.39577047897025" lon="8.531940452991575"><ele>136.5</ele><time>2026-03-28T16:44:52.986Z</time></trkpt><trkpt lat="45.39579657389803" lon="8.532121409301576"><ele>136.75</ele><time>2026-03-28T16:44:53.986Z</time></trkpt><trkpt lat="45.39582551625623" lon="8.532311930655846"><ele>137.0</ele><time>2026-03-28T16:44:54.986Z</time></trkpt><trkpt lat="45.395857172472525" lon="8.532501737847245"><ele>137.25</ele><time>2026-03-28T16:44:55.986Z</time></trkpt><trkpt lat="45.39589345405074" lon="8.53268498360562"><ele>137.5</ele><time>2026-03-28T16:44:56.986Z</time></trkpt><trkpt lat="45.39593396318442" lon="8.532858704754126"><ele>137.75</ele><time>2026-03-28T16:44:57.986Z</time></trkpt><trkpt lat="45.39597303718711" lon="8.533022529755778"><ele>138.0</ele><time>2026-03-28T16:44:58.986Z</time></trkpt><trkpt lat="45.39601339801779" lon="8.533186998339744"><ele>138.25</ele><time>2026-03-28T16:44:59.986Z</time></trkpt><trkpt lat="45.396055929481136" lon="8.533355300730229"><ele>138.5</ele><time>2026-03-28T16:45:00.986Z</time></trkpt><trkpt lat="45.39610108049381" lon="8.53352667707607"><ele>138.75</ele><time>2026-03-28T16:45:01.986Z</time></trkpt><trkpt lat="45.396146399653524" lon="8.533696644586032"><ele>139.0</ele><time>2026-03-28T16:45:02.986Z</time></trkpt><trkpt lat="45.39618968117005" lon="8.53386315195745"><ele>139.0</ele><time>2026-03-28T16:45:03.986Z</time></trkpt><trkpt lat="45.39623340424833" lon="8.534028561634603"><ele>139.0</ele><time>2026-03-28T16:45:04.986Z</time></trkpt><trkpt lat="45.39627455392185" lon="8.534194827815144"><ele>139.0</ele><time>2026-03-28T16:45:05.987Z</time></trkpt><trkpt lat="45.39631532404213" lon="8.534362281051067"><ele>139.0</ele><time>2026-03-28T16:45:06.987Z</time></trkpt><trkpt lat="45.39636150960743" lon="8.5345333053059"><ele>139.75</ele><time>2026-03-28T16:45:07.987Z</time></trkpt><trkpt lat="45.39640643956377" lon="8.53470719776885"><ele>140.5</ele><time>2026-03-28T16:45:08.987Z</time></trkpt><trkpt lat="45.39645056953839" lon="8.534885257692006"><ele>141.25</ele><time>2026-03-28T16:45:09.987Z</time></trkpt><trkpt lat="45.396496190480036" lon="8.535062824229714"><ele>142.0</ele><time>2026-03-28T16:45:10.987Z</time></trkpt><trkpt lat="45.39653999710848" lon="8.535234486575142"><ele>141.75</ele><time>2026-03-28T16:45:11.987Z</time></trkpt><trkpt lat="45.39658098264446" lon="8.535402140079363"><ele>141.5</ele><time>2026-03-28T16:45:12.987Z</time></trkpt><trkpt lat="45.39662005166869" lon="8.535567891925222"><ele>141.25</ele><time>2026-03-28T16:45:13.987Z</time></trkpt><trkpt lat="45.396660468368836" lon="8.535730382835379"><ele>141.0</ele><time>2026-03-28T16:45:14.987Z</time></trkpt><trkpt lat="45.3966976763357" lon="8.535893198327118"><ele>141.0</ele><time>2026-03-28T16:45:15.987Z</time></trkpt><trkpt lat="45.396736097052745" lon="8.536050882583412"><ele>141.0</ele><time>2026-03-28T16:45:16.987Z</time></trkpt><trkpt lat="45.39677209328495" lon="8.536207356061166"><ele>141.0</ele><time>2026-03-28T16:45:17.987Z</time></trkpt><trkpt lat="45.39679678249098" lon="8.536364032639757"><ele>141.0</ele><time>2026-03-28T16:45:18.987Z</time></trkpt><trkpt lat="45.39681403629656" lon="8.536514590522055"><ele>141.0</ele><time>2026-03-28T16:45:19.987Z</time></trkpt><trkpt lat="45.396822139388554" lon="8.536656568091928"><ele>141.0</ele><time>2026-03-28T16:45:20.987Z</time></trkpt><trkpt lat="45.396817909564" lon="8.536797323449395"><ele>141.0</ele><time>2026-03-28T16:45:21.987Z</time></trkpt><trkpt lat="45.396817378581424" lon="8.536919185014444"><ele>141.0</ele><time>2026-03-28T16:45:22.987Z</time></trkpt><trkpt lat="45.396815377171684" lon="8.537035916314155"><ele>141.0</ele><time>2026-03-28T16:45:23.987Z</time></trkpt><trkpt lat="45.39681343406892" lon="8.537145887650814"><ele>141.0</ele><time>2026-03-28T16:45:24.987Z</time></trkpt><trkpt lat="45.396802940656315" lon="8.537246482207069"><ele>141.0</ele><time>2026-03-28T16:45:25.987Z</time></trkpt><trkpt lat="45.396799701782065" lon="8.537353522635922"><ele>141.0</ele><time>2026-03-28T16:45:26.987Z</time></trkpt><trkpt lat="45.39679613153309" lon="8.537464019327691"><ele>141.0</ele><time>2026-03-28T16:45:27.987Z</time></trkpt><trkpt lat="45.396792831844934" lon="8.537563166911234"><ele>141.0</ele><time>2026-03-28T16:45:28.987Z</time></trkpt><trkpt lat="45.39678206669774" lon="8.537655223571452"><ele>141.0</ele><time>2026-03-28T16:45:29.987Z</time></trkpt><trkpt lat="45.39677919096462" lon="8.537749681132"><ele>141.0</ele><time>2026-03-28T16:45:30.987Z</time></trkpt><trkpt lat="45.3967780087081" lon="8.537845483650294"><ele>141.0</ele><time>2026-03-28T16:45:31.987Z</time></trkpt><trkpt lat="45.39677735861878" lon="8.5379397293992"><ele>140.83333333333334</ele><time>2026-03-28T16:45:32.987Z</time></trkpt><trkpt lat="45.396772739466165" lon="8.538034486238368"><ele>140.66666666666666</ele><time>2026-03-28T16:45:33.987Z</time></trkpt><trkpt lat="45.396773871892286" lon="8.538132097045382"><ele>140.5</ele><time>2026-03-28T16:45:34.987Z</time></trkpt><trkpt lat="45.39677398344743" lon="8.538238419431824"><ele>140.33333333333331</ele><time>2026-03-28T16:45:35.987Z</time></trkpt><trkpt lat="45.396776913001965" lon="8.538354823352813"><ele>140.16666666666666</ele><time>2026-03-28T16:45:36.987Z</time></trkpt><trkpt lat="45.396775430482435" lon="8.53847715230444"><ele>140.0</ele><time>2026-03-28T16:45:37.987Z</time></trkpt><trkpt lat="45.39677628791664" lon="8.53859877527298"><ele>140.16666666666666</ele><time>2026-03-28T16:45:38.987Z</time></trkpt><trkpt lat="45.396789317816385" lon="8.538724733935101"><ele>140.33333333333331</ele><time>2026-03-28T16:45:39.987Z</time></trkpt><trkpt lat="45.39681424034312" lon="8.538847871615225"><ele>140.5</ele><time>2026-03-28T16:45:40.987Z</time></trkpt><trkpt lat="45.39685153984983" lon="8.538966871492127"><ele>140.66666666666666</ele><time>2026-03-28T16:45:41.987Z</time></trkpt><trkpt lat="45.396894637602514" lon="8.539078290090767"><ele>140.83333333333334</ele><time>2026-03-28T16:45:42.987Z</time></trkpt><trkpt lat="45.39693684403971" lon="8.539181919043031"><ele>141.0</ele><time>2026-03-28T16:45:43.987Z</time></trkpt><trkpt lat="45.39697693483361" lon="8.539280986480664"><ele>141.0</ele><time>2026-03-28T16:45:44.986Z</time></trkpt><trkpt lat="45.39701490417272" lon="8.539394639494846"><ele>141.0</ele><time>2026-03-28T16:45:45.986Z</time></trkpt><trkpt lat="45.39705755589458" lon="8.539516060686307"><ele>141.0</ele><time>2026-03-28T16:45:46.986Z</time></trkpt><trkpt lat="45.397105753735474" lon="8.539651518536951"><ele>141.0</ele><time>2026-03-28T16:45:47.986Z</time></trkpt><trkpt lat="45.39716323271417" lon="8.539795065014719"><ele>141.0</ele><time>2026-03-28T16:45:48.986Z</time></trkpt><trkpt lat="45.397228377492716" lon="8.539943447458663"><ele>140.25</ele><time>2026-03-28T16:45:49.986Z</time></trkpt><trkpt lat="45.39729202725544" lon="8.540091410104047"><ele>139.5</ele><time>2026-03-28T16:45:50.986Z</time></trkpt><trkpt lat="45.39735775489035" lon="8.540241868928877"><ele>138.75</ele><time>2026-03-28T16:45:51.986Z</time></trkpt><trkpt lat="45.397425466470985" lon="8.540403788394297"><ele>138.0</ele><time>2026-03-28T16:45:52.986Z</time></trkpt><trkpt lat="45.397490627271225" lon="8.540566758253195"><ele>138.0</ele><time>2026-03-28T16:45:53.986Z</time></trkpt><trkpt lat="45.39756211493947" lon="8.540732994938733"><ele>138.0</ele><time>2026-03-28T16:45:54.986Z</time></trkpt><trkpt lat="45.397635390909514" lon="8.540901757992641"><ele>138.0</ele><time>2026-03-28T16:45:55.986Z</time></trkpt><trkpt lat="45.397702816282425" lon="8.541071149359329"><ele>138.0</ele><time>2026-03-28T16:45:56.986Z</time></trkpt><trkpt lat="45.39776902726941" lon="8.541234657407923"><ele>138.0</ele><time>2026-03-28T16:45:57.986Z</time></trkpt><trkpt lat="45.39783203048682" lon="8.541389540771366"><ele>138.0</ele><time>2026-03-28T16:45:58.986Z</time></trkpt><trkpt lat="45.39790197355039" lon="8.541540659324921"><ele>138.0</ele><time>2026-03-28T16:45:59.986Z</time></trkpt><trkpt lat="45.39798016735961" lon="8.541684928618263"><ele>138.0</ele><time>2026-03-28T16:46:00.986Z</time></trkpt><trkpt lat="45.39806726008466" lon="8.541822693195222"><ele>138.0</ele><time>2026-03-28T16:46:01.986Z</time></trkpt><trkpt lat="45.39815437201002" lon="8.541960892780885"><ele>138.0</ele><time>2026-03-28T16:46:02.986Z</time></trkpt><trkpt lat="45.39824656722199" lon="8.542098580995845"><ele>138.0</ele><time>2026-03-28T16:46:03.986Z</time></trkpt><trkpt lat="45.398334438394905" lon="8.542232154003427"><ele>138.0</ele><time>2026-03-28T16:46:04.986Z</time></trkpt><trkpt lat="45.398418970322275" lon="8.54236346332413"><ele>137.75</ele><time>2026-03-28T16:46:05.986Z</time></trkpt><trkpt lat="45.39850468605834" lon="8.542494314209259"><ele>137.5</ele><time>2026-03-28T16:46:06.986Z</time></trkpt><trkpt lat="45.3985954538837" lon="8.54262582082675"><ele>137.25</ele><time>2026-03-28T16:46:07.986Z</time></trkpt><trkpt lat="45.39868954297333" lon="8.542759651868936"><ele>137.0</ele><time>2026-03-28T16:46:08.986Z</time></trkpt><trkpt lat="45.39878465571318" lon="8.542893610463212"><ele>137.25</ele><time>2026-03-28T16:46:09.986Z</time></trkpt><trkpt lat="45.3988665030368" lon="8.543023723045842"><ele>137.5</ele><time>2026-03-28T16:46:10.986Z</time></trkpt><trkpt lat="45.39894613767255" lon="8.543152796850512"><ele>137.75</ele><time>2026-03-28T16:46:11.986Z</time></trkpt><trkpt lat="45.399028460979466" lon="8.543284554589189"><ele>138.0</ele><time>2026-03-28T16:46:12.986Z</time></trkpt><trkpt lat="45.39911542429761" lon="8.543410430940162"><ele>138.0</ele><time>2026-03-28T16:46:13.986Z</time></trkpt><trkpt lat="45.3992002602265" lon="8.543537273474506"><ele>138.0</ele><time>2026-03-28T16:46:14.986Z</time></trkpt><trkpt lat="45.39928420656118" lon="8.543654020445254"><ele>138.0</ele><time>2026-03-28T16:46:15.986Z</time></trkpt><trkpt lat="45.399359734938976" lon="8.543771584068793"><ele>138.0</ele><time>2026-03-28T16:46:16.986Z</time></trkpt><trkpt lat="45.39943286744194" lon="8.543889689467758"><ele>137.75</ele><time>2026-03-28T16:46:17.986Z</time></trkpt><trkpt lat="45.39950937706097" lon="8.544009655811534"><ele>137.5</ele><time>2026-03-28T16:46:18.986Z</time></trkpt><trkpt lat="45.399587125216655" lon="8.544132072247022"><ele>137.25</ele><time>2026-03-28T16:46:19.986Z</time></trkpt><trkpt lat="45.39966201961449" lon="8.544250430014596"><ele>137.0</ele><time>2026-03-28T16:46:20.986Z</time></trkpt><trkpt lat="45.399736835203164" lon="8.544371917294225"><ele>137.0</ele><time>2026-03-28T16:46:21.986Z</time></trkpt><trkpt lat="45.39981447082792" lon="8.544493324143154"><ele>137.0</ele><time>2026-03-28T16:46:22.986Z</time></trkpt><trkpt lat="45.39989510576676" lon="8.544616742079446"><ele>137.0</ele><time>2026-03-28T16:46:23.986Z</time></trkpt><trkpt lat="45.39997886320313" lon="8.544746605356845"><ele>137.0</ele><time>2026-03-28T16:46:24.987Z</time></trkpt><trkpt lat="45.40006879661376" lon="8.544882332602631"><ele>137.0</ele><time>2026-03-28T16:46:25.987Z</time></trkpt><trkpt lat="45.400165024046316" lon="8.545031217807264"><ele>137.0</ele><time>2026-03-28T16:46:26.987Z</time></trkpt><trkpt lat="45.40027392438655" lon="8.54519336377585"><ele>137.0</ele><time>2026-03-28T16:46:27.987Z</time></trkpt><trkpt lat="45.400398404776226" lon="8.54536965430048"><ele>137.0</ele><time>2026-03-28T16:46:28.987Z</time></trkpt><trkpt lat="45.40052994317672" lon="8.54556305936629"><ele>137.0</ele><time>2026-03-28T16:46:29.987Z</time></trkpt><trkpt lat="45.40066780896665" lon="8.545774798880174"><ele>137.0</ele><time>2026-03-28T16:46:30.987Z</time></trkpt><trkpt lat="45.40080864348592" lon="8.545987360780005"><ele>137.0</ele><time>2026-03-28T16:46:31.987Z</time></trkpt><trkpt lat="45.40095458712048" lon="8.546208170806219"><ele>137.0</ele><time>2026-03-28T16:46:32.987Z</time></trkpt><trkpt lat="45.401102433386576" lon="8.546443172582942"><ele>137.0</ele><time>2026-03-28T16:46:33.987Z</time></trkpt><trkpt lat="45.401247721626795" lon="8.546678063757673"><ele>136.33333333333331</ele><time>2026-03-28T16:46:34.987Z</time></trkpt><trkpt lat="45.40138253171121" lon="8.546903730375506"><ele>135.66666666666666</ele><time>2026-03-28T16:46:35.987Z</time></trkpt><trkpt lat="45.40151721520996" lon="8.54712810366278"><ele>135.0</ele><time>2026-03-28T16:46:36.987Z</time></trkpt><trkpt lat="45.401658218156065" lon="8.547347533686956"><ele>135.0</ele><time>2026-03-28T16:46:37.987Z</time></trkpt><trkpt lat="45.401801922813334" lon="8.547568273273999"><ele>135.0</ele><time>2026-03-28T16:46:38.987Z</time></trkpt><trkpt lat="45.401939430622555" lon="8.547792205501223"><ele>135.0</ele><time>2026-03-28T16:46:39.987Z</time></trkpt><trkpt lat="45.40207837231448" lon="8.548016347343891"><ele>135.0</ele><time>2026-03-28T16:46:40.987Z</time></trkpt><trkpt lat="45.40222023340966" lon="8.548233782585863"><ele>135.0</ele><time>2026-03-28T16:46:41.987Z</time></trkpt><trkpt lat="45.4023600563206" lon="8.548451543424811"><ele>135.0</ele><time>2026-03-28T16:46:42.987Z</time></trkpt><trkpt lat="45.40250757454286" lon="8.548676782922307"><ele>135.33333333333334</ele><time>2026-03-28T16:46:43.987Z</time></trkpt><trkpt lat="45.40266229991534" lon="8.548900562917936"><ele>135.66666666666669</ele><time>2026-03-28T16:46:44.987Z</time></trkpt><trkpt lat="45.402810873806914" lon="8.549121086770343"><ele>136.0</ele><time>2026-03-28T16:46:45.987Z</time></trkpt><trkpt lat="45.40294959784012" lon="8.549339162439818"><ele>136.33333333333334</ele><time>2026-03-28T16:46:46.987Z</time></trkpt><trkpt lat="45.40308050477686" lon="8.549543963259428"><ele>136.66666666666666</ele><time>2026-03-28T16:46:47.987Z</time></trkpt><trkpt lat="45.40320367844941" lon="8.549738831576194"><ele>137.0</ele><time>2026-03-28T16:46:48.987Z</time></trkpt><trkpt lat="45.403330168041" lon="8.549930168060735"><ele>137.0</ele><time>2026-03-28T16:46:49.987Z</time></trkpt><trkpt lat="45.40346723429755" lon="8.550129338103186"><ele>137.0</ele><time>2026-03-28T16:46:50.987Z</time></trkpt><trkpt lat="45.4036140456753" lon="8.550340989210097"><ele>137.0</ele><time>2026-03-28T16:46:51.987Z</time></trkpt><trkpt lat="45.403763270117" lon="8.550559771615593"><ele>137.0</ele><time>2026-03-28T16:46:52.987Z</time></trkpt><trkpt lat="45.403911013549404" lon="8.550791135566575"><ele>137.0</ele><time>2026-03-28T16:46:53.987Z</time></trkpt><trkpt lat="45.404052224262465" lon="8.55102354145639"><ele>137.0</ele><time>2026-03-28T16:46:54.987Z</time></trkpt><trkpt lat="45.404187600980705" lon="8.55125164123796"><ele>137.0</ele><time>2026-03-28T16:46:55.987Z</time></trkpt><trkpt lat="45.4043244324211" lon="8.55147377254582"><ele>137.0</ele><time>2026-03-28T16:46:56.987Z</time></trkpt><trkpt lat="45.40446179022111" lon="8.551689636119216"><ele>137.0</ele><time>2026-03-28T16:46:57.987Z</time></trkpt><trkpt lat="45.404599438489704" lon="8.55190456102436"><ele>136.66666666666666</ele><time>2026-03-28T16:46:58.987Z</time></trkpt><trkpt lat="45.40473661709467" lon="8.552109697389863"><ele>136.33333333333334</ele><time>2026-03-28T16:46:59.987Z</time></trkpt><trkpt lat="45.404871506723794" lon="8.552311650406835"><ele>136.0</ele><time>2026-03-28T16:47:00.987Z</time></trkpt><trkpt lat="45.40500439066792" lon="8.552504357847496"><ele>136.0</ele><time>2026-03-28T16:47:01.987Z</time></trkpt><trkpt lat="45.4051414298752" lon="8.552692194186976"><ele>136.0</ele><time>2026-03-28T16:47:02.987Z</time></trkpt><trkpt lat="45.40527714282599" lon="8.55287529126219"><ele>136.0</ele><time>2026-03-28T16:47:03.987Z</time></trkpt><trkpt lat="45.405411919634076" lon="8.553055558104905"><ele>136.33333333333334</ele><time>2026-03-28T16:47:04.987Z</time></trkpt><trkpt lat="45.405544046500154" lon="8.5532374757135"><ele>136.66666666666666</ele><time>2026-03-28T16:47:05.987Z</time></trkpt><trkpt lat="45.40567455143182" lon="8.553413018595139"><ele>137.0</ele><time>2026-03-28T16:47:06.987Z</time></trkpt><trkpt lat="45.40580568278672" lon="8.553582650169236"><ele>137.33333333333331</ele><time>2026-03-28T16:47:07.987Z</time></trkpt><trkpt lat="45.40593377729161" lon="8.553749534245364"><ele>137.66666666666666</ele><time>2026-03-28T16:47:08.987Z</time></trkpt><trkpt lat="45.40606040015733" lon="8.553914945425433"><ele>138.0</ele><time>2026-03-28T16:47:09.987Z</time></trkpt><trkpt lat="45.40618212311921" lon="8.554077184790762"><ele>138.0</ele><time>2026-03-28T16:47:10.987Z</time></trkpt><trkpt lat="45.4063018188936" lon="8.55423783033113"><ele>138.0</ele><time>2026-03-28T16:47:11.987Z</time></trkpt><trkpt lat="45.40642273283876" lon="8.554398563420746"><ele>138.0</ele><time>2026-03-28T16:47:12.987Z</time></trkpt><trkpt lat="45.406542797325265" lon="8.5545585076586"><ele>138.0</ele><time>2026-03-28T16:47:13.987Z</time></trkpt><trkpt lat="45.40666340340994" lon="8.554715677197523"><ele>138.0</ele><time>2026-03-28T16:47:14.987Z</time></trkpt><trkpt lat="45.4067950089185" lon="8.554877353882022"><ele>138.0</ele><time>2026-03-28T16:47:15.987Z</time></trkpt><trkpt lat="45.406932708587505" lon="8.55504601206389"><ele>138.0</ele><time>2026-03-28T16:47:16.987Z</time></trkpt><trkpt lat="45.40706635485107" lon="8.555213324103509"><ele>138.0</ele><time>2026-03-28T16:47:17.987Z</time></trkpt><trkpt lat="45.40720781095978" lon="8.55538857877735"><ele>138.0</ele><time>2026-03-28T16:47:18.987Z</time></trkpt><trkpt lat="45.40735825593053" lon="8.555579839742721"><ele>138.0</ele><time>2026-03-28T16:47:19.987Z</time></trkpt><trkpt lat="45.407508322626846" lon="8.555786421980917"><ele>138.0</ele><time>2026-03-28T16:47:20.987Z</time></trkpt><trkpt lat="45.40766136386507" lon="8.556018102756745"><ele>138.0</ele><time>2026-03-28T16:47:21.987Z</time></trkpt><trkpt lat="45.407826395629954" lon="8.556239643273193"><ele>138.5</ele><time>2026-03-28T16:47:22.987Z</time></trkpt><trkpt lat="45.407994001677594" lon="8.556467458403274"><ele>139.0</ele><time>2026-03-28T16:47:23.987Z</time></trkpt><trkpt lat="45.408167150644914" lon="8.556692731931072"><ele>139.0</ele><time>2026-03-28T16:47:24.987Z</time></trkpt><trkpt lat="45.40834242778496" lon="8.556916137244883"><ele>139.0</ele><time>2026-03-28T16:47:25.987Z</time></trkpt><trkpt lat="45.408521493321125" lon="8.557143782459486"><ele>138.5</ele><time>2026-03-28T16:47:26.987Z</time></trkpt><trkpt lat="45.40869910144387" lon="8.557376151503217"><ele>138.0</ele><time>2026-03-28T16:47:27.987Z</time></trkpt><trkpt lat="45.40887865765202" lon="8.557613677212359"><ele>138.0</ele><time>2026-03-28T16:47:28.987Z</time></trkpt><trkpt lat="45.409057614361984" lon="8.557851414992442"><ele>138.0</ele><time>2026-03-28T16:47:29.987Z</time></trkpt><trkpt lat="45.4092381613509" lon="8.558086604166146"><ele>138.0</ele><time>2026-03-28T16:47:30.987Z</time></trkpt><trkpt lat="45.409416778311126" lon="8.558323652102262"><ele>138.0</ele><time>2026-03-28T16:47:31.987Z</time></trkpt><trkpt lat="45.40959712736372" lon="8.558558278283023"><ele>138.0</ele><time>2026-03-28T16:47:32.987Z</time></trkpt><trkpt lat="45.40977932329508" lon="8.558792849972486"><ele>138.0</ele><time>2026-03-28T16:47:33.987Z</time></trkpt><trkpt lat="45.40996102441869" lon="8.55902945601855"><ele>138.0</ele><time>2026-03-28T16:47:34.987Z</time></trkpt><trkpt lat="45.41014276863" lon="8.559268219931491"><ele>138.0</ele><time>2026-03-28T16:47:35.987Z</time></trkpt><trkpt lat="45.410326631341654" lon="8.559508721027868"><ele>138.0</ele><time>2026-03-28T16:47:36.987Z</time></trkpt><trkpt lat="45.410508543501386" lon="8.559747615610423"><ele>138.0</ele><time>2026-03-28T16:47:37.987Z</time></trkpt><trkpt lat="45.410690812138476" lon="8.559988923012108"><ele>138.0</ele><time>2026-03-28T16:47:38.987Z</time></trkpt><trkpt lat="45.41087153181714" lon="8.560229545311104"><ele>138.0</ele><time>2026-03-28T16:47:39.987Z</time></trkpt><trkpt lat="45.41105236334852" lon="8.560469943680978"><ele>138.0</ele><time>2026-03-28T16:47:40.987Z</time></trkpt><trkpt lat="45.41123449072948" lon="8.560710817636897"><ele>138.0</ele><time>2026-03-28T16:47:41.987Z</time></trkpt><trkpt lat="45.41141738468401" lon="8.560954098555419"><ele>137.5</ele><time>2026-03-28T16:47:42.987Z</time></trkpt><trkpt lat="45.41160493042062" lon="8.56119890090751"><ele>137.0</ele><time>2026-03-28T16:47:43.987Z</time></trkpt><trkpt lat="45.41179763623771" lon="8.561446809338516"><ele>137.0</ele><time>2026-03-28T16:47:44.987Z</time></trkpt><trkpt lat="45.41199296215601" lon="8.561695916864286"><ele>137.0</ele><time>2026-03-28T16:47:45.987Z</time></trkpt><trkpt lat="45.4121823291115" lon="8.561951491380293"><ele>137.5</ele><time>2026-03-28T16:47:46.987Z</time></trkpt><trkpt lat="45.4123734898894" lon="8.56220123252764"><ele>138.0</ele><time>2026-03-28T16:47:47.987Z</time></trkpt><trkpt lat="45.412565511131" lon="8.562450911195883"><ele>138.0</ele><time>2026-03-28T16:47:48.987Z</time></trkpt><trkpt lat="45.412752388893765" lon="8.562698415921899"><ele>138.0</ele><time>2026-03-28T16:47:49.987Z</time></trkpt><trkpt lat="45.41293772486199" lon="8.562944041234582"><ele>139.0</ele><time>2026-03-28T16:47:50.986Z</time></trkpt><trkpt lat="45.41312490274066" lon="8.563185990781635"><ele>140.0</ele><time>2026-03-28T16:47:51.986Z</time></trkpt><trkpt lat="45.4133087993083" lon="8.563428233201412"><ele>140.0</ele><time>2026-03-28T16:47:52.986Z</time></trkpt><trkpt lat="45.41349367148624" lon="8.563669576487815"><ele>140.0</ele><time>2026-03-28T16:47:53.986Z</time></trkpt><trkpt lat="45.41367599838275" lon="8.56390676882091"><ele>139.5</ele><time>2026-03-28T16:47:54.986Z</time></trkpt><trkpt lat="45.41385264001226" lon="8.564140598995447"><ele>139.0</ele><time>2026-03-28T16:47:55.986Z</time></trkpt><trkpt lat="45.41402302521695" lon="8.564367249966038"><ele>139.0</ele><time>2026-03-28T16:47:56.985Z</time></trkpt><trkpt lat="45.41419103354373" lon="8.564588039861146"><ele>139.0</ele><time>2026-03-28T16:47:57.985Z</time></trkpt><trkpt lat="45.41435581197373" lon="8.564805054364802"><ele>139.0</ele><time>2026-03-28T16:47:58.985Z</time></trkpt><trkpt lat="45.414526182318205" lon="8.565019255514962"><ele>139.0</ele><time>2026-03-28T16:47:59.986Z</time></trkpt><trkpt lat="45.41469068557419" lon="8.565232857020957"><ele>139.33333333333334</ele><time>2026-03-28T16:48:00.986Z</time></trkpt><trkpt lat="45.414856227071205" lon="8.565444041408094"><ele>139.66666666666666</ele><time>2026-03-28T16:48:01.986Z</time></trkpt><trkpt lat="45.415019072692616" lon="8.565654098977049"><ele>140.0</ele><time>2026-03-28T16:48:02.985Z</time></trkpt><trkpt lat="45.415180738095145" lon="8.565861444357466"><ele>140.0</ele><time>2026-03-28T16:48:03.986Z</time></trkpt><trkpt lat="45.415341293522204" lon="8.566065712593"><ele>140.0</ele><time>2026-03-28T16:48:04.986Z</time></trkpt><trkpt lat="45.41549889291131" lon="8.566274946151637"><ele>140.0</ele><time>2026-03-28T16:48:05.986Z</time></trkpt><trkpt lat="45.41565504928402" lon="8.566479978625956"><ele>140.33333333333331</ele><time>2026-03-28T16:48:06.986Z</time></trkpt><trkpt lat="45.415806660912075" lon="8.566675689866592"><ele>140.66666666666666</ele><time>2026-03-28T16:48:07.986Z</time></trkpt><trkpt lat="45.41595592513933" lon="8.566869353583463"><ele>141.0</ele><time>2026-03-28T16:48:08.986Z</time></trkpt><trkpt lat="45.41610613695792" lon="8.56705962933838"><ele>140.33333333333334</ele><time>2026-03-28T16:48:09.986Z</time></trkpt><trkpt lat="45.41625221469445" lon="8.567248511770813"><ele>139.66666666666669</ele><time>2026-03-28T16:48:10.986Z</time></trkpt><trkpt lat="45.41639789791639" lon="8.56743780150354"><ele>139.0</ele><time>2026-03-28T16:48:11.986Z</time></trkpt><trkpt lat="45.416541056544986" lon="8.56762260741424"><ele>139.0</ele><time>2026-03-28T16:48:12.986Z</time></trkpt><trkpt lat="45.416680213326686" lon="8.567800802352199"><ele>139.0</ele><time>2026-03-28T16:48:13.986Z</time></trkpt><trkpt lat="45.4168134582694" lon="8.56797314984727"><ele>139.0</ele><time>2026-03-28T16:48:14.986Z</time></trkpt><trkpt lat="45.41694520004696" lon="8.568138677293716"><ele>138.66666666666669</ele><time>2026-03-28T16:48:15.986Z</time></trkpt><trkpt lat="45.4170706234532" lon="8.56829762856241"><ele>138.33333333333334</ele><time>2026-03-28T16:48:16.986Z</time></trkpt><trkpt lat="45.41718923668601" lon="8.56845337363667"><ele>138.0</ele><time>2026-03-28T16:48:17.986Z</time></trkpt><trkpt lat="45.4173034558638" lon="8.568603537671104"><ele>138.66666666666666</ele><time>2026-03-28T16:48:18.986Z</time></trkpt><trkpt lat="45.417418551998225" lon="8.568756783057749"><ele>139.33333333333331</ele><time>2026-03-28T16:48:19.986Z</time></trkpt><trkpt lat="45.41753400261569" lon="8.568907759948676"><ele>140.0</ele><time>2026-03-28T16:48:20.986Z</time></trkpt><trkpt lat="45.41764748238038" lon="8.569053258727692"><ele>140.0</ele><time>2026-03-28T16:48:21.986Z</time></trkpt><trkpt lat="45.41776145727767" lon="8.569198091797825"><ele>140.0</ele><time>2026-03-28T16:48:22.986Z</time></trkpt><trkpt lat="45.417872168638624" lon="8.569341430609338"><ele>140.0</ele><time>2026-03-28T16:48:23.986Z</time></trkpt><trkpt lat="45.41797797226889" lon="8.569480437655011"><ele>140.0</ele><time>2026-03-28T16:48:24.986Z</time></trkpt><trkpt lat="45.418078341994836" lon="8.569611498541146"><ele>139.75</ele><time>2026-03-28T16:48:25.986Z</time></trkpt><trkpt lat="45.41817514552681" lon="8.569736425302757"><ele>139.5</ele><time>2026-03-28T16:48:26.986Z</time></trkpt><trkpt lat="45.41826573121092" lon="8.569854938980665"><ele>139.25</ele><time>2026-03-28T16:48:27.986Z</time></trkpt><trkpt lat="45.41835142497391" lon="8.569966193019592"><ele>139.0</ele><time>2026-03-28T16:48:28.986Z</time></trkpt><trkpt lat="45.418433194522834" lon="8.570074512733326"><ele>139.0</ele><time>2026-03-28T16:48:29.986Z</time></trkpt><trkpt lat="45.41850953836043" lon="8.570175009442448"><ele>139.0</ele><time>2026-03-28T16:48:30.986Z</time></trkpt><trkpt lat="45.41857553855981" lon="8.57025611803853"><ele>139.0</ele><time>2026-03-28T16:48:31.986Z</time></trkpt><trkpt lat="45.418630148814756" lon="8.570325867117834"><ele>139.0</ele><time>2026-03-28T16:48:32.986Z</time></trkpt><trkpt lat="45.41871343198384" lon="8.570436270324581"><ele>139.0</ele><time>2026-03-28T16:48:34.986Z</time></trkpt><trkpt lat="45.41875680530659" lon="8.57050377293363"><ele>139.0</ele><time>2026-03-28T16:48:36.986Z</time></trkpt><trkpt lat="45.41878749980608" lon="8.570606247338029"><ele>138.6</ele><time>2026-03-28T16:48:43.986Z</time></trkpt><trkpt lat="45.4188544681406" lon="8.5707610843009"><ele>138.2</ele><time>2026-03-28T16:48:45.986Z</time></trkpt><trkpt lat="45.41887302007114" lon="8.570886914672045"><ele>137.79999999999998</ele><time>2026-03-28T16:48:46.986Z</time></trkpt><trkpt lat="45.41887425583061" lon="8.571030333677438"><ele>137.4</ele><time>2026-03-28T16:48:47.986Z</time></trkpt><trkpt lat="45.418864953314696" lon="8.57120399512588"><ele>137.0</ele><time>2026-03-28T16:48:48.986Z</time></trkpt><trkpt lat="45.41885882923946" lon="8.571379474511826"><ele>137.0</ele><time>2026-03-28T16:48:49.986Z</time></trkpt><trkpt lat="45.418855334579256" lon="8.571557398652804"><ele>137.0</ele><time>2026-03-28T16:48:50.986Z</time></trkpt><trkpt lat="45.41885614389621" lon="8.571749417488132"><ele>137.0</ele><time>2026-03-28T16:48:51.986Z</time></trkpt><trkpt lat="45.418856448591235" lon="8.571949637579664"><ele>137.0</ele><time>2026-03-28T16:48:52.986Z</time></trkpt><trkpt lat="45.418851541230055" lon="8.572163344764569"><ele>137.0</ele><time>2026-03-28T16:48:53.986Z</time></trkpt><trkpt lat="45.418846741886085" lon="8.572399280130412"><ele>137.0</ele><time>2026-03-28T16:48:54.986Z</time></trkpt><trkpt lat="45.4188487946321" lon="8.572656444953223"><ele>137.0</ele><time>2026-03-28T16:48:55.986Z</time></trkpt><trkpt lat="45.41885324125667" lon="8.572915623382801"><ele>137.33333333333331</ele><time>2026-03-28T16:48:56.986Z</time></trkpt><trkpt lat="45.418865997554086" lon="8.573170614392287"><ele>137.66666666666666</ele><time>2026-03-28T16:48:57.986Z</time></trkpt><trkpt lat="45.418886478535256" lon="8.573436521902982"><ele>138.0</ele><time>2026-03-28T16:48:58.986Z</time></trkpt><trkpt lat="45.41891373936567" lon="8.573703105708546"><ele>138.0</ele><time>2026-03-28T16:48:59.986Z</time></trkpt><trkpt lat="45.41894914430782" lon="8.573976706586967"><ele>138.0</ele><time>2026-03-28T16:49:00.986Z</time></trkpt><trkpt lat="45.41898729036474" lon="8.574252629741116"><ele>138.0</ele><time>2026-03-28T16:49:01.986Z</time></trkpt><trkpt lat="45.41903433800308" lon="8.57452828792794"><ele>138.33333333333334</ele><time>2026-03-28T16:49:02.986Z</time></trkpt><trkpt lat="45.41908944516222" lon="8.574791612617554"><ele>138.66666666666669</ele><time>2026-03-28T16:49:03.986Z</time></trkpt><trkpt lat="45.41914721987891" lon="8.575059061431714"><ele>139.0</ele><time>2026-03-28T16:49:04.986Z</time></trkpt><trkpt lat="45.41920198290317" lon="8.575331094866055"><ele>139.33333333333334</ele><time>2026-03-28T16:49:05.986Z</time></trkpt><trkpt lat="45.419255982109426" lon="8.575610979496602"><ele>139.66666666666666</ele><time>2026-03-28T16:49:06.986Z</time></trkpt><trkpt lat="45.41931334487768" lon="8.575892325094745"><ele>140.0</ele><time>2026-03-28T16:49:07.986Z</time></trkpt><trkpt lat="45.41937027446391" lon="8.57616736748555"><ele>140.0</ele><time>2026-03-28T16:49:08.987Z</time></trkpt><trkpt lat="45.419427836869694" lon="8.576452192463613"><ele>140.0</ele><time>2026-03-28T16:49:09.987Z</time></trkpt><trkpt lat="45.41948688756054" lon="8.576739682151176"><ele>140.0</ele><time>2026-03-28T16:49:10.987Z</time></trkpt><trkpt lat="45.4195464901098" lon="8.577034695594973"><ele>140.0</ele><time>2026-03-28T16:49:11.987Z</time></trkpt><trkpt lat="45.419604078736704" lon="8.577333644472176"><ele>140.0</ele><time>2026-03-28T16:49:12.987Z</time></trkpt><trkpt lat="45.41966497452326" lon="8.57763849785373"><ele>140.0</ele><time>2026-03-28T16:49:13.987Z</time></trkpt><trkpt lat="45.41972573422097" lon="8.577949144056404"><ele>139.5</ele><time>2026-03-28T16:49:14.987Z</time></trkpt><trkpt lat="45.419789068161016" lon="8.578259189169673"><ele>139.0</ele><time>2026-03-28T16:49:15.987Z</time></trkpt><trkpt lat="45.419851819037525" lon="8.578570780038117"><ele>139.0</ele><time>2026-03-28T16:49:16.987Z</time></trkpt><trkpt lat="45.41991364188489" lon="8.57887565281391"><ele>139.0</ele><time>2026-03-28T16:49:17.987Z</time></trkpt><trkpt lat="45.41997192594968" lon="8.579176210942396"><ele>139.0</ele><time>2026-03-28T16:49:18.987Z</time></trkpt><trkpt lat="45.42002918523894" lon="8.579471459132531"><ele>138.66666666666669</ele><time>2026-03-28T16:49:19.987Z</time></trkpt><trkpt lat="45.420084073468544" lon="8.579760308244303"><ele>138.33333333333334</ele><time>2026-03-28T16:49:20.987Z</time></trkpt><trkpt lat="45.42014004181838" lon="8.580045794744327"><ele>138.0</ele><time>2026-03-28T16:49:21.987Z</time></trkpt><trkpt lat="45.420197876687" lon="8.580329219202916"><ele>138.0</ele><time>2026-03-28T16:49:22.987Z</time></trkpt><trkpt lat="45.420253300404525" lon="8.580610688419322"><ele>138.0</ele><time>2026-03-28T16:49:23.987Z</time></trkpt><trkpt lat="45.420306990073" lon="8.580890770246056"><ele>138.0</ele><time>2026-03-28T16:49:24.987Z</time></trkpt><trkpt lat="45.42036001272112" lon="8.581161633043452"><ele>138.0</ele><time>2026-03-28T16:49:25.987Z</time></trkpt><trkpt lat="45.4204120036879" lon="8.58142669255541"><ele>138.0</ele><time>2026-03-28T16:49:26.987Z</time></trkpt><trkpt lat="45.42046650872736" lon="8.581697480226042"><ele>138.0</ele><time>2026-03-28T16:49:27.987Z</time></trkpt><trkpt lat="45.420518027150095" lon="8.58196468410981"><ele>137.66666666666666</ele><time>2026-03-28T16:49:28.987Z</time></trkpt><trkpt lat="45.42056852788153" lon="8.582229995996974"><ele>137.33333333333331</ele><time>2026-03-28T16:49:29.987Z</time></trkpt><trkpt lat="45.420617574112974" lon="8.582484428210538"><ele>137.0</ele><time>2026-03-28T16:49:30.987Z</time></trkpt><trkpt lat="45.42066374776736" lon="8.582721438003503"><ele>137.25</ele><time>2026-03-28T16:49:31.987Z</time></trkpt><trkpt lat="45.420706928648684" lon="8.582944557156255"><ele>137.5</ele><time>2026-03-28T16:49:32.987Z</time></trkpt><trkpt lat="45.42074708741666" lon="8.583148205384953"><ele>137.75</ele><time>2026-03-28T16:49:33.987Z</time></trkpt><trkpt lat="45.420781554199465" lon="8.583336863104753"><ele>138.0</ele><time>2026-03-28T16:49:34.987Z</time></trkpt><trkpt lat="45.420810615522626" lon="8.583506917759099"><ele>138.0</ele><time>2026-03-28T16:49:35.987Z</time></trkpt><trkpt lat="45.420835030758084" lon="8.583667171955627"><ele>138.0</ele><time>2026-03-28T16:49:36.987Z</time></trkpt><trkpt lat="45.42085128944428" lon="8.583811507340581"><ele>138.0</ele><time>2026-03-28T16:49:37.987Z</time></trkpt><trkpt lat="45.42085355002643" lon="8.583942218433364"><ele>138.0</ele><time>2026-03-28T16:49:38.987Z</time></trkpt><trkpt lat="45.42084007673819" lon="8.584075542987275"><ele>138.0</ele><time>2026-03-28T16:49:39.987Z</time></trkpt><trkpt lat="45.420813086603786" lon="8.584194976511542"><ele>138.0</ele><time>2026-03-28T16:49:40.987Z</time></trkpt><trkpt lat="45.4207826740924" lon="8.584296436662969"><ele>138.0</ele><time>2026-03-28T16:49:41.987Z</time></trkpt><trkpt lat="45.42076016752244" lon="8.584392413018739"><ele>138.0</ele><time>2026-03-28T16:49:42.987Z</time></trkpt><trkpt lat="45.420759827160865" lon="8.584490660044562"><ele>138.0</ele><time>2026-03-28T16:49:43.987Z</time></trkpt><trkpt lat="45.42079345389685" lon="8.584613802436307"><ele>138.0</ele><time>2026-03-28T16:49:45.987Z</time></trkpt><trkpt lat="45.42080564890785" lon="8.584709776256231"><ele>138.0</ele><time>2026-03-28T16:49:48.987Z</time></trkpt><trkpt lat="45.42088837951528" lon="8.58473571837465"><ele>138.0</ele><time>2026-03-28T16:50:18.985Z</time></trkpt><trkpt lat="45.42100236348361" lon="8.584770470732494"><ele>138.0</ele><time>2026-03-28T16:50:20.985Z</time></trkpt><trkpt lat="45.421055383596354" lon="8.5848594991428"><ele>138.0</ele><time>2026-03-28T16:50:21.985Z</time></trkpt><trkpt lat="45.42108673261571" lon="8.58498962418585"><ele>138.0</ele><time>2026-03-28T16:50:22.985Z</time></trkpt><trkpt lat="45.42111375438123" lon="8.585146582624214"><ele>138.0</ele><time>2026-03-28T16:50:23.985Z</time></trkpt><trkpt lat="45.4211472357581" lon="8.585312117420584"><ele>138.0</ele><time>2026-03-28T16:50:24.985Z</time></trkpt><trkpt lat="45.421185958088266" lon="8.585489174209533"><ele>138.0</ele><time>2026-03-28T16:50:25.985Z</time></trkpt><trkpt lat="45.42122931995757" lon="8.585682334192697"><ele>138.0</ele><time>2026-03-28T16:50:26.985Z</time></trkpt><trkpt lat="45.42127377561184" lon="8.58587933185946"><ele>138.0</ele><time>2026-03-28T16:50:27.985Z</time></trkpt><trkpt lat="45.421324600306356" lon="8.586093972317029"><ele>137.66666666666666</ele><time>2026-03-28T16:50:28.985Z</time></trkpt><trkpt lat="45.42137428511294" lon="8.586333325625954"><ele>137.33333333333331</ele><time>2026-03-28T16:50:29.985Z</time></trkpt><trkpt lat="45.42142403785006" lon="8.586592828226213"><ele>137.0</ele><time>2026-03-28T16:50:30.985Z</time></trkpt><trkpt lat="45.421476981285196" lon="8.586865049400295"><ele>136.66666666666666</ele><time>2026-03-28T16:50:31.985Z</time></trkpt><trkpt lat="45.42153417237287" lon="8.587142018393092"><ele>136.33333333333334</ele><time>2026-03-28T16:50:32.985Z</time></trkpt><trkpt lat="45.42159248100866" lon="8.587434542641393"><ele>136.0</ele><time>2026-03-28T16:50:33.985Z</time></trkpt><trkpt lat="45.42165148761376" lon="8.587743704474116"><ele>137.0</ele><time>2026-03-28T16:50:34.985Z</time></trkpt><trkpt lat="45.42171138768552" lon="8.588066058671018"><ele>138.0</ele><time>2026-03-28T16:50:35.985Z</time></trkpt><trkpt lat="45.42177177127743" lon="8.588396978131012"><ele>137.5</ele><time>2026-03-28T16:50:36.985Z</time></trkpt><trkpt lat="45.421832625151325" lon="8.588727875011713"><ele>137.0</ele><time>2026-03-28T16:50:37.985Z</time></trkpt><trkpt lat="45.421898988325886" lon="8.589058036195574"><ele>137.0</ele><time>2026-03-28T16:50:38.985Z</time></trkpt><trkpt lat="45.421968134138844" lon="8.589390766371285"><ele>137.0</ele><time>2026-03-28T16:50:39.985Z</time></trkpt><trkpt lat="45.42203407480145" lon="8.589730984718058"><ele>136.5</ele><time>2026-03-28T16:50:40.985Z</time></trkpt><trkpt lat="45.422099196853104" lon="8.590076764520092"><ele>136.0</ele><time>2026-03-28T16:50:41.985Z</time></trkpt><trkpt lat="45.422167547604175" lon="8.590417519914936"><ele>136.0</ele><time>2026-03-28T16:50:42.985Z</time></trkpt><trkpt lat="45.422237004615766" lon="8.590766503630164"><ele>136.0</ele><time>2026-03-28T16:50:43.985Z</time></trkpt><trkpt lat="45.42230788098761" lon="8.59111228796895"><ele>137.0</ele><time>2026-03-28T16:50:44.985Z</time></trkpt><trkpt lat="45.422376223687884" lon="8.591457686188301"><ele>138.0</ele><time>2026-03-28T16:50:45.985Z</time></trkpt><trkpt lat="45.42244537719429" lon="8.591796418731258"><ele>138.0</ele><time>2026-03-28T16:50:46.985Z</time></trkpt><trkpt lat="45.42251401372996" lon="8.592133345071508"><ele>138.0</ele><time>2026-03-28T16:50:47.985Z</time></trkpt><trkpt lat="45.422582750943086" lon="8.592470061858275"><ele>138.0</ele><time>2026-03-28T16:50:48.985Z</time></trkpt><trkpt lat="45.42264886366284" lon="8.592810837886635"><ele>138.0</ele><time>2026-03-28T16:50:49.985Z</time></trkpt><trkpt lat="45.422712674513086" lon="8.593148347787146"><ele>138.0</ele><time>2026-03-28T16:50:50.985Z</time></trkpt><trkpt lat="45.42278129682405" lon="8.593487676592728"><ele>138.0</ele><time>2026-03-28T16:50:51.985Z</time></trkpt><trkpt lat="45.42284686593435" lon="8.593824439987223"><ele>137.5</ele><time>2026-03-28T16:50:52.985Z</time></trkpt><trkpt lat="45.42291461334016" lon="8.594163136422178"><ele>137.0</ele><time>2026-03-28T16:50:53.985Z</time></trkpt><trkpt lat="45.422982686868956" lon="8.594500874874353"><ele>136.0</ele><time>2026-03-28T16:50:54.985Z</time></trkpt><trkpt lat="45.42304552610521" lon="8.594840427779788"><ele>135.0</ele><time>2026-03-28T16:50:55.986Z</time></trkpt><trkpt lat="45.423109185710516" lon="8.595178268994568"><ele>136.0</ele><time>2026-03-28T16:50:56.986Z</time></trkpt><trkpt lat="45.42317264071325" lon="8.59552007559785"><ele>137.0</ele><time>2026-03-28T16:50:57.986Z</time></trkpt><trkpt lat="45.42323559647809" lon="8.595857120730427"><ele>137.5</ele><time>2026-03-28T16:50:58.986Z</time></trkpt><trkpt lat="45.42330205853451" lon="8.596195045027644"><ele>138.0</ele><time>2026-03-28T16:50:59.986Z</time></trkpt><trkpt lat="45.42337113391269" lon="8.596531468299961"><ele>138.0</ele><time>2026-03-28T16:51:00.986Z</time></trkpt><trkpt lat="45.42344200499664" lon="8.596871498251833"><ele>138.0</ele><time>2026-03-28T16:51:01.986Z</time></trkpt><trkpt lat="45.423508807919454" lon="8.597211317214345"><ele>138.5</ele><time>2026-03-28T16:51:02.986Z</time></trkpt><trkpt lat="45.42357255792807" lon="8.597549293780649"><ele>139.0</ele><time>2026-03-28T16:51:03.986Z</time></trkpt><trkpt lat="45.423633113256585" lon="8.597893724957233"><ele>138.0</ele><time>2026-03-28T16:51:04.986Z</time></trkpt><trkpt lat="45.42369235461484" lon="8.598237637824282"><ele>137.0</ele><time>2026-03-28T16:51:05.986Z</time></trkpt><trkpt lat="45.42374692045824" lon="8.598586842860684"><ele>137.0</ele><time>2026-03-28T16:51:06.986Z</time></trkpt><trkpt lat="45.42379432547872" lon="8.598935191462507"><ele>137.0</ele><time>2026-03-28T16:51:07.986Z</time></trkpt><trkpt lat="45.423842153411385" lon="8.599286967447595"><ele>138.5</ele><time>2026-03-28T16:51:08.986Z</time></trkpt><trkpt lat="45.42388843629131" lon="8.599635117614273"><ele>140.0</ele><time>2026-03-28T16:51:09.986Z</time></trkpt><trkpt lat="45.42392991013808" lon="8.599987734109682"><ele>140.0</ele><time>2026-03-28T16:51:10.986Z</time></trkpt><trkpt lat="45.42396616557715" lon="8.600339667349079"><ele>140.0</ele><time>2026-03-28T16:51:11.986Z</time></trkpt><trkpt lat="45.42400086641446" lon="8.600696751504056"><ele>140.0</ele><time>2026-03-28T16:51:12.986Z</time></trkpt><trkpt lat="45.42403474383764" lon="8.601054198466814"><ele>140.0</ele><time>2026-03-28T16:51:13.986Z</time></trkpt><trkpt lat="45.424066463685044" lon="8.60140839979867"><ele>140.5</ele><time>2026-03-28T16:51:14.986Z</time></trkpt><trkpt lat="45.424091172880914" lon="8.601765616406674"><ele>141.0</ele><time>2026-03-28T16:51:15.986Z</time></trkpt><trkpt lat="45.424111941441424" lon="8.602119367000034"><ele>140.0</ele><time>2026-03-28T16:51:16.986Z</time></trkpt><trkpt lat="45.42412697086624" lon="8.602477309725188"><ele>139.0</ele><time>2026-03-28T16:51:17.986Z</time></trkpt><trkpt lat="45.424138471107874" lon="8.602835402742926"><ele>139.0</ele><time>2026-03-28T16:51:18.986Z</time></trkpt><trkpt lat="45.42414366964942" lon="8.60319400895436"><ele>139.0</ele><time>2026-03-28T16:51:19.986Z</time></trkpt><trkpt lat="45.424146082238956" lon="8.603549002235718"><ele>138.5</ele><time>2026-03-28T16:51:20.986Z</time></trkpt><trkpt lat="45.42414730498628" lon="8.603905656654213"><ele>138.0</ele><time>2026-03-28T16:51:21.986Z</time></trkpt><trkpt lat="45.4241484483561" lon="8.604266704515876"><ele>139.0</ele><time>2026-03-28T16:51:22.986Z</time></trkpt><trkpt lat="45.42415500293299" lon="8.604620101404333"><ele>140.0</ele><time>2026-03-28T16:51:23.986Z</time></trkpt><trkpt lat="45.42416310109347" lon="8.604970938333656"><ele>140.0</ele><time>2026-03-28T16:51:24.986Z</time></trkpt><trkpt lat="45.42416830138789" lon="8.605323695416438"><ele>140.0</ele><time>2026-03-28T16:51:25.986Z</time></trkpt><trkpt lat="45.42417649114192" lon="8.605677069565237"><ele>140.5</ele><time>2026-03-28T16:51:26.986Z</time></trkpt><trkpt lat="45.42418286234869" lon="8.606029339428376"><ele>141.0</ele><time>2026-03-28T16:51:27.986Z</time></trkpt><trkpt lat="45.42419122079127" lon="8.606380139184262"><ele>142.5</ele><time>2026-03-28T16:51:28.986Z</time></trkpt><trkpt lat="45.42419492250841" lon="8.606729614820427"><ele>144.0</ele><time>2026-03-28T16:51:29.986Z</time></trkpt><trkpt lat="45.42419984623352" lon="8.607079699340801"><ele>144.5</ele><time>2026-03-28T16:51:30.986Z</time></trkpt><trkpt lat="45.42420429322004" lon="8.60742821092578"><ele>145.0</ele><time>2026-03-28T16:51:31.986Z</time></trkpt><trkpt lat="45.42421218883414" lon="8.607776199280922"><ele>146.0</ele><time>2026-03-28T16:51:32.986Z</time></trkpt><trkpt lat="45.42422077915079" lon="8.608129085792715"><ele>147.0</ele><time>2026-03-28T16:51:33.986Z</time></trkpt><trkpt lat="45.42423111941834" lon="8.608481178982766"><ele>146.5</ele><time>2026-03-28T16:51:34.986Z</time></trkpt><trkpt lat="45.42424068432866" lon="8.608836036392056"><ele>146.0</ele><time>2026-03-28T16:51:35.986Z</time></trkpt><trkpt lat="45.42424899024958" lon="8.609194061756838"><ele>145.5</ele><time>2026-03-28T16:51:36.986Z</time></trkpt><trkpt lat="45.42425381109924" lon="8.609555328987145"><ele>145.0</ele><time>2026-03-28T16:51:37.986Z</time></trkpt><trkpt lat="45.424257155290306" lon="8.609914988166269"><ele>145.0</ele><time>2026-03-28T16:51:38.986Z</time></trkpt><trkpt lat="45.42426306938727" lon="8.61027574703551"><ele>145.0</ele><time>2026-03-28T16:51:39.986Z</time></trkpt><trkpt lat="45.42426905373462" lon="8.610638394946532"><ele>145.5</ele><time>2026-03-28T16:51:40.986Z</time></trkpt><trkpt lat="45.42427479237393" lon="8.611000628625037"><ele>146.0</ele><time>2026-03-28T16:51:41.986Z</time></trkpt><trkpt lat="45.42427869281737" lon="8.611364335780454"><ele>146.0</ele><time>2026-03-28T16:51:42.986Z</time></trkpt><trkpt lat="45.42428402032761" lon="8.611727867995409"><ele>146.0</ele><time>2026-03-28T16:51:43.986Z</time></trkpt><trkpt lat="45.424288134179925" lon="8.612092006700228"><ele>146.0</ele><time>2026-03-28T16:51:44.986Z</time></trkpt><trkpt lat="45.42429344925483" lon="8.612456611676773"><ele>146.0</ele><time>2026-03-28T16:51:45.986Z</time></trkpt><trkpt lat="45.42430023661867" lon="8.612821058532985"><ele>145.5</ele><time>2026-03-28T16:51:46.986Z</time></trkpt><trkpt lat="45.42430700978795" lon="8.613185224732785"><ele>145.0</ele><time>2026-03-28T16:51:47.986Z</time></trkpt><trkpt lat="45.424312301712334" lon="8.613552070195459"><ele>145.5</ele><time>2026-03-28T16:51:48.986Z</time></trkpt><trkpt lat="45.42431933405201" lon="8.613920718038697"><ele>146.0</ele><time>2026-03-28T16:51:49.986Z</time></trkpt><trkpt lat="45.424325692806" lon="8.614291822332028"><ele>146.0</ele><time>2026-03-28T16:51:50.986Z</time></trkpt><trkpt lat="45.42432939869558" lon="8.614664169671528"><ele>146.0</ele><time>2026-03-28T16:51:51.986Z</time></trkpt><trkpt lat="45.42433257668744" lon="8.61503611921108"><ele>146.5</ele><time>2026-03-28T16:51:52.986Z</time></trkpt><trkpt lat="45.42433780652399" lon="8.615409381039047"><ele>147.0</ele><time>2026-03-28T16:51:53.986Z</time></trkpt><trkpt lat="45.42434184418449" lon="8.615782922967387"><ele>146.5</ele><time>2026-03-28T16:51:54.986Z</time></trkpt><trkpt lat="45.42434532225009" lon="8.61615557389779"><ele>146.0</ele><time>2026-03-28T16:51:55.986Z</time></trkpt><trkpt lat="45.42434770271816" lon="8.616531140476985"><ele>146.0</ele><time>2026-03-28T16:51:56.986Z</time></trkpt><trkpt lat="45.424352637641036" lon="8.616906610962825"><ele>146.0</ele><time>2026-03-28T16:51:57.986Z</time></trkpt><trkpt lat="45.42435661035778" lon="8.617285001799443"><ele>148.0</ele><time>2026-03-28T16:51:58.986Z</time></trkpt><trkpt lat="45.42436106844221" lon="8.617663888330792"><ele>150.0</ele><time>2026-03-28T16:51:59.986Z</time></trkpt><trkpt lat="45.42437077038943" lon="8.618045556407385"><ele>150.5</ele><time>2026-03-28T16:52:00.986Z</time></trkpt><trkpt lat="45.42437705255932" lon="8.618426756119442"><ele>151.0</ele><time>2026-03-28T16:52:01.986Z</time></trkpt><trkpt lat="45.424379158616986" lon="8.618806560860659"><ele>150.0</ele><time>2026-03-28T16:52:02.985Z</time></trkpt><trkpt lat="45.42437801523185" lon="8.619188679946989"><ele>149.0</ele><time>2026-03-28T16:52:03.985Z</time></trkpt><trkpt lat="45.424377930564184" lon="8.619566723359945"><ele>148.5</ele><time>2026-03-28T16:52:04.985Z</time></trkpt><trkpt lat="45.424379075792" lon="8.61994421667419"><ele>148.0</ele><time>2026-03-28T16:52:05.985Z</time></trkpt><trkpt lat="45.42438109761738" lon="8.62031775689159"><ele>148.0</ele><time>2026-03-28T16:52:06.985Z</time></trkpt><trkpt lat="45.42438678382612" lon="8.620690557292003"><ele>148.0</ele><time>2026-03-28T16:52:07.985Z</time></trkpt><trkpt lat="45.424392941727085" lon="8.62105824313468"><ele>148.0</ele><time>2026-03-28T16:52:08.985Z</time></trkpt><trkpt lat="45.42439452925407" lon="8.621426475410393"><ele>148.0</ele><time>2026-03-28T16:52:09.985Z</time></trkpt><trkpt lat="45.424400469332504" lon="8.621794823023446"><ele>148.0</ele><time>2026-03-28T16:52:10.985Z</time></trkpt><trkpt lat="45.42440379983763" lon="8.62216105698869"><ele>148.0</ele><time>2026-03-28T16:52:11.985Z</time></trkpt><trkpt lat="45.42440962057201" lon="8.622528697950273"><ele>148.5</ele><time>2026-03-28T16:52:12.986Z</time></trkpt><trkpt lat="45.4244098686559" lon="8.622893891831719"><ele>149.0</ele><time>2026-03-28T16:52:13.986Z</time></trkpt><trkpt lat="45.42440786162452" lon="8.623257963083386"><ele>149.0</ele><time>2026-03-28T16:52:14.985Z</time></trkpt><trkpt lat="45.42440661486047" lon="8.623625905883696"><ele>149.0</ele><time>2026-03-28T16:52:15.985Z</time></trkpt><trkpt lat="45.42440217688124" lon="8.623994843046326"><ele>148.5</ele><time>2026-03-28T16:52:16.985Z</time></trkpt><trkpt lat="45.424385321818875" lon="8.624360246293715"><ele>148.0</ele><time>2026-03-28T16:52:17.985Z</time></trkpt><trkpt lat="45.42436597004853" lon="8.62472466057308"><ele>148.0</ele><time>2026-03-28T16:52:18.985Z</time></trkpt><trkpt lat="45.424346125337294" lon="8.625092520546552"><ele>148.0</ele><time>2026-03-28T16:52:19.985Z</time></trkpt><trkpt lat="45.42432118490677" lon="8.62545683461649"><ele>148.0</ele><time>2026-03-28T16:52:20.985Z</time></trkpt><trkpt lat="45.42429619880125" lon="8.625824893321523"><ele>148.0</ele><time>2026-03-28T16:52:21.985Z</time></trkpt><trkpt lat="45.42426292237473" lon="8.626195995204153"><ele>148.0</ele><time>2026-03-28T16:52:22.985Z</time></trkpt><trkpt lat="45.42422569487417" lon="8.626559426517534"><ele>148.0</ele><time>2026-03-28T16:52:23.985Z</time></trkpt><trkpt lat="45.424182879597595" lon="8.62692325142186"><ele>147.5</ele><time>2026-03-28T16:52:24.985Z</time></trkpt><trkpt lat="45.42413733198916" lon="8.627285973063199"><ele>147.0</ele><time>2026-03-28T16:52:25.985Z</time></trkpt><trkpt lat="45.42408943065282" lon="8.627645299926856"><ele>146.0</ele><time>2026-03-28T16:52:26.985Z</time></trkpt><trkpt lat="45.42404106479999" lon="8.628007170801126"><ele>145.0</ele><time>2026-03-28T16:52:27.985Z</time></trkpt><trkpt lat="45.423990476222805" lon="8.62837583564321"><ele>144.0</ele><time>2026-03-28T16:52:28.985Z</time></trkpt><trkpt lat="45.423937709930016" lon="8.6287474911633"><ele>143.0</ele><time>2026-03-28T16:52:29.985Z</time></trkpt><trkpt lat="45.42388069810738" lon="8.629113500950615"><ele>142.5</ele><time>2026-03-28T16:52:30.985Z</time></trkpt><trkpt lat="45.42383025786325" lon="8.62947738845577"><ele>142.0</ele><time>2026-03-28T16:52:31.985Z</time></trkpt><trkpt lat="45.423780885612835" lon="8.629844889054318"><ele>142.0</ele><time>2026-03-28T16:52:32.985Z</time></trkpt><trkpt lat="45.4237309299427" lon="8.630211190617059"><ele>142.0</ele><time>2026-03-28T16:52:33.985Z</time></trkpt><trkpt lat="45.4236729160687" lon="8.630574503411014"><ele>142.0</ele><time>2026-03-28T16:52:34.985Z</time></trkpt><trkpt lat="45.42361226638262" lon="8.630936662923418"><ele>142.0</ele><time>2026-03-28T16:52:35.985Z</time></trkpt><trkpt lat="45.423551788941694" lon="8.63129810100525"><ele>142.0</ele><time>2026-03-28T16:52:36.985Z</time></trkpt><trkpt lat="45.42349000431305" lon="8.631661398608664"><ele>142.0</ele><time>2026-03-28T16:52:37.985Z</time></trkpt><trkpt lat="45.423428898657704" lon="8.632023815906976"><ele>144.0</ele><time>2026-03-28T16:52:38.985Z</time></trkpt><trkpt lat="45.42337036267037" lon="8.632388834178101"><ele>146.0</ele><time>2026-03-28T16:52:39.985Z</time></trkpt><trkpt lat="45.42331416092949" lon="8.632752306118618"><ele>146.5</ele><time>2026-03-28T16:52:40.985Z</time></trkpt><trkpt lat="45.423260115226476" lon="8.633120362602302"><ele>147.0</ele><time>2026-03-28T16:52:41.985Z</time></trkpt><trkpt lat="45.42320685233452" lon="8.633489932440602"><ele>145.0</ele><time>2026-03-28T16:52:42.985Z</time></trkpt><trkpt lat="45.42315276563726" lon="8.63385425302231"><ele>143.0</ele><time>2026-03-28T16:52:43.985Z</time></trkpt><trkpt lat="45.42310223892189" lon="8.634215681995629"><ele>141.0</ele><time>2026-03-28T16:52:44.985Z</time></trkpt><trkpt lat="45.42304495299675" lon="8.63458016531753"><ele>139.0</ele><time>2026-03-28T16:52:45.985Z</time></trkpt><trkpt lat="45.42299279610969" lon="8.634943553458415"><ele>138.5</ele><time>2026-03-28T16:52:46.985Z</time></trkpt><trkpt lat="45.42293428859187" lon="8.635302111292935"><ele>138.0</ele><time>2026-03-28T16:52:47.985Z</time></trkpt><trkpt lat="45.42287937677747" lon="8.635668487400238"><ele>140.0</ele><time>2026-03-28T16:52:48.985Z</time></trkpt><trkpt lat="45.42282589037115" lon="8.63602838122196"><ele>142.0</ele><time>2026-03-28T16:52:49.985Z</time></trkpt><trkpt lat="45.42277621975932" lon="8.636386616288508"><ele>145.0</ele><time>2026-03-28T16:52:50.985Z</time></trkpt><trkpt lat="45.42272341234565" lon="8.636739491323087"><ele>148.0</ele><time>2026-03-28T16:52:51.985Z</time></trkpt><trkpt lat="45.42267055620304" lon="8.637093970357034"><ele>148.5</ele><time>2026-03-28T16:52:52.985Z</time></trkpt><trkpt lat="45.422619094842005" lon="8.637445596362875"><ele>149.0</ele><time>2026-03-28T16:52:53.985Z</time></trkpt><trkpt lat="45.42256833911453" lon="8.637794126758065"><ele>149.5</ele><time>2026-03-28T16:52:54.985Z</time></trkpt><trkpt lat="45.422514705974116" lon="8.638140322856186"><ele>150.0</ele><time>2026-03-28T16:52:55.985Z</time></trkpt><trkpt lat="45.42245939517237" lon="8.638481686144987"><ele>150.5</ele><time>2026-03-28T16:52:56.985Z</time></trkpt><trkpt lat="45.422405638088335" lon="8.638828454335501"><ele>151.0</ele><time>2026-03-28T16:52:57.985Z</time></trkpt><trkpt lat="45.42234430282798" lon="8.639221784870445"><ele>151.0</ele><time>2026-03-28T16:52:59.125Z</time></trkpt><trkpt lat="45.422290647277144" lon="8.6395710891679"><ele>151.0</ele><time>2026-03-28T16:53:00.126Z</time></trkpt><trkpt lat="45.42223946821802" lon="8.639921423834737"><ele>147.0</ele><time>2026-03-28T16:53:01.125Z</time></trkpt><trkpt lat="45.422528853089936" lon="8.642144736878217"><ele>147.0</ele><time>2026-03-28T16:53:06.985Z</time></trkpt><trkpt lat="45.422507718180256" lon="8.642521825471903"><ele>147.0</ele><time>2026-03-28T16:53:07.985Z</time></trkpt><trkpt lat="45.422585482164735" lon="8.642864441677174"><ele>149.0</ele><time>2026-03-28T16:53:08.985Z</time></trkpt><trkpt lat="45.42264609753338" lon="8.643223031674136"><ele>151.0</ele><time>2026-03-28T16:53:09.986Z</time></trkpt><trkpt lat="45.42270546116799" lon="8.643579046153897"><ele>152.0</ele><time>2026-03-28T16:53:10.986Z</time></trkpt><trkpt lat="45.422781569379616" lon="8.643935115822075"><ele>153.0</ele><time>2026-03-28T16:53:11.986Z</time></trkpt><trkpt lat="45.4228560126949" lon="8.64428607115766"><ele>152.5</ele><time>2026-03-28T16:53:12.986Z</time></trkpt><trkpt lat="45.42293789658034" lon="8.644635716038263"><ele>152.0</ele><time>2026-03-28T16:53:13.986Z</time></trkpt><trkpt lat="45.423029033196315" lon="8.64498100362016"><ele>151.0</ele><time>2026-03-28T16:53:14.986Z</time></trkpt><trkpt lat="45.423117606588086" lon="8.645320317219666"><ele>150.0</ele><time>2026-03-28T16:53:15.986Z</time></trkpt><trkpt lat="45.42321129371211" lon="8.64565455702323"><ele>150.0</ele><time>2026-03-28T16:53:16.986Z</time></trkpt><trkpt lat="45.42330293707447" lon="8.64597492315518"><ele>150.0</ele><time>2026-03-28T16:53:17.986Z</time></trkpt><trkpt lat="45.42342572177605" lon="8.646295898719469"><ele>149.0</ele><time>2026-03-28T16:53:18.986Z</time></trkpt><trkpt lat="45.423562924324045" lon="8.64660771802605"><ele>148.0</ele><time>2026-03-28T16:53:19.986Z</time></trkpt><trkpt lat="45.42370392634241" lon="8.646915378747074"><ele>147.5</ele><time>2026-03-28T16:53:20.986Z</time></trkpt><trkpt lat="45.423838375061486" lon="8.647224237044949"><ele>147.0</ele><time>2026-03-28T16:53:21.986Z</time></trkpt><trkpt lat="45.42397106603868" lon="8.647529912109485"><ele>147.5</ele><time>2026-03-28T16:53:22.986Z</time></trkpt><trkpt lat="45.424100545752815" lon="8.647823335378565"><ele>148.0</ele><time>2026-03-28T16:53:23.986Z</time></trkpt><trkpt lat="45.424224507019204" lon="8.648135653082461"><ele>148.0</ele><time>2026-03-28T16:53:24.986Z</time></trkpt><trkpt lat="45.424349708453995" lon="8.648456617344031"><ele>148.0</ele><time>2026-03-28T16:53:25.986Z</time></trkpt><trkpt lat="45.424474906529554" lon="8.64877217240025"><ele>147.5</ele><time>2026-03-28T16:53:26.986Z</time></trkpt><trkpt lat="45.42459659474684" lon="8.649081480792578"><ele>147.0</ele><time>2026-03-28T16:53:27.986Z</time></trkpt><trkpt lat="45.424719106830956" lon="8.64938969313506"><ele>147.0</ele><time>2026-03-28T16:53:28.986Z</time></trkpt><trkpt lat="45.424842672471804" lon="8.64969808639134"><ele>147.0</ele><time>2026-03-28T16:53:29.986Z</time></trkpt><trkpt lat="45.42496724678583" lon="8.650006130631905"><ele>144.5</ele><time>2026-03-28T16:53:30.986Z</time></trkpt><trkpt lat="45.42509060666361" lon="8.650316210216964"><ele>142.0</ele><time>2026-03-28T16:53:31.986Z</time></trkpt><trkpt lat="45.42520871450159" lon="8.650626636739402"><ele>142.0</ele><time>2026-03-28T16:53:32.986Z</time></trkpt><trkpt lat="45.42533051044115" lon="8.650935744879655"><ele>142.0</ele><time>2026-03-28T16:53:33.986Z</time></trkpt><trkpt lat="45.425451455097" lon="8.65124956097751"><ele>141.0</ele><time>2026-03-28T16:53:34.986Z</time></trkpt><trkpt lat="45.425571460035194" lon="8.651568980468062"><ele>140.0</ele><time>2026-03-28T16:53:35.986Z</time></trkpt><trkpt lat="45.42569315229626" lon="8.651891306068318"><ele>138.5</ele><time>2026-03-28T16:53:36.986Z</time></trkpt><trkpt lat="45.42581822069116" lon="8.65221030278846"><ele>137.0</ele><time>2026-03-28T16:53:37.986Z</time></trkpt><trkpt lat="45.42594723522116" lon="8.652528110570595"><ele>137.5</ele><time>2026-03-28T16:53:38.986Z</time></trkpt><trkpt lat="45.426072829367016" lon="8.652846140698987"><ele>138.0</ele><time>2026-03-28T16:53:39.986Z</time></trkpt><trkpt lat="45.426191941338914" lon="8.653164441352853"><ele>138.0</ele><time>2026-03-28T16:53:40.986Z</time></trkpt><trkpt lat="45.426308722308875" lon="8.653479496735146"><ele>138.0</ele><time>2026-03-28T16:53:41.986Z</time></trkpt><trkpt lat="45.42642943413213" lon="8.653792115773818"><ele>138.0</ele><time>2026-03-28T16:53:42.986Z</time></trkpt><trkpt lat="45.4265507283629" lon="8.654103795982913"><ele>138.0</ele><time>2026-03-28T16:53:43.986Z</time></trkpt><trkpt lat="45.42667233352833" lon="8.654406090676781"><ele>137.5</ele><time>2026-03-28T16:53:44.986Z</time></trkpt><trkpt lat="45.42678404548417" lon="8.654695663931536"><ele>137.0</ele><time>2026-03-28T16:53:45.986Z</time></trkpt><trkpt lat="45.42688923232488" lon="8.654976557991317"><ele>137.0</ele><time>2026-03-28T16:53:46.986Z</time></trkpt><trkpt lat="45.426993047608455" lon="8.655246620459176"><ele>137.0</ele><time>2026-03-28T16:53:47.986Z</time></trkpt><trkpt lat="45.42709944134162" lon="8.655509531747356"><ele>137.0</ele><time>2026-03-28T16:53:48.986Z</time></trkpt><trkpt lat="45.42719663657225" lon="8.655756318592067"><ele>137.0</ele><time>2026-03-28T16:53:49.986Z</time></trkpt><trkpt lat="45.42729089209214" lon="8.655999676121516"><ele>137.0</ele><time>2026-03-28T16:53:50.986Z</time></trkpt><trkpt lat="45.42738642476098" lon="8.656247276354923"><ele>137.0</ele><time>2026-03-28T16:53:51.986Z</time></trkpt><trkpt lat="45.427487977792254" lon="8.6564962815658"><ele>137.33333333333331</ele><time>2026-03-28T16:53:52.986Z</time></trkpt><trkpt lat="45.4275935769675" lon="8.656751593699505"><ele>137.66666666666666</ele><time>2026-03-28T16:53:53.986Z</time></trkpt><trkpt lat="45.42770080046201" lon="8.657009689012929"><ele>138.0</ele><time>2026-03-28T16:53:54.986Z</time></trkpt><trkpt lat="45.42780611509569" lon="8.657266706971061"><ele>138.0</ele><time>2026-03-28T16:53:55.986Z</time></trkpt><trkpt lat="45.42790953334629" lon="8.657506995848276"><ele>138.0</ele><time>2026-03-28T16:53:56.986Z</time></trkpt><trkpt lat="45.42801338668062" lon="8.657733236954208"><ele>138.0</ele><time>2026-03-28T16:53:57.986Z</time></trkpt><trkpt lat="45.42811307310077" lon="8.657950048670244"><ele>138.0</ele><time>2026-03-28T16:53:58.986Z</time></trkpt><trkpt lat="45.428216885508625" lon="8.65816768590656"><ele>138.0</ele><time>2026-03-28T16:53:59.986Z</time></trkpt><trkpt lat="45.42832532478479" lon="8.65838983386359"><ele>138.0</ele><time>2026-03-28T16:54:00.986Z</time></trkpt><trkpt lat="45.42844331695018" lon="8.658617525984384"><ele>138.0</ele><time>2026-03-28T16:54:01.986Z</time></trkpt><trkpt lat="45.42856870170648" lon="8.658851054194313"><ele>138.0</ele><time>2026-03-28T16:54:02.986Z</time></trkpt><trkpt lat="45.428699219188715" lon="8.659092463197753"><ele>138.0</ele><time>2026-03-28T16:54:03.986Z</time></trkpt><trkpt lat="45.42883497538545" lon="8.659340906757224"><ele>138.0</ele><time>2026-03-28T16:54:04.986Z</time></trkpt><trkpt lat="45.428978461130384" lon="8.659590483681544"><ele>138.0</ele><time>2026-03-28T16:54:05.986Z</time></trkpt><trkpt lat="45.42913056458528" lon="8.659843606294325"><ele>138.0</ele><time>2026-03-28T16:54:06.986Z</time></trkpt><trkpt lat="45.42929001503563" lon="8.660103249997633"><ele>138.0</ele><time>2026-03-28T16:54:07.986Z</time></trkpt><trkpt lat="45.42945532637611" lon="8.660362669368455"><ele>138.5</ele><time>2026-03-28T16:54:08.984Z</time></trkpt><trkpt lat="45.42962677636519" lon="8.66062341969846"><ele>139.0</ele><time>2026-03-28T16:54:09.984Z</time></trkpt><trkpt lat="45.429800460399356" lon="8.660887980001098"><ele>139.0</ele><time>2026-03-28T16:54:10.984Z</time></trkpt><trkpt lat="45.429976179506355" lon="8.661150945957019"><ele>139.0</ele><time>2026-03-28T16:54:11.985Z</time></trkpt><trkpt lat="45.43015499937155" lon="8.661411308221123"><ele>139.0</ele><time>2026-03-28T16:54:12.985Z</time></trkpt><trkpt lat="45.43033649189323" lon="8.661669812657822"><ele>139.0</ele><time>2026-03-28T16:54:13.985Z</time></trkpt><trkpt lat="45.430514673799756" lon="8.661929880173414"><ele>139.0</ele><time>2026-03-28T16:54:14.985Z</time></trkpt><trkpt lat="45.43069157026255" lon="8.662188133412064"><ele>139.0</ele><time>2026-03-28T16:54:15.985Z</time></trkpt><trkpt lat="45.430867001556585" lon="8.662444040064187"><ele>139.0</ele><time>2026-03-28T16:54:16.985Z</time></trkpt><trkpt lat="45.431040605520195" lon="8.662696579899574"><ele>139.0</ele><time>2026-03-28T16:54:17.985Z</time></trkpt><trkpt lat="45.43121134337493" lon="8.66295017932231"><ele>138.5</ele><time>2026-03-28T16:54:18.985Z</time></trkpt><trkpt lat="45.43138123059158" lon="8.663200275456036"><ele>138.0</ele><time>2026-03-28T16:54:19.985Z</time></trkpt><trkpt lat="45.43154800098881" lon="8.663451488270033"><ele>138.0</ele><time>2026-03-28T16:54:20.985Z</time></trkpt><trkpt lat="45.431717076118396" lon="8.663698288124698"><ele>138.0</ele><time>2026-03-28T16:54:21.985Z</time></trkpt><trkpt lat="45.431892392749894" lon="8.663944595814485"><ele>138.0</ele><time>2026-03-28T16:54:22.985Z</time></trkpt><trkpt lat="45.432080106951084" lon="8.66419589891768"><ele>138.0</ele><time>2026-03-28T16:54:23.985Z</time></trkpt><trkpt lat="45.43226994005112" lon="8.664462516022986"><ele>139.0</ele><time>2026-03-28T16:54:24.985Z</time></trkpt><trkpt lat="45.432461333259425" lon="8.664739259231851"><ele>140.0</ele><time>2026-03-28T16:54:25.985Z</time></trkpt><trkpt lat="45.432654420340654" lon="8.665019492546497"><ele>140.0</ele><time>2026-03-28T16:54:26.985Z</time></trkpt><trkpt lat="45.432846701097624" lon="8.665300993789733"><ele>140.0</ele><time>2026-03-28T16:54:27.985Z</time></trkpt><trkpt lat="45.43304142517806" lon="8.665577497555807"><ele>140.0</ele><time>2026-03-28T16:54:28.985Z</time></trkpt><trkpt lat="45.433244590896116" lon="8.665846093201528"><ele>140.0</ele><time>2026-03-28T16:54:29.985Z</time></trkpt><trkpt lat="45.43345354802301" lon="8.6661058082644"><ele>139.5</ele><time>2026-03-28T16:54:30.985Z</time></trkpt><trkpt lat="45.433673728609136" lon="8.66635852584881"><ele>139.0</ele><time>2026-03-28T16:54:31.985Z</time></trkpt><trkpt lat="45.43390570973117" lon="8.666599645125428"><ele>138.5</ele><time>2026-03-28T16:54:32.985Z</time></trkpt><trkpt lat="45.434142963237804" lon="8.666832180144109"><ele>138.0</ele><time>2026-03-28T16:54:33.985Z</time></trkpt><trkpt lat="45.434384856150444" lon="8.667053904552407"><ele>138.0</ele><time>2026-03-28T16:54:34.985Z</time></trkpt><trkpt lat="45.43463369287675" lon="8.667262404402436"><ele>138.0</ele><time>2026-03-28T16:54:35.985Z</time></trkpt><trkpt lat="45.43488600149096" lon="8.667457988496086"><ele>138.0</ele><time>2026-03-28T16:54:36.985Z</time></trkpt><trkpt lat="45.43514638400266" lon="8.667640671619914"><ele>138.0</ele><time>2026-03-28T16:54:37.985Z</time></trkpt><trkpt lat="45.43540741515937" lon="8.667817914970138"><ele>139.5</ele><time>2026-03-28T16:54:38.985Z</time></trkpt><trkpt lat="45.43566801964796" lon="8.667981024355687"><ele>141.0</ele><time>2026-03-28T16:54:39.985Z</time></trkpt><trkpt lat="45.435929780944875" lon="8.668132306541935"><ele>141.0</ele><time>2026-03-28T16:54:40.985Z</time></trkpt><trkpt lat="45.436189275245816" lon="8.668272914658012"><ele>141.0</ele><time>2026-03-28T16:54:41.985Z</time></trkpt><trkpt lat="45.436444681900326" lon="8.668397869473052"><ele>141.0</ele><time>2026-03-28T16:54:42.985Z</time></trkpt><trkpt lat="45.43669893647538" lon="8.668510566505109"><ele>141.0</ele><time>2026-03-28T16:54:43.985Z</time></trkpt><trkpt lat="45.43695087327384" lon="8.668603066193404"><ele>140.5</ele><time>2026-03-28T16:54:44.985Z</time></trkpt><trkpt lat="45.43720335393375" lon="8.66868201455444"><ele>140.0</ele><time>2026-03-28T16:54:45.985Z</time></trkpt><trkpt lat="45.43745723563882" lon="8.668743244066427"><ele>140.0</ele><time>2026-03-28T16:54:46.985Z</time></trkpt><trkpt lat="45.437714331013815" lon="8.66879335924436"><ele>140.0</ele><time>2026-03-28T16:54:47.985Z</time></trkpt><trkpt lat="45.437972516448205" lon="8.668836834736073"><ele>140.0</ele><time>2026-03-28T16:54:48.985Z</time></trkpt><trkpt lat="45.43823265364625" lon="8.668868965048397"><ele>140.0</ele><time>2026-03-28T16:54:49.985Z</time></trkpt><trkpt lat="45.43849537450894" lon="8.668893999295205"><ele>140.0</ele><time>2026-03-28T16:54:50.985Z</time></trkpt><trkpt lat="45.438758179278146" lon="8.668909729681905"><ele>140.0</ele><time>2026-03-28T16:54:51.985Z</time></trkpt><trkpt lat="45.4390184379431" lon="8.668910085180222"><ele>140.5</ele><time>2026-03-28T16:54:52.985Z</time></trkpt><trkpt lat="45.43928148781586" lon="8.668900424810564"><ele>141.0</ele><time>2026-03-28T16:54:53.985Z</time></trkpt><trkpt lat="45.439547002198566" lon="8.668877734715362"><ele>142.0</ele><time>2026-03-28T16:54:54.985Z</time></trkpt><trkpt lat="45.439813944764346" lon="8.668846438714255"><ele>143.0</ele><time>2026-03-28T16:54:55.985Z</time></trkpt><trkpt lat="45.44008100059187" lon="8.66880122569018"><ele>143.0</ele><time>2026-03-28T16:54:56.985Z</time></trkpt><trkpt lat="45.44034604717526" lon="8.668747157025523"><ele>143.0</ele><time>2026-03-28T16:54:57.985Z</time></trkpt><trkpt lat="45.440611277227624" lon="8.668689251012118"><ele>143.5</ele><time>2026-03-28T16:54:58.985Z</time></trkpt><trkpt lat="45.44087715436907" lon="8.668632835856886"><ele>144.0</ele><time>2026-03-28T16:54:59.985Z</time></trkpt><trkpt lat="45.44114646020324" lon="8.66857717027665"><ele>144.0</ele><time>2026-03-28T16:55:00.985Z</time></trkpt><trkpt lat="45.44141385007108" lon="8.668520992172795"><ele>144.0</ele><time>2026-03-28T16:55:01.985Z</time></trkpt><trkpt lat="45.44167989042255" lon="8.668460567699963"><ele>144.0</ele><time>2026-03-28T16:55:02.985Z</time></trkpt><trkpt lat="45.44194352168506" lon="8.668401266488628"><ele>144.0</ele><time>2026-03-28T16:55:03.985Z</time></trkpt><trkpt lat="45.442210512531624" lon="8.668341874463264"><ele>144.5</ele><time>2026-03-28T16:55:04.985Z</time></trkpt><trkpt lat="45.44247936058112" lon="8.66828521766967"><ele>145.0</ele><time>2026-03-28T16:55:05.985Z</time></trkpt><trkpt lat="45.44274848822327" lon="8.668233806550278"><ele>143.5</ele><time>2026-03-28T16:55:06.985Z</time></trkpt><trkpt lat="45.44301893371577" lon="8.668179743009068"><ele>142.0</ele><time>2026-03-28T16:55:07.985Z</time></trkpt><trkpt lat="45.4432885683642" lon="8.668119640934277"><ele>142.0</ele><time>2026-03-28T16:55:08.985Z</time></trkpt><trkpt lat="45.443558633509674" lon="8.668061748840039"><ele>142.0</ele><time>2026-03-28T16:55:09.985Z</time></trkpt><trkpt lat="45.44382647214185" lon="8.668006521268286"><ele>141.0</ele><time>2026-03-28T16:55:10.985Z</time></trkpt><trkpt lat="45.44409371072463" lon="8.66795317227978"><ele>140.0</ele><time>2026-03-28T16:55:11.985Z</time></trkpt><trkpt lat="45.444358810541765" lon="8.667899960472058"><ele>140.0</ele><time>2026-03-28T16:55:12.985Z</time></trkpt><trkpt lat="45.44462050346161" lon="8.667847026178697"><ele>140.0</ele><time>2026-03-28T16:55:13.985Z</time></trkpt><trkpt lat="45.44488526501187" lon="8.667788017059019"><ele>140.5</ele><time>2026-03-28T16:55:14.985Z</time></trkpt><trkpt lat="45.44515025522073" lon="8.667728348640454"><ele>141.0</ele><time>2026-03-28T16:55:15.985Z</time></trkpt><trkpt lat="45.44541423042586" lon="8.667675085385518"><ele>141.0</ele><time>2026-03-28T16:55:16.985Z</time></trkpt><trkpt lat="45.44567705949649" lon="8.667620533417779"><ele>141.0</ele><time>2026-03-28T16:55:17.985Z</time></trkpt><trkpt lat="45.445939154861094" lon="8.667568193765486"><ele>141.0</ele><time>2026-03-28T16:55:18.985Z</time></trkpt><trkpt lat="45.44620168348009" lon="8.667510760090012"><ele>141.0</ele><time>2026-03-28T16:55:19.985Z</time></trkpt><trkpt lat="45.446462721372974" lon="8.667457322865985"><ele>141.5</ele><time>2026-03-28T16:55:20.985Z</time></trkpt><trkpt lat="45.44672569327551" lon="8.667401538683752"><ele>142.0</ele><time>2026-03-28T16:55:21.985Z</time></trkpt><trkpt lat="45.446990089159954" lon="8.667345327685187"><ele>141.0</ele><time>2026-03-28T16:55:22.985Z</time></trkpt><trkpt lat="45.447252580680164" lon="8.667286824338408"><ele>140.0</ele><time>2026-03-28T16:55:23.985Z</time></trkpt><trkpt lat="45.44751876007719" lon="8.667231272663654"><ele>140.0</ele><time>2026-03-28T16:55:24.985Z</time></trkpt><trkpt lat="45.447786630500225" lon="8.667173352082708"><ele>140.0</ele><time>2026-03-28T16:55:25.985Z</time></trkpt><trkpt lat="45.44805505060557" lon="8.667116474152749"><ele>140.5</ele><time>2026-03-28T16:55:26.985Z</time></trkpt><trkpt lat="45.448325244387405" lon="8.667066510263965"><ele>141.0</ele><time>2026-03-28T16:55:27.985Z</time></trkpt><trkpt lat="45.448595472858756" lon="8.66702008133634"><ele>141.5</ele><time>2026-03-28T16:55:28.985Z</time></trkpt><trkpt lat="45.44886448086739" lon="8.666970251046713"><ele>142.0</ele><time>2026-03-28T16:55:29.986Z</time></trkpt><trkpt lat="45.44913391393699" lon="8.666920238710789"><ele>142.0</ele><time>2026-03-28T16:55:30.986Z</time></trkpt><trkpt lat="45.44940244310031" lon="8.666865652061157"><ele>142.0</ele><time>2026-03-28T16:55:31.986Z</time></trkpt><trkpt lat="45.449671113554885" lon="8.666817723946862"><ele>141.0</ele><time>2026-03-28T16:55:32.986Z</time></trkpt><trkpt lat="45.449939148366234" lon="8.666764055334724"><ele>140.0</ele><time>2026-03-28T16:55:33.986Z</time></trkpt><trkpt lat="45.45020774970744" lon="8.666713242920723"><ele>140.5</ele><time>2026-03-28T16:55:34.986Z</time></trkpt><trkpt lat="45.45047508283355" lon="8.666662164982395"><ele>141.0</ele><time>2026-03-28T16:55:35.986Z</time></trkpt><trkpt lat="45.450741423239876" lon="8.666599534589032"><ele>141.0</ele><time>2026-03-28T16:55:36.986Z</time></trkpt><trkpt lat="45.45100837507294" lon="8.666532837765404"><ele>141.0</ele><time>2026-03-28T16:55:37.986Z</time></trkpt><trkpt lat="45.4512759614745" lon="8.666458613787585"><ele>141.5</ele><time>2026-03-28T16:55:38.986Z</time></trkpt><trkpt lat="45.45154595264323" lon="8.666377574505809"><ele>142.0</ele><time>2026-03-28T16:55:39.986Z</time></trkpt><trkpt lat="45.45181260147327" lon="8.666285894950326"><ele>142.0</ele><time>2026-03-28T16:55:40.986Z</time></trkpt><trkpt lat="45.45208019792104" lon="8.66618776872991"><ele>142.0</ele><time>2026-03-28T16:55:41.986Z</time></trkpt><trkpt lat="45.45234538692481" lon="8.666085299731941"><ele>143.0</ele><time>2026-03-28T16:55:42.986Z</time></trkpt><trkpt lat="45.452609769314506" lon="8.665977702008464"><ele>144.0</ele><time>2026-03-28T16:55:43.986Z</time></trkpt><trkpt lat="45.45286248709279" lon="8.665843171800963"><ele>144.5</ele><time>2026-03-28T16:55:44.986Z</time></trkpt><trkpt lat="45.45311943532614" lon="8.665707059188856"><ele>145.0</ele><time>2026-03-28T16:55:45.986Z</time></trkpt><trkpt lat="45.453373054564835" lon="8.665568174478897"><ele>145.0</ele><time>2026-03-28T16:55:46.986Z</time></trkpt><trkpt lat="45.453628796917066" lon="8.665423585089485"><ele>145.0</ele><time>2026-03-28T16:55:47.986Z</time></trkpt><trkpt lat="45.45387603519138" lon="8.665267251552773"><ele>145.5</ele><time>2026-03-28T16:55:48.986Z</time></trkpt><trkpt lat="45.4541242157483" lon="8.665110101631864"><ele>146.0</ele><time>2026-03-28T16:55:49.986Z</time></trkpt><trkpt lat="45.45436860859028" lon="8.664942293152944"><ele>146.0</ele><time>2026-03-28T16:55:50.986Z</time></trkpt><trkpt lat="45.45461209117032" lon="8.664774458729816"><ele>146.0</ele><time>2026-03-28T16:55:51.986Z</time></trkpt><trkpt lat="45.454851390360794" lon="8.664601586265903"><ele>146.5</ele><time>2026-03-28T16:55:52.986Z</time></trkpt><trkpt lat="45.455088202295116" lon="8.664423107908824"><ele>147.0</ele><time>2026-03-28T16:55:53.986Z</time></trkpt><trkpt lat="45.45532303022941" lon="8.664239364021903"><ele>146.5</ele><time>2026-03-28T16:55:54.986Z</time></trkpt><trkpt lat="45.455557458068334" lon="8.664056203935905"><ele>146.0</ele><time>2026-03-28T16:55:55.986Z</time></trkpt><trkpt lat="45.45579486759421" lon="8.663882975485112"><ele>146.0</ele><time>2026-03-28T16:55:56.986Z</time></trkpt><trkpt lat="45.456028356591176" lon="8.663702226780542"><ele>146.0</ele><time>2026-03-28T16:55:57.986Z</time></trkpt><trkpt lat="45.456265596055076" lon="8.663521304173722"><ele>147.5</ele><time>2026-03-28T16:55:58.986Z</time></trkpt><trkpt lat="45.456497669914754" lon="8.663336642415146"><ele>149.0</ele><time>2026-03-28T16:55:59.986Z</time></trkpt><trkpt lat="45.45673194350193" lon="8.66315407400437"><ele>149.0</ele><time>2026-03-28T16:56:00.986Z</time></trkpt><trkpt lat="45.456963527007225" lon="8.662972633199955"><ele>149.0</ele><time>2026-03-28T16:56:01.986Z</time></trkpt><trkpt lat="45.45719617786225" lon="8.662789283470376"><ele>147.5</ele><time>2026-03-28T16:56:02.986Z</time></trkpt><trkpt lat="45.45742945119906" lon="8.662609782857583"><ele>146.0</ele><time>2026-03-28T16:56:03.986Z</time></trkpt><trkpt lat="45.4576670303602" lon="8.662425122018378"><ele>146.0</ele><time>2026-03-28T16:56:04.986Z</time></trkpt><trkpt lat="45.45790746311969" lon="8.662241537053411"><ele>146.0</ele><time>2026-03-28T16:56:05.986Z</time></trkpt><trkpt lat="45.4581479363125" lon="8.662053044477073"><ele>146.5</ele><time>2026-03-28T16:56:06.986Z</time></trkpt><trkpt lat="45.45838911386913" lon="8.661864201456376"><ele>147.0</ele><time>2026-03-28T16:56:07.986Z</time></trkpt><trkpt lat="45.458632761617366" lon="8.661677078122207"><ele>147.0</ele><time>2026-03-28T16:56:08.986Z</time></trkpt><trkpt lat="45.4588759794666" lon="8.661492543380735"><ele>147.0</ele><time>2026-03-28T16:56:09.986Z</time></trkpt><trkpt lat="45.45912153739134" lon="8.661312661974351"><ele>147.0</ele><time>2026-03-28T16:56:10.986Z</time></trkpt><trkpt lat="45.45936351457613" lon="8.661135615668885"><ele>147.0</ele><time>2026-03-28T16:56:11.986Z</time></trkpt><trkpt lat="45.45960313409518" lon="8.660957132325978"><ele>145.5</ele><time>2026-03-28T16:56:12.986Z</time></trkpt><trkpt lat="45.459838273194386" lon="8.660781122927588"><ele>144.0</ele><time>2026-03-28T16:56:13.986Z</time></trkpt><trkpt lat="45.46007326991096" lon="8.660611720843221"><ele>144.0</ele><time>2026-03-28T16:56:14.985Z</time></trkpt><trkpt lat="45.46030130793799" lon="8.66043594153276"><ele>144.0</ele><time>2026-03-28T16:56:15.984Z</time></trkpt><trkpt lat="45.46052405506391" lon="8.660258164749395"><ele>144.5</ele><time>2026-03-28T16:56:16.984Z</time></trkpt><trkpt lat="45.46074606927851" lon="8.660081454720167"><ele>145.0</ele><time>2026-03-28T16:56:17.984Z</time></trkpt><trkpt lat="45.46096612617104" lon="8.659908167221436"><ele>145.0</ele><time>2026-03-28T16:56:18.984Z</time></trkpt><trkpt lat="45.46118521929282" lon="8.659738001176997"><ele>145.0</ele><time>2026-03-28T16:56:19.984Z</time></trkpt><trkpt lat="45.46140500737159" lon="8.659571519210575"><ele>145.5</ele><time>2026-03-28T16:56:20.985Z</time></trkpt><trkpt lat="45.46161949737675" lon="8.659409346456346"><ele>146.0</ele><time>2026-03-28T16:56:21.985Z</time></trkpt><trkpt lat="45.46182466842992" lon="8.659253527042294"><ele>146.0</ele><time>2026-03-28T16:56:22.985Z</time></trkpt><trkpt lat="45.46202408090503" lon="8.659109445887818"><ele>146.0</ele><time>2026-03-28T16:56:23.985Z</time></trkpt><trkpt lat="45.46221527889386" lon="8.658959684479887"><ele>146.0</ele><time>2026-03-28T16:56:24.985Z</time></trkpt><trkpt lat="45.46240232320097" lon="8.658815242992794"><ele>146.0</ele><time>2026-03-28T16:56:25.985Z</time></trkpt><trkpt lat="45.4625875130931" lon="8.658680081866379"><ele>146.0</ele><time>2026-03-28T16:56:26.985Z</time></trkpt><trkpt lat="45.462767982820765" lon="8.658558724499388"><ele>146.0</ele><time>2026-03-28T16:56:27.985Z</time></trkpt><trkpt lat="45.46294810058666" lon="8.658446656972526"><ele>147.33333333333331</ele><time>2026-03-28T16:56:28.985Z</time></trkpt><trkpt lat="45.46311185757139" lon="8.65832793099876"><ele>148.66666666666666</ele><time>2026-03-28T16:56:29.985Z</time></trkpt><trkpt lat="45.46325423304944" lon="8.658210920298444"><ele>150.0</ele><time>2026-03-28T16:56:30.985Z</time></trkpt><trkpt lat="45.46339205205307" lon="8.658110820740374"><ele>150.0</ele><time>2026-03-28T16:56:31.985Z</time></trkpt><trkpt lat="45.46352472325284" lon="8.658020847128068"><ele>150.0</ele><time>2026-03-28T16:56:32.985Z</time></trkpt><trkpt lat="45.46365054264977" lon="8.657936764485706"><ele>150.0</ele><time>2026-03-28T16:56:33.985Z</time></trkpt><trkpt lat="45.463766523797624" lon="8.65786093569256"><ele>150.0</ele><time>2026-03-28T16:56:34.985Z</time></trkpt><trkpt lat="45.463875682216184" lon="8.657789739090731"><ele>150.25</ele><time>2026-03-28T16:56:35.985Z</time></trkpt><trkpt lat="45.4639851405586" lon="8.657731508472853"><ele>150.5</ele><time>2026-03-28T16:56:36.985Z</time></trkpt><trkpt lat="45.46409109500651" lon="8.657670830092368"><ele>150.75</ele><time>2026-03-28T16:56:37.985Z</time></trkpt><trkpt lat="45.464204833958576" lon="8.657616425040638"><ele>151.0</ele><time>2026-03-28T16:56:38.985Z</time></trkpt><trkpt lat="45.464314616102975" lon="8.657564116852509"><ele>151.0</ele><time>2026-03-28T16:56:39.985Z</time></trkpt><trkpt lat="45.4644230139749" lon="8.657510311572654"><ele>151.0</ele><time>2026-03-28T16:56:40.985Z</time></trkpt><trkpt lat="45.464534000451" lon="8.657452637194547"><ele>151.0</ele><time>2026-03-28T16:56:41.985Z</time></trkpt><trkpt lat="45.464644503828396" lon="8.65739235557806"><ele>151.0</ele><time>2026-03-28T16:56:42.985Z</time></trkpt><trkpt lat="45.46476220389913" lon="8.657330554481343"><ele>151.0</ele><time>2026-03-28T16:56:43.985Z</time></trkpt><trkpt lat="45.46488413680999" lon="8.657265024760465"><ele>151.0</ele><time>2026-03-28T16:56:44.985Z</time></trkpt><trkpt lat="45.46500677440969" lon="8.657204531404094"><ele>151.0</ele><time>2026-03-28T16:56:45.985Z</time></trkpt><trkpt lat="45.465131923209285" lon="8.657155709805082"><ele>151.0</ele><time>2026-03-28T16:56:46.985Z</time></trkpt><trkpt lat="45.465263427875314" lon="8.657130340292879"><ele>151.0</ele><time>2026-03-28T16:56:47.985Z</time></trkpt><trkpt lat="45.465397762475284" lon="8.657161688163718"><ele>151.0</ele><time>2026-03-28T16:56:48.985Z</time></trkpt><trkpt lat="45.46552088707601" lon="8.657241139153518"><ele>151.0</ele><time>2026-03-28T16:56:49.985Z</time></trkpt><trkpt lat="45.465621322286324" lon="8.65736242289905"><ele>151.0</ele><time>2026-03-28T16:56:50.985Z</time></trkpt><trkpt lat="45.46570569683903" lon="8.657510818224438"><ele>150.75</ele><time>2026-03-28T16:56:51.985Z</time></trkpt><trkpt lat="45.46576373101978" lon="8.657694089898419"><ele>150.5</ele><time>2026-03-28T16:56:52.985Z</time></trkpt><trkpt lat="45.4657931550938" lon="8.657902658707307"><ele>150.25</ele><time>2026-03-28T16:56:53.985Z</time></trkpt><trkpt lat="45.465809103155976" lon="8.658126313377648"><ele>150.0</ele><time>2026-03-28T16:56:54.985Z</time></trkpt><trkpt lat="45.46583134128372" lon="8.65836572025217"><ele>149.66666666666666</ele><time>2026-03-28T16:56:55.985Z</time></trkpt><trkpt lat="45.46585758840612" lon="8.658602439570059"><ele>149.33333333333331</ele><time>2026-03-28T16:56:56.985Z</time></trkpt><trkpt lat="45.465893321954624" lon="8.658856225158381"><ele>149.0</ele><time>2026-03-28T16:56:57.985Z</time></trkpt><trkpt lat="45.46593807901286" lon="8.659123772769524"><ele>149.0</ele><time>2026-03-28T16:56:58.985Z</time></trkpt><trkpt lat="45.46598704556229" lon="8.659407581616408"><ele>149.0</ele><time>2026-03-28T16:56:59.985Z</time></trkpt><trkpt lat="45.466032635442936" lon="8.659704939138647"><ele>149.0</ele><time>2026-03-28T16:57:00.985Z</time></trkpt><trkpt lat="45.46607379946513" lon="8.660000207926629"><ele>148.33333333333331</ele><time>2026-03-28T16:57:01.985Z</time></trkpt><trkpt lat="45.46611769724628" lon="8.660302933328426"><ele>147.66666666666666</ele><time>2026-03-28T16:57:02.985Z</time></trkpt><trkpt lat="45.46616537994199" lon="8.660620538352738"><ele>147.0</ele><time>2026-03-28T16:57:03.985Z</time></trkpt><trkpt lat="45.46621449576051" lon="8.660946065773192"><ele>147.0</ele><time>2026-03-28T16:57:04.985Z</time></trkpt><trkpt lat="45.46626564843141" lon="8.661279330138413"><ele>147.0</ele><time>2026-03-28T16:57:05.985Z</time></trkpt><trkpt lat="45.46631800790808" lon="8.661620963913396"><ele>147.5</ele><time>2026-03-28T16:57:06.985Z</time></trkpt><trkpt lat="45.466370874499496" lon="8.661967703028763"><ele>148.0</ele><time>2026-03-28T16:57:07.985Z</time></trkpt><trkpt lat="45.46641818103471" lon="8.662320643488753"><ele>148.0</ele><time>2026-03-28T16:57:08.985Z</time></trkpt><trkpt lat="45.46646288602856" lon="8.662673296786501"><ele>148.0</ele><time>2026-03-28T16:57:09.985Z</time></trkpt><trkpt lat="45.46651091368624" lon="8.663020902194905"><ele>148.0</ele><time>2026-03-28T16:57:10.985Z</time></trkpt><trkpt lat="45.466559685762206" lon="8.663361382141195"><ele>148.0</ele><time>2026-03-28T16:57:11.985Z</time></trkpt><trkpt lat="45.46660362628004" lon="8.663700964100755"><ele>147.5</ele><time>2026-03-28T16:57:12.985Z</time></trkpt><trkpt lat="45.466628640003684" lon="8.664043252914123"><ele>147.0</ele><time>2026-03-28T16:57:13.985Z</time></trkpt><trkpt lat="45.466627978344725" lon="8.66437978073331"><ele>148.5</ele><time>2026-03-28T16:57:14.985Z</time></trkpt><trkpt lat="45.46660517534323" lon="8.664713910897948"><ele>150.0</ele><time>2026-03-28T16:57:15.985Z</time></trkpt><trkpt lat="45.4665614264736" lon="8.665044874537791"><ele>151.0</ele><time>2026-03-28T16:57:16.985Z</time></trkpt><trkpt lat="45.46650020324642" lon="8.665371541889387"><ele>152.0</ele><time>2026-03-28T16:57:17.985Z</time></trkpt><trkpt lat="45.46642064186713" lon="8.665682213866251"><ele>152.0</ele><time>2026-03-28T16:57:18.985Z</time></trkpt><trkpt lat="45.466323000427145" lon="8.665982077351286"><ele>152.0</ele><time>2026-03-28T16:57:19.985Z</time></trkpt><trkpt lat="45.466208480382384" lon="8.666268018895247"><ele>149.5</ele><time>2026-03-28T16:57:20.985Z</time></trkpt><trkpt lat="45.4660796456824" lon="8.666536885793889"><ele>147.0</ele><time>2026-03-28T16:57:21.985Z</time></trkpt><trkpt lat="45.465935323226866" lon="8.666792503339384"><ele>146.5</ele><time>2026-03-28T16:57:22.985Z</time></trkpt><trkpt lat="45.46578291663825" lon="8.667047817835751"><ele>146.0</ele><time>2026-03-28T16:57:23.985Z</time></trkpt><trkpt lat="45.465635503220334" lon="8.667311322930502"><ele>146.0</ele><time>2026-03-28T16:57:24.985Z</time></trkpt><trkpt lat="45.46548941121718" lon="8.667579571129131"><ele>146.0</ele><time>2026-03-28T16:57:25.985Z</time></trkpt><trkpt lat="45.4653478507336" lon="8.667857433338039"><ele>146.0</ele><time>2026-03-28T16:57:26.985Z</time></trkpt><trkpt lat="45.465228769530974" lon="8.668150859501637"><ele>146.0</ele><time>2026-03-28T16:57:27.985Z</time></trkpt><trkpt lat="45.465129888721435" lon="8.66846374300111"><ele>146.5</ele><time>2026-03-28T16:57:28.985Z</time></trkpt><trkpt lat="45.465046351389496" lon="8.668790908490767"><ele>147.0</ele><time>2026-03-28T16:57:29.985Z</time></trkpt><trkpt lat="45.46497792477539" lon="8.669125087089348"><ele>146.5</ele><time>2026-03-28T16:57:30.986Z</time></trkpt><trkpt lat="45.46493276148001" lon="8.66947082588222"><ele>146.0</ele><time>2026-03-28T16:57:31.986Z</time></trkpt><trkpt lat="45.46490901023714" lon="8.669822173822075"><ele>146.0</ele><time>2026-03-28T16:57:32.986Z</time></trkpt><trkpt lat="45.464904429292325" lon="8.670173059691361"><ele>146.0</ele><time>2026-03-28T16:57:33.986Z</time></trkpt><trkpt lat="45.464924776417156" lon="8.670526219691741"><ele>145.5</ele><time>2026-03-28T16:57:34.986Z</time></trkpt><trkpt lat="45.464969163268094" lon="8.670866912459763"><ele>145.0</ele><time>2026-03-28T16:57:35.986Z</time></trkpt><trkpt lat="45.46503244905653" lon="8.671187082545885"><ele>145.66666666666669</ele><time>2026-03-28T16:57:36.986Z</time></trkpt><trkpt lat="45.465107068165345" lon="8.671484455779028"><ele>146.33333333333334</ele><time>2026-03-28T16:57:37.986Z</time></trkpt><trkpt lat="45.465181198239215" lon="8.67177254099054"><ele>147.0</ele><time>2026-03-28T16:57:38.986Z</time></trkpt><trkpt lat="45.46525223925132" lon="8.67205164098451"><ele>147.0</ele><time>2026-03-28T16:57:39.986Z</time></trkpt><trkpt lat="45.46531917462895" lon="8.672322366106972"><ele>147.0</ele><time>2026-03-28T16:57:40.986Z</time></trkpt><trkpt lat="45.46538068624712" lon="8.672579088945348"><ele>147.0</ele><time>2026-03-28T16:57:41.986Z</time></trkpt><trkpt lat="45.46543630898071" lon="8.67281731497024"><ele>147.0</ele><time>2026-03-28T16:57:42.986Z</time></trkpt><trkpt lat="45.46548713835656" lon="8.673035021819349"><ele>147.0</ele><time>2026-03-28T16:57:43.986Z</time></trkpt><trkpt lat="45.465528217049815" lon="8.67321950971802"><ele>147.0</ele><time>2026-03-28T16:57:44.986Z</time></trkpt><trkpt lat="45.465561691607945" lon="8.673390601790471"><ele>147.0</ele><time>2026-03-28T16:57:45.986Z</time></trkpt><trkpt lat="45.46559220840721" lon="8.67355670379721"><ele>147.25</ele><time>2026-03-28T16:57:46.986Z</time></trkpt><trkpt lat="45.4656217310858" lon="8.673743621218335"><ele>147.5</ele><time>2026-03-28T16:57:47.986Z</time></trkpt><trkpt lat="45.46565485118801" lon="8.673948477477808"><ele>147.75</ele><time>2026-03-28T16:57:48.986Z</time></trkpt><trkpt lat="45.465686721735985" lon="8.67417449254216"><ele>148.0</ele><time>2026-03-28T16:57:49.986Z</time></trkpt><trkpt lat="45.465717455930616" lon="8.674413223108672"><ele>148.0</ele><time>2026-03-28T16:57:50.986Z</time></trkpt><trkpt lat="45.46574489789762" lon="8.674666585674107"><ele>148.0</ele><time>2026-03-28T16:57:51.986Z</time></trkpt><trkpt lat="45.46577135311051" lon="8.674933381602187"><ele>148.0</ele><time>2026-03-28T16:57:52.986Z</time></trkpt><trkpt lat="45.465795894121506" lon="8.675207699805968"><ele>147.66666666666669</ele><time>2026-03-28T16:57:53.986Z</time></trkpt><trkpt lat="45.465816147131534" lon="8.675472177073997"><ele>147.33333333333334</ele><time>2026-03-28T16:57:54.986Z</time></trkpt><trkpt lat="45.46583072745526" lon="8.675750159855493"><ele>147.0</ele><time>2026-03-28T16:57:55.986Z</time></trkpt><trkpt lat="45.46584004015211" lon="8.676039673905342"><ele>147.0</ele><time>2026-03-28T16:57:56.986Z</time></trkpt><trkpt lat="45.46584575733789" lon="8.676338927432656"><ele>147.0</ele><time>2026-03-28T16:57:57.986Z</time></trkpt><trkpt lat="45.46585309039101" lon="8.6766471921167"><ele>147.0</ele><time>2026-03-28T16:57:58.986Z</time></trkpt><trkpt lat="45.46585592582128" lon="8.676943035788748"><ele>147.0</ele><time>2026-03-28T16:57:59.986Z</time></trkpt><trkpt lat="45.46586305366471" lon="8.677227847168597"><ele>147.0</ele><time>2026-03-28T16:58:00.986Z</time></trkpt><trkpt lat="45.46587136520956" lon="8.677520891589412"><ele>147.0</ele><time>2026-03-28T16:58:01.986Z</time></trkpt><trkpt lat="45.4658827160999" lon="8.677822248353333"><ele>147.0</ele><time>2026-03-28T16:58:02.986Z</time></trkpt><trkpt lat="45.46589109751989" lon="8.678131389353467"><ele>147.0</ele><time>2026-03-28T16:58:03.986Z</time></trkpt><trkpt lat="45.46590082977271" lon="8.67844360566428"><ele>147.0</ele><time>2026-03-28T16:58:04.986Z</time></trkpt><trkpt lat="45.46591067568943" lon="8.678764352549942"><ele>146.5</ele><time>2026-03-28T16:58:05.986Z</time></trkpt><trkpt lat="45.465919610156" lon="8.679087208313852"><ele>146.0</ele><time>2026-03-28T16:58:06.986Z</time></trkpt><trkpt lat="45.46592880325364" lon="8.679405956714916"><ele>146.0</ele><time>2026-03-28T16:58:07.986Z</time></trkpt><trkpt lat="45.46594032043377" lon="8.6797131181489"><ele>146.0</ele><time>2026-03-28T16:58:08.986Z</time></trkpt><trkpt lat="45.46594980506542" lon="8.680010614875819"><ele>146.0</ele><time>2026-03-28T16:58:09.986Z</time></trkpt><trkpt lat="45.46595685716422" lon="8.68029481894812"><ele>146.33333333333331</ele><time>2026-03-28T16:58:10.986Z</time></trkpt><trkpt lat="45.46596737575867" lon="8.68056084559682"><ele>146.66666666666666</ele><time>2026-03-28T16:58:11.986Z</time></trkpt><trkpt lat="45.46597982649195" lon="8.680796864618403"><ele>147.0</ele><time>2026-03-28T16:58:12.986Z</time></trkpt><trkpt lat="45.46599396818262" lon="8.680994428494627"><ele>147.2</ele><time>2026-03-28T16:58:13.986Z</time></trkpt><trkpt lat="45.466002639643825" lon="8.681161764241777"><ele>147.39999999999998</ele><time>2026-03-28T16:58:14.986Z</time></trkpt><trkpt lat="45.466008716013654" lon="8.68130605915406"><ele>147.60000000000002</ele><time>2026-03-28T16:58:15.986Z</time></trkpt><trkpt lat="45.46600947609384" lon="8.68142939652636"><ele>147.8</ele><time>2026-03-28T16:58:16.986Z</time></trkpt><trkpt lat="45.46600556019247" lon="8.681524573395256"><ele>148.0</ele><time>2026-03-28T16:58:17.986Z</time></trkpt><trkpt lat="45.46598181782957" lon="8.681676593705985"><ele>148.0</ele><time>2026-03-28T16:58:19.986Z</time></trkpt><trkpt lat="45.46593446329445" lon="8.681804203023308"><ele>148.0</ele><time>2026-03-28T16:58:21.984Z</time></trkpt><trkpt lat="45.46587073895611" lon="8.681909600925517"><ele>148.0</ele><time>2026-03-28T16:58:23.985Z</time></trkpt><trkpt lat="45.46582606144162" lon="8.681978014348717"><ele>148.0</ele><time>2026-03-28T16:58:24.985Z</time></trkpt><trkpt lat="45.465778321711475" lon="8.682060100434487"><ele>148.0</ele><time>2026-03-28T16:58:25.985Z</time></trkpt><trkpt lat="45.465737582653865" lon="8.682147793714536"><ele>148.0</ele><time>2026-03-28T16:58:26.984Z</time></trkpt><trkpt lat="45.46570582276344" lon="8.682268709508822"><ele>147.75</ele><time>2026-03-28T16:58:27.984Z</time></trkpt><trkpt lat="45.46568435559365" lon="8.682415877369946"><ele>147.5</ele><time>2026-03-28T16:58:28.984Z</time></trkpt><trkpt lat="45.46567725690698" lon="8.6825779455384"><ele>147.25</ele><time>2026-03-28T16:58:29.985Z</time></trkpt><trkpt lat="45.46568673080012" lon="8.682737661651405"><ele>147.0</ele><time>2026-03-28T16:58:30.984Z</time></trkpt><trkpt lat="45.465717010271455" lon="8.68291371283415"><ele>147.0</ele><time>2026-03-28T16:58:31.984Z</time></trkpt><trkpt lat="45.46575738508783" lon="8.68309465410571"><ele>147.0</ele><time>2026-03-28T16:58:32.984Z</time></trkpt><trkpt lat="45.46581398799674" lon="8.683268239359489"><ele>147.0</ele><time>2026-03-28T16:58:33.985Z</time></trkpt><trkpt lat="45.46588550064368" lon="8.683408701044485"><ele>147.0</ele><time>2026-03-28T16:58:34.985Z</time></trkpt><trkpt lat="45.46597213261864" lon="8.683524683932966"><ele>147.0</ele><time>2026-03-28T16:58:35.985Z</time></trkpt><trkpt lat="45.46607969275931" lon="8.683596187997248"><ele>147.0</ele><time>2026-03-28T16:58:36.985Z</time></trkpt><trkpt lat="45.466199953265736" lon="8.683626093559434"><ele>147.0</ele><time>2026-03-28T16:58:37.985Z</time></trkpt><trkpt lat="45.466329150326864" lon="8.68361413646247"><ele>147.0</ele><time>2026-03-28T16:58:38.985Z</time></trkpt><trkpt lat="45.46645047370598" lon="8.68355472379398"><ele>147.25</ele><time>2026-03-28T16:58:39.985Z</time></trkpt><trkpt lat="45.46657263975445" lon="8.683473680642404"><ele>147.5</ele><time>2026-03-28T16:58:40.985Z</time></trkpt><trkpt lat="45.46670255120267" lon="8.683416842218996"><ele>147.75</ele><time>2026-03-28T16:58:41.985Z</time></trkpt><trkpt lat="45.466828095493305" lon="8.683417324901345"><ele>148.0</ele><time>2026-03-28T16:58:42.985Z</time></trkpt><trkpt lat="45.46694665551846" lon="8.683471086883182"><ele>148.0</ele><time>2026-03-28T16:58:43.985Z</time></trkpt><trkpt lat="45.46706063984454" lon="8.68357027308033"><ele>148.0</ele><time>2026-03-28T16:58:44.985Z</time></trkpt><trkpt lat="45.467170498286464" lon="8.683695587614501"><ele>148.0</ele><time>2026-03-28T16:58:45.985Z</time></trkpt><trkpt lat="45.46728419618583" lon="8.683823359921698"><ele>148.0</ele><time>2026-03-28T16:58:46.985Z</time></trkpt><trkpt lat="45.46740642732519" lon="8.683944862593178"><ele>148.25</ele><time>2026-03-28T16:58:47.985Z</time></trkpt><trkpt lat="45.46752899979667" lon="8.684066588937808"><ele>148.5</ele><time>2026-03-28T16:58:48.985Z</time></trkpt><trkpt lat="45.46765276851101" lon="8.684185308895584"><ele>148.75</ele><time>2026-03-28T16:58:49.985Z</time></trkpt><trkpt lat="45.46777098034844" lon="8.684298419557848"><ele>149.0</ele><time>2026-03-28T16:58:50.985Z</time></trkpt><trkpt lat="45.46788493229376" lon="8.684405414668523"><ele>149.25</ele><time>2026-03-28T16:58:51.985Z</time></trkpt><trkpt lat="45.46799897405437" lon="8.684507825986126"><ele>149.5</ele><time>2026-03-28T16:58:52.985Z</time></trkpt><trkpt lat="45.468113061868245" lon="8.684613641874797"><ele>149.75</ele><time>2026-03-28T16:58:53.985Z</time></trkpt><trkpt lat="45.46822883014826" lon="8.684721228622108"><ele>150.0</ele><time>2026-03-28T16:58:54.985Z</time></trkpt><trkpt lat="45.46834218017687" lon="8.684835479738302"><ele>150.0</ele><time>2026-03-28T16:58:55.985Z</time></trkpt><trkpt lat="45.46845123413737" lon="8.684934884185246"><ele>150.0</ele><time>2026-03-28T16:58:56.985Z</time></trkpt><trkpt lat="45.46854427978639" lon="8.685014920424104"><ele>150.0</ele><time>2026-03-28T16:58:57.985Z</time></trkpt><trkpt lat="45.46862334169041" lon="8.685105664170116"><ele>150.0</ele><time>2026-03-28T16:58:58.985Z</time></trkpt><trkpt lat="45.46869840728158" lon="8.685186854408672"><ele>150.0</ele><time>2026-03-28T16:58:59.985Z</time></trkpt><trkpt lat="45.46876477450335" lon="8.685258291749822"><ele>149.5</ele><time>2026-03-28T16:59:00.985Z</time></trkpt><trkpt lat="45.468831458587395" lon="8.685325265377834"><ele>149.0</ele><time>2026-03-28T16:59:01.985Z</time></trkpt><trkpt lat="45.46889653797331" lon="8.685385890723389"><ele>148.5</ele><time>2026-03-28T16:59:02.985Z</time></trkpt><trkpt lat="45.46895410768249" lon="8.685435393794222"><ele>148.0</ele><time>2026-03-28T16:59:03.985Z</time></trkpt><trkpt lat="45.46902878998339" lon="8.685513844250533"><ele>147.5</ele><time>2026-03-28T16:59:05.985Z</time></trkpt><trkpt lat="45.469082241401566" lon="8.685579442520421"><ele>147.0</ele><time>2026-03-28T16:59:07.985Z</time></trkpt><trkpt lat="45.46913041911563" lon="8.68564543068521"><ele>147.0</ele><time>2026-03-28T16:59:09.985Z</time></trkpt><trkpt lat="45.4691604734942" lon="8.685732471565322"><ele>147.0</ele><time>2026-03-28T16:59:14.985Z</time></trkpt><trkpt lat="45.46920870336916" lon="8.685879686257762"><ele>147.0</ele><time>2026-03-28T16:59:16.985Z</time></trkpt><trkpt lat="45.46924366493896" lon="8.68595498502255"><ele>147.0</ele><time>2026-03-28T16:59:17.985Z</time></trkpt><trkpt lat="45.469302853416785" lon="8.686021144797857"><ele>147.0</ele><time>2026-03-28T16:59:18.985Z</time></trkpt><trkpt lat="45.4693771510719" lon="8.68606230536064"><ele>147.0</ele><time>2026-03-28T16:59:19.985Z</time></trkpt><trkpt lat="45.46946553362905" lon="8.68609008248924"><ele>147.0</ele><time>2026-03-28T16:59:20.985Z</time></trkpt><trkpt lat="45.46955885120465" lon="8.68612520922629"><ele>147.0</ele><time>2026-03-28T16:59:21.985Z</time></trkpt><trkpt lat="45.469651211859954" lon="8.686184513433444"><ele>147.0</ele><time>2026-03-28T16:59:22.985Z</time></trkpt><trkpt lat="45.46973425815234" lon="8.686260391813994"><ele>147.0</ele><time>2026-03-28T16:59:23.985Z</time></trkpt><trkpt lat="45.469823517147404" lon="8.686343823807732"><ele>147.0</ele><time>2026-03-28T16:59:24.985Z</time></trkpt><trkpt lat="45.46992359872734" lon="8.686437132939407"><ele>148.0</ele><time>2026-03-28T16:59:25.985Z</time></trkpt><trkpt lat="45.47002621256135" lon="8.686537067228171"><ele>149.0</ele><time>2026-03-28T16:59:26.985Z</time></trkpt><trkpt lat="45.47012039870351" lon="8.686636163432768"><ele>150.0</ele><time>2026-03-28T16:59:27.985Z</time></trkpt><trkpt lat="45.47021888685462" lon="8.686749497515558"><ele>151.0</ele><time>2026-03-28T16:59:28.985Z</time></trkpt><trkpt lat="45.470314481240635" lon="8.686866023249017"><ele>151.0</ele><time>2026-03-28T16:59:29.985Z</time></trkpt><trkpt lat="45.47040956938165" lon="8.686978054549442"><ele>151.0</ele><time>2026-03-28T16:59:30.985Z</time></trkpt><trkpt lat="45.47050645106523" lon="8.687092249234881"><ele>151.0</ele><time>2026-03-28T16:59:31.985Z</time></trkpt><trkpt lat="45.470608026366186" lon="8.687198827617618"><ele>151.0</ele><time>2026-03-28T16:59:32.985Z</time></trkpt><trkpt lat="45.470714183817975" lon="8.687304273077048"><ele>151.25</ele><time>2026-03-28T16:59:33.985Z</time></trkpt><trkpt lat="45.470822148266386" lon="8.687403615270217"><ele>151.5</ele><time>2026-03-28T16:59:34.985Z</time></trkpt><trkpt lat="45.4709225831316" lon="8.687501495168332"><ele>151.75</ele><time>2026-03-28T16:59:35.985Z</time></trkpt><trkpt lat="45.47102255682346" lon="8.687592933327938"><ele>152.0</ele><time>2026-03-28T16:59:36.985Z</time></trkpt><trkpt lat="45.47112835031536" lon="8.687687154373629"><ele>152.0</ele><time>2026-03-28T16:59:37.985Z</time></trkpt><trkpt lat="45.471237613266624" lon="8.687780160034317"><ele>152.0</ele><time>2026-03-28T16:59:38.985Z</time></trkpt><trkpt lat="45.47134413693543" lon="8.687881842724806"><ele>152.0</ele><time>2026-03-28T16:59:39.985Z</time></trkpt><trkpt lat="45.47144231442833" lon="8.687980035982912"><ele>152.0</ele><time>2026-03-28T16:59:40.985Z</time></trkpt><trkpt lat="45.471541168705755" lon="8.688068341069332"><ele>151.75</ele><time>2026-03-28T16:59:41.985Z</time></trkpt><trkpt lat="45.47163572841591" lon="8.688166641630513"><ele>151.5</ele><time>2026-03-28T16:59:42.985Z</time></trkpt><trkpt lat="45.47173209014553" lon="8.688266016324553"><ele>151.25</ele><time>2026-03-28T16:59:43.985Z</time></trkpt><trkpt lat="45.47183429636163" lon="8.688364322021089"><ele>151.0</ele><time>2026-03-28T16:59:44.985Z</time></trkpt><trkpt lat="45.47193895140195" lon="8.688463808142297"><ele>151.0</ele><time>2026-03-28T16:59:45.985Z</time></trkpt><trkpt lat="45.47204783291586" lon="8.68856290353155"><ele>151.0</ele><time>2026-03-28T16:59:46.985Z</time></trkpt><trkpt lat="45.472156699639335" lon="8.688666471987336"><ele>151.0</ele><time>2026-03-28T16:59:47.985Z</time></trkpt><trkpt lat="45.47226112367299" lon="8.68876563930634"><ele>151.0</ele><time>2026-03-28T16:59:48.985Z</time></trkpt><trkpt lat="45.472357879444864" lon="8.688869340094838"><ele>151.2</ele><time>2026-03-28T16:59:49.985Z</time></trkpt><trkpt lat="45.47245907189384" lon="8.688964533180796"><ele>151.39999999999998</ele><time>2026-03-28T16:59:50.985Z</time></trkpt><trkpt lat="45.47255635819784" lon="8.68905922455899"><ele>151.6</ele><time>2026-03-28T16:59:51.985Z</time></trkpt><trkpt lat="45.472646579290696" lon="8.689135048934507"><ele>151.79999999999998</ele><time>2026-03-28T16:59:52.985Z</time></trkpt><trkpt lat="45.47272431259864" lon="8.689208695252884"><ele>152.0</ele><time>2026-03-28T16:59:53.985Z</time></trkpt><trkpt lat="45.47279258227046" lon="8.689273772105071"><ele>152.0</ele><time>2026-03-28T16:59:54.985Z</time></trkpt><trkpt lat="45.47285244396061" lon="8.689334630775594"><ele>152.0</ele><time>2026-03-28T16:59:55.985Z</time></trkpt><trkpt lat="45.472906178075974" lon="8.689390788837532"><ele>152.0</ele><time>2026-03-28T16:59:56.985Z</time></trkpt><trkpt lat="45.472962195910114" lon="8.689446200134526"><ele>152.0</ele><time>2026-03-28T16:59:57.985Z</time></trkpt><trkpt lat="45.47301963584787" lon="8.68950065357489"><ele>152.0</ele><time>2026-03-28T16:59:58.986Z</time></trkpt><trkpt lat="45.47308497631027" lon="8.689564510308363"><ele>152.0</ele><time>2026-03-28T16:59:59.986Z</time></trkpt><trkpt lat="45.47316294716641" lon="8.689634699689934"><ele>152.0</ele><time>2026-03-28T17:00:00.986Z</time></trkpt><trkpt lat="45.4732506897415" lon="8.689717335045799"><ele>152.25</ele><time>2026-03-28T17:00:01.986Z</time></trkpt><trkpt lat="45.47334404645411" lon="8.689810792223746"><ele>152.5</ele><time>2026-03-28T17:00:02.986Z</time></trkpt><trkpt lat="45.47343223960668" lon="8.689904530880112"><ele>152.75</ele><time>2026-03-28T17:00:03.986Z</time></trkpt><trkpt lat="45.47352518834372" lon="8.690001628100246"><ele>153.0</ele><time>2026-03-28T17:00:04.986Z</time></trkpt><trkpt lat="45.47362641746904" lon="8.690097136479988"><ele>153.0</ele><time>2026-03-28T17:00:05.986Z</time></trkpt><trkpt lat="45.47372992068894" lon="8.690203159066956"><ele>153.0</ele><time>2026-03-28T17:00:06.986Z</time></trkpt><trkpt lat="45.473838587988965" lon="8.69032199649472"><ele>153.0</ele><time>2026-03-28T17:00:07.986Z</time></trkpt><trkpt lat="45.47395572498233" lon="8.690442313215645"><ele>153.0</ele><time>2026-03-28T17:00:08.986Z</time></trkpt><trkpt lat="45.47407266053496" lon="8.690560234980174"><ele>152.25</ele><time>2026-03-28T17:00:09.986Z</time></trkpt><trkpt lat="45.474182889399295" lon="8.690675709065909"><ele>151.5</ele><time>2026-03-28T17:00:10.986Z</time></trkpt><trkpt lat="45.47429653555973" lon="8.690794534556831"><ele>150.75</ele><time>2026-03-28T17:00:11.986Z</time></trkpt><trkpt lat="45.474410927139886" lon="8.690918786734075"><ele>150.0</ele><time>2026-03-28T17:00:12.986Z</time></trkpt><trkpt lat="45.474534392789586" lon="8.691039068003244"><ele>150.25</ele><time>2026-03-28T17:00:13.986Z</time></trkpt><trkpt lat="45.474661439118215" lon="8.691160507302278"><ele>150.5</ele><time>2026-03-28T17:00:14.986Z</time></trkpt><trkpt lat="45.4747785293125" lon="8.691283252036717"><ele>150.75</ele><time>2026-03-28T17:00:15.986Z</time></trkpt><trkpt lat="45.474894034762144" lon="8.691399515000851"><ele>151.0</ele><time>2026-03-28T17:00:16.986Z</time></trkpt><trkpt lat="45.47499454986583" lon="8.691517526743818"><ele>151.0</ele><time>2026-03-28T17:00:17.986Z</time></trkpt><trkpt lat="45.47509250947157" lon="8.691624726255638"><ele>151.0</ele><time>2026-03-28T17:00:18.986Z</time></trkpt><trkpt lat="45.475187605451445" lon="8.691718925415294"><ele>151.0</ele><time>2026-03-28T17:00:19.986Z</time></trkpt><trkpt lat="45.47527694551373" lon="8.691801934364841"><ele>151.0</ele><time>2026-03-28T17:00:20.986Z</time></trkpt><trkpt lat="45.4753562092189" lon="8.691874243680665"><ele>151.0</ele><time>2026-03-28T17:00:21.986Z</time></trkpt><trkpt lat="45.4754304485113" lon="8.69194461176853"><ele>151.42857142857144</ele><time>2026-03-28T17:00:22.986Z</time></trkpt><trkpt lat="45.47548719970982" lon="8.692016706971648"><ele>151.85714285714286</ele><time>2026-03-28T17:00:23.986Z</time></trkpt><trkpt lat="45.47553417282312" lon="8.692083254893323"><ele>152.28571428571428</ele><time>2026-03-28T17:00:24.986Z</time></trkpt><trkpt lat="45.47557309801767" lon="8.692196976232713"><ele>152.71428571428572</ele><time>2026-03-28T17:00:26.984Z</time></trkpt><trkpt lat="45.47555954592036" lon="8.692288069069882"><ele>153.14285714285714</ele><time>2026-03-28T17:00:29.985Z</time></trkpt><trkpt lat="45.475586208311086" lon="8.692372060019359"><ele>153.57142857142858</ele><time>2026-03-28T17:00:46.985Z</time></trkpt><trkpt lat="45.47563351462206" lon="8.6924551435045"><ele>154.0</ele><time>2026-03-28T17:00:57.985Z</time></trkpt><trkpt lat="45.47570831431564" lon="8.692485363448204"><ele>154.0</ele><time>2026-03-28T17:01:00.985Z</time></trkpt><trkpt lat="45.47580089356731" lon="8.692455413415857"><ele>154.0</ele><time>2026-03-28T17:01:02.985Z</time></trkpt><trkpt lat="45.47590308215255" lon="8.69241335009967"><ele>154.0</ele><time>2026-03-28T17:01:04.985Z</time></trkpt><trkpt lat="45.476002918562486" lon="8.692379558123795"><ele>154.0</ele><time>2026-03-28T17:01:06.985Z</time></trkpt><trkpt lat="45.47609379947907" lon="8.69235937729066"><ele>154.0</ele><time>2026-03-28T17:01:08.985Z</time></trkpt><trkpt lat="45.47619052509369" lon="8.692343291012358"><ele>154.0</ele><time>2026-03-28T17:01:10.985Z</time></trkpt><trkpt lat="45.47625340755961" lon="8.692334375153859"><ele>154.0</ele><time>2026-03-28T17:01:11.985Z</time></trkpt><trkpt lat="45.47632065092203" lon="8.692319000070219"><ele>154.0</ele><time>2026-03-28T17:01:12.985Z</time></trkpt><trkpt lat="45.47639273465745" lon="8.69229830905802"><ele>154.0</ele><time>2026-03-28T17:01:13.985Z</time></trkpt><trkpt lat="45.476466080457946" lon="8.692277726725568"><ele>154.0</ele><time>2026-03-28T17:01:14.985Z</time></trkpt><trkpt lat="45.47653210052969" lon="8.692254419232118"><ele>154.0</ele><time>2026-03-28T17:01:15.985Z</time></trkpt><trkpt lat="45.476596085324545" lon="8.692240998456558"><ele>154.0</ele><time>2026-03-28T17:01:16.985Z</time></trkpt><trkpt lat="45.47671291327989" lon="8.692210354217984"><ele>153.85714285714286</ele><time>2026-03-28T17:01:18.985Z</time></trkpt><trkpt lat="45.47677417474023" lon="8.69218663082127"><ele>153.71428571428572</ele><time>2026-03-28T17:01:19.985Z</time></trkpt><trkpt lat="45.47683771127399" lon="8.692158317920805"><ele>153.57142857142856</ele><time>2026-03-28T17:01:20.985Z</time></trkpt><trkpt lat="45.476903935914635" lon="8.692135267290139"><ele>153.42857142857144</ele><time>2026-03-28T17:01:21.985Z</time></trkpt><trkpt lat="45.47697094901714" lon="8.6921132396436"><ele>153.28571428571428</ele><time>2026-03-28T17:01:22.985Z</time></trkpt><trkpt lat="45.477039729417505" lon="8.692086386793125"><ele>153.14285714285714</ele><time>2026-03-28T17:01:23.985Z</time></trkpt><trkpt lat="45.477106281000246" lon="8.692059872345006"><ele>153.0</ele><time>2026-03-28T17:01:24.985Z</time></trkpt><trkpt lat="45.47716905966268" lon="8.692034235095996"><ele>153.0</ele><time>2026-03-28T17:01:25.985Z</time></trkpt><trkpt lat="45.47724018944599" lon="8.69201091752734"><ele>153.0</ele><time>2026-03-28T17:01:26.985Z</time></trkpt><trkpt lat="45.47731705296076" lon="8.69198416684364"><ele>153.0</ele><time>2026-03-28T17:01:27.985Z</time></trkpt><trkpt lat="45.477395447109046" lon="8.691958552919978"><ele>153.0</ele><time>2026-03-28T17:01:28.985Z</time></trkpt><trkpt lat="45.47747067051264" lon="8.691932867094039"><ele>153.0</ele><time>2026-03-28T17:01:29.985Z</time></trkpt><trkpt lat="45.47753941192746" lon="8.691910430993808"><ele>153.0</ele><time>2026-03-28T17:01:30.985Z</time></trkpt><trkpt lat="45.47760780696251" lon="8.691902495753927"><ele>153.0</ele><time>2026-03-28T17:01:31.985Z</time></trkpt><trkpt lat="45.47766994986029" lon="8.691883128196789"><ele>153.0</ele><time>2026-03-28T17:01:32.985Z</time></trkpt><trkpt lat="45.47779576287862" lon="8.691848643276307"><ele>153.0</ele><time>2026-03-28T17:01:34.985Z</time></trkpt><trkpt lat="45.477874412885704" lon="8.691852902945225"><ele>153.0</ele><time>2026-03-28T17:01:35.985Z</time></trkpt><trkpt lat="45.4779473779184" lon="8.691882150083945"><ele>153.0</ele><time>2026-03-28T17:01:36.985Z</time></trkpt><trkpt lat="45.478004464162574" lon="8.691932710896735"><ele>153.0</ele><time>2026-03-28T17:01:37.985Z</time></trkpt><trkpt lat="45.47804443945288" lon="8.692004457984353"><ele>153.0</ele><time>2026-03-28T17:01:38.985Z</time></trkpt><trkpt lat="45.47807628738721" lon="8.692105759798078"><ele>153.33333333333334</ele><time>2026-03-28T17:01:39.985Z</time></trkpt><trkpt lat="45.478104769519106" lon="8.69221513494793"><ele>153.66666666666666</ele><time>2026-03-28T17:01:40.985Z</time></trkpt><trkpt lat="45.47814312766163" lon="8.692337914969986"><ele>154.0</ele><time>2026-03-28T17:01:41.985Z</time></trkpt><trkpt lat="45.47819216160203" lon="8.692457094231438"><ele>154.33333333333331</ele><time>2026-03-28T17:01:42.985Z</time></trkpt><trkpt lat="45.47823735388088" lon="8.692568169513782"><ele>154.66666666666666</ele><time>2026-03-28T17:01:43.985Z</time></trkpt><trkpt lat="45.47827666482739" lon="8.69266931898502"><ele>155.0</ele><time>2026-03-28T17:01:44.985Z</time></trkpt><trkpt lat="45.47831356274973" lon="8.692769535636641"><ele>155.16666666666666</ele><time>2026-03-28T17:01:45.985Z</time></trkpt><trkpt lat="45.47835373952286" lon="8.692870767732975"><ele>155.33333333333331</ele><time>2026-03-28T17:01:46.985Z</time></trkpt><trkpt lat="45.47838514220088" lon="8.692964382984385"><ele>155.5</ele><time>2026-03-28T17:01:47.985Z</time></trkpt><trkpt lat="45.47841564448452" lon="8.693056192575554"><ele>155.66666666666666</ele><time>2026-03-28T17:01:48.985Z</time></trkpt><trkpt lat="45.47843834410224" lon="8.693141192673343"><ele>155.83333333333334</ele><time>2026-03-28T17:01:49.985Z</time></trkpt><trkpt lat="45.47849582370889" lon="8.693281777984026"><ele>156.0</ele><time>2026-03-28T17:01:51.985Z</time></trkpt><trkpt lat="45.478585403708486" lon="8.69338973283986"><ele>156.0</ele><time>2026-03-28T17:01:53.985Z</time></trkpt><trkpt lat="45.47864370051836" lon="8.693455865421313"><ele>156.0</ele><time>2026-03-28T17:01:54.985Z</time></trkpt><trkpt lat="45.47868902432845" lon="8.693552039846123"><ele>156.0</ele><time>2026-03-28T17:01:55.985Z</time></trkpt><trkpt lat="45.47873209011978" lon="8.69364331180349"><ele>156.0</ele><time>2026-03-28T17:01:56.985Z</time></trkpt><trkpt lat="45.4787869103795" lon="8.69371319005177"><ele>156.0</ele><time>2026-03-28T17:01:57.985Z</time></trkpt><trkpt lat="45.47886383703469" lon="8.693748368491834"><ele>156.0</ele><time>2026-03-28T17:01:58.985Z</time></trkpt><trkpt lat="45.47894166413828" lon="8.693757162064626"><ele>155.75</ele><time>2026-03-28T17:01:59.985Z</time></trkpt><trkpt lat="45.47904947236163" lon="8.693759475959764"><ele>155.5</ele><time>2026-03-28T17:02:00.985Z</time></trkpt><trkpt lat="45.47916778394102" lon="8.693730708570772"><ele>155.25</ele><time>2026-03-28T17:02:01.985Z</time></trkpt><trkpt lat="45.479287749072526" lon="8.693721010895596"><ele>155.0</ele><time>2026-03-28T17:02:02.985Z</time></trkpt><trkpt lat="45.479399882993576" lon="8.69370879994679"><ele>155.0</ele><time>2026-03-28T17:02:03.985Z</time></trkpt><trkpt lat="45.479496026389185" lon="8.693691283891823"><ele>155.0</ele><time>2026-03-28T17:02:04.985Z</time></trkpt><trkpt lat="45.479585463533695" lon="8.693681430351939"><ele>155.0</ele><time>2026-03-28T17:02:05.985Z</time></trkpt><trkpt lat="45.47967739369963" lon="8.69367050957528"><ele>155.0</ele><time>2026-03-28T17:02:06.985Z</time></trkpt><trkpt lat="45.47977678149486" lon="8.693670553539834"><ele>155.0</ele><time>2026-03-28T17:02:07.985Z</time></trkpt><trkpt lat="45.47989250851141" lon="8.693664486304266"><ele>155.0</ele><time>2026-03-28T17:02:08.985Z</time></trkpt><trkpt lat="45.48002643517183" lon="8.693655076715606"><ele>155.0</ele><time>2026-03-28T17:02:09.985Z</time></trkpt><trkpt lat="45.48016004901935" lon="8.693654725932532"><ele>155.0</ele><time>2026-03-28T17:02:10.986Z</time></trkpt><trkpt lat="45.48029797533321" lon="8.693663929119843"><ele>155.0</ele><time>2026-03-28T17:02:11.986Z</time></trkpt><trkpt lat="45.48044717312378" lon="8.693660342962776"><ele>154.66666666666666</ele><time>2026-03-28T17:02:12.986Z</time></trkpt><trkpt lat="45.48061708678369" lon="8.69364722649418"><ele>154.33333333333334</ele><time>2026-03-28T17:02:13.986Z</time></trkpt><trkpt lat="45.480788797672204" lon="8.693630145582457"><ele>154.0</ele><time>2026-03-28T17:02:14.986Z</time></trkpt><trkpt lat="45.48094937871342" lon="8.693619750939177"><ele>154.0</ele><time>2026-03-28T17:02:15.986Z</time></trkpt><trkpt lat="45.481095400852666" lon="8.693612918696935"><ele>154.0</ele><time>2026-03-28T17:02:16.986Z</time></trkpt><trkpt lat="45.48122685857438" lon="8.693624211329467"><ele>154.0</ele><time>2026-03-28T17:02:17.986Z</time></trkpt><trkpt lat="45.481351131616364" lon="8.693643040991226"><ele>154.0</ele><time>2026-03-28T17:02:18.986Z</time></trkpt><trkpt lat="45.48146627523914" lon="8.693681326731475"><ele>153.8</ele><time>2026-03-28T17:02:19.986Z</time></trkpt><trkpt lat="45.48156428346449" lon="8.693745664200028"><ele>153.60000000000002</ele><time>2026-03-28T17:02:20.986Z</time></trkpt><trkpt lat="45.4816394108936" lon="8.693791327944595"><ele>153.4</ele><time>2026-03-28T17:02:21.986Z</time></trkpt><trkpt lat="45.48175630019346" lon="8.69387822335465"><ele>153.20000000000002</ele><time>2026-03-28T17:02:23.986Z</time></trkpt><trkpt lat="45.48182501200291" lon="8.69399867268135"><ele>153.0</ele><time>2026-03-28T17:02:24.986Z</time></trkpt><trkpt lat="45.481882576983104" lon="8.694152196175677"><ele>153.0</ele><time>2026-03-28T17:02:25.986Z</time></trkpt><trkpt lat="45.4819321269707" lon="8.69432449185118"><ele>153.0</ele><time>2026-03-28T17:02:26.986Z</time></trkpt><trkpt lat="45.481975523702914" lon="8.694495831046092"><ele>155.0</ele><time>2026-03-28T17:02:27.986Z</time></trkpt><trkpt lat="45.48202499254846" lon="8.694684980128706"><ele>155.0</ele><time>2026-03-28T17:02:28.986Z</time></trkpt></trkseg></trk></gpx>